<?xml version="1.0" encoding="UTF-8" standalone="no" ?>
<gpx xmlns="http://www.topografix.com/GPX/1/1" xmlns:xsi="http://www.w3.org/2001/XMLSchema-instance" xsi:schemaLocation="http://www.topografix.com/GPX/1/1 http://www.topografix.com/GPX/1/1/gpx.xsd" version="1.1" creator="VisuGPX - https://www.visugpx.com">
  <metadata>
    <name>2017-08-07 05:47:21 Jour</name>
    <desc><![CDATA[4eme jour en bikepacking sur la French Divide 2017]]></desc>
  </metadata>
  <trk>
    <name><![CDATA[2017-08-07 05:47:21 Jour]]></name>
    <trkseg>
      <trkpt lat="48.94124" lon="4.23635">
        <ele>82.81</ele>
        <time>2017-08-07T03:47:21Z</time>
      </trkpt>
      <trkpt lat="48.94125" lon="4.23635">
        <ele>82.81</ele>
        <time>2017-08-07T03:47:22Z</time>
      </trkpt>
      <trkpt lat="48.94127" lon="4.23636">
        <ele>83.29</ele>
        <time>2017-08-07T03:47:40Z</time>
      </trkpt>
      <trkpt lat="48.94132" lon="4.2363">
        <ele>84.73</ele>
        <time>2017-08-07T03:48:06Z</time>
      </trkpt>
      <trkpt lat="48.94141" lon="4.23636">
        <ele>87.62</ele>
        <time>2017-08-07T03:48:37Z</time>
      </trkpt>
      <trkpt lat="48.94139" lon="4.23632">
        <ele>90.5</ele>
        <time>2017-08-07T03:48:51Z</time>
      </trkpt>
      <trkpt lat="48.94136" lon="4.23635">
        <ele>90.98</ele>
        <time>2017-08-07T03:49:12Z</time>
      </trkpt>
      <trkpt lat="48.94129" lon="4.2363">
        <ele>90.98</ele>
        <time>2017-08-07T03:50:07Z</time>
      </trkpt>
      <trkpt lat="48.94136" lon="4.23634">
        <ele>91.46</ele>
        <time>2017-08-07T03:50:36Z</time>
      </trkpt>
      <trkpt lat="48.94137" lon="4.23637">
        <ele>91.46</ele>
        <time>2017-08-07T03:51:22Z</time>
      </trkpt>
      <trkpt lat="48.94137" lon="4.23631">
        <ele>91.46</ele>
        <time>2017-08-07T03:51:52Z</time>
      </trkpt>
      <trkpt lat="48.94136" lon="4.2363">
        <ele>91.46</ele>
        <time>2017-08-07T03:52:00Z</time>
      </trkpt>
      <trkpt lat="48.94133" lon="4.23625">
        <ele>91.46</ele>
        <time>2017-08-07T03:52:04Z</time>
      </trkpt>
      <trkpt lat="48.94102" lon="4.23617">
        <ele>90.5</ele>
        <time>2017-08-07T03:52:16Z</time>
      </trkpt>
      <trkpt lat="48.94055" lon="4.23616">
        <ele>90.5</ele>
        <time>2017-08-07T03:52:32Z</time>
      </trkpt>
      <trkpt lat="48.9401" lon="4.23605">
        <ele>90.5</ele>
        <time>2017-08-07T03:52:50Z</time>
      </trkpt>
      <trkpt lat="48.93983" lon="4.23574">
        <ele>90.5</ele>
        <time>2017-08-07T03:53:03Z</time>
      </trkpt>
      <trkpt lat="48.93969" lon="4.2359">
        <ele>91.94</ele>
        <time>2017-08-07T03:53:13Z</time>
      </trkpt>
      <trkpt lat="48.93965" lon="4.23598">
        <ele>92.42</ele>
        <time>2017-08-07T03:53:17Z</time>
      </trkpt>
      <trkpt lat="48.93953" lon="4.23637">
        <ele>93.39</ele>
        <time>2017-08-07T03:53:33Z</time>
      </trkpt>
      <trkpt lat="48.93935" lon="4.23617">
        <ele>93.87</ele>
        <time>2017-08-07T03:53:44Z</time>
      </trkpt>
      <trkpt lat="48.93926" lon="4.23606">
        <ele>93.87</ele>
        <time>2017-08-07T03:53:49Z</time>
      </trkpt>
      <trkpt lat="48.93925" lon="4.23607">
        <ele>94.35</ele>
        <time>2017-08-07T03:53:50Z</time>
      </trkpt>
      <trkpt lat="48.93925" lon="4.2361">
        <ele>94.35</ele>
        <time>2017-08-07T03:53:51Z</time>
      </trkpt>
      <trkpt lat="48.93927" lon="4.23612">
        <ele>94.35</ele>
        <time>2017-08-07T03:53:52Z</time>
      </trkpt>
      <trkpt lat="48.93928" lon="4.23614">
        <ele>94.35</ele>
        <time>2017-08-07T03:53:53Z</time>
      </trkpt>
      <trkpt lat="48.93954" lon="4.23659">
        <ele>94.35</ele>
        <time>2017-08-07T03:54:04Z</time>
      </trkpt>
      <trkpt lat="48.93994" lon="4.23758">
        <ele>92.42</ele>
        <time>2017-08-07T03:54:19Z</time>
      </trkpt>
      <trkpt lat="48.94008" lon="4.23786">
        <ele>93.87</ele>
        <time>2017-08-07T03:54:25Z</time>
      </trkpt>
      <trkpt lat="48.9405" lon="4.23853">
        <ele>95.79</ele>
        <time>2017-08-07T03:54:44Z</time>
      </trkpt>
      <trkpt lat="48.94094" lon="4.23913">
        <ele>96.75</ele>
        <time>2017-08-07T03:55:02Z</time>
      </trkpt>
      <trkpt lat="48.94154" lon="4.23983">
        <ele>96.75</ele>
        <time>2017-08-07T03:55:20Z</time>
      </trkpt>
      <trkpt lat="48.94237" lon="4.24094">
        <ele>95.31</ele>
        <time>2017-08-07T03:55:42Z</time>
      </trkpt>
      <trkpt lat="48.94253" lon="4.24119">
        <ele>95.31</ele>
        <time>2017-08-07T03:55:47Z</time>
      </trkpt>
      <trkpt lat="48.94317" lon="4.24195">
        <ele>93.87</ele>
        <time>2017-08-07T03:56:04Z</time>
      </trkpt>
      <trkpt lat="48.94407" lon="4.24285">
        <ele>91.46</ele>
        <time>2017-08-07T03:56:22Z</time>
      </trkpt>
      <trkpt lat="48.94429" lon="4.24312">
        <ele>91.46</ele>
        <time>2017-08-07T03:56:27Z</time>
      </trkpt>
      <trkpt lat="48.94488" lon="4.24411">
        <ele>90.02</ele>
        <time>2017-08-07T03:56:43Z</time>
      </trkpt>
      <trkpt lat="48.94506" lon="4.2444">
        <ele>90.02</ele>
        <time>2017-08-07T03:56:54Z</time>
      </trkpt>
      <trkpt lat="48.94528" lon="4.2448">
        <ele>91.46</ele>
        <time>2017-08-07T03:57:06Z</time>
      </trkpt>
      <trkpt lat="48.94529" lon="4.24483">
        <ele>91.46</ele>
        <time>2017-08-07T03:57:07Z</time>
      </trkpt>
      <trkpt lat="48.94548" lon="4.24528">
        <ele>91.94</ele>
        <time>2017-08-07T03:57:20Z</time>
      </trkpt>
      <trkpt lat="48.9458" lon="4.24594">
        <ele>92.42</ele>
        <time>2017-08-07T03:57:34Z</time>
      </trkpt>
      <trkpt lat="48.9461" lon="4.24662">
        <ele>92.42</ele>
        <time>2017-08-07T03:57:47Z</time>
      </trkpt>
      <trkpt lat="48.94613" lon="4.24668">
        <ele>92.42</ele>
        <time>2017-08-07T03:57:48Z</time>
      </trkpt>
      <trkpt lat="48.94614" lon="4.24672">
        <ele>92.42</ele>
        <time>2017-08-07T03:57:49Z</time>
      </trkpt>
      <trkpt lat="48.94633" lon="4.2472">
        <ele>92.42</ele>
        <time>2017-08-07T03:57:58Z</time>
      </trkpt>
      <trkpt lat="48.94639" lon="4.24737">
        <ele>92.42</ele>
        <time>2017-08-07T03:58:01Z</time>
      </trkpt>
      <trkpt lat="48.94671" lon="4.24818">
        <ele>90.98</ele>
        <time>2017-08-07T03:58:16Z</time>
      </trkpt>
      <trkpt lat="48.947" lon="4.24901">
        <ele>90.98</ele>
        <time>2017-08-07T03:58:33Z</time>
      </trkpt>
      <trkpt lat="48.94726" lon="4.24985">
        <ele>90.5</ele>
        <time>2017-08-07T03:58:47Z</time>
      </trkpt>
      <trkpt lat="48.94761" lon="4.25099">
        <ele>90.5</ele>
        <time>2017-08-07T03:59:07Z</time>
      </trkpt>
      <trkpt lat="48.94799" lon="4.2523">
        <ele>90.5</ele>
        <time>2017-08-07T03:59:30Z</time>
      </trkpt>
      <trkpt lat="48.94841" lon="4.2537">
        <ele>90.5</ele>
        <time>2017-08-07T03:59:54Z</time>
      </trkpt>
      <trkpt lat="48.94859" lon="4.25434">
        <ele>90.5</ele>
        <time>2017-08-07T04:00:08Z</time>
      </trkpt>
      <trkpt lat="48.94864" lon="4.25447">
        <ele>90.5</ele>
        <time>2017-08-07T04:00:17Z</time>
      </trkpt>
      <trkpt lat="48.94865" lon="4.2545">
        <ele>90.5</ele>
        <time>2017-08-07T04:00:23Z</time>
      </trkpt>
      <trkpt lat="48.94877" lon="4.25505">
        <ele>90.5</ele>
        <time>2017-08-07T04:00:34Z</time>
      </trkpt>
      <trkpt lat="48.94887" lon="4.25539">
        <ele>90.5</ele>
        <time>2017-08-07T04:00:40Z</time>
      </trkpt>
      <trkpt lat="48.94896" lon="4.2556">
        <ele>90.5</ele>
        <time>2017-08-07T04:00:44Z</time>
      </trkpt>
      <trkpt lat="48.94954" lon="4.25631">
        <ele>90.02</ele>
        <time>2017-08-07T04:01:01Z</time>
      </trkpt>
      <trkpt lat="48.95011" lon="4.25692">
        <ele>89.06</ele>
        <time>2017-08-07T04:01:16Z</time>
      </trkpt>
      <trkpt lat="48.95077" lon="4.25773">
        <ele>89.06</ele>
        <time>2017-08-07T04:01:36Z</time>
      </trkpt>
      <trkpt lat="48.95083" lon="4.25782">
        <ele>89.06</ele>
        <time>2017-08-07T04:01:38Z</time>
      </trkpt>
      <trkpt lat="48.95086" lon="4.25786">
        <ele>89.06</ele>
        <time>2017-08-07T04:01:39Z</time>
      </trkpt>
      <trkpt lat="48.9509" lon="4.25789">
        <ele>89.06</ele>
        <time>2017-08-07T04:01:40Z</time>
      </trkpt>
      <trkpt lat="48.95092" lon="4.25793">
        <ele>89.06</ele>
        <time>2017-08-07T04:01:41Z</time>
      </trkpt>
      <trkpt lat="48.95095" lon="4.25797">
        <ele>89.06</ele>
        <time>2017-08-07T04:01:42Z</time>
      </trkpt>
      <trkpt lat="48.95128" lon="4.25855">
        <ele>90.98</ele>
        <time>2017-08-07T04:01:57Z</time>
      </trkpt>
      <trkpt lat="48.95174" lon="4.25945">
        <ele>91.46</ele>
        <time>2017-08-07T04:02:17Z</time>
      </trkpt>
      <trkpt lat="48.95217" lon="4.2604">
        <ele>90.02</ele>
        <time>2017-08-07T04:02:37Z</time>
      </trkpt>
      <trkpt lat="48.95263" lon="4.26144">
        <ele>90.02</ele>
        <time>2017-08-07T04:02:59Z</time>
      </trkpt>
      <trkpt lat="48.9531" lon="4.26199">
        <ele>89.06</ele>
        <time>2017-08-07T04:03:14Z</time>
      </trkpt>
      <trkpt lat="48.95363" lon="4.26251">
        <ele>88.58</ele>
        <time>2017-08-07T04:03:28Z</time>
      </trkpt>
      <trkpt lat="48.95421" lon="4.26332">
        <ele>87.62</ele>
        <time>2017-08-07T04:03:45Z</time>
      </trkpt>
      <trkpt lat="48.95425" lon="4.26338">
        <ele>87.14</ele>
        <time>2017-08-07T04:03:46Z</time>
      </trkpt>
      <trkpt lat="48.95471" lon="4.26421">
        <ele>86.66</ele>
        <time>2017-08-07T04:04:00Z</time>
      </trkpt>
      <trkpt lat="48.9551" lon="4.26492">
        <ele>87.62</ele>
        <time>2017-08-07T04:04:14Z</time>
      </trkpt>
      <trkpt lat="48.95513" lon="4.26497">
        <ele>87.62</ele>
        <time>2017-08-07T04:04:15Z</time>
      </trkpt>
      <trkpt lat="48.9552" lon="4.26512">
        <ele>87.62</ele>
        <time>2017-08-07T04:04:18Z</time>
      </trkpt>
      <trkpt lat="48.95556" lon="4.26607">
        <ele>88.1</ele>
        <time>2017-08-07T04:04:35Z</time>
      </trkpt>
      <trkpt lat="48.95591" lon="4.26723">
        <ele>88.1</ele>
        <time>2017-08-07T04:04:53Z</time>
      </trkpt>
      <trkpt lat="48.95613" lon="4.2679">
        <ele>88.1</ele>
        <time>2017-08-07T04:05:03Z</time>
      </trkpt>
      <trkpt lat="48.95615" lon="4.26796">
        <ele>88.1</ele>
        <time>2017-08-07T04:05:04Z</time>
      </trkpt>
      <trkpt lat="48.9562" lon="4.26809">
        <ele>88.1</ele>
        <time>2017-08-07T04:05:06Z</time>
      </trkpt>
      <trkpt lat="48.95647" lon="4.26892">
        <ele>88.1</ele>
        <time>2017-08-07T04:05:19Z</time>
      </trkpt>
      <trkpt lat="48.95649" lon="4.26899">
        <ele>88.1</ele>
        <time>2017-08-07T04:05:20Z</time>
      </trkpt>
      <trkpt lat="48.95686" lon="4.2701">
        <ele>86.66</ele>
        <time>2017-08-07T04:05:39Z</time>
      </trkpt>
      <trkpt lat="48.95734" lon="4.271">
        <ele>88.1</ele>
        <time>2017-08-07T04:05:57Z</time>
      </trkpt>
      <trkpt lat="48.95742" lon="4.27116">
        <ele>88.1</ele>
        <time>2017-08-07T04:06:00Z</time>
      </trkpt>
      <trkpt lat="48.95797" lon="4.272">
        <ele>87.62</ele>
        <time>2017-08-07T04:06:17Z</time>
      </trkpt>
      <trkpt lat="48.95846" lon="4.27276">
        <ele>86.66</ele>
        <time>2017-08-07T04:06:33Z</time>
      </trkpt>
      <trkpt lat="48.9585" lon="4.27283">
        <ele>88.1</ele>
        <time>2017-08-07T04:06:36Z</time>
      </trkpt>
      <trkpt lat="48.95875" lon="4.273">
        <ele>89.06</ele>
        <time>2017-08-07T04:06:48Z</time>
      </trkpt>
      <trkpt lat="48.9589" lon="4.27299">
        <ele>89.06</ele>
        <time>2017-08-07T04:06:52Z</time>
      </trkpt>
      <trkpt lat="48.95971" lon="4.27287">
        <ele>87.14</ele>
        <time>2017-08-07T04:07:08Z</time>
      </trkpt>
      <trkpt lat="48.95987" lon="4.27287">
        <ele>86.66</ele>
        <time>2017-08-07T04:07:11Z</time>
      </trkpt>
      <trkpt lat="48.95993" lon="4.27289">
        <ele>86.66</ele>
        <time>2017-08-07T04:07:12Z</time>
      </trkpt>
      <trkpt lat="48.95998" lon="4.27291">
        <ele>86.66</ele>
        <time>2017-08-07T04:07:13Z</time>
      </trkpt>
      <trkpt lat="48.96003" lon="4.27295">
        <ele>86.66</ele>
        <time>2017-08-07T04:07:14Z</time>
      </trkpt>
      <trkpt lat="48.96007" lon="4.27299">
        <ele>86.66</ele>
        <time>2017-08-07T04:07:15Z</time>
      </trkpt>
      <trkpt lat="48.96012" lon="4.27304">
        <ele>86.66</ele>
        <time>2017-08-07T04:07:16Z</time>
      </trkpt>
      <trkpt lat="48.9607" lon="4.27371">
        <ele>86.66</ele>
        <time>2017-08-07T04:07:31Z</time>
      </trkpt>
      <trkpt lat="48.96129" lon="4.27459">
        <ele>86.66</ele>
        <time>2017-08-07T04:07:49Z</time>
      </trkpt>
      <trkpt lat="48.96196" lon="4.27591">
        <ele>88.1</ele>
        <time>2017-08-07T04:08:12Z</time>
      </trkpt>
      <trkpt lat="48.96257" lon="4.2771">
        <ele>85.69</ele>
        <time>2017-08-07T04:08:30Z</time>
      </trkpt>
      <trkpt lat="48.96323" lon="4.2784">
        <ele>85.21</ele>
        <time>2017-08-07T04:08:47Z</time>
      </trkpt>
      <trkpt lat="48.96405" lon="4.27983">
        <ele>84.73</ele>
        <time>2017-08-07T04:09:07Z</time>
      </trkpt>
      <trkpt lat="48.96483" lon="4.2806">
        <ele>83.29</ele>
        <time>2017-08-07T04:09:21Z</time>
      </trkpt>
      <trkpt lat="48.96582" lon="4.28173">
        <ele>82.81</ele>
        <time>2017-08-07T04:09:40Z</time>
      </trkpt>
      <trkpt lat="48.96638" lon="4.28244">
        <ele>82.81</ele>
        <time>2017-08-07T04:09:54Z</time>
      </trkpt>
      <trkpt lat="48.96669" lon="4.28287">
        <ele>82.33</ele>
        <time>2017-08-07T04:10:02Z</time>
      </trkpt>
      <trkpt lat="48.96731" lon="4.28376">
        <ele>82.33</ele>
        <time>2017-08-07T04:10:20Z</time>
      </trkpt>
      <trkpt lat="48.96768" lon="4.28413">
        <ele>82.33</ele>
        <time>2017-08-07T04:10:30Z</time>
      </trkpt>
      <trkpt lat="48.9677" lon="4.28419">
        <ele>82.33</ele>
        <time>2017-08-07T04:10:31Z</time>
      </trkpt>
      <trkpt lat="48.96834" lon="4.28545">
        <ele>82.33</ele>
        <time>2017-08-07T04:10:52Z</time>
      </trkpt>
      <trkpt lat="48.96913" lon="4.28685">
        <ele>82.33</ele>
        <time>2017-08-07T04:11:17Z</time>
      </trkpt>
      <trkpt lat="48.96963" lon="4.28774">
        <ele>84.25</ele>
        <time>2017-08-07T04:11:35Z</time>
      </trkpt>
      <trkpt lat="48.9701" lon="4.28858">
        <ele>85.69</ele>
        <time>2017-08-07T04:11:55Z</time>
      </trkpt>
      <trkpt lat="48.97064" lon="4.28954">
        <ele>85.69</ele>
        <time>2017-08-07T04:12:13Z</time>
      </trkpt>
      <trkpt lat="48.97135" lon="4.29053">
        <ele>83.77</ele>
        <time>2017-08-07T04:12:31Z</time>
      </trkpt>
      <trkpt lat="48.97199" lon="4.29168">
        <ele>81.37</ele>
        <time>2017-08-07T04:12:47Z</time>
      </trkpt>
      <trkpt lat="48.97275" lon="4.29291">
        <ele>81.37</ele>
        <time>2017-08-07T04:13:08Z</time>
      </trkpt>
      <trkpt lat="48.97339" lon="4.29392">
        <ele>81.37</ele>
        <time>2017-08-07T04:13:28Z</time>
      </trkpt>
      <trkpt lat="48.97355" lon="4.29413">
        <ele>82.81</ele>
        <time>2017-08-07T04:13:37Z</time>
      </trkpt>
      <trkpt lat="48.97372" lon="4.29435">
        <ele>83.29</ele>
        <time>2017-08-07T04:13:49Z</time>
      </trkpt>
      <trkpt lat="48.97372" lon="4.29437">
        <ele>83.29</ele>
        <time>2017-08-07T04:13:50Z</time>
      </trkpt>
      <trkpt lat="48.97372" lon="4.29439">
        <ele>83.29</ele>
        <time>2017-08-07T04:13:51Z</time>
      </trkpt>
      <trkpt lat="48.97373" lon="4.29441">
        <ele>83.29</ele>
        <time>2017-08-07T04:13:52Z</time>
      </trkpt>
      <trkpt lat="48.97393" lon="4.29463">
        <ele>83.29</ele>
        <time>2017-08-07T04:14:02Z</time>
      </trkpt>
      <trkpt lat="48.97396" lon="4.29467">
        <ele>83.29</ele>
        <time>2017-08-07T04:14:03Z</time>
      </trkpt>
      <trkpt lat="48.97412" lon="4.29492">
        <ele>82.33</ele>
        <time>2017-08-07T04:14:08Z</time>
      </trkpt>
      <trkpt lat="48.97443" lon="4.29539">
        <ele>82.33</ele>
        <time>2017-08-07T04:14:18Z</time>
      </trkpt>
      <trkpt lat="48.9746" lon="4.2959">
        <ele>82.33</ele>
        <time>2017-08-07T04:14:28Z</time>
      </trkpt>
      <trkpt lat="48.97459" lon="4.29603">
        <ele>82.33</ele>
        <time>2017-08-07T04:14:30Z</time>
      </trkpt>
      <trkpt lat="48.97458" lon="4.29616">
        <ele>82.33</ele>
        <time>2017-08-07T04:14:32Z</time>
      </trkpt>
      <trkpt lat="48.97456" lon="4.29622">
        <ele>82.33</ele>
        <time>2017-08-07T04:14:33Z</time>
      </trkpt>
      <trkpt lat="48.97455" lon="4.29628">
        <ele>82.33</ele>
        <time>2017-08-07T04:14:34Z</time>
      </trkpt>
      <trkpt lat="48.97453" lon="4.29635">
        <ele>82.33</ele>
        <time>2017-08-07T04:14:35Z</time>
      </trkpt>
      <trkpt lat="48.97451" lon="4.29641">
        <ele>82.33</ele>
        <time>2017-08-07T04:14:36Z</time>
      </trkpt>
      <trkpt lat="48.97449" lon="4.29647">
        <ele>82.33</ele>
        <time>2017-08-07T04:14:37Z</time>
      </trkpt>
      <trkpt lat="48.97427" lon="4.29703">
        <ele>83.29</ele>
        <time>2017-08-07T04:14:48Z</time>
      </trkpt>
      <trkpt lat="48.97387" lon="4.29801">
        <ele>84.25</ele>
        <time>2017-08-07T04:15:09Z</time>
      </trkpt>
      <trkpt lat="48.97355" lon="4.29881">
        <ele>85.21</ele>
        <time>2017-08-07T04:15:27Z</time>
      </trkpt>
      <trkpt lat="48.97324" lon="4.29956">
        <ele>86.66</ele>
        <time>2017-08-07T04:15:45Z</time>
      </trkpt>
      <trkpt lat="48.9732" lon="4.29961">
        <ele>86.66</ele>
        <time>2017-08-07T04:15:47Z</time>
      </trkpt>
      <trkpt lat="48.97319" lon="4.29965">
        <ele>87.14</ele>
        <time>2017-08-07T04:15:48Z</time>
      </trkpt>
      <trkpt lat="48.97318" lon="4.2997">
        <ele>87.14</ele>
        <time>2017-08-07T04:15:49Z</time>
      </trkpt>
      <trkpt lat="48.97316" lon="4.29972">
        <ele>87.14</ele>
        <time>2017-08-07T04:15:50Z</time>
      </trkpt>
      <trkpt lat="48.97315" lon="4.29976">
        <ele>87.14</ele>
        <time>2017-08-07T04:15:51Z</time>
      </trkpt>
      <trkpt lat="48.97296" lon="4.3006">
        <ele>88.1</ele>
        <time>2017-08-07T04:16:09Z</time>
      </trkpt>
      <trkpt lat="48.97274" lon="4.30146">
        <ele>90.02</ele>
        <time>2017-08-07T04:16:28Z</time>
      </trkpt>
      <trkpt lat="48.9726" lon="4.302">
        <ele>90.02</ele>
        <time>2017-08-07T04:16:40Z</time>
      </trkpt>
      <trkpt lat="48.97236" lon="4.3028">
        <ele>91.94</ele>
        <time>2017-08-07T04:16:58Z</time>
      </trkpt>
      <trkpt lat="48.97206" lon="4.3037">
        <ele>93.87</ele>
        <time>2017-08-07T04:17:21Z</time>
      </trkpt>
      <trkpt lat="48.97177" lon="4.30453">
        <ele>94.35</ele>
        <time>2017-08-07T04:17:39Z</time>
      </trkpt>
      <trkpt lat="48.97166" lon="4.30512">
        <ele>95.31</ele>
        <time>2017-08-07T04:17:52Z</time>
      </trkpt>
      <trkpt lat="48.97147" lon="4.30582">
        <ele>96.27</ele>
        <time>2017-08-07T04:18:08Z</time>
      </trkpt>
      <trkpt lat="48.9712" lon="4.3068">
        <ele>94.83</ele>
        <time>2017-08-07T04:18:24Z</time>
      </trkpt>
      <trkpt lat="48.97113" lon="4.307">
        <ele>94.35</ele>
        <time>2017-08-07T04:18:27Z</time>
      </trkpt>
      <trkpt lat="48.97111" lon="4.30707">
        <ele>94.35</ele>
        <time>2017-08-07T04:18:28Z</time>
      </trkpt>
      <trkpt lat="48.97087" lon="4.30806">
        <ele>94.83</ele>
        <time>2017-08-07T04:18:43Z</time>
      </trkpt>
      <trkpt lat="48.97073" lon="4.30859">
        <ele>98.19</ele>
        <time>2017-08-07T04:18:57Z</time>
      </trkpt>
      <trkpt lat="48.97061" lon="4.30907">
        <ele>100.11</ele>
        <time>2017-08-07T04:19:12Z</time>
      </trkpt>
      <trkpt lat="48.97047" lon="4.30961">
        <ele>101.56</ele>
        <time>2017-08-07T04:19:28Z</time>
      </trkpt>
      <trkpt lat="48.97029" lon="4.31031">
        <ele>102.04</ele>
        <time>2017-08-07T04:19:46Z</time>
      </trkpt>
      <trkpt lat="48.96988" lon="4.31119">
        <ele>102.52</ele>
        <time>2017-08-07T04:20:05Z</time>
      </trkpt>
      <trkpt lat="48.96942" lon="4.31185">
        <ele>101.08</ele>
        <time>2017-08-07T04:20:19Z</time>
      </trkpt>
      <trkpt lat="48.969" lon="4.31248">
        <ele>97.71</ele>
        <time>2017-08-07T04:20:30Z</time>
      </trkpt>
      <trkpt lat="48.96872" lon="4.31281">
        <ele>95.79</ele>
        <time>2017-08-07T04:20:39Z</time>
      </trkpt>
      <trkpt lat="48.96868" lon="4.31284">
        <ele>95.79</ele>
        <time>2017-08-07T04:20:40Z</time>
      </trkpt>
      <trkpt lat="48.96836" lon="4.31316">
        <ele>92.42</ele>
        <time>2017-08-07T04:20:46Z</time>
      </trkpt>
      <trkpt lat="48.96803" lon="4.3135">
        <ele>89.06</ele>
        <time>2017-08-07T04:20:51Z</time>
      </trkpt>
      <trkpt lat="48.96753" lon="4.31399">
        <ele>85.69</ele>
        <time>2017-08-07T04:20:58Z</time>
      </trkpt>
      <trkpt lat="48.96674" lon="4.31474">
        <ele>82.81</ele>
        <time>2017-08-07T04:21:09Z</time>
      </trkpt>
      <trkpt lat="48.96616" lon="4.31504">
        <ele>83.77</ele>
        <time>2017-08-07T04:21:18Z</time>
      </trkpt>
      <trkpt lat="48.96579" lon="4.3153">
        <ele>84.25</ele>
        <time>2017-08-07T04:21:26Z</time>
      </trkpt>
      <trkpt lat="48.96576" lon="4.31534">
        <ele>84.73</ele>
        <time>2017-08-07T04:21:27Z</time>
      </trkpt>
      <trkpt lat="48.96573" lon="4.3154">
        <ele>84.73</ele>
        <time>2017-08-07T04:21:28Z</time>
      </trkpt>
      <trkpt lat="48.96571" lon="4.31546">
        <ele>84.73</ele>
        <time>2017-08-07T04:21:29Z</time>
      </trkpt>
      <trkpt lat="48.9657" lon="4.31553">
        <ele>84.73</ele>
        <time>2017-08-07T04:21:30Z</time>
      </trkpt>
      <trkpt lat="48.96569" lon="4.3156">
        <ele>84.73</ele>
        <time>2017-08-07T04:21:31Z</time>
      </trkpt>
      <trkpt lat="48.96547" lon="4.31645">
        <ele>85.69</ele>
        <time>2017-08-07T04:21:45Z</time>
      </trkpt>
      <trkpt lat="48.9652" lon="4.31694">
        <ele>88.1</ele>
        <time>2017-08-07T04:22:00Z</time>
      </trkpt>
      <trkpt lat="48.96487" lon="4.31728">
        <ele>90.98</ele>
        <time>2017-08-07T04:22:15Z</time>
      </trkpt>
      <trkpt lat="48.96454" lon="4.31762">
        <ele>92.42</ele>
        <time>2017-08-07T04:22:30Z</time>
      </trkpt>
      <trkpt lat="48.96424" lon="4.31804">
        <ele>93.39</ele>
        <time>2017-08-07T04:22:45Z</time>
      </trkpt>
      <trkpt lat="48.96384" lon="4.31858">
        <ele>95.31</ele>
        <time>2017-08-07T04:23:04Z</time>
      </trkpt>
      <trkpt lat="48.9635" lon="4.319">
        <ele>96.27</ele>
        <time>2017-08-07T04:23:19Z</time>
      </trkpt>
      <trkpt lat="48.96313" lon="4.31944">
        <ele>97.23</ele>
        <time>2017-08-07T04:23:34Z</time>
      </trkpt>
      <trkpt lat="48.96287" lon="4.31985">
        <ele>97.71</ele>
        <time>2017-08-07T04:23:48Z</time>
      </trkpt>
      <trkpt lat="48.96269" lon="4.32018">
        <ele>96.27</ele>
        <time>2017-08-07T04:23:54Z</time>
      </trkpt>
      <trkpt lat="48.96236" lon="4.32094">
        <ele>92.9</ele>
        <time>2017-08-07T04:24:04Z</time>
      </trkpt>
      <trkpt lat="48.96199" lon="4.32165">
        <ele>89.54</ele>
        <time>2017-08-07T04:24:12Z</time>
      </trkpt>
      <trkpt lat="48.96193" lon="4.32172">
        <ele>89.06</ele>
        <time>2017-08-07T04:24:13Z</time>
      </trkpt>
      <trkpt lat="48.9615" lon="4.32221">
        <ele>88.58</ele>
        <time>2017-08-07T04:24:21Z</time>
      </trkpt>
      <trkpt lat="48.96148" lon="4.32227">
        <ele>88.58</ele>
        <time>2017-08-07T04:24:22Z</time>
      </trkpt>
      <trkpt lat="48.96148" lon="4.32236">
        <ele>88.58</ele>
        <time>2017-08-07T04:24:23Z</time>
      </trkpt>
      <trkpt lat="48.96151" lon="4.32243">
        <ele>88.58</ele>
        <time>2017-08-07T04:24:24Z</time>
      </trkpt>
      <trkpt lat="48.96154" lon="4.32249">
        <ele>88.58</ele>
        <time>2017-08-07T04:24:25Z</time>
      </trkpt>
      <trkpt lat="48.96158" lon="4.32255">
        <ele>87.62</ele>
        <time>2017-08-07T04:24:26Z</time>
      </trkpt>
      <trkpt lat="48.96163" lon="4.32261">
        <ele>87.14</ele>
        <time>2017-08-07T04:24:27Z</time>
      </trkpt>
      <trkpt lat="48.96199" lon="4.32307">
        <ele>83.77</ele>
        <time>2017-08-07T04:24:33Z</time>
      </trkpt>
      <trkpt lat="48.96212" lon="4.32323">
        <ele>83.29</ele>
        <time>2017-08-07T04:24:35Z</time>
      </trkpt>
      <trkpt lat="48.96259" lon="4.32386">
        <ele>81.37</ele>
        <time>2017-08-07T04:24:43Z</time>
      </trkpt>
      <trkpt lat="48.9626" lon="4.32394">
        <ele>81.37</ele>
        <time>2017-08-07T04:24:44Z</time>
      </trkpt>
      <trkpt lat="48.96259" lon="4.32402">
        <ele>81.37</ele>
        <time>2017-08-07T04:24:45Z</time>
      </trkpt>
      <trkpt lat="48.96258" lon="4.32409">
        <ele>81.37</ele>
        <time>2017-08-07T04:24:46Z</time>
      </trkpt>
      <trkpt lat="48.96255" lon="4.32416">
        <ele>81.37</ele>
        <time>2017-08-07T04:24:47Z</time>
      </trkpt>
      <trkpt lat="48.96251" lon="4.32422">
        <ele>81.37</ele>
        <time>2017-08-07T04:24:48Z</time>
      </trkpt>
      <trkpt lat="48.96247" lon="4.32429">
        <ele>81.37</ele>
        <time>2017-08-07T04:24:49Z</time>
      </trkpt>
      <trkpt lat="48.96191" lon="4.32515">
        <ele>81.37</ele>
        <time>2017-08-07T04:25:05Z</time>
      </trkpt>
      <trkpt lat="48.96158" lon="4.32604">
        <ele>81.37</ele>
        <time>2017-08-07T04:25:19Z</time>
      </trkpt>
      <trkpt lat="48.96136" lon="4.3274">
        <ele>81.37</ele>
        <time>2017-08-07T04:25:38Z</time>
      </trkpt>
      <trkpt lat="48.96111" lon="4.32858">
        <ele>82.81</ele>
        <time>2017-08-07T04:25:55Z</time>
      </trkpt>
      <trkpt lat="48.96063" lon="4.32956">
        <ele>82.81</ele>
        <time>2017-08-07T04:26:13Z</time>
      </trkpt>
      <trkpt lat="48.96015" lon="4.3306">
        <ele>82.81</ele>
        <time>2017-08-07T04:26:32Z</time>
      </trkpt>
      <trkpt lat="48.96008" lon="4.33085">
        <ele>82.81</ele>
        <time>2017-08-07T04:26:36Z</time>
      </trkpt>
      <trkpt lat="48.96007" lon="4.3309">
        <ele>82.81</ele>
        <time>2017-08-07T04:26:37Z</time>
      </trkpt>
      <trkpt lat="48.9598" lon="4.33198">
        <ele>83.29</ele>
        <time>2017-08-07T04:26:55Z</time>
      </trkpt>
      <trkpt lat="48.95955" lon="4.33292">
        <ele>83.29</ele>
        <time>2017-08-07T04:27:10Z</time>
      </trkpt>
      <trkpt lat="48.95943" lon="4.33339">
        <ele>83.29</ele>
        <time>2017-08-07T04:27:17Z</time>
      </trkpt>
      <trkpt lat="48.95914" lon="4.33456">
        <ele>83.29</ele>
        <time>2017-08-07T04:27:35Z</time>
      </trkpt>
      <trkpt lat="48.95899" lon="4.3351">
        <ele>83.29</ele>
        <time>2017-08-07T04:27:43Z</time>
      </trkpt>
      <trkpt lat="48.95861" lon="4.33624">
        <ele>83.29</ele>
        <time>2017-08-07T04:28:00Z</time>
      </trkpt>
      <trkpt lat="48.95859" lon="4.3363">
        <ele>83.29</ele>
        <time>2017-08-07T04:28:01Z</time>
      </trkpt>
      <trkpt lat="48.9583" lon="4.33704">
        <ele>83.29</ele>
        <time>2017-08-07T04:28:13Z</time>
      </trkpt>
      <trkpt lat="48.95803" lon="4.33785">
        <ele>83.29</ele>
        <time>2017-08-07T04:28:27Z</time>
      </trkpt>
      <trkpt lat="48.95783" lon="4.33831">
        <ele>83.29</ele>
        <time>2017-08-07T04:28:35Z</time>
      </trkpt>
      <trkpt lat="48.95742" lon="4.33932">
        <ele>83.29</ele>
        <time>2017-08-07T04:28:52Z</time>
      </trkpt>
      <trkpt lat="48.95698" lon="4.34053">
        <ele>83.29</ele>
        <time>2017-08-07T04:29:12Z</time>
      </trkpt>
      <trkpt lat="48.95664" lon="4.34149">
        <ele>83.29</ele>
        <time>2017-08-07T04:29:27Z</time>
      </trkpt>
      <trkpt lat="48.95659" lon="4.34162">
        <ele>83.77</ele>
        <time>2017-08-07T04:29:29Z</time>
      </trkpt>
      <trkpt lat="48.95657" lon="4.34169">
        <ele>83.77</ele>
        <time>2017-08-07T04:29:30Z</time>
      </trkpt>
      <trkpt lat="48.95637" lon="4.34254">
        <ele>84.25</ele>
        <time>2017-08-07T04:29:43Z</time>
      </trkpt>
      <trkpt lat="48.95636" lon="4.3426">
        <ele>84.25</ele>
        <time>2017-08-07T04:29:44Z</time>
      </trkpt>
      <trkpt lat="48.95605" lon="4.34378">
        <ele>84.73</ele>
        <time>2017-08-07T04:30:03Z</time>
      </trkpt>
      <trkpt lat="48.95597" lon="4.34405">
        <ele>84.73</ele>
        <time>2017-08-07T04:30:07Z</time>
      </trkpt>
      <trkpt lat="48.95593" lon="4.3441">
        <ele>84.73</ele>
        <time>2017-08-07T04:30:08Z</time>
      </trkpt>
      <trkpt lat="48.95589" lon="4.34416">
        <ele>84.73</ele>
        <time>2017-08-07T04:30:09Z</time>
      </trkpt>
      <trkpt lat="48.95562" lon="4.3444">
        <ele>84.73</ele>
        <time>2017-08-07T04:30:19Z</time>
      </trkpt>
      <trkpt lat="48.95532" lon="4.34454">
        <ele>84.73</ele>
        <time>2017-08-07T04:30:28Z</time>
      </trkpt>
      <trkpt lat="48.95529" lon="4.34455">
        <ele>84.73</ele>
        <time>2017-08-07T04:30:29Z</time>
      </trkpt>
      <trkpt lat="48.95525" lon="4.34457">
        <ele>84.73</ele>
        <time>2017-08-07T04:30:30Z</time>
      </trkpt>
      <trkpt lat="48.95455" lon="4.34504">
        <ele>84.73</ele>
        <time>2017-08-07T04:30:47Z</time>
      </trkpt>
      <trkpt lat="48.95443" lon="4.34513">
        <ele>84.73</ele>
        <time>2017-08-07T04:30:50Z</time>
      </trkpt>
      <trkpt lat="48.95438" lon="4.34517">
        <ele>84.73</ele>
        <time>2017-08-07T04:30:51Z</time>
      </trkpt>
      <trkpt lat="48.9543" lon="4.34523">
        <ele>83.77</ele>
        <time>2017-08-07T04:30:53Z</time>
      </trkpt>
      <trkpt lat="48.95399" lon="4.34541">
        <ele>83.77</ele>
        <time>2017-08-07T04:31:04Z</time>
      </trkpt>
      <trkpt lat="48.95358" lon="4.3457">
        <ele>83.77</ele>
        <time>2017-08-07T04:31:17Z</time>
      </trkpt>
      <trkpt lat="48.95349" lon="4.34576">
        <ele>85.21</ele>
        <time>2017-08-07T04:31:20Z</time>
      </trkpt>
      <trkpt lat="48.95331" lon="4.34589">
        <ele>86.66</ele>
        <time>2017-08-07T04:31:28Z</time>
      </trkpt>
      <trkpt lat="48.95329" lon="4.34591">
        <ele>86.66</ele>
        <time>2017-08-07T04:31:29Z</time>
      </trkpt>
      <trkpt lat="48.95328" lon="4.34594">
        <ele>86.66</ele>
        <time>2017-08-07T04:31:30Z</time>
      </trkpt>
      <trkpt lat="48.95328" lon="4.34598">
        <ele>86.66</ele>
        <time>2017-08-07T04:31:31Z</time>
      </trkpt>
      <trkpt lat="48.95327" lon="4.34601">
        <ele>86.66</ele>
        <time>2017-08-07T04:31:32Z</time>
      </trkpt>
      <trkpt lat="48.95327" lon="4.34608">
        <ele>86.66</ele>
        <time>2017-08-07T04:31:34Z</time>
      </trkpt>
      <trkpt lat="48.95328" lon="4.34612">
        <ele>86.66</ele>
        <time>2017-08-07T04:31:35Z</time>
      </trkpt>
      <trkpt lat="48.95346" lon="4.34701">
        <ele>87.14</ele>
        <time>2017-08-07T04:31:52Z</time>
      </trkpt>
      <trkpt lat="48.9536" lon="4.3477">
        <ele>87.62</ele>
        <time>2017-08-07T04:32:05Z</time>
      </trkpt>
      <trkpt lat="48.9538" lon="4.34856">
        <ele>88.1</ele>
        <time>2017-08-07T04:32:22Z</time>
      </trkpt>
      <trkpt lat="48.95386" lon="4.34911">
        <ele>88.58</ele>
        <time>2017-08-07T04:32:35Z</time>
      </trkpt>
      <trkpt lat="48.95386" lon="4.34913">
        <ele>88.58</ele>
        <time>2017-08-07T04:32:36Z</time>
      </trkpt>
      <trkpt lat="48.95387" lon="4.34915">
        <ele>88.58</ele>
        <time>2017-08-07T04:32:37Z</time>
      </trkpt>
      <trkpt lat="48.95386" lon="4.34919">
        <ele>89.06</ele>
        <time>2017-08-07T04:32:48Z</time>
      </trkpt>
      <trkpt lat="48.95387" lon="4.34928">
        <ele>89.06</ele>
        <time>2017-08-07T04:33:12Z</time>
      </trkpt>
      <trkpt lat="48.95394" lon="4.34927">
        <ele>89.54</ele>
        <time>2017-08-07T04:33:41Z</time>
      </trkpt>
      <trkpt lat="48.95396" lon="4.34926">
        <ele>89.54</ele>
        <time>2017-08-07T04:34:01Z</time>
      </trkpt>
      <trkpt lat="48.95394" lon="4.3493">
        <ele>90.02</ele>
        <time>2017-08-07T04:34:19Z</time>
      </trkpt>
      <trkpt lat="48.95393" lon="4.34927">
        <ele>90.5</ele>
        <time>2017-08-07T04:34:49Z</time>
      </trkpt>
      <trkpt lat="48.95395" lon="4.34925">
        <ele>90.5</ele>
        <time>2017-08-07T04:35:12Z</time>
      </trkpt>
      <trkpt lat="48.95395" lon="4.34927">
        <ele>90.98</ele>
        <time>2017-08-07T04:35:29Z</time>
      </trkpt>
      <trkpt lat="48.95393" lon="4.34923">
        <ele>90.98</ele>
        <time>2017-08-07T04:35:47Z</time>
      </trkpt>
      <trkpt lat="48.95389" lon="4.34922">
        <ele>90.98</ele>
        <time>2017-08-07T04:36:05Z</time>
      </trkpt>
      <trkpt lat="48.95385" lon="4.3492">
        <ele>91.46</ele>
        <time>2017-08-07T04:36:34Z</time>
      </trkpt>
      <trkpt lat="48.95384" lon="4.34918">
        <ele>91.46</ele>
        <time>2017-08-07T04:37:01Z</time>
      </trkpt>
      <trkpt lat="48.95384" lon="4.3492">
        <ele>91.46</ele>
        <time>2017-08-07T04:37:20Z</time>
      </trkpt>
      <trkpt lat="48.95383" lon="4.34921">
        <ele>91.46</ele>
        <time>2017-08-07T04:37:46Z</time>
      </trkpt>
      <trkpt lat="48.95383" lon="4.34923">
        <ele>91.46</ele>
        <time>2017-08-07T04:38:02Z</time>
      </trkpt>
      <trkpt lat="48.95381" lon="4.34924">
        <ele>91.46</ele>
        <time>2017-08-07T04:38:04Z</time>
      </trkpt>
      <trkpt lat="48.95377" lon="4.34931">
        <ele>91.94</ele>
        <time>2017-08-07T04:38:09Z</time>
      </trkpt>
      <trkpt lat="48.95379" lon="4.34932">
        <ele>91.94</ele>
        <time>2017-08-07T04:38:10Z</time>
      </trkpt>
      <trkpt lat="48.9538" lon="4.34932">
        <ele>91.94</ele>
        <time>2017-08-07T04:38:11Z</time>
      </trkpt>
      <trkpt lat="48.95382" lon="4.34935">
        <ele>91.94</ele>
        <time>2017-08-07T04:38:12Z</time>
      </trkpt>
      <trkpt lat="48.95382" lon="4.34939">
        <ele>91.94</ele>
        <time>2017-08-07T04:38:13Z</time>
      </trkpt>
      <trkpt lat="48.95384" lon="4.34942">
        <ele>91.94</ele>
        <time>2017-08-07T04:38:14Z</time>
      </trkpt>
      <trkpt lat="48.95385" lon="4.34944">
        <ele>91.94</ele>
        <time>2017-08-07T04:38:15Z</time>
      </trkpt>
      <trkpt lat="48.95387" lon="4.34946">
        <ele>91.94</ele>
        <time>2017-08-07T04:38:16Z</time>
      </trkpt>
      <trkpt lat="48.95388" lon="4.34949">
        <ele>91.94</ele>
        <time>2017-08-07T04:38:17Z</time>
      </trkpt>
      <trkpt lat="48.95392" lon="4.34959">
        <ele>91.94</ele>
        <time>2017-08-07T04:38:21Z</time>
      </trkpt>
      <trkpt lat="48.95393" lon="4.34963">
        <ele>92.42</ele>
        <time>2017-08-07T04:38:24Z</time>
      </trkpt>
      <trkpt lat="48.95393" lon="4.34965">
        <ele>91.94</ele>
        <time>2017-08-07T04:38:25Z</time>
      </trkpt>
      <trkpt lat="48.95395" lon="4.34959">
        <ele>92.42</ele>
        <time>2017-08-07T04:38:35Z</time>
      </trkpt>
      <trkpt lat="48.9539" lon="4.34956">
        <ele>92.9</ele>
        <time>2017-08-07T04:38:41Z</time>
      </trkpt>
      <trkpt lat="48.95389" lon="4.34957">
        <ele>92.9</ele>
        <time>2017-08-07T04:38:42Z</time>
      </trkpt>
      <trkpt lat="48.95389" lon="4.34959">
        <ele>92.9</ele>
        <time>2017-08-07T04:38:43Z</time>
      </trkpt>
      <trkpt lat="48.95391" lon="4.34961">
        <ele>92.9</ele>
        <time>2017-08-07T04:38:47Z</time>
      </trkpt>
      <trkpt lat="48.95393" lon="4.34961">
        <ele>92.42</ele>
        <time>2017-08-07T04:38:49Z</time>
      </trkpt>
      <trkpt lat="48.95393" lon="4.34963">
        <ele>92.42</ele>
        <time>2017-08-07T04:38:50Z</time>
      </trkpt>
      <trkpt lat="48.95389" lon="4.34958">
        <ele>92.9</ele>
        <time>2017-08-07T04:38:59Z</time>
      </trkpt>
      <trkpt lat="48.9539" lon="4.34956">
        <ele>92.9</ele>
        <time>2017-08-07T04:39:03Z</time>
      </trkpt>
      <trkpt lat="48.95391" lon="4.34958">
        <ele>92.9</ele>
        <time>2017-08-07T04:39:04Z</time>
      </trkpt>
      <trkpt lat="48.95393" lon="4.34973">
        <ele>92.9</ele>
        <time>2017-08-07T04:39:16Z</time>
      </trkpt>
      <trkpt lat="48.95394" lon="4.34977">
        <ele>92.9</ele>
        <time>2017-08-07T04:39:18Z</time>
      </trkpt>
      <trkpt lat="48.95396" lon="4.34979">
        <ele>92.9</ele>
        <time>2017-08-07T04:39:19Z</time>
      </trkpt>
      <trkpt lat="48.95397" lon="4.34981">
        <ele>92.9</ele>
        <time>2017-08-07T04:39:20Z</time>
      </trkpt>
      <trkpt lat="48.95407" lon="4.35019">
        <ele>93.87</ele>
        <time>2017-08-07T04:39:33Z</time>
      </trkpt>
      <trkpt lat="48.95419" lon="4.35077">
        <ele>93.87</ele>
        <time>2017-08-07T04:39:48Z</time>
      </trkpt>
      <trkpt lat="48.95424" lon="4.35098">
        <ele>92.42</ele>
        <time>2017-08-07T04:39:52Z</time>
      </trkpt>
      <trkpt lat="48.95445" lon="4.352">
        <ele>91.46</ele>
        <time>2017-08-07T04:40:09Z</time>
      </trkpt>
      <trkpt lat="48.95452" lon="4.35252">
        <ele>90.98</ele>
        <time>2017-08-07T04:40:17Z</time>
      </trkpt>
      <trkpt lat="48.95458" lon="4.35284">
        <ele>90.98</ele>
        <time>2017-08-07T04:40:23Z</time>
      </trkpt>
      <trkpt lat="48.95458" lon="4.35286">
        <ele>90.98</ele>
        <time>2017-08-07T04:40:24Z</time>
      </trkpt>
      <trkpt lat="48.95458" lon="4.35288">
        <ele>90.98</ele>
        <time>2017-08-07T04:40:25Z</time>
      </trkpt>
      <trkpt lat="48.95459" lon="4.35289">
        <ele>90.98</ele>
        <time>2017-08-07T04:40:26Z</time>
      </trkpt>
      <trkpt lat="48.9546" lon="4.35287">
        <ele>90.98</ele>
        <time>2017-08-07T04:40:28Z</time>
      </trkpt>
      <trkpt lat="48.95461" lon="4.35285">
        <ele>90.98</ele>
        <time>2017-08-07T04:40:29Z</time>
      </trkpt>
      <trkpt lat="48.95462" lon="4.35283">
        <ele>90.98</ele>
        <time>2017-08-07T04:40:30Z</time>
      </trkpt>
      <trkpt lat="48.95464" lon="4.35281">
        <ele>90.98</ele>
        <time>2017-08-07T04:40:31Z</time>
      </trkpt>
      <trkpt lat="48.95465" lon="4.35279">
        <ele>90.98</ele>
        <time>2017-08-07T04:40:32Z</time>
      </trkpt>
      <trkpt lat="48.95467" lon="4.35277">
        <ele>90.98</ele>
        <time>2017-08-07T04:40:33Z</time>
      </trkpt>
      <trkpt lat="48.95468" lon="4.35274">
        <ele>90.98</ele>
        <time>2017-08-07T04:40:34Z</time>
      </trkpt>
      <trkpt lat="48.95469" lon="4.35271">
        <ele>90.98</ele>
        <time>2017-08-07T04:40:35Z</time>
      </trkpt>
      <trkpt lat="48.9547" lon="4.35269">
        <ele>90.98</ele>
        <time>2017-08-07T04:40:36Z</time>
      </trkpt>
      <trkpt lat="48.95471" lon="4.35267">
        <ele>90.98</ele>
        <time>2017-08-07T04:40:37Z</time>
      </trkpt>
      <trkpt lat="48.95471" lon="4.35265">
        <ele>90.98</ele>
        <time>2017-08-07T04:40:38Z</time>
      </trkpt>
      <trkpt lat="48.95471" lon="4.35263">
        <ele>90.98</ele>
        <time>2017-08-07T04:40:39Z</time>
      </trkpt>
      <trkpt lat="48.95471" lon="4.35261">
        <ele>90.98</ele>
        <time>2017-08-07T04:40:40Z</time>
      </trkpt>
      <trkpt lat="48.9547" lon="4.35258">
        <ele>90.98</ele>
        <time>2017-08-07T04:40:53Z</time>
      </trkpt>
      <trkpt lat="48.95465" lon="4.35263">
        <ele>90.98</ele>
        <time>2017-08-07T04:41:10Z</time>
      </trkpt>
      <trkpt lat="48.95457" lon="4.35268">
        <ele>90.98</ele>
        <time>2017-08-07T04:41:44Z</time>
      </trkpt>
      <trkpt lat="48.95458" lon="4.35268">
        <ele>90.98</ele>
        <time>2017-08-07T04:42:18Z</time>
      </trkpt>
      <trkpt lat="48.95458" lon="4.35269">
        <ele>91.46</ele>
        <time>2017-08-07T04:42:49Z</time>
      </trkpt>
      <trkpt lat="48.9546" lon="4.35268">
        <ele>91.46</ele>
        <time>2017-08-07T04:43:20Z</time>
      </trkpt>
      <trkpt lat="48.95464" lon="4.35266">
        <ele>91.46</ele>
        <time>2017-08-07T04:43:49Z</time>
      </trkpt>
      <trkpt lat="48.9547" lon="4.35262">
        <ele>90.98</ele>
        <time>2017-08-07T04:44:15Z</time>
      </trkpt>
      <trkpt lat="48.95469" lon="4.35263">
        <ele>90.98</ele>
        <time>2017-08-07T04:44:47Z</time>
      </trkpt>
      <trkpt lat="48.95467" lon="4.35259">
        <ele>90.98</ele>
        <time>2017-08-07T04:45:09Z</time>
      </trkpt>
      <trkpt lat="48.95464" lon="4.35262">
        <ele>90.98</ele>
        <time>2017-08-07T04:45:32Z</time>
      </trkpt>
      <trkpt lat="48.95452" lon="4.35267">
        <ele>90.98</ele>
        <time>2017-08-07T04:45:54Z</time>
      </trkpt>
      <trkpt lat="48.95446" lon="4.35271">
        <ele>90.98</ele>
        <time>2017-08-07T04:46:18Z</time>
      </trkpt>
      <trkpt lat="48.95455" lon="4.35267">
        <ele>90.98</ele>
        <time>2017-08-07T04:46:49Z</time>
      </trkpt>
      <trkpt lat="48.95462" lon="4.35261">
        <ele>90.98</ele>
        <time>2017-08-07T04:47:13Z</time>
      </trkpt>
      <trkpt lat="48.95464" lon="4.3526">
        <ele>90.98</ele>
        <time>2017-08-07T04:47:34Z</time>
      </trkpt>
      <trkpt lat="48.95465" lon="4.35262">
        <ele>90.98</ele>
        <time>2017-08-07T04:47:35Z</time>
      </trkpt>
      <trkpt lat="48.95465" lon="4.35264">
        <ele>90.98</ele>
        <time>2017-08-07T04:47:36Z</time>
      </trkpt>
      <trkpt lat="48.95466" lon="4.35266">
        <ele>90.98</ele>
        <time>2017-08-07T04:47:37Z</time>
      </trkpt>
      <trkpt lat="48.95467" lon="4.35268">
        <ele>90.98</ele>
        <time>2017-08-07T04:47:38Z</time>
      </trkpt>
      <trkpt lat="48.95467" lon="4.3527">
        <ele>90.98</ele>
        <time>2017-08-07T04:47:39Z</time>
      </trkpt>
      <trkpt lat="48.95484" lon="4.35334">
        <ele>90.98</ele>
        <time>2017-08-07T04:47:53Z</time>
      </trkpt>
      <trkpt lat="48.95489" lon="4.35352">
        <ele>90.5</ele>
        <time>2017-08-07T04:47:58Z</time>
      </trkpt>
      <trkpt lat="48.95489" lon="4.35354">
        <ele>90.5</ele>
        <time>2017-08-07T04:47:59Z</time>
      </trkpt>
      <trkpt lat="48.95487" lon="4.35354">
        <ele>90.5</ele>
        <time>2017-08-07T04:48:02Z</time>
      </trkpt>
      <trkpt lat="48.95483" lon="4.35358">
        <ele>90.5</ele>
        <time>2017-08-07T04:48:05Z</time>
      </trkpt>
      <trkpt lat="48.95481" lon="4.35361">
        <ele>90.5</ele>
        <time>2017-08-07T04:48:06Z</time>
      </trkpt>
      <trkpt lat="48.95481" lon="4.35365">
        <ele>90.5</ele>
        <time>2017-08-07T04:48:07Z</time>
      </trkpt>
      <trkpt lat="48.95481" lon="4.3537">
        <ele>90.5</ele>
        <time>2017-08-07T04:48:08Z</time>
      </trkpt>
      <trkpt lat="48.95481" lon="4.35374">
        <ele>90.5</ele>
        <time>2017-08-07T04:48:09Z</time>
      </trkpt>
      <trkpt lat="48.95482" lon="4.35379">
        <ele>90.5</ele>
        <time>2017-08-07T04:48:10Z</time>
      </trkpt>
      <trkpt lat="48.95483" lon="4.35384">
        <ele>90.5</ele>
        <time>2017-08-07T04:48:11Z</time>
      </trkpt>
      <trkpt lat="48.95484" lon="4.35395">
        <ele>90.5</ele>
        <time>2017-08-07T04:48:13Z</time>
      </trkpt>
      <trkpt lat="48.95483" lon="4.35398">
        <ele>90.5</ele>
        <time>2017-08-07T04:48:14Z</time>
      </trkpt>
      <trkpt lat="48.95482" lon="4.35401">
        <ele>90.5</ele>
        <time>2017-08-07T04:48:15Z</time>
      </trkpt>
      <trkpt lat="48.95483" lon="4.35404">
        <ele>90.5</ele>
        <time>2017-08-07T04:48:16Z</time>
      </trkpt>
      <trkpt lat="48.95484" lon="4.35408">
        <ele>90.5</ele>
        <time>2017-08-07T04:48:17Z</time>
      </trkpt>
      <trkpt lat="48.95484" lon="4.35411">
        <ele>90.5</ele>
        <time>2017-08-07T04:48:18Z</time>
      </trkpt>
      <trkpt lat="48.95485" lon="4.35416">
        <ele>90.5</ele>
        <time>2017-08-07T04:48:19Z</time>
      </trkpt>
      <trkpt lat="48.95499" lon="4.35475">
        <ele>90.02</ele>
        <time>2017-08-07T04:48:31Z</time>
      </trkpt>
      <trkpt lat="48.95504" lon="4.35493">
        <ele>89.54</ele>
        <time>2017-08-07T04:48:34Z</time>
      </trkpt>
      <trkpt lat="48.95505" lon="4.35497">
        <ele>89.54</ele>
        <time>2017-08-07T04:48:35Z</time>
      </trkpt>
      <trkpt lat="48.95506" lon="4.35504">
        <ele>89.54</ele>
        <time>2017-08-07T04:48:36Z</time>
      </trkpt>
      <trkpt lat="48.95511" lon="4.35531">
        <ele>89.54</ele>
        <time>2017-08-07T04:48:42Z</time>
      </trkpt>
      <trkpt lat="48.95512" lon="4.35533">
        <ele>89.54</ele>
        <time>2017-08-07T04:48:43Z</time>
      </trkpt>
      <trkpt lat="48.95513" lon="4.35535">
        <ele>89.54</ele>
        <time>2017-08-07T04:48:44Z</time>
      </trkpt>
      <trkpt lat="48.95511" lon="4.35531">
        <ele>89.54</ele>
        <time>2017-08-07T04:48:50Z</time>
      </trkpt>
      <trkpt lat="48.95511" lon="4.35528">
        <ele>89.54</ele>
        <time>2017-08-07T04:48:51Z</time>
      </trkpt>
      <trkpt lat="48.95511" lon="4.35525">
        <ele>89.54</ele>
        <time>2017-08-07T04:48:52Z</time>
      </trkpt>
      <trkpt lat="48.9551" lon="4.3552">
        <ele>89.54</ele>
        <time>2017-08-07T04:48:53Z</time>
      </trkpt>
      <trkpt lat="48.95508" lon="4.35516">
        <ele>89.54</ele>
        <time>2017-08-07T04:48:54Z</time>
      </trkpt>
      <trkpt lat="48.95507" lon="4.35511">
        <ele>89.54</ele>
        <time>2017-08-07T04:48:55Z</time>
      </trkpt>
      <trkpt lat="48.95507" lon="4.35507">
        <ele>89.54</ele>
        <time>2017-08-07T04:48:56Z</time>
      </trkpt>
      <trkpt lat="48.95504" lon="4.355">
        <ele>89.54</ele>
        <time>2017-08-07T04:48:58Z</time>
      </trkpt>
      <trkpt lat="48.95501" lon="4.35498">
        <ele>89.54</ele>
        <time>2017-08-07T04:48:59Z</time>
      </trkpt>
      <trkpt lat="48.95497" lon="4.35498">
        <ele>89.54</ele>
        <time>2017-08-07T04:49:00Z</time>
      </trkpt>
      <trkpt lat="48.95494" lon="4.35499">
        <ele>89.54</ele>
        <time>2017-08-07T04:49:01Z</time>
      </trkpt>
      <trkpt lat="48.9549" lon="4.35502">
        <ele>88.58</ele>
        <time>2017-08-07T04:49:02Z</time>
      </trkpt>
      <trkpt lat="48.95486" lon="4.35504">
        <ele>88.1</ele>
        <time>2017-08-07T04:49:03Z</time>
      </trkpt>
      <trkpt lat="48.95481" lon="4.35507">
        <ele>88.1</ele>
        <time>2017-08-07T04:49:04Z</time>
      </trkpt>
      <trkpt lat="48.95464" lon="4.35514">
        <ele>88.1</ele>
        <time>2017-08-07T04:49:08Z</time>
      </trkpt>
      <trkpt lat="48.9546" lon="4.35516">
        <ele>88.1</ele>
        <time>2017-08-07T04:49:09Z</time>
      </trkpt>
      <trkpt lat="48.95456" lon="4.3552">
        <ele>88.1</ele>
        <time>2017-08-07T04:49:10Z</time>
      </trkpt>
      <trkpt lat="48.95384" lon="4.35568">
        <ele>88.1</ele>
        <time>2017-08-07T04:49:28Z</time>
      </trkpt>
      <trkpt lat="48.95325" lon="4.35602">
        <ele>87.62</ele>
        <time>2017-08-07T04:49:42Z</time>
      </trkpt>
      <trkpt lat="48.95269" lon="4.35634">
        <ele>87.62</ele>
        <time>2017-08-07T04:49:56Z</time>
      </trkpt>
      <trkpt lat="48.95253" lon="4.35644">
        <ele>87.62</ele>
        <time>2017-08-07T04:50:09Z</time>
      </trkpt>
      <trkpt lat="48.95248" lon="4.35643">
        <ele>87.62</ele>
        <time>2017-08-07T04:50:25Z</time>
      </trkpt>
      <trkpt lat="48.95247" lon="4.35651">
        <ele>87.62</ele>
        <time>2017-08-07T04:50:41Z</time>
      </trkpt>
      <trkpt lat="48.95237" lon="4.35653">
        <ele>89.06</ele>
        <time>2017-08-07T04:51:03Z</time>
      </trkpt>
      <trkpt lat="48.95231" lon="4.35656">
        <ele>89.06</ele>
        <time>2017-08-07T04:51:05Z</time>
      </trkpt>
      <trkpt lat="48.95215" lon="4.35666">
        <ele>89.06</ele>
        <time>2017-08-07T04:51:09Z</time>
      </trkpt>
      <trkpt lat="48.95139" lon="4.35709">
        <ele>89.06</ele>
        <time>2017-08-07T04:51:27Z</time>
      </trkpt>
      <trkpt lat="48.9511" lon="4.35722">
        <ele>89.06</ele>
        <time>2017-08-07T04:51:35Z</time>
      </trkpt>
      <trkpt lat="48.95108" lon="4.3572">
        <ele>89.06</ele>
        <time>2017-08-07T04:51:36Z</time>
      </trkpt>
      <trkpt lat="48.95106" lon="4.35718">
        <ele>89.06</ele>
        <time>2017-08-07T04:51:37Z</time>
      </trkpt>
      <trkpt lat="48.95104" lon="4.35718">
        <ele>89.06</ele>
        <time>2017-08-07T04:51:38Z</time>
      </trkpt>
      <trkpt lat="48.95101" lon="4.35718">
        <ele>89.06</ele>
        <time>2017-08-07T04:51:39Z</time>
      </trkpt>
      <trkpt lat="48.95074" lon="4.35707">
        <ele>87.62</ele>
        <time>2017-08-07T04:51:47Z</time>
      </trkpt>
      <trkpt lat="48.95071" lon="4.35702">
        <ele>87.62</ele>
        <time>2017-08-07T04:51:48Z</time>
      </trkpt>
      <trkpt lat="48.95069" lon="4.35696">
        <ele>87.62</ele>
        <time>2017-08-07T04:51:49Z</time>
      </trkpt>
      <trkpt lat="48.95066" lon="4.35689">
        <ele>87.14</ele>
        <time>2017-08-07T04:51:50Z</time>
      </trkpt>
      <trkpt lat="48.95064" lon="4.35682">
        <ele>87.14</ele>
        <time>2017-08-07T04:51:51Z</time>
      </trkpt>
      <trkpt lat="48.95062" lon="4.35674">
        <ele>87.14</ele>
        <time>2017-08-07T04:51:52Z</time>
      </trkpt>
      <trkpt lat="48.95023" lon="4.35526">
        <ele>86.66</ele>
        <time>2017-08-07T04:52:13Z</time>
      </trkpt>
      <trkpt lat="48.95013" lon="4.35498">
        <ele>87.62</ele>
        <time>2017-08-07T04:52:19Z</time>
      </trkpt>
      <trkpt lat="48.95011" lon="4.35498">
        <ele>88.58</ele>
        <time>2017-08-07T04:52:20Z</time>
      </trkpt>
      <trkpt lat="48.95009" lon="4.35498">
        <ele>88.58</ele>
        <time>2017-08-07T04:52:21Z</time>
      </trkpt>
      <trkpt lat="48.95007" lon="4.35499">
        <ele>88.58</ele>
        <time>2017-08-07T04:52:22Z</time>
      </trkpt>
      <trkpt lat="48.95004" lon="4.355">
        <ele>88.58</ele>
        <time>2017-08-07T04:52:23Z</time>
      </trkpt>
      <trkpt lat="48.94968" lon="4.35516">
        <ele>88.58</ele>
        <time>2017-08-07T04:52:34Z</time>
      </trkpt>
      <trkpt lat="48.94917" lon="4.35539">
        <ele>88.58</ele>
        <time>2017-08-07T04:52:47Z</time>
      </trkpt>
      <trkpt lat="48.94897" lon="4.35548">
        <ele>88.58</ele>
        <time>2017-08-07T04:52:52Z</time>
      </trkpt>
      <trkpt lat="48.94893" lon="4.3555">
        <ele>88.58</ele>
        <time>2017-08-07T04:52:53Z</time>
      </trkpt>
      <trkpt lat="48.94831" lon="4.35585">
        <ele>88.58</ele>
        <time>2017-08-07T04:53:09Z</time>
      </trkpt>
      <trkpt lat="48.94812" lon="4.35611">
        <ele>88.58</ele>
        <time>2017-08-07T04:53:19Z</time>
      </trkpt>
      <trkpt lat="48.9481" lon="4.3561">
        <ele>88.58</ele>
        <time>2017-08-07T04:53:20Z</time>
      </trkpt>
      <trkpt lat="48.94808" lon="4.35607">
        <ele>88.58</ele>
        <time>2017-08-07T04:53:21Z</time>
      </trkpt>
      <trkpt lat="48.94762" lon="4.35578">
        <ele>86.66</ele>
        <time>2017-08-07T04:53:32Z</time>
      </trkpt>
      <trkpt lat="48.94723" lon="4.35568">
        <ele>86.18</ele>
        <time>2017-08-07T04:53:41Z</time>
      </trkpt>
      <trkpt lat="48.9472" lon="4.35565">
        <ele>86.18</ele>
        <time>2017-08-07T04:53:42Z</time>
      </trkpt>
      <trkpt lat="48.94717" lon="4.35562">
        <ele>86.18</ele>
        <time>2017-08-07T04:53:43Z</time>
      </trkpt>
      <trkpt lat="48.94714" lon="4.35561">
        <ele>86.18</ele>
        <time>2017-08-07T04:53:44Z</time>
      </trkpt>
      <trkpt lat="48.94711" lon="4.35559">
        <ele>86.18</ele>
        <time>2017-08-07T04:53:45Z</time>
      </trkpt>
      <trkpt lat="48.94677" lon="4.35562">
        <ele>86.18</ele>
        <time>2017-08-07T04:53:55Z</time>
      </trkpt>
      <trkpt lat="48.94631" lon="4.35552">
        <ele>86.18</ele>
        <time>2017-08-07T04:54:08Z</time>
      </trkpt>
      <trkpt lat="48.94614" lon="4.35547">
        <ele>86.18</ele>
        <time>2017-08-07T04:54:12Z</time>
      </trkpt>
      <trkpt lat="48.94611" lon="4.35545">
        <ele>86.18</ele>
        <time>2017-08-07T04:54:13Z</time>
      </trkpt>
      <trkpt lat="48.94565" lon="4.35524">
        <ele>86.18</ele>
        <time>2017-08-07T04:54:25Z</time>
      </trkpt>
      <trkpt lat="48.94552" lon="4.35524">
        <ele>86.18</ele>
        <time>2017-08-07T04:54:28Z</time>
      </trkpt>
      <trkpt lat="48.94547" lon="4.35525">
        <ele>86.18</ele>
        <time>2017-08-07T04:54:29Z</time>
      </trkpt>
      <trkpt lat="48.94518" lon="4.35518">
        <ele>86.18</ele>
        <time>2017-08-07T04:54:36Z</time>
      </trkpt>
      <trkpt lat="48.94514" lon="4.35516">
        <ele>86.18</ele>
        <time>2017-08-07T04:54:37Z</time>
      </trkpt>
      <trkpt lat="48.94511" lon="4.35513">
        <ele>86.18</ele>
        <time>2017-08-07T04:54:38Z</time>
      </trkpt>
      <trkpt lat="48.94507" lon="4.35509">
        <ele>86.18</ele>
        <time>2017-08-07T04:54:39Z</time>
      </trkpt>
      <trkpt lat="48.94504" lon="4.35505">
        <ele>86.18</ele>
        <time>2017-08-07T04:54:40Z</time>
      </trkpt>
      <trkpt lat="48.94502" lon="4.35501">
        <ele>86.18</ele>
        <time>2017-08-07T04:54:41Z</time>
      </trkpt>
      <trkpt lat="48.94499" lon="4.35497">
        <ele>86.18</ele>
        <time>2017-08-07T04:54:42Z</time>
      </trkpt>
      <trkpt lat="48.94468" lon="4.35477">
        <ele>85.69</ele>
        <time>2017-08-07T04:54:50Z</time>
      </trkpt>
      <trkpt lat="48.94404" lon="4.35438">
        <ele>85.21</ele>
        <time>2017-08-07T04:55:03Z</time>
      </trkpt>
      <trkpt lat="48.94395" lon="4.35435">
        <ele>85.21</ele>
        <time>2017-08-07T04:55:05Z</time>
      </trkpt>
      <trkpt lat="48.9439" lon="4.35433">
        <ele>85.21</ele>
        <time>2017-08-07T04:55:06Z</time>
      </trkpt>
      <trkpt lat="48.94386" lon="4.35432">
        <ele>85.21</ele>
        <time>2017-08-07T04:55:07Z</time>
      </trkpt>
      <trkpt lat="48.94382" lon="4.3543">
        <ele>85.21</ele>
        <time>2017-08-07T04:55:08Z</time>
      </trkpt>
      <trkpt lat="48.94378" lon="4.35428">
        <ele>85.69</ele>
        <time>2017-08-07T04:55:09Z</time>
      </trkpt>
      <trkpt lat="48.94332" lon="4.35405">
        <ele>85.21</ele>
        <time>2017-08-07T04:55:21Z</time>
      </trkpt>
      <trkpt lat="48.94326" lon="4.35406">
        <ele>86.66</ele>
        <time>2017-08-07T04:55:23Z</time>
      </trkpt>
      <trkpt lat="48.94299" lon="4.35397">
        <ele>87.14</ele>
        <time>2017-08-07T04:55:32Z</time>
      </trkpt>
      <trkpt lat="48.9428" lon="4.35383">
        <ele>87.14</ele>
        <time>2017-08-07T04:55:38Z</time>
      </trkpt>
      <trkpt lat="48.94276" lon="4.35381">
        <ele>87.14</ele>
        <time>2017-08-07T04:55:39Z</time>
      </trkpt>
      <trkpt lat="48.94272" lon="4.35379">
        <ele>87.14</ele>
        <time>2017-08-07T04:55:40Z</time>
      </trkpt>
      <trkpt lat="48.94235" lon="4.3536">
        <ele>87.14</ele>
        <time>2017-08-07T04:55:50Z</time>
      </trkpt>
      <trkpt lat="48.94224" lon="4.35359">
        <ele>87.14</ele>
        <time>2017-08-07T04:55:53Z</time>
      </trkpt>
      <trkpt lat="48.94182" lon="4.35346">
        <ele>87.14</ele>
        <time>2017-08-07T04:56:04Z</time>
      </trkpt>
      <trkpt lat="48.94152" lon="4.35348">
        <ele>87.62</ele>
        <time>2017-08-07T04:56:12Z</time>
      </trkpt>
      <trkpt lat="48.94108" lon="4.35345">
        <ele>87.62</ele>
        <time>2017-08-07T04:56:22Z</time>
      </trkpt>
      <trkpt lat="48.9407" lon="4.35361">
        <ele>87.14</ele>
        <time>2017-08-07T04:56:32Z</time>
      </trkpt>
      <trkpt lat="48.94043" lon="4.35373">
        <ele>87.14</ele>
        <time>2017-08-07T04:56:39Z</time>
      </trkpt>
      <trkpt lat="48.94039" lon="4.35373">
        <ele>87.14</ele>
        <time>2017-08-07T04:56:40Z</time>
      </trkpt>
      <trkpt lat="48.94034" lon="4.35371">
        <ele>86.18</ele>
        <time>2017-08-07T04:56:41Z</time>
      </trkpt>
      <trkpt lat="48.94029" lon="4.35369">
        <ele>86.18</ele>
        <time>2017-08-07T04:56:42Z</time>
      </trkpt>
      <trkpt lat="48.94024" lon="4.35365">
        <ele>85.69</ele>
        <time>2017-08-07T04:56:43Z</time>
      </trkpt>
      <trkpt lat="48.94019" lon="4.3536">
        <ele>85.69</ele>
        <time>2017-08-07T04:56:44Z</time>
      </trkpt>
      <trkpt lat="48.94014" lon="4.35356">
        <ele>85.69</ele>
        <time>2017-08-07T04:56:45Z</time>
      </trkpt>
      <trkpt lat="48.9401" lon="4.35354">
        <ele>85.69</ele>
        <time>2017-08-07T04:56:46Z</time>
      </trkpt>
      <trkpt lat="48.94006" lon="4.35352">
        <ele>85.69</ele>
        <time>2017-08-07T04:56:47Z</time>
      </trkpt>
      <trkpt lat="48.94002" lon="4.35352">
        <ele>85.69</ele>
        <time>2017-08-07T04:56:48Z</time>
      </trkpt>
      <trkpt lat="48.93998" lon="4.35353">
        <ele>85.69</ele>
        <time>2017-08-07T04:56:49Z</time>
      </trkpt>
      <trkpt lat="48.93994" lon="4.35355">
        <ele>85.69</ele>
        <time>2017-08-07T04:56:50Z</time>
      </trkpt>
      <trkpt lat="48.93951" lon="4.35384">
        <ele>85.69</ele>
        <time>2017-08-07T04:57:01Z</time>
      </trkpt>
      <trkpt lat="48.93915" lon="4.35417">
        <ele>85.69</ele>
        <time>2017-08-07T04:57:12Z</time>
      </trkpt>
      <trkpt lat="48.93879" lon="4.35452">
        <ele>86.66</ele>
        <time>2017-08-07T04:57:23Z</time>
      </trkpt>
      <trkpt lat="48.93834" lon="4.35485">
        <ele>86.66</ele>
        <time>2017-08-07T04:57:35Z</time>
      </trkpt>
      <trkpt lat="48.93809" lon="4.35504">
        <ele>86.66</ele>
        <time>2017-08-07T04:57:41Z</time>
      </trkpt>
      <trkpt lat="48.9375" lon="4.35543">
        <ele>86.66</ele>
        <time>2017-08-07T04:57:55Z</time>
      </trkpt>
      <trkpt lat="48.93746" lon="4.35548">
        <ele>86.66</ele>
        <time>2017-08-07T04:57:56Z</time>
      </trkpt>
      <trkpt lat="48.93737" lon="4.35555">
        <ele>86.66</ele>
        <time>2017-08-07T04:57:58Z</time>
      </trkpt>
      <trkpt lat="48.93723" lon="4.35563">
        <ele>86.66</ele>
        <time>2017-08-07T04:58:01Z</time>
      </trkpt>
      <trkpt lat="48.93708" lon="4.3557">
        <ele>86.66</ele>
        <time>2017-08-07T04:58:05Z</time>
      </trkpt>
      <trkpt lat="48.93701" lon="4.35571">
        <ele>87.62</ele>
        <time>2017-08-07T04:58:16Z</time>
      </trkpt>
      <trkpt lat="48.93691" lon="4.35567">
        <ele>90.5</ele>
        <time>2017-08-07T04:58:32Z</time>
      </trkpt>
      <trkpt lat="48.93688" lon="4.35557">
        <ele>91.46</ele>
        <time>2017-08-07T04:58:46Z</time>
      </trkpt>
      <trkpt lat="48.93686" lon="4.35557">
        <ele>91.46</ele>
        <time>2017-08-07T04:58:49Z</time>
      </trkpt>
      <trkpt lat="48.93684" lon="4.35556">
        <ele>91.46</ele>
        <time>2017-08-07T04:58:50Z</time>
      </trkpt>
      <trkpt lat="48.93677" lon="4.35549">
        <ele>87.62</ele>
        <time>2017-08-07T04:58:53Z</time>
      </trkpt>
      <trkpt lat="48.93676" lon="4.35548">
        <ele>86.66</ele>
        <time>2017-08-07T04:58:54Z</time>
      </trkpt>
      <trkpt lat="48.93674" lon="4.35549">
        <ele>86.66</ele>
        <time>2017-08-07T04:58:55Z</time>
      </trkpt>
      <trkpt lat="48.93672" lon="4.35551">
        <ele>86.66</ele>
        <time>2017-08-07T04:58:56Z</time>
      </trkpt>
      <trkpt lat="48.93671" lon="4.35553">
        <ele>86.66</ele>
        <time>2017-08-07T04:58:57Z</time>
      </trkpt>
      <trkpt lat="48.93668" lon="4.35554">
        <ele>86.66</ele>
        <time>2017-08-07T04:58:58Z</time>
      </trkpt>
      <trkpt lat="48.93665" lon="4.35554">
        <ele>86.18</ele>
        <time>2017-08-07T04:58:59Z</time>
      </trkpt>
      <trkpt lat="48.93661" lon="4.35554">
        <ele>86.18</ele>
        <time>2017-08-07T04:59:00Z</time>
      </trkpt>
      <trkpt lat="48.93658" lon="4.35553">
        <ele>86.18</ele>
        <time>2017-08-07T04:59:01Z</time>
      </trkpt>
      <trkpt lat="48.93616" lon="4.35546">
        <ele>85.69</ele>
        <time>2017-08-07T04:59:12Z</time>
      </trkpt>
      <trkpt lat="48.93577" lon="4.35538">
        <ele>85.69</ele>
        <time>2017-08-07T04:59:24Z</time>
      </trkpt>
      <trkpt lat="48.93541" lon="4.35532">
        <ele>86.18</ele>
        <time>2017-08-07T04:59:35Z</time>
      </trkpt>
      <trkpt lat="48.93537" lon="4.35534">
        <ele>86.18</ele>
        <time>2017-08-07T04:59:36Z</time>
      </trkpt>
      <trkpt lat="48.93534" lon="4.35537">
        <ele>86.18</ele>
        <time>2017-08-07T04:59:37Z</time>
      </trkpt>
      <trkpt lat="48.93531" lon="4.3554">
        <ele>86.18</ele>
        <time>2017-08-07T04:59:38Z</time>
      </trkpt>
      <trkpt lat="48.93529" lon="4.35544">
        <ele>86.18</ele>
        <time>2017-08-07T04:59:39Z</time>
      </trkpt>
      <trkpt lat="48.93527" lon="4.35548">
        <ele>86.18</ele>
        <time>2017-08-07T04:59:40Z</time>
      </trkpt>
      <trkpt lat="48.93493" lon="4.35567">
        <ele>87.14</ele>
        <time>2017-08-07T04:59:50Z</time>
      </trkpt>
      <trkpt lat="48.93443" lon="4.3556">
        <ele>87.14</ele>
        <time>2017-08-07T05:00:04Z</time>
      </trkpt>
      <trkpt lat="48.93416" lon="4.35564">
        <ele>87.14</ele>
        <time>2017-08-07T05:00:13Z</time>
      </trkpt>
      <trkpt lat="48.93412" lon="4.35566">
        <ele>87.14</ele>
        <time>2017-08-07T05:00:14Z</time>
      </trkpt>
      <trkpt lat="48.93378" lon="4.35579">
        <ele>86.66</ele>
        <time>2017-08-07T05:00:23Z</time>
      </trkpt>
      <trkpt lat="48.93373" lon="4.35581">
        <ele>86.66</ele>
        <time>2017-08-07T05:00:24Z</time>
      </trkpt>
      <trkpt lat="48.93364" lon="4.35585">
        <ele>86.66</ele>
        <time>2017-08-07T05:00:26Z</time>
      </trkpt>
      <trkpt lat="48.9333" lon="4.35604">
        <ele>86.66</ele>
        <time>2017-08-07T05:00:34Z</time>
      </trkpt>
      <trkpt lat="48.93291" lon="4.35623">
        <ele>86.66</ele>
        <time>2017-08-07T05:00:44Z</time>
      </trkpt>
      <trkpt lat="48.93263" lon="4.35638">
        <ele>86.66</ele>
        <time>2017-08-07T05:00:51Z</time>
      </trkpt>
      <trkpt lat="48.93259" lon="4.35641">
        <ele>86.66</ele>
        <time>2017-08-07T05:00:52Z</time>
      </trkpt>
      <trkpt lat="48.93256" lon="4.35645">
        <ele>86.66</ele>
        <time>2017-08-07T05:00:53Z</time>
      </trkpt>
      <trkpt lat="48.93253" lon="4.35648">
        <ele>86.66</ele>
        <time>2017-08-07T05:00:54Z</time>
      </trkpt>
      <trkpt lat="48.93249" lon="4.35651">
        <ele>86.66</ele>
        <time>2017-08-07T05:00:55Z</time>
      </trkpt>
      <trkpt lat="48.93245" lon="4.35653">
        <ele>86.66</ele>
        <time>2017-08-07T05:00:56Z</time>
      </trkpt>
      <trkpt lat="48.93241" lon="4.35655">
        <ele>86.66</ele>
        <time>2017-08-07T05:00:57Z</time>
      </trkpt>
      <trkpt lat="48.93238" lon="4.35656">
        <ele>86.66</ele>
        <time>2017-08-07T05:00:58Z</time>
      </trkpt>
      <trkpt lat="48.93208" lon="4.35686">
        <ele>86.66</ele>
        <time>2017-08-07T05:01:08Z</time>
      </trkpt>
      <trkpt lat="48.93188" lon="4.35727">
        <ele>86.66</ele>
        <time>2017-08-07T05:01:17Z</time>
      </trkpt>
      <trkpt lat="48.93183" lon="4.35736">
        <ele>86.66</ele>
        <time>2017-08-07T05:01:19Z</time>
      </trkpt>
      <trkpt lat="48.9316" lon="4.35775">
        <ele>86.66</ele>
        <time>2017-08-07T05:01:27Z</time>
      </trkpt>
      <trkpt lat="48.93142" lon="4.35805">
        <ele>86.66</ele>
        <time>2017-08-07T05:01:33Z</time>
      </trkpt>
      <trkpt lat="48.93133" lon="4.3582">
        <ele>86.66</ele>
        <time>2017-08-07T05:01:36Z</time>
      </trkpt>
      <trkpt lat="48.93098" lon="4.35868">
        <ele>86.66</ele>
        <time>2017-08-07T05:01:47Z</time>
      </trkpt>
      <trkpt lat="48.93046" lon="4.35924">
        <ele>86.66</ele>
        <time>2017-08-07T05:01:59Z</time>
      </trkpt>
      <trkpt lat="48.92997" lon="4.35979">
        <ele>86.66</ele>
        <time>2017-08-07T05:02:12Z</time>
      </trkpt>
      <trkpt lat="48.92964" lon="4.3601">
        <ele>86.66</ele>
        <time>2017-08-07T05:02:21Z</time>
      </trkpt>
      <trkpt lat="48.92925" lon="4.36042">
        <ele>86.66</ele>
        <time>2017-08-07T05:02:31Z</time>
      </trkpt>
      <trkpt lat="48.92921" lon="4.36044">
        <ele>86.66</ele>
        <time>2017-08-07T05:02:32Z</time>
      </trkpt>
      <trkpt lat="48.92913" lon="4.36048">
        <ele>86.66</ele>
        <time>2017-08-07T05:02:34Z</time>
      </trkpt>
      <trkpt lat="48.9291" lon="4.3605">
        <ele>86.66</ele>
        <time>2017-08-07T05:02:35Z</time>
      </trkpt>
      <trkpt lat="48.92905" lon="4.36053">
        <ele>86.66</ele>
        <time>2017-08-07T05:02:36Z</time>
      </trkpt>
      <trkpt lat="48.92882" lon="4.3607">
        <ele>86.66</ele>
        <time>2017-08-07T05:02:42Z</time>
      </trkpt>
      <trkpt lat="48.92832" lon="4.36113">
        <ele>86.66</ele>
        <time>2017-08-07T05:02:54Z</time>
      </trkpt>
      <trkpt lat="48.92789" lon="4.36155">
        <ele>87.14</ele>
        <time>2017-08-07T05:03:06Z</time>
      </trkpt>
      <trkpt lat="48.92742" lon="4.36206">
        <ele>88.1</ele>
        <time>2017-08-07T05:03:19Z</time>
      </trkpt>
      <trkpt lat="48.927" lon="4.36257">
        <ele>88.1</ele>
        <time>2017-08-07T05:03:31Z</time>
      </trkpt>
      <trkpt lat="48.92693" lon="4.36267">
        <ele>88.1</ele>
        <time>2017-08-07T05:03:33Z</time>
      </trkpt>
      <trkpt lat="48.92689" lon="4.36272">
        <ele>88.1</ele>
        <time>2017-08-07T05:03:34Z</time>
      </trkpt>
      <trkpt lat="48.9264" lon="4.36328">
        <ele>88.58</ele>
        <time>2017-08-07T05:03:45Z</time>
      </trkpt>
      <trkpt lat="48.92637" lon="4.36333">
        <ele>88.58</ele>
        <time>2017-08-07T05:03:46Z</time>
      </trkpt>
      <trkpt lat="48.92614" lon="4.36368">
        <ele>88.58</ele>
        <time>2017-08-07T05:03:53Z</time>
      </trkpt>
      <trkpt lat="48.92611" lon="4.36373">
        <ele>88.58</ele>
        <time>2017-08-07T05:03:54Z</time>
      </trkpt>
      <trkpt lat="48.92608" lon="4.36378">
        <ele>88.58</ele>
        <time>2017-08-07T05:03:55Z</time>
      </trkpt>
      <trkpt lat="48.92604" lon="4.36383">
        <ele>88.58</ele>
        <time>2017-08-07T05:03:56Z</time>
      </trkpt>
      <trkpt lat="48.92601" lon="4.36387">
        <ele>88.58</ele>
        <time>2017-08-07T05:03:57Z</time>
      </trkpt>
      <trkpt lat="48.92597" lon="4.36393">
        <ele>88.58</ele>
        <time>2017-08-07T05:03:58Z</time>
      </trkpt>
      <trkpt lat="48.92565" lon="4.36444">
        <ele>88.58</ele>
        <time>2017-08-07T05:04:09Z</time>
      </trkpt>
      <trkpt lat="48.92558" lon="4.36453">
        <ele>88.58</ele>
        <time>2017-08-07T05:04:11Z</time>
      </trkpt>
      <trkpt lat="48.92555" lon="4.36458">
        <ele>88.58</ele>
        <time>2017-08-07T05:04:12Z</time>
      </trkpt>
      <trkpt lat="48.92528" lon="4.36513">
        <ele>88.58</ele>
        <time>2017-08-07T05:04:22Z</time>
      </trkpt>
      <trkpt lat="48.92525" lon="4.36518">
        <ele>88.58</ele>
        <time>2017-08-07T05:04:23Z</time>
      </trkpt>
      <trkpt lat="48.925" lon="4.36565">
        <ele>88.58</ele>
        <time>2017-08-07T05:04:32Z</time>
      </trkpt>
      <trkpt lat="48.92466" lon="4.36618">
        <ele>88.58</ele>
        <time>2017-08-07T05:04:42Z</time>
      </trkpt>
      <trkpt lat="48.92435" lon="4.36669">
        <ele>89.06</ele>
        <time>2017-08-07T05:04:53Z</time>
      </trkpt>
      <trkpt lat="48.924" lon="4.36726">
        <ele>89.06</ele>
        <time>2017-08-07T05:05:05Z</time>
      </trkpt>
      <trkpt lat="48.92387" lon="4.36751">
        <ele>89.06</ele>
        <time>2017-08-07T05:05:10Z</time>
      </trkpt>
      <trkpt lat="48.92384" lon="4.36756">
        <ele>89.06</ele>
        <time>2017-08-07T05:05:11Z</time>
      </trkpt>
      <trkpt lat="48.92361" lon="4.36791">
        <ele>89.06</ele>
        <time>2017-08-07T05:05:18Z</time>
      </trkpt>
      <trkpt lat="48.92358" lon="4.36796">
        <ele>89.06</ele>
        <time>2017-08-07T05:05:19Z</time>
      </trkpt>
      <trkpt lat="48.92309" lon="4.3686">
        <ele>89.06</ele>
        <time>2017-08-07T05:05:33Z</time>
      </trkpt>
      <trkpt lat="48.92255" lon="4.36928">
        <ele>89.06</ele>
        <time>2017-08-07T05:05:48Z</time>
      </trkpt>
      <trkpt lat="48.92195" lon="4.37002">
        <ele>88.58</ele>
        <time>2017-08-07T05:06:05Z</time>
      </trkpt>
      <trkpt lat="48.9214" lon="4.37065">
        <ele>89.06</ele>
        <time>2017-08-07T05:06:20Z</time>
      </trkpt>
      <trkpt lat="48.92086" lon="4.37135">
        <ele>88.58</ele>
        <time>2017-08-07T05:06:35Z</time>
      </trkpt>
      <trkpt lat="48.92056" lon="4.37182">
        <ele>88.58</ele>
        <time>2017-08-07T05:06:44Z</time>
      </trkpt>
      <trkpt lat="48.92053" lon="4.37188">
        <ele>88.58</ele>
        <time>2017-08-07T05:06:45Z</time>
      </trkpt>
      <trkpt lat="48.92051" lon="4.37194">
        <ele>88.58</ele>
        <time>2017-08-07T05:06:46Z</time>
      </trkpt>
      <trkpt lat="48.9205" lon="4.37201">
        <ele>88.58</ele>
        <time>2017-08-07T05:06:47Z</time>
      </trkpt>
      <trkpt lat="48.92049" lon="4.37208">
        <ele>88.58</ele>
        <time>2017-08-07T05:06:48Z</time>
      </trkpt>
      <trkpt lat="48.92049" lon="4.37215">
        <ele>88.58</ele>
        <time>2017-08-07T05:06:49Z</time>
      </trkpt>
      <trkpt lat="48.92045" lon="4.37309">
        <ele>88.58</ele>
        <time>2017-08-07T05:07:03Z</time>
      </trkpt>
      <trkpt lat="48.92044" lon="4.37316">
        <ele>88.58</ele>
        <time>2017-08-07T05:07:04Z</time>
      </trkpt>
      <trkpt lat="48.92023" lon="4.37406">
        <ele>88.58</ele>
        <time>2017-08-07T05:07:18Z</time>
      </trkpt>
      <trkpt lat="48.92023" lon="4.37413">
        <ele>88.58</ele>
        <time>2017-08-07T05:07:19Z</time>
      </trkpt>
      <trkpt lat="48.92024" lon="4.37419">
        <ele>88.58</ele>
        <time>2017-08-07T05:07:20Z</time>
      </trkpt>
      <trkpt lat="48.92027" lon="4.37425">
        <ele>88.58</ele>
        <time>2017-08-07T05:07:21Z</time>
      </trkpt>
      <trkpt lat="48.9203" lon="4.37429">
        <ele>88.58</ele>
        <time>2017-08-07T05:07:22Z</time>
      </trkpt>
      <trkpt lat="48.92033" lon="4.37434">
        <ele>88.58</ele>
        <time>2017-08-07T05:07:23Z</time>
      </trkpt>
      <trkpt lat="48.92036" lon="4.37439">
        <ele>88.58</ele>
        <time>2017-08-07T05:07:24Z</time>
      </trkpt>
      <trkpt lat="48.92039" lon="4.37444">
        <ele>88.58</ele>
        <time>2017-08-07T05:07:25Z</time>
      </trkpt>
      <trkpt lat="48.92044" lon="4.37453">
        <ele>88.58</ele>
        <time>2017-08-07T05:07:27Z</time>
      </trkpt>
      <trkpt lat="48.92047" lon="4.37459">
        <ele>88.58</ele>
        <time>2017-08-07T05:07:28Z</time>
      </trkpt>
      <trkpt lat="48.92094" lon="4.37542">
        <ele>88.58</ele>
        <time>2017-08-07T05:07:44Z</time>
      </trkpt>
      <trkpt lat="48.92129" lon="4.37602">
        <ele>88.58</ele>
        <time>2017-08-07T05:07:56Z</time>
      </trkpt>
      <trkpt lat="48.92132" lon="4.37608">
        <ele>88.58</ele>
        <time>2017-08-07T05:07:57Z</time>
      </trkpt>
      <trkpt lat="48.92181" lon="4.37692">
        <ele>88.58</ele>
        <time>2017-08-07T05:08:12Z</time>
      </trkpt>
      <trkpt lat="48.92189" lon="4.37708">
        <ele>88.58</ele>
        <time>2017-08-07T05:08:15Z</time>
      </trkpt>
      <trkpt lat="48.92188" lon="4.37712">
        <ele>88.58</ele>
        <time>2017-08-07T05:08:16Z</time>
      </trkpt>
      <trkpt lat="48.92185" lon="4.37716">
        <ele>88.58</ele>
        <time>2017-08-07T05:08:17Z</time>
      </trkpt>
      <trkpt lat="48.92183" lon="4.37717">
        <ele>88.58</ele>
        <time>2017-08-07T05:08:18Z</time>
      </trkpt>
      <trkpt lat="48.92179" lon="4.3772">
        <ele>88.58</ele>
        <time>2017-08-07T05:08:19Z</time>
      </trkpt>
      <trkpt lat="48.92176" lon="4.37724">
        <ele>88.58</ele>
        <time>2017-08-07T05:08:20Z</time>
      </trkpt>
      <trkpt lat="48.92142" lon="4.3778">
        <ele>88.58</ele>
        <time>2017-08-07T05:08:34Z</time>
      </trkpt>
      <trkpt lat="48.92097" lon="4.37859">
        <ele>88.1</ele>
        <time>2017-08-07T05:08:51Z</time>
      </trkpt>
      <trkpt lat="48.9204" lon="4.37969">
        <ele>88.1</ele>
        <time>2017-08-07T05:09:12Z</time>
      </trkpt>
      <trkpt lat="48.91992" lon="4.38072">
        <ele>88.1</ele>
        <time>2017-08-07T05:09:31Z</time>
      </trkpt>
      <trkpt lat="48.91951" lon="4.38147">
        <ele>88.1</ele>
        <time>2017-08-07T05:09:48Z</time>
      </trkpt>
      <trkpt lat="48.91948" lon="4.38147">
        <ele>88.1</ele>
        <time>2017-08-07T05:09:49Z</time>
      </trkpt>
      <trkpt lat="48.91945" lon="4.38146">
        <ele>88.1</ele>
        <time>2017-08-07T05:09:50Z</time>
      </trkpt>
      <trkpt lat="48.91942" lon="4.38144">
        <ele>88.1</ele>
        <time>2017-08-07T05:09:51Z</time>
      </trkpt>
      <trkpt lat="48.91939" lon="4.38141">
        <ele>88.1</ele>
        <time>2017-08-07T05:09:52Z</time>
      </trkpt>
      <trkpt lat="48.91936" lon="4.38138">
        <ele>88.1</ele>
        <time>2017-08-07T05:09:53Z</time>
      </trkpt>
      <trkpt lat="48.91909" lon="4.38091">
        <ele>88.1</ele>
        <time>2017-08-07T05:10:04Z</time>
      </trkpt>
      <trkpt lat="48.91889" lon="4.38062">
        <ele>88.1</ele>
        <time>2017-08-07T05:10:10Z</time>
      </trkpt>
      <trkpt lat="48.91884" lon="4.3806">
        <ele>88.1</ele>
        <time>2017-08-07T05:10:11Z</time>
      </trkpt>
      <trkpt lat="48.91881" lon="4.38061">
        <ele>88.1</ele>
        <time>2017-08-07T05:10:12Z</time>
      </trkpt>
      <trkpt lat="48.91877" lon="4.38064">
        <ele>88.1</ele>
        <time>2017-08-07T05:10:13Z</time>
      </trkpt>
      <trkpt lat="48.91874" lon="4.38069">
        <ele>88.1</ele>
        <time>2017-08-07T05:10:14Z</time>
      </trkpt>
      <trkpt lat="48.9187" lon="4.38074">
        <ele>88.1</ele>
        <time>2017-08-07T05:10:15Z</time>
      </trkpt>
      <trkpt lat="48.91867" lon="4.38079">
        <ele>88.1</ele>
        <time>2017-08-07T05:10:16Z</time>
      </trkpt>
      <trkpt lat="48.91864" lon="4.38085">
        <ele>88.1</ele>
        <time>2017-08-07T05:10:17Z</time>
      </trkpt>
      <trkpt lat="48.91858" lon="4.38097">
        <ele>86.66</ele>
        <time>2017-08-07T05:10:19Z</time>
      </trkpt>
      <trkpt lat="48.91855" lon="4.38103">
        <ele>86.66</ele>
        <time>2017-08-07T05:10:20Z</time>
      </trkpt>
      <trkpt lat="48.91819" lon="4.38171">
        <ele>87.62</ele>
        <time>2017-08-07T05:10:34Z</time>
      </trkpt>
      <trkpt lat="48.91794" lon="4.38173">
        <ele>88.1</ele>
        <time>2017-08-07T05:10:43Z</time>
      </trkpt>
      <trkpt lat="48.9178" lon="4.38152">
        <ele>88.1</ele>
        <time>2017-08-07T05:10:49Z</time>
      </trkpt>
      <trkpt lat="48.91777" lon="4.38153">
        <ele>88.1</ele>
        <time>2017-08-07T05:10:50Z</time>
      </trkpt>
      <trkpt lat="48.91773" lon="4.38155">
        <ele>88.1</ele>
        <time>2017-08-07T05:10:51Z</time>
      </trkpt>
      <trkpt lat="48.91723" lon="4.38207">
        <ele>88.1</ele>
        <time>2017-08-07T05:11:07Z</time>
      </trkpt>
      <trkpt lat="48.91692" lon="4.38234">
        <ele>88.58</ele>
        <time>2017-08-07T05:11:18Z</time>
      </trkpt>
      <trkpt lat="48.91664" lon="4.38253">
        <ele>88.58</ele>
        <time>2017-08-07T05:11:26Z</time>
      </trkpt>
      <trkpt lat="48.9166" lon="4.38256">
        <ele>88.58</ele>
        <time>2017-08-07T05:11:27Z</time>
      </trkpt>
      <trkpt lat="48.91646" lon="4.38268">
        <ele>88.58</ele>
        <time>2017-08-07T05:11:31Z</time>
      </trkpt>
      <trkpt lat="48.91642" lon="4.3827">
        <ele>88.58</ele>
        <time>2017-08-07T05:11:32Z</time>
      </trkpt>
      <trkpt lat="48.91598" lon="4.38283">
        <ele>88.1</ele>
        <time>2017-08-07T05:11:43Z</time>
      </trkpt>
      <trkpt lat="48.91594" lon="4.38284">
        <ele>88.1</ele>
        <time>2017-08-07T05:11:44Z</time>
      </trkpt>
      <trkpt lat="48.9159" lon="4.38286">
        <ele>88.1</ele>
        <time>2017-08-07T05:11:45Z</time>
      </trkpt>
      <trkpt lat="48.91583" lon="4.3829">
        <ele>88.1</ele>
        <time>2017-08-07T05:11:47Z</time>
      </trkpt>
      <trkpt lat="48.91576" lon="4.38297">
        <ele>88.1</ele>
        <time>2017-08-07T05:11:49Z</time>
      </trkpt>
      <trkpt lat="48.91546" lon="4.38327">
        <ele>88.1</ele>
        <time>2017-08-07T05:11:58Z</time>
      </trkpt>
      <trkpt lat="48.91543" lon="4.3833">
        <ele>88.1</ele>
        <time>2017-08-07T05:11:59Z</time>
      </trkpt>
      <trkpt lat="48.91539" lon="4.38333">
        <ele>88.1</ele>
        <time>2017-08-07T05:12:00Z</time>
      </trkpt>
      <trkpt lat="48.91501" lon="4.38365">
        <ele>88.1</ele>
        <time>2017-08-07T05:12:11Z</time>
      </trkpt>
      <trkpt lat="48.91498" lon="4.38368">
        <ele>88.1</ele>
        <time>2017-08-07T05:12:12Z</time>
      </trkpt>
      <trkpt lat="48.91494" lon="4.3837">
        <ele>88.1</ele>
        <time>2017-08-07T05:12:13Z</time>
      </trkpt>
      <trkpt lat="48.91453" lon="4.38402">
        <ele>88.1</ele>
        <time>2017-08-07T05:12:25Z</time>
      </trkpt>
      <trkpt lat="48.91434" lon="4.38438">
        <ele>88.1</ele>
        <time>2017-08-07T05:12:33Z</time>
      </trkpt>
      <trkpt lat="48.91433" lon="4.38445">
        <ele>88.1</ele>
        <time>2017-08-07T05:12:34Z</time>
      </trkpt>
      <trkpt lat="48.91432" lon="4.38451">
        <ele>88.1</ele>
        <time>2017-08-07T05:12:35Z</time>
      </trkpt>
      <trkpt lat="48.91433" lon="4.38458">
        <ele>88.1</ele>
        <time>2017-08-07T05:12:36Z</time>
      </trkpt>
      <trkpt lat="48.91435" lon="4.38464">
        <ele>88.1</ele>
        <time>2017-08-07T05:12:37Z</time>
      </trkpt>
      <trkpt lat="48.91437" lon="4.38469">
        <ele>88.1</ele>
        <time>2017-08-07T05:12:38Z</time>
      </trkpt>
      <trkpt lat="48.9144" lon="4.38474">
        <ele>88.1</ele>
        <time>2017-08-07T05:12:39Z</time>
      </trkpt>
      <trkpt lat="48.91443" lon="4.38479">
        <ele>88.1</ele>
        <time>2017-08-07T05:12:40Z</time>
      </trkpt>
      <trkpt lat="48.9147" lon="4.38524">
        <ele>88.1</ele>
        <time>2017-08-07T05:12:49Z</time>
      </trkpt>
      <trkpt lat="48.91478" lon="4.38537">
        <ele>88.1</ele>
        <time>2017-08-07T05:12:52Z</time>
      </trkpt>
      <trkpt lat="48.91483" lon="4.38547">
        <ele>88.1</ele>
        <time>2017-08-07T05:12:54Z</time>
      </trkpt>
      <trkpt lat="48.91484" lon="4.38553">
        <ele>88.1</ele>
        <time>2017-08-07T05:12:55Z</time>
      </trkpt>
      <trkpt lat="48.91485" lon="4.38559">
        <ele>88.1</ele>
        <time>2017-08-07T05:12:56Z</time>
      </trkpt>
      <trkpt lat="48.91485" lon="4.38564">
        <ele>88.1</ele>
        <time>2017-08-07T05:12:57Z</time>
      </trkpt>
      <trkpt lat="48.91483" lon="4.3857">
        <ele>88.1</ele>
        <time>2017-08-07T05:12:58Z</time>
      </trkpt>
      <trkpt lat="48.91482" lon="4.38575">
        <ele>88.1</ele>
        <time>2017-08-07T05:12:59Z</time>
      </trkpt>
      <trkpt lat="48.91458" lon="4.38652">
        <ele>88.1</ele>
        <time>2017-08-07T05:13:12Z</time>
      </trkpt>
      <trkpt lat="48.9144" lon="4.38715">
        <ele>88.1</ele>
        <time>2017-08-07T05:13:23Z</time>
      </trkpt>
      <trkpt lat="48.91437" lon="4.38727">
        <ele>88.1</ele>
        <time>2017-08-07T05:13:25Z</time>
      </trkpt>
      <trkpt lat="48.91435" lon="4.38732">
        <ele>88.1</ele>
        <time>2017-08-07T05:13:26Z</time>
      </trkpt>
      <trkpt lat="48.91429" lon="4.38743">
        <ele>88.1</ele>
        <time>2017-08-07T05:13:28Z</time>
      </trkpt>
      <trkpt lat="48.91415" lon="4.38765">
        <ele>88.1</ele>
        <time>2017-08-07T05:13:33Z</time>
      </trkpt>
      <trkpt lat="48.9137" lon="4.38799">
        <ele>88.1</ele>
        <time>2017-08-07T05:13:46Z</time>
      </trkpt>
      <trkpt lat="48.91328" lon="4.38835">
        <ele>88.58</ele>
        <time>2017-08-07T05:13:59Z</time>
      </trkpt>
      <trkpt lat="48.91268" lon="4.38884">
        <ele>88.58</ele>
        <time>2017-08-07T05:14:15Z</time>
      </trkpt>
      <trkpt lat="48.91249" lon="4.38899">
        <ele>88.58</ele>
        <time>2017-08-07T05:14:20Z</time>
      </trkpt>
      <trkpt lat="48.91246" lon="4.38902">
        <ele>88.58</ele>
        <time>2017-08-07T05:14:21Z</time>
      </trkpt>
      <trkpt lat="48.91242" lon="4.38905">
        <ele>88.58</ele>
        <time>2017-08-07T05:14:22Z</time>
      </trkpt>
      <trkpt lat="48.91238" lon="4.38907">
        <ele>88.58</ele>
        <time>2017-08-07T05:14:23Z</time>
      </trkpt>
      <trkpt lat="48.91235" lon="4.38909">
        <ele>88.58</ele>
        <time>2017-08-07T05:14:24Z</time>
      </trkpt>
      <trkpt lat="48.91223" lon="4.38916">
        <ele>88.58</ele>
        <time>2017-08-07T05:14:27Z</time>
      </trkpt>
      <trkpt lat="48.91219" lon="4.38918">
        <ele>88.58</ele>
        <time>2017-08-07T05:14:28Z</time>
      </trkpt>
      <trkpt lat="48.91215" lon="4.3892">
        <ele>88.58</ele>
        <time>2017-08-07T05:14:29Z</time>
      </trkpt>
      <trkpt lat="48.91211" lon="4.38922">
        <ele>88.58</ele>
        <time>2017-08-07T05:14:30Z</time>
      </trkpt>
      <trkpt lat="48.91207" lon="4.38924">
        <ele>88.58</ele>
        <time>2017-08-07T05:14:31Z</time>
      </trkpt>
      <trkpt lat="48.91145" lon="4.38952">
        <ele>88.58</ele>
        <time>2017-08-07T05:14:47Z</time>
      </trkpt>
      <trkpt lat="48.91079" lon="4.38989">
        <ele>88.1</ele>
        <time>2017-08-07T05:15:05Z</time>
      </trkpt>
      <trkpt lat="48.9106" lon="4.3901">
        <ele>88.1</ele>
        <time>2017-08-07T05:15:10Z</time>
      </trkpt>
      <trkpt lat="48.91057" lon="4.39014">
        <ele>88.1</ele>
        <time>2017-08-07T05:15:11Z</time>
      </trkpt>
      <trkpt lat="48.91005" lon="4.39076">
        <ele>88.1</ele>
        <time>2017-08-07T05:15:26Z</time>
      </trkpt>
      <trkpt lat="48.90942" lon="4.39173">
        <ele>88.1</ele>
        <time>2017-08-07T05:15:46Z</time>
      </trkpt>
      <trkpt lat="48.90893" lon="4.39251">
        <ele>88.1</ele>
        <time>2017-08-07T05:16:02Z</time>
      </trkpt>
      <trkpt lat="48.90842" lon="4.39326">
        <ele>88.1</ele>
        <time>2017-08-07T05:16:18Z</time>
      </trkpt>
      <trkpt lat="48.90829" lon="4.39345">
        <ele>88.1</ele>
        <time>2017-08-07T05:16:22Z</time>
      </trkpt>
      <trkpt lat="48.90826" lon="4.39351">
        <ele>88.1</ele>
        <time>2017-08-07T05:16:23Z</time>
      </trkpt>
      <trkpt lat="48.90826" lon="4.39358">
        <ele>88.1</ele>
        <time>2017-08-07T05:16:24Z</time>
      </trkpt>
      <trkpt lat="48.90827" lon="4.39365">
        <ele>88.1</ele>
        <time>2017-08-07T05:16:25Z</time>
      </trkpt>
      <trkpt lat="48.90829" lon="4.39371">
        <ele>88.1</ele>
        <time>2017-08-07T05:16:26Z</time>
      </trkpt>
      <trkpt lat="48.90831" lon="4.39375">
        <ele>88.1</ele>
        <time>2017-08-07T05:16:27Z</time>
      </trkpt>
      <trkpt lat="48.90871" lon="4.39449">
        <ele>88.1</ele>
        <time>2017-08-07T05:16:41Z</time>
      </trkpt>
      <trkpt lat="48.90872" lon="4.39454">
        <ele>88.1</ele>
        <time>2017-08-07T05:16:42Z</time>
      </trkpt>
      <trkpt lat="48.90871" lon="4.3946">
        <ele>88.1</ele>
        <time>2017-08-07T05:16:43Z</time>
      </trkpt>
      <trkpt lat="48.9087" lon="4.39464">
        <ele>88.1</ele>
        <time>2017-08-07T05:16:44Z</time>
      </trkpt>
      <trkpt lat="48.90868" lon="4.39467">
        <ele>88.1</ele>
        <time>2017-08-07T05:16:45Z</time>
      </trkpt>
      <trkpt lat="48.90866" lon="4.39471">
        <ele>88.1</ele>
        <time>2017-08-07T05:16:46Z</time>
      </trkpt>
      <trkpt lat="48.90863" lon="4.39474">
        <ele>88.1</ele>
        <time>2017-08-07T05:16:47Z</time>
      </trkpt>
      <trkpt lat="48.90861" lon="4.39477">
        <ele>88.1</ele>
        <time>2017-08-07T05:16:48Z</time>
      </trkpt>
      <trkpt lat="48.90858" lon="4.3948">
        <ele>88.1</ele>
        <time>2017-08-07T05:16:49Z</time>
      </trkpt>
      <trkpt lat="48.9083" lon="4.39511">
        <ele>88.1</ele>
        <time>2017-08-07T05:16:58Z</time>
      </trkpt>
      <trkpt lat="48.90818" lon="4.39529">
        <ele>88.1</ele>
        <time>2017-08-07T05:17:02Z</time>
      </trkpt>
      <trkpt lat="48.90792" lon="4.39608">
        <ele>88.1</ele>
        <time>2017-08-07T05:17:17Z</time>
      </trkpt>
      <trkpt lat="48.90774" lon="4.39654">
        <ele>88.1</ele>
        <time>2017-08-07T05:17:26Z</time>
      </trkpt>
      <trkpt lat="48.90767" lon="4.39668">
        <ele>88.1</ele>
        <time>2017-08-07T05:17:29Z</time>
      </trkpt>
      <trkpt lat="48.90764" lon="4.39673">
        <ele>88.1</ele>
        <time>2017-08-07T05:17:30Z</time>
      </trkpt>
      <trkpt lat="48.9073" lon="4.39719">
        <ele>88.1</ele>
        <time>2017-08-07T05:17:40Z</time>
      </trkpt>
      <trkpt lat="48.90727" lon="4.39724">
        <ele>88.1</ele>
        <time>2017-08-07T05:17:41Z</time>
      </trkpt>
      <trkpt lat="48.90724" lon="4.39729">
        <ele>88.1</ele>
        <time>2017-08-07T05:17:42Z</time>
      </trkpt>
      <trkpt lat="48.90719" lon="4.39738">
        <ele>88.1</ele>
        <time>2017-08-07T05:17:44Z</time>
      </trkpt>
      <trkpt lat="48.90705" lon="4.39763">
        <ele>88.1</ele>
        <time>2017-08-07T05:17:49Z</time>
      </trkpt>
      <trkpt lat="48.90702" lon="4.39767">
        <ele>88.1</ele>
        <time>2017-08-07T05:17:50Z</time>
      </trkpt>
      <trkpt lat="48.90679" lon="4.39808">
        <ele>88.1</ele>
        <time>2017-08-07T05:17:59Z</time>
      </trkpt>
      <trkpt lat="48.90671" lon="4.39822">
        <ele>88.1</ele>
        <time>2017-08-07T05:18:02Z</time>
      </trkpt>
      <trkpt lat="48.90668" lon="4.39827">
        <ele>88.1</ele>
        <time>2017-08-07T05:18:03Z</time>
      </trkpt>
      <trkpt lat="48.90643" lon="4.39888">
        <ele>88.58</ele>
        <time>2017-08-07T05:18:16Z</time>
      </trkpt>
      <trkpt lat="48.90642" lon="4.39893">
        <ele>88.58</ele>
        <time>2017-08-07T05:18:26Z</time>
      </trkpt>
      <trkpt lat="48.90641" lon="4.39893">
        <ele>88.58</ele>
        <time>2017-08-07T05:18:51Z</time>
      </trkpt>
      <trkpt lat="48.90644" lon="4.39896">
        <ele>88.1</ele>
        <time>2017-08-07T05:19:19Z</time>
      </trkpt>
      <trkpt lat="48.90664" lon="4.39939">
        <ele>87.14</ele>
        <time>2017-08-07T05:19:30Z</time>
      </trkpt>
      <trkpt lat="48.90666" lon="4.39944">
        <ele>87.14</ele>
        <time>2017-08-07T05:19:31Z</time>
      </trkpt>
      <trkpt lat="48.90704" lon="4.40018">
        <ele>87.14</ele>
        <time>2017-08-07T05:19:46Z</time>
      </trkpt>
      <trkpt lat="48.90746" lon="4.40102">
        <ele>87.14</ele>
        <time>2017-08-07T05:20:02Z</time>
      </trkpt>
      <trkpt lat="48.90755" lon="4.40119">
        <ele>87.14</ele>
        <time>2017-08-07T05:20:05Z</time>
      </trkpt>
      <trkpt lat="48.9077" lon="4.40155">
        <ele>87.14</ele>
        <time>2017-08-07T05:20:11Z</time>
      </trkpt>
      <trkpt lat="48.90772" lon="4.40162">
        <ele>87.14</ele>
        <time>2017-08-07T05:20:12Z</time>
      </trkpt>
      <trkpt lat="48.90772" lon="4.40168">
        <ele>87.14</ele>
        <time>2017-08-07T05:20:13Z</time>
      </trkpt>
      <trkpt lat="48.90772" lon="4.40175">
        <ele>87.14</ele>
        <time>2017-08-07T05:20:14Z</time>
      </trkpt>
      <trkpt lat="48.90771" lon="4.40181">
        <ele>86.66</ele>
        <time>2017-08-07T05:20:15Z</time>
      </trkpt>
      <trkpt lat="48.90771" lon="4.40188">
        <ele>86.66</ele>
        <time>2017-08-07T05:20:16Z</time>
      </trkpt>
      <trkpt lat="48.90769" lon="4.40256">
        <ele>86.66</ele>
        <time>2017-08-07T05:20:28Z</time>
      </trkpt>
      <trkpt lat="48.90768" lon="4.40376">
        <ele>87.62</ele>
        <time>2017-08-07T05:20:48Z</time>
      </trkpt>
      <trkpt lat="48.90767" lon="4.40452">
        <ele>87.62</ele>
        <time>2017-08-07T05:21:00Z</time>
      </trkpt>
      <trkpt lat="48.90766" lon="4.40458">
        <ele>87.62</ele>
        <time>2017-08-07T05:21:01Z</time>
      </trkpt>
      <trkpt lat="48.90764" lon="4.40563">
        <ele>87.62</ele>
        <time>2017-08-07T05:21:18Z</time>
      </trkpt>
      <trkpt lat="48.90763" lon="4.40663">
        <ele>87.62</ele>
        <time>2017-08-07T05:21:34Z</time>
      </trkpt>
      <trkpt lat="48.90768" lon="4.40702">
        <ele>87.62</ele>
        <time>2017-08-07T05:21:42Z</time>
      </trkpt>
      <trkpt lat="48.90766" lon="4.40705">
        <ele>87.62</ele>
        <time>2017-08-07T05:21:43Z</time>
      </trkpt>
      <trkpt lat="48.90764" lon="4.40707">
        <ele>87.62</ele>
        <time>2017-08-07T05:21:44Z</time>
      </trkpt>
      <trkpt lat="48.90761" lon="4.40709">
        <ele>87.62</ele>
        <time>2017-08-07T05:21:45Z</time>
      </trkpt>
      <trkpt lat="48.90757" lon="4.40711">
        <ele>87.62</ele>
        <time>2017-08-07T05:21:46Z</time>
      </trkpt>
      <trkpt lat="48.90754" lon="4.40712">
        <ele>87.62</ele>
        <time>2017-08-07T05:21:47Z</time>
      </trkpt>
      <trkpt lat="48.90726" lon="4.40727">
        <ele>87.62</ele>
        <time>2017-08-07T05:21:55Z</time>
      </trkpt>
      <trkpt lat="48.9068" lon="4.40766">
        <ele>87.62</ele>
        <time>2017-08-07T05:22:09Z</time>
      </trkpt>
      <trkpt lat="48.90625" lon="4.4082">
        <ele>87.62</ele>
        <time>2017-08-07T05:22:26Z</time>
      </trkpt>
      <trkpt lat="48.90608" lon="4.40836">
        <ele>87.62</ele>
        <time>2017-08-07T05:22:31Z</time>
      </trkpt>
      <trkpt lat="48.90605" lon="4.4084">
        <ele>87.62</ele>
        <time>2017-08-07T05:22:32Z</time>
      </trkpt>
      <trkpt lat="48.90595" lon="4.40851">
        <ele>87.62</ele>
        <time>2017-08-07T05:22:35Z</time>
      </trkpt>
      <trkpt lat="48.90592" lon="4.40854">
        <ele>87.62</ele>
        <time>2017-08-07T05:22:36Z</time>
      </trkpt>
      <trkpt lat="48.90575" lon="4.40871">
        <ele>87.62</ele>
        <time>2017-08-07T05:22:41Z</time>
      </trkpt>
      <trkpt lat="48.90572" lon="4.40874">
        <ele>87.62</ele>
        <time>2017-08-07T05:22:42Z</time>
      </trkpt>
      <trkpt lat="48.90528" lon="4.40891">
        <ele>87.62</ele>
        <time>2017-08-07T05:22:54Z</time>
      </trkpt>
      <trkpt lat="48.9052" lon="4.4089">
        <ele>87.62</ele>
        <time>2017-08-07T05:22:56Z</time>
      </trkpt>
      <trkpt lat="48.90515" lon="4.40891">
        <ele>87.62</ele>
        <time>2017-08-07T05:22:57Z</time>
      </trkpt>
      <trkpt lat="48.90511" lon="4.40893">
        <ele>87.62</ele>
        <time>2017-08-07T05:22:58Z</time>
      </trkpt>
      <trkpt lat="48.90478" lon="4.40912">
        <ele>87.62</ele>
        <time>2017-08-07T05:23:08Z</time>
      </trkpt>
      <trkpt lat="48.90431" lon="4.40952">
        <ele>87.14</ele>
        <time>2017-08-07T05:23:21Z</time>
      </trkpt>
      <trkpt lat="48.90421" lon="4.40961">
        <ele>87.62</ele>
        <time>2017-08-07T05:23:24Z</time>
      </trkpt>
      <trkpt lat="48.9042" lon="4.40966">
        <ele>87.62</ele>
        <time>2017-08-07T05:23:25Z</time>
      </trkpt>
      <trkpt lat="48.90419" lon="4.40972">
        <ele>87.62</ele>
        <time>2017-08-07T05:23:26Z</time>
      </trkpt>
      <trkpt lat="48.9042" lon="4.40977">
        <ele>87.62</ele>
        <time>2017-08-07T05:23:27Z</time>
      </trkpt>
      <trkpt lat="48.90421" lon="4.40982">
        <ele>87.62</ele>
        <time>2017-08-07T05:23:28Z</time>
      </trkpt>
      <trkpt lat="48.90423" lon="4.40986">
        <ele>87.62</ele>
        <time>2017-08-07T05:23:29Z</time>
      </trkpt>
      <trkpt lat="48.90425" lon="4.4099">
        <ele>87.62</ele>
        <time>2017-08-07T05:23:30Z</time>
      </trkpt>
      <trkpt lat="48.90427" lon="4.40994">
        <ele>87.62</ele>
        <time>2017-08-07T05:23:31Z</time>
      </trkpt>
      <trkpt lat="48.90429" lon="4.40999">
        <ele>87.62</ele>
        <time>2017-08-07T05:23:32Z</time>
      </trkpt>
      <trkpt lat="48.9046" lon="4.41067">
        <ele>87.62</ele>
        <time>2017-08-07T05:23:47Z</time>
      </trkpt>
      <trkpt lat="48.90464" lon="4.41115">
        <ele>87.62</ele>
        <time>2017-08-07T05:23:57Z</time>
      </trkpt>
      <trkpt lat="48.90457" lon="4.41122">
        <ele>87.62</ele>
        <time>2017-08-07T05:23:59Z</time>
      </trkpt>
      <trkpt lat="48.90402" lon="4.41175">
        <ele>87.62</ele>
        <time>2017-08-07T05:24:16Z</time>
      </trkpt>
      <trkpt lat="48.90369" lon="4.41206">
        <ele>87.62</ele>
        <time>2017-08-07T05:24:26Z</time>
      </trkpt>
      <trkpt lat="48.90305" lon="4.41266">
        <ele>87.62</ele>
        <time>2017-08-07T05:24:45Z</time>
      </trkpt>
      <trkpt lat="48.90255" lon="4.41312">
        <ele>87.62</ele>
        <time>2017-08-07T05:24:59Z</time>
      </trkpt>
      <trkpt lat="48.90213" lon="4.4135">
        <ele>87.62</ele>
        <time>2017-08-07T05:25:10Z</time>
      </trkpt>
      <trkpt lat="48.90209" lon="4.41354">
        <ele>87.62</ele>
        <time>2017-08-07T05:25:11Z</time>
      </trkpt>
      <trkpt lat="48.90159" lon="4.41401">
        <ele>87.62</ele>
        <time>2017-08-07T05:25:26Z</time>
      </trkpt>
      <trkpt lat="48.90135" lon="4.41415">
        <ele>87.62</ele>
        <time>2017-08-07T05:25:33Z</time>
      </trkpt>
      <trkpt lat="48.90132" lon="4.41412">
        <ele>87.62</ele>
        <time>2017-08-07T05:25:34Z</time>
      </trkpt>
      <trkpt lat="48.9013" lon="4.41408">
        <ele>87.62</ele>
        <time>2017-08-07T05:25:35Z</time>
      </trkpt>
      <trkpt lat="48.90129" lon="4.41404">
        <ele>87.62</ele>
        <time>2017-08-07T05:25:36Z</time>
      </trkpt>
      <trkpt lat="48.90128" lon="4.414">
        <ele>87.62</ele>
        <time>2017-08-07T05:25:37Z</time>
      </trkpt>
      <trkpt lat="48.90127" lon="4.41396">
        <ele>87.62</ele>
        <time>2017-08-07T05:25:38Z</time>
      </trkpt>
      <trkpt lat="48.90125" lon="4.41392">
        <ele>87.62</ele>
        <time>2017-08-07T05:25:39Z</time>
      </trkpt>
      <trkpt lat="48.90124" lon="4.41387">
        <ele>87.62</ele>
        <time>2017-08-07T05:25:40Z</time>
      </trkpt>
      <trkpt lat="48.90104" lon="4.41331">
        <ele>87.62</ele>
        <time>2017-08-07T05:25:51Z</time>
      </trkpt>
      <trkpt lat="48.90092" lon="4.41297">
        <ele>87.62</ele>
        <time>2017-08-07T05:25:57Z</time>
      </trkpt>
      <trkpt lat="48.90089" lon="4.41291">
        <ele>87.62</ele>
        <time>2017-08-07T05:25:58Z</time>
      </trkpt>
      <trkpt lat="48.9005" lon="4.4118">
        <ele>87.62</ele>
        <time>2017-08-07T05:26:18Z</time>
      </trkpt>
      <trkpt lat="48.90022" lon="4.41102">
        <ele>87.62</ele>
        <time>2017-08-07T05:26:32Z</time>
      </trkpt>
      <trkpt lat="48.89992" lon="4.41018">
        <ele>87.62</ele>
        <time>2017-08-07T05:26:46Z</time>
      </trkpt>
      <trkpt lat="48.89988" lon="4.41006">
        <ele>87.62</ele>
        <time>2017-08-07T05:26:48Z</time>
      </trkpt>
      <trkpt lat="48.89985" lon="4.41001">
        <ele>87.62</ele>
        <time>2017-08-07T05:26:49Z</time>
      </trkpt>
      <trkpt lat="48.89982" lon="4.40997">
        <ele>87.62</ele>
        <time>2017-08-07T05:26:50Z</time>
      </trkpt>
      <trkpt lat="48.89978" lon="4.40995">
        <ele>87.62</ele>
        <time>2017-08-07T05:26:51Z</time>
      </trkpt>
      <trkpt lat="48.89975" lon="4.40995">
        <ele>87.62</ele>
        <time>2017-08-07T05:26:52Z</time>
      </trkpt>
      <trkpt lat="48.89971" lon="4.40996">
        <ele>87.62</ele>
        <time>2017-08-07T05:26:53Z</time>
      </trkpt>
      <trkpt lat="48.89968" lon="4.40999">
        <ele>87.62</ele>
        <time>2017-08-07T05:26:54Z</time>
      </trkpt>
      <trkpt lat="48.89966" lon="4.41001">
        <ele>87.62</ele>
        <time>2017-08-07T05:26:55Z</time>
      </trkpt>
      <trkpt lat="48.89963" lon="4.41004">
        <ele>87.62</ele>
        <time>2017-08-07T05:26:56Z</time>
      </trkpt>
      <trkpt lat="48.89917" lon="4.41048">
        <ele>87.62</ele>
        <time>2017-08-07T05:27:11Z</time>
      </trkpt>
      <trkpt lat="48.89907" lon="4.41057">
        <ele>87.62</ele>
        <time>2017-08-07T05:27:14Z</time>
      </trkpt>
      <trkpt lat="48.89887" lon="4.41086">
        <ele>87.62</ele>
        <time>2017-08-07T05:27:21Z</time>
      </trkpt>
      <trkpt lat="48.89842" lon="4.41129">
        <ele>87.62</ele>
        <time>2017-08-07T05:27:35Z</time>
      </trkpt>
      <trkpt lat="48.89799" lon="4.41162">
        <ele>87.62</ele>
        <time>2017-08-07T05:27:47Z</time>
      </trkpt>
      <trkpt lat="48.89781" lon="4.4118">
        <ele>87.62</ele>
        <time>2017-08-07T05:27:52Z</time>
      </trkpt>
      <trkpt lat="48.89777" lon="4.41184">
        <ele>87.62</ele>
        <time>2017-08-07T05:27:53Z</time>
      </trkpt>
      <trkpt lat="48.89773" lon="4.41187">
        <ele>87.62</ele>
        <time>2017-08-07T05:27:54Z</time>
      </trkpt>
      <trkpt lat="48.8977" lon="4.41189">
        <ele>87.62</ele>
        <time>2017-08-07T05:27:55Z</time>
      </trkpt>
      <trkpt lat="48.89765" lon="4.41191">
        <ele>87.62</ele>
        <time>2017-08-07T05:27:56Z</time>
      </trkpt>
      <trkpt lat="48.89761" lon="4.41193">
        <ele>87.14</ele>
        <time>2017-08-07T05:27:57Z</time>
      </trkpt>
      <trkpt lat="48.89757" lon="4.41196">
        <ele>87.62</ele>
        <time>2017-08-07T05:27:58Z</time>
      </trkpt>
      <trkpt lat="48.89725" lon="4.41214">
        <ele>87.14</ele>
        <time>2017-08-07T05:28:07Z</time>
      </trkpt>
      <trkpt lat="48.89703" lon="4.4123">
        <ele>87.14</ele>
        <time>2017-08-07T05:28:13Z</time>
      </trkpt>
      <trkpt lat="48.897" lon="4.41234">
        <ele>87.14</ele>
        <time>2017-08-07T05:28:14Z</time>
      </trkpt>
      <trkpt lat="48.89697" lon="4.41238">
        <ele>87.14</ele>
        <time>2017-08-07T05:28:15Z</time>
      </trkpt>
      <trkpt lat="48.89694" lon="4.41242">
        <ele>87.14</ele>
        <time>2017-08-07T05:28:16Z</time>
      </trkpt>
      <trkpt lat="48.89691" lon="4.41246">
        <ele>87.14</ele>
        <time>2017-08-07T05:28:17Z</time>
      </trkpt>
      <trkpt lat="48.89653" lon="4.4127">
        <ele>87.14</ele>
        <time>2017-08-07T05:28:28Z</time>
      </trkpt>
      <trkpt lat="48.89607" lon="4.41301">
        <ele>87.14</ele>
        <time>2017-08-07T05:28:40Z</time>
      </trkpt>
      <trkpt lat="48.89531" lon="4.41331">
        <ele>87.14</ele>
        <time>2017-08-07T05:28:58Z</time>
      </trkpt>
      <trkpt lat="48.89491" lon="4.41353">
        <ele>87.14</ele>
        <time>2017-08-07T05:29:10Z</time>
      </trkpt>
      <trkpt lat="48.89489" lon="4.41356">
        <ele>87.14</ele>
        <time>2017-08-07T05:29:11Z</time>
      </trkpt>
      <trkpt lat="48.8948" lon="4.41393">
        <ele>87.62</ele>
        <time>2017-08-07T05:29:21Z</time>
      </trkpt>
      <trkpt lat="48.89478" lon="4.41396">
        <ele>87.62</ele>
        <time>2017-08-07T05:29:22Z</time>
      </trkpt>
      <trkpt lat="48.89476" lon="4.41398">
        <ele>87.62</ele>
        <time>2017-08-07T05:29:23Z</time>
      </trkpt>
      <trkpt lat="48.89473" lon="4.414">
        <ele>87.62</ele>
        <time>2017-08-07T05:29:24Z</time>
      </trkpt>
      <trkpt lat="48.89471" lon="4.41401">
        <ele>87.62</ele>
        <time>2017-08-07T05:29:25Z</time>
      </trkpt>
      <trkpt lat="48.89468" lon="4.41402">
        <ele>87.62</ele>
        <time>2017-08-07T05:29:26Z</time>
      </trkpt>
      <trkpt lat="48.89426" lon="4.4142">
        <ele>87.62</ele>
        <time>2017-08-07T05:29:40Z</time>
      </trkpt>
      <trkpt lat="48.89412" lon="4.41426">
        <ele>87.62</ele>
        <time>2017-08-07T05:29:44Z</time>
      </trkpt>
      <trkpt lat="48.89373" lon="4.41447">
        <ele>87.62</ele>
        <time>2017-08-07T05:29:54Z</time>
      </trkpt>
      <trkpt lat="48.89365" lon="4.41453">
        <ele>87.62</ele>
        <time>2017-08-07T05:29:56Z</time>
      </trkpt>
      <trkpt lat="48.89344" lon="4.41473">
        <ele>87.62</ele>
        <time>2017-08-07T05:30:02Z</time>
      </trkpt>
      <trkpt lat="48.89344" lon="4.41478">
        <ele>87.62</ele>
        <time>2017-08-07T05:30:03Z</time>
      </trkpt>
      <trkpt lat="48.89344" lon="4.41484">
        <ele>87.62</ele>
        <time>2017-08-07T05:30:04Z</time>
      </trkpt>
      <trkpt lat="48.89345" lon="4.41489">
        <ele>87.62</ele>
        <time>2017-08-07T05:30:05Z</time>
      </trkpt>
      <trkpt lat="48.89346" lon="4.41493">
        <ele>87.62</ele>
        <time>2017-08-07T05:30:06Z</time>
      </trkpt>
      <trkpt lat="48.89348" lon="4.41497">
        <ele>87.62</ele>
        <time>2017-08-07T05:30:07Z</time>
      </trkpt>
      <trkpt lat="48.89349" lon="4.41501">
        <ele>87.62</ele>
        <time>2017-08-07T05:30:08Z</time>
      </trkpt>
      <trkpt lat="48.89366" lon="4.41553">
        <ele>87.62</ele>
        <time>2017-08-07T05:30:19Z</time>
      </trkpt>
      <trkpt lat="48.89372" lon="4.4159">
        <ele>87.62</ele>
        <time>2017-08-07T05:30:26Z</time>
      </trkpt>
      <trkpt lat="48.8937" lon="4.41594">
        <ele>87.62</ele>
        <time>2017-08-07T05:30:27Z</time>
      </trkpt>
      <trkpt lat="48.89368" lon="4.41597">
        <ele>87.62</ele>
        <time>2017-08-07T05:30:28Z</time>
      </trkpt>
      <trkpt lat="48.89365" lon="4.41599">
        <ele>87.62</ele>
        <time>2017-08-07T05:30:29Z</time>
      </trkpt>
      <trkpt lat="48.89361" lon="4.41601">
        <ele>87.62</ele>
        <time>2017-08-07T05:30:30Z</time>
      </trkpt>
      <trkpt lat="48.89313" lon="4.41629">
        <ele>88.1</ele>
        <time>2017-08-07T05:30:43Z</time>
      </trkpt>
      <trkpt lat="48.89282" lon="4.41648">
        <ele>88.1</ele>
        <time>2017-08-07T05:30:52Z</time>
      </trkpt>
      <trkpt lat="48.89279" lon="4.41652">
        <ele>88.1</ele>
        <time>2017-08-07T05:30:53Z</time>
      </trkpt>
      <trkpt lat="48.89277" lon="4.41658">
        <ele>88.1</ele>
        <time>2017-08-07T05:30:54Z</time>
      </trkpt>
      <trkpt lat="48.89276" lon="4.41663">
        <ele>88.1</ele>
        <time>2017-08-07T05:30:55Z</time>
      </trkpt>
      <trkpt lat="48.89277" lon="4.41669">
        <ele>88.1</ele>
        <time>2017-08-07T05:30:56Z</time>
      </trkpt>
      <trkpt lat="48.89278" lon="4.41674">
        <ele>88.1</ele>
        <time>2017-08-07T05:30:57Z</time>
      </trkpt>
      <trkpt lat="48.8928" lon="4.4168">
        <ele>88.1</ele>
        <time>2017-08-07T05:30:58Z</time>
      </trkpt>
      <trkpt lat="48.89282" lon="4.41685">
        <ele>88.1</ele>
        <time>2017-08-07T05:30:59Z</time>
      </trkpt>
      <trkpt lat="48.89294" lon="4.41729">
        <ele>88.1</ele>
        <time>2017-08-07T05:31:07Z</time>
      </trkpt>
      <trkpt lat="48.89295" lon="4.41735">
        <ele>88.1</ele>
        <time>2017-08-07T05:31:08Z</time>
      </trkpt>
      <trkpt lat="48.89295" lon="4.41741">
        <ele>88.1</ele>
        <time>2017-08-07T05:31:09Z</time>
      </trkpt>
      <trkpt lat="48.89293" lon="4.41746">
        <ele>88.1</ele>
        <time>2017-08-07T05:31:10Z</time>
      </trkpt>
      <trkpt lat="48.8929" lon="4.4175">
        <ele>88.1</ele>
        <time>2017-08-07T05:31:11Z</time>
      </trkpt>
      <trkpt lat="48.89287" lon="4.41754">
        <ele>88.1</ele>
        <time>2017-08-07T05:31:12Z</time>
      </trkpt>
      <trkpt lat="48.89237" lon="4.41789">
        <ele>88.1</ele>
        <time>2017-08-07T05:31:26Z</time>
      </trkpt>
      <trkpt lat="48.89194" lon="4.4182">
        <ele>88.1</ele>
        <time>2017-08-07T05:31:37Z</time>
      </trkpt>
      <trkpt lat="48.89191" lon="4.41824">
        <ele>88.1</ele>
        <time>2017-08-07T05:31:38Z</time>
      </trkpt>
      <trkpt lat="48.89189" lon="4.41829">
        <ele>88.1</ele>
        <time>2017-08-07T05:31:39Z</time>
      </trkpt>
      <trkpt lat="48.89187" lon="4.41834">
        <ele>88.1</ele>
        <time>2017-08-07T05:31:40Z</time>
      </trkpt>
      <trkpt lat="48.89186" lon="4.41839">
        <ele>88.1</ele>
        <time>2017-08-07T05:31:41Z</time>
      </trkpt>
      <trkpt lat="48.89185" lon="4.41845">
        <ele>88.1</ele>
        <time>2017-08-07T05:31:42Z</time>
      </trkpt>
      <trkpt lat="48.89184" lon="4.41852">
        <ele>88.1</ele>
        <time>2017-08-07T05:31:43Z</time>
      </trkpt>
      <trkpt lat="48.89171" lon="4.41913">
        <ele>88.1</ele>
        <time>2017-08-07T05:31:56Z</time>
      </trkpt>
      <trkpt lat="48.89172" lon="4.41973">
        <ele>88.1</ele>
        <time>2017-08-07T05:32:07Z</time>
      </trkpt>
      <trkpt lat="48.89216" lon="4.42023">
        <ele>88.1</ele>
        <time>2017-08-07T05:32:21Z</time>
      </trkpt>
      <trkpt lat="48.8924" lon="4.42049">
        <ele>87.62</ele>
        <time>2017-08-07T05:32:28Z</time>
      </trkpt>
      <trkpt lat="48.89243" lon="4.42053">
        <ele>87.62</ele>
        <time>2017-08-07T05:32:29Z</time>
      </trkpt>
      <trkpt lat="48.89251" lon="4.42061">
        <ele>87.62</ele>
        <time>2017-08-07T05:32:31Z</time>
      </trkpt>
      <trkpt lat="48.89255" lon="4.42065">
        <ele>87.62</ele>
        <time>2017-08-07T05:32:32Z</time>
      </trkpt>
      <trkpt lat="48.89258" lon="4.4207">
        <ele>87.62</ele>
        <time>2017-08-07T05:32:33Z</time>
      </trkpt>
      <trkpt lat="48.89261" lon="4.42075">
        <ele>87.62</ele>
        <time>2017-08-07T05:32:34Z</time>
      </trkpt>
      <trkpt lat="48.89263" lon="4.4208">
        <ele>87.62</ele>
        <time>2017-08-07T05:32:35Z</time>
      </trkpt>
      <trkpt lat="48.89265" lon="4.42087">
        <ele>87.62</ele>
        <time>2017-08-07T05:32:36Z</time>
      </trkpt>
      <trkpt lat="48.89269" lon="4.42104">
        <ele>87.62</ele>
        <time>2017-08-07T05:32:39Z</time>
      </trkpt>
      <trkpt lat="48.89269" lon="4.4211">
        <ele>87.62</ele>
        <time>2017-08-07T05:32:40Z</time>
      </trkpt>
      <trkpt lat="48.8927" lon="4.42116">
        <ele>87.62</ele>
        <time>2017-08-07T05:32:41Z</time>
      </trkpt>
      <trkpt lat="48.89286" lon="4.42188">
        <ele>87.62</ele>
        <time>2017-08-07T05:32:55Z</time>
      </trkpt>
      <trkpt lat="48.89307" lon="4.42249">
        <ele>87.62</ele>
        <time>2017-08-07T05:33:06Z</time>
      </trkpt>
      <trkpt lat="48.8931" lon="4.42255">
        <ele>87.62</ele>
        <time>2017-08-07T05:33:07Z</time>
      </trkpt>
      <trkpt lat="48.89313" lon="4.4226">
        <ele>87.62</ele>
        <time>2017-08-07T05:33:08Z</time>
      </trkpt>
      <trkpt lat="48.89317" lon="4.42264">
        <ele>87.62</ele>
        <time>2017-08-07T05:33:09Z</time>
      </trkpt>
      <trkpt lat="48.89322" lon="4.42267">
        <ele>87.62</ele>
        <time>2017-08-07T05:33:10Z</time>
      </trkpt>
      <trkpt lat="48.89326" lon="4.4227">
        <ele>87.62</ele>
        <time>2017-08-07T05:33:11Z</time>
      </trkpt>
      <trkpt lat="48.89331" lon="4.42271">
        <ele>87.62</ele>
        <time>2017-08-07T05:33:12Z</time>
      </trkpt>
      <trkpt lat="48.89335" lon="4.42273">
        <ele>87.62</ele>
        <time>2017-08-07T05:33:13Z</time>
      </trkpt>
      <trkpt lat="48.89339" lon="4.42276">
        <ele>87.62</ele>
        <time>2017-08-07T05:33:14Z</time>
      </trkpt>
      <trkpt lat="48.89343" lon="4.42279">
        <ele>87.62</ele>
        <time>2017-08-07T05:33:15Z</time>
      </trkpt>
      <trkpt lat="48.89347" lon="4.42283">
        <ele>87.62</ele>
        <time>2017-08-07T05:33:16Z</time>
      </trkpt>
      <trkpt lat="48.8935" lon="4.42288">
        <ele>87.62</ele>
        <time>2017-08-07T05:33:17Z</time>
      </trkpt>
      <trkpt lat="48.89353" lon="4.42293">
        <ele>87.62</ele>
        <time>2017-08-07T05:33:18Z</time>
      </trkpt>
      <trkpt lat="48.89356" lon="4.42298">
        <ele>87.62</ele>
        <time>2017-08-07T05:33:19Z</time>
      </trkpt>
      <trkpt lat="48.89367" lon="4.42326">
        <ele>87.62</ele>
        <time>2017-08-07T05:33:24Z</time>
      </trkpt>
      <trkpt lat="48.8937" lon="4.42331">
        <ele>87.62</ele>
        <time>2017-08-07T05:33:25Z</time>
      </trkpt>
      <trkpt lat="48.89372" lon="4.42337">
        <ele>87.62</ele>
        <time>2017-08-07T05:33:26Z</time>
      </trkpt>
      <trkpt lat="48.89387" lon="4.42375">
        <ele>87.62</ele>
        <time>2017-08-07T05:33:33Z</time>
      </trkpt>
      <trkpt lat="48.89388" lon="4.42382">
        <ele>87.62</ele>
        <time>2017-08-07T05:33:34Z</time>
      </trkpt>
      <trkpt lat="48.89386" lon="4.42387">
        <ele>87.62</ele>
        <time>2017-08-07T05:33:35Z</time>
      </trkpt>
      <trkpt lat="48.89383" lon="4.42392">
        <ele>87.62</ele>
        <time>2017-08-07T05:33:36Z</time>
      </trkpt>
      <trkpt lat="48.8938" lon="4.42395">
        <ele>87.62</ele>
        <time>2017-08-07T05:33:37Z</time>
      </trkpt>
      <trkpt lat="48.89376" lon="4.42397">
        <ele>87.62</ele>
        <time>2017-08-07T05:33:38Z</time>
      </trkpt>
      <trkpt lat="48.89372" lon="4.424">
        <ele>87.62</ele>
        <time>2017-08-07T05:33:39Z</time>
      </trkpt>
      <trkpt lat="48.89368" lon="4.42403">
        <ele>87.62</ele>
        <time>2017-08-07T05:33:40Z</time>
      </trkpt>
      <trkpt lat="48.89364" lon="4.42406">
        <ele>87.62</ele>
        <time>2017-08-07T05:33:41Z</time>
      </trkpt>
      <trkpt lat="48.8929" lon="4.42458">
        <ele>87.62</ele>
        <time>2017-08-07T05:33:59Z</time>
      </trkpt>
      <trkpt lat="48.89224" lon="4.42508">
        <ele>87.62</ele>
        <time>2017-08-07T05:34:16Z</time>
      </trkpt>
      <trkpt lat="48.89161" lon="4.42549">
        <ele>87.62</ele>
        <time>2017-08-07T05:34:31Z</time>
      </trkpt>
      <trkpt lat="48.89157" lon="4.42552">
        <ele>87.62</ele>
        <time>2017-08-07T05:34:32Z</time>
      </trkpt>
      <trkpt lat="48.89153" lon="4.42555">
        <ele>87.62</ele>
        <time>2017-08-07T05:34:33Z</time>
      </trkpt>
      <trkpt lat="48.89122" lon="4.42575">
        <ele>88.1</ele>
        <time>2017-08-07T05:34:41Z</time>
      </trkpt>
      <trkpt lat="48.8906" lon="4.42624">
        <ele>88.58</ele>
        <time>2017-08-07T05:34:57Z</time>
      </trkpt>
      <trkpt lat="48.89056" lon="4.42627">
        <ele>88.58</ele>
        <time>2017-08-07T05:34:58Z</time>
      </trkpt>
      <trkpt lat="48.89013" lon="4.42666">
        <ele>88.58</ele>
        <time>2017-08-07T05:35:09Z</time>
      </trkpt>
      <trkpt lat="48.88932" lon="4.42741">
        <ele>88.1</ele>
        <time>2017-08-07T05:35:29Z</time>
      </trkpt>
      <trkpt lat="48.8892" lon="4.4275">
        <ele>88.58</ele>
        <time>2017-08-07T05:35:32Z</time>
      </trkpt>
      <trkpt lat="48.88848" lon="4.42789">
        <ele>88.1</ele>
        <time>2017-08-07T05:35:50Z</time>
      </trkpt>
      <trkpt lat="48.8884" lon="4.42796">
        <ele>88.1</ele>
        <time>2017-08-07T05:35:52Z</time>
      </trkpt>
      <trkpt lat="48.88834" lon="4.42803">
        <ele>88.1</ele>
        <time>2017-08-07T05:35:54Z</time>
      </trkpt>
      <trkpt lat="48.88831" lon="4.42807">
        <ele>88.1</ele>
        <time>2017-08-07T05:35:55Z</time>
      </trkpt>
      <trkpt lat="48.88828" lon="4.42812">
        <ele>88.1</ele>
        <time>2017-08-07T05:35:56Z</time>
      </trkpt>
      <trkpt lat="48.88823" lon="4.42822">
        <ele>88.1</ele>
        <time>2017-08-07T05:35:58Z</time>
      </trkpt>
      <trkpt lat="48.88821" lon="4.42828">
        <ele>88.1</ele>
        <time>2017-08-07T05:35:59Z</time>
      </trkpt>
      <trkpt lat="48.88791" lon="4.42922">
        <ele>88.1</ele>
        <time>2017-08-07T05:36:16Z</time>
      </trkpt>
      <trkpt lat="48.88789" lon="4.42929">
        <ele>88.1</ele>
        <time>2017-08-07T05:36:17Z</time>
      </trkpt>
      <trkpt lat="48.88788" lon="4.42935">
        <ele>88.1</ele>
        <time>2017-08-07T05:36:18Z</time>
      </trkpt>
      <trkpt lat="48.88786" lon="4.42941">
        <ele>88.1</ele>
        <time>2017-08-07T05:36:19Z</time>
      </trkpt>
      <trkpt lat="48.88784" lon="4.42947">
        <ele>88.1</ele>
        <time>2017-08-07T05:36:20Z</time>
      </trkpt>
      <trkpt lat="48.88783" lon="4.42953">
        <ele>88.1</ele>
        <time>2017-08-07T05:36:21Z</time>
      </trkpt>
      <trkpt lat="48.8878" lon="4.42966">
        <ele>88.1</ele>
        <time>2017-08-07T05:36:23Z</time>
      </trkpt>
      <trkpt lat="48.8878" lon="4.42973">
        <ele>88.1</ele>
        <time>2017-08-07T05:36:24Z</time>
      </trkpt>
      <trkpt lat="48.88782" lon="4.42978">
        <ele>88.1</ele>
        <time>2017-08-07T05:36:25Z</time>
      </trkpt>
      <trkpt lat="48.88784" lon="4.42983">
        <ele>88.1</ele>
        <time>2017-08-07T05:36:26Z</time>
      </trkpt>
      <trkpt lat="48.88787" lon="4.42988">
        <ele>88.1</ele>
        <time>2017-08-07T05:36:27Z</time>
      </trkpt>
      <trkpt lat="48.8879" lon="4.42993">
        <ele>88.1</ele>
        <time>2017-08-07T05:36:28Z</time>
      </trkpt>
      <trkpt lat="48.88832" lon="4.4308">
        <ele>88.1</ele>
        <time>2017-08-07T05:36:44Z</time>
      </trkpt>
      <trkpt lat="48.88876" lon="4.4317">
        <ele>88.1</ele>
        <time>2017-08-07T05:37:01Z</time>
      </trkpt>
      <trkpt lat="48.88916" lon="4.43247">
        <ele>88.1</ele>
        <time>2017-08-07T05:37:16Z</time>
      </trkpt>
      <trkpt lat="48.88918" lon="4.43254">
        <ele>88.1</ele>
        <time>2017-08-07T05:37:17Z</time>
      </trkpt>
      <trkpt lat="48.88918" lon="4.4326">
        <ele>88.1</ele>
        <time>2017-08-07T05:37:18Z</time>
      </trkpt>
      <trkpt lat="48.88917" lon="4.43266">
        <ele>88.1</ele>
        <time>2017-08-07T05:37:19Z</time>
      </trkpt>
      <trkpt lat="48.88914" lon="4.43272">
        <ele>88.1</ele>
        <time>2017-08-07T05:37:20Z</time>
      </trkpt>
      <trkpt lat="48.88912" lon="4.43277">
        <ele>88.1</ele>
        <time>2017-08-07T05:37:21Z</time>
      </trkpt>
      <trkpt lat="48.88908" lon="4.43282">
        <ele>88.1</ele>
        <time>2017-08-07T05:37:22Z</time>
      </trkpt>
      <trkpt lat="48.88881" lon="4.43316">
        <ele>88.58</ele>
        <time>2017-08-07T05:37:30Z</time>
      </trkpt>
      <trkpt lat="48.88878" lon="4.4332">
        <ele>88.58</ele>
        <time>2017-08-07T05:37:31Z</time>
      </trkpt>
      <trkpt lat="48.88875" lon="4.43324">
        <ele>88.58</ele>
        <time>2017-08-07T05:37:32Z</time>
      </trkpt>
      <trkpt lat="48.8884" lon="4.43368">
        <ele>88.58</ele>
        <time>2017-08-07T05:37:42Z</time>
      </trkpt>
      <trkpt lat="48.88836" lon="4.43372">
        <ele>88.58</ele>
        <time>2017-08-07T05:37:43Z</time>
      </trkpt>
      <trkpt lat="48.88809" lon="4.43406">
        <ele>88.58</ele>
        <time>2017-08-07T05:37:51Z</time>
      </trkpt>
      <trkpt lat="48.88792" lon="4.43428">
        <ele>88.1</ele>
        <time>2017-08-07T05:37:56Z</time>
      </trkpt>
      <trkpt lat="48.88736" lon="4.43497">
        <ele>88.58</ele>
        <time>2017-08-07T05:38:13Z</time>
      </trkpt>
      <trkpt lat="48.887" lon="4.43545">
        <ele>88.58</ele>
        <time>2017-08-07T05:38:26Z</time>
      </trkpt>
      <trkpt lat="48.88681" lon="4.43566">
        <ele>88.58</ele>
        <time>2017-08-07T05:38:32Z</time>
      </trkpt>
      <trkpt lat="48.88614" lon="4.43649">
        <ele>88.58</ele>
        <time>2017-08-07T05:38:52Z</time>
      </trkpt>
      <trkpt lat="48.8856" lon="4.43717">
        <ele>88.58</ele>
        <time>2017-08-07T05:39:08Z</time>
      </trkpt>
      <trkpt lat="48.88556" lon="4.43721">
        <ele>88.58</ele>
        <time>2017-08-07T05:39:09Z</time>
      </trkpt>
      <trkpt lat="48.88552" lon="4.43725">
        <ele>88.58</ele>
        <time>2017-08-07T05:39:10Z</time>
      </trkpt>
      <trkpt lat="48.88492" lon="4.438">
        <ele>88.1</ele>
        <time>2017-08-07T05:39:28Z</time>
      </trkpt>
      <trkpt lat="48.88436" lon="4.43869">
        <ele>88.58</ele>
        <time>2017-08-07T05:39:46Z</time>
      </trkpt>
      <trkpt lat="48.88405" lon="4.43908">
        <ele>88.58</ele>
        <time>2017-08-07T05:39:56Z</time>
      </trkpt>
      <trkpt lat="48.88401" lon="4.43912">
        <ele>88.58</ele>
        <time>2017-08-07T05:39:57Z</time>
      </trkpt>
      <trkpt lat="48.8838" lon="4.43931">
        <ele>88.58</ele>
        <time>2017-08-07T05:40:03Z</time>
      </trkpt>
      <trkpt lat="48.8831" lon="4.43989">
        <ele>89.06</ele>
        <time>2017-08-07T05:40:23Z</time>
      </trkpt>
      <trkpt lat="48.88276" lon="4.44008">
        <ele>89.06</ele>
        <time>2017-08-07T05:40:32Z</time>
      </trkpt>
      <trkpt lat="48.88251" lon="4.44031">
        <ele>89.06</ele>
        <time>2017-08-07T05:40:39Z</time>
      </trkpt>
      <trkpt lat="48.88198" lon="4.44089">
        <ele>89.06</ele>
        <time>2017-08-07T05:40:54Z</time>
      </trkpt>
      <trkpt lat="48.88184" lon="4.44099">
        <ele>89.06</ele>
        <time>2017-08-07T05:40:58Z</time>
      </trkpt>
      <trkpt lat="48.88176" lon="4.44103">
        <ele>89.06</ele>
        <time>2017-08-07T05:41:00Z</time>
      </trkpt>
      <trkpt lat="48.88106" lon="4.44116">
        <ele>89.06</ele>
        <time>2017-08-07T05:41:17Z</time>
      </trkpt>
      <trkpt lat="48.88064" lon="4.44144">
        <ele>89.06</ele>
        <time>2017-08-07T05:41:30Z</time>
      </trkpt>
      <trkpt lat="48.88056" lon="4.44156">
        <ele>89.06</ele>
        <time>2017-08-07T05:41:39Z</time>
      </trkpt>
      <trkpt lat="48.88055" lon="4.44155">
        <ele>89.54</ele>
        <time>2017-08-07T05:42:06Z</time>
      </trkpt>
      <trkpt lat="48.88056" lon="4.44156">
        <ele>89.54</ele>
        <time>2017-08-07T05:42:29Z</time>
      </trkpt>
      <trkpt lat="48.88056" lon="4.44156">
        <ele>89.54</ele>
        <time>2017-08-07T05:42:53Z</time>
      </trkpt>
      <trkpt lat="48.88049" lon="4.44174">
        <ele>89.54</ele>
        <time>2017-08-07T05:43:06Z</time>
      </trkpt>
      <trkpt lat="48.87994" lon="4.44263">
        <ele>89.54</ele>
        <time>2017-08-07T05:43:24Z</time>
      </trkpt>
      <trkpt lat="48.87938" lon="4.44348">
        <ele>89.54</ele>
        <time>2017-08-07T05:43:42Z</time>
      </trkpt>
      <trkpt lat="48.87935" lon="4.44353">
        <ele>89.54</ele>
        <time>2017-08-07T05:43:43Z</time>
      </trkpt>
      <trkpt lat="48.87921" lon="4.44371">
        <ele>89.54</ele>
        <time>2017-08-07T05:43:47Z</time>
      </trkpt>
      <trkpt lat="48.87911" lon="4.44384">
        <ele>89.54</ele>
        <time>2017-08-07T05:43:50Z</time>
      </trkpt>
      <trkpt lat="48.87848" lon="4.44478">
        <ele>89.54</ele>
        <time>2017-08-07T05:44:10Z</time>
      </trkpt>
      <trkpt lat="48.87828" lon="4.44504">
        <ele>89.54</ele>
        <time>2017-08-07T05:44:16Z</time>
      </trkpt>
      <trkpt lat="48.87785" lon="4.44567">
        <ele>89.54</ele>
        <time>2017-08-07T05:44:30Z</time>
      </trkpt>
      <trkpt lat="48.8776" lon="4.44573">
        <ele>90.02</ele>
        <time>2017-08-07T05:44:37Z</time>
      </trkpt>
      <trkpt lat="48.87712" lon="4.44492">
        <ele>90.02</ele>
        <time>2017-08-07T05:44:53Z</time>
      </trkpt>
      <trkpt lat="48.87652" lon="4.44404">
        <ele>88.58</ele>
        <time>2017-08-07T05:45:10Z</time>
      </trkpt>
      <trkpt lat="48.87592" lon="4.44316">
        <ele>88.58</ele>
        <time>2017-08-07T05:45:28Z</time>
      </trkpt>
      <trkpt lat="48.87575" lon="4.44291">
        <ele>88.58</ele>
        <time>2017-08-07T05:45:33Z</time>
      </trkpt>
      <trkpt lat="48.87545" lon="4.44292">
        <ele>88.58</ele>
        <time>2017-08-07T05:45:40Z</time>
      </trkpt>
      <trkpt lat="48.87469" lon="4.44392">
        <ele>88.1</ele>
        <time>2017-08-07T05:46:01Z</time>
      </trkpt>
      <trkpt lat="48.87418" lon="4.44458">
        <ele>88.1</ele>
        <time>2017-08-07T05:46:15Z</time>
      </trkpt>
      <trkpt lat="48.87376" lon="4.44514">
        <ele>88.1</ele>
        <time>2017-08-07T05:46:27Z</time>
      </trkpt>
      <trkpt lat="48.87369" lon="4.44523">
        <ele>88.1</ele>
        <time>2017-08-07T05:46:29Z</time>
      </trkpt>
      <trkpt lat="48.8737" lon="4.44548">
        <ele>88.1</ele>
        <time>2017-08-07T05:46:34Z</time>
      </trkpt>
      <trkpt lat="48.87431" lon="4.44635">
        <ele>88.1</ele>
        <time>2017-08-07T05:46:55Z</time>
      </trkpt>
      <trkpt lat="48.87487" lon="4.44721">
        <ele>89.54</ele>
        <time>2017-08-07T05:47:15Z</time>
      </trkpt>
      <trkpt lat="48.87541" lon="4.44811">
        <ele>89.54</ele>
        <time>2017-08-07T05:47:34Z</time>
      </trkpt>
      <trkpt lat="48.87557" lon="4.4484">
        <ele>89.54</ele>
        <time>2017-08-07T05:47:41Z</time>
      </trkpt>
      <trkpt lat="48.8755" lon="4.44862">
        <ele>89.54</ele>
        <time>2017-08-07T05:47:45Z</time>
      </trkpt>
      <trkpt lat="48.87488" lon="4.44932">
        <ele>89.54</ele>
        <time>2017-08-07T05:48:03Z</time>
      </trkpt>
      <trkpt lat="48.87485" lon="4.44936">
        <ele>89.54</ele>
        <time>2017-08-07T05:48:04Z</time>
      </trkpt>
      <trkpt lat="48.87425" lon="4.45003">
        <ele>89.54</ele>
        <time>2017-08-07T05:48:20Z</time>
      </trkpt>
      <trkpt lat="48.87366" lon="4.45071">
        <ele>89.54</ele>
        <time>2017-08-07T05:48:37Z</time>
      </trkpt>
      <trkpt lat="48.87309" lon="4.45132">
        <ele>90.02</ele>
        <time>2017-08-07T05:48:53Z</time>
      </trkpt>
      <trkpt lat="48.87277" lon="4.45184">
        <ele>90.5</ele>
        <time>2017-08-07T05:49:05Z</time>
      </trkpt>
      <trkpt lat="48.87263" lon="4.45206">
        <ele>90.5</ele>
        <time>2017-08-07T05:49:09Z</time>
      </trkpt>
      <trkpt lat="48.87226" lon="4.45256">
        <ele>90.5</ele>
        <time>2017-08-07T05:49:19Z</time>
      </trkpt>
      <trkpt lat="48.87216" lon="4.4528">
        <ele>90.5</ele>
        <time>2017-08-07T05:49:23Z</time>
      </trkpt>
      <trkpt lat="48.87207" lon="4.45313">
        <ele>90.5</ele>
        <time>2017-08-07T05:49:28Z</time>
      </trkpt>
      <trkpt lat="48.87185" lon="4.45383">
        <ele>90.5</ele>
        <time>2017-08-07T05:49:39Z</time>
      </trkpt>
      <trkpt lat="48.87174" lon="4.45422">
        <ele>90.5</ele>
        <time>2017-08-07T05:49:45Z</time>
      </trkpt>
      <trkpt lat="48.87147" lon="4.45477">
        <ele>92.42</ele>
        <time>2017-08-07T05:49:58Z</time>
      </trkpt>
      <trkpt lat="48.87133" lon="4.45493">
        <ele>93.87</ele>
        <time>2017-08-07T05:50:06Z</time>
      </trkpt>
      <trkpt lat="48.87107" lon="4.45538">
        <ele>90.98</ele>
        <time>2017-08-07T05:50:15Z</time>
      </trkpt>
      <trkpt lat="48.87043" lon="4.45624">
        <ele>90.5</ele>
        <time>2017-08-07T05:50:29Z</time>
      </trkpt>
      <trkpt lat="48.87008" lon="4.45682">
        <ele>90.5</ele>
        <time>2017-08-07T05:50:39Z</time>
      </trkpt>
      <trkpt lat="48.87004" lon="4.45688">
        <ele>90.5</ele>
        <time>2017-08-07T05:50:40Z</time>
      </trkpt>
      <trkpt lat="48.87001" lon="4.45694">
        <ele>90.5</ele>
        <time>2017-08-07T05:50:41Z</time>
      </trkpt>
      <trkpt lat="48.86952" lon="4.45795">
        <ele>90.5</ele>
        <time>2017-08-07T05:50:58Z</time>
      </trkpt>
      <trkpt lat="48.86914" lon="4.4589">
        <ele>90.5</ele>
        <time>2017-08-07T05:51:14Z</time>
      </trkpt>
      <trkpt lat="48.86881" lon="4.4598">
        <ele>90.5</ele>
        <time>2017-08-07T05:51:30Z</time>
      </trkpt>
      <trkpt lat="48.86878" lon="4.45984">
        <ele>90.5</ele>
        <time>2017-08-07T05:51:31Z</time>
      </trkpt>
      <trkpt lat="48.8687" lon="4.46">
        <ele>90.5</ele>
        <time>2017-08-07T05:51:34Z</time>
      </trkpt>
      <trkpt lat="48.86867" lon="4.46006">
        <ele>90.5</ele>
        <time>2017-08-07T05:51:35Z</time>
      </trkpt>
      <trkpt lat="48.8685" lon="4.46052">
        <ele>90.5</ele>
        <time>2017-08-07T05:51:43Z</time>
      </trkpt>
      <trkpt lat="48.86847" lon="4.46058">
        <ele>90.5</ele>
        <time>2017-08-07T05:51:44Z</time>
      </trkpt>
      <trkpt lat="48.86823" lon="4.46122">
        <ele>90.5</ele>
        <time>2017-08-07T05:51:55Z</time>
      </trkpt>
      <trkpt lat="48.86821" lon="4.46126">
        <ele>90.5</ele>
        <time>2017-08-07T05:51:56Z</time>
      </trkpt>
      <trkpt lat="48.86809" lon="4.46155">
        <ele>90.5</ele>
        <time>2017-08-07T05:52:01Z</time>
      </trkpt>
      <trkpt lat="48.86767" lon="4.46259">
        <ele>90.02</ele>
        <time>2017-08-07T05:52:18Z</time>
      </trkpt>
      <trkpt lat="48.86765" lon="4.46265">
        <ele>90.02</ele>
        <time>2017-08-07T05:52:19Z</time>
      </trkpt>
      <trkpt lat="48.86727" lon="4.46362">
        <ele>90.02</ele>
        <time>2017-08-07T05:52:36Z</time>
      </trkpt>
      <trkpt lat="48.86689" lon="4.46458">
        <ele>90.02</ele>
        <time>2017-08-07T05:52:53Z</time>
      </trkpt>
      <trkpt lat="48.86646" lon="4.46567">
        <ele>90.02</ele>
        <time>2017-08-07T05:53:12Z</time>
      </trkpt>
      <trkpt lat="48.86599" lon="4.4669">
        <ele>90.02</ele>
        <time>2017-08-07T05:53:33Z</time>
      </trkpt>
      <trkpt lat="48.8656" lon="4.46791">
        <ele>89.54</ele>
        <time>2017-08-07T05:53:50Z</time>
      </trkpt>
      <trkpt lat="48.86517" lon="4.46901">
        <ele>89.54</ele>
        <time>2017-08-07T05:54:10Z</time>
      </trkpt>
      <trkpt lat="48.86476" lon="4.47006">
        <ele>89.54</ele>
        <time>2017-08-07T05:54:29Z</time>
      </trkpt>
      <trkpt lat="48.86431" lon="4.47119">
        <ele>89.54</ele>
        <time>2017-08-07T05:54:49Z</time>
      </trkpt>
      <trkpt lat="48.86389" lon="4.47222">
        <ele>89.54</ele>
        <time>2017-08-07T05:55:07Z</time>
      </trkpt>
      <trkpt lat="48.8635" lon="4.47296">
        <ele>89.54</ele>
        <time>2017-08-07T05:55:21Z</time>
      </trkpt>
      <trkpt lat="48.86313" lon="4.47354">
        <ele>89.54</ele>
        <time>2017-08-07T05:55:33Z</time>
      </trkpt>
      <trkpt lat="48.86289" lon="4.47393">
        <ele>90.98</ele>
        <time>2017-08-07T05:55:41Z</time>
      </trkpt>
      <trkpt lat="48.86222" lon="4.47474">
        <ele>90.5</ele>
        <time>2017-08-07T05:55:58Z</time>
      </trkpt>
      <trkpt lat="48.86154" lon="4.47556">
        <ele>90.5</ele>
        <time>2017-08-07T05:56:16Z</time>
      </trkpt>
      <trkpt lat="48.86104" lon="4.47619">
        <ele>90.98</ele>
        <time>2017-08-07T05:56:31Z</time>
      </trkpt>
      <trkpt lat="48.86039" lon="4.47703">
        <ele>90.98</ele>
        <time>2017-08-07T05:56:49Z</time>
      </trkpt>
      <trkpt lat="48.85976" lon="4.47778">
        <ele>90.98</ele>
        <time>2017-08-07T05:57:06Z</time>
      </trkpt>
      <trkpt lat="48.85973" lon="4.47781">
        <ele>90.98</ele>
        <time>2017-08-07T05:57:07Z</time>
      </trkpt>
      <trkpt lat="48.85969" lon="4.47785">
        <ele>90.98</ele>
        <time>2017-08-07T05:57:08Z</time>
      </trkpt>
      <trkpt lat="48.85918" lon="4.47833">
        <ele>90.98</ele>
        <time>2017-08-07T05:57:21Z</time>
      </trkpt>
      <trkpt lat="48.85915" lon="4.47836">
        <ele>90.98</ele>
        <time>2017-08-07T05:57:22Z</time>
      </trkpt>
      <trkpt lat="48.8584" lon="4.47899">
        <ele>90.98</ele>
        <time>2017-08-07T05:57:39Z</time>
      </trkpt>
      <trkpt lat="48.85768" lon="4.47959">
        <ele>90.98</ele>
        <time>2017-08-07T05:57:56Z</time>
      </trkpt>
      <trkpt lat="48.85688" lon="4.48022">
        <ele>91.46</ele>
        <time>2017-08-07T05:58:15Z</time>
      </trkpt>
      <trkpt lat="48.85658" lon="4.48038">
        <ele>92.9</ele>
        <time>2017-08-07T05:58:25Z</time>
      </trkpt>
      <trkpt lat="48.85655" lon="4.48036">
        <ele>93.87</ele>
        <time>2017-08-07T05:58:34Z</time>
      </trkpt>
      <trkpt lat="48.85654" lon="4.48036">
        <ele>93.87</ele>
        <time>2017-08-07T05:58:56Z</time>
      </trkpt>
      <trkpt lat="48.85654" lon="4.48037">
        <ele>93.87</ele>
        <time>2017-08-07T05:59:07Z</time>
      </trkpt>
      <trkpt lat="48.85653" lon="4.48037">
        <ele>93.87</ele>
        <time>2017-08-07T05:59:23Z</time>
      </trkpt>
      <trkpt lat="48.85652" lon="4.48035">
        <ele>93.87</ele>
        <time>2017-08-07T05:59:24Z</time>
      </trkpt>
      <trkpt lat="48.85651" lon="4.48033">
        <ele>93.87</ele>
        <time>2017-08-07T05:59:25Z</time>
      </trkpt>
      <trkpt lat="48.85625" lon="4.47974">
        <ele>93.87</ele>
        <time>2017-08-07T05:59:37Z</time>
      </trkpt>
      <trkpt lat="48.85606" lon="4.47932">
        <ele>92.42</ele>
        <time>2017-08-07T05:59:44Z</time>
      </trkpt>
      <trkpt lat="48.85602" lon="4.47929">
        <ele>92.42</ele>
        <time>2017-08-07T05:59:45Z</time>
      </trkpt>
      <trkpt lat="48.85597" lon="4.47928">
        <ele>92.42</ele>
        <time>2017-08-07T05:59:46Z</time>
      </trkpt>
      <trkpt lat="48.85592" lon="4.47927">
        <ele>91.94</ele>
        <time>2017-08-07T05:59:47Z</time>
      </trkpt>
      <trkpt lat="48.85587" lon="4.47928">
        <ele>91.94</ele>
        <time>2017-08-07T05:59:48Z</time>
      </trkpt>
      <trkpt lat="48.85582" lon="4.47931">
        <ele>91.46</ele>
        <time>2017-08-07T05:59:49Z</time>
      </trkpt>
      <trkpt lat="48.85577" lon="4.47934">
        <ele>91.46</ele>
        <time>2017-08-07T05:59:50Z</time>
      </trkpt>
      <trkpt lat="48.85573" lon="4.47939">
        <ele>90.98</ele>
        <time>2017-08-07T05:59:51Z</time>
      </trkpt>
      <trkpt lat="48.85569" lon="4.47944">
        <ele>90.98</ele>
        <time>2017-08-07T05:59:52Z</time>
      </trkpt>
      <trkpt lat="48.85565" lon="4.47949">
        <ele>90.98</ele>
        <time>2017-08-07T05:59:53Z</time>
      </trkpt>
      <trkpt lat="48.85562" lon="4.47955">
        <ele>90.98</ele>
        <time>2017-08-07T05:59:54Z</time>
      </trkpt>
      <trkpt lat="48.85559" lon="4.47961">
        <ele>90.98</ele>
        <time>2017-08-07T05:59:55Z</time>
      </trkpt>
      <trkpt lat="48.85557" lon="4.47967">
        <ele>90.98</ele>
        <time>2017-08-07T05:59:56Z</time>
      </trkpt>
      <trkpt lat="48.85555" lon="4.47974">
        <ele>90.98</ele>
        <time>2017-08-07T05:59:57Z</time>
      </trkpt>
      <trkpt lat="48.85553" lon="4.47978">
        <ele>90.98</ele>
        <time>2017-08-07T05:59:58Z</time>
      </trkpt>
      <trkpt lat="48.8555" lon="4.4798">
        <ele>90.98</ele>
        <time>2017-08-07T05:59:59Z</time>
      </trkpt>
      <trkpt lat="48.85547" lon="4.47983">
        <ele>90.5</ele>
        <time>2017-08-07T06:00:00Z</time>
      </trkpt>
      <trkpt lat="48.85542" lon="4.47985">
        <ele>90.5</ele>
        <time>2017-08-07T06:00:02Z</time>
      </trkpt>
      <trkpt lat="48.85548" lon="4.4797">
        <ele>90.5</ele>
        <time>2017-08-07T06:00:08Z</time>
      </trkpt>
      <trkpt lat="48.85548" lon="4.47966">
        <ele>90.5</ele>
        <time>2017-08-07T06:00:09Z</time>
      </trkpt>
      <trkpt lat="48.85536" lon="4.47937">
        <ele>90.5</ele>
        <time>2017-08-07T06:00:17Z</time>
      </trkpt>
      <trkpt lat="48.85521" lon="4.47938">
        <ele>90.5</ele>
        <time>2017-08-07T06:00:21Z</time>
      </trkpt>
      <trkpt lat="48.85503" lon="4.47932">
        <ele>90.5</ele>
        <time>2017-08-07T06:00:25Z</time>
      </trkpt>
      <trkpt lat="48.85457" lon="4.47885">
        <ele>90.5</ele>
        <time>2017-08-07T06:00:37Z</time>
      </trkpt>
      <trkpt lat="48.85403" lon="4.47822">
        <ele>90.02</ele>
        <time>2017-08-07T06:00:51Z</time>
      </trkpt>
      <trkpt lat="48.85366" lon="4.4778">
        <ele>90.02</ele>
        <time>2017-08-07T06:01:01Z</time>
      </trkpt>
      <trkpt lat="48.8536" lon="4.47771">
        <ele>90.02</ele>
        <time>2017-08-07T06:01:03Z</time>
      </trkpt>
      <trkpt lat="48.85334" lon="4.47746">
        <ele>90.98</ele>
        <time>2017-08-07T06:01:14Z</time>
      </trkpt>
      <trkpt lat="48.85315" lon="4.47714">
        <ele>90.98</ele>
        <time>2017-08-07T06:01:25Z</time>
      </trkpt>
      <trkpt lat="48.85267" lon="4.4766">
        <ele>90.98</ele>
        <time>2017-08-07T06:01:39Z</time>
      </trkpt>
      <trkpt lat="48.85239" lon="4.47629">
        <ele>90.98</ele>
        <time>2017-08-07T06:01:46Z</time>
      </trkpt>
      <trkpt lat="48.85227" lon="4.47619">
        <ele>90.98</ele>
        <time>2017-08-07T06:01:49Z</time>
      </trkpt>
      <trkpt lat="48.85222" lon="4.47618">
        <ele>90.98</ele>
        <time>2017-08-07T06:01:50Z</time>
      </trkpt>
      <trkpt lat="48.85217" lon="4.47617">
        <ele>90.98</ele>
        <time>2017-08-07T06:01:51Z</time>
      </trkpt>
      <trkpt lat="48.85212" lon="4.47619">
        <ele>90.98</ele>
        <time>2017-08-07T06:01:52Z</time>
      </trkpt>
      <trkpt lat="48.85207" lon="4.47621">
        <ele>90.98</ele>
        <time>2017-08-07T06:01:53Z</time>
      </trkpt>
      <trkpt lat="48.85203" lon="4.47625">
        <ele>89.54</ele>
        <time>2017-08-07T06:01:54Z</time>
      </trkpt>
      <trkpt lat="48.85198" lon="4.4763">
        <ele>89.54</ele>
        <time>2017-08-07T06:01:55Z</time>
      </trkpt>
      <trkpt lat="48.85194" lon="4.47635">
        <ele>89.54</ele>
        <time>2017-08-07T06:01:56Z</time>
      </trkpt>
      <trkpt lat="48.85141" lon="4.47693">
        <ele>89.54</ele>
        <time>2017-08-07T06:02:09Z</time>
      </trkpt>
      <trkpt lat="48.85134" lon="4.47702">
        <ele>89.54</ele>
        <time>2017-08-07T06:02:11Z</time>
      </trkpt>
      <trkpt lat="48.85069" lon="4.47772">
        <ele>89.54</ele>
        <time>2017-08-07T06:02:29Z</time>
      </trkpt>
      <trkpt lat="48.85044" lon="4.47805">
        <ele>90.5</ele>
        <time>2017-08-07T06:02:39Z</time>
      </trkpt>
      <trkpt lat="48.85043" lon="4.47808">
        <ele>90.5</ele>
        <time>2017-08-07T06:02:40Z</time>
      </trkpt>
      <trkpt lat="48.85042" lon="4.47811">
        <ele>90.5</ele>
        <time>2017-08-07T06:02:41Z</time>
      </trkpt>
      <trkpt lat="48.85041" lon="4.47812">
        <ele>90.5</ele>
        <time>2017-08-07T06:02:42Z</time>
      </trkpt>
      <trkpt lat="48.85039" lon="4.47814">
        <ele>90.5</ele>
        <time>2017-08-07T06:02:43Z</time>
      </trkpt>
      <trkpt lat="48.85037" lon="4.47816">
        <ele>90.5</ele>
        <time>2017-08-07T06:02:44Z</time>
      </trkpt>
      <trkpt lat="48.85036" lon="4.47818">
        <ele>90.5</ele>
        <time>2017-08-07T06:02:45Z</time>
      </trkpt>
      <trkpt lat="48.85036" lon="4.4782">
        <ele>90.98</ele>
        <time>2017-08-07T06:02:46Z</time>
      </trkpt>
      <trkpt lat="48.85049" lon="4.47838">
        <ele>90.98</ele>
        <time>2017-08-07T06:02:55Z</time>
      </trkpt>
      <trkpt lat="48.85054" lon="4.47835">
        <ele>90.98</ele>
        <time>2017-08-07T06:02:57Z</time>
      </trkpt>
      <trkpt lat="48.85055" lon="4.47824">
        <ele>90.98</ele>
        <time>2017-08-07T06:03:06Z</time>
      </trkpt>
      <trkpt lat="48.85055" lon="4.47825">
        <ele>90.98</ele>
        <time>2017-08-07T06:03:25Z</time>
      </trkpt>
      <trkpt lat="48.85045" lon="4.4781">
        <ele>90.98</ele>
        <time>2017-08-07T06:03:34Z</time>
      </trkpt>
      <trkpt lat="48.85043" lon="4.4781">
        <ele>90.98</ele>
        <time>2017-08-07T06:03:35Z</time>
      </trkpt>
      <trkpt lat="48.8504" lon="4.47811">
        <ele>90.98</ele>
        <time>2017-08-07T06:03:36Z</time>
      </trkpt>
      <trkpt lat="48.85037" lon="4.47812">
        <ele>90.98</ele>
        <time>2017-08-07T06:03:37Z</time>
      </trkpt>
      <trkpt lat="48.85034" lon="4.47814">
        <ele>90.98</ele>
        <time>2017-08-07T06:03:38Z</time>
      </trkpt>
      <trkpt lat="48.85001" lon="4.47844">
        <ele>90.98</ele>
        <time>2017-08-07T06:03:49Z</time>
      </trkpt>
      <trkpt lat="48.84962" lon="4.47831">
        <ele>91.46</ele>
        <time>2017-08-07T06:04:00Z</time>
      </trkpt>
      <trkpt lat="48.84917" lon="4.47793">
        <ele>90.02</ele>
        <time>2017-08-07T06:04:10Z</time>
      </trkpt>
      <trkpt lat="48.84898" lon="4.4778">
        <ele>90.02</ele>
        <time>2017-08-07T06:04:14Z</time>
      </trkpt>
      <trkpt lat="48.84893" lon="4.47778">
        <ele>90.02</ele>
        <time>2017-08-07T06:04:15Z</time>
      </trkpt>
      <trkpt lat="48.84809" lon="4.47725">
        <ele>90.02</ele>
        <time>2017-08-07T06:04:33Z</time>
      </trkpt>
      <trkpt lat="48.84741" lon="4.47678">
        <ele>90.02</ele>
        <time>2017-08-07T06:04:48Z</time>
      </trkpt>
      <trkpt lat="48.84736" lon="4.47675">
        <ele>90.02</ele>
        <time>2017-08-07T06:04:49Z</time>
      </trkpt>
      <trkpt lat="48.84708" lon="4.47662">
        <ele>90.02</ele>
        <time>2017-08-07T06:04:55Z</time>
      </trkpt>
      <trkpt lat="48.84704" lon="4.47662">
        <ele>90.02</ele>
        <time>2017-08-07T06:04:56Z</time>
      </trkpt>
      <trkpt lat="48.84699" lon="4.47661">
        <ele>90.02</ele>
        <time>2017-08-07T06:04:57Z</time>
      </trkpt>
      <trkpt lat="48.84675" lon="4.47665">
        <ele>90.02</ele>
        <time>2017-08-07T06:05:02Z</time>
      </trkpt>
      <trkpt lat="48.8467" lon="4.47668">
        <ele>90.02</ele>
        <time>2017-08-07T06:05:03Z</time>
      </trkpt>
      <trkpt lat="48.84666" lon="4.47671">
        <ele>90.02</ele>
        <time>2017-08-07T06:05:04Z</time>
      </trkpt>
      <trkpt lat="48.84662" lon="4.47675">
        <ele>90.02</ele>
        <time>2017-08-07T06:05:05Z</time>
      </trkpt>
      <trkpt lat="48.84658" lon="4.47679">
        <ele>90.02</ele>
        <time>2017-08-07T06:05:06Z</time>
      </trkpt>
      <trkpt lat="48.84654" lon="4.47683">
        <ele>90.02</ele>
        <time>2017-08-07T06:05:07Z</time>
      </trkpt>
      <trkpt lat="48.8465" lon="4.47688">
        <ele>90.02</ele>
        <time>2017-08-07T06:05:08Z</time>
      </trkpt>
      <trkpt lat="48.84613" lon="4.4776">
        <ele>90.02</ele>
        <time>2017-08-07T06:05:20Z</time>
      </trkpt>
      <trkpt lat="48.84607" lon="4.4778">
        <ele>90.02</ele>
        <time>2017-08-07T06:05:23Z</time>
      </trkpt>
      <trkpt lat="48.84599" lon="4.47807">
        <ele>90.02</ele>
        <time>2017-08-07T06:05:27Z</time>
      </trkpt>
      <trkpt lat="48.84597" lon="4.47813">
        <ele>90.02</ele>
        <time>2017-08-07T06:05:28Z</time>
      </trkpt>
      <trkpt lat="48.84591" lon="4.47826">
        <ele>90.02</ele>
        <time>2017-08-07T06:05:30Z</time>
      </trkpt>
      <trkpt lat="48.8454" lon="4.47923">
        <ele>90.02</ele>
        <time>2017-08-07T06:05:47Z</time>
      </trkpt>
      <trkpt lat="48.84527" lon="4.47951">
        <ele>90.02</ele>
        <time>2017-08-07T06:05:52Z</time>
      </trkpt>
      <trkpt lat="48.84478" lon="4.4805">
        <ele>90.02</ele>
        <time>2017-08-07T06:06:09Z</time>
      </trkpt>
      <trkpt lat="48.84459" lon="4.48117">
        <ele>90.02</ele>
        <time>2017-08-07T06:06:19Z</time>
      </trkpt>
      <trkpt lat="48.8445" lon="4.48143">
        <ele>90.02</ele>
        <time>2017-08-07T06:06:23Z</time>
      </trkpt>
      <trkpt lat="48.84448" lon="4.48151">
        <ele>90.02</ele>
        <time>2017-08-07T06:06:24Z</time>
      </trkpt>
      <trkpt lat="48.84443" lon="4.48169">
        <ele>90.02</ele>
        <time>2017-08-07T06:06:27Z</time>
      </trkpt>
      <trkpt lat="48.84442" lon="4.48176">
        <ele>90.02</ele>
        <time>2017-08-07T06:06:28Z</time>
      </trkpt>
      <trkpt lat="48.84438" lon="4.48209">
        <ele>90.02</ele>
        <time>2017-08-07T06:06:33Z</time>
      </trkpt>
      <trkpt lat="48.84438" lon="4.48242">
        <ele>90.02</ele>
        <time>2017-08-07T06:06:38Z</time>
      </trkpt>
      <trkpt lat="48.84444" lon="4.48374">
        <ele>90.02</ele>
        <time>2017-08-07T06:06:57Z</time>
      </trkpt>
      <trkpt lat="48.8445" lon="4.48443">
        <ele>90.02</ele>
        <time>2017-08-07T06:07:06Z</time>
      </trkpt>
      <trkpt lat="48.84451" lon="4.48473">
        <ele>90.02</ele>
        <time>2017-08-07T06:07:10Z</time>
      </trkpt>
      <trkpt lat="48.8445" lon="4.48481">
        <ele>90.02</ele>
        <time>2017-08-07T06:07:11Z</time>
      </trkpt>
      <trkpt lat="48.84448" lon="4.48488">
        <ele>90.02</ele>
        <time>2017-08-07T06:07:12Z</time>
      </trkpt>
      <trkpt lat="48.84447" lon="4.48495">
        <ele>90.02</ele>
        <time>2017-08-07T06:07:13Z</time>
      </trkpt>
      <trkpt lat="48.84445" lon="4.48502">
        <ele>90.02</ele>
        <time>2017-08-07T06:07:14Z</time>
      </trkpt>
      <trkpt lat="48.84442" lon="4.48509">
        <ele>90.02</ele>
        <time>2017-08-07T06:07:15Z</time>
      </trkpt>
      <trkpt lat="48.84411" lon="4.48595">
        <ele>90.02</ele>
        <time>2017-08-07T06:07:29Z</time>
      </trkpt>
      <trkpt lat="48.84397" lon="4.4871">
        <ele>90.02</ele>
        <time>2017-08-07T06:07:46Z</time>
      </trkpt>
      <trkpt lat="48.8438" lon="4.48833">
        <ele>90.02</ele>
        <time>2017-08-07T06:08:04Z</time>
      </trkpt>
      <trkpt lat="48.84356" lon="4.48955">
        <ele>90.02</ele>
        <time>2017-08-07T06:08:22Z</time>
      </trkpt>
      <trkpt lat="48.84327" lon="4.4908">
        <ele>90.98</ele>
        <time>2017-08-07T06:08:40Z</time>
      </trkpt>
      <trkpt lat="48.84291" lon="4.49197">
        <ele>90.98</ele>
        <time>2017-08-07T06:08:57Z</time>
      </trkpt>
      <trkpt lat="48.84232" lon="4.4929">
        <ele>90.98</ele>
        <time>2017-08-07T06:09:14Z</time>
      </trkpt>
      <trkpt lat="48.84167" lon="4.49396">
        <ele>90.98</ele>
        <time>2017-08-07T06:09:34Z</time>
      </trkpt>
      <trkpt lat="48.84099" lon="4.4951">
        <ele>90.98</ele>
        <time>2017-08-07T06:09:55Z</time>
      </trkpt>
      <trkpt lat="48.84029" lon="4.49623">
        <ele>90.98</ele>
        <time>2017-08-07T06:10:16Z</time>
      </trkpt>
      <trkpt lat="48.8396" lon="4.49738">
        <ele>90.98</ele>
        <time>2017-08-07T06:10:37Z</time>
      </trkpt>
      <trkpt lat="48.83897" lon="4.49843">
        <ele>91.46</ele>
        <time>2017-08-07T06:10:56Z</time>
      </trkpt>
      <trkpt lat="48.83831" lon="4.49952">
        <ele>91.46</ele>
        <time>2017-08-07T06:11:16Z</time>
      </trkpt>
      <trkpt lat="48.83756" lon="4.50061">
        <ele>91.46</ele>
        <time>2017-08-07T06:11:37Z</time>
      </trkpt>
      <trkpt lat="48.83752" lon="4.50066">
        <ele>91.46</ele>
        <time>2017-08-07T06:11:38Z</time>
      </trkpt>
      <trkpt lat="48.83748" lon="4.50071">
        <ele>91.46</ele>
        <time>2017-08-07T06:11:39Z</time>
      </trkpt>
      <trkpt lat="48.83744" lon="4.50076">
        <ele>91.46</ele>
        <time>2017-08-07T06:11:40Z</time>
      </trkpt>
      <trkpt lat="48.83663" lon="4.50162">
        <ele>91.46</ele>
        <time>2017-08-07T06:11:59Z</time>
      </trkpt>
      <trkpt lat="48.83585" lon="4.50244">
        <ele>91.46</ele>
        <time>2017-08-07T06:12:18Z</time>
      </trkpt>
      <trkpt lat="48.83523" lon="4.50309">
        <ele>91.46</ele>
        <time>2017-08-07T06:12:33Z</time>
      </trkpt>
      <trkpt lat="48.83519" lon="4.50315">
        <ele>91.46</ele>
        <time>2017-08-07T06:12:34Z</time>
      </trkpt>
      <trkpt lat="48.83511" lon="4.50324">
        <ele>91.46</ele>
        <time>2017-08-07T06:12:36Z</time>
      </trkpt>
      <trkpt lat="48.83507" lon="4.50328">
        <ele>91.46</ele>
        <time>2017-08-07T06:12:37Z</time>
      </trkpt>
      <trkpt lat="48.83503" lon="4.50332">
        <ele>91.46</ele>
        <time>2017-08-07T06:12:38Z</time>
      </trkpt>
      <trkpt lat="48.83499" lon="4.50337">
        <ele>91.46</ele>
        <time>2017-08-07T06:12:39Z</time>
      </trkpt>
      <trkpt lat="48.83496" lon="4.50341">
        <ele>91.46</ele>
        <time>2017-08-07T06:12:40Z</time>
      </trkpt>
      <trkpt lat="48.83446" lon="4.50393">
        <ele>91.46</ele>
        <time>2017-08-07T06:12:52Z</time>
      </trkpt>
      <trkpt lat="48.83425" lon="4.50408">
        <ele>91.46</ele>
        <time>2017-08-07T06:12:57Z</time>
      </trkpt>
      <trkpt lat="48.83421" lon="4.5041">
        <ele>91.46</ele>
        <time>2017-08-07T06:12:58Z</time>
      </trkpt>
      <trkpt lat="48.83368" lon="4.50439">
        <ele>91.46</ele>
        <time>2017-08-07T06:13:09Z</time>
      </trkpt>
      <trkpt lat="48.83334" lon="4.50464">
        <ele>91.46</ele>
        <time>2017-08-07T06:13:20Z</time>
      </trkpt>
      <trkpt lat="48.83333" lon="4.50463">
        <ele>91.94</ele>
        <time>2017-08-07T06:13:21Z</time>
      </trkpt>
      <trkpt lat="48.83331" lon="4.50462">
        <ele>91.94</ele>
        <time>2017-08-07T06:13:22Z</time>
      </trkpt>
      <trkpt lat="48.83329" lon="4.50462">
        <ele>91.94</ele>
        <time>2017-08-07T06:13:23Z</time>
      </trkpt>
      <trkpt lat="48.83328" lon="4.50463">
        <ele>91.94</ele>
        <time>2017-08-07T06:13:24Z</time>
      </trkpt>
      <trkpt lat="48.83327" lon="4.50466">
        <ele>92.42</ele>
        <time>2017-08-07T06:13:25Z</time>
      </trkpt>
      <trkpt lat="48.83327" lon="4.5047">
        <ele>92.42</ele>
        <time>2017-08-07T06:13:26Z</time>
      </trkpt>
      <trkpt lat="48.83329" lon="4.50474">
        <ele>92.42</ele>
        <time>2017-08-07T06:13:27Z</time>
      </trkpt>
      <trkpt lat="48.8333" lon="4.50477">
        <ele>92.42</ele>
        <time>2017-08-07T06:13:28Z</time>
      </trkpt>
      <trkpt lat="48.8337" lon="4.50548">
        <ele>92.42</ele>
        <time>2017-08-07T06:13:43Z</time>
      </trkpt>
      <trkpt lat="48.83392" lon="4.5059">
        <ele>92.42</ele>
        <time>2017-08-07T06:13:51Z</time>
      </trkpt>
      <trkpt lat="48.83436" lon="4.50705">
        <ele>92.42</ele>
        <time>2017-08-07T06:14:09Z</time>
      </trkpt>
      <trkpt lat="48.83447" lon="4.50756">
        <ele>92.42</ele>
        <time>2017-08-07T06:14:17Z</time>
      </trkpt>
      <trkpt lat="48.8346" lon="4.50832">
        <ele>92.42</ele>
        <time>2017-08-07T06:14:31Z</time>
      </trkpt>
      <trkpt lat="48.83473" lon="4.50907">
        <ele>92.9</ele>
        <time>2017-08-07T06:14:45Z</time>
      </trkpt>
      <trkpt lat="48.83475" lon="4.50914">
        <ele>92.9</ele>
        <time>2017-08-07T06:14:47Z</time>
      </trkpt>
      <trkpt lat="48.83476" lon="4.50914">
        <ele>92.9</ele>
        <time>2017-08-07T06:14:48Z</time>
      </trkpt>
      <trkpt lat="48.83477" lon="4.50912">
        <ele>92.9</ele>
        <time>2017-08-07T06:14:49Z</time>
      </trkpt>
      <trkpt lat="48.83477" lon="4.50909">
        <ele>92.9</ele>
        <time>2017-08-07T06:14:50Z</time>
      </trkpt>
      <trkpt lat="48.83476" lon="4.50907">
        <ele>92.9</ele>
        <time>2017-08-07T06:14:51Z</time>
      </trkpt>
      <trkpt lat="48.83475" lon="4.50904">
        <ele>92.9</ele>
        <time>2017-08-07T06:14:52Z</time>
      </trkpt>
      <trkpt lat="48.83475" lon="4.509">
        <ele>92.9</ele>
        <time>2017-08-07T06:14:53Z</time>
      </trkpt>
      <trkpt lat="48.83475" lon="4.50897">
        <ele>92.9</ele>
        <time>2017-08-07T06:14:54Z</time>
      </trkpt>
      <trkpt lat="48.83474" lon="4.50893">
        <ele>92.9</ele>
        <time>2017-08-07T06:14:55Z</time>
      </trkpt>
      <trkpt lat="48.83474" lon="4.5089">
        <ele>92.9</ele>
        <time>2017-08-07T06:14:56Z</time>
      </trkpt>
      <trkpt lat="48.83475" lon="4.50887">
        <ele>92.9</ele>
        <time>2017-08-07T06:14:57Z</time>
      </trkpt>
      <trkpt lat="48.83479" lon="4.50888">
        <ele>92.9</ele>
        <time>2017-08-07T06:15:05Z</time>
      </trkpt>
      <trkpt lat="48.83476" lon="4.50888">
        <ele>92.9</ele>
        <time>2017-08-07T06:15:29Z</time>
      </trkpt>
      <trkpt lat="48.83472" lon="4.50884">
        <ele>92.9</ele>
        <time>2017-08-07T06:15:33Z</time>
      </trkpt>
      <trkpt lat="48.8347" lon="4.50886">
        <ele>92.9</ele>
        <time>2017-08-07T06:15:34Z</time>
      </trkpt>
      <trkpt lat="48.83469" lon="4.5089">
        <ele>92.9</ele>
        <time>2017-08-07T06:15:35Z</time>
      </trkpt>
      <trkpt lat="48.8347" lon="4.50894">
        <ele>92.9</ele>
        <time>2017-08-07T06:15:36Z</time>
      </trkpt>
      <trkpt lat="48.83471" lon="4.50898">
        <ele>92.9</ele>
        <time>2017-08-07T06:15:37Z</time>
      </trkpt>
      <trkpt lat="48.83483" lon="4.50967">
        <ele>94.35</ele>
        <time>2017-08-07T06:15:53Z</time>
      </trkpt>
      <trkpt lat="48.83494" lon="4.5103">
        <ele>95.31</ele>
        <time>2017-08-07T06:16:07Z</time>
      </trkpt>
      <trkpt lat="48.83511" lon="4.51126">
        <ele>95.79</ele>
        <time>2017-08-07T06:16:25Z</time>
      </trkpt>
      <trkpt lat="48.83524" lon="4.51189">
        <ele>94.35</ele>
        <time>2017-08-07T06:16:36Z</time>
      </trkpt>
      <trkpt lat="48.83527" lon="4.51193">
        <ele>94.35</ele>
        <time>2017-08-07T06:16:37Z</time>
      </trkpt>
      <trkpt lat="48.83532" lon="4.51193">
        <ele>94.35</ele>
        <time>2017-08-07T06:16:38Z</time>
      </trkpt>
      <trkpt lat="48.83535" lon="4.51191">
        <ele>94.35</ele>
        <time>2017-08-07T06:16:39Z</time>
      </trkpt>
      <trkpt lat="48.83537" lon="4.51189">
        <ele>94.35</ele>
        <time>2017-08-07T06:16:40Z</time>
      </trkpt>
      <trkpt lat="48.8354" lon="4.51188">
        <ele>94.35</ele>
        <time>2017-08-07T06:16:41Z</time>
      </trkpt>
      <trkpt lat="48.83543" lon="4.51188">
        <ele>94.35</ele>
        <time>2017-08-07T06:16:42Z</time>
      </trkpt>
      <trkpt lat="48.83556" lon="4.51187">
        <ele>95.31</ele>
        <time>2017-08-07T06:16:49Z</time>
      </trkpt>
      <trkpt lat="48.83557" lon="4.51187">
        <ele>95.79</ele>
        <time>2017-08-07T06:17:03Z</time>
      </trkpt>
      <trkpt lat="48.83557" lon="4.51187">
        <ele>95.79</ele>
        <time>2017-08-07T06:17:48Z</time>
      </trkpt>
      <trkpt lat="48.83558" lon="4.51188">
        <ele>95.79</ele>
        <time>2017-08-07T06:18:19Z</time>
      </trkpt>
      <trkpt lat="48.83557" lon="4.51188">
        <ele>95.79</ele>
        <time>2017-08-07T06:18:50Z</time>
      </trkpt>
      <trkpt lat="48.83556" lon="4.51188">
        <ele>95.79</ele>
        <time>2017-08-07T06:19:25Z</time>
      </trkpt>
      <trkpt lat="48.83555" lon="4.51188">
        <ele>96.27</ele>
        <time>2017-08-07T06:19:59Z</time>
      </trkpt>
      <trkpt lat="48.83554" lon="4.51187">
        <ele>96.27</ele>
        <time>2017-08-07T06:20:35Z</time>
      </trkpt>
      <trkpt lat="48.83551" lon="4.51188">
        <ele>96.27</ele>
        <time>2017-08-07T06:20:58Z</time>
      </trkpt>
      <trkpt lat="48.83549" lon="4.51188">
        <ele>96.27</ele>
        <time>2017-08-07T06:21:00Z</time>
      </trkpt>
      <trkpt lat="48.83546" lon="4.51188">
        <ele>95.31</ele>
        <time>2017-08-07T06:21:01Z</time>
      </trkpt>
      <trkpt lat="48.83544" lon="4.51188">
        <ele>95.31</ele>
        <time>2017-08-07T06:21:02Z</time>
      </trkpt>
      <trkpt lat="48.83542" lon="4.51187">
        <ele>95.31</ele>
        <time>2017-08-07T06:21:03Z</time>
      </trkpt>
      <trkpt lat="48.8354" lon="4.51185">
        <ele>95.31</ele>
        <time>2017-08-07T06:21:04Z</time>
      </trkpt>
      <trkpt lat="48.83538" lon="4.51183">
        <ele>95.31</ele>
        <time>2017-08-07T06:21:05Z</time>
      </trkpt>
      <trkpt lat="48.83536" lon="4.51182">
        <ele>95.31</ele>
        <time>2017-08-07T06:21:06Z</time>
      </trkpt>
      <trkpt lat="48.83533" lon="4.51183">
        <ele>95.31</ele>
        <time>2017-08-07T06:21:07Z</time>
      </trkpt>
      <trkpt lat="48.83532" lon="4.51186">
        <ele>95.31</ele>
        <time>2017-08-07T06:21:08Z</time>
      </trkpt>
      <trkpt lat="48.8353" lon="4.51188">
        <ele>94.83</ele>
        <time>2017-08-07T06:21:09Z</time>
      </trkpt>
      <trkpt lat="48.83528" lon="4.51192">
        <ele>94.83</ele>
        <time>2017-08-07T06:21:10Z</time>
      </trkpt>
      <trkpt lat="48.83525" lon="4.51196">
        <ele>94.83</ele>
        <time>2017-08-07T06:21:11Z</time>
      </trkpt>
      <trkpt lat="48.83523" lon="4.51199">
        <ele>94.83</ele>
        <time>2017-08-07T06:21:12Z</time>
      </trkpt>
      <trkpt lat="48.8352" lon="4.51203">
        <ele>94.35</ele>
        <time>2017-08-07T06:21:13Z</time>
      </trkpt>
      <trkpt lat="48.83517" lon="4.51209">
        <ele>93.87</ele>
        <time>2017-08-07T06:21:14Z</time>
      </trkpt>
      <trkpt lat="48.83491" lon="4.51274">
        <ele>92.42</ele>
        <time>2017-08-07T06:21:24Z</time>
      </trkpt>
      <trkpt lat="48.83488" lon="4.51281">
        <ele>92.42</ele>
        <time>2017-08-07T06:21:25Z</time>
      </trkpt>
      <trkpt lat="48.83467" lon="4.51344">
        <ele>93.39</ele>
        <time>2017-08-07T06:21:38Z</time>
      </trkpt>
      <trkpt lat="48.83447" lon="4.51405">
        <ele>94.35</ele>
        <time>2017-08-07T06:21:52Z</time>
      </trkpt>
      <trkpt lat="48.83431" lon="4.51479">
        <ele>95.31</ele>
        <time>2017-08-07T06:22:06Z</time>
      </trkpt>
      <trkpt lat="48.83435" lon="4.51598">
        <ele>95.79</ele>
        <time>2017-08-07T06:22:26Z</time>
      </trkpt>
      <trkpt lat="48.83442" lon="4.51654">
        <ele>96.27</ele>
        <time>2017-08-07T06:22:35Z</time>
      </trkpt>
      <trkpt lat="48.83443" lon="4.5166">
        <ele>96.27</ele>
        <time>2017-08-07T06:22:36Z</time>
      </trkpt>
      <trkpt lat="48.83455" lon="4.51761">
        <ele>97.23</ele>
        <time>2017-08-07T06:22:53Z</time>
      </trkpt>
      <trkpt lat="48.8344" lon="4.51824">
        <ele>97.71</ele>
        <time>2017-08-07T06:23:07Z</time>
      </trkpt>
      <trkpt lat="48.8342" lon="4.5186">
        <ele>97.71</ele>
        <time>2017-08-07T06:23:18Z</time>
      </trkpt>
      <trkpt lat="48.83399" lon="4.51858">
        <ele>96.27</ele>
        <time>2017-08-07T06:23:24Z</time>
      </trkpt>
      <trkpt lat="48.83312" lon="4.51844">
        <ele>94.83</ele>
        <time>2017-08-07T06:23:41Z</time>
      </trkpt>
      <trkpt lat="48.83211" lon="4.5184">
        <ele>94.35</ele>
        <time>2017-08-07T06:24:00Z</time>
      </trkpt>
      <trkpt lat="48.83137" lon="4.5189">
        <ele>93.87</ele>
        <time>2017-08-07T06:24:16Z</time>
      </trkpt>
      <trkpt lat="48.83061" lon="4.51945">
        <ele>95.31</ele>
        <time>2017-08-07T06:24:34Z</time>
      </trkpt>
      <trkpt lat="48.83032" lon="4.51981">
        <ele>95.79</ele>
        <time>2017-08-07T06:24:43Z</time>
      </trkpt>
      <trkpt lat="48.83029" lon="4.51986">
        <ele>95.79</ele>
        <time>2017-08-07T06:24:44Z</time>
      </trkpt>
      <trkpt lat="48.83009" lon="4.52095">
        <ele>95.79</ele>
        <time>2017-08-07T06:25:00Z</time>
      </trkpt>
      <trkpt lat="48.82998" lon="4.52216">
        <ele>96.75</ele>
        <time>2017-08-07T06:25:17Z</time>
      </trkpt>
      <trkpt lat="48.82987" lon="4.5229">
        <ele>98.19</ele>
        <time>2017-08-07T06:25:31Z</time>
      </trkpt>
      <trkpt lat="48.82988" lon="4.52291">
        <ele>98.67</ele>
        <time>2017-08-07T06:25:32Z</time>
      </trkpt>
      <trkpt lat="48.8299" lon="4.52291">
        <ele>98.67</ele>
        <time>2017-08-07T06:25:33Z</time>
      </trkpt>
      <trkpt lat="48.82991" lon="4.52291">
        <ele>98.67</ele>
        <time>2017-08-07T06:25:34Z</time>
      </trkpt>
      <trkpt lat="48.82992" lon="4.52291">
        <ele>98.67</ele>
        <time>2017-08-07T06:25:35Z</time>
      </trkpt>
      <trkpt lat="48.82993" lon="4.52293">
        <ele>98.67</ele>
        <time>2017-08-07T06:25:36Z</time>
      </trkpt>
      <trkpt lat="48.82994" lon="4.52296">
        <ele>98.67</ele>
        <time>2017-08-07T06:25:37Z</time>
      </trkpt>
      <trkpt lat="48.82995" lon="4.52301">
        <ele>98.67</ele>
        <time>2017-08-07T06:25:38Z</time>
      </trkpt>
      <trkpt lat="48.82995" lon="4.52307">
        <ele>97.23</ele>
        <time>2017-08-07T06:25:39Z</time>
      </trkpt>
      <trkpt lat="48.82995" lon="4.52313">
        <ele>96.75</ele>
        <time>2017-08-07T06:25:40Z</time>
      </trkpt>
      <trkpt lat="48.82995" lon="4.52322">
        <ele>96.75</ele>
        <time>2017-08-07T06:25:41Z</time>
      </trkpt>
      <trkpt lat="48.82993" lon="4.52451">
        <ele>93.87</ele>
        <time>2017-08-07T06:25:54Z</time>
      </trkpt>
      <trkpt lat="48.82989" lon="4.52529">
        <ele>93.87</ele>
        <time>2017-08-07T06:26:03Z</time>
      </trkpt>
      <trkpt lat="48.82987" lon="4.52536">
        <ele>93.87</ele>
        <time>2017-08-07T06:26:04Z</time>
      </trkpt>
      <trkpt lat="48.82968" lon="4.5259">
        <ele>93.87</ele>
        <time>2017-08-07T06:26:11Z</time>
      </trkpt>
      <trkpt lat="48.82966" lon="4.52597">
        <ele>93.87</ele>
        <time>2017-08-07T06:26:12Z</time>
      </trkpt>
      <trkpt lat="48.82965" lon="4.52605">
        <ele>93.87</ele>
        <time>2017-08-07T06:26:13Z</time>
      </trkpt>
      <trkpt lat="48.82963" lon="4.52613">
        <ele>93.87</ele>
        <time>2017-08-07T06:26:14Z</time>
      </trkpt>
      <trkpt lat="48.82961" lon="4.52619">
        <ele>93.39</ele>
        <time>2017-08-07T06:26:15Z</time>
      </trkpt>
      <trkpt lat="48.82958" lon="4.52626">
        <ele>93.39</ele>
        <time>2017-08-07T06:26:16Z</time>
      </trkpt>
      <trkpt lat="48.82946" lon="4.52656">
        <ele>93.39</ele>
        <time>2017-08-07T06:26:21Z</time>
      </trkpt>
      <trkpt lat="48.82942" lon="4.52661">
        <ele>93.39</ele>
        <time>2017-08-07T06:26:22Z</time>
      </trkpt>
      <trkpt lat="48.82939" lon="4.52666">
        <ele>93.39</ele>
        <time>2017-08-07T06:26:23Z</time>
      </trkpt>
      <trkpt lat="48.82935" lon="4.5267">
        <ele>93.39</ele>
        <time>2017-08-07T06:26:24Z</time>
      </trkpt>
      <trkpt lat="48.82931" lon="4.52674">
        <ele>93.39</ele>
        <time>2017-08-07T06:26:25Z</time>
      </trkpt>
      <trkpt lat="48.82927" lon="4.52678">
        <ele>93.39</ele>
        <time>2017-08-07T06:26:26Z</time>
      </trkpt>
      <trkpt lat="48.82923" lon="4.52682">
        <ele>93.39</ele>
        <time>2017-08-07T06:26:27Z</time>
      </trkpt>
      <trkpt lat="48.8292" lon="4.52685">
        <ele>93.39</ele>
        <time>2017-08-07T06:26:28Z</time>
      </trkpt>
      <trkpt lat="48.82915" lon="4.52688">
        <ele>93.39</ele>
        <time>2017-08-07T06:26:29Z</time>
      </trkpt>
      <trkpt lat="48.82912" lon="4.5269">
        <ele>93.39</ele>
        <time>2017-08-07T06:26:30Z</time>
      </trkpt>
      <trkpt lat="48.82908" lon="4.52693">
        <ele>93.39</ele>
        <time>2017-08-07T06:26:31Z</time>
      </trkpt>
      <trkpt lat="48.82904" lon="4.52697">
        <ele>93.39</ele>
        <time>2017-08-07T06:26:32Z</time>
      </trkpt>
      <trkpt lat="48.82894" lon="4.52709">
        <ele>94.35</ele>
        <time>2017-08-07T06:26:35Z</time>
      </trkpt>
      <trkpt lat="48.82891" lon="4.52715">
        <ele>94.35</ele>
        <time>2017-08-07T06:26:36Z</time>
      </trkpt>
      <trkpt lat="48.82889" lon="4.5272">
        <ele>94.35</ele>
        <time>2017-08-07T06:26:37Z</time>
      </trkpt>
      <trkpt lat="48.8287" lon="4.5276">
        <ele>94.35</ele>
        <time>2017-08-07T06:26:44Z</time>
      </trkpt>
      <trkpt lat="48.82835" lon="4.52857">
        <ele>94.35</ele>
        <time>2017-08-07T06:27:01Z</time>
      </trkpt>
      <trkpt lat="48.82811" lon="4.52965">
        <ele>95.31</ele>
        <time>2017-08-07T06:27:18Z</time>
      </trkpt>
      <trkpt lat="48.82789" lon="4.53098">
        <ele>95.31</ele>
        <time>2017-08-07T06:27:38Z</time>
      </trkpt>
      <trkpt lat="48.82778" lon="4.53216">
        <ele>96.27</ele>
        <time>2017-08-07T06:27:56Z</time>
      </trkpt>
      <trkpt lat="48.82778" lon="4.53221">
        <ele>96.27</ele>
        <time>2017-08-07T06:27:57Z</time>
      </trkpt>
      <trkpt lat="48.82778" lon="4.53227">
        <ele>96.27</ele>
        <time>2017-08-07T06:27:58Z</time>
      </trkpt>
      <trkpt lat="48.82775" lon="4.53328">
        <ele>96.75</ele>
        <time>2017-08-07T06:28:15Z</time>
      </trkpt>
      <trkpt lat="48.82773" lon="4.53434">
        <ele>98.19</ele>
        <time>2017-08-07T06:28:33Z</time>
      </trkpt>
      <trkpt lat="48.82766" lon="4.53538">
        <ele>98.67</ele>
        <time>2017-08-07T06:28:50Z</time>
      </trkpt>
      <trkpt lat="48.82758" lon="4.53594">
        <ele>99.15</ele>
        <time>2017-08-07T06:29:00Z</time>
      </trkpt>
      <trkpt lat="48.82757" lon="4.53599">
        <ele>99.15</ele>
        <time>2017-08-07T06:29:01Z</time>
      </trkpt>
      <trkpt lat="48.82707" lon="4.53684">
        <ele>99.15</ele>
        <time>2017-08-07T06:29:18Z</time>
      </trkpt>
      <trkpt lat="48.82697" lon="4.53698">
        <ele>99.15</ele>
        <time>2017-08-07T06:29:21Z</time>
      </trkpt>
      <trkpt lat="48.82695" lon="4.53703">
        <ele>99.15</ele>
        <time>2017-08-07T06:29:22Z</time>
      </trkpt>
      <trkpt lat="48.82693" lon="4.5371">
        <ele>99.15</ele>
        <time>2017-08-07T06:29:23Z</time>
      </trkpt>
      <trkpt lat="48.82693" lon="4.53716">
        <ele>99.15</ele>
        <time>2017-08-07T06:29:24Z</time>
      </trkpt>
      <trkpt lat="48.82692" lon="4.53723">
        <ele>99.15</ele>
        <time>2017-08-07T06:29:25Z</time>
      </trkpt>
      <trkpt lat="48.82693" lon="4.53729">
        <ele>99.15</ele>
        <time>2017-08-07T06:29:26Z</time>
      </trkpt>
      <trkpt lat="48.82698" lon="4.53788">
        <ele>99.63</ele>
        <time>2017-08-07T06:29:35Z</time>
      </trkpt>
      <trkpt lat="48.82697" lon="4.53795">
        <ele>99.63</ele>
        <time>2017-08-07T06:29:36Z</time>
      </trkpt>
      <trkpt lat="48.82696" lon="4.53801">
        <ele>99.63</ele>
        <time>2017-08-07T06:29:37Z</time>
      </trkpt>
      <trkpt lat="48.82694" lon="4.53806">
        <ele>100.11</ele>
        <time>2017-08-07T06:29:38Z</time>
      </trkpt>
      <trkpt lat="48.82693" lon="4.53812">
        <ele>100.11</ele>
        <time>2017-08-07T06:29:39Z</time>
      </trkpt>
      <trkpt lat="48.82691" lon="4.53817">
        <ele>100.11</ele>
        <time>2017-08-07T06:29:40Z</time>
      </trkpt>
      <trkpt lat="48.8269" lon="4.53821">
        <ele>100.6</ele>
        <time>2017-08-07T06:29:41Z</time>
      </trkpt>
      <trkpt lat="48.82688" lon="4.53824">
        <ele>100.6</ele>
        <time>2017-08-07T06:29:42Z</time>
      </trkpt>
      <trkpt lat="48.82686" lon="4.53828">
        <ele>101.08</ele>
        <time>2017-08-07T06:29:43Z</time>
      </trkpt>
      <trkpt lat="48.82683" lon="4.53831">
        <ele>101.08</ele>
        <time>2017-08-07T06:29:44Z</time>
      </trkpt>
      <trkpt lat="48.82652" lon="4.53846">
        <ele>103.96</ele>
        <time>2017-08-07T06:29:57Z</time>
      </trkpt>
      <trkpt lat="48.82621" lon="4.53862">
        <ele>106.84</ele>
        <time>2017-08-07T06:30:12Z</time>
      </trkpt>
      <trkpt lat="48.82604" lon="4.53906">
        <ele>107.32</ele>
        <time>2017-08-07T06:30:26Z</time>
      </trkpt>
      <trkpt lat="48.82582" lon="4.53985">
        <ele>105.4</ele>
        <time>2017-08-07T06:30:37Z</time>
      </trkpt>
      <trkpt lat="48.82545" lon="4.54114">
        <ele>103.96</ele>
        <time>2017-08-07T06:30:52Z</time>
      </trkpt>
      <trkpt lat="48.82506" lon="4.54249">
        <ele>101.08</ele>
        <time>2017-08-07T06:31:07Z</time>
      </trkpt>
      <trkpt lat="48.82459" lon="4.54421">
        <ele>100.11</ele>
        <time>2017-08-07T06:31:26Z</time>
      </trkpt>
      <trkpt lat="48.82456" lon="4.54429">
        <ele>100.11</ele>
        <time>2017-08-07T06:31:27Z</time>
      </trkpt>
      <trkpt lat="48.82454" lon="4.54437">
        <ele>100.11</ele>
        <time>2017-08-07T06:31:28Z</time>
      </trkpt>
      <trkpt lat="48.82422" lon="4.54565">
        <ele>99.63</ele>
        <time>2017-08-07T06:31:44Z</time>
      </trkpt>
      <trkpt lat="48.82418" lon="4.54578">
        <ele>99.63</ele>
        <time>2017-08-07T06:31:46Z</time>
      </trkpt>
      <trkpt lat="48.8238" lon="4.54677">
        <ele>99.15</ele>
        <time>2017-08-07T06:32:02Z</time>
      </trkpt>
      <trkpt lat="48.82329" lon="4.54784">
        <ele>98.67</ele>
        <time>2017-08-07T06:32:20Z</time>
      </trkpt>
      <trkpt lat="48.82301" lon="4.5487">
        <ele>98.67</ele>
        <time>2017-08-07T06:32:36Z</time>
      </trkpt>
      <trkpt lat="48.82286" lon="4.54978">
        <ele>98.67</ele>
        <time>2017-08-07T06:32:53Z</time>
      </trkpt>
      <trkpt lat="48.82273" lon="4.55023">
        <ele>98.67</ele>
        <time>2017-08-07T06:33:01Z</time>
      </trkpt>
      <trkpt lat="48.8227" lon="4.55028">
        <ele>98.67</ele>
        <time>2017-08-07T06:33:02Z</time>
      </trkpt>
      <trkpt lat="48.82267" lon="4.55033">
        <ele>98.67</ele>
        <time>2017-08-07T06:33:03Z</time>
      </trkpt>
      <trkpt lat="48.82255" lon="4.55055">
        <ele>98.67</ele>
        <time>2017-08-07T06:33:07Z</time>
      </trkpt>
      <trkpt lat="48.82213" lon="4.55143">
        <ele>98.67</ele>
        <time>2017-08-07T06:33:23Z</time>
      </trkpt>
      <trkpt lat="48.82167" lon="4.55258">
        <ele>98.67</ele>
        <time>2017-08-07T06:33:42Z</time>
      </trkpt>
      <trkpt lat="48.82158" lon="4.5528">
        <ele>99.63</ele>
        <time>2017-08-07T06:33:46Z</time>
      </trkpt>
      <trkpt lat="48.82156" lon="4.55286">
        <ele>99.63</ele>
        <time>2017-08-07T06:33:47Z</time>
      </trkpt>
      <trkpt lat="48.82154" lon="4.55293">
        <ele>99.63</ele>
        <time>2017-08-07T06:33:48Z</time>
      </trkpt>
      <trkpt lat="48.82137" lon="4.55333">
        <ele>100.11</ele>
        <time>2017-08-07T06:33:55Z</time>
      </trkpt>
      <trkpt lat="48.82132" lon="4.55344">
        <ele>100.11</ele>
        <time>2017-08-07T06:33:57Z</time>
      </trkpt>
      <trkpt lat="48.82085" lon="4.5546">
        <ele>100.11</ele>
        <time>2017-08-07T06:34:16Z</time>
      </trkpt>
      <trkpt lat="48.82031" lon="4.5559">
        <ele>100.6</ele>
        <time>2017-08-07T06:34:39Z</time>
      </trkpt>
      <trkpt lat="48.82" lon="4.55665">
        <ele>101.56</ele>
        <time>2017-08-07T06:34:54Z</time>
      </trkpt>
      <trkpt lat="48.81969" lon="4.5575">
        <ele>103</ele>
        <time>2017-08-07T06:35:12Z</time>
      </trkpt>
      <trkpt lat="48.81935" lon="4.55861">
        <ele>104.92</ele>
        <time>2017-08-07T06:35:35Z</time>
      </trkpt>
      <trkpt lat="48.81918" lon="4.55979">
        <ele>104.92</ele>
        <time>2017-08-07T06:35:53Z</time>
      </trkpt>
      <trkpt lat="48.81921" lon="4.56023">
        <ele>103.48</ele>
        <time>2017-08-07T06:36:01Z</time>
      </trkpt>
      <trkpt lat="48.81921" lon="4.56027">
        <ele>103.48</ele>
        <time>2017-08-07T06:36:02Z</time>
      </trkpt>
      <trkpt lat="48.8192" lon="4.56032">
        <ele>103.48</ele>
        <time>2017-08-07T06:36:03Z</time>
      </trkpt>
      <trkpt lat="48.81902" lon="4.56129">
        <ele>102.52</ele>
        <time>2017-08-07T06:36:17Z</time>
      </trkpt>
      <trkpt lat="48.81883" lon="4.56233">
        <ele>103.96</ele>
        <time>2017-08-07T06:36:34Z</time>
      </trkpt>
      <trkpt lat="48.81854" lon="4.56301">
        <ele>105.88</ele>
        <time>2017-08-07T06:36:50Z</time>
      </trkpt>
      <trkpt lat="48.81829" lon="4.56383">
        <ele>107.32</ele>
        <time>2017-08-07T06:37:06Z</time>
      </trkpt>
      <trkpt lat="48.81824" lon="4.56422">
        <ele>107.32</ele>
        <time>2017-08-07T06:37:12Z</time>
      </trkpt>
      <trkpt lat="48.81823" lon="4.56474">
        <ele>105.88</ele>
        <time>2017-08-07T06:37:19Z</time>
      </trkpt>
      <trkpt lat="48.81822" lon="4.56489">
        <ele>105.4</ele>
        <time>2017-08-07T06:37:21Z</time>
      </trkpt>
      <trkpt lat="48.81819" lon="4.5651">
        <ele>105.4</ele>
        <time>2017-08-07T06:37:24Z</time>
      </trkpt>
      <trkpt lat="48.8181" lon="4.56592">
        <ele>105.4</ele>
        <time>2017-08-07T06:37:40Z</time>
      </trkpt>
      <trkpt lat="48.818" lon="4.56644">
        <ele>105.4</ele>
        <time>2017-08-07T06:37:54Z</time>
      </trkpt>
      <trkpt lat="48.81791" lon="4.56707">
        <ele>106.84</ele>
        <time>2017-08-07T06:38:09Z</time>
      </trkpt>
      <trkpt lat="48.8177" lon="4.56807">
        <ele>107.32</ele>
        <time>2017-08-07T06:38:26Z</time>
      </trkpt>
      <trkpt lat="48.81736" lon="4.56922">
        <ele>107.32</ele>
        <time>2017-08-07T06:38:45Z</time>
      </trkpt>
      <trkpt lat="48.8171" lon="4.57009">
        <ele>109.25</ele>
        <time>2017-08-07T06:39:03Z</time>
      </trkpt>
      <trkpt lat="48.81682" lon="4.57099">
        <ele>110.69</ele>
        <time>2017-08-07T06:39:22Z</time>
      </trkpt>
      <trkpt lat="48.81656" lon="4.57185">
        <ele>112.61</ele>
        <time>2017-08-07T06:39:41Z</time>
      </trkpt>
      <trkpt lat="48.81629" lon="4.57273">
        <ele>113.09</ele>
        <time>2017-08-07T06:39:59Z</time>
      </trkpt>
      <trkpt lat="48.816" lon="4.5737">
        <ele>111.17</ele>
        <time>2017-08-07T06:40:14Z</time>
      </trkpt>
      <trkpt lat="48.81591" lon="4.57399">
        <ele>109.73</ele>
        <time>2017-08-07T06:40:17Z</time>
      </trkpt>
      <trkpt lat="48.81549" lon="4.57538">
        <ele>107.81</ele>
        <time>2017-08-07T06:40:31Z</time>
      </trkpt>
      <trkpt lat="48.81528" lon="4.57603">
        <ele>107.81</ele>
        <time>2017-08-07T06:40:40Z</time>
      </trkpt>
      <trkpt lat="48.81526" lon="4.57608">
        <ele>107.81</ele>
        <time>2017-08-07T06:40:41Z</time>
      </trkpt>
      <trkpt lat="48.81524" lon="4.57613">
        <ele>107.81</ele>
        <time>2017-08-07T06:40:42Z</time>
      </trkpt>
      <trkpt lat="48.81523" lon="4.57619">
        <ele>107.81</ele>
        <time>2017-08-07T06:40:43Z</time>
      </trkpt>
      <trkpt lat="48.81523" lon="4.57624">
        <ele>107.81</ele>
        <time>2017-08-07T06:40:44Z</time>
      </trkpt>
      <trkpt lat="48.81524" lon="4.5763">
        <ele>107.81</ele>
        <time>2017-08-07T06:40:45Z</time>
      </trkpt>
      <trkpt lat="48.81527" lon="4.57635">
        <ele>108.77</ele>
        <time>2017-08-07T06:40:46Z</time>
      </trkpt>
      <trkpt lat="48.8153" lon="4.57639">
        <ele>108.77</ele>
        <time>2017-08-07T06:40:47Z</time>
      </trkpt>
      <trkpt lat="48.81533" lon="4.57642">
        <ele>108.77</ele>
        <time>2017-08-07T06:40:48Z</time>
      </trkpt>
      <trkpt lat="48.81537" lon="4.57646">
        <ele>108.77</ele>
        <time>2017-08-07T06:40:49Z</time>
      </trkpt>
      <trkpt lat="48.81541" lon="4.5765">
        <ele>108.77</ele>
        <time>2017-08-07T06:40:50Z</time>
      </trkpt>
      <trkpt lat="48.81569" lon="4.57679">
        <ele>107.32</ele>
        <time>2017-08-07T06:40:57Z</time>
      </trkpt>
      <trkpt lat="48.81642" lon="4.57755">
        <ele>105.88</ele>
        <time>2017-08-07T06:41:13Z</time>
      </trkpt>
      <trkpt lat="48.81724" lon="4.57842">
        <ele>104.44</ele>
        <time>2017-08-07T06:41:31Z</time>
      </trkpt>
      <trkpt lat="48.81728" lon="4.57846">
        <ele>104.44</ele>
        <time>2017-08-07T06:41:32Z</time>
      </trkpt>
      <trkpt lat="48.81732" lon="4.57853">
        <ele>104.44</ele>
        <time>2017-08-07T06:41:33Z</time>
      </trkpt>
      <trkpt lat="48.81733" lon="4.57859">
        <ele>104.44</ele>
        <time>2017-08-07T06:41:34Z</time>
      </trkpt>
      <trkpt lat="48.81733" lon="4.57866">
        <ele>104.44</ele>
        <time>2017-08-07T06:41:35Z</time>
      </trkpt>
      <trkpt lat="48.81731" lon="4.57873">
        <ele>104.44</ele>
        <time>2017-08-07T06:41:36Z</time>
      </trkpt>
      <trkpt lat="48.8173" lon="4.57878">
        <ele>104.44</ele>
        <time>2017-08-07T06:41:37Z</time>
      </trkpt>
      <trkpt lat="48.81728" lon="4.57884">
        <ele>104.44</ele>
        <time>2017-08-07T06:41:38Z</time>
      </trkpt>
      <trkpt lat="48.81725" lon="4.5789">
        <ele>104.44</ele>
        <time>2017-08-07T06:41:39Z</time>
      </trkpt>
      <trkpt lat="48.81681" lon="4.57996">
        <ele>104.44</ele>
        <time>2017-08-07T06:41:55Z</time>
      </trkpt>
      <trkpt lat="48.81665" lon="4.58036">
        <ele>104.44</ele>
        <time>2017-08-07T06:42:01Z</time>
      </trkpt>
      <trkpt lat="48.81633" lon="4.58119">
        <ele>104.44</ele>
        <time>2017-08-07T06:42:14Z</time>
      </trkpt>
      <trkpt lat="48.8159" lon="4.5826">
        <ele>105.4</ele>
        <time>2017-08-07T06:42:35Z</time>
      </trkpt>
      <trkpt lat="48.81551" lon="4.5839">
        <ele>105.88</ele>
        <time>2017-08-07T06:42:55Z</time>
      </trkpt>
      <trkpt lat="48.81514" lon="4.58508">
        <ele>105.88</ele>
        <time>2017-08-07T06:43:13Z</time>
      </trkpt>
      <trkpt lat="48.81463" lon="4.58652">
        <ele>105.88</ele>
        <time>2017-08-07T06:43:34Z</time>
      </trkpt>
      <trkpt lat="48.81426" lon="4.58774">
        <ele>105.88</ele>
        <time>2017-08-07T06:43:52Z</time>
      </trkpt>
      <trkpt lat="48.81399" lon="4.58877">
        <ele>106.36</ele>
        <time>2017-08-07T06:44:08Z</time>
      </trkpt>
      <trkpt lat="48.81386" lon="4.58907">
        <ele>105.88</ele>
        <time>2017-08-07T06:44:13Z</time>
      </trkpt>
      <trkpt lat="48.81365" lon="4.58945">
        <ele>105.88</ele>
        <time>2017-08-07T06:44:20Z</time>
      </trkpt>
      <trkpt lat="48.81345" lon="4.58978">
        <ele>105.88</ele>
        <time>2017-08-07T06:44:26Z</time>
      </trkpt>
      <trkpt lat="48.81341" lon="4.58981">
        <ele>105.88</ele>
        <time>2017-08-07T06:44:27Z</time>
      </trkpt>
      <trkpt lat="48.81337" lon="4.58984">
        <ele>105.88</ele>
        <time>2017-08-07T06:44:28Z</time>
      </trkpt>
      <trkpt lat="48.81333" lon="4.58985">
        <ele>105.88</ele>
        <time>2017-08-07T06:44:29Z</time>
      </trkpt>
      <trkpt lat="48.81328" lon="4.58985">
        <ele>105.88</ele>
        <time>2017-08-07T06:44:30Z</time>
      </trkpt>
      <trkpt lat="48.81324" lon="4.58985">
        <ele>105.88</ele>
        <time>2017-08-07T06:44:31Z</time>
      </trkpt>
      <trkpt lat="48.8132" lon="4.58986">
        <ele>105.88</ele>
        <time>2017-08-07T06:44:32Z</time>
      </trkpt>
      <trkpt lat="48.81315" lon="4.58987">
        <ele>105.88</ele>
        <time>2017-08-07T06:44:33Z</time>
      </trkpt>
      <trkpt lat="48.81311" lon="4.58989">
        <ele>105.88</ele>
        <time>2017-08-07T06:44:34Z</time>
      </trkpt>
      <trkpt lat="48.81307" lon="4.58991">
        <ele>105.88</ele>
        <time>2017-08-07T06:44:35Z</time>
      </trkpt>
      <trkpt lat="48.81293" lon="4.59005">
        <ele>105.88</ele>
        <time>2017-08-07T06:44:39Z</time>
      </trkpt>
      <trkpt lat="48.81276" lon="4.59026">
        <ele>105.88</ele>
        <time>2017-08-07T06:44:44Z</time>
      </trkpt>
      <trkpt lat="48.81273" lon="4.59031">
        <ele>105.88</ele>
        <time>2017-08-07T06:44:45Z</time>
      </trkpt>
      <trkpt lat="48.81265" lon="4.59047">
        <ele>105.88</ele>
        <time>2017-08-07T06:44:48Z</time>
      </trkpt>
      <trkpt lat="48.81231" lon="4.59139">
        <ele>105.88</ele>
        <time>2017-08-07T06:45:03Z</time>
      </trkpt>
      <trkpt lat="48.81215" lon="4.59184">
        <ele>105.88</ele>
        <time>2017-08-07T06:45:10Z</time>
      </trkpt>
      <trkpt lat="48.81165" lon="4.59261">
        <ele>106.36</ele>
        <time>2017-08-07T06:45:25Z</time>
      </trkpt>
      <trkpt lat="48.81123" lon="4.59337">
        <ele>106.84</ele>
        <time>2017-08-07T06:45:39Z</time>
      </trkpt>
      <trkpt lat="48.81111" lon="4.59384">
        <ele>107.32</ele>
        <time>2017-08-07T06:45:46Z</time>
      </trkpt>
      <trkpt lat="48.81081" lon="4.5953">
        <ele>107.32</ele>
        <time>2017-08-07T06:46:06Z</time>
      </trkpt>
      <trkpt lat="48.81057" lon="4.59608">
        <ele>107.32</ele>
        <time>2017-08-07T06:46:17Z</time>
      </trkpt>
      <trkpt lat="48.81056" lon="4.59615">
        <ele>107.32</ele>
        <time>2017-08-07T06:46:18Z</time>
      </trkpt>
      <trkpt lat="48.81054" lon="4.59643">
        <ele>107.32</ele>
        <time>2017-08-07T06:46:22Z</time>
      </trkpt>
      <trkpt lat="48.81051" lon="4.59756">
        <ele>108.29</ele>
        <time>2017-08-07T06:46:39Z</time>
      </trkpt>
      <trkpt lat="48.81027" lon="4.5979">
        <ele>108.77</ele>
        <time>2017-08-07T06:46:50Z</time>
      </trkpt>
      <trkpt lat="48.81025" lon="4.59793">
        <ele>108.77</ele>
        <time>2017-08-07T06:46:51Z</time>
      </trkpt>
      <trkpt lat="48.81023" lon="4.59797">
        <ele>108.77</ele>
        <time>2017-08-07T06:46:52Z</time>
      </trkpt>
      <trkpt lat="48.81023" lon="4.59801">
        <ele>108.77</ele>
        <time>2017-08-07T06:46:53Z</time>
      </trkpt>
      <trkpt lat="48.81008" lon="4.59884">
        <ele>108.77</ele>
        <time>2017-08-07T06:47:07Z</time>
      </trkpt>
      <trkpt lat="48.81006" lon="4.59896">
        <ele>109.25</ele>
        <time>2017-08-07T06:47:09Z</time>
      </trkpt>
      <trkpt lat="48.80986" lon="4.59997">
        <ele>109.73</ele>
        <time>2017-08-07T06:47:26Z</time>
      </trkpt>
      <trkpt lat="48.80961" lon="4.60123">
        <ele>110.69</ele>
        <time>2017-08-07T06:47:46Z</time>
      </trkpt>
      <trkpt lat="48.80938" lon="4.60217">
        <ele>112.61</ele>
        <time>2017-08-07T06:48:03Z</time>
      </trkpt>
      <trkpt lat="48.80906" lon="4.60281">
        <ele>115.01</ele>
        <time>2017-08-07T06:48:19Z</time>
      </trkpt>
      <trkpt lat="48.80897" lon="4.6029">
        <ele>115.5</ele>
        <time>2017-08-07T06:48:22Z</time>
      </trkpt>
      <trkpt lat="48.80894" lon="4.6029">
        <ele>115.5</ele>
        <time>2017-08-07T06:48:23Z</time>
      </trkpt>
      <trkpt lat="48.8089" lon="4.60287">
        <ele>115.01</ele>
        <time>2017-08-07T06:48:24Z</time>
      </trkpt>
      <trkpt lat="48.80888" lon="4.60284">
        <ele>115.5</ele>
        <time>2017-08-07T06:48:25Z</time>
      </trkpt>
      <trkpt lat="48.80885" lon="4.6028">
        <ele>115.01</ele>
        <time>2017-08-07T06:48:26Z</time>
      </trkpt>
      <trkpt lat="48.80883" lon="4.60277">
        <ele>115.5</ele>
        <time>2017-08-07T06:48:27Z</time>
      </trkpt>
      <trkpt lat="48.80846" lon="4.60225">
        <ele>116.94</ele>
        <time>2017-08-07T06:48:43Z</time>
      </trkpt>
      <trkpt lat="48.80804" lon="4.60171">
        <ele>118.38</ele>
        <time>2017-08-07T06:49:01Z</time>
      </trkpt>
      <trkpt lat="48.80774" lon="4.60151">
        <ele>116.94</ele>
        <time>2017-08-07T06:49:10Z</time>
      </trkpt>
      <trkpt lat="48.8077" lon="4.60154">
        <ele>116.94</ele>
        <time>2017-08-07T06:49:11Z</time>
      </trkpt>
      <trkpt lat="48.80767" lon="4.60158">
        <ele>116.94</ele>
        <time>2017-08-07T06:49:12Z</time>
      </trkpt>
      <trkpt lat="48.80764" lon="4.60163">
        <ele>116.46</ele>
        <time>2017-08-07T06:49:13Z</time>
      </trkpt>
      <trkpt lat="48.80761" lon="4.60169">
        <ele>115.98</ele>
        <time>2017-08-07T06:49:14Z</time>
      </trkpt>
      <trkpt lat="48.80758" lon="4.60177">
        <ele>115.98</ele>
        <time>2017-08-07T06:49:15Z</time>
      </trkpt>
      <trkpt lat="48.80755" lon="4.60185">
        <ele>115.5</ele>
        <time>2017-08-07T06:49:16Z</time>
      </trkpt>
      <trkpt lat="48.8073" lon="4.6031">
        <ele>113.57</ele>
        <time>2017-08-07T06:49:30Z</time>
      </trkpt>
      <trkpt lat="48.80718" lon="4.60421">
        <ele>113.09</ele>
        <time>2017-08-07T06:49:43Z</time>
      </trkpt>
      <trkpt lat="48.80717" lon="4.60435">
        <ele>114.53</ele>
        <time>2017-08-07T06:49:45Z</time>
      </trkpt>
      <trkpt lat="48.80708" lon="4.6051">
        <ele>114.53</ele>
        <time>2017-08-07T06:49:57Z</time>
      </trkpt>
      <trkpt lat="48.80705" lon="4.60586">
        <ele>115.98</ele>
        <time>2017-08-07T06:50:09Z</time>
      </trkpt>
      <trkpt lat="48.80704" lon="4.60614">
        <ele>115.98</ele>
        <time>2017-08-07T06:50:13Z</time>
      </trkpt>
      <trkpt lat="48.80698" lon="4.60651">
        <ele>115.98</ele>
        <time>2017-08-07T06:50:18Z</time>
      </trkpt>
      <trkpt lat="48.80696" lon="4.60658">
        <ele>115.98</ele>
        <time>2017-08-07T06:50:19Z</time>
      </trkpt>
      <trkpt lat="48.80694" lon="4.60664">
        <ele>115.98</ele>
        <time>2017-08-07T06:50:20Z</time>
      </trkpt>
      <trkpt lat="48.80681" lon="4.60683">
        <ele>116.94</ele>
        <time>2017-08-07T06:50:26Z</time>
      </trkpt>
      <trkpt lat="48.80679" lon="4.60682">
        <ele>117.42</ele>
        <time>2017-08-07T06:50:27Z</time>
      </trkpt>
      <trkpt lat="48.80677" lon="4.6068">
        <ele>117.42</ele>
        <time>2017-08-07T06:50:28Z</time>
      </trkpt>
      <trkpt lat="48.80676" lon="4.60678">
        <ele>117.42</ele>
        <time>2017-08-07T06:50:29Z</time>
      </trkpt>
      <trkpt lat="48.80674" lon="4.60678">
        <ele>118.38</ele>
        <time>2017-08-07T06:50:30Z</time>
      </trkpt>
      <trkpt lat="48.80672" lon="4.60678">
        <ele>118.86</ele>
        <time>2017-08-07T06:50:34Z</time>
      </trkpt>
      <trkpt lat="48.80669" lon="4.60687">
        <ele>119.82</ele>
        <time>2017-08-07T06:50:47Z</time>
      </trkpt>
      <trkpt lat="48.80668" lon="4.60684">
        <ele>119.82</ele>
        <time>2017-08-07T06:51:14Z</time>
      </trkpt>
      <trkpt lat="48.8067" lon="4.60686">
        <ele>119.82</ele>
        <time>2017-08-07T06:51:28Z</time>
      </trkpt>
      <trkpt lat="48.80669" lon="4.60688">
        <ele>119.82</ele>
        <time>2017-08-07T06:51:42Z</time>
      </trkpt>
      <trkpt lat="48.80667" lon="4.60689">
        <ele>119.82</ele>
        <time>2017-08-07T06:52:17Z</time>
      </trkpt>
      <trkpt lat="48.80672" lon="4.60681">
        <ele>119.82</ele>
        <time>2017-08-07T06:53:00Z</time>
      </trkpt>
      <trkpt lat="48.80673" lon="4.60685">
        <ele>119.82</ele>
        <time>2017-08-07T06:53:35Z</time>
      </trkpt>
      <trkpt lat="48.80674" lon="4.60684">
        <ele>119.82</ele>
        <time>2017-08-07T06:54:04Z</time>
      </trkpt>
      <trkpt lat="48.80675" lon="4.60688">
        <ele>120.3</ele>
        <time>2017-08-07T06:54:29Z</time>
      </trkpt>
      <trkpt lat="48.80675" lon="4.60685">
        <ele>120.3</ele>
        <time>2017-08-07T06:54:59Z</time>
      </trkpt>
      <trkpt lat="48.80673" lon="4.60684">
        <ele>120.3</ele>
        <time>2017-08-07T06:55:35Z</time>
      </trkpt>
      <trkpt lat="48.80675" lon="4.60682">
        <ele>120.3</ele>
        <time>2017-08-07T06:56:15Z</time>
      </trkpt>
      <trkpt lat="48.80676" lon="4.60684">
        <ele>120.3</ele>
        <time>2017-08-07T06:56:31Z</time>
      </trkpt>
      <trkpt lat="48.80672" lon="4.60685">
        <ele>120.3</ele>
        <time>2017-08-07T06:56:57Z</time>
      </trkpt>
      <trkpt lat="48.80669" lon="4.60689">
        <ele>120.3</ele>
        <time>2017-08-07T06:57:31Z</time>
      </trkpt>
      <trkpt lat="48.80671" lon="4.60687">
        <ele>120.3</ele>
        <time>2017-08-07T06:58:04Z</time>
      </trkpt>
      <trkpt lat="48.80672" lon="4.60678">
        <ele>120.3</ele>
        <time>2017-08-07T06:58:42Z</time>
      </trkpt>
      <trkpt lat="48.80671" lon="4.60682">
        <ele>120.3</ele>
        <time>2017-08-07T06:59:15Z</time>
      </trkpt>
      <trkpt lat="48.80668" lon="4.60681">
        <ele>120.78</ele>
        <time>2017-08-07T06:59:52Z</time>
      </trkpt>
      <trkpt lat="48.80669" lon="4.60688">
        <ele>120.78</ele>
        <time>2017-08-07T07:00:29Z</time>
      </trkpt>
      <trkpt lat="48.80667" lon="4.60681">
        <ele>120.78</ele>
        <time>2017-08-07T07:01:03Z</time>
      </trkpt>
      <trkpt lat="48.8067" lon="4.60683">
        <ele>120.78</ele>
        <time>2017-08-07T07:01:35Z</time>
      </trkpt>
      <trkpt lat="48.80671" lon="4.60685">
        <ele>120.78</ele>
        <time>2017-08-07T07:02:13Z</time>
      </trkpt>
      <trkpt lat="48.80668" lon="4.60686">
        <ele>120.78</ele>
        <time>2017-08-07T07:02:44Z</time>
      </trkpt>
      <trkpt lat="48.80672" lon="4.60684">
        <ele>120.78</ele>
        <time>2017-08-07T07:03:19Z</time>
      </trkpt>
      <trkpt lat="48.80671" lon="4.60683">
        <ele>120.78</ele>
        <time>2017-08-07T07:03:55Z</time>
      </trkpt>
      <trkpt lat="48.8067" lon="4.60686">
        <ele>120.78</ele>
        <time>2017-08-07T07:04:21Z</time>
      </trkpt>
      <trkpt lat="48.8067" lon="4.60685">
        <ele>121.26</ele>
        <time>2017-08-07T07:04:55Z</time>
      </trkpt>
      <trkpt lat="48.80668" lon="4.60684">
        <ele>121.26</ele>
        <time>2017-08-07T07:05:27Z</time>
      </trkpt>
      <trkpt lat="48.80669" lon="4.60684">
        <ele>121.26</ele>
        <time>2017-08-07T07:06:07Z</time>
      </trkpt>
      <trkpt lat="48.80672" lon="4.60685">
        <ele>121.26</ele>
        <time>2017-08-07T07:06:38Z</time>
      </trkpt>
      <trkpt lat="48.8067" lon="4.60686">
        <ele>121.26</ele>
        <time>2017-08-07T07:07:14Z</time>
      </trkpt>
      <trkpt lat="48.8067" lon="4.60685">
        <ele>121.26</ele>
        <time>2017-08-07T07:07:38Z</time>
      </trkpt>
      <trkpt lat="48.80671" lon="4.60685">
        <ele>121.26</ele>
        <time>2017-08-07T07:08:10Z</time>
      </trkpt>
      <trkpt lat="48.80669" lon="4.60688">
        <ele>121.26</ele>
        <time>2017-08-07T07:08:51Z</time>
      </trkpt>
      <trkpt lat="48.80667" lon="4.60684">
        <ele>121.26</ele>
        <time>2017-08-07T07:09:24Z</time>
      </trkpt>
      <trkpt lat="48.80671" lon="4.60684">
        <ele>121.26</ele>
        <time>2017-08-07T07:09:53Z</time>
      </trkpt>
      <trkpt lat="48.80669" lon="4.60682">
        <ele>121.26</ele>
        <time>2017-08-07T07:10:23Z</time>
      </trkpt>
      <trkpt lat="48.80671" lon="4.60685">
        <ele>121.26</ele>
        <time>2017-08-07T07:10:56Z</time>
      </trkpt>
      <trkpt lat="48.80669" lon="4.60688">
        <ele>121.26</ele>
        <time>2017-08-07T07:11:20Z</time>
      </trkpt>
      <trkpt lat="48.80669" lon="4.60683">
        <ele>121.26</ele>
        <time>2017-08-07T07:11:35Z</time>
      </trkpt>
      <trkpt lat="48.8067" lon="4.60682">
        <ele>121.26</ele>
        <time>2017-08-07T07:11:36Z</time>
      </trkpt>
      <trkpt lat="48.80671" lon="4.6068">
        <ele>121.26</ele>
        <time>2017-08-07T07:11:37Z</time>
      </trkpt>
      <trkpt lat="48.80673" lon="4.60678">
        <ele>121.26</ele>
        <time>2017-08-07T07:11:38Z</time>
      </trkpt>
      <trkpt lat="48.80677" lon="4.60678">
        <ele>119.82</ele>
        <time>2017-08-07T07:11:39Z</time>
      </trkpt>
      <trkpt lat="48.8068" lon="4.6068">
        <ele>119.82</ele>
        <time>2017-08-07T07:11:40Z</time>
      </trkpt>
      <trkpt lat="48.80681" lon="4.60682">
        <ele>118.86</ele>
        <time>2017-08-07T07:11:41Z</time>
      </trkpt>
      <trkpt lat="48.80683" lon="4.60685">
        <ele>118.86</ele>
        <time>2017-08-07T07:11:42Z</time>
      </trkpt>
      <trkpt lat="48.80684" lon="4.60693">
        <ele>118.38</ele>
        <time>2017-08-07T07:11:44Z</time>
      </trkpt>
      <trkpt lat="48.80682" lon="4.60698">
        <ele>117.9</ele>
        <time>2017-08-07T07:11:45Z</time>
      </trkpt>
      <trkpt lat="48.80681" lon="4.60702">
        <ele>117.9</ele>
        <time>2017-08-07T07:11:46Z</time>
      </trkpt>
      <trkpt lat="48.80678" lon="4.60706">
        <ele>117.9</ele>
        <time>2017-08-07T07:11:47Z</time>
      </trkpt>
      <trkpt lat="48.80676" lon="4.6071">
        <ele>117.42</ele>
        <time>2017-08-07T07:11:48Z</time>
      </trkpt>
      <trkpt lat="48.80644" lon="4.60745">
        <ele>118.86</ele>
        <time>2017-08-07T07:12:00Z</time>
      </trkpt>
      <trkpt lat="48.80596" lon="4.60749">
        <ele>121.26</ele>
        <time>2017-08-07T07:12:18Z</time>
      </trkpt>
      <trkpt lat="48.80553" lon="4.60733">
        <ele>123.19</ele>
        <time>2017-08-07T07:12:34Z</time>
      </trkpt>
      <trkpt lat="48.80501" lon="4.60713">
        <ele>123.67</ele>
        <time>2017-08-07T07:12:50Z</time>
      </trkpt>
      <trkpt lat="48.8045" lon="4.60692">
        <ele>123.67</ele>
        <time>2017-08-07T07:13:02Z</time>
      </trkpt>
      <trkpt lat="48.80425" lon="4.60689">
        <ele>123.67</ele>
        <time>2017-08-07T07:13:08Z</time>
      </trkpt>
      <trkpt lat="48.8042" lon="4.60689">
        <ele>122.71</ele>
        <time>2017-08-07T07:13:09Z</time>
      </trkpt>
      <trkpt lat="48.80409" lon="4.60692">
        <ele>121.74</ele>
        <time>2017-08-07T07:13:11Z</time>
      </trkpt>
      <trkpt lat="48.80404" lon="4.60692">
        <ele>121.74</ele>
        <time>2017-08-07T07:13:12Z</time>
      </trkpt>
      <trkpt lat="48.80314" lon="4.6072">
        <ele>119.34</ele>
        <time>2017-08-07T07:13:27Z</time>
      </trkpt>
      <trkpt lat="48.80253" lon="4.60761">
        <ele>117.9</ele>
        <time>2017-08-07T07:13:38Z</time>
      </trkpt>
      <trkpt lat="48.80248" lon="4.60766">
        <ele>117.9</ele>
        <time>2017-08-07T07:13:39Z</time>
      </trkpt>
      <trkpt lat="48.80192" lon="4.60839">
        <ele>117.9</ele>
        <time>2017-08-07T07:13:53Z</time>
      </trkpt>
      <trkpt lat="48.80186" lon="4.60851">
        <ele>117.9</ele>
        <time>2017-08-07T07:13:55Z</time>
      </trkpt>
      <trkpt lat="48.80183" lon="4.60857">
        <ele>117.9</ele>
        <time>2017-08-07T07:13:56Z</time>
      </trkpt>
      <trkpt lat="48.80181" lon="4.60864">
        <ele>117.9</ele>
        <time>2017-08-07T07:13:57Z</time>
      </trkpt>
      <trkpt lat="48.80141" lon="4.60953">
        <ele>117.9</ele>
        <time>2017-08-07T07:14:11Z</time>
      </trkpt>
      <trkpt lat="48.80077" lon="4.6102">
        <ele>117.9</ele>
        <time>2017-08-07T07:14:27Z</time>
      </trkpt>
      <trkpt lat="48.80013" lon="4.61075">
        <ele>119.82</ele>
        <time>2017-08-07T07:14:46Z</time>
      </trkpt>
      <trkpt lat="48.79964" lon="4.61117">
        <ele>121.74</ele>
        <time>2017-08-07T07:15:04Z</time>
      </trkpt>
      <trkpt lat="48.79915" lon="4.61156">
        <ele>123.19</ele>
        <time>2017-08-07T07:15:22Z</time>
      </trkpt>
      <trkpt lat="48.79911" lon="4.61159">
        <ele>123.19</ele>
        <time>2017-08-07T07:15:23Z</time>
      </trkpt>
      <trkpt lat="48.79893" lon="4.61174">
        <ele>121.74</ele>
        <time>2017-08-07T07:15:27Z</time>
      </trkpt>
      <trkpt lat="48.79811" lon="4.61238">
        <ele>119.82</ele>
        <time>2017-08-07T07:15:44Z</time>
      </trkpt>
      <trkpt lat="48.79803" lon="4.61245">
        <ele>119.82</ele>
        <time>2017-08-07T07:15:46Z</time>
      </trkpt>
      <trkpt lat="48.79733" lon="4.61299">
        <ele>119.82</ele>
        <time>2017-08-07T07:16:02Z</time>
      </trkpt>
      <trkpt lat="48.7973" lon="4.61304">
        <ele>119.82</ele>
        <time>2017-08-07T07:16:03Z</time>
      </trkpt>
      <trkpt lat="48.79729" lon="4.6131">
        <ele>119.82</ele>
        <time>2017-08-07T07:16:04Z</time>
      </trkpt>
      <trkpt lat="48.79729" lon="4.61317">
        <ele>119.82</ele>
        <time>2017-08-07T07:16:05Z</time>
      </trkpt>
      <trkpt lat="48.79731" lon="4.61324">
        <ele>119.82</ele>
        <time>2017-08-07T07:16:06Z</time>
      </trkpt>
      <trkpt lat="48.79733" lon="4.6133">
        <ele>119.82</ele>
        <time>2017-08-07T07:16:07Z</time>
      </trkpt>
      <trkpt lat="48.79736" lon="4.61335">
        <ele>119.82</ele>
        <time>2017-08-07T07:16:08Z</time>
      </trkpt>
      <trkpt lat="48.79739" lon="4.6134">
        <ele>119.82</ele>
        <time>2017-08-07T07:16:09Z</time>
      </trkpt>
      <trkpt lat="48.79742" lon="4.61347">
        <ele>119.82</ele>
        <time>2017-08-07T07:16:10Z</time>
      </trkpt>
      <trkpt lat="48.79743" lon="4.61353">
        <ele>119.34</ele>
        <time>2017-08-07T07:16:11Z</time>
      </trkpt>
      <trkpt lat="48.79743" lon="4.6136">
        <ele>119.34</ele>
        <time>2017-08-07T07:16:12Z</time>
      </trkpt>
      <trkpt lat="48.79741" lon="4.61367">
        <ele>119.34</ele>
        <time>2017-08-07T07:16:13Z</time>
      </trkpt>
      <trkpt lat="48.79738" lon="4.61374">
        <ele>119.34</ele>
        <time>2017-08-07T07:16:14Z</time>
      </trkpt>
      <trkpt lat="48.79735" lon="4.61378">
        <ele>119.34</ele>
        <time>2017-08-07T07:16:15Z</time>
      </trkpt>
      <trkpt lat="48.79682" lon="4.61453">
        <ele>120.78</ele>
        <time>2017-08-07T07:16:33Z</time>
      </trkpt>
      <trkpt lat="48.7963" lon="4.61516">
        <ele>120.3</ele>
        <time>2017-08-07T07:16:49Z</time>
      </trkpt>
      <trkpt lat="48.79584" lon="4.61578">
        <ele>121.74</ele>
        <time>2017-08-07T07:17:05Z</time>
      </trkpt>
      <trkpt lat="48.79556" lon="4.61621">
        <ele>122.71</ele>
        <time>2017-08-07T07:17:18Z</time>
      </trkpt>
      <trkpt lat="48.79532" lon="4.61665">
        <ele>124.63</ele>
        <time>2017-08-07T07:17:32Z</time>
      </trkpt>
      <trkpt lat="48.79515" lon="4.61703">
        <ele>127.03</ele>
        <time>2017-08-07T07:17:46Z</time>
      </trkpt>
      <trkpt lat="48.79498" lon="4.61737">
        <ele>128.95</ele>
        <time>2017-08-07T07:18:00Z</time>
      </trkpt>
      <trkpt lat="48.79471" lon="4.61786">
        <ele>127.99</ele>
        <time>2017-08-07T07:18:15Z</time>
      </trkpt>
      <trkpt lat="48.79469" lon="4.61793">
        <ele>127.99</ele>
        <time>2017-08-07T07:18:16Z</time>
      </trkpt>
      <trkpt lat="48.79466" lon="4.61801">
        <ele>127.03</ele>
        <time>2017-08-07T07:18:17Z</time>
      </trkpt>
      <trkpt lat="48.7946" lon="4.61826">
        <ele>126.07</ele>
        <time>2017-08-07T07:18:20Z</time>
      </trkpt>
      <trkpt lat="48.79459" lon="4.61836">
        <ele>125.59</ele>
        <time>2017-08-07T07:18:21Z</time>
      </trkpt>
      <trkpt lat="48.79454" lon="4.61883">
        <ele>125.11</ele>
        <time>2017-08-07T07:18:26Z</time>
      </trkpt>
      <trkpt lat="48.79451" lon="4.61891">
        <ele>125.11</ele>
        <time>2017-08-07T07:18:27Z</time>
      </trkpt>
      <trkpt lat="48.79448" lon="4.61898">
        <ele>124.63</ele>
        <time>2017-08-07T07:18:28Z</time>
      </trkpt>
      <trkpt lat="48.79445" lon="4.61904">
        <ele>124.63</ele>
        <time>2017-08-07T07:18:29Z</time>
      </trkpt>
      <trkpt lat="48.79441" lon="4.61909">
        <ele>124.63</ele>
        <time>2017-08-07T07:18:30Z</time>
      </trkpt>
      <trkpt lat="48.79437" lon="4.61911">
        <ele>124.63</ele>
        <time>2017-08-07T07:18:31Z</time>
      </trkpt>
      <trkpt lat="48.79435" lon="4.61911">
        <ele>126.07</ele>
        <time>2017-08-07T07:18:32Z</time>
      </trkpt>
      <trkpt lat="48.79433" lon="4.61909">
        <ele>126.07</ele>
        <time>2017-08-07T07:18:33Z</time>
      </trkpt>
      <trkpt lat="48.79432" lon="4.61906">
        <ele>126.07</ele>
        <time>2017-08-07T07:18:34Z</time>
      </trkpt>
      <trkpt lat="48.79413" lon="4.61887">
        <ele>127.51</ele>
        <time>2017-08-07T07:18:46Z</time>
      </trkpt>
      <trkpt lat="48.79386" lon="4.61904">
        <ele>129.43</ele>
        <time>2017-08-07T07:19:02Z</time>
      </trkpt>
      <trkpt lat="48.79346" lon="4.61952">
        <ele>128.47</ele>
        <time>2017-08-07T07:19:17Z</time>
      </trkpt>
      <trkpt lat="48.79336" lon="4.61963">
        <ele>127.51</ele>
        <time>2017-08-07T07:19:19Z</time>
      </trkpt>
      <trkpt lat="48.79276" lon="4.62028">
        <ele>124.15</ele>
        <time>2017-08-07T07:19:30Z</time>
      </trkpt>
      <trkpt lat="48.79226" lon="4.62078">
        <ele>122.22</ele>
        <time>2017-08-07T07:19:39Z</time>
      </trkpt>
      <trkpt lat="48.79221" lon="4.6208">
        <ele>122.22</ele>
        <time>2017-08-07T07:19:40Z</time>
      </trkpt>
      <trkpt lat="48.79214" lon="4.6208">
        <ele>122.71</ele>
        <time>2017-08-07T07:19:41Z</time>
      </trkpt>
      <trkpt lat="48.7921" lon="4.62077">
        <ele>122.22</ele>
        <time>2017-08-07T07:19:42Z</time>
      </trkpt>
      <trkpt lat="48.79206" lon="4.62073">
        <ele>122.22</ele>
        <time>2017-08-07T07:19:43Z</time>
      </trkpt>
      <trkpt lat="48.79203" lon="4.62067">
        <ele>122.22</ele>
        <time>2017-08-07T07:19:44Z</time>
      </trkpt>
      <trkpt lat="48.79199" lon="4.62061">
        <ele>123.67</ele>
        <time>2017-08-07T07:19:45Z</time>
      </trkpt>
      <trkpt lat="48.79158" lon="4.62004">
        <ele>124.15</ele>
        <time>2017-08-07T07:19:56Z</time>
      </trkpt>
      <trkpt lat="48.791" lon="4.6192">
        <ele>125.11</ele>
        <time>2017-08-07T07:20:13Z</time>
      </trkpt>
      <trkpt lat="48.79043" lon="4.61816">
        <ele>126.07</ele>
        <time>2017-08-07T07:20:33Z</time>
      </trkpt>
      <trkpt lat="48.78981" lon="4.61744">
        <ele>127.51</ele>
        <time>2017-08-07T07:20:52Z</time>
      </trkpt>
      <trkpt lat="48.78906" lon="4.61696">
        <ele>128.95</ele>
        <time>2017-08-07T07:21:12Z</time>
      </trkpt>
      <trkpt lat="48.78855" lon="4.61689">
        <ele>130.4</ele>
        <time>2017-08-07T07:21:27Z</time>
      </trkpt>
      <trkpt lat="48.7881" lon="4.61686">
        <ele>131.84</ele>
        <time>2017-08-07T07:21:43Z</time>
      </trkpt>
      <trkpt lat="48.78757" lon="4.61691">
        <ele>133.28</ele>
        <time>2017-08-07T07:22:02Z</time>
      </trkpt>
      <trkpt lat="48.78711" lon="4.617">
        <ele>133.76</ele>
        <time>2017-08-07T07:22:16Z</time>
      </trkpt>
      <trkpt lat="48.78628" lon="4.61722">
        <ele>133.76</ele>
        <time>2017-08-07T07:22:36Z</time>
      </trkpt>
      <trkpt lat="48.78576" lon="4.61738">
        <ele>133.28</ele>
        <time>2017-08-07T07:22:50Z</time>
      </trkpt>
      <trkpt lat="48.78546" lon="4.61744">
        <ele>132.32</ele>
        <time>2017-08-07T07:22:56Z</time>
      </trkpt>
      <trkpt lat="48.7846" lon="4.61751">
        <ele>129.92</ele>
        <time>2017-08-07T07:23:11Z</time>
      </trkpt>
      <trkpt lat="48.78377" lon="4.61754">
        <ele>128.95</ele>
        <time>2017-08-07T07:23:27Z</time>
      </trkpt>
      <trkpt lat="48.7829" lon="4.61752">
        <ele>127.03</ele>
        <time>2017-08-07T07:23:42Z</time>
      </trkpt>
      <trkpt lat="48.78256" lon="4.61743">
        <ele>127.03</ele>
        <time>2017-08-07T07:23:48Z</time>
      </trkpt>
      <trkpt lat="48.78251" lon="4.61742">
        <ele>127.03</ele>
        <time>2017-08-07T07:23:49Z</time>
      </trkpt>
      <trkpt lat="48.7823" lon="4.61743">
        <ele>127.03</ele>
        <time>2017-08-07T07:23:53Z</time>
      </trkpt>
      <trkpt lat="48.78225" lon="4.61744">
        <ele>127.03</ele>
        <time>2017-08-07T07:23:54Z</time>
      </trkpt>
      <trkpt lat="48.78206" lon="4.6175">
        <ele>127.03</ele>
        <time>2017-08-07T07:23:58Z</time>
      </trkpt>
      <trkpt lat="48.78202" lon="4.61752">
        <ele>127.03</ele>
        <time>2017-08-07T07:23:59Z</time>
      </trkpt>
      <trkpt lat="48.78185" lon="4.61757">
        <ele>127.03</ele>
        <time>2017-08-07T07:24:03Z</time>
      </trkpt>
      <trkpt lat="48.78129" lon="4.61778">
        <ele>129.43</ele>
        <time>2017-08-07T07:24:18Z</time>
      </trkpt>
      <trkpt lat="48.78084" lon="4.61802">
        <ele>130.88</ele>
        <time>2017-08-07T07:24:33Z</time>
      </trkpt>
      <trkpt lat="48.78052" lon="4.6182">
        <ele>132.32</ele>
        <time>2017-08-07T07:24:47Z</time>
      </trkpt>
      <trkpt lat="48.7802" lon="4.61841">
        <ele>134.24</ele>
        <time>2017-08-07T07:25:04Z</time>
      </trkpt>
      <trkpt lat="48.77989" lon="4.61867">
        <ele>136.16</ele>
        <time>2017-08-07T07:25:21Z</time>
      </trkpt>
      <trkpt lat="48.77959" lon="4.61893">
        <ele>134.72</ele>
        <time>2017-08-07T07:25:31Z</time>
      </trkpt>
      <trkpt lat="48.77906" lon="4.61937">
        <ele>131.36</ele>
        <time>2017-08-07T07:25:40Z</time>
      </trkpt>
      <trkpt lat="48.77794" lon="4.62027">
        <ele>128.95</ele>
        <time>2017-08-07T07:25:58Z</time>
      </trkpt>
      <trkpt lat="48.77714" lon="4.62093">
        <ele>128.95</ele>
        <time>2017-08-07T07:26:14Z</time>
      </trkpt>
      <trkpt lat="48.77665" lon="4.62136">
        <ele>130.4</ele>
        <time>2017-08-07T07:26:28Z</time>
      </trkpt>
      <trkpt lat="48.77662" lon="4.62138">
        <ele>130.4</ele>
        <time>2017-08-07T07:26:29Z</time>
      </trkpt>
      <trkpt lat="48.77621" lon="4.62173">
        <ele>131.36</ele>
        <time>2017-08-07T07:26:45Z</time>
      </trkpt>
      <trkpt lat="48.77594" lon="4.62194">
        <ele>131.36</ele>
        <time>2017-08-07T07:26:52Z</time>
      </trkpt>
      <trkpt lat="48.7759" lon="4.62197">
        <ele>131.36</ele>
        <time>2017-08-07T07:26:53Z</time>
      </trkpt>
      <trkpt lat="48.77517" lon="4.62253">
        <ele>130.4</ele>
        <time>2017-08-07T07:27:10Z</time>
      </trkpt>
      <trkpt lat="48.77449" lon="4.62311">
        <ele>130.4</ele>
        <time>2017-08-07T07:27:27Z</time>
      </trkpt>
      <trkpt lat="48.77429" lon="4.62327">
        <ele>130.4</ele>
        <time>2017-08-07T07:27:32Z</time>
      </trkpt>
      <trkpt lat="48.77383" lon="4.62361">
        <ele>131.36</ele>
        <time>2017-08-07T07:27:45Z</time>
      </trkpt>
      <trkpt lat="48.77382" lon="4.62361">
        <ele>131.84</ele>
        <time>2017-08-07T07:27:55Z</time>
      </trkpt>
      <trkpt lat="48.77382" lon="4.62361">
        <ele>131.84</ele>
        <time>2017-08-07T07:28:22Z</time>
      </trkpt>
      <trkpt lat="48.7738" lon="4.62361">
        <ele>131.36</ele>
        <time>2017-08-07T07:28:50Z</time>
      </trkpt>
      <trkpt lat="48.7738" lon="4.6236">
        <ele>131.36</ele>
        <time>2017-08-07T07:29:18Z</time>
      </trkpt>
      <trkpt lat="48.77381" lon="4.62361">
        <ele>131.36</ele>
        <time>2017-08-07T07:29:39Z</time>
      </trkpt>
      <trkpt lat="48.77382" lon="4.6236">
        <ele>131.84</ele>
        <time>2017-08-07T07:30:10Z</time>
      </trkpt>
      <trkpt lat="48.77381" lon="4.6236">
        <ele>131.36</ele>
        <time>2017-08-07T07:30:34Z</time>
      </trkpt>
      <trkpt lat="48.77381" lon="4.62362">
        <ele>131.36</ele>
        <time>2017-08-07T07:31:03Z</time>
      </trkpt>
      <trkpt lat="48.77382" lon="4.62361">
        <ele>131.36</ele>
        <time>2017-08-07T07:31:37Z</time>
      </trkpt>
      <trkpt lat="48.77382" lon="4.62362">
        <ele>131.36</ele>
        <time>2017-08-07T07:32:02Z</time>
      </trkpt>
      <trkpt lat="48.77382" lon="4.62362">
        <ele>131.36</ele>
        <time>2017-08-07T07:32:22Z</time>
      </trkpt>
      <trkpt lat="48.77381" lon="4.62362">
        <ele>131.36</ele>
        <time>2017-08-07T07:32:47Z</time>
      </trkpt>
      <trkpt lat="48.77382" lon="4.62362">
        <ele>130.88</ele>
        <time>2017-08-07T07:33:11Z</time>
      </trkpt>
      <trkpt lat="48.77382" lon="4.62363">
        <ele>130.88</ele>
        <time>2017-08-07T07:33:44Z</time>
      </trkpt>
      <trkpt lat="48.77382" lon="4.62362">
        <ele>130.88</ele>
        <time>2017-08-07T07:34:15Z</time>
      </trkpt>
      <trkpt lat="48.77382" lon="4.6236">
        <ele>131.84</ele>
        <time>2017-08-07T07:34:34Z</time>
      </trkpt>
      <trkpt lat="48.77382" lon="4.62359">
        <ele>131.84</ele>
        <time>2017-08-07T07:35:00Z</time>
      </trkpt>
      <trkpt lat="48.77382" lon="4.62362">
        <ele>131.36</ele>
        <time>2017-08-07T07:35:15Z</time>
      </trkpt>
      <trkpt lat="48.7738" lon="4.62361">
        <ele>131.36</ele>
        <time>2017-08-07T07:35:39Z</time>
      </trkpt>
      <trkpt lat="48.7736" lon="4.62372">
        <ele>131.36</ele>
        <time>2017-08-07T07:35:49Z</time>
      </trkpt>
      <trkpt lat="48.77312" lon="4.62396">
        <ele>132.32</ele>
        <time>2017-08-07T07:36:03Z</time>
      </trkpt>
      <trkpt lat="48.7726" lon="4.62413">
        <ele>134.24</ele>
        <time>2017-08-07T07:36:20Z</time>
      </trkpt>
      <trkpt lat="48.77219" lon="4.62425">
        <ele>134.24</ele>
        <time>2017-08-07T07:36:35Z</time>
      </trkpt>
      <trkpt lat="48.77156" lon="4.62443">
        <ele>134.24</ele>
        <time>2017-08-07T07:36:52Z</time>
      </trkpt>
      <trkpt lat="48.77096" lon="4.62459">
        <ele>136.16</ele>
        <time>2017-08-07T07:37:10Z</time>
      </trkpt>
      <trkpt lat="48.7703" lon="4.62477">
        <ele>137.13</ele>
        <time>2017-08-07T07:37:29Z</time>
      </trkpt>
      <trkpt lat="48.76989" lon="4.62488">
        <ele>139.05</ele>
        <time>2017-08-07T07:37:46Z</time>
      </trkpt>
      <trkpt lat="48.76954" lon="4.62497">
        <ele>141.93</ele>
        <time>2017-08-07T07:38:03Z</time>
      </trkpt>
      <trkpt lat="48.76928" lon="4.62504">
        <ele>143.37</ele>
        <time>2017-08-07T07:38:18Z</time>
      </trkpt>
      <trkpt lat="48.76896" lon="4.62513">
        <ele>145.3</ele>
        <time>2017-08-07T07:38:36Z</time>
      </trkpt>
      <trkpt lat="48.76868" lon="4.62521">
        <ele>146.26</ele>
        <time>2017-08-07T07:38:50Z</time>
      </trkpt>
      <trkpt lat="48.76866" lon="4.62521">
        <ele>146.26</ele>
        <time>2017-08-07T07:38:51Z</time>
      </trkpt>
      <trkpt lat="48.76864" lon="4.62522">
        <ele>146.26</ele>
        <time>2017-08-07T07:38:52Z</time>
      </trkpt>
      <trkpt lat="48.76862" lon="4.62523">
        <ele>146.26</ele>
        <time>2017-08-07T07:38:53Z</time>
      </trkpt>
      <trkpt lat="48.7686" lon="4.62523">
        <ele>146.74</ele>
        <time>2017-08-07T07:38:54Z</time>
      </trkpt>
      <trkpt lat="48.76858" lon="4.62524">
        <ele>146.74</ele>
        <time>2017-08-07T07:38:55Z</time>
      </trkpt>
      <trkpt lat="48.76825" lon="4.62532">
        <ele>147.7</ele>
        <time>2017-08-07T07:39:11Z</time>
      </trkpt>
      <trkpt lat="48.76796" lon="4.6254">
        <ele>149.14</ele>
        <time>2017-08-07T07:39:26Z</time>
      </trkpt>
      <trkpt lat="48.76751" lon="4.6255">
        <ele>149.14</ele>
        <time>2017-08-07T07:39:41Z</time>
      </trkpt>
      <trkpt lat="48.76727" lon="4.62554">
        <ele>148.18</ele>
        <time>2017-08-07T07:39:46Z</time>
      </trkpt>
      <trkpt lat="48.76631" lon="4.62571">
        <ele>147.22</ele>
        <time>2017-08-07T07:40:06Z</time>
      </trkpt>
      <trkpt lat="48.76556" lon="4.62583">
        <ele>147.22</ele>
        <time>2017-08-07T07:40:24Z</time>
      </trkpt>
      <trkpt lat="48.76483" lon="4.62596">
        <ele>146.74</ele>
        <time>2017-08-07T07:40:41Z</time>
      </trkpt>
      <trkpt lat="48.76425" lon="4.62606">
        <ele>146.74</ele>
        <time>2017-08-07T07:40:55Z</time>
      </trkpt>
      <trkpt lat="48.76361" lon="4.62615">
        <ele>146.74</ele>
        <time>2017-08-07T07:41:13Z</time>
      </trkpt>
      <trkpt lat="48.76328" lon="4.62622">
        <ele>147.7</ele>
        <time>2017-08-07T07:41:23Z</time>
      </trkpt>
      <trkpt lat="48.7628" lon="4.6263">
        <ele>148.18</ele>
        <time>2017-08-07T07:41:38Z</time>
      </trkpt>
      <trkpt lat="48.76218" lon="4.6264">
        <ele>148.66</ele>
        <time>2017-08-07T07:41:57Z</time>
      </trkpt>
      <trkpt lat="48.76172" lon="4.62644">
        <ele>149.62</ele>
        <time>2017-08-07T07:42:11Z</time>
      </trkpt>
      <trkpt lat="48.76122" lon="4.62652">
        <ele>151.06</ele>
        <time>2017-08-07T07:42:29Z</time>
      </trkpt>
      <trkpt lat="48.76081" lon="4.62659">
        <ele>152.99</ele>
        <time>2017-08-07T07:42:46Z</time>
      </trkpt>
      <trkpt lat="48.76045" lon="4.62666">
        <ele>154.91</ele>
        <time>2017-08-07T07:43:03Z</time>
      </trkpt>
      <trkpt lat="48.76015" lon="4.62693">
        <ele>156.83</ele>
        <time>2017-08-07T07:43:20Z</time>
      </trkpt>
      <trkpt lat="48.76001" lon="4.62706">
        <ele>157.79</ele>
        <time>2017-08-07T07:43:28Z</time>
      </trkpt>
      <trkpt lat="48.75999" lon="4.62708">
        <ele>157.79</ele>
        <time>2017-08-07T07:43:29Z</time>
      </trkpt>
      <trkpt lat="48.75998" lon="4.62709">
        <ele>157.79</ele>
        <time>2017-08-07T07:43:30Z</time>
      </trkpt>
      <trkpt lat="48.75996" lon="4.62709">
        <ele>157.79</ele>
        <time>2017-08-07T07:43:31Z</time>
      </trkpt>
      <trkpt lat="48.75995" lon="4.62708">
        <ele>157.79</ele>
        <time>2017-08-07T07:43:32Z</time>
      </trkpt>
      <trkpt lat="48.75993" lon="4.62707">
        <ele>158.27</ele>
        <time>2017-08-07T07:43:33Z</time>
      </trkpt>
      <trkpt lat="48.75989" lon="4.62706">
        <ele>158.27</ele>
        <time>2017-08-07T07:43:36Z</time>
      </trkpt>
      <trkpt lat="48.75987" lon="4.62707">
        <ele>159.24</ele>
        <time>2017-08-07T07:43:37Z</time>
      </trkpt>
      <trkpt lat="48.75986" lon="4.6271">
        <ele>158.75</ele>
        <time>2017-08-07T07:43:38Z</time>
      </trkpt>
      <trkpt lat="48.75986" lon="4.62713">
        <ele>158.75</ele>
        <time>2017-08-07T07:43:39Z</time>
      </trkpt>
      <trkpt lat="48.75986" lon="4.62717">
        <ele>158.75</ele>
        <time>2017-08-07T07:43:40Z</time>
      </trkpt>
      <trkpt lat="48.75969" lon="4.62754">
        <ele>158.75</ele>
        <time>2017-08-07T07:43:50Z</time>
      </trkpt>
      <trkpt lat="48.75934" lon="4.62789">
        <ele>159.72</ele>
        <time>2017-08-07T07:44:04Z</time>
      </trkpt>
      <trkpt lat="48.75885" lon="4.62816">
        <ele>161.64</ele>
        <time>2017-08-07T07:44:23Z</time>
      </trkpt>
      <trkpt lat="48.75845" lon="4.62836">
        <ele>162.12</ele>
        <time>2017-08-07T07:44:36Z</time>
      </trkpt>
      <trkpt lat="48.75789" lon="4.62869">
        <ele>162.12</ele>
        <time>2017-08-07T07:44:52Z</time>
      </trkpt>
      <trkpt lat="48.75759" lon="4.62901">
        <ele>162.12</ele>
        <time>2017-08-07T07:45:02Z</time>
      </trkpt>
      <trkpt lat="48.75757" lon="4.62901">
        <ele>162.12</ele>
        <time>2017-08-07T07:45:03Z</time>
      </trkpt>
      <trkpt lat="48.75754" lon="4.62899">
        <ele>162.12</ele>
        <time>2017-08-07T07:45:04Z</time>
      </trkpt>
      <trkpt lat="48.75753" lon="4.62896">
        <ele>162.12</ele>
        <time>2017-08-07T07:45:05Z</time>
      </trkpt>
      <trkpt lat="48.75752" lon="4.62894">
        <ele>162.12</ele>
        <time>2017-08-07T07:45:06Z</time>
      </trkpt>
      <trkpt lat="48.75751" lon="4.62891">
        <ele>162.12</ele>
        <time>2017-08-07T07:45:07Z</time>
      </trkpt>
      <trkpt lat="48.75751" lon="4.62889">
        <ele>162.12</ele>
        <time>2017-08-07T07:45:08Z</time>
      </trkpt>
      <trkpt lat="48.75739" lon="4.62862">
        <ele>165</ele>
        <time>2017-08-07T07:45:22Z</time>
      </trkpt>
      <trkpt lat="48.75734" lon="4.62848">
        <ele>166.45</ele>
        <time>2017-08-07T07:45:29Z</time>
      </trkpt>
      <trkpt lat="48.75731" lon="4.6284">
        <ele>166.93</ele>
        <time>2017-08-07T07:45:33Z</time>
      </trkpt>
      <trkpt lat="48.75731" lon="4.62838">
        <ele>166.93</ele>
        <time>2017-08-07T07:45:34Z</time>
      </trkpt>
      <trkpt lat="48.75731" lon="4.62836">
        <ele>167.41</ele>
        <time>2017-08-07T07:45:35Z</time>
      </trkpt>
      <trkpt lat="48.7573" lon="4.62834">
        <ele>167.41</ele>
        <time>2017-08-07T07:45:36Z</time>
      </trkpt>
      <trkpt lat="48.75729" lon="4.62832">
        <ele>167.41</ele>
        <time>2017-08-07T07:45:37Z</time>
      </trkpt>
      <trkpt lat="48.75728" lon="4.6283">
        <ele>167.41</ele>
        <time>2017-08-07T07:45:38Z</time>
      </trkpt>
      <trkpt lat="48.75728" lon="4.62828">
        <ele>167.89</ele>
        <time>2017-08-07T07:45:39Z</time>
      </trkpt>
      <trkpt lat="48.75727" lon="4.62826">
        <ele>167.89</ele>
        <time>2017-08-07T07:45:40Z</time>
      </trkpt>
      <trkpt lat="48.75727" lon="4.62824">
        <ele>168.37</ele>
        <time>2017-08-07T07:45:41Z</time>
      </trkpt>
      <trkpt lat="48.75726" lon="4.62822">
        <ele>168.37</ele>
        <time>2017-08-07T07:45:42Z</time>
      </trkpt>
      <trkpt lat="48.7572" lon="4.62778">
        <ele>169.81</ele>
        <time>2017-08-07T07:46:00Z</time>
      </trkpt>
      <trkpt lat="48.75716" lon="4.62733">
        <ele>172.21</ele>
        <time>2017-08-07T07:46:17Z</time>
      </trkpt>
      <trkpt lat="48.75713" lon="4.627">
        <ele>174.14</ele>
        <time>2017-08-07T07:46:31Z</time>
      </trkpt>
      <trkpt lat="48.75707" lon="4.62666">
        <ele>176.06</ele>
        <time>2017-08-07T07:46:46Z</time>
      </trkpt>
      <trkpt lat="48.75706" lon="4.6263">
        <ele>178.46</ele>
        <time>2017-08-07T07:47:01Z</time>
      </trkpt>
      <trkpt lat="48.75711" lon="4.62586">
        <ele>180.87</ele>
        <time>2017-08-07T07:47:20Z</time>
      </trkpt>
      <trkpt lat="48.75708" lon="4.6253">
        <ele>182.79</ele>
        <time>2017-08-07T07:47:39Z</time>
      </trkpt>
      <trkpt lat="48.75708" lon="4.62479">
        <ele>185.19</ele>
        <time>2017-08-07T07:47:58Z</time>
      </trkpt>
      <trkpt lat="48.75708" lon="4.62435">
        <ele>188.08</ele>
        <time>2017-08-07T07:48:17Z</time>
      </trkpt>
      <trkpt lat="48.75709" lon="4.62397">
        <ele>190.96</ele>
        <time>2017-08-07T07:48:34Z</time>
      </trkpt>
      <trkpt lat="48.75708" lon="4.6236">
        <ele>193.36</ele>
        <time>2017-08-07T07:48:51Z</time>
      </trkpt>
      <trkpt lat="48.75707" lon="4.62323">
        <ele>195.28</ele>
        <time>2017-08-07T07:49:07Z</time>
      </trkpt>
      <trkpt lat="48.75707" lon="4.62284">
        <ele>197.69</ele>
        <time>2017-08-07T07:49:24Z</time>
      </trkpt>
      <trkpt lat="48.75705" lon="4.62241">
        <ele>199.61</ele>
        <time>2017-08-07T07:49:42Z</time>
      </trkpt>
      <trkpt lat="48.75702" lon="4.62196">
        <ele>201.53</ele>
        <time>2017-08-07T07:49:58Z</time>
      </trkpt>
      <trkpt lat="48.75695" lon="4.62145">
        <ele>203.46</ele>
        <time>2017-08-07T07:50:17Z</time>
      </trkpt>
      <trkpt lat="48.75686" lon="4.62097">
        <ele>204.42</ele>
        <time>2017-08-07T07:50:33Z</time>
      </trkpt>
      <trkpt lat="48.75672" lon="4.62042">
        <ele>204.9</ele>
        <time>2017-08-07T07:50:47Z</time>
      </trkpt>
      <trkpt lat="48.75665" lon="4.61991">
        <ele>204.9</ele>
        <time>2017-08-07T07:50:56Z</time>
      </trkpt>
      <trkpt lat="48.75653" lon="4.61874">
        <ele>202.98</ele>
        <time>2017-08-07T07:51:13Z</time>
      </trkpt>
      <trkpt lat="48.75643" lon="4.61828">
        <ele>201.53</ele>
        <time>2017-08-07T07:51:18Z</time>
      </trkpt>
      <trkpt lat="48.75639" lon="4.61812">
        <ele>201.53</ele>
        <time>2017-08-07T07:51:20Z</time>
      </trkpt>
      <trkpt lat="48.75635" lon="4.61798">
        <ele>201.53</ele>
        <time>2017-08-07T07:51:22Z</time>
      </trkpt>
      <trkpt lat="48.75619" lon="4.61741">
        <ele>201.53</ele>
        <time>2017-08-07T07:51:31Z</time>
      </trkpt>
      <trkpt lat="48.75618" lon="4.61735">
        <ele>201.53</ele>
        <time>2017-08-07T07:51:32Z</time>
      </trkpt>
      <trkpt lat="48.75616" lon="4.61728">
        <ele>201.05</ele>
        <time>2017-08-07T07:51:33Z</time>
      </trkpt>
      <trkpt lat="48.75589" lon="4.61629">
        <ele>200.09</ele>
        <time>2017-08-07T07:51:49Z</time>
      </trkpt>
      <trkpt lat="48.75573" lon="4.61569">
        <ele>197.21</ele>
        <time>2017-08-07T07:51:56Z</time>
      </trkpt>
      <trkpt lat="48.75567" lon="4.61536">
        <ele>195.77</ele>
        <time>2017-08-07T07:51:59Z</time>
      </trkpt>
      <trkpt lat="48.75552" lon="4.61455">
        <ele>192.4</ele>
        <time>2017-08-07T07:52:06Z</time>
      </trkpt>
      <trkpt lat="48.75536" lon="4.61343">
        <ele>189.04</ele>
        <time>2017-08-07T07:52:15Z</time>
      </trkpt>
      <trkpt lat="48.75517" lon="4.61258">
        <ele>185.19</ele>
        <time>2017-08-07T07:52:22Z</time>
      </trkpt>
      <trkpt lat="48.75508" lon="4.61221">
        <ele>182.79</ele>
        <time>2017-08-07T07:52:26Z</time>
      </trkpt>
      <trkpt lat="48.75505" lon="4.61214">
        <ele>182.31</ele>
        <time>2017-08-07T07:52:27Z</time>
      </trkpt>
      <trkpt lat="48.75502" lon="4.61209">
        <ele>182.31</ele>
        <time>2017-08-07T07:52:28Z</time>
      </trkpt>
      <trkpt lat="48.75499" lon="4.61206">
        <ele>182.31</ele>
        <time>2017-08-07T07:52:29Z</time>
      </trkpt>
      <trkpt lat="48.75494" lon="4.61204">
        <ele>182.31</ele>
        <time>2017-08-07T07:52:30Z</time>
      </trkpt>
      <trkpt lat="48.7549" lon="4.61204">
        <ele>182.31</ele>
        <time>2017-08-07T07:52:31Z</time>
      </trkpt>
      <trkpt lat="48.75486" lon="4.61205">
        <ele>182.31</ele>
        <time>2017-08-07T07:52:32Z</time>
      </trkpt>
      <trkpt lat="48.75482" lon="4.61206">
        <ele>182.31</ele>
        <time>2017-08-07T07:52:33Z</time>
      </trkpt>
      <trkpt lat="48.7545" lon="4.61213">
        <ele>177.98</ele>
        <time>2017-08-07T07:52:39Z</time>
      </trkpt>
      <trkpt lat="48.7543" lon="4.61217">
        <ele>174.14</ele>
        <time>2017-08-07T07:52:42Z</time>
      </trkpt>
      <trkpt lat="48.75408" lon="4.61221">
        <ele>170.29</ele>
        <time>2017-08-07T07:52:45Z</time>
      </trkpt>
      <trkpt lat="48.75385" lon="4.61225">
        <ele>164.52</ele>
        <time>2017-08-07T07:52:48Z</time>
      </trkpt>
      <trkpt lat="48.75359" lon="4.6123">
        <ele>160.68</ele>
        <time>2017-08-07T07:52:51Z</time>
      </trkpt>
      <trkpt lat="48.7534" lon="4.61234">
        <ele>157.79</ele>
        <time>2017-08-07T07:52:53Z</time>
      </trkpt>
      <trkpt lat="48.7531" lon="4.6124">
        <ele>153.95</ele>
        <time>2017-08-07T07:52:56Z</time>
      </trkpt>
      <trkpt lat="48.75278" lon="4.61243">
        <ele>151.06</ele>
        <time>2017-08-07T07:52:59Z</time>
      </trkpt>
      <trkpt lat="48.75269" lon="4.61243">
        <ele>150.58</ele>
        <time>2017-08-07T07:53:00Z</time>
      </trkpt>
      <trkpt lat="48.75259" lon="4.61242">
        <ele>150.1</ele>
        <time>2017-08-07T07:53:01Z</time>
      </trkpt>
      <trkpt lat="48.75167" lon="4.61211">
        <ele>149.62</ele>
        <time>2017-08-07T07:53:12Z</time>
      </trkpt>
      <trkpt lat="48.75059" lon="4.61173">
        <ele>149.14</ele>
        <time>2017-08-07T07:53:29Z</time>
      </trkpt>
      <trkpt lat="48.75003" lon="4.61155">
        <ele>149.14</ele>
        <time>2017-08-07T07:53:38Z</time>
      </trkpt>
      <trkpt lat="48.74908" lon="4.61126">
        <ele>148.18</ele>
        <time>2017-08-07T07:53:54Z</time>
      </trkpt>
      <trkpt lat="48.74832" lon="4.61106">
        <ele>149.62</ele>
        <time>2017-08-07T07:54:10Z</time>
      </trkpt>
      <trkpt lat="48.74828" lon="4.61105">
        <ele>149.62</ele>
        <time>2017-08-07T07:54:11Z</time>
      </trkpt>
      <trkpt lat="48.74819" lon="4.61104">
        <ele>149.62</ele>
        <time>2017-08-07T07:54:13Z</time>
      </trkpt>
      <trkpt lat="48.74787" lon="4.61101">
        <ele>152.03</ele>
        <time>2017-08-07T07:54:25Z</time>
      </trkpt>
      <trkpt lat="48.74739" lon="4.61097">
        <ele>152.51</ele>
        <time>2017-08-07T07:54:40Z</time>
      </trkpt>
      <trkpt lat="48.74729" lon="4.61095">
        <ele>151.06</ele>
        <time>2017-08-07T07:54:42Z</time>
      </trkpt>
      <trkpt lat="48.7467" lon="4.61079">
        <ele>149.62</ele>
        <time>2017-08-07T07:54:55Z</time>
      </trkpt>
      <trkpt lat="48.74669" lon="4.61075">
        <ele>149.62</ele>
        <time>2017-08-07T07:54:56Z</time>
      </trkpt>
      <trkpt lat="48.74669" lon="4.6107">
        <ele>149.62</ele>
        <time>2017-08-07T07:54:57Z</time>
      </trkpt>
      <trkpt lat="48.74668" lon="4.61066">
        <ele>149.62</ele>
        <time>2017-08-07T07:54:58Z</time>
      </trkpt>
      <trkpt lat="48.74668" lon="4.61061">
        <ele>149.62</ele>
        <time>2017-08-07T07:54:59Z</time>
      </trkpt>
      <trkpt lat="48.74668" lon="4.61057">
        <ele>149.62</ele>
        <time>2017-08-07T07:55:00Z</time>
      </trkpt>
      <trkpt lat="48.74668" lon="4.61052">
        <ele>149.62</ele>
        <time>2017-08-07T07:55:01Z</time>
      </trkpt>
      <trkpt lat="48.74669" lon="4.61049">
        <ele>149.62</ele>
        <time>2017-08-07T07:55:02Z</time>
      </trkpt>
      <trkpt lat="48.74669" lon="4.61045">
        <ele>149.62</ele>
        <time>2017-08-07T07:55:03Z</time>
      </trkpt>
      <trkpt lat="48.74669" lon="4.61041">
        <ele>151.06</ele>
        <time>2017-08-07T07:55:04Z</time>
      </trkpt>
      <trkpt lat="48.74671" lon="4.60986">
        <ele>152.51</ele>
        <time>2017-08-07T07:55:20Z</time>
      </trkpt>
      <trkpt lat="48.74673" lon="4.60916">
        <ele>152.99</ele>
        <time>2017-08-07T07:55:37Z</time>
      </trkpt>
      <trkpt lat="48.74677" lon="4.60776">
        <ele>152.99</ele>
        <time>2017-08-07T07:56:01Z</time>
      </trkpt>
      <trkpt lat="48.7468" lon="4.60675">
        <ele>151.06</ele>
        <time>2017-08-07T07:56:17Z</time>
      </trkpt>
      <trkpt lat="48.74683" lon="4.6059">
        <ele>151.06</ele>
        <time>2017-08-07T07:56:33Z</time>
      </trkpt>
      <trkpt lat="48.7468" lon="4.60577">
        <ele>151.06</ele>
        <time>2017-08-07T07:56:36Z</time>
      </trkpt>
      <trkpt lat="48.74677" lon="4.60574">
        <ele>151.06</ele>
        <time>2017-08-07T07:56:37Z</time>
      </trkpt>
      <trkpt lat="48.74674" lon="4.60574">
        <ele>151.06</ele>
        <time>2017-08-07T07:56:38Z</time>
      </trkpt>
      <trkpt lat="48.74671" lon="4.60574">
        <ele>151.06</ele>
        <time>2017-08-07T07:56:39Z</time>
      </trkpt>
      <trkpt lat="48.74668" lon="4.60574">
        <ele>151.06</ele>
        <time>2017-08-07T07:56:40Z</time>
      </trkpt>
      <trkpt lat="48.74664" lon="4.60574">
        <ele>151.06</ele>
        <time>2017-08-07T07:56:41Z</time>
      </trkpt>
      <trkpt lat="48.74661" lon="4.60574">
        <ele>151.06</ele>
        <time>2017-08-07T07:56:42Z</time>
      </trkpt>
      <trkpt lat="48.74637" lon="4.60571">
        <ele>150.58</ele>
        <time>2017-08-07T07:56:50Z</time>
      </trkpt>
      <trkpt lat="48.74634" lon="4.60568">
        <ele>150.1</ele>
        <time>2017-08-07T07:56:51Z</time>
      </trkpt>
      <trkpt lat="48.7463" lon="4.60558">
        <ele>150.1</ele>
        <time>2017-08-07T07:56:53Z</time>
      </trkpt>
      <trkpt lat="48.74617" lon="4.6046">
        <ele>149.14</ele>
        <time>2017-08-07T07:57:10Z</time>
      </trkpt>
      <trkpt lat="48.74613" lon="4.60398">
        <ele>149.14</ele>
        <time>2017-08-07T07:57:21Z</time>
      </trkpt>
      <trkpt lat="48.74614" lon="4.60361">
        <ele>149.14</ele>
        <time>2017-08-07T07:57:28Z</time>
      </trkpt>
      <trkpt lat="48.74614" lon="4.60359">
        <ele>149.14</ele>
        <time>2017-08-07T07:57:29Z</time>
      </trkpt>
      <trkpt lat="48.74602" lon="4.60346">
        <ele>145.78</ele>
        <time>2017-08-07T07:57:38Z</time>
      </trkpt>
      <trkpt lat="48.746" lon="4.60342">
        <ele>144.82</ele>
        <time>2017-08-07T07:57:39Z</time>
      </trkpt>
      <trkpt lat="48.74599" lon="4.60339">
        <ele>144.82</ele>
        <time>2017-08-07T07:57:40Z</time>
      </trkpt>
      <trkpt lat="48.74598" lon="4.60335">
        <ele>144.82</ele>
        <time>2017-08-07T07:57:41Z</time>
      </trkpt>
      <trkpt lat="48.74597" lon="4.60332">
        <ele>144.82</ele>
        <time>2017-08-07T07:57:42Z</time>
      </trkpt>
      <trkpt lat="48.74596" lon="4.6033">
        <ele>144.82</ele>
        <time>2017-08-07T07:57:43Z</time>
      </trkpt>
      <trkpt lat="48.74596" lon="4.60328">
        <ele>144.82</ele>
        <time>2017-08-07T07:57:44Z</time>
      </trkpt>
      <trkpt lat="48.74595" lon="4.60326">
        <ele>144.82</ele>
        <time>2017-08-07T07:57:45Z</time>
      </trkpt>
      <trkpt lat="48.74594" lon="4.60301">
        <ele>142.41</ele>
        <time>2017-08-07T07:57:51Z</time>
      </trkpt>
      <trkpt lat="48.74595" lon="4.60292">
        <ele>142.41</ele>
        <time>2017-08-07T07:57:53Z</time>
      </trkpt>
      <trkpt lat="48.74594" lon="4.60289">
        <ele>142.41</ele>
        <time>2017-08-07T07:57:54Z</time>
      </trkpt>
      <trkpt lat="48.74593" lon="4.60284">
        <ele>141.93</ele>
        <time>2017-08-07T07:57:55Z</time>
      </trkpt>
      <trkpt lat="48.74592" lon="4.6028">
        <ele>141.45</ele>
        <time>2017-08-07T07:57:56Z</time>
      </trkpt>
      <trkpt lat="48.74593" lon="4.60276">
        <ele>141.45</ele>
        <time>2017-08-07T07:57:57Z</time>
      </trkpt>
      <trkpt lat="48.74594" lon="4.60273">
        <ele>141.45</ele>
        <time>2017-08-07T07:57:58Z</time>
      </trkpt>
      <trkpt lat="48.74596" lon="4.60269">
        <ele>141.45</ele>
        <time>2017-08-07T07:58:01Z</time>
      </trkpt>
      <trkpt lat="48.74596" lon="4.60267">
        <ele>141.45</ele>
        <time>2017-08-07T07:58:02Z</time>
      </trkpt>
      <trkpt lat="48.74597" lon="4.60265">
        <ele>141.45</ele>
        <time>2017-08-07T07:58:03Z</time>
      </trkpt>
      <trkpt lat="48.74604" lon="4.60243">
        <ele>140.97</ele>
        <time>2017-08-07T07:58:10Z</time>
      </trkpt>
      <trkpt lat="48.74607" lon="4.6024">
        <ele>140.01</ele>
        <time>2017-08-07T07:58:11Z</time>
      </trkpt>
      <trkpt lat="48.74611" lon="4.60236">
        <ele>139.05</ele>
        <time>2017-08-07T07:58:13Z</time>
      </trkpt>
      <trkpt lat="48.74613" lon="4.60234">
        <ele>139.05</ele>
        <time>2017-08-07T07:58:15Z</time>
      </trkpt>
      <trkpt lat="48.74615" lon="4.60233">
        <ele>139.05</ele>
        <time>2017-08-07T07:58:16Z</time>
      </trkpt>
      <trkpt lat="48.74617" lon="4.60231">
        <ele>139.05</ele>
        <time>2017-08-07T07:58:17Z</time>
      </trkpt>
      <trkpt lat="48.74618" lon="4.6023">
        <ele>139.05</ele>
        <time>2017-08-07T07:58:18Z</time>
      </trkpt>
      <trkpt lat="48.7462" lon="4.60226">
        <ele>138.09</ele>
        <time>2017-08-07T07:58:19Z</time>
      </trkpt>
      <trkpt lat="48.74622" lon="4.60221">
        <ele>136.64</ele>
        <time>2017-08-07T07:58:20Z</time>
      </trkpt>
      <trkpt lat="48.74623" lon="4.6021">
        <ele>135.68</ele>
        <time>2017-08-07T07:58:22Z</time>
      </trkpt>
      <trkpt lat="48.74623" lon="4.60198">
        <ele>134.72</ele>
        <time>2017-08-07T07:58:30Z</time>
      </trkpt>
      <trkpt lat="48.74625" lon="4.60184">
        <ele>138.09</ele>
        <time>2017-08-07T07:58:46Z</time>
      </trkpt>
      <trkpt lat="48.74625" lon="4.60178">
        <ele>139.05</ele>
        <time>2017-08-07T07:59:08Z</time>
      </trkpt>
      <trkpt lat="48.74621" lon="4.6016">
        <ele>140.97</ele>
        <time>2017-08-07T07:59:23Z</time>
      </trkpt>
      <trkpt lat="48.7462" lon="4.60151">
        <ele>141.93</ele>
        <time>2017-08-07T07:59:36Z</time>
      </trkpt>
      <trkpt lat="48.7462" lon="4.60146">
        <ele>141.93</ele>
        <time>2017-08-07T07:59:51Z</time>
      </trkpt>
      <trkpt lat="48.74618" lon="4.60141">
        <ele>141.93</ele>
        <time>2017-08-07T07:59:53Z</time>
      </trkpt>
      <trkpt lat="48.74618" lon="4.60139">
        <ele>141.93</ele>
        <time>2017-08-07T07:59:54Z</time>
      </trkpt>
      <trkpt lat="48.74618" lon="4.60136">
        <ele>141.93</ele>
        <time>2017-08-07T07:59:55Z</time>
      </trkpt>
      <trkpt lat="48.74616" lon="4.60134">
        <ele>141.93</ele>
        <time>2017-08-07T07:59:56Z</time>
      </trkpt>
      <trkpt lat="48.74615" lon="4.6013">
        <ele>141.93</ele>
        <time>2017-08-07T07:59:57Z</time>
      </trkpt>
      <trkpt lat="48.74614" lon="4.60127">
        <ele>141.45</ele>
        <time>2017-08-07T07:59:58Z</time>
      </trkpt>
      <trkpt lat="48.74613" lon="4.60124">
        <ele>140.49</ele>
        <time>2017-08-07T07:59:59Z</time>
      </trkpt>
      <trkpt lat="48.74612" lon="4.60121">
        <ele>140.49</ele>
        <time>2017-08-07T08:00:00Z</time>
      </trkpt>
      <trkpt lat="48.74609" lon="4.60093">
        <ele>139.05</ele>
        <time>2017-08-07T08:00:06Z</time>
      </trkpt>
      <trkpt lat="48.7461" lon="4.60089">
        <ele>139.05</ele>
        <time>2017-08-07T08:00:07Z</time>
      </trkpt>
      <trkpt lat="48.7461" lon="4.60087">
        <ele>140.01</ele>
        <time>2017-08-07T08:00:08Z</time>
      </trkpt>
      <trkpt lat="48.7461" lon="4.60084">
        <ele>140.01</ele>
        <time>2017-08-07T08:00:09Z</time>
      </trkpt>
      <trkpt lat="48.74609" lon="4.60082">
        <ele>140.01</ele>
        <time>2017-08-07T08:00:10Z</time>
      </trkpt>
      <trkpt lat="48.74609" lon="4.6008">
        <ele>140.01</ele>
        <time>2017-08-07T08:00:11Z</time>
      </trkpt>
      <trkpt lat="48.74609" lon="4.60077">
        <ele>140.01</ele>
        <time>2017-08-07T08:00:12Z</time>
      </trkpt>
      <trkpt lat="48.74608" lon="4.60074">
        <ele>140.01</ele>
        <time>2017-08-07T08:00:13Z</time>
      </trkpt>
      <trkpt lat="48.74607" lon="4.60071">
        <ele>140.01</ele>
        <time>2017-08-07T08:00:14Z</time>
      </trkpt>
      <trkpt lat="48.74606" lon="4.60057">
        <ele>140.01</ele>
        <time>2017-08-07T08:00:18Z</time>
      </trkpt>
      <trkpt lat="48.74601" lon="4.60031">
        <ele>138.57</ele>
        <time>2017-08-07T08:00:24Z</time>
      </trkpt>
      <trkpt lat="48.74601" lon="4.60023">
        <ele>138.57</ele>
        <time>2017-08-07T08:00:26Z</time>
      </trkpt>
      <trkpt lat="48.746" lon="4.6002">
        <ele>138.09</ele>
        <time>2017-08-07T08:00:27Z</time>
      </trkpt>
      <trkpt lat="48.74591" lon="4.59997">
        <ele>135.2</ele>
        <time>2017-08-07T08:00:33Z</time>
      </trkpt>
      <trkpt lat="48.74589" lon="4.59988">
        <ele>134.72</ele>
        <time>2017-08-07T08:00:35Z</time>
      </trkpt>
      <trkpt lat="48.74589" lon="4.59979">
        <ele>134.72</ele>
        <time>2017-08-07T08:00:37Z</time>
      </trkpt>
      <trkpt lat="48.74589" lon="4.59977">
        <ele>134.72</ele>
        <time>2017-08-07T08:00:38Z</time>
      </trkpt>
      <trkpt lat="48.74589" lon="4.59974">
        <ele>134.72</ele>
        <time>2017-08-07T08:00:39Z</time>
      </trkpt>
      <trkpt lat="48.74588" lon="4.59971">
        <ele>134.72</ele>
        <time>2017-08-07T08:00:40Z</time>
      </trkpt>
      <trkpt lat="48.74588" lon="4.59968">
        <ele>134.72</ele>
        <time>2017-08-07T08:00:41Z</time>
      </trkpt>
      <trkpt lat="48.74588" lon="4.59964">
        <ele>135.68</ele>
        <time>2017-08-07T08:00:42Z</time>
      </trkpt>
      <trkpt lat="48.74587" lon="4.59961">
        <ele>135.68</ele>
        <time>2017-08-07T08:00:43Z</time>
      </trkpt>
      <trkpt lat="48.7458" lon="4.59934">
        <ele>135.68</ele>
        <time>2017-08-07T08:00:52Z</time>
      </trkpt>
      <trkpt lat="48.74579" lon="4.59929">
        <ele>135.68</ele>
        <time>2017-08-07T08:01:05Z</time>
      </trkpt>
      <trkpt lat="48.74579" lon="4.59926">
        <ele>135.68</ele>
        <time>2017-08-07T08:01:38Z</time>
      </trkpt>
      <trkpt lat="48.74578" lon="4.59923">
        <ele>135.68</ele>
        <time>2017-08-07T08:01:57Z</time>
      </trkpt>
      <trkpt lat="48.74577" lon="4.59921">
        <ele>135.68</ele>
        <time>2017-08-07T08:01:58Z</time>
      </trkpt>
      <trkpt lat="48.74571" lon="4.59906">
        <ele>134.24</ele>
        <time>2017-08-07T08:02:02Z</time>
      </trkpt>
      <trkpt lat="48.7457" lon="4.59903">
        <ele>134.24</ele>
        <time>2017-08-07T08:02:03Z</time>
      </trkpt>
      <trkpt lat="48.74571" lon="4.599">
        <ele>134.24</ele>
        <time>2017-08-07T08:02:13Z</time>
      </trkpt>
      <trkpt lat="48.74568" lon="4.59884">
        <ele>134.24</ele>
        <time>2017-08-07T08:02:29Z</time>
      </trkpt>
      <trkpt lat="48.74559" lon="4.59856">
        <ele>132.8</ele>
        <time>2017-08-07T08:02:38Z</time>
      </trkpt>
      <trkpt lat="48.74558" lon="4.59853">
        <ele>132.8</ele>
        <time>2017-08-07T08:02:39Z</time>
      </trkpt>
      <trkpt lat="48.74557" lon="4.59851">
        <ele>131.84</ele>
        <time>2017-08-07T08:02:40Z</time>
      </trkpt>
      <trkpt lat="48.74556" lon="4.59848">
        <ele>131.36</ele>
        <time>2017-08-07T08:02:41Z</time>
      </trkpt>
      <trkpt lat="48.74555" lon="4.59845">
        <ele>130.88</ele>
        <time>2017-08-07T08:02:42Z</time>
      </trkpt>
      <trkpt lat="48.74554" lon="4.59842">
        <ele>130.4</ele>
        <time>2017-08-07T08:02:43Z</time>
      </trkpt>
      <trkpt lat="48.74552" lon="4.59838">
        <ele>129.92</ele>
        <time>2017-08-07T08:02:44Z</time>
      </trkpt>
      <trkpt lat="48.74549" lon="4.59821">
        <ele>129.43</ele>
        <time>2017-08-07T08:02:48Z</time>
      </trkpt>
      <trkpt lat="48.74543" lon="4.59804">
        <ele>126.55</ele>
        <time>2017-08-07T08:02:53Z</time>
      </trkpt>
      <trkpt lat="48.74542" lon="4.59799">
        <ele>126.55</ele>
        <time>2017-08-07T08:02:55Z</time>
      </trkpt>
      <trkpt lat="48.74542" lon="4.59797">
        <ele>126.55</ele>
        <time>2017-08-07T08:02:56Z</time>
      </trkpt>
      <trkpt lat="48.74542" lon="4.59793">
        <ele>126.55</ele>
        <time>2017-08-07T08:02:57Z</time>
      </trkpt>
      <trkpt lat="48.74542" lon="4.59789">
        <ele>126.55</ele>
        <time>2017-08-07T08:02:58Z</time>
      </trkpt>
      <trkpt lat="48.74541" lon="4.59785">
        <ele>126.55</ele>
        <time>2017-08-07T08:02:59Z</time>
      </trkpt>
      <trkpt lat="48.7454" lon="4.59782">
        <ele>126.55</ele>
        <time>2017-08-07T08:03:00Z</time>
      </trkpt>
      <trkpt lat="48.74539" lon="4.59779">
        <ele>126.07</ele>
        <time>2017-08-07T08:03:01Z</time>
      </trkpt>
      <trkpt lat="48.74537" lon="4.59776">
        <ele>125.11</ele>
        <time>2017-08-07T08:03:02Z</time>
      </trkpt>
      <trkpt lat="48.74537" lon="4.59773">
        <ele>125.11</ele>
        <time>2017-08-07T08:03:03Z</time>
      </trkpt>
      <trkpt lat="48.74537" lon="4.5977">
        <ele>125.11</ele>
        <time>2017-08-07T08:03:04Z</time>
      </trkpt>
      <trkpt lat="48.74537" lon="4.59768">
        <ele>125.11</ele>
        <time>2017-08-07T08:03:05Z</time>
      </trkpt>
      <trkpt lat="48.74537" lon="4.59765">
        <ele>125.11</ele>
        <time>2017-08-07T08:03:06Z</time>
      </trkpt>
      <trkpt lat="48.74537" lon="4.59762">
        <ele>125.11</ele>
        <time>2017-08-07T08:03:07Z</time>
      </trkpt>
      <trkpt lat="48.74537" lon="4.59755">
        <ele>125.11</ele>
        <time>2017-08-07T08:03:16Z</time>
      </trkpt>
      <trkpt lat="48.74536" lon="4.59752">
        <ele>125.11</ele>
        <time>2017-08-07T08:03:18Z</time>
      </trkpt>
      <trkpt lat="48.74536" lon="4.59749">
        <ele>124.63</ele>
        <time>2017-08-07T08:03:19Z</time>
      </trkpt>
      <trkpt lat="48.74536" lon="4.59747">
        <ele>124.15</ele>
        <time>2017-08-07T08:03:20Z</time>
      </trkpt>
      <trkpt lat="48.74536" lon="4.59745">
        <ele>124.15</ele>
        <time>2017-08-07T08:03:21Z</time>
      </trkpt>
      <trkpt lat="48.74536" lon="4.59742">
        <ele>124.15</ele>
        <time>2017-08-07T08:03:22Z</time>
      </trkpt>
      <trkpt lat="48.74529" lon="4.59715">
        <ele>121.74</ele>
        <time>2017-08-07T08:03:28Z</time>
      </trkpt>
      <trkpt lat="48.74524" lon="4.59698">
        <ele>121.74</ele>
        <time>2017-08-07T08:03:33Z</time>
      </trkpt>
      <trkpt lat="48.74524" lon="4.59695">
        <ele>121.74</ele>
        <time>2017-08-07T08:03:34Z</time>
      </trkpt>
      <trkpt lat="48.74524" lon="4.59693">
        <ele>121.74</ele>
        <time>2017-08-07T08:03:35Z</time>
      </trkpt>
      <trkpt lat="48.74522" lon="4.59689">
        <ele>121.74</ele>
        <time>2017-08-07T08:03:36Z</time>
      </trkpt>
      <trkpt lat="48.7452" lon="4.59685">
        <ele>121.74</ele>
        <time>2017-08-07T08:03:37Z</time>
      </trkpt>
      <trkpt lat="48.74519" lon="4.5968">
        <ele>121.74</ele>
        <time>2017-08-07T08:03:38Z</time>
      </trkpt>
      <trkpt lat="48.74519" lon="4.59677">
        <ele>121.26</ele>
        <time>2017-08-07T08:03:39Z</time>
      </trkpt>
      <trkpt lat="48.74516" lon="4.59667">
        <ele>121.26</ele>
        <time>2017-08-07T08:03:46Z</time>
      </trkpt>
      <trkpt lat="48.74515" lon="4.59665">
        <ele>121.26</ele>
        <time>2017-08-07T08:03:47Z</time>
      </trkpt>
      <trkpt lat="48.74514" lon="4.59663">
        <ele>120.78</ele>
        <time>2017-08-07T08:03:48Z</time>
      </trkpt>
      <trkpt lat="48.74512" lon="4.5966">
        <ele>120.3</ele>
        <time>2017-08-07T08:03:49Z</time>
      </trkpt>
      <trkpt lat="48.74511" lon="4.59657">
        <ele>120.3</ele>
        <time>2017-08-07T08:03:50Z</time>
      </trkpt>
      <trkpt lat="48.7451" lon="4.59653">
        <ele>119.82</ele>
        <time>2017-08-07T08:03:51Z</time>
      </trkpt>
      <trkpt lat="48.74509" lon="4.59648">
        <ele>119.34</ele>
        <time>2017-08-07T08:03:52Z</time>
      </trkpt>
      <trkpt lat="48.74508" lon="4.59643">
        <ele>119.34</ele>
        <time>2017-08-07T08:03:53Z</time>
      </trkpt>
      <trkpt lat="48.74508" lon="4.59638">
        <ele>118.38</ele>
        <time>2017-08-07T08:03:54Z</time>
      </trkpt>
      <trkpt lat="48.74508" lon="4.59633">
        <ele>118.38</ele>
        <time>2017-08-07T08:03:55Z</time>
      </trkpt>
      <trkpt lat="48.74507" lon="4.59622">
        <ele>118.38</ele>
        <time>2017-08-07T08:03:59Z</time>
      </trkpt>
      <trkpt lat="48.74508" lon="4.5962">
        <ele>118.38</ele>
        <time>2017-08-07T08:04:00Z</time>
      </trkpt>
      <trkpt lat="48.74508" lon="4.59619">
        <ele>118.38</ele>
        <time>2017-08-07T08:04:01Z</time>
      </trkpt>
      <trkpt lat="48.74509" lon="4.59617">
        <ele>118.38</ele>
        <time>2017-08-07T08:04:02Z</time>
      </trkpt>
      <trkpt lat="48.74509" lon="4.59614">
        <ele>118.38</ele>
        <time>2017-08-07T08:04:03Z</time>
      </trkpt>
      <trkpt lat="48.74509" lon="4.59612">
        <ele>118.38</ele>
        <time>2017-08-07T08:04:04Z</time>
      </trkpt>
      <trkpt lat="48.74509" lon="4.59609">
        <ele>118.38</ele>
        <time>2017-08-07T08:04:05Z</time>
      </trkpt>
      <trkpt lat="48.74508" lon="4.59604">
        <ele>118.38</ele>
        <time>2017-08-07T08:04:16Z</time>
      </trkpt>
      <trkpt lat="48.74509" lon="4.59602">
        <ele>118.38</ele>
        <time>2017-08-07T08:04:29Z</time>
      </trkpt>
      <trkpt lat="48.74508" lon="4.59597">
        <ele>117.9</ele>
        <time>2017-08-07T08:04:35Z</time>
      </trkpt>
      <trkpt lat="48.74508" lon="4.59594">
        <ele>117.42</ele>
        <time>2017-08-07T08:04:36Z</time>
      </trkpt>
      <trkpt lat="48.74507" lon="4.59592">
        <ele>116.46</ele>
        <time>2017-08-07T08:04:37Z</time>
      </trkpt>
      <trkpt lat="48.74507" lon="4.5959">
        <ele>115.98</ele>
        <time>2017-08-07T08:04:38Z</time>
      </trkpt>
      <trkpt lat="48.74506" lon="4.59588">
        <ele>115.01</ele>
        <time>2017-08-07T08:04:39Z</time>
      </trkpt>
      <trkpt lat="48.74504" lon="4.59571">
        <ele>112.61</ele>
        <time>2017-08-07T08:04:45Z</time>
      </trkpt>
      <trkpt lat="48.74501" lon="4.5956">
        <ele>114.53</ele>
        <time>2017-08-07T08:04:55Z</time>
      </trkpt>
      <trkpt lat="48.745" lon="4.59552">
        <ele>114.53</ele>
        <time>2017-08-07T08:05:02Z</time>
      </trkpt>
      <trkpt lat="48.74499" lon="4.59549">
        <ele>114.53</ele>
        <time>2017-08-07T08:05:03Z</time>
      </trkpt>
      <trkpt lat="48.74499" lon="4.59545">
        <ele>114.53</ele>
        <time>2017-08-07T08:05:04Z</time>
      </trkpt>
      <trkpt lat="48.74498" lon="4.59542">
        <ele>113.57</ele>
        <time>2017-08-07T08:05:05Z</time>
      </trkpt>
      <trkpt lat="48.74498" lon="4.59539">
        <ele>113.57</ele>
        <time>2017-08-07T08:05:06Z</time>
      </trkpt>
      <trkpt lat="48.74498" lon="4.59537">
        <ele>113.09</ele>
        <time>2017-08-07T08:05:07Z</time>
      </trkpt>
      <trkpt lat="48.74495" lon="4.59513">
        <ele>109.73</ele>
        <time>2017-08-07T08:05:15Z</time>
      </trkpt>
      <trkpt lat="48.74492" lon="4.595">
        <ele>106.36</ele>
        <time>2017-08-07T08:05:19Z</time>
      </trkpt>
      <trkpt lat="48.74491" lon="4.59494">
        <ele>104.92</ele>
        <time>2017-08-07T08:05:21Z</time>
      </trkpt>
      <trkpt lat="48.74491" lon="4.59491">
        <ele>104.44</ele>
        <time>2017-08-07T08:05:22Z</time>
      </trkpt>
      <trkpt lat="48.74492" lon="4.59488">
        <ele>104.92</ele>
        <time>2017-08-07T08:05:23Z</time>
      </trkpt>
      <trkpt lat="48.74492" lon="4.59485">
        <ele>104.44</ele>
        <time>2017-08-07T08:05:24Z</time>
      </trkpt>
      <trkpt lat="48.74493" lon="4.59481">
        <ele>103.48</ele>
        <time>2017-08-07T08:05:25Z</time>
      </trkpt>
      <trkpt lat="48.74492" lon="4.59478">
        <ele>103.48</ele>
        <time>2017-08-07T08:05:26Z</time>
      </trkpt>
      <trkpt lat="48.74491" lon="4.59476">
        <ele>103.48</ele>
        <time>2017-08-07T08:05:27Z</time>
      </trkpt>
      <trkpt lat="48.74482" lon="4.59471">
        <ele>100.6</ele>
        <time>2017-08-07T08:05:32Z</time>
      </trkpt>
      <trkpt lat="48.74473" lon="4.59467">
        <ele>99.63</ele>
        <time>2017-08-07T08:05:34Z</time>
      </trkpt>
      <trkpt lat="48.74469" lon="4.59464">
        <ele>99.63</ele>
        <time>2017-08-07T08:05:36Z</time>
      </trkpt>
      <trkpt lat="48.74468" lon="4.59462">
        <ele>99.63</ele>
        <time>2017-08-07T08:05:37Z</time>
      </trkpt>
      <trkpt lat="48.74467" lon="4.59459">
        <ele>99.63</ele>
        <time>2017-08-07T08:05:38Z</time>
      </trkpt>
      <trkpt lat="48.74467" lon="4.59456">
        <ele>99.63</ele>
        <time>2017-08-07T08:05:39Z</time>
      </trkpt>
      <trkpt lat="48.74466" lon="4.59453">
        <ele>99.63</ele>
        <time>2017-08-07T08:05:40Z</time>
      </trkpt>
      <trkpt lat="48.74465" lon="4.5945">
        <ele>99.63</ele>
        <time>2017-08-07T08:05:41Z</time>
      </trkpt>
      <trkpt lat="48.74464" lon="4.59447">
        <ele>99.63</ele>
        <time>2017-08-07T08:05:42Z</time>
      </trkpt>
      <trkpt lat="48.74462" lon="4.59445">
        <ele>99.63</ele>
        <time>2017-08-07T08:05:43Z</time>
      </trkpt>
      <trkpt lat="48.7445" lon="4.59414">
        <ele>101.56</ele>
        <time>2017-08-07T08:05:56Z</time>
      </trkpt>
      <trkpt lat="48.74444" lon="4.59407">
        <ele>102.04</ele>
        <time>2017-08-07T08:06:00Z</time>
      </trkpt>
      <trkpt lat="48.74442" lon="4.59406">
        <ele>102.04</ele>
        <time>2017-08-07T08:06:01Z</time>
      </trkpt>
      <trkpt lat="48.74441" lon="4.59405">
        <ele>102.04</ele>
        <time>2017-08-07T08:06:02Z</time>
      </trkpt>
      <trkpt lat="48.74419" lon="4.59395">
        <ele>103.96</ele>
        <time>2017-08-07T08:06:16Z</time>
      </trkpt>
      <trkpt lat="48.74403" lon="4.59389">
        <ele>104.92</ele>
        <time>2017-08-07T08:06:26Z</time>
      </trkpt>
      <trkpt lat="48.74396" lon="4.59383">
        <ele>104.92</ele>
        <time>2017-08-07T08:06:31Z</time>
      </trkpt>
      <trkpt lat="48.74395" lon="4.59381">
        <ele>105.4</ele>
        <time>2017-08-07T08:06:32Z</time>
      </trkpt>
      <trkpt lat="48.74395" lon="4.5938">
        <ele>105.4</ele>
        <time>2017-08-07T08:06:33Z</time>
      </trkpt>
      <trkpt lat="48.74394" lon="4.59374">
        <ele>105.4</ele>
        <time>2017-08-07T08:06:37Z</time>
      </trkpt>
      <trkpt lat="48.74394" lon="4.59371">
        <ele>105.88</ele>
        <time>2017-08-07T08:06:38Z</time>
      </trkpt>
      <trkpt lat="48.744" lon="4.59331">
        <ele>105.88</ele>
        <time>2017-08-07T08:06:48Z</time>
      </trkpt>
      <trkpt lat="48.74398" lon="4.5933">
        <ele>105.88</ele>
        <time>2017-08-07T08:06:49Z</time>
      </trkpt>
      <trkpt lat="48.74397" lon="4.5933">
        <ele>105.88</ele>
        <time>2017-08-07T08:06:50Z</time>
      </trkpt>
      <trkpt lat="48.74395" lon="4.59332">
        <ele>105.88</ele>
        <time>2017-08-07T08:06:51Z</time>
      </trkpt>
      <trkpt lat="48.74394" lon="4.59334">
        <ele>105.88</ele>
        <time>2017-08-07T08:06:52Z</time>
      </trkpt>
      <trkpt lat="48.74392" lon="4.59337">
        <ele>104.44</ele>
        <time>2017-08-07T08:06:54Z</time>
      </trkpt>
      <trkpt lat="48.74384" lon="4.59343">
        <ele>104.44</ele>
        <time>2017-08-07T08:07:01Z</time>
      </trkpt>
      <trkpt lat="48.74383" lon="4.59344">
        <ele>104.44</ele>
        <time>2017-08-07T08:07:02Z</time>
      </trkpt>
      <trkpt lat="48.74381" lon="4.59345">
        <ele>104.44</ele>
        <time>2017-08-07T08:07:03Z</time>
      </trkpt>
      <trkpt lat="48.7438" lon="4.59344">
        <ele>104.44</ele>
        <time>2017-08-07T08:07:04Z</time>
      </trkpt>
      <trkpt lat="48.7438" lon="4.59346">
        <ele>104.44</ele>
        <time>2017-08-07T08:07:18Z</time>
      </trkpt>
      <trkpt lat="48.74366" lon="4.5934">
        <ele>104.44</ele>
        <time>2017-08-07T08:07:44Z</time>
      </trkpt>
      <trkpt lat="48.74312" lon="4.59322">
        <ele>103</ele>
        <time>2017-08-07T08:07:58Z</time>
      </trkpt>
      <trkpt lat="48.74288" lon="4.59315">
        <ele>102.52</ele>
        <time>2017-08-07T08:08:03Z</time>
      </trkpt>
      <trkpt lat="48.74202" lon="4.5928">
        <ele>101.08</ele>
        <time>2017-08-07T08:08:20Z</time>
      </trkpt>
      <trkpt lat="48.74112" lon="4.59227">
        <ele>100.11</ele>
        <time>2017-08-07T08:08:38Z</time>
      </trkpt>
      <trkpt lat="48.74089" lon="4.59206">
        <ele>100.11</ele>
        <time>2017-08-07T08:08:44Z</time>
      </trkpt>
      <trkpt lat="48.74086" lon="4.59202">
        <ele>100.11</ele>
        <time>2017-08-07T08:08:45Z</time>
      </trkpt>
      <trkpt lat="48.74084" lon="4.59196">
        <ele>100.11</ele>
        <time>2017-08-07T08:08:46Z</time>
      </trkpt>
      <trkpt lat="48.74082" lon="4.59188">
        <ele>100.11</ele>
        <time>2017-08-07T08:08:47Z</time>
      </trkpt>
      <trkpt lat="48.7408" lon="4.59179">
        <ele>100.11</ele>
        <time>2017-08-07T08:08:49Z</time>
      </trkpt>
      <trkpt lat="48.74077" lon="4.59172">
        <ele>100.11</ele>
        <time>2017-08-07T08:08:50Z</time>
      </trkpt>
      <trkpt lat="48.74074" lon="4.59166">
        <ele>100.11</ele>
        <time>2017-08-07T08:08:51Z</time>
      </trkpt>
      <trkpt lat="48.74071" lon="4.59162">
        <ele>100.11</ele>
        <time>2017-08-07T08:08:52Z</time>
      </trkpt>
      <trkpt lat="48.74067" lon="4.59158">
        <ele>100.11</ele>
        <time>2017-08-07T08:08:53Z</time>
      </trkpt>
      <trkpt lat="48.74063" lon="4.59155">
        <ele>100.11</ele>
        <time>2017-08-07T08:08:54Z</time>
      </trkpt>
      <trkpt lat="48.74058" lon="4.59153">
        <ele>100.11</ele>
        <time>2017-08-07T08:08:55Z</time>
      </trkpt>
      <trkpt lat="48.74053" lon="4.59152">
        <ele>100.11</ele>
        <time>2017-08-07T08:08:56Z</time>
      </trkpt>
      <trkpt lat="48.74049" lon="4.59152">
        <ele>100.11</ele>
        <time>2017-08-07T08:08:57Z</time>
      </trkpt>
      <trkpt lat="48.74044" lon="4.59152">
        <ele>100.11</ele>
        <time>2017-08-07T08:08:58Z</time>
      </trkpt>
      <trkpt lat="48.74039" lon="4.59154">
        <ele>100.11</ele>
        <time>2017-08-07T08:08:59Z</time>
      </trkpt>
      <trkpt lat="48.74035" lon="4.59157">
        <ele>100.11</ele>
        <time>2017-08-07T08:09:00Z</time>
      </trkpt>
      <trkpt lat="48.74031" lon="4.5916">
        <ele>100.11</ele>
        <time>2017-08-07T08:09:01Z</time>
      </trkpt>
      <trkpt lat="48.74025" lon="4.59167">
        <ele>100.11</ele>
        <time>2017-08-07T08:09:03Z</time>
      </trkpt>
      <trkpt lat="48.74018" lon="4.59172">
        <ele>100.11</ele>
        <time>2017-08-07T08:09:04Z</time>
      </trkpt>
      <trkpt lat="48.74013" lon="4.59174">
        <ele>99.63</ele>
        <time>2017-08-07T08:09:05Z</time>
      </trkpt>
      <trkpt lat="48.74009" lon="4.59174">
        <ele>99.63</ele>
        <time>2017-08-07T08:09:06Z</time>
      </trkpt>
      <trkpt lat="48.74004" lon="4.59173">
        <ele>99.63</ele>
        <time>2017-08-07T08:09:07Z</time>
      </trkpt>
      <trkpt lat="48.73999" lon="4.59171">
        <ele>99.63</ele>
        <time>2017-08-07T08:09:08Z</time>
      </trkpt>
      <trkpt lat="48.73994" lon="4.59169">
        <ele>99.63</ele>
        <time>2017-08-07T08:09:09Z</time>
      </trkpt>
      <trkpt lat="48.73896" lon="4.59133">
        <ele>99.15</ele>
        <time>2017-08-07T08:09:29Z</time>
      </trkpt>
      <trkpt lat="48.73873" lon="4.59121">
        <ele>100.11</ele>
        <time>2017-08-07T08:09:35Z</time>
      </trkpt>
      <trkpt lat="48.7384" lon="4.59108">
        <ele>101.56</ele>
        <time>2017-08-07T08:09:47Z</time>
      </trkpt>
      <trkpt lat="48.73793" lon="4.59088">
        <ele>103.48</ele>
        <time>2017-08-07T08:10:06Z</time>
      </trkpt>
      <trkpt lat="48.73758" lon="4.59074">
        <ele>105.4</ele>
        <time>2017-08-07T08:10:20Z</time>
      </trkpt>
      <trkpt lat="48.73718" lon="4.59058">
        <ele>105.88</ele>
        <time>2017-08-07T08:10:34Z</time>
      </trkpt>
      <trkpt lat="48.73659" lon="4.59033">
        <ele>106.84</ele>
        <time>2017-08-07T08:10:53Z</time>
      </trkpt>
      <trkpt lat="48.73644" lon="4.59028">
        <ele>106.36</ele>
        <time>2017-08-07T08:10:57Z</time>
      </trkpt>
      <trkpt lat="48.73598" lon="4.5901">
        <ele>106.36</ele>
        <time>2017-08-07T08:11:09Z</time>
      </trkpt>
      <trkpt lat="48.73517" lon="4.58993">
        <ele>105.4</ele>
        <time>2017-08-07T08:11:25Z</time>
      </trkpt>
      <trkpt lat="48.73449" lon="4.58985">
        <ele>102.52</ele>
        <time>2017-08-07T08:11:35Z</time>
      </trkpt>
      <trkpt lat="48.73367" lon="4.58975">
        <ele>100.6</ele>
        <time>2017-08-07T08:11:47Z</time>
      </trkpt>
      <trkpt lat="48.73366" lon="4.58974">
        <ele>102.04</ele>
        <time>2017-08-07T08:11:50Z</time>
      </trkpt>
      <trkpt lat="48.73366" lon="4.58972">
        <ele>102.04</ele>
        <time>2017-08-07T08:12:06Z</time>
      </trkpt>
      <trkpt lat="48.73364" lon="4.58969">
        <ele>102.04</ele>
        <time>2017-08-07T08:12:29Z</time>
      </trkpt>
      <trkpt lat="48.73365" lon="4.58969">
        <ele>102.04</ele>
        <time>2017-08-07T08:13:01Z</time>
      </trkpt>
      <trkpt lat="48.73365" lon="4.5897">
        <ele>102.04</ele>
        <time>2017-08-07T08:13:37Z</time>
      </trkpt>
      <trkpt lat="48.73367" lon="4.58966">
        <ele>102.04</ele>
        <time>2017-08-07T08:13:58Z</time>
      </trkpt>
      <trkpt lat="48.73367" lon="4.58968">
        <ele>102.04</ele>
        <time>2017-08-07T08:14:26Z</time>
      </trkpt>
      <trkpt lat="48.73369" lon="4.58969">
        <ele>102.04</ele>
        <time>2017-08-07T08:14:49Z</time>
      </trkpt>
      <trkpt lat="48.7337" lon="4.58969">
        <ele>102.04</ele>
        <time>2017-08-07T08:15:11Z</time>
      </trkpt>
      <trkpt lat="48.7337" lon="4.5897">
        <ele>102.04</ele>
        <time>2017-08-07T08:15:28Z</time>
      </trkpt>
      <trkpt lat="48.73371" lon="4.5897">
        <ele>102.04</ele>
        <time>2017-08-07T08:15:46Z</time>
      </trkpt>
      <trkpt lat="48.7337" lon="4.5897">
        <ele>102.04</ele>
        <time>2017-08-07T08:16:02Z</time>
      </trkpt>
      <trkpt lat="48.73369" lon="4.58969">
        <ele>102.04</ele>
        <time>2017-08-07T08:16:20Z</time>
      </trkpt>
      <trkpt lat="48.73367" lon="4.58969">
        <ele>102.04</ele>
        <time>2017-08-07T08:16:37Z</time>
      </trkpt>
      <trkpt lat="48.73358" lon="4.58969">
        <ele>102.04</ele>
        <time>2017-08-07T08:16:48Z</time>
      </trkpt>
      <trkpt lat="48.73338" lon="4.58967">
        <ele>102.04</ele>
        <time>2017-08-07T08:16:56Z</time>
      </trkpt>
      <trkpt lat="48.7329" lon="4.58963">
        <ele>102.52</ele>
        <time>2017-08-07T08:17:09Z</time>
      </trkpt>
      <trkpt lat="48.73274" lon="4.58959">
        <ele>102.52</ele>
        <time>2017-08-07T08:17:13Z</time>
      </trkpt>
      <trkpt lat="48.73208" lon="4.58923">
        <ele>103</ele>
        <time>2017-08-07T08:17:29Z</time>
      </trkpt>
      <trkpt lat="48.73204" lon="4.5892">
        <ele>103</ele>
        <time>2017-08-07T08:17:30Z</time>
      </trkpt>
      <trkpt lat="48.73169" lon="4.58893">
        <ele>103</ele>
        <time>2017-08-07T08:17:39Z</time>
      </trkpt>
      <trkpt lat="48.73165" lon="4.5889">
        <ele>103</ele>
        <time>2017-08-07T08:17:40Z</time>
      </trkpt>
      <trkpt lat="48.73161" lon="4.58887">
        <ele>103</ele>
        <time>2017-08-07T08:17:41Z</time>
      </trkpt>
      <trkpt lat="48.73136" lon="4.58871">
        <ele>103</ele>
        <time>2017-08-07T08:17:47Z</time>
      </trkpt>
      <trkpt lat="48.73131" lon="4.58868">
        <ele>103</ele>
        <time>2017-08-07T08:17:48Z</time>
      </trkpt>
      <trkpt lat="48.73114" lon="4.58856">
        <ele>103</ele>
        <time>2017-08-07T08:17:52Z</time>
      </trkpt>
      <trkpt lat="48.73073" lon="4.5883">
        <ele>103</ele>
        <time>2017-08-07T08:18:02Z</time>
      </trkpt>
      <trkpt lat="48.73011" lon="4.58789">
        <ele>103</ele>
        <time>2017-08-07T08:18:16Z</time>
      </trkpt>
      <trkpt lat="48.72945" lon="4.58745">
        <ele>103.48</ele>
        <time>2017-08-07T08:18:31Z</time>
      </trkpt>
      <trkpt lat="48.72915" lon="4.58714">
        <ele>103.48</ele>
        <time>2017-08-07T08:18:41Z</time>
      </trkpt>
      <trkpt lat="48.72915" lon="4.58711">
        <ele>103.48</ele>
        <time>2017-08-07T08:18:42Z</time>
      </trkpt>
      <trkpt lat="48.72916" lon="4.58708">
        <ele>103.48</ele>
        <time>2017-08-07T08:18:43Z</time>
      </trkpt>
      <trkpt lat="48.72917" lon="4.58705">
        <ele>103.96</ele>
        <time>2017-08-07T08:18:44Z</time>
      </trkpt>
      <trkpt lat="48.72918" lon="4.58702">
        <ele>103.96</ele>
        <time>2017-08-07T08:18:45Z</time>
      </trkpt>
      <trkpt lat="48.72927" lon="4.58664">
        <ele>103.96</ele>
        <time>2017-08-07T08:18:54Z</time>
      </trkpt>
      <trkpt lat="48.72926" lon="4.58662">
        <ele>103.96</ele>
        <time>2017-08-07T08:18:55Z</time>
      </trkpt>
      <trkpt lat="48.72925" lon="4.5866">
        <ele>103.96</ele>
        <time>2017-08-07T08:18:56Z</time>
      </trkpt>
      <trkpt lat="48.72923" lon="4.58659">
        <ele>103.96</ele>
        <time>2017-08-07T08:18:57Z</time>
      </trkpt>
      <trkpt lat="48.72921" lon="4.58658">
        <ele>103.96</ele>
        <time>2017-08-07T08:18:58Z</time>
      </trkpt>
      <trkpt lat="48.72918" lon="4.58659">
        <ele>103.96</ele>
        <time>2017-08-07T08:18:59Z</time>
      </trkpt>
      <trkpt lat="48.72915" lon="4.5866">
        <ele>103.96</ele>
        <time>2017-08-07T08:19:01Z</time>
      </trkpt>
      <trkpt lat="48.72894" lon="4.58672">
        <ele>104.92</ele>
        <time>2017-08-07T08:19:09Z</time>
      </trkpt>
      <trkpt lat="48.72892" lon="4.58672">
        <ele>104.92</ele>
        <time>2017-08-07T08:19:10Z</time>
      </trkpt>
      <trkpt lat="48.7289" lon="4.58672">
        <ele>104.92</ele>
        <time>2017-08-07T08:19:11Z</time>
      </trkpt>
      <trkpt lat="48.72888" lon="4.58671">
        <ele>104.92</ele>
        <time>2017-08-07T08:19:12Z</time>
      </trkpt>
      <trkpt lat="48.72881" lon="4.58678">
        <ele>104.92</ele>
        <time>2017-08-07T08:19:15Z</time>
      </trkpt>
      <trkpt lat="48.72866" lon="4.5869">
        <ele>104.92</ele>
        <time>2017-08-07T08:19:19Z</time>
      </trkpt>
      <trkpt lat="48.72862" lon="4.58692">
        <ele>104.92</ele>
        <time>2017-08-07T08:19:21Z</time>
      </trkpt>
      <trkpt lat="48.72857" lon="4.58692">
        <ele>104.92</ele>
        <time>2017-08-07T08:19:22Z</time>
      </trkpt>
      <trkpt lat="48.72854" lon="4.58691">
        <ele>104.92</ele>
        <time>2017-08-07T08:19:23Z</time>
      </trkpt>
      <trkpt lat="48.72851" lon="4.5869">
        <ele>104.92</ele>
        <time>2017-08-07T08:19:24Z</time>
      </trkpt>
      <trkpt lat="48.72848" lon="4.58688">
        <ele>104.92</ele>
        <time>2017-08-07T08:19:25Z</time>
      </trkpt>
      <trkpt lat="48.72845" lon="4.58687">
        <ele>104.92</ele>
        <time>2017-08-07T08:19:26Z</time>
      </trkpt>
      <trkpt lat="48.72801" lon="4.58658">
        <ele>104.92</ele>
        <time>2017-08-07T08:19:40Z</time>
      </trkpt>
      <trkpt lat="48.72774" lon="4.58644">
        <ele>104.92</ele>
        <time>2017-08-07T08:19:51Z</time>
      </trkpt>
      <trkpt lat="48.72722" lon="4.58609">
        <ele>103.48</ele>
        <time>2017-08-07T08:20:05Z</time>
      </trkpt>
      <trkpt lat="48.72672" lon="4.58574">
        <ele>103.48</ele>
        <time>2017-08-07T08:20:18Z</time>
      </trkpt>
      <trkpt lat="48.72643" lon="4.58554">
        <ele>103.48</ele>
        <time>2017-08-07T08:20:29Z</time>
      </trkpt>
      <trkpt lat="48.72644" lon="4.58552">
        <ele>103.48</ele>
        <time>2017-08-07T08:20:40Z</time>
      </trkpt>
      <trkpt lat="48.72646" lon="4.58544">
        <ele>103.48</ele>
        <time>2017-08-07T08:20:54Z</time>
      </trkpt>
      <trkpt lat="48.72645" lon="4.58543">
        <ele>103.48</ele>
        <time>2017-08-07T08:20:56Z</time>
      </trkpt>
      <trkpt lat="48.72643" lon="4.58543">
        <ele>103.48</ele>
        <time>2017-08-07T08:20:57Z</time>
      </trkpt>
      <trkpt lat="48.72627" lon="4.58543">
        <ele>103</ele>
        <time>2017-08-07T08:21:03Z</time>
      </trkpt>
      <trkpt lat="48.72624" lon="4.58542">
        <ele>103</ele>
        <time>2017-08-07T08:21:04Z</time>
      </trkpt>
      <trkpt lat="48.72622" lon="4.58539">
        <ele>103</ele>
        <time>2017-08-07T08:21:05Z</time>
      </trkpt>
      <trkpt lat="48.72593" lon="4.58505">
        <ele>103</ele>
        <time>2017-08-07T08:21:17Z</time>
      </trkpt>
      <trkpt lat="48.72566" lon="4.58509">
        <ele>103</ele>
        <time>2017-08-07T08:21:25Z</time>
      </trkpt>
      <trkpt lat="48.72564" lon="4.58514">
        <ele>103</ele>
        <time>2017-08-07T08:21:26Z</time>
      </trkpt>
      <trkpt lat="48.72553" lon="4.58551">
        <ele>103</ele>
        <time>2017-08-07T08:21:38Z</time>
      </trkpt>
      <trkpt lat="48.72551" lon="4.58551">
        <ele>103</ele>
        <time>2017-08-07T08:21:39Z</time>
      </trkpt>
      <trkpt lat="48.72544" lon="4.58554">
        <ele>103</ele>
        <time>2017-08-07T08:21:44Z</time>
      </trkpt>
      <trkpt lat="48.72542" lon="4.58555">
        <ele>103</ele>
        <time>2017-08-07T08:21:45Z</time>
      </trkpt>
      <trkpt lat="48.72539" lon="4.58557">
        <ele>103</ele>
        <time>2017-08-07T08:21:46Z</time>
      </trkpt>
      <trkpt lat="48.72536" lon="4.58558">
        <ele>103</ele>
        <time>2017-08-07T08:21:48Z</time>
      </trkpt>
      <trkpt lat="48.72535" lon="4.58558">
        <ele>103</ele>
        <time>2017-08-07T08:21:49Z</time>
      </trkpt>
      <trkpt lat="48.72533" lon="4.58558">
        <ele>103</ele>
        <time>2017-08-07T08:21:58Z</time>
      </trkpt>
      <trkpt lat="48.72535" lon="4.58561">
        <ele>103</ele>
        <time>2017-08-07T08:22:15Z</time>
      </trkpt>
      <trkpt lat="48.72538" lon="4.58561">
        <ele>103</ele>
        <time>2017-08-07T08:22:29Z</time>
      </trkpt>
      <trkpt lat="48.7254" lon="4.5856">
        <ele>103</ele>
        <time>2017-08-07T08:22:53Z</time>
      </trkpt>
      <trkpt lat="48.72546" lon="4.58566">
        <ele>103</ele>
        <time>2017-08-07T08:23:18Z</time>
      </trkpt>
      <trkpt lat="48.72552" lon="4.58568">
        <ele>103.48</ele>
        <time>2017-08-07T08:23:47Z</time>
      </trkpt>
      <trkpt lat="48.72552" lon="4.58565">
        <ele>103.48</ele>
        <time>2017-08-07T08:24:06Z</time>
      </trkpt>
      <trkpt lat="48.72552" lon="4.58569">
        <ele>103.96</ele>
        <time>2017-08-07T08:24:22Z</time>
      </trkpt>
      <trkpt lat="48.72551" lon="4.5857">
        <ele>103.96</ele>
        <time>2017-08-07T08:24:37Z</time>
      </trkpt>
      <trkpt lat="48.72552" lon="4.5857">
        <ele>103.96</ele>
        <time>2017-08-07T08:24:53Z</time>
      </trkpt>
      <trkpt lat="48.72551" lon="4.58571">
        <ele>103.96</ele>
        <time>2017-08-07T08:25:06Z</time>
      </trkpt>
      <trkpt lat="48.72551" lon="4.58571">
        <ele>104.44</ele>
        <time>2017-08-07T08:25:19Z</time>
      </trkpt>
      <trkpt lat="48.72551" lon="4.5857">
        <ele>105.4</ele>
        <time>2017-08-07T08:25:31Z</time>
      </trkpt>
      <trkpt lat="48.72553" lon="4.58566">
        <ele>105.88</ele>
        <time>2017-08-07T08:25:45Z</time>
      </trkpt>
      <trkpt lat="48.72553" lon="4.58563">
        <ele>105.88</ele>
        <time>2017-08-07T08:26:01Z</time>
      </trkpt>
      <trkpt lat="48.72552" lon="4.58567">
        <ele>106.36</ele>
        <time>2017-08-07T08:26:17Z</time>
      </trkpt>
      <trkpt lat="48.72551" lon="4.5857">
        <ele>106.36</ele>
        <time>2017-08-07T08:26:32Z</time>
      </trkpt>
      <trkpt lat="48.7255" lon="4.58569">
        <ele>106.36</ele>
        <time>2017-08-07T08:26:49Z</time>
      </trkpt>
      <trkpt lat="48.72549" lon="4.58575">
        <ele>106.84</ele>
        <time>2017-08-07T08:27:04Z</time>
      </trkpt>
      <trkpt lat="48.72549" lon="4.58574">
        <ele>106.84</ele>
        <time>2017-08-07T08:27:22Z</time>
      </trkpt>
      <trkpt lat="48.72551" lon="4.58572">
        <ele>106.84</ele>
        <time>2017-08-07T08:27:40Z</time>
      </trkpt>
      <trkpt lat="48.72548" lon="4.58571">
        <ele>107.32</ele>
        <time>2017-08-07T08:28:00Z</time>
      </trkpt>
      <trkpt lat="48.72548" lon="4.58573">
        <ele>107.32</ele>
        <time>2017-08-07T08:28:17Z</time>
      </trkpt>
      <trkpt lat="48.72548" lon="4.58577">
        <ele>107.81</ele>
        <time>2017-08-07T08:28:32Z</time>
      </trkpt>
      <trkpt lat="48.72547" lon="4.58576">
        <ele>107.81</ele>
        <time>2017-08-07T08:28:45Z</time>
      </trkpt>
      <trkpt lat="48.72546" lon="4.58576">
        <ele>108.29</ele>
        <time>2017-08-07T08:29:00Z</time>
      </trkpt>
      <trkpt lat="48.72545" lon="4.58576">
        <ele>108.29</ele>
        <time>2017-08-07T08:29:13Z</time>
      </trkpt>
      <trkpt lat="48.72544" lon="4.58571">
        <ele>108.29</ele>
        <time>2017-08-07T08:29:36Z</time>
      </trkpt>
      <trkpt lat="48.72549" lon="4.58575">
        <ele>109.25</ele>
        <time>2017-08-07T08:30:01Z</time>
      </trkpt>
      <trkpt lat="48.72549" lon="4.58572">
        <ele>109.25</ele>
        <time>2017-08-07T08:30:27Z</time>
      </trkpt>
      <trkpt lat="48.72548" lon="4.58572">
        <ele>109.73</ele>
        <time>2017-08-07T08:30:57Z</time>
      </trkpt>
      <trkpt lat="48.72549" lon="4.58574">
        <ele>109.73</ele>
        <time>2017-08-07T08:31:19Z</time>
      </trkpt>
      <trkpt lat="48.7255" lon="4.58577">
        <ele>110.21</ele>
        <time>2017-08-07T08:31:53Z</time>
      </trkpt>
      <trkpt lat="48.72551" lon="4.5858">
        <ele>110.69</ele>
        <time>2017-08-07T08:32:30Z</time>
      </trkpt>
      <trkpt lat="48.72551" lon="4.58579">
        <ele>110.69</ele>
        <time>2017-08-07T08:33:05Z</time>
      </trkpt>
      <trkpt lat="48.72552" lon="4.58578">
        <ele>111.17</ele>
        <time>2017-08-07T08:33:19Z</time>
      </trkpt>
      <trkpt lat="48.72554" lon="4.5858">
        <ele>111.17</ele>
        <time>2017-08-07T08:33:48Z</time>
      </trkpt>
      <trkpt lat="48.72551" lon="4.58581">
        <ele>111.17</ele>
        <time>2017-08-07T08:34:19Z</time>
      </trkpt>
      <trkpt lat="48.72551" lon="4.5858">
        <ele>111.65</ele>
        <time>2017-08-07T08:34:57Z</time>
      </trkpt>
      <trkpt lat="48.72556" lon="4.5858">
        <ele>111.65</ele>
        <time>2017-08-07T08:35:28Z</time>
      </trkpt>
      <trkpt lat="48.7255" lon="4.58575">
        <ele>111.65</ele>
        <time>2017-08-07T08:36:11Z</time>
      </trkpt>
      <trkpt lat="48.72544" lon="4.58573">
        <ele>111.65</ele>
        <time>2017-08-07T08:36:48Z</time>
      </trkpt>
      <trkpt lat="48.7255" lon="4.58575">
        <ele>111.65</ele>
        <time>2017-08-07T08:37:27Z</time>
      </trkpt>
      <trkpt lat="48.72545" lon="4.58572">
        <ele>111.65</ele>
        <time>2017-08-07T08:37:54Z</time>
      </trkpt>
      <trkpt lat="48.72546" lon="4.58574">
        <ele>111.65</ele>
        <time>2017-08-07T08:38:22Z</time>
      </trkpt>
      <trkpt lat="48.72544" lon="4.58572">
        <ele>112.13</ele>
        <time>2017-08-07T08:39:01Z</time>
      </trkpt>
      <trkpt lat="48.72546" lon="4.58575">
        <ele>112.13</ele>
        <time>2017-08-07T08:39:27Z</time>
      </trkpt>
      <trkpt lat="48.72546" lon="4.58581">
        <ele>112.13</ele>
        <time>2017-08-07T08:39:57Z</time>
      </trkpt>
      <trkpt lat="48.72548" lon="4.58582">
        <ele>112.13</ele>
        <time>2017-08-07T08:40:34Z</time>
      </trkpt>
      <trkpt lat="48.72543" lon="4.58581">
        <ele>112.13</ele>
        <time>2017-08-07T08:41:02Z</time>
      </trkpt>
      <trkpt lat="48.72541" lon="4.58577">
        <ele>112.13</ele>
        <time>2017-08-07T08:41:35Z</time>
      </trkpt>
      <trkpt lat="48.7254" lon="4.58573">
        <ele>112.13</ele>
        <time>2017-08-07T08:41:59Z</time>
      </trkpt>
      <trkpt lat="48.72539" lon="4.5857">
        <ele>112.13</ele>
        <time>2017-08-07T08:42:23Z</time>
      </trkpt>
      <trkpt lat="48.72539" lon="4.5857">
        <ele>112.13</ele>
        <time>2017-08-07T08:42:45Z</time>
      </trkpt>
      <trkpt lat="48.7254" lon="4.5857">
        <ele>112.61</ele>
        <time>2017-08-07T08:43:00Z</time>
      </trkpt>
      <trkpt lat="48.72545" lon="4.58578">
        <ele>112.61</ele>
        <time>2017-08-07T08:43:27Z</time>
      </trkpt>
      <trkpt lat="48.72554" lon="4.58588">
        <ele>112.61</ele>
        <time>2017-08-07T08:43:56Z</time>
      </trkpt>
      <trkpt lat="48.72551" lon="4.58589">
        <ele>112.61</ele>
        <time>2017-08-07T08:44:30Z</time>
      </trkpt>
      <trkpt lat="48.72552" lon="4.58587">
        <ele>112.13</ele>
        <time>2017-08-07T08:45:00Z</time>
      </trkpt>
      <trkpt lat="48.72557" lon="4.58598">
        <ele>112.13</ele>
        <time>2017-08-07T08:45:30Z</time>
      </trkpt>
      <trkpt lat="48.72552" lon="4.58588">
        <ele>112.13</ele>
        <time>2017-08-07T08:45:56Z</time>
      </trkpt>
      <trkpt lat="48.72549" lon="4.58583">
        <ele>112.13</ele>
        <time>2017-08-07T08:46:37Z</time>
      </trkpt>
      <trkpt lat="48.72548" lon="4.58582">
        <ele>112.13</ele>
        <time>2017-08-07T08:46:42Z</time>
      </trkpt>
      <trkpt lat="48.72548" lon="4.58578">
        <ele>112.13</ele>
        <time>2017-08-07T08:46:53Z</time>
      </trkpt>
      <trkpt lat="48.72552" lon="4.58527">
        <ele>114.05</ele>
        <time>2017-08-07T09:19:35Z</time>
      </trkpt>
      <trkpt lat="48.72557" lon="4.58524">
        <ele>115.01</ele>
        <time>2017-08-07T09:19:58Z</time>
      </trkpt>
      <trkpt lat="48.72555" lon="4.58531">
        <ele>115.01</ele>
        <time>2017-08-07T09:20:21Z</time>
      </trkpt>
      <trkpt lat="48.72556" lon="4.58525">
        <ele>115.5</ele>
        <time>2017-08-07T09:20:41Z</time>
      </trkpt>
      <trkpt lat="48.72559" lon="4.58522">
        <ele>115.5</ele>
        <time>2017-08-07T09:20:58Z</time>
      </trkpt>
      <trkpt lat="48.72569" lon="4.5851">
        <ele>115.01</ele>
        <time>2017-08-07T09:21:07Z</time>
      </trkpt>
      <trkpt lat="48.72572" lon="4.58511">
        <ele>115.01</ele>
        <time>2017-08-07T09:21:08Z</time>
      </trkpt>
      <trkpt lat="48.72574" lon="4.58512">
        <ele>115.01</ele>
        <time>2017-08-07T09:21:09Z</time>
      </trkpt>
      <trkpt lat="48.72577" lon="4.58513">
        <ele>115.5</ele>
        <time>2017-08-07T09:21:10Z</time>
      </trkpt>
      <trkpt lat="48.7258" lon="4.58515">
        <ele>115.5</ele>
        <time>2017-08-07T09:21:11Z</time>
      </trkpt>
      <trkpt lat="48.72596" lon="4.58517">
        <ele>115.5</ele>
        <time>2017-08-07T09:21:19Z</time>
      </trkpt>
      <trkpt lat="48.72598" lon="4.58515">
        <ele>115.98</ele>
        <time>2017-08-07T09:21:22Z</time>
      </trkpt>
      <trkpt lat="48.72602" lon="4.58507">
        <ele>115.98</ele>
        <time>2017-08-07T09:21:27Z</time>
      </trkpt>
      <trkpt lat="48.72603" lon="4.58506">
        <ele>115.98</ele>
        <time>2017-08-07T09:21:28Z</time>
      </trkpt>
      <trkpt lat="48.72604" lon="4.58504">
        <ele>115.98</ele>
        <time>2017-08-07T09:21:29Z</time>
      </trkpt>
      <trkpt lat="48.72606" lon="4.58502">
        <ele>115.98</ele>
        <time>2017-08-07T09:21:30Z</time>
      </trkpt>
      <trkpt lat="48.72606" lon="4.58499">
        <ele>115.98</ele>
        <time>2017-08-07T09:21:31Z</time>
      </trkpt>
      <trkpt lat="48.72607" lon="4.58496">
        <ele>115.98</ele>
        <time>2017-08-07T09:21:32Z</time>
      </trkpt>
      <trkpt lat="48.72609" lon="4.58493">
        <ele>115.98</ele>
        <time>2017-08-07T09:21:33Z</time>
      </trkpt>
      <trkpt lat="48.7261" lon="4.58489">
        <ele>115.5</ele>
        <time>2017-08-07T09:21:34Z</time>
      </trkpt>
      <trkpt lat="48.72612" lon="4.58486">
        <ele>115.5</ele>
        <time>2017-08-07T09:21:35Z</time>
      </trkpt>
      <trkpt lat="48.72617" lon="4.58475">
        <ele>115.5</ele>
        <time>2017-08-07T09:21:47Z</time>
      </trkpt>
      <trkpt lat="48.72619" lon="4.5847">
        <ele>114.53</ele>
        <time>2017-08-07T09:21:50Z</time>
      </trkpt>
      <trkpt lat="48.72627" lon="4.58431">
        <ele>114.53</ele>
        <time>2017-08-07T09:22:01Z</time>
      </trkpt>
      <trkpt lat="48.72643" lon="4.58373">
        <ele>114.05</ele>
        <time>2017-08-07T09:22:13Z</time>
      </trkpt>
      <trkpt lat="48.72668" lon="4.58293">
        <ele>113.57</ele>
        <time>2017-08-07T09:22:28Z</time>
      </trkpt>
      <trkpt lat="48.72699" lon="4.58191">
        <ele>112.13</ele>
        <time>2017-08-07T09:22:44Z</time>
      </trkpt>
      <trkpt lat="48.72713" lon="4.58163">
        <ele>112.13</ele>
        <time>2017-08-07T09:22:55Z</time>
      </trkpt>
      <trkpt lat="48.7273" lon="4.58132">
        <ele>112.13</ele>
        <time>2017-08-07T09:23:04Z</time>
      </trkpt>
      <trkpt lat="48.7273" lon="4.58126">
        <ele>112.13</ele>
        <time>2017-08-07T09:23:05Z</time>
      </trkpt>
      <trkpt lat="48.7273" lon="4.58119">
        <ele>112.13</ele>
        <time>2017-08-07T09:23:06Z</time>
      </trkpt>
      <trkpt lat="48.72729" lon="4.58102">
        <ele>112.13</ele>
        <time>2017-08-07T09:23:09Z</time>
      </trkpt>
      <trkpt lat="48.7273" lon="4.58095">
        <ele>112.13</ele>
        <time>2017-08-07T09:23:10Z</time>
      </trkpt>
      <trkpt lat="48.7273" lon="4.58089">
        <ele>112.13</ele>
        <time>2017-08-07T09:23:11Z</time>
      </trkpt>
      <trkpt lat="48.72732" lon="4.58083">
        <ele>112.13</ele>
        <time>2017-08-07T09:23:12Z</time>
      </trkpt>
      <trkpt lat="48.72733" lon="4.58078">
        <ele>112.13</ele>
        <time>2017-08-07T09:23:13Z</time>
      </trkpt>
      <trkpt lat="48.72735" lon="4.58072">
        <ele>112.13</ele>
        <time>2017-08-07T09:23:14Z</time>
      </trkpt>
      <trkpt lat="48.72769" lon="4.57956">
        <ele>111.65</ele>
        <time>2017-08-07T09:23:33Z</time>
      </trkpt>
      <trkpt lat="48.72801" lon="4.57846">
        <ele>111.65</ele>
        <time>2017-08-07T09:23:51Z</time>
      </trkpt>
      <trkpt lat="48.72826" lon="4.57761">
        <ele>112.61</ele>
        <time>2017-08-07T09:24:07Z</time>
      </trkpt>
      <trkpt lat="48.72856" lon="4.57657">
        <ele>113.57</ele>
        <time>2017-08-07T09:24:28Z</time>
      </trkpt>
      <trkpt lat="48.72884" lon="4.57562">
        <ele>111.17</ele>
        <time>2017-08-07T09:24:46Z</time>
      </trkpt>
      <trkpt lat="48.72898" lon="4.57517">
        <ele>111.17</ele>
        <time>2017-08-07T09:24:54Z</time>
      </trkpt>
      <trkpt lat="48.72901" lon="4.57513">
        <ele>111.17</ele>
        <time>2017-08-07T09:24:57Z</time>
      </trkpt>
      <trkpt lat="48.72901" lon="4.57512">
        <ele>111.17</ele>
        <time>2017-08-07T09:24:58Z</time>
      </trkpt>
      <trkpt lat="48.72901" lon="4.5751">
        <ele>111.17</ele>
        <time>2017-08-07T09:24:59Z</time>
      </trkpt>
      <trkpt lat="48.72902" lon="4.57508">
        <ele>111.17</ele>
        <time>2017-08-07T09:25:01Z</time>
      </trkpt>
      <trkpt lat="48.72902" lon="4.57507">
        <ele>110.21</ele>
        <time>2017-08-07T09:25:03Z</time>
      </trkpt>
      <trkpt lat="48.72902" lon="4.57507">
        <ele>111.17</ele>
        <time>2017-08-07T09:25:09Z</time>
      </trkpt>
      <trkpt lat="48.72902" lon="4.57507">
        <ele>111.17</ele>
        <time>2017-08-07T09:25:10Z</time>
      </trkpt>
      <trkpt lat="48.72902" lon="4.57509">
        <ele>111.17</ele>
        <time>2017-08-07T09:25:20Z</time>
      </trkpt>
      <trkpt lat="48.729" lon="4.57512">
        <ele>111.65</ele>
        <time>2017-08-07T09:25:36Z</time>
      </trkpt>
      <trkpt lat="48.72899" lon="4.57514">
        <ele>111.65</ele>
        <time>2017-08-07T09:25:37Z</time>
      </trkpt>
      <trkpt lat="48.72899" lon="4.57516">
        <ele>111.65</ele>
        <time>2017-08-07T09:25:38Z</time>
      </trkpt>
      <trkpt lat="48.72897" lon="4.57519">
        <ele>111.65</ele>
        <time>2017-08-07T09:25:39Z</time>
      </trkpt>
      <trkpt lat="48.72896" lon="4.57522">
        <ele>111.65</ele>
        <time>2017-08-07T09:25:40Z</time>
      </trkpt>
      <trkpt lat="48.72895" lon="4.57525">
        <ele>111.65</ele>
        <time>2017-08-07T09:25:41Z</time>
      </trkpt>
      <trkpt lat="48.72895" lon="4.57528">
        <ele>111.65</ele>
        <time>2017-08-07T09:25:42Z</time>
      </trkpt>
      <trkpt lat="48.72894" lon="4.57531">
        <ele>111.65</ele>
        <time>2017-08-07T09:25:43Z</time>
      </trkpt>
      <trkpt lat="48.72888" lon="4.57548">
        <ele>111.65</ele>
        <time>2017-08-07T09:25:50Z</time>
      </trkpt>
      <trkpt lat="48.72888" lon="4.5755">
        <ele>111.65</ele>
        <time>2017-08-07T09:25:51Z</time>
      </trkpt>
      <trkpt lat="48.72888" lon="4.57552">
        <ele>111.65</ele>
        <time>2017-08-07T09:25:52Z</time>
      </trkpt>
      <trkpt lat="48.72889" lon="4.57549">
        <ele>112.61</ele>
        <time>2017-08-07T09:26:00Z</time>
      </trkpt>
      <trkpt lat="48.72889" lon="4.5755">
        <ele>112.13</ele>
        <time>2017-08-07T09:26:19Z</time>
      </trkpt>
      <trkpt lat="48.72888" lon="4.57548">
        <ele>112.13</ele>
        <time>2017-08-07T09:26:45Z</time>
      </trkpt>
      <trkpt lat="48.72889" lon="4.57546">
        <ele>112.13</ele>
        <time>2017-08-07T09:26:46Z</time>
      </trkpt>
      <trkpt lat="48.72889" lon="4.57544">
        <ele>112.13</ele>
        <time>2017-08-07T09:26:47Z</time>
      </trkpt>
      <trkpt lat="48.72889" lon="4.57541">
        <ele>112.13</ele>
        <time>2017-08-07T09:26:48Z</time>
      </trkpt>
      <trkpt lat="48.72889" lon="4.57539">
        <ele>112.13</ele>
        <time>2017-08-07T09:26:49Z</time>
      </trkpt>
      <trkpt lat="48.72888" lon="4.57536">
        <ele>112.13</ele>
        <time>2017-08-07T09:26:50Z</time>
      </trkpt>
      <trkpt lat="48.72886" lon="4.57534">
        <ele>112.13</ele>
        <time>2017-08-07T09:26:51Z</time>
      </trkpt>
      <trkpt lat="48.72884" lon="4.57531">
        <ele>112.13</ele>
        <time>2017-08-07T09:26:52Z</time>
      </trkpt>
      <trkpt lat="48.72882" lon="4.57528">
        <ele>111.17</ele>
        <time>2017-08-07T09:26:53Z</time>
      </trkpt>
      <trkpt lat="48.72879" lon="4.57523">
        <ele>111.17</ele>
        <time>2017-08-07T09:26:54Z</time>
      </trkpt>
      <trkpt lat="48.72873" lon="4.57512">
        <ele>110.21</ele>
        <time>2017-08-07T09:26:56Z</time>
      </trkpt>
      <trkpt lat="48.72862" lon="4.57476">
        <ele>109.73</ele>
        <time>2017-08-07T09:27:01Z</time>
      </trkpt>
      <trkpt lat="48.72861" lon="4.57471">
        <ele>109.73</ele>
        <time>2017-08-07T09:27:02Z</time>
      </trkpt>
      <trkpt lat="48.72858" lon="4.57461">
        <ele>109.25</ele>
        <time>2017-08-07T09:27:05Z</time>
      </trkpt>
      <trkpt lat="48.72856" lon="4.57461">
        <ele>109.25</ele>
        <time>2017-08-07T09:27:06Z</time>
      </trkpt>
      <trkpt lat="48.72826" lon="4.57452">
        <ele>109.73</ele>
        <time>2017-08-07T09:27:16Z</time>
      </trkpt>
      <trkpt lat="48.72812" lon="4.57442">
        <ele>109.25</ele>
        <time>2017-08-07T09:27:20Z</time>
      </trkpt>
      <trkpt lat="48.72747" lon="4.57416">
        <ele>108.77</ele>
        <time>2017-08-07T09:27:36Z</time>
      </trkpt>
      <trkpt lat="48.72748" lon="4.57415">
        <ele>110.21</ele>
        <time>2017-08-07T09:27:42Z</time>
      </trkpt>
      <trkpt lat="48.72748" lon="4.57415">
        <ele>108.77</ele>
        <time>2017-08-07T09:27:44Z</time>
      </trkpt>
      <trkpt lat="48.72747" lon="4.57414">
        <ele>108.29</ele>
        <time>2017-08-07T09:28:18Z</time>
      </trkpt>
      <trkpt lat="48.72748" lon="4.57414">
        <ele>108.29</ele>
        <time>2017-08-07T09:28:47Z</time>
      </trkpt>
      <trkpt lat="48.72748" lon="4.57415">
        <ele>108.29</ele>
        <time>2017-08-07T09:29:04Z</time>
      </trkpt>
      <trkpt lat="48.72749" lon="4.57414">
        <ele>108.29</ele>
        <time>2017-08-07T09:29:24Z</time>
      </trkpt>
      <trkpt lat="48.72748" lon="4.57414">
        <ele>107.81</ele>
        <time>2017-08-07T09:29:52Z</time>
      </trkpt>
      <trkpt lat="48.72748" lon="4.57415">
        <ele>107.81</ele>
        <time>2017-08-07T09:30:17Z</time>
      </trkpt>
      <trkpt lat="48.72748" lon="4.57415">
        <ele>107.81</ele>
        <time>2017-08-07T09:30:39Z</time>
      </trkpt>
      <trkpt lat="48.72732" lon="4.57413">
        <ele>108.77</ele>
        <time>2017-08-07T09:30:54Z</time>
      </trkpt>
      <trkpt lat="48.72715" lon="4.57415">
        <ele>108.77</ele>
        <time>2017-08-07T09:30:58Z</time>
      </trkpt>
      <trkpt lat="48.72687" lon="4.57412">
        <ele>107.81</ele>
        <time>2017-08-07T09:31:04Z</time>
      </trkpt>
      <trkpt lat="48.72672" lon="4.57411">
        <ele>107.81</ele>
        <time>2017-08-07T09:31:07Z</time>
      </trkpt>
      <trkpt lat="48.72662" lon="4.5741">
        <ele>107.81</ele>
        <time>2017-08-07T09:31:09Z</time>
      </trkpt>
      <trkpt lat="48.72657" lon="4.57409">
        <ele>107.32</ele>
        <time>2017-08-07T09:31:10Z</time>
      </trkpt>
      <trkpt lat="48.72652" lon="4.57408">
        <ele>107.32</ele>
        <time>2017-08-07T09:31:11Z</time>
      </trkpt>
      <trkpt lat="48.72648" lon="4.57405">
        <ele>107.32</ele>
        <time>2017-08-07T09:31:12Z</time>
      </trkpt>
      <trkpt lat="48.72644" lon="4.57401">
        <ele>107.32</ele>
        <time>2017-08-07T09:31:13Z</time>
      </trkpt>
      <trkpt lat="48.72641" lon="4.57397">
        <ele>107.32</ele>
        <time>2017-08-07T09:31:14Z</time>
      </trkpt>
      <trkpt lat="48.72639" lon="4.57391">
        <ele>107.32</ele>
        <time>2017-08-07T09:31:15Z</time>
      </trkpt>
      <trkpt lat="48.72623" lon="4.57367">
        <ele>107.32</ele>
        <time>2017-08-07T09:31:21Z</time>
      </trkpt>
      <trkpt lat="48.7262" lon="4.57364">
        <ele>107.32</ele>
        <time>2017-08-07T09:31:22Z</time>
      </trkpt>
      <trkpt lat="48.72617" lon="4.5736">
        <ele>107.32</ele>
        <time>2017-08-07T09:31:23Z</time>
      </trkpt>
      <trkpt lat="48.72614" lon="4.57356">
        <ele>107.32</ele>
        <time>2017-08-07T09:31:24Z</time>
      </trkpt>
      <trkpt lat="48.72611" lon="4.57352">
        <ele>107.32</ele>
        <time>2017-08-07T09:31:25Z</time>
      </trkpt>
      <trkpt lat="48.72608" lon="4.57347">
        <ele>107.32</ele>
        <time>2017-08-07T09:31:26Z</time>
      </trkpt>
      <trkpt lat="48.72605" lon="4.57343">
        <ele>107.32</ele>
        <time>2017-08-07T09:31:27Z</time>
      </trkpt>
      <trkpt lat="48.72602" lon="4.57338">
        <ele>107.32</ele>
        <time>2017-08-07T09:31:28Z</time>
      </trkpt>
      <trkpt lat="48.726" lon="4.57332">
        <ele>107.32</ele>
        <time>2017-08-07T09:31:29Z</time>
      </trkpt>
      <trkpt lat="48.72593" lon="4.57308">
        <ele>107.32</ele>
        <time>2017-08-07T09:31:33Z</time>
      </trkpt>
      <trkpt lat="48.72591" lon="4.57302">
        <ele>107.32</ele>
        <time>2017-08-07T09:31:34Z</time>
      </trkpt>
      <trkpt lat="48.7259" lon="4.57295">
        <ele>107.32</ele>
        <time>2017-08-07T09:31:35Z</time>
      </trkpt>
      <trkpt lat="48.72589" lon="4.57289">
        <ele>107.32</ele>
        <time>2017-08-07T09:31:36Z</time>
      </trkpt>
      <trkpt lat="48.72587" lon="4.57284">
        <ele>107.32</ele>
        <time>2017-08-07T09:31:37Z</time>
      </trkpt>
      <trkpt lat="48.72585" lon="4.57279">
        <ele>107.32</ele>
        <time>2017-08-07T09:31:38Z</time>
      </trkpt>
      <trkpt lat="48.72582" lon="4.57267">
        <ele>107.32</ele>
        <time>2017-08-07T09:31:40Z</time>
      </trkpt>
      <trkpt lat="48.72558" lon="4.57183">
        <ele>107.32</ele>
        <time>2017-08-07T09:31:55Z</time>
      </trkpt>
      <trkpt lat="48.72531" lon="4.5709">
        <ele>107.32</ele>
        <time>2017-08-07T09:32:13Z</time>
      </trkpt>
      <trkpt lat="48.72514" lon="4.57025">
        <ele>108.29</ele>
        <time>2017-08-07T09:32:25Z</time>
      </trkpt>
      <trkpt lat="48.72499" lon="4.56954">
        <ele>108.29</ele>
        <time>2017-08-07T09:32:38Z</time>
      </trkpt>
      <trkpt lat="48.72495" lon="4.56937">
        <ele>108.29</ele>
        <time>2017-08-07T09:32:41Z</time>
      </trkpt>
      <trkpt lat="48.72494" lon="4.56931">
        <ele>108.29</ele>
        <time>2017-08-07T09:32:42Z</time>
      </trkpt>
      <trkpt lat="48.72479" lon="4.56837">
        <ele>108.29</ele>
        <time>2017-08-07T09:32:56Z</time>
      </trkpt>
      <trkpt lat="48.72475" lon="4.56826">
        <ele>108.29</ele>
        <time>2017-08-07T09:32:58Z</time>
      </trkpt>
      <trkpt lat="48.72468" lon="4.56802">
        <ele>106.84</ele>
        <time>2017-08-07T09:33:02Z</time>
      </trkpt>
      <trkpt lat="48.72466" lon="4.56797">
        <ele>106.84</ele>
        <time>2017-08-07T09:33:03Z</time>
      </trkpt>
      <trkpt lat="48.72464" lon="4.5679">
        <ele>106.36</ele>
        <time>2017-08-07T09:33:04Z</time>
      </trkpt>
      <trkpt lat="48.72463" lon="4.56786">
        <ele>106.36</ele>
        <time>2017-08-07T09:33:05Z</time>
      </trkpt>
      <trkpt lat="48.7246" lon="4.56783">
        <ele>106.36</ele>
        <time>2017-08-07T09:33:06Z</time>
      </trkpt>
      <trkpt lat="48.72458" lon="4.56781">
        <ele>106.36</ele>
        <time>2017-08-07T09:33:07Z</time>
      </trkpt>
      <trkpt lat="48.72456" lon="4.56779">
        <ele>106.36</ele>
        <time>2017-08-07T09:33:08Z</time>
      </trkpt>
      <trkpt lat="48.72455" lon="4.56775">
        <ele>106.36</ele>
        <time>2017-08-07T09:33:09Z</time>
      </trkpt>
      <trkpt lat="48.72453" lon="4.56772">
        <ele>106.36</ele>
        <time>2017-08-07T09:33:10Z</time>
      </trkpt>
      <trkpt lat="48.72433" lon="4.56718">
        <ele>107.81</ele>
        <time>2017-08-07T09:33:23Z</time>
      </trkpt>
      <trkpt lat="48.72453" lon="4.56693">
        <ele>108.29</ele>
        <time>2017-08-07T09:33:32Z</time>
      </trkpt>
      <trkpt lat="48.72529" lon="4.56656">
        <ele>107.81</ele>
        <time>2017-08-07T09:33:51Z</time>
      </trkpt>
      <trkpt lat="48.72566" lon="4.56632">
        <ele>107.81</ele>
        <time>2017-08-07T09:34:00Z</time>
      </trkpt>
      <trkpt lat="48.72598" lon="4.56608">
        <ele>107.81</ele>
        <time>2017-08-07T09:34:08Z</time>
      </trkpt>
      <trkpt lat="48.72655" lon="4.56556">
        <ele>107.81</ele>
        <time>2017-08-07T09:34:24Z</time>
      </trkpt>
      <trkpt lat="48.72662" lon="4.56548">
        <ele>107.81</ele>
        <time>2017-08-07T09:34:26Z</time>
      </trkpt>
      <trkpt lat="48.72713" lon="4.56477">
        <ele>106.84</ele>
        <time>2017-08-07T09:34:42Z</time>
      </trkpt>
      <trkpt lat="48.72721" lon="4.56463">
        <ele>106.84</ele>
        <time>2017-08-07T09:34:45Z</time>
      </trkpt>
      <trkpt lat="48.72723" lon="4.56458">
        <ele>106.84</ele>
        <time>2017-08-07T09:34:46Z</time>
      </trkpt>
      <trkpt lat="48.72725" lon="4.56452">
        <ele>106.84</ele>
        <time>2017-08-07T09:34:47Z</time>
      </trkpt>
      <trkpt lat="48.72726" lon="4.56446">
        <ele>106.84</ele>
        <time>2017-08-07T09:34:48Z</time>
      </trkpt>
      <trkpt lat="48.72727" lon="4.5644">
        <ele>106.84</ele>
        <time>2017-08-07T09:34:49Z</time>
      </trkpt>
      <trkpt lat="48.72727" lon="4.56434">
        <ele>106.84</ele>
        <time>2017-08-07T09:34:50Z</time>
      </trkpt>
      <trkpt lat="48.72727" lon="4.56427">
        <ele>106.84</ele>
        <time>2017-08-07T09:34:51Z</time>
      </trkpt>
      <trkpt lat="48.72726" lon="4.56421">
        <ele>106.84</ele>
        <time>2017-08-07T09:34:52Z</time>
      </trkpt>
      <trkpt lat="48.72717" lon="4.56298">
        <ele>106.84</ele>
        <time>2017-08-07T09:35:11Z</time>
      </trkpt>
      <trkpt lat="48.72711" lon="4.56179">
        <ele>106.36</ele>
        <time>2017-08-07T09:35:28Z</time>
      </trkpt>
      <trkpt lat="48.72708" lon="4.56094">
        <ele>106.36</ele>
        <time>2017-08-07T09:35:40Z</time>
      </trkpt>
      <trkpt lat="48.72707" lon="4.56087">
        <ele>106.36</ele>
        <time>2017-08-07T09:35:41Z</time>
      </trkpt>
      <trkpt lat="48.72706" lon="4.5608">
        <ele>106.36</ele>
        <time>2017-08-07T09:35:42Z</time>
      </trkpt>
      <trkpt lat="48.72706" lon="4.56072">
        <ele>106.36</ele>
        <time>2017-08-07T09:35:43Z</time>
      </trkpt>
      <trkpt lat="48.72705" lon="4.56065">
        <ele>106.36</ele>
        <time>2017-08-07T09:35:44Z</time>
      </trkpt>
      <trkpt lat="48.72696" lon="4.55953">
        <ele>106.36</ele>
        <time>2017-08-07T09:36:00Z</time>
      </trkpt>
      <trkpt lat="48.72693" lon="4.55914">
        <ele>106.36</ele>
        <time>2017-08-07T09:36:07Z</time>
      </trkpt>
      <trkpt lat="48.72678" lon="4.5583">
        <ele>106.36</ele>
        <time>2017-08-07T09:36:21Z</time>
      </trkpt>
      <trkpt lat="48.72676" lon="4.55824">
        <ele>106.36</ele>
        <time>2017-08-07T09:36:22Z</time>
      </trkpt>
      <trkpt lat="48.72675" lon="4.55819">
        <ele>106.36</ele>
        <time>2017-08-07T09:36:23Z</time>
      </trkpt>
      <trkpt lat="48.72673" lon="4.55812">
        <ele>106.36</ele>
        <time>2017-08-07T09:36:24Z</time>
      </trkpt>
      <trkpt lat="48.72672" lon="4.55807">
        <ele>106.36</ele>
        <time>2017-08-07T09:36:25Z</time>
      </trkpt>
      <trkpt lat="48.7267" lon="4.55801">
        <ele>106.36</ele>
        <time>2017-08-07T09:36:26Z</time>
      </trkpt>
      <trkpt lat="48.72669" lon="4.55796">
        <ele>106.36</ele>
        <time>2017-08-07T09:36:27Z</time>
      </trkpt>
      <trkpt lat="48.72644" lon="4.55699">
        <ele>108.29</ele>
        <time>2017-08-07T09:36:45Z</time>
      </trkpt>
      <trkpt lat="48.72625" lon="4.55636">
        <ele>108.77</ele>
        <time>2017-08-07T09:36:57Z</time>
      </trkpt>
      <trkpt lat="48.72622" lon="4.55624">
        <ele>108.77</ele>
        <time>2017-08-07T09:36:59Z</time>
      </trkpt>
      <trkpt lat="48.726" lon="4.55554">
        <ele>109.25</ele>
        <time>2017-08-07T09:37:11Z</time>
      </trkpt>
      <trkpt lat="48.72599" lon="4.55548">
        <ele>109.25</ele>
        <time>2017-08-07T09:37:12Z</time>
      </trkpt>
      <trkpt lat="48.72597" lon="4.55542">
        <ele>109.25</ele>
        <time>2017-08-07T09:37:13Z</time>
      </trkpt>
      <trkpt lat="48.72573" lon="4.55457">
        <ele>109.73</ele>
        <time>2017-08-07T09:37:29Z</time>
      </trkpt>
      <trkpt lat="48.72571" lon="4.5544">
        <ele>110.21</ele>
        <time>2017-08-07T09:37:34Z</time>
      </trkpt>
      <trkpt lat="48.7257" lon="4.55439">
        <ele>110.21</ele>
        <time>2017-08-07T09:37:35Z</time>
      </trkpt>
      <trkpt lat="48.72568" lon="4.55437">
        <ele>110.69</ele>
        <time>2017-08-07T09:37:36Z</time>
      </trkpt>
      <trkpt lat="48.72566" lon="4.55436">
        <ele>110.69</ele>
        <time>2017-08-07T09:37:37Z</time>
      </trkpt>
      <trkpt lat="48.72563" lon="4.55435">
        <ele>110.69</ele>
        <time>2017-08-07T09:37:38Z</time>
      </trkpt>
      <trkpt lat="48.72537" lon="4.55422">
        <ele>111.17</ele>
        <time>2017-08-07T09:37:49Z</time>
      </trkpt>
      <trkpt lat="48.72535" lon="4.55421">
        <ele>111.17</ele>
        <time>2017-08-07T09:38:00Z</time>
      </trkpt>
      <trkpt lat="48.72536" lon="4.55421">
        <ele>111.17</ele>
        <time>2017-08-07T09:38:38Z</time>
      </trkpt>
      <trkpt lat="48.72537" lon="4.55421">
        <ele>111.17</ele>
        <time>2017-08-07T09:39:16Z</time>
      </trkpt>
      <trkpt lat="48.72537" lon="4.5542">
        <ele>110.69</ele>
        <time>2017-08-07T09:39:49Z</time>
      </trkpt>
      <trkpt lat="48.72536" lon="4.55418">
        <ele>110.69</ele>
        <time>2017-08-07T09:40:29Z</time>
      </trkpt>
      <trkpt lat="48.72535" lon="4.55421">
        <ele>110.69</ele>
        <time>2017-08-07T09:41:12Z</time>
      </trkpt>
      <trkpt lat="48.72536" lon="4.55421">
        <ele>110.21</ele>
        <time>2017-08-07T09:41:38Z</time>
      </trkpt>
      <trkpt lat="48.72537" lon="4.55419">
        <ele>110.69</ele>
        <time>2017-08-07T09:42:16Z</time>
      </trkpt>
      <trkpt lat="48.72537" lon="4.55419">
        <ele>110.69</ele>
        <time>2017-08-07T09:42:39Z</time>
      </trkpt>
      <trkpt lat="48.72537" lon="4.55422">
        <ele>110.69</ele>
        <time>2017-08-07T09:43:07Z</time>
      </trkpt>
      <trkpt lat="48.72537" lon="4.55423">
        <ele>110.21</ele>
        <time>2017-08-07T09:43:43Z</time>
      </trkpt>
      <trkpt lat="48.72538" lon="4.55423">
        <ele>110.21</ele>
        <time>2017-08-07T09:44:17Z</time>
      </trkpt>
      <trkpt lat="48.72538" lon="4.55423">
        <ele>110.21</ele>
        <time>2017-08-07T09:44:55Z</time>
      </trkpt>
      <trkpt lat="48.72536" lon="4.55422">
        <ele>110.21</ele>
        <time>2017-08-07T09:45:33Z</time>
      </trkpt>
      <trkpt lat="48.72539" lon="4.55425">
        <ele>110.21</ele>
        <time>2017-08-07T09:45:43Z</time>
      </trkpt>
      <trkpt lat="48.72566" lon="4.55432">
        <ele>110.21</ele>
        <time>2017-08-07T09:45:55Z</time>
      </trkpt>
      <trkpt lat="48.72567" lon="4.5543">
        <ele>110.21</ele>
        <time>2017-08-07T09:45:56Z</time>
      </trkpt>
      <trkpt lat="48.72569" lon="4.55428">
        <ele>110.21</ele>
        <time>2017-08-07T09:45:57Z</time>
      </trkpt>
      <trkpt lat="48.72577" lon="4.55376">
        <ele>110.21</ele>
        <time>2017-08-07T09:46:08Z</time>
      </trkpt>
      <trkpt lat="48.72574" lon="4.55283">
        <ele>110.69</ele>
        <time>2017-08-07T09:46:25Z</time>
      </trkpt>
      <trkpt lat="48.72548" lon="4.552">
        <ele>112.13</ele>
        <time>2017-08-07T09:46:44Z</time>
      </trkpt>
      <trkpt lat="48.72522" lon="4.55103">
        <ele>112.61</ele>
        <time>2017-08-07T09:47:03Z</time>
      </trkpt>
      <trkpt lat="48.72496" lon="4.54996">
        <ele>113.57</ele>
        <time>2017-08-07T09:47:22Z</time>
      </trkpt>
      <trkpt lat="48.72471" lon="4.54897">
        <ele>115.01</ele>
        <time>2017-08-07T09:47:41Z</time>
      </trkpt>
      <trkpt lat="48.72447" lon="4.54831">
        <ele>117.42</ele>
        <time>2017-08-07T09:47:58Z</time>
      </trkpt>
      <trkpt lat="48.72402" lon="4.54838">
        <ele>117.42</ele>
        <time>2017-08-07T09:48:12Z</time>
      </trkpt>
      <trkpt lat="48.72341" lon="4.54871">
        <ele>118.86</ele>
        <time>2017-08-07T09:48:31Z</time>
      </trkpt>
      <trkpt lat="48.72318" lon="4.54885">
        <ele>119.34</ele>
        <time>2017-08-07T09:48:41Z</time>
      </trkpt>
      <trkpt lat="48.72316" lon="4.54885">
        <ele>119.34</ele>
        <time>2017-08-07T09:48:42Z</time>
      </trkpt>
      <trkpt lat="48.72314" lon="4.54886">
        <ele>119.34</ele>
        <time>2017-08-07T09:48:43Z</time>
      </trkpt>
      <trkpt lat="48.72282" lon="4.54907">
        <ele>122.22</ele>
        <time>2017-08-07T09:49:00Z</time>
      </trkpt>
      <trkpt lat="48.7226" lon="4.54921">
        <ele>124.15</ele>
        <time>2017-08-07T09:49:16Z</time>
      </trkpt>
      <trkpt lat="48.72232" lon="4.54937">
        <ele>126.55</ele>
        <time>2017-08-07T09:49:36Z</time>
      </trkpt>
      <trkpt lat="48.72196" lon="4.54947">
        <ele>127.99</ele>
        <time>2017-08-07T09:49:55Z</time>
      </trkpt>
      <trkpt lat="48.72149" lon="4.54936">
        <ele>127.99</ele>
        <time>2017-08-07T09:50:10Z</time>
      </trkpt>
      <trkpt lat="48.72085" lon="4.54903">
        <ele>128.47</ele>
        <time>2017-08-07T09:50:28Z</time>
      </trkpt>
      <trkpt lat="48.72032" lon="4.54886">
        <ele>128.47</ele>
        <time>2017-08-07T09:50:43Z</time>
      </trkpt>
      <trkpt lat="48.71957" lon="4.54884">
        <ele>128.95</ele>
        <time>2017-08-07T09:51:05Z</time>
      </trkpt>
      <trkpt lat="48.71895" lon="4.54875">
        <ele>129.43</ele>
        <time>2017-08-07T09:51:24Z</time>
      </trkpt>
      <trkpt lat="48.71846" lon="4.54827">
        <ele>130.4</ele>
        <time>2017-08-07T09:51:42Z</time>
      </trkpt>
      <trkpt lat="48.71787" lon="4.54764">
        <ele>132.8</ele>
        <time>2017-08-07T09:52:06Z</time>
      </trkpt>
      <trkpt lat="48.71735" lon="4.54731">
        <ele>135.2</ele>
        <time>2017-08-07T09:52:27Z</time>
      </trkpt>
      <trkpt lat="48.71699" lon="4.54712">
        <ele>135.68</ele>
        <time>2017-08-07T09:52:43Z</time>
      </trkpt>
      <trkpt lat="48.71691" lon="4.54705">
        <ele>135.68</ele>
        <time>2017-08-07T09:52:47Z</time>
      </trkpt>
      <trkpt lat="48.71664" lon="4.54681">
        <ele>135.68</ele>
        <time>2017-08-07T09:52:59Z</time>
      </trkpt>
      <trkpt lat="48.7163" lon="4.54646">
        <ele>135.68</ele>
        <time>2017-08-07T09:53:14Z</time>
      </trkpt>
      <trkpt lat="48.71598" lon="4.54619">
        <ele>135.68</ele>
        <time>2017-08-07T09:53:26Z</time>
      </trkpt>
      <trkpt lat="48.71595" lon="4.54616">
        <ele>135.68</ele>
        <time>2017-08-07T09:53:27Z</time>
      </trkpt>
      <trkpt lat="48.71531" lon="4.54567">
        <ele>134.72</ele>
        <time>2017-08-07T09:53:42Z</time>
      </trkpt>
      <trkpt lat="48.71439" lon="4.54516">
        <ele>132.8</ele>
        <time>2017-08-07T09:54:00Z</time>
      </trkpt>
      <trkpt lat="48.7136" lon="4.54523">
        <ele>132.32</ele>
        <time>2017-08-07T09:54:16Z</time>
      </trkpt>
      <trkpt lat="48.71265" lon="4.54544">
        <ele>129.43</ele>
        <time>2017-08-07T09:54:32Z</time>
      </trkpt>
      <trkpt lat="48.71144" lon="4.54556">
        <ele>125.59</ele>
        <time>2017-08-07T09:54:50Z</time>
      </trkpt>
      <trkpt lat="48.71033" lon="4.54542">
        <ele>122.71</ele>
        <time>2017-08-07T09:55:05Z</time>
      </trkpt>
      <trkpt lat="48.70907" lon="4.54521">
        <ele>119.34</ele>
        <time>2017-08-07T09:55:23Z</time>
      </trkpt>
      <trkpt lat="48.70817" lon="4.54506">
        <ele>117.42</ele>
        <time>2017-08-07T09:55:37Z</time>
      </trkpt>
      <trkpt lat="48.70743" lon="4.54489">
        <ele>115.01</ele>
        <time>2017-08-07T09:55:51Z</time>
      </trkpt>
      <trkpt lat="48.70736" lon="4.54488">
        <ele>114.53</ele>
        <time>2017-08-07T09:55:54Z</time>
      </trkpt>
      <trkpt lat="48.70733" lon="4.5449">
        <ele>115.01</ele>
        <time>2017-08-07T09:55:55Z</time>
      </trkpt>
      <trkpt lat="48.70732" lon="4.54493">
        <ele>114.53</ele>
        <time>2017-08-07T09:55:56Z</time>
      </trkpt>
      <trkpt lat="48.70731" lon="4.54497">
        <ele>114.53</ele>
        <time>2017-08-07T09:55:57Z</time>
      </trkpt>
      <trkpt lat="48.7073" lon="4.54502">
        <ele>114.53</ele>
        <time>2017-08-07T09:55:58Z</time>
      </trkpt>
      <trkpt lat="48.70715" lon="4.54593">
        <ele>114.05</ele>
        <time>2017-08-07T09:56:13Z</time>
      </trkpt>
      <trkpt lat="48.707" lon="4.5469">
        <ele>112.13</ele>
        <time>2017-08-07T09:56:26Z</time>
      </trkpt>
      <trkpt lat="48.70658" lon="4.54808">
        <ele>111.17</ele>
        <time>2017-08-07T09:56:41Z</time>
      </trkpt>
      <trkpt lat="48.7065" lon="4.54847">
        <ele>111.17</ele>
        <time>2017-08-07T09:56:48Z</time>
      </trkpt>
      <trkpt lat="48.70651" lon="4.54848">
        <ele>111.17</ele>
        <time>2017-08-07T09:56:49Z</time>
      </trkpt>
      <trkpt lat="48.70653" lon="4.54846">
        <ele>111.17</ele>
        <time>2017-08-07T09:56:50Z</time>
      </trkpt>
      <trkpt lat="48.70654" lon="4.54844">
        <ele>111.17</ele>
        <time>2017-08-07T09:56:51Z</time>
      </trkpt>
      <trkpt lat="48.70654" lon="4.54841">
        <ele>111.17</ele>
        <time>2017-08-07T09:56:52Z</time>
      </trkpt>
      <trkpt lat="48.70654" lon="4.54839">
        <ele>111.17</ele>
        <time>2017-08-07T09:56:53Z</time>
      </trkpt>
      <trkpt lat="48.70654" lon="4.54836">
        <ele>111.17</ele>
        <time>2017-08-07T09:56:54Z</time>
      </trkpt>
      <trkpt lat="48.70654" lon="4.54825">
        <ele>111.17</ele>
        <time>2017-08-07T09:56:57Z</time>
      </trkpt>
      <trkpt lat="48.70653" lon="4.54823">
        <ele>111.17</ele>
        <time>2017-08-07T09:56:58Z</time>
      </trkpt>
      <trkpt lat="48.70621" lon="4.54815">
        <ele>110.69</ele>
        <time>2017-08-07T09:57:08Z</time>
      </trkpt>
      <trkpt lat="48.70576" lon="4.54817">
        <ele>109.73</ele>
        <time>2017-08-07T09:57:20Z</time>
      </trkpt>
      <trkpt lat="48.70517" lon="4.54818">
        <ele>109.73</ele>
        <time>2017-08-07T09:57:34Z</time>
      </trkpt>
      <trkpt lat="48.70455" lon="4.54813">
        <ele>109.73</ele>
        <time>2017-08-07T09:57:52Z</time>
      </trkpt>
      <trkpt lat="48.70427" lon="4.54801">
        <ele>111.17</ele>
        <time>2017-08-07T09:58:03Z</time>
      </trkpt>
      <trkpt lat="48.70397" lon="4.5479">
        <ele>112.61</ele>
        <time>2017-08-07T09:58:18Z</time>
      </trkpt>
      <trkpt lat="48.7036" lon="4.54772">
        <ele>114.53</ele>
        <time>2017-08-07T09:58:36Z</time>
      </trkpt>
      <trkpt lat="48.70347" lon="4.54765">
        <ele>115.5</ele>
        <time>2017-08-07T09:58:43Z</time>
      </trkpt>
      <trkpt lat="48.70346" lon="4.54762">
        <ele>115.5</ele>
        <time>2017-08-07T09:58:44Z</time>
      </trkpt>
      <trkpt lat="48.70346" lon="4.54758">
        <ele>115.5</ele>
        <time>2017-08-07T09:58:45Z</time>
      </trkpt>
      <trkpt lat="48.70346" lon="4.54754">
        <ele>115.5</ele>
        <time>2017-08-07T09:58:46Z</time>
      </trkpt>
      <trkpt lat="48.70346" lon="4.5475">
        <ele>115.5</ele>
        <time>2017-08-07T09:58:47Z</time>
      </trkpt>
      <trkpt lat="48.70346" lon="4.54745">
        <ele>115.5</ele>
        <time>2017-08-07T09:58:48Z</time>
      </trkpt>
      <trkpt lat="48.70346" lon="4.54679">
        <ele>115.5</ele>
        <time>2017-08-07T09:59:02Z</time>
      </trkpt>
      <trkpt lat="48.70347" lon="4.54592">
        <ele>115.98</ele>
        <time>2017-08-07T09:59:18Z</time>
      </trkpt>
      <trkpt lat="48.70347" lon="4.54501">
        <ele>116.46</ele>
        <time>2017-08-07T09:59:34Z</time>
      </trkpt>
      <trkpt lat="48.70347" lon="4.54413">
        <ele>116.94</ele>
        <time>2017-08-07T09:59:49Z</time>
      </trkpt>
      <trkpt lat="48.70347" lon="4.54299">
        <ele>117.9</ele>
        <time>2017-08-07T10:00:08Z</time>
      </trkpt>
      <trkpt lat="48.70349" lon="4.54194">
        <ele>118.86</ele>
        <time>2017-08-07T10:00:26Z</time>
      </trkpt>
      <trkpt lat="48.70344" lon="4.54116">
        <ele>118.86</ele>
        <time>2017-08-07T10:00:40Z</time>
      </trkpt>
      <trkpt lat="48.70339" lon="4.54024">
        <ele>119.34</ele>
        <time>2017-08-07T10:00:57Z</time>
      </trkpt>
      <trkpt lat="48.70323" lon="4.53944">
        <ele>120.78</ele>
        <time>2017-08-07T10:01:16Z</time>
      </trkpt>
      <trkpt lat="48.70299" lon="4.53939">
        <ele>122.71</ele>
        <time>2017-08-07T10:01:29Z</time>
      </trkpt>
      <trkpt lat="48.70271" lon="4.53934">
        <ele>125.11</ele>
        <time>2017-08-07T10:01:45Z</time>
      </trkpt>
      <trkpt lat="48.70246" lon="4.53928">
        <ele>127.03</ele>
        <time>2017-08-07T10:02:01Z</time>
      </trkpt>
      <trkpt lat="48.70243" lon="4.53926">
        <ele>127.03</ele>
        <time>2017-08-07T10:02:03Z</time>
      </trkpt>
      <trkpt lat="48.70241" lon="4.53926">
        <ele>127.03</ele>
        <time>2017-08-07T10:02:04Z</time>
      </trkpt>
      <trkpt lat="48.70213" lon="4.53922">
        <ele>127.03</ele>
        <time>2017-08-07T10:02:13Z</time>
      </trkpt>
      <trkpt lat="48.70209" lon="4.53922">
        <ele>127.03</ele>
        <time>2017-08-07T10:02:14Z</time>
      </trkpt>
      <trkpt lat="48.70194" lon="4.53923">
        <ele>125.59</ele>
        <time>2017-08-07T10:02:17Z</time>
      </trkpt>
      <trkpt lat="48.70157" lon="4.53934">
        <ele>122.22</ele>
        <time>2017-08-07T10:02:23Z</time>
      </trkpt>
      <trkpt lat="48.7015" lon="4.53938">
        <ele>121.74</ele>
        <time>2017-08-07T10:02:24Z</time>
      </trkpt>
      <trkpt lat="48.70142" lon="4.53943">
        <ele>121.74</ele>
        <time>2017-08-07T10:02:25Z</time>
      </trkpt>
      <trkpt lat="48.7012" lon="4.53961">
        <ele>118.86</ele>
        <time>2017-08-07T10:02:28Z</time>
      </trkpt>
      <trkpt lat="48.70087" lon="4.53985">
        <ele>115.98</ele>
        <time>2017-08-07T10:02:32Z</time>
      </trkpt>
      <trkpt lat="48.70078" lon="4.53992">
        <ele>115.98</ele>
        <time>2017-08-07T10:02:33Z</time>
      </trkpt>
      <trkpt lat="48.70061" lon="4.54004">
        <ele>114.53</ele>
        <time>2017-08-07T10:02:35Z</time>
      </trkpt>
      <trkpt lat="48.70024" lon="4.54025">
        <ele>112.13</ele>
        <time>2017-08-07T10:02:39Z</time>
      </trkpt>
      <trkpt lat="48.69907" lon="4.54074">
        <ele>111.17</ele>
        <time>2017-08-07T10:02:53Z</time>
      </trkpt>
      <trkpt lat="48.6981" lon="4.54087">
        <ele>110.69</ele>
        <time>2017-08-07T10:03:07Z</time>
      </trkpt>
      <trkpt lat="48.69712" lon="4.54112">
        <ele>110.69</ele>
        <time>2017-08-07T10:03:24Z</time>
      </trkpt>
      <trkpt lat="48.69624" lon="4.54129">
        <ele>112.13</ele>
        <time>2017-08-07T10:03:42Z</time>
      </trkpt>
      <trkpt lat="48.6962" lon="4.5413">
        <ele>112.13</ele>
        <time>2017-08-07T10:03:43Z</time>
      </trkpt>
      <trkpt lat="48.69615" lon="4.5413">
        <ele>112.13</ele>
        <time>2017-08-07T10:03:44Z</time>
      </trkpt>
      <trkpt lat="48.69563" lon="4.5412">
        <ele>114.05</ele>
        <time>2017-08-07T10:04:00Z</time>
      </trkpt>
      <trkpt lat="48.6952" lon="4.54114">
        <ele>115.5</ele>
        <time>2017-08-07T10:04:16Z</time>
      </trkpt>
      <trkpt lat="48.69479" lon="4.54114">
        <ele>115.98</ele>
        <time>2017-08-07T10:04:31Z</time>
      </trkpt>
      <trkpt lat="48.69477" lon="4.54116">
        <ele>115.98</ele>
        <time>2017-08-07T10:04:32Z</time>
      </trkpt>
      <trkpt lat="48.69476" lon="4.54119">
        <ele>115.98</ele>
        <time>2017-08-07T10:04:33Z</time>
      </trkpt>
      <trkpt lat="48.69475" lon="4.54124">
        <ele>115.98</ele>
        <time>2017-08-07T10:04:34Z</time>
      </trkpt>
      <trkpt lat="48.69476" lon="4.54166">
        <ele>114.53</ele>
        <time>2017-08-07T10:04:42Z</time>
      </trkpt>
      <trkpt lat="48.6948" lon="4.5422">
        <ele>114.05</ele>
        <time>2017-08-07T10:04:50Z</time>
      </trkpt>
      <trkpt lat="48.69484" lon="4.54249">
        <ele>113.57</ele>
        <time>2017-08-07T10:04:54Z</time>
      </trkpt>
      <trkpt lat="48.69499" lon="4.54322">
        <ele>112.61</ele>
        <time>2017-08-07T10:05:03Z</time>
      </trkpt>
      <trkpt lat="48.69523" lon="4.54457">
        <ele>111.17</ele>
        <time>2017-08-07T10:05:19Z</time>
      </trkpt>
      <trkpt lat="48.69542" lon="4.54535">
        <ele>111.17</ele>
        <time>2017-08-07T10:05:29Z</time>
      </trkpt>
      <trkpt lat="48.69543" lon="4.54542">
        <ele>111.17</ele>
        <time>2017-08-07T10:05:30Z</time>
      </trkpt>
      <trkpt lat="48.69543" lon="4.54549">
        <ele>111.17</ele>
        <time>2017-08-07T10:05:31Z</time>
      </trkpt>
      <trkpt lat="48.69546" lon="4.54602">
        <ele>111.17</ele>
        <time>2017-08-07T10:05:38Z</time>
      </trkpt>
      <trkpt lat="48.69556" lon="4.54755">
        <ele>110.69</ele>
        <time>2017-08-07T10:05:58Z</time>
      </trkpt>
      <trkpt lat="48.69562" lon="4.54863">
        <ele>110.69</ele>
        <time>2017-08-07T10:06:14Z</time>
      </trkpt>
      <trkpt lat="48.69557" lon="4.54903">
        <ele>110.69</ele>
        <time>2017-08-07T10:06:24Z</time>
      </trkpt>
      <trkpt lat="48.69567" lon="4.54933">
        <ele>111.65</ele>
        <time>2017-08-07T10:06:32Z</time>
      </trkpt>
      <trkpt lat="48.69569" lon="4.54939">
        <ele>111.65</ele>
        <time>2017-08-07T10:06:33Z</time>
      </trkpt>
      <trkpt lat="48.69583" lon="4.54983">
        <ele>110.69</ele>
        <time>2017-08-07T10:06:40Z</time>
      </trkpt>
      <trkpt lat="48.69621" lon="4.55111">
        <ele>110.69</ele>
        <time>2017-08-07T10:06:59Z</time>
      </trkpt>
      <trkpt lat="48.69648" lon="4.5522">
        <ele>111.65</ele>
        <time>2017-08-07T10:07:18Z</time>
      </trkpt>
      <trkpt lat="48.69668" lon="4.55349">
        <ele>111.65</ele>
        <time>2017-08-07T10:07:40Z</time>
      </trkpt>
      <trkpt lat="48.69684" lon="4.55469">
        <ele>111.65</ele>
        <time>2017-08-07T10:07:59Z</time>
      </trkpt>
      <trkpt lat="48.69691" lon="4.55538">
        <ele>111.65</ele>
        <time>2017-08-07T10:08:13Z</time>
      </trkpt>
      <trkpt lat="48.69693" lon="4.55536">
        <ele>112.13</ele>
        <time>2017-08-07T10:08:40Z</time>
      </trkpt>
      <trkpt lat="48.69692" lon="4.55534">
        <ele>112.61</ele>
        <time>2017-08-07T10:09:05Z</time>
      </trkpt>
      <trkpt lat="48.69692" lon="4.55538">
        <ele>112.61</ele>
        <time>2017-08-07T10:09:20Z</time>
      </trkpt>
      <trkpt lat="48.69693" lon="4.55552">
        <ele>112.13</ele>
        <time>2017-08-07T10:09:25Z</time>
      </trkpt>
      <trkpt lat="48.69692" lon="4.55555">
        <ele>112.13</ele>
        <time>2017-08-07T10:09:26Z</time>
      </trkpt>
      <trkpt lat="48.69689" lon="4.55558">
        <ele>112.13</ele>
        <time>2017-08-07T10:09:27Z</time>
      </trkpt>
      <trkpt lat="48.69687" lon="4.55559">
        <ele>112.13</ele>
        <time>2017-08-07T10:09:28Z</time>
      </trkpt>
      <trkpt lat="48.69685" lon="4.55561">
        <ele>112.61</ele>
        <time>2017-08-07T10:09:29Z</time>
      </trkpt>
      <trkpt lat="48.6966" lon="4.55569">
        <ele>114.05</ele>
        <time>2017-08-07T10:09:42Z</time>
      </trkpt>
      <trkpt lat="48.69616" lon="4.55581">
        <ele>115.5</ele>
        <time>2017-08-07T10:10:04Z</time>
      </trkpt>
      <trkpt lat="48.69586" lon="4.55589">
        <ele>117.42</ele>
        <time>2017-08-07T10:10:20Z</time>
      </trkpt>
      <trkpt lat="48.69556" lon="4.55597">
        <ele>119.34</ele>
        <time>2017-08-07T10:10:37Z</time>
      </trkpt>
      <trkpt lat="48.69523" lon="4.55604">
        <ele>121.74</ele>
        <time>2017-08-07T10:10:56Z</time>
      </trkpt>
      <trkpt lat="48.69493" lon="4.55612">
        <ele>123.67</ele>
        <time>2017-08-07T10:11:13Z</time>
      </trkpt>
      <trkpt lat="48.69465" lon="4.55618">
        <ele>125.59</ele>
        <time>2017-08-07T10:11:29Z</time>
      </trkpt>
      <trkpt lat="48.69438" lon="4.55625">
        <ele>127.51</ele>
        <time>2017-08-07T10:11:46Z</time>
      </trkpt>
      <trkpt lat="48.69412" lon="4.55631">
        <ele>130.4</ele>
        <time>2017-08-07T10:12:04Z</time>
      </trkpt>
      <trkpt lat="48.69387" lon="4.55636">
        <ele>132.32</ele>
        <time>2017-08-07T10:12:21Z</time>
      </trkpt>
      <trkpt lat="48.69365" lon="4.55641">
        <ele>134.24</ele>
        <time>2017-08-07T10:12:36Z</time>
      </trkpt>
      <trkpt lat="48.69333" lon="4.5566">
        <ele>135.2</ele>
        <time>2017-08-07T10:12:54Z</time>
      </trkpt>
      <trkpt lat="48.69313" lon="4.55704">
        <ele>136.16</ele>
        <time>2017-08-07T10:13:11Z</time>
      </trkpt>
      <trkpt lat="48.69297" lon="4.55747">
        <ele>138.57</ele>
        <time>2017-08-07T10:13:28Z</time>
      </trkpt>
      <trkpt lat="48.69282" lon="4.55792">
        <ele>140.49</ele>
        <time>2017-08-07T10:13:45Z</time>
      </trkpt>
      <trkpt lat="48.69277" lon="4.55805">
        <ele>140.49</ele>
        <time>2017-08-07T10:13:57Z</time>
      </trkpt>
      <trkpt lat="48.69277" lon="4.55805">
        <ele>140.97</ele>
        <time>2017-08-07T10:14:21Z</time>
      </trkpt>
      <trkpt lat="48.69263" lon="4.55848">
        <ele>140.01</ele>
        <time>2017-08-07T10:14:31Z</time>
      </trkpt>
      <trkpt lat="48.69261" lon="4.55855">
        <ele>140.01</ele>
        <time>2017-08-07T10:14:32Z</time>
      </trkpt>
      <trkpt lat="48.69237" lon="4.55928">
        <ele>139.53</ele>
        <time>2017-08-07T10:14:47Z</time>
      </trkpt>
      <trkpt lat="48.69215" lon="4.55989">
        <ele>141.93</ele>
        <time>2017-08-07T10:15:06Z</time>
      </trkpt>
      <trkpt lat="48.69195" lon="4.56036">
        <ele>143.85</ele>
        <time>2017-08-07T10:15:24Z</time>
      </trkpt>
      <trkpt lat="48.69192" lon="4.56043">
        <ele>143.85</ele>
        <time>2017-08-07T10:15:29Z</time>
      </trkpt>
      <trkpt lat="48.69193" lon="4.56045">
        <ele>143.85</ele>
        <time>2017-08-07T10:15:42Z</time>
      </trkpt>
      <trkpt lat="48.69192" lon="4.56046">
        <ele>143.37</ele>
        <time>2017-08-07T10:16:05Z</time>
      </trkpt>
      <trkpt lat="48.69191" lon="4.56047">
        <ele>143.37</ele>
        <time>2017-08-07T10:16:30Z</time>
      </trkpt>
      <trkpt lat="48.69185" lon="4.56062">
        <ele>144.34</ele>
        <time>2017-08-07T10:16:43Z</time>
      </trkpt>
      <trkpt lat="48.69177" lon="4.56076">
        <ele>144.34</ele>
        <time>2017-08-07T10:16:49Z</time>
      </trkpt>
      <trkpt lat="48.69176" lon="4.56079">
        <ele>144.82</ele>
        <time>2017-08-07T10:16:50Z</time>
      </trkpt>
      <trkpt lat="48.69175" lon="4.56082">
        <ele>144.82</ele>
        <time>2017-08-07T10:16:51Z</time>
      </trkpt>
      <trkpt lat="48.69174" lon="4.56085">
        <ele>144.82</ele>
        <time>2017-08-07T10:16:52Z</time>
      </trkpt>
      <trkpt lat="48.69173" lon="4.56087">
        <ele>144.82</ele>
        <time>2017-08-07T10:16:53Z</time>
      </trkpt>
      <trkpt lat="48.69172" lon="4.5609">
        <ele>144.82</ele>
        <time>2017-08-07T10:16:54Z</time>
      </trkpt>
      <trkpt lat="48.69148" lon="4.56134">
        <ele>146.74</ele>
        <time>2017-08-07T10:17:13Z</time>
      </trkpt>
      <trkpt lat="48.69125" lon="4.56166">
        <ele>148.18</ele>
        <time>2017-08-07T10:17:29Z</time>
      </trkpt>
      <trkpt lat="48.69098" lon="4.56175">
        <ele>149.62</ele>
        <time>2017-08-07T10:17:43Z</time>
      </trkpt>
      <trkpt lat="48.69064" lon="4.5616">
        <ele>151.54</ele>
        <time>2017-08-07T10:18:00Z</time>
      </trkpt>
      <trkpt lat="48.69029" lon="4.56136">
        <ele>153.95</ele>
        <time>2017-08-07T10:18:19Z</time>
      </trkpt>
      <trkpt lat="48.69001" lon="4.56112">
        <ele>155.39</ele>
        <time>2017-08-07T10:18:35Z</time>
      </trkpt>
      <trkpt lat="48.68976" lon="4.5609">
        <ele>158.27</ele>
        <time>2017-08-07T10:18:52Z</time>
      </trkpt>
      <trkpt lat="48.68954" lon="4.56074">
        <ele>160.2</ele>
        <time>2017-08-07T10:19:08Z</time>
      </trkpt>
      <trkpt lat="48.68938" lon="4.56068">
        <ele>160.68</ele>
        <time>2017-08-07T10:19:17Z</time>
      </trkpt>
      <trkpt lat="48.68938" lon="4.56067">
        <ele>161.16</ele>
        <time>2017-08-07T10:19:29Z</time>
      </trkpt>
      <trkpt lat="48.68938" lon="4.56066">
        <ele>161.16</ele>
        <time>2017-08-07T10:19:56Z</time>
      </trkpt>
      <trkpt lat="48.68937" lon="4.56066">
        <ele>161.16</ele>
        <time>2017-08-07T10:20:00Z</time>
      </trkpt>
      <trkpt lat="48.68936" lon="4.56066">
        <ele>161.16</ele>
        <time>2017-08-07T10:20:01Z</time>
      </trkpt>
      <trkpt lat="48.68934" lon="4.56066">
        <ele>161.16</ele>
        <time>2017-08-07T10:20:02Z</time>
      </trkpt>
      <trkpt lat="48.68932" lon="4.56066">
        <ele>161.16</ele>
        <time>2017-08-07T10:20:03Z</time>
      </trkpt>
      <trkpt lat="48.6893" lon="4.56065">
        <ele>161.16</ele>
        <time>2017-08-07T10:20:04Z</time>
      </trkpt>
      <trkpt lat="48.68928" lon="4.56065">
        <ele>161.16</ele>
        <time>2017-08-07T10:20:05Z</time>
      </trkpt>
      <trkpt lat="48.68925" lon="4.56064">
        <ele>161.16</ele>
        <time>2017-08-07T10:20:06Z</time>
      </trkpt>
      <trkpt lat="48.68923" lon="4.56064">
        <ele>161.16</ele>
        <time>2017-08-07T10:20:07Z</time>
      </trkpt>
      <trkpt lat="48.68897" lon="4.56059">
        <ele>161.16</ele>
        <time>2017-08-07T10:20:18Z</time>
      </trkpt>
      <trkpt lat="48.68895" lon="4.56059">
        <ele>161.16</ele>
        <time>2017-08-07T10:20:19Z</time>
      </trkpt>
      <trkpt lat="48.68857" lon="4.56049">
        <ele>159.72</ele>
        <time>2017-08-07T10:20:32Z</time>
      </trkpt>
      <trkpt lat="48.68842" lon="4.56042">
        <ele>158.75</ele>
        <time>2017-08-07T10:20:35Z</time>
      </trkpt>
      <trkpt lat="48.68836" lon="4.56041">
        <ele>158.75</ele>
        <time>2017-08-07T10:20:36Z</time>
      </trkpt>
      <trkpt lat="48.68822" lon="4.56039">
        <ele>156.35</ele>
        <time>2017-08-07T10:20:38Z</time>
      </trkpt>
      <trkpt lat="48.68792" lon="4.56033">
        <ele>152.51</ele>
        <time>2017-08-07T10:20:42Z</time>
      </trkpt>
      <trkpt lat="48.68765" lon="4.56029">
        <ele>149.14</ele>
        <time>2017-08-07T10:20:45Z</time>
      </trkpt>
      <trkpt lat="48.68735" lon="4.56027">
        <ele>145.78</ele>
        <time>2017-08-07T10:20:48Z</time>
      </trkpt>
      <trkpt lat="48.68713" lon="4.56024">
        <ele>142.41</ele>
        <time>2017-08-07T10:20:50Z</time>
      </trkpt>
      <trkpt lat="48.6869" lon="4.56019">
        <ele>138.09</ele>
        <time>2017-08-07T10:20:52Z</time>
      </trkpt>
      <trkpt lat="48.68653" lon="4.56013">
        <ele>134.72</ele>
        <time>2017-08-07T10:20:55Z</time>
      </trkpt>
      <trkpt lat="48.68617" lon="4.56009">
        <ele>131.36</ele>
        <time>2017-08-07T10:20:58Z</time>
      </trkpt>
      <trkpt lat="48.68605" lon="4.5601">
        <ele>130.4</ele>
        <time>2017-08-07T10:20:59Z</time>
      </trkpt>
      <trkpt lat="48.68593" lon="4.56013">
        <ele>129.43</ele>
        <time>2017-08-07T10:21:00Z</time>
      </trkpt>
      <trkpt lat="48.68581" lon="4.56017">
        <ele>127.51</ele>
        <time>2017-08-07T10:21:01Z</time>
      </trkpt>
      <trkpt lat="48.68569" lon="4.56022">
        <ele>126.55</ele>
        <time>2017-08-07T10:21:02Z</time>
      </trkpt>
      <trkpt lat="48.68558" lon="4.56026">
        <ele>126.55</ele>
        <time>2017-08-07T10:21:03Z</time>
      </trkpt>
      <trkpt lat="48.68451" lon="4.56066">
        <ele>123.19</ele>
        <time>2017-08-07T10:21:13Z</time>
      </trkpt>
      <trkpt lat="48.68429" lon="4.56068">
        <ele>123.19</ele>
        <time>2017-08-07T10:21:19Z</time>
      </trkpt>
      <trkpt lat="48.68429" lon="4.56069">
        <ele>124.63</ele>
        <time>2017-08-07T10:21:23Z</time>
      </trkpt>
      <trkpt lat="48.68427" lon="4.5607">
        <ele>124.63</ele>
        <time>2017-08-07T10:21:38Z</time>
      </trkpt>
      <trkpt lat="48.68428" lon="4.5607">
        <ele>124.63</ele>
        <time>2017-08-07T10:22:06Z</time>
      </trkpt>
      <trkpt lat="48.68429" lon="4.5607">
        <ele>124.63</ele>
        <time>2017-08-07T10:22:32Z</time>
      </trkpt>
      <trkpt lat="48.68428" lon="4.56071">
        <ele>124.63</ele>
        <time>2017-08-07T10:23:05Z</time>
      </trkpt>
      <trkpt lat="48.68428" lon="4.5607">
        <ele>124.63</ele>
        <time>2017-08-07T10:23:36Z</time>
      </trkpt>
      <trkpt lat="48.68428" lon="4.5607">
        <ele>124.63</ele>
        <time>2017-08-07T10:24:17Z</time>
      </trkpt>
      <trkpt lat="48.68428" lon="4.5607">
        <ele>124.63</ele>
        <time>2017-08-07T10:24:52Z</time>
      </trkpt>
      <trkpt lat="48.68427" lon="4.5607">
        <ele>124.63</ele>
        <time>2017-08-07T10:25:21Z</time>
      </trkpt>
      <trkpt lat="48.68408" lon="4.56071">
        <ele>124.63</ele>
        <time>2017-08-07T10:25:31Z</time>
      </trkpt>
      <trkpt lat="48.68375" lon="4.56074">
        <ele>125.11</ele>
        <time>2017-08-07T10:25:46Z</time>
      </trkpt>
      <trkpt lat="48.68338" lon="4.56079">
        <ele>126.55</ele>
        <time>2017-08-07T10:26:04Z</time>
      </trkpt>
      <trkpt lat="48.68315" lon="4.56081">
        <ele>127.99</ele>
        <time>2017-08-07T10:26:18Z</time>
      </trkpt>
      <trkpt lat="48.68293" lon="4.56088">
        <ele>130.4</ele>
        <time>2017-08-07T10:26:34Z</time>
      </trkpt>
      <trkpt lat="48.68268" lon="4.56099">
        <ele>133.28</ele>
        <time>2017-08-07T10:26:51Z</time>
      </trkpt>
      <trkpt lat="48.68248" lon="4.56105">
        <ele>135.2</ele>
        <time>2017-08-07T10:27:05Z</time>
      </trkpt>
      <trkpt lat="48.68224" lon="4.56117">
        <ele>138.57</ele>
        <time>2017-08-07T10:27:23Z</time>
      </trkpt>
      <trkpt lat="48.68195" lon="4.56129">
        <ele>141.93</ele>
        <time>2017-08-07T10:27:44Z</time>
      </trkpt>
      <trkpt lat="48.68174" lon="4.56135">
        <ele>144.82</ele>
        <time>2017-08-07T10:27:59Z</time>
      </trkpt>
      <trkpt lat="48.68172" lon="4.56136">
        <ele>144.82</ele>
        <time>2017-08-07T10:28:00Z</time>
      </trkpt>
      <trkpt lat="48.6815" lon="4.56142">
        <ele>147.22</ele>
        <time>2017-08-07T10:28:16Z</time>
      </trkpt>
      <trkpt lat="48.68131" lon="4.56152">
        <ele>148.66</ele>
        <time>2017-08-07T10:28:30Z</time>
      </trkpt>
      <trkpt lat="48.6811" lon="4.56162">
        <ele>150.1</ele>
        <time>2017-08-07T10:28:45Z</time>
      </trkpt>
      <trkpt lat="48.68087" lon="4.5617">
        <ele>152.03</ele>
        <time>2017-08-07T10:29:01Z</time>
      </trkpt>
      <trkpt lat="48.68057" lon="4.5618">
        <ele>153.47</ele>
        <time>2017-08-07T10:29:19Z</time>
      </trkpt>
      <trkpt lat="48.68018" lon="4.56193">
        <ele>154.91</ele>
        <time>2017-08-07T10:29:40Z</time>
      </trkpt>
      <trkpt lat="48.67988" lon="4.56208">
        <ele>155.87</ele>
        <time>2017-08-07T10:29:55Z</time>
      </trkpt>
      <trkpt lat="48.67959" lon="4.56243">
        <ele>156.35</ele>
        <time>2017-08-07T10:30:10Z</time>
      </trkpt>
      <trkpt lat="48.67926" lon="4.56294">
        <ele>157.31</ele>
        <time>2017-08-07T10:30:30Z</time>
      </trkpt>
      <trkpt lat="48.67904" lon="4.56323">
        <ele>158.27</ele>
        <time>2017-08-07T10:30:41Z</time>
      </trkpt>
      <trkpt lat="48.67859" lon="4.5637">
        <ele>157.79</ele>
        <time>2017-08-07T10:30:58Z</time>
      </trkpt>
      <trkpt lat="48.67809" lon="4.56427">
        <ele>157.79</ele>
        <time>2017-08-07T10:31:15Z</time>
      </trkpt>
      <trkpt lat="48.678" lon="4.56437">
        <ele>156.83</ele>
        <time>2017-08-07T10:31:18Z</time>
      </trkpt>
      <trkpt lat="48.67731" lon="4.56473">
        <ele>153.47</ele>
        <time>2017-08-07T10:31:33Z</time>
      </trkpt>
      <trkpt lat="48.67659" lon="4.56459">
        <ele>153.47</ele>
        <time>2017-08-07T10:31:46Z</time>
      </trkpt>
      <trkpt lat="48.67654" lon="4.56457">
        <ele>153.47</ele>
        <time>2017-08-07T10:31:47Z</time>
      </trkpt>
      <trkpt lat="48.67651" lon="4.56453">
        <ele>153.47</ele>
        <time>2017-08-07T10:31:48Z</time>
      </trkpt>
      <trkpt lat="48.67648" lon="4.56449">
        <ele>153.47</ele>
        <time>2017-08-07T10:31:49Z</time>
      </trkpt>
      <trkpt lat="48.67646" lon="4.56445">
        <ele>153.47</ele>
        <time>2017-08-07T10:31:50Z</time>
      </trkpt>
      <trkpt lat="48.67643" lon="4.56442">
        <ele>153.47</ele>
        <time>2017-08-07T10:31:51Z</time>
      </trkpt>
      <trkpt lat="48.6764" lon="4.5644">
        <ele>153.47</ele>
        <time>2017-08-07T10:31:52Z</time>
      </trkpt>
      <trkpt lat="48.67637" lon="4.5644">
        <ele>153.95</ele>
        <time>2017-08-07T10:31:53Z</time>
      </trkpt>
      <trkpt lat="48.67635" lon="4.56442">
        <ele>153.95</ele>
        <time>2017-08-07T10:31:54Z</time>
      </trkpt>
      <trkpt lat="48.67633" lon="4.56444">
        <ele>153.95</ele>
        <time>2017-08-07T10:31:55Z</time>
      </trkpt>
      <trkpt lat="48.67631" lon="4.56447">
        <ele>153.95</ele>
        <time>2017-08-07T10:31:56Z</time>
      </trkpt>
      <trkpt lat="48.67628" lon="4.56449">
        <ele>153.95</ele>
        <time>2017-08-07T10:31:57Z</time>
      </trkpt>
      <trkpt lat="48.67594" lon="4.56495">
        <ele>153.47</ele>
        <time>2017-08-07T10:32:11Z</time>
      </trkpt>
      <trkpt lat="48.67582" lon="4.56511">
        <ele>154.91</ele>
        <time>2017-08-07T10:32:16Z</time>
      </trkpt>
      <trkpt lat="48.67546" lon="4.56559">
        <ele>155.87</ele>
        <time>2017-08-07T10:32:33Z</time>
      </trkpt>
      <trkpt lat="48.67511" lon="4.56603">
        <ele>152.51</ele>
        <time>2017-08-07T10:32:43Z</time>
      </trkpt>
      <trkpt lat="48.67427" lon="4.56713">
        <ele>150.58</ele>
        <time>2017-08-07T10:33:00Z</time>
      </trkpt>
      <trkpt lat="48.67358" lon="4.56802">
        <ele>150.58</ele>
        <time>2017-08-07T10:33:16Z</time>
      </trkpt>
      <trkpt lat="48.67341" lon="4.56821">
        <ele>152.03</ele>
        <time>2017-08-07T10:33:21Z</time>
      </trkpt>
      <trkpt lat="48.673" lon="4.56867">
        <ele>152.99</ele>
        <time>2017-08-07T10:33:37Z</time>
      </trkpt>
      <trkpt lat="48.67259" lon="4.56895">
        <ele>154.43</ele>
        <time>2017-08-07T10:33:54Z</time>
      </trkpt>
      <trkpt lat="48.67223" lon="4.56912">
        <ele>155.87</ele>
        <time>2017-08-07T10:34:12Z</time>
      </trkpt>
      <trkpt lat="48.67195" lon="4.56924">
        <ele>157.79</ele>
        <time>2017-08-07T10:34:28Z</time>
      </trkpt>
      <trkpt lat="48.67167" lon="4.56936">
        <ele>160.2</ele>
        <time>2017-08-07T10:34:47Z</time>
      </trkpt>
      <trkpt lat="48.67143" lon="4.56947">
        <ele>162.12</ele>
        <time>2017-08-07T10:35:04Z</time>
      </trkpt>
      <trkpt lat="48.67113" lon="4.56961">
        <ele>163.56</ele>
        <time>2017-08-07T10:35:24Z</time>
      </trkpt>
      <trkpt lat="48.67081" lon="4.56976">
        <ele>165.48</ele>
        <time>2017-08-07T10:35:41Z</time>
      </trkpt>
      <trkpt lat="48.67041" lon="4.56994">
        <ele>166.45</ele>
        <time>2017-08-07T10:35:59Z</time>
      </trkpt>
      <trkpt lat="48.66997" lon="4.57009">
        <ele>166.45</ele>
        <time>2017-08-07T10:36:15Z</time>
      </trkpt>
      <trkpt lat="48.66942" lon="4.57037">
        <ele>165.48</ele>
        <time>2017-08-07T10:36:30Z</time>
      </trkpt>
      <trkpt lat="48.66912" lon="4.57066">
        <ele>162.12</ele>
        <time>2017-08-07T10:36:36Z</time>
      </trkpt>
      <trkpt lat="48.66888" lon="4.57094">
        <ele>158.75</ele>
        <time>2017-08-07T10:36:40Z</time>
      </trkpt>
      <trkpt lat="48.66865" lon="4.57121">
        <ele>154.91</ele>
        <time>2017-08-07T10:36:43Z</time>
      </trkpt>
      <trkpt lat="48.66842" lon="4.57149">
        <ele>151.54</ele>
        <time>2017-08-07T10:36:46Z</time>
      </trkpt>
      <trkpt lat="48.66823" lon="4.57172">
        <ele>150.1</ele>
        <time>2017-08-07T10:36:49Z</time>
      </trkpt>
      <trkpt lat="48.66807" lon="4.57196">
        <ele>148.66</ele>
        <time>2017-08-07T10:36:55Z</time>
      </trkpt>
      <trkpt lat="48.66807" lon="4.572">
        <ele>147.7</ele>
        <time>2017-08-07T10:36:56Z</time>
      </trkpt>
      <trkpt lat="48.66805" lon="4.57202">
        <ele>148.18</ele>
        <time>2017-08-07T10:36:57Z</time>
      </trkpt>
      <trkpt lat="48.66805" lon="4.57205">
        <ele>148.18</ele>
        <time>2017-08-07T10:36:58Z</time>
      </trkpt>
      <trkpt lat="48.66806" lon="4.5721">
        <ele>148.18</ele>
        <time>2017-08-07T10:36:59Z</time>
      </trkpt>
      <trkpt lat="48.66807" lon="4.57213">
        <ele>147.7</ele>
        <time>2017-08-07T10:37:00Z</time>
      </trkpt>
      <trkpt lat="48.66825" lon="4.57258">
        <ele>147.7</ele>
        <time>2017-08-07T10:37:14Z</time>
      </trkpt>
      <trkpt lat="48.66841" lon="4.57309">
        <ele>149.14</ele>
        <time>2017-08-07T10:37:31Z</time>
      </trkpt>
      <trkpt lat="48.66857" lon="4.57351">
        <ele>150.58</ele>
        <time>2017-08-07T10:37:48Z</time>
      </trkpt>
      <trkpt lat="48.66871" lon="4.57392">
        <ele>152.99</ele>
        <time>2017-08-07T10:38:07Z</time>
      </trkpt>
      <trkpt lat="48.66877" lon="4.57408">
        <ele>153.95</ele>
        <time>2017-08-07T10:38:15Z</time>
      </trkpt>
      <trkpt lat="48.66878" lon="4.5741">
        <ele>153.95</ele>
        <time>2017-08-07T10:38:16Z</time>
      </trkpt>
      <trkpt lat="48.66879" lon="4.57412">
        <ele>153.95</ele>
        <time>2017-08-07T10:38:17Z</time>
      </trkpt>
      <trkpt lat="48.6688" lon="4.57414">
        <ele>153.95</ele>
        <time>2017-08-07T10:38:18Z</time>
      </trkpt>
      <trkpt lat="48.6688" lon="4.57416">
        <ele>153.95</ele>
        <time>2017-08-07T10:38:19Z</time>
      </trkpt>
      <trkpt lat="48.66881" lon="4.57418">
        <ele>153.95</ele>
        <time>2017-08-07T10:38:20Z</time>
      </trkpt>
      <trkpt lat="48.66894" lon="4.57452">
        <ele>156.83</ele>
        <time>2017-08-07T10:38:37Z</time>
      </trkpt>
      <trkpt lat="48.66905" lon="4.57486">
        <ele>158.75</ele>
        <time>2017-08-07T10:38:54Z</time>
      </trkpt>
      <trkpt lat="48.66916" lon="4.57519">
        <ele>160.68</ele>
        <time>2017-08-07T10:39:12Z</time>
      </trkpt>
      <trkpt lat="48.66916" lon="4.57519">
        <ele>160.68</ele>
        <time>2017-08-07T10:39:34Z</time>
      </trkpt>
      <trkpt lat="48.66926" lon="4.57544">
        <ele>158.75</ele>
        <time>2017-08-07T10:39:46Z</time>
      </trkpt>
      <trkpt lat="48.66941" lon="4.57586">
        <ele>155.39</ele>
        <time>2017-08-07T10:39:52Z</time>
      </trkpt>
      <trkpt lat="48.66955" lon="4.57626">
        <ele>151.54</ele>
        <time>2017-08-07T10:39:56Z</time>
      </trkpt>
      <trkpt lat="48.66968" lon="4.57663">
        <ele>147.22</ele>
        <time>2017-08-07T10:39:59Z</time>
      </trkpt>
      <trkpt lat="48.66985" lon="4.57715">
        <ele>143.37</ele>
        <time>2017-08-07T10:40:03Z</time>
      </trkpt>
      <trkpt lat="48.66994" lon="4.57741">
        <ele>142.41</ele>
        <time>2017-08-07T10:40:05Z</time>
      </trkpt>
      <trkpt lat="48.67008" lon="4.5778">
        <ele>139.05</ele>
        <time>2017-08-07T10:40:08Z</time>
      </trkpt>
      <trkpt lat="48.67021" lon="4.57819">
        <ele>137.61</ele>
        <time>2017-08-07T10:40:11Z</time>
      </trkpt>
      <trkpt lat="48.67043" lon="4.57883">
        <ele>133.76</ele>
        <time>2017-08-07T10:40:16Z</time>
      </trkpt>
      <trkpt lat="48.67056" lon="4.57923">
        <ele>131.36</ele>
        <time>2017-08-07T10:40:19Z</time>
      </trkpt>
      <trkpt lat="48.6708" lon="4.57996">
        <ele>128.47</ele>
        <time>2017-08-07T10:40:27Z</time>
      </trkpt>
      <trkpt lat="48.67085" lon="4.5801">
        <ele>127.03</ele>
        <time>2017-08-07T10:40:29Z</time>
      </trkpt>
      <trkpt lat="48.67105" lon="4.5805">
        <ele>124.15</ele>
        <time>2017-08-07T10:40:34Z</time>
      </trkpt>
      <trkpt lat="48.67139" lon="4.58104">
        <ele>120.3</ele>
        <time>2017-08-07T10:40:40Z</time>
      </trkpt>
      <trkpt lat="48.67167" lon="4.58153">
        <ele>118.86</ele>
        <time>2017-08-07T10:40:45Z</time>
      </trkpt>
      <trkpt lat="48.67172" lon="4.58164">
        <ele>118.86</ele>
        <time>2017-08-07T10:40:46Z</time>
      </trkpt>
      <trkpt lat="48.67211" lon="4.58259">
        <ele>115.5</ele>
        <time>2017-08-07T10:40:55Z</time>
      </trkpt>
      <trkpt lat="48.6722" lon="4.5829">
        <ele>115.5</ele>
        <time>2017-08-07T10:41:01Z</time>
      </trkpt>
      <trkpt lat="48.6722" lon="4.58292">
        <ele>115.5</ele>
        <time>2017-08-07T10:41:02Z</time>
      </trkpt>
      <trkpt lat="48.67219" lon="4.58294">
        <ele>115.5</ele>
        <time>2017-08-07T10:41:03Z</time>
      </trkpt>
      <trkpt lat="48.67218" lon="4.58297">
        <ele>115.5</ele>
        <time>2017-08-07T10:41:04Z</time>
      </trkpt>
      <trkpt lat="48.67218" lon="4.583">
        <ele>115.5</ele>
        <time>2017-08-07T10:41:05Z</time>
      </trkpt>
      <trkpt lat="48.67236" lon="4.58343">
        <ele>113.57</ele>
        <time>2017-08-07T10:41:15Z</time>
      </trkpt>
      <trkpt lat="48.67266" lon="4.5838">
        <ele>112.13</ele>
        <time>2017-08-07T10:41:23Z</time>
      </trkpt>
      <trkpt lat="48.67311" lon="4.5846">
        <ele>111.65</ele>
        <time>2017-08-07T10:41:38Z</time>
      </trkpt>
      <trkpt lat="48.67342" lon="4.58514">
        <ele>111.17</ele>
        <time>2017-08-07T10:41:50Z</time>
      </trkpt>
      <trkpt lat="48.6735" lon="4.58526">
        <ele>110.69</ele>
        <time>2017-08-07T10:41:52Z</time>
      </trkpt>
      <trkpt lat="48.67353" lon="4.58532">
        <ele>110.69</ele>
        <time>2017-08-07T10:41:53Z</time>
      </trkpt>
      <trkpt lat="48.67356" lon="4.5854">
        <ele>110.69</ele>
        <time>2017-08-07T10:41:54Z</time>
      </trkpt>
      <trkpt lat="48.67358" lon="4.58547">
        <ele>110.21</ele>
        <time>2017-08-07T10:41:55Z</time>
      </trkpt>
      <trkpt lat="48.67361" lon="4.58554">
        <ele>109.73</ele>
        <time>2017-08-07T10:41:56Z</time>
      </trkpt>
      <trkpt lat="48.67362" lon="4.58562">
        <ele>109.73</ele>
        <time>2017-08-07T10:41:57Z</time>
      </trkpt>
      <trkpt lat="48.67363" lon="4.58569">
        <ele>109.73</ele>
        <time>2017-08-07T10:41:58Z</time>
      </trkpt>
      <trkpt lat="48.67364" lon="4.58576">
        <ele>110.21</ele>
        <time>2017-08-07T10:41:59Z</time>
      </trkpt>
      <trkpt lat="48.67364" lon="4.58584">
        <ele>109.73</ele>
        <time>2017-08-07T10:42:00Z</time>
      </trkpt>
      <trkpt lat="48.67363" lon="4.5859">
        <ele>109.73</ele>
        <time>2017-08-07T10:42:01Z</time>
      </trkpt>
      <trkpt lat="48.67362" lon="4.58598">
        <ele>109.73</ele>
        <time>2017-08-07T10:42:02Z</time>
      </trkpt>
      <trkpt lat="48.6736" lon="4.58604">
        <ele>109.73</ele>
        <time>2017-08-07T10:42:03Z</time>
      </trkpt>
      <trkpt lat="48.67358" lon="4.5861">
        <ele>109.73</ele>
        <time>2017-08-07T10:42:04Z</time>
      </trkpt>
      <trkpt lat="48.67356" lon="4.58617">
        <ele>110.21</ele>
        <time>2017-08-07T10:42:05Z</time>
      </trkpt>
      <trkpt lat="48.67354" lon="4.58622">
        <ele>110.21</ele>
        <time>2017-08-07T10:42:06Z</time>
      </trkpt>
      <trkpt lat="48.67341" lon="4.5866">
        <ele>110.21</ele>
        <time>2017-08-07T10:42:12Z</time>
      </trkpt>
      <trkpt lat="48.67339" lon="4.58692">
        <ele>110.21</ele>
        <time>2017-08-07T10:42:17Z</time>
      </trkpt>
      <trkpt lat="48.67339" lon="4.58698">
        <ele>110.21</ele>
        <time>2017-08-07T10:42:18Z</time>
      </trkpt>
      <trkpt lat="48.67341" lon="4.58703">
        <ele>110.21</ele>
        <time>2017-08-07T10:42:19Z</time>
      </trkpt>
      <trkpt lat="48.67351" lon="4.58737">
        <ele>110.21</ele>
        <time>2017-08-07T10:42:25Z</time>
      </trkpt>
      <trkpt lat="48.67373" lon="4.58827">
        <ele>109.73</ele>
        <time>2017-08-07T10:42:42Z</time>
      </trkpt>
      <trkpt lat="48.67383" lon="4.58901">
        <ele>109.73</ele>
        <time>2017-08-07T10:42:57Z</time>
      </trkpt>
      <trkpt lat="48.67349" lon="4.58942">
        <ele>109.73</ele>
        <time>2017-08-07T10:43:09Z</time>
      </trkpt>
      <trkpt lat="48.6729" lon="4.59017">
        <ele>111.17</ele>
        <time>2017-08-07T10:43:28Z</time>
      </trkpt>
      <trkpt lat="48.67231" lon="4.59098">
        <ele>111.17</ele>
        <time>2017-08-07T10:43:45Z</time>
      </trkpt>
      <trkpt lat="48.67164" lon="4.59186">
        <ele>111.65</ele>
        <time>2017-08-07T10:44:03Z</time>
      </trkpt>
      <trkpt lat="48.67137" lon="4.59216">
        <ele>111.17</ele>
        <time>2017-08-07T10:44:10Z</time>
      </trkpt>
      <trkpt lat="48.67075" lon="4.59283">
        <ele>111.17</ele>
        <time>2017-08-07T10:44:26Z</time>
      </trkpt>
      <trkpt lat="48.67027" lon="4.59345">
        <ele>111.17</ele>
        <time>2017-08-07T10:44:39Z</time>
      </trkpt>
      <trkpt lat="48.67012" lon="4.59365">
        <ele>111.17</ele>
        <time>2017-08-07T10:44:43Z</time>
      </trkpt>
      <trkpt lat="48.67008" lon="4.5937">
        <ele>111.17</ele>
        <time>2017-08-07T10:44:44Z</time>
      </trkpt>
      <trkpt lat="48.66951" lon="4.59447">
        <ele>111.17</ele>
        <time>2017-08-07T10:44:59Z</time>
      </trkpt>
      <trkpt lat="48.66937" lon="4.59467">
        <ele>111.17</ele>
        <time>2017-08-07T10:45:03Z</time>
      </trkpt>
      <trkpt lat="48.66901" lon="4.59534">
        <ele>111.17</ele>
        <time>2017-08-07T10:45:15Z</time>
      </trkpt>
      <trkpt lat="48.66845" lon="4.59622">
        <ele>111.17</ele>
        <time>2017-08-07T10:45:32Z</time>
      </trkpt>
      <trkpt lat="48.66778" lon="4.59704">
        <ele>111.65</ele>
        <time>2017-08-07T10:45:50Z</time>
      </trkpt>
      <trkpt lat="48.66709" lon="4.59786">
        <ele>111.65</ele>
        <time>2017-08-07T10:46:08Z</time>
      </trkpt>
      <trkpt lat="48.6664" lon="4.59864">
        <ele>111.65</ele>
        <time>2017-08-07T10:46:26Z</time>
      </trkpt>
      <trkpt lat="48.66578" lon="4.59921">
        <ele>111.65</ele>
        <time>2017-08-07T10:46:41Z</time>
      </trkpt>
      <trkpt lat="48.66575" lon="4.59927">
        <ele>111.65</ele>
        <time>2017-08-07T10:46:42Z</time>
      </trkpt>
      <trkpt lat="48.66572" lon="4.59933">
        <ele>111.65</ele>
        <time>2017-08-07T10:46:43Z</time>
      </trkpt>
      <trkpt lat="48.6657" lon="4.5994">
        <ele>111.65</ele>
        <time>2017-08-07T10:46:44Z</time>
      </trkpt>
      <trkpt lat="48.66566" lon="4.59945">
        <ele>111.65</ele>
        <time>2017-08-07T10:46:45Z</time>
      </trkpt>
      <trkpt lat="48.66563" lon="4.5995">
        <ele>111.65</ele>
        <time>2017-08-07T10:46:46Z</time>
      </trkpt>
      <trkpt lat="48.66519" lon="4.60004">
        <ele>111.65</ele>
        <time>2017-08-07T10:46:59Z</time>
      </trkpt>
      <trkpt lat="48.66494" lon="4.60036">
        <ele>112.13</ele>
        <time>2017-08-07T10:47:10Z</time>
      </trkpt>
      <trkpt lat="48.66471" lon="4.60065">
        <ele>112.13</ele>
        <time>2017-08-07T10:47:22Z</time>
      </trkpt>
      <trkpt lat="48.66453" lon="4.60088">
        <ele>111.65</ele>
        <time>2017-08-07T10:47:32Z</time>
      </trkpt>
      <trkpt lat="48.66426" lon="4.60124">
        <ele>112.13</ele>
        <time>2017-08-07T10:47:45Z</time>
      </trkpt>
      <trkpt lat="48.66388" lon="4.6017">
        <ele>112.13</ele>
        <time>2017-08-07T10:47:59Z</time>
      </trkpt>
      <trkpt lat="48.66379" lon="4.60179">
        <ele>112.13</ele>
        <time>2017-08-07T10:48:03Z</time>
      </trkpt>
      <trkpt lat="48.66366" lon="4.60183">
        <ele>112.13</ele>
        <time>2017-08-07T10:48:14Z</time>
      </trkpt>
      <trkpt lat="48.66365" lon="4.60185">
        <ele>112.13</ele>
        <time>2017-08-07T10:48:42Z</time>
      </trkpt>
      <trkpt lat="48.66364" lon="4.60187">
        <ele>112.13</ele>
        <time>2017-08-07T10:49:18Z</time>
      </trkpt>
      <trkpt lat="48.66362" lon="4.60188">
        <ele>112.61</ele>
        <time>2017-08-07T10:49:56Z</time>
      </trkpt>
      <trkpt lat="48.66364" lon="4.60185">
        <ele>112.61</ele>
        <time>2017-08-07T10:50:33Z</time>
      </trkpt>
      <trkpt lat="48.66364" lon="4.60185">
        <ele>112.61</ele>
        <time>2017-08-07T10:50:59Z</time>
      </trkpt>
      <trkpt lat="48.66366" lon="4.60188">
        <ele>113.09</ele>
        <time>2017-08-07T10:51:30Z</time>
      </trkpt>
      <trkpt lat="48.66364" lon="4.60187">
        <ele>113.09</ele>
        <time>2017-08-07T10:51:59Z</time>
      </trkpt>
      <trkpt lat="48.66364" lon="4.60185">
        <ele>113.09</ele>
        <time>2017-08-07T10:52:23Z</time>
      </trkpt>
      <trkpt lat="48.66364" lon="4.60183">
        <ele>112.61</ele>
        <time>2017-08-07T10:52:53Z</time>
      </trkpt>
      <trkpt lat="48.66364" lon="4.6019">
        <ele>112.61</ele>
        <time>2017-08-07T10:52:59Z</time>
      </trkpt>
      <trkpt lat="48.66365" lon="4.60191">
        <ele>112.61</ele>
        <time>2017-08-07T10:53:00Z</time>
      </trkpt>
      <trkpt lat="48.66364" lon="4.60195">
        <ele>112.61</ele>
        <time>2017-08-07T10:53:06Z</time>
      </trkpt>
      <trkpt lat="48.66347" lon="4.60215">
        <ele>112.61</ele>
        <time>2017-08-07T10:53:15Z</time>
      </trkpt>
      <trkpt lat="48.66309" lon="4.60251">
        <ele>112.61</ele>
        <time>2017-08-07T10:53:29Z</time>
      </trkpt>
      <trkpt lat="48.66263" lon="4.60276">
        <ele>112.61</ele>
        <time>2017-08-07T10:53:42Z</time>
      </trkpt>
      <trkpt lat="48.66206" lon="4.60306">
        <ele>112.61</ele>
        <time>2017-08-07T10:53:58Z</time>
      </trkpt>
      <trkpt lat="48.66163" lon="4.60336">
        <ele>112.61</ele>
        <time>2017-08-07T10:54:10Z</time>
      </trkpt>
      <trkpt lat="48.66114" lon="4.60379">
        <ele>112.61</ele>
        <time>2017-08-07T10:54:25Z</time>
      </trkpt>
      <trkpt lat="48.66057" lon="4.60431">
        <ele>113.09</ele>
        <time>2017-08-07T10:54:42Z</time>
      </trkpt>
      <trkpt lat="48.66046" lon="4.60434">
        <ele>113.09</ele>
        <time>2017-08-07T10:54:45Z</time>
      </trkpt>
      <trkpt lat="48.66042" lon="4.60431">
        <ele>113.09</ele>
        <time>2017-08-07T10:54:46Z</time>
      </trkpt>
      <trkpt lat="48.6604" lon="4.60428">
        <ele>113.09</ele>
        <time>2017-08-07T10:54:47Z</time>
      </trkpt>
      <trkpt lat="48.66029" lon="4.60415">
        <ele>113.09</ele>
        <time>2017-08-07T10:54:51Z</time>
      </trkpt>
      <trkpt lat="48.66025" lon="4.60415">
        <ele>113.09</ele>
        <time>2017-08-07T10:54:52Z</time>
      </trkpt>
      <trkpt lat="48.66022" lon="4.60417">
        <ele>113.09</ele>
        <time>2017-08-07T10:54:53Z</time>
      </trkpt>
      <trkpt lat="48.66019" lon="4.6042">
        <ele>113.09</ele>
        <time>2017-08-07T10:54:54Z</time>
      </trkpt>
      <trkpt lat="48.66016" lon="4.60423">
        <ele>113.09</ele>
        <time>2017-08-07T10:54:55Z</time>
      </trkpt>
      <trkpt lat="48.66014" lon="4.60426">
        <ele>113.09</ele>
        <time>2017-08-07T10:54:56Z</time>
      </trkpt>
      <trkpt lat="48.66011" lon="4.6043">
        <ele>113.09</ele>
        <time>2017-08-07T10:54:57Z</time>
      </trkpt>
      <trkpt lat="48.6595" lon="4.60498">
        <ele>112.61</ele>
        <time>2017-08-07T10:55:17Z</time>
      </trkpt>
      <trkpt lat="48.65909" lon="4.60548">
        <ele>112.61</ele>
        <time>2017-08-07T10:55:31Z</time>
      </trkpt>
      <trkpt lat="48.65868" lon="4.60596">
        <ele>113.09</ele>
        <time>2017-08-07T10:55:43Z</time>
      </trkpt>
      <trkpt lat="48.65865" lon="4.606">
        <ele>113.09</ele>
        <time>2017-08-07T10:55:44Z</time>
      </trkpt>
      <trkpt lat="48.6581" lon="4.60661">
        <ele>113.09</ele>
        <time>2017-08-07T10:56:01Z</time>
      </trkpt>
      <trkpt lat="48.65768" lon="4.60705">
        <ele>113.57</ele>
        <time>2017-08-07T10:56:14Z</time>
      </trkpt>
      <trkpt lat="48.65726" lon="4.60753">
        <ele>113.57</ele>
        <time>2017-08-07T10:56:27Z</time>
      </trkpt>
      <trkpt lat="48.65677" lon="4.6081">
        <ele>113.57</ele>
        <time>2017-08-07T10:56:42Z</time>
      </trkpt>
      <trkpt lat="48.65673" lon="4.60814">
        <ele>113.57</ele>
        <time>2017-08-07T10:56:43Z</time>
      </trkpt>
      <trkpt lat="48.65637" lon="4.60857">
        <ele>113.57</ele>
        <time>2017-08-07T10:56:54Z</time>
      </trkpt>
      <trkpt lat="48.65633" lon="4.60868">
        <ele>113.57</ele>
        <time>2017-08-07T10:56:56Z</time>
      </trkpt>
      <trkpt lat="48.65631" lon="4.60873">
        <ele>113.57</ele>
        <time>2017-08-07T10:56:57Z</time>
      </trkpt>
      <trkpt lat="48.6561" lon="4.60975">
        <ele>113.57</ele>
        <time>2017-08-07T10:57:13Z</time>
      </trkpt>
      <trkpt lat="48.65607" lon="4.60986">
        <ele>114.05</ele>
        <time>2017-08-07T10:57:15Z</time>
      </trkpt>
      <trkpt lat="48.65606" lon="4.60993">
        <ele>114.05</ele>
        <time>2017-08-07T10:57:16Z</time>
      </trkpt>
      <trkpt lat="48.65604" lon="4.60999">
        <ele>114.05</ele>
        <time>2017-08-07T10:57:17Z</time>
      </trkpt>
      <trkpt lat="48.65595" lon="4.61052">
        <ele>114.05</ele>
        <time>2017-08-07T10:57:25Z</time>
      </trkpt>
      <trkpt lat="48.65566" lon="4.61175">
        <ele>114.53</ele>
        <time>2017-08-07T10:57:44Z</time>
      </trkpt>
      <trkpt lat="48.65545" lon="4.61233">
        <ele>114.53</ele>
        <time>2017-08-07T10:57:53Z</time>
      </trkpt>
      <trkpt lat="48.65501" lon="4.61308">
        <ele>114.53</ele>
        <time>2017-08-07T10:58:07Z</time>
      </trkpt>
      <trkpt lat="48.65497" lon="4.61312">
        <ele>114.53</ele>
        <time>2017-08-07T10:58:08Z</time>
      </trkpt>
      <trkpt lat="48.65452" lon="4.61362">
        <ele>115.01</ele>
        <time>2017-08-07T10:58:21Z</time>
      </trkpt>
      <trkpt lat="48.65439" lon="4.61388">
        <ele>115.01</ele>
        <time>2017-08-07T10:58:26Z</time>
      </trkpt>
      <trkpt lat="48.654" lon="4.61489">
        <ele>115.98</ele>
        <time>2017-08-07T10:58:45Z</time>
      </trkpt>
      <trkpt lat="48.65373" lon="4.61565">
        <ele>117.9</ele>
        <time>2017-08-07T10:59:02Z</time>
      </trkpt>
      <trkpt lat="48.65345" lon="4.61631">
        <ele>118.86</ele>
        <time>2017-08-07T10:59:20Z</time>
      </trkpt>
      <trkpt lat="48.65313" lon="4.6169">
        <ele>120.3</ele>
        <time>2017-08-07T10:59:38Z</time>
      </trkpt>
      <trkpt lat="48.65276" lon="4.61736">
        <ele>120.3</ele>
        <time>2017-08-07T10:59:52Z</time>
      </trkpt>
      <trkpt lat="48.65239" lon="4.61775">
        <ele>120.3</ele>
        <time>2017-08-07T11:00:04Z</time>
      </trkpt>
      <trkpt lat="48.65193" lon="4.61815">
        <ele>120.78</ele>
        <time>2017-08-07T11:00:21Z</time>
      </trkpt>
      <trkpt lat="48.65162" lon="4.61813">
        <ele>122.22</ele>
        <time>2017-08-07T11:00:33Z</time>
      </trkpt>
      <trkpt lat="48.65148" lon="4.61752">
        <ele>123.19</ele>
        <time>2017-08-07T11:00:47Z</time>
      </trkpt>
      <trkpt lat="48.65143" lon="4.61653">
        <ele>124.63</ele>
        <time>2017-08-07T11:01:07Z</time>
      </trkpt>
      <trkpt lat="48.65139" lon="4.6159">
        <ele>126.55</ele>
        <time>2017-08-07T11:01:23Z</time>
      </trkpt>
      <trkpt lat="48.65133" lon="4.61529">
        <ele>128.95</ele>
        <time>2017-08-07T11:01:43Z</time>
      </trkpt>
      <trkpt lat="48.65127" lon="4.61468">
        <ele>131.36</ele>
        <time>2017-08-07T11:02:03Z</time>
      </trkpt>
      <trkpt lat="48.6512" lon="4.61408">
        <ele>133.28</ele>
        <time>2017-08-07T11:02:22Z</time>
      </trkpt>
      <trkpt lat="48.65102" lon="4.61336">
        <ele>134.24</ele>
        <time>2017-08-07T11:02:39Z</time>
      </trkpt>
      <trkpt lat="48.65079" lon="4.61258">
        <ele>134.24</ele>
        <time>2017-08-07T11:02:53Z</time>
      </trkpt>
      <trkpt lat="48.65062" lon="4.61195">
        <ele>132.8</ele>
        <time>2017-08-07T11:03:01Z</time>
      </trkpt>
      <trkpt lat="48.65058" lon="4.61178">
        <ele>132.32</ele>
        <time>2017-08-07T11:03:03Z</time>
      </trkpt>
      <trkpt lat="48.65056" lon="4.61172">
        <ele>132.32</ele>
        <time>2017-08-07T11:03:04Z</time>
      </trkpt>
      <trkpt lat="48.65053" lon="4.61166">
        <ele>132.32</ele>
        <time>2017-08-07T11:03:05Z</time>
      </trkpt>
      <trkpt lat="48.65048" lon="4.61163">
        <ele>132.32</ele>
        <time>2017-08-07T11:03:06Z</time>
      </trkpt>
      <trkpt lat="48.65043" lon="4.61163">
        <ele>132.32</ele>
        <time>2017-08-07T11:03:07Z</time>
      </trkpt>
      <trkpt lat="48.65039" lon="4.61165">
        <ele>132.32</ele>
        <time>2017-08-07T11:03:08Z</time>
      </trkpt>
      <trkpt lat="48.65036" lon="4.61168">
        <ele>132.32</ele>
        <time>2017-08-07T11:03:09Z</time>
      </trkpt>
      <trkpt lat="48.65032" lon="4.61173">
        <ele>132.32</ele>
        <time>2017-08-07T11:03:10Z</time>
      </trkpt>
      <trkpt lat="48.65029" lon="4.61177">
        <ele>132.32</ele>
        <time>2017-08-07T11:03:11Z</time>
      </trkpt>
      <trkpt lat="48.64958" lon="4.61292">
        <ele>131.36</ele>
        <time>2017-08-07T11:03:31Z</time>
      </trkpt>
      <trkpt lat="48.64885" lon="4.61401">
        <ele>129.43</ele>
        <time>2017-08-07T11:03:50Z</time>
      </trkpt>
      <trkpt lat="48.64837" lon="4.61466">
        <ele>129.43</ele>
        <time>2017-08-07T11:04:04Z</time>
      </trkpt>
      <trkpt lat="48.64834" lon="4.61469">
        <ele>129.43</ele>
        <time>2017-08-07T11:04:05Z</time>
      </trkpt>
      <trkpt lat="48.6483" lon="4.61474">
        <ele>129.43</ele>
        <time>2017-08-07T11:04:06Z</time>
      </trkpt>
      <trkpt lat="48.648" lon="4.61514">
        <ele>130.88</ele>
        <time>2017-08-07T11:04:16Z</time>
      </trkpt>
      <trkpt lat="48.64742" lon="4.61588">
        <ele>130.4</ele>
        <time>2017-08-07T11:04:33Z</time>
      </trkpt>
      <trkpt lat="48.6468" lon="4.61668">
        <ele>129.43</ele>
        <time>2017-08-07T11:04:49Z</time>
      </trkpt>
      <trkpt lat="48.64612" lon="4.61769">
        <ele>128.47</ele>
        <time>2017-08-07T11:05:09Z</time>
      </trkpt>
      <trkpt lat="48.646" lon="4.61791">
        <ele>127.03</ele>
        <time>2017-08-07T11:05:12Z</time>
      </trkpt>
      <trkpt lat="48.64573" lon="4.61841">
        <ele>124.63</ele>
        <time>2017-08-07T11:05:18Z</time>
      </trkpt>
      <trkpt lat="48.64505" lon="4.61981">
        <ele>123.19</ele>
        <time>2017-08-07T11:05:35Z</time>
      </trkpt>
      <trkpt lat="48.64442" lon="4.6212">
        <ele>121.26</ele>
        <time>2017-08-07T11:05:51Z</time>
      </trkpt>
      <trkpt lat="48.64367" lon="4.6227">
        <ele>118.38</ele>
        <time>2017-08-07T11:06:08Z</time>
      </trkpt>
      <trkpt lat="48.64272" lon="4.62406">
        <ele>115.98</ele>
        <time>2017-08-07T11:06:25Z</time>
      </trkpt>
      <trkpt lat="48.64202" lon="4.62515">
        <ele>116.46</ele>
        <time>2017-08-07T11:06:41Z</time>
      </trkpt>
      <trkpt lat="48.64171" lon="4.62547">
        <ele>117.42</ele>
        <time>2017-08-07T11:06:48Z</time>
      </trkpt>
      <trkpt lat="48.64167" lon="4.62551">
        <ele>117.42</ele>
        <time>2017-08-07T11:06:49Z</time>
      </trkpt>
      <trkpt lat="48.64161" lon="4.62555">
        <ele>117.42</ele>
        <time>2017-08-07T11:06:50Z</time>
      </trkpt>
      <trkpt lat="48.64104" lon="4.62581">
        <ele>117.42</ele>
        <time>2017-08-07T11:07:01Z</time>
      </trkpt>
      <trkpt lat="48.64099" lon="4.62584">
        <ele>117.42</ele>
        <time>2017-08-07T11:07:02Z</time>
      </trkpt>
      <trkpt lat="48.64044" lon="4.62633">
        <ele>118.86</ele>
        <time>2017-08-07T11:07:18Z</time>
      </trkpt>
      <trkpt lat="48.64011" lon="4.62665">
        <ele>121.26</ele>
        <time>2017-08-07T11:07:35Z</time>
      </trkpt>
      <trkpt lat="48.63981" lon="4.62696">
        <ele>123.19</ele>
        <time>2017-08-07T11:07:53Z</time>
      </trkpt>
      <trkpt lat="48.63946" lon="4.62735">
        <ele>123.67</ele>
        <time>2017-08-07T11:08:08Z</time>
      </trkpt>
      <trkpt lat="48.63897" lon="4.62803">
        <ele>120.78</ele>
        <time>2017-08-07T11:08:21Z</time>
      </trkpt>
      <trkpt lat="48.63828" lon="4.62924">
        <ele>118.86</ele>
        <time>2017-08-07T11:08:40Z</time>
      </trkpt>
      <trkpt lat="48.63776" lon="4.63001">
        <ele>117.42</ele>
        <time>2017-08-07T11:08:52Z</time>
      </trkpt>
      <trkpt lat="48.63774" lon="4.63008">
        <ele>117.42</ele>
        <time>2017-08-07T11:08:53Z</time>
      </trkpt>
      <trkpt lat="48.63743" lon="4.63122">
        <ele>116.94</ele>
        <time>2017-08-07T11:09:09Z</time>
      </trkpt>
      <trkpt lat="48.63713" lon="4.63246">
        <ele>116.94</ele>
        <time>2017-08-07T11:09:27Z</time>
      </trkpt>
      <trkpt lat="48.63707" lon="4.63318">
        <ele>116.46</ele>
        <time>2017-08-07T11:09:37Z</time>
      </trkpt>
      <trkpt lat="48.63706" lon="4.63325">
        <ele>116.94</ele>
        <time>2017-08-07T11:09:38Z</time>
      </trkpt>
      <trkpt lat="48.63704" lon="4.63331">
        <ele>116.94</ele>
        <time>2017-08-07T11:09:39Z</time>
      </trkpt>
      <trkpt lat="48.63701" lon="4.63337">
        <ele>116.94</ele>
        <time>2017-08-07T11:09:40Z</time>
      </trkpt>
      <trkpt lat="48.63699" lon="4.63342">
        <ele>116.94</ele>
        <time>2017-08-07T11:09:41Z</time>
      </trkpt>
      <trkpt lat="48.63696" lon="4.63346">
        <ele>116.46</ele>
        <time>2017-08-07T11:09:42Z</time>
      </trkpt>
      <trkpt lat="48.63693" lon="4.6335">
        <ele>116.46</ele>
        <time>2017-08-07T11:09:43Z</time>
      </trkpt>
      <trkpt lat="48.63639" lon="4.63427">
        <ele>116.46</ele>
        <time>2017-08-07T11:10:00Z</time>
      </trkpt>
      <trkpt lat="48.63584" lon="4.63512">
        <ele>117.9</ele>
        <time>2017-08-07T11:10:19Z</time>
      </trkpt>
      <trkpt lat="48.63543" lon="4.63593">
        <ele>119.34</ele>
        <time>2017-08-07T11:10:37Z</time>
      </trkpt>
      <trkpt lat="48.63514" lon="4.6365">
        <ele>121.26</ele>
        <time>2017-08-07T11:10:53Z</time>
      </trkpt>
      <trkpt lat="48.6348" lon="4.6369">
        <ele>121.26</ele>
        <time>2017-08-07T11:11:06Z</time>
      </trkpt>
      <trkpt lat="48.6342" lon="4.63742">
        <ele>121.26</ele>
        <time>2017-08-07T11:11:21Z</time>
      </trkpt>
      <trkpt lat="48.63343" lon="4.63787">
        <ele>120.3</ele>
        <time>2017-08-07T11:11:40Z</time>
      </trkpt>
      <trkpt lat="48.63262" lon="4.63826">
        <ele>120.3</ele>
        <time>2017-08-07T11:11:57Z</time>
      </trkpt>
      <trkpt lat="48.63237" lon="4.63835">
        <ele>121.26</ele>
        <time>2017-08-07T11:12:03Z</time>
      </trkpt>
      <trkpt lat="48.63198" lon="4.63847">
        <ele>123.67</ele>
        <time>2017-08-07T11:12:18Z</time>
      </trkpt>
      <trkpt lat="48.63184" lon="4.63869">
        <ele>124.15</ele>
        <time>2017-08-07T11:12:31Z</time>
      </trkpt>
      <trkpt lat="48.63184" lon="4.63871">
        <ele>124.15</ele>
        <time>2017-08-07T11:12:43Z</time>
      </trkpt>
      <trkpt lat="48.63183" lon="4.6387">
        <ele>124.15</ele>
        <time>2017-08-07T11:13:15Z</time>
      </trkpt>
      <trkpt lat="48.63184" lon="4.63871">
        <ele>124.15</ele>
        <time>2017-08-07T11:13:47Z</time>
      </trkpt>
      <trkpt lat="48.63183" lon="4.6387">
        <ele>124.15</ele>
        <time>2017-08-07T11:14:18Z</time>
      </trkpt>
      <trkpt lat="48.63181" lon="4.63871">
        <ele>124.15</ele>
        <time>2017-08-07T11:14:20Z</time>
      </trkpt>
      <trkpt lat="48.6318" lon="4.63871">
        <ele>124.15</ele>
        <time>2017-08-07T11:14:21Z</time>
      </trkpt>
      <trkpt lat="48.63179" lon="4.6387">
        <ele>124.15</ele>
        <time>2017-08-07T11:14:22Z</time>
      </trkpt>
      <trkpt lat="48.63174" lon="4.63867">
        <ele>124.63</ele>
        <time>2017-08-07T11:14:27Z</time>
      </trkpt>
      <trkpt lat="48.63171" lon="4.63864">
        <ele>124.63</ele>
        <time>2017-08-07T11:14:39Z</time>
      </trkpt>
      <trkpt lat="48.63168" lon="4.63861">
        <ele>124.63</ele>
        <time>2017-08-07T11:14:44Z</time>
      </trkpt>
      <trkpt lat="48.63167" lon="4.6386">
        <ele>124.63</ele>
        <time>2017-08-07T11:14:45Z</time>
      </trkpt>
      <trkpt lat="48.63165" lon="4.63859">
        <ele>124.63</ele>
        <time>2017-08-07T11:14:46Z</time>
      </trkpt>
      <trkpt lat="48.63163" lon="4.63859">
        <ele>124.63</ele>
        <time>2017-08-07T11:14:47Z</time>
      </trkpt>
      <trkpt lat="48.63161" lon="4.6386">
        <ele>124.63</ele>
        <time>2017-08-07T11:14:48Z</time>
      </trkpt>
      <trkpt lat="48.63159" lon="4.63862">
        <ele>124.63</ele>
        <time>2017-08-07T11:14:49Z</time>
      </trkpt>
      <trkpt lat="48.63158" lon="4.63864">
        <ele>124.63</ele>
        <time>2017-08-07T11:14:50Z</time>
      </trkpt>
      <trkpt lat="48.63156" lon="4.63865">
        <ele>125.11</ele>
        <time>2017-08-07T11:14:51Z</time>
      </trkpt>
      <trkpt lat="48.63154" lon="4.63867">
        <ele>125.11</ele>
        <time>2017-08-07T11:14:52Z</time>
      </trkpt>
      <trkpt lat="48.63153" lon="4.63869">
        <ele>125.11</ele>
        <time>2017-08-07T11:14:53Z</time>
      </trkpt>
      <trkpt lat="48.63121" lon="4.639">
        <ele>125.59</ele>
        <time>2017-08-07T11:15:07Z</time>
      </trkpt>
      <trkpt lat="48.63088" lon="4.63936">
        <ele>126.55</ele>
        <time>2017-08-07T11:15:20Z</time>
      </trkpt>
      <trkpt lat="48.63055" lon="4.63973">
        <ele>126.55</ele>
        <time>2017-08-07T11:15:31Z</time>
      </trkpt>
      <trkpt lat="48.63049" lon="4.63982">
        <ele>126.55</ele>
        <time>2017-08-07T11:15:33Z</time>
      </trkpt>
      <trkpt lat="48.63043" lon="4.63994">
        <ele>126.55</ele>
        <time>2017-08-07T11:15:35Z</time>
      </trkpt>
      <trkpt lat="48.6304" lon="4.64">
        <ele>126.55</ele>
        <time>2017-08-07T11:15:36Z</time>
      </trkpt>
      <trkpt lat="48.63032" lon="4.64023">
        <ele>125.11</ele>
        <time>2017-08-07T11:15:40Z</time>
      </trkpt>
      <trkpt lat="48.63023" lon="4.64048">
        <ele>125.11</ele>
        <time>2017-08-07T11:15:44Z</time>
      </trkpt>
      <trkpt lat="48.6302" lon="4.64054">
        <ele>125.11</ele>
        <time>2017-08-07T11:15:45Z</time>
      </trkpt>
      <trkpt lat="48.62983" lon="4.64174">
        <ele>125.11</ele>
        <time>2017-08-07T11:16:06Z</time>
      </trkpt>
      <trkpt lat="48.62964" lon="4.64262">
        <ele>125.11</ele>
        <time>2017-08-07T11:16:19Z</time>
      </trkpt>
      <trkpt lat="48.62933" lon="4.64329">
        <ele>124.15</ele>
        <time>2017-08-07T11:16:29Z</time>
      </trkpt>
      <trkpt lat="48.62863" lon="4.64411">
        <ele>122.22</ele>
        <time>2017-08-07T11:16:44Z</time>
      </trkpt>
      <trkpt lat="48.6276" lon="4.64475">
        <ele>119.34</ele>
        <time>2017-08-07T11:17:02Z</time>
      </trkpt>
      <trkpt lat="48.62714" lon="4.64524">
        <ele>118.38</ele>
        <time>2017-08-07T11:17:12Z</time>
      </trkpt>
      <trkpt lat="48.62711" lon="4.6453">
        <ele>118.38</ele>
        <time>2017-08-07T11:17:13Z</time>
      </trkpt>
      <trkpt lat="48.62705" lon="4.64547">
        <ele>118.38</ele>
        <time>2017-08-07T11:17:16Z</time>
      </trkpt>
      <trkpt lat="48.62704" lon="4.64554">
        <ele>118.38</ele>
        <time>2017-08-07T11:17:17Z</time>
      </trkpt>
      <trkpt lat="48.62703" lon="4.6456">
        <ele>118.38</ele>
        <time>2017-08-07T11:17:18Z</time>
      </trkpt>
      <trkpt lat="48.62703" lon="4.64567">
        <ele>118.38</ele>
        <time>2017-08-07T11:17:19Z</time>
      </trkpt>
      <trkpt lat="48.62703" lon="4.64574">
        <ele>118.38</ele>
        <time>2017-08-07T11:17:20Z</time>
      </trkpt>
      <trkpt lat="48.62707" lon="4.64677">
        <ele>118.38</ele>
        <time>2017-08-07T11:17:34Z</time>
      </trkpt>
      <trkpt lat="48.62676" lon="4.64766">
        <ele>118.38</ele>
        <time>2017-08-07T11:17:49Z</time>
      </trkpt>
      <trkpt lat="48.62664" lon="4.64783">
        <ele>118.38</ele>
        <time>2017-08-07T11:17:53Z</time>
      </trkpt>
      <trkpt lat="48.6261" lon="4.64827">
        <ele>120.78</ele>
        <time>2017-08-07T11:18:10Z</time>
      </trkpt>
      <trkpt lat="48.62609" lon="4.64831">
        <ele>120.78</ele>
        <time>2017-08-07T11:18:11Z</time>
      </trkpt>
      <trkpt lat="48.62609" lon="4.64837">
        <ele>121.26</ele>
        <time>2017-08-07T11:18:12Z</time>
      </trkpt>
      <trkpt lat="48.62609" lon="4.64841">
        <ele>121.74</ele>
        <time>2017-08-07T11:18:13Z</time>
      </trkpt>
      <trkpt lat="48.62609" lon="4.64846">
        <ele>121.26</ele>
        <time>2017-08-07T11:18:14Z</time>
      </trkpt>
      <trkpt lat="48.6261" lon="4.6485">
        <ele>121.26</ele>
        <time>2017-08-07T11:18:15Z</time>
      </trkpt>
      <trkpt lat="48.6261" lon="4.64854">
        <ele>121.26</ele>
        <time>2017-08-07T11:18:16Z</time>
      </trkpt>
      <trkpt lat="48.62628" lon="4.64915">
        <ele>122.71</ele>
        <time>2017-08-07T11:18:32Z</time>
      </trkpt>
      <trkpt lat="48.62658" lon="4.64995">
        <ele>122.71</ele>
        <time>2017-08-07T11:18:49Z</time>
      </trkpt>
      <trkpt lat="48.62669" lon="4.65026">
        <ele>121.74</ele>
        <time>2017-08-07T11:18:54Z</time>
      </trkpt>
      <trkpt lat="48.62699" lon="4.65133">
        <ele>121.74</ele>
        <time>2017-08-07T11:19:12Z</time>
      </trkpt>
      <trkpt lat="48.62695" lon="4.65192">
        <ele>121.26</ele>
        <time>2017-08-07T11:19:25Z</time>
      </trkpt>
      <trkpt lat="48.62671" lon="4.6527">
        <ele>121.26</ele>
        <time>2017-08-07T11:19:41Z</time>
      </trkpt>
      <trkpt lat="48.62629" lon="4.6538">
        <ele>121.26</ele>
        <time>2017-08-07T11:20:01Z</time>
      </trkpt>
      <trkpt lat="48.62597" lon="4.65431">
        <ele>121.26</ele>
        <time>2017-08-07T11:20:13Z</time>
      </trkpt>
      <trkpt lat="48.62592" lon="4.6544">
        <ele>120.78</ele>
        <time>2017-08-07T11:20:15Z</time>
      </trkpt>
      <trkpt lat="48.62589" lon="4.65445">
        <ele>120.78</ele>
        <time>2017-08-07T11:20:16Z</time>
      </trkpt>
      <trkpt lat="48.62577" lon="4.65464">
        <ele>120.3</ele>
        <time>2017-08-07T11:20:20Z</time>
      </trkpt>
      <trkpt lat="48.62552" lon="4.65503">
        <ele>119.82</ele>
        <time>2017-08-07T11:20:27Z</time>
      </trkpt>
      <trkpt lat="48.62509" lon="4.6557">
        <ele>119.34</ele>
        <time>2017-08-07T11:20:41Z</time>
      </trkpt>
      <trkpt lat="48.62485" lon="4.65607">
        <ele>120.78</ele>
        <time>2017-08-07T11:20:50Z</time>
      </trkpt>
      <trkpt lat="48.62441" lon="4.6567">
        <ele>121.74</ele>
        <time>2017-08-07T11:21:06Z</time>
      </trkpt>
      <trkpt lat="48.62382" lon="4.65753">
        <ele>121.26</ele>
        <time>2017-08-07T11:21:25Z</time>
      </trkpt>
      <trkpt lat="48.62339" lon="4.6581">
        <ele>121.26</ele>
        <time>2017-08-07T11:21:37Z</time>
      </trkpt>
      <trkpt lat="48.62292" lon="4.65875">
        <ele>121.74</ele>
        <time>2017-08-07T11:21:53Z</time>
      </trkpt>
      <trkpt lat="48.62255" lon="4.65924">
        <ele>122.71</ele>
        <time>2017-08-07T11:22:11Z</time>
      </trkpt>
      <trkpt lat="48.62211" lon="4.65986">
        <ele>123.67</ele>
        <time>2017-08-07T11:22:31Z</time>
      </trkpt>
      <trkpt lat="48.62173" lon="4.66043">
        <ele>124.15</ele>
        <time>2017-08-07T11:22:47Z</time>
      </trkpt>
      <trkpt lat="48.6214" lon="4.66098">
        <ele>124.63</ele>
        <time>2017-08-07T11:23:01Z</time>
      </trkpt>
      <trkpt lat="48.62131" lon="4.66116">
        <ele>123.19</ele>
        <time>2017-08-07T11:23:05Z</time>
      </trkpt>
      <trkpt lat="48.62074" lon="4.66221">
        <ele>121.26</ele>
        <time>2017-08-07T11:23:27Z</time>
      </trkpt>
      <trkpt lat="48.62026" lon="4.66311">
        <ele>122.71</ele>
        <time>2017-08-07T11:23:46Z</time>
      </trkpt>
      <trkpt lat="48.61977" lon="4.66402">
        <ele>122.22</ele>
        <time>2017-08-07T11:24:06Z</time>
      </trkpt>
      <trkpt lat="48.61915" lon="4.66518">
        <ele>120.3</ele>
        <time>2017-08-07T11:24:27Z</time>
      </trkpt>
      <trkpt lat="48.61874" lon="4.66593">
        <ele>121.74</ele>
        <time>2017-08-07T11:24:44Z</time>
      </trkpt>
      <trkpt lat="48.61839" lon="4.66656">
        <ele>123.67</ele>
        <time>2017-08-07T11:25:04Z</time>
      </trkpt>
      <trkpt lat="48.61802" lon="4.66711">
        <ele>123.67</ele>
        <time>2017-08-07T11:25:21Z</time>
      </trkpt>
      <trkpt lat="48.61748" lon="4.66768">
        <ele>124.15</ele>
        <time>2017-08-07T11:25:38Z</time>
      </trkpt>
      <trkpt lat="48.61731" lon="4.66785">
        <ele>124.63</ele>
        <time>2017-08-07T11:25:43Z</time>
      </trkpt>
      <trkpt lat="48.61727" lon="4.66788">
        <ele>124.63</ele>
        <time>2017-08-07T11:25:44Z</time>
      </trkpt>
      <trkpt lat="48.61724" lon="4.66791">
        <ele>124.63</ele>
        <time>2017-08-07T11:25:45Z</time>
      </trkpt>
      <trkpt lat="48.6172" lon="4.66795">
        <ele>124.63</ele>
        <time>2017-08-07T11:25:46Z</time>
      </trkpt>
      <trkpt lat="48.61717" lon="4.66798">
        <ele>124.63</ele>
        <time>2017-08-07T11:25:47Z</time>
      </trkpt>
      <trkpt lat="48.61662" lon="4.66856">
        <ele>126.07</ele>
        <time>2017-08-07T11:26:05Z</time>
      </trkpt>
      <trkpt lat="48.61621" lon="4.669">
        <ele>126.55</ele>
        <time>2017-08-07T11:26:21Z</time>
      </trkpt>
      <trkpt lat="48.61573" lon="4.66951">
        <ele>127.99</ele>
        <time>2017-08-07T11:26:41Z</time>
      </trkpt>
      <trkpt lat="48.61525" lon="4.66986">
        <ele>128.95</ele>
        <time>2017-08-07T11:27:00Z</time>
      </trkpt>
      <trkpt lat="48.61474" lon="4.66991">
        <ele>129.92</ele>
        <time>2017-08-07T11:27:19Z</time>
      </trkpt>
      <trkpt lat="48.61422" lon="4.66984">
        <ele>131.36</ele>
        <time>2017-08-07T11:27:38Z</time>
      </trkpt>
      <trkpt lat="48.61375" lon="4.66976">
        <ele>132.32</ele>
        <time>2017-08-07T11:27:55Z</time>
      </trkpt>
      <trkpt lat="48.61319" lon="4.66966">
        <ele>132.8</ele>
        <time>2017-08-07T11:28:13Z</time>
      </trkpt>
      <trkpt lat="48.6127" lon="4.66954">
        <ele>132.8</ele>
        <time>2017-08-07T11:28:28Z</time>
      </trkpt>
      <trkpt lat="48.61228" lon="4.66943">
        <ele>132.8</ele>
        <time>2017-08-07T11:28:39Z</time>
      </trkpt>
      <trkpt lat="48.61201" lon="4.66935">
        <ele>132.8</ele>
        <time>2017-08-07T11:28:46Z</time>
      </trkpt>
      <trkpt lat="48.61141" lon="4.66912">
        <ele>131.36</ele>
        <time>2017-08-07T11:29:00Z</time>
      </trkpt>
      <trkpt lat="48.61068" lon="4.6686">
        <ele>131.36</ele>
        <time>2017-08-07T11:29:17Z</time>
      </trkpt>
      <trkpt lat="48.60995" lon="4.66791">
        <ele>132.8</ele>
        <time>2017-08-07T11:29:34Z</time>
      </trkpt>
      <trkpt lat="48.60882" lon="4.66684">
        <ele>130.4</ele>
        <time>2017-08-07T11:29:55Z</time>
      </trkpt>
      <trkpt lat="48.60804" lon="4.66607">
        <ele>130.4</ele>
        <time>2017-08-07T11:30:09Z</time>
      </trkpt>
      <trkpt lat="48.60735" lon="4.66542">
        <ele>131.84</ele>
        <time>2017-08-07T11:30:24Z</time>
      </trkpt>
      <trkpt lat="48.60669" lon="4.66479">
        <ele>131.36</ele>
        <time>2017-08-07T11:30:38Z</time>
      </trkpt>
      <trkpt lat="48.60584" lon="4.66413">
        <ele>131.36</ele>
        <time>2017-08-07T11:30:55Z</time>
      </trkpt>
      <trkpt lat="48.60579" lon="4.66412">
        <ele>131.36</ele>
        <time>2017-08-07T11:30:56Z</time>
      </trkpt>
      <trkpt lat="48.60574" lon="4.66412">
        <ele>131.36</ele>
        <time>2017-08-07T11:30:57Z</time>
      </trkpt>
      <trkpt lat="48.60569" lon="4.66412">
        <ele>131.36</ele>
        <time>2017-08-07T11:30:58Z</time>
      </trkpt>
      <trkpt lat="48.60565" lon="4.66413">
        <ele>131.36</ele>
        <time>2017-08-07T11:30:59Z</time>
      </trkpt>
      <trkpt lat="48.60561" lon="4.66416">
        <ele>131.36</ele>
        <time>2017-08-07T11:31:00Z</time>
      </trkpt>
      <trkpt lat="48.60556" lon="4.66419">
        <ele>131.36</ele>
        <time>2017-08-07T11:31:01Z</time>
      </trkpt>
      <trkpt lat="48.60552" lon="4.66423">
        <ele>131.36</ele>
        <time>2017-08-07T11:31:02Z</time>
      </trkpt>
      <trkpt lat="48.60549" lon="4.66427">
        <ele>131.36</ele>
        <time>2017-08-07T11:31:03Z</time>
      </trkpt>
      <trkpt lat="48.60546" lon="4.66431">
        <ele>131.36</ele>
        <time>2017-08-07T11:31:04Z</time>
      </trkpt>
      <trkpt lat="48.60521" lon="4.66468">
        <ele>131.36</ele>
        <time>2017-08-07T11:31:12Z</time>
      </trkpt>
      <trkpt lat="48.60482" lon="4.66535">
        <ele>130.4</ele>
        <time>2017-08-07T11:31:24Z</time>
      </trkpt>
      <trkpt lat="48.60449" lon="4.66598">
        <ele>127.03</ele>
        <time>2017-08-07T11:31:32Z</time>
      </trkpt>
      <trkpt lat="48.60381" lon="4.66717">
        <ele>124.15</ele>
        <time>2017-08-07T11:31:45Z</time>
      </trkpt>
      <trkpt lat="48.60356" lon="4.66747">
        <ele>124.15</ele>
        <time>2017-08-07T11:31:49Z</time>
      </trkpt>
      <trkpt lat="48.6033" lon="4.66764">
        <ele>124.15</ele>
        <time>2017-08-07T11:31:53Z</time>
      </trkpt>
      <trkpt lat="48.6022" lon="4.66794">
        <ele>122.71</ele>
        <time>2017-08-07T11:32:09Z</time>
      </trkpt>
      <trkpt lat="48.60142" lon="4.66819">
        <ele>122.22</ele>
        <time>2017-08-07T11:32:21Z</time>
      </trkpt>
      <trkpt lat="48.60137" lon="4.66821">
        <ele>122.22</ele>
        <time>2017-08-07T11:32:22Z</time>
      </trkpt>
      <trkpt lat="48.60131" lon="4.66823">
        <ele>122.22</ele>
        <time>2017-08-07T11:32:23Z</time>
      </trkpt>
      <trkpt lat="48.60116" lon="4.66828">
        <ele>122.22</ele>
        <time>2017-08-07T11:32:26Z</time>
      </trkpt>
      <trkpt lat="48.60111" lon="4.66829">
        <ele>122.22</ele>
        <time>2017-08-07T11:32:27Z</time>
      </trkpt>
      <trkpt lat="48.60032" lon="4.66853">
        <ele>122.22</ele>
        <time>2017-08-07T11:32:43Z</time>
      </trkpt>
      <trkpt lat="48.60021" lon="4.66859">
        <ele>123.67</ele>
        <time>2017-08-07T11:32:46Z</time>
      </trkpt>
      <trkpt lat="48.59956" lon="4.66902">
        <ele>124.63</ele>
        <time>2017-08-07T11:33:03Z</time>
      </trkpt>
      <trkpt lat="48.59906" lon="4.66941">
        <ele>125.59</ele>
        <time>2017-08-07T11:33:17Z</time>
      </trkpt>
      <trkpt lat="48.59865" lon="4.66975">
        <ele>126.55</ele>
        <time>2017-08-07T11:33:30Z</time>
      </trkpt>
      <trkpt lat="48.59822" lon="4.67011">
        <ele>127.51</ele>
        <time>2017-08-07T11:33:44Z</time>
      </trkpt>
      <trkpt lat="48.59774" lon="4.67044">
        <ele>128.95</ele>
        <time>2017-08-07T11:34:00Z</time>
      </trkpt>
      <trkpt lat="48.59723" lon="4.67061">
        <ele>129.43</ele>
        <time>2017-08-07T11:34:15Z</time>
      </trkpt>
      <trkpt lat="48.59664" lon="4.6707">
        <ele>128.95</ele>
        <time>2017-08-07T11:34:27Z</time>
      </trkpt>
      <trkpt lat="48.59588" lon="4.6707">
        <ele>129.43</ele>
        <time>2017-08-07T11:34:43Z</time>
      </trkpt>
      <trkpt lat="48.59583" lon="4.67069">
        <ele>128.95</ele>
        <time>2017-08-07T11:34:44Z</time>
      </trkpt>
      <trkpt lat="48.59578" lon="4.6707">
        <ele>128.95</ele>
        <time>2017-08-07T11:34:45Z</time>
      </trkpt>
      <trkpt lat="48.59575" lon="4.67069">
        <ele>128.95</ele>
        <time>2017-08-07T11:34:46Z</time>
      </trkpt>
      <trkpt lat="48.59526" lon="4.67066">
        <ele>129.43</ele>
        <time>2017-08-07T11:34:58Z</time>
      </trkpt>
      <trkpt lat="48.59465" lon="4.67054">
        <ele>128.47</ele>
        <time>2017-08-07T11:35:10Z</time>
      </trkpt>
      <trkpt lat="48.5937" lon="4.67032">
        <ele>127.51</ele>
        <time>2017-08-07T11:35:26Z</time>
      </trkpt>
      <trkpt lat="48.59336" lon="4.67025">
        <ele>127.03</ele>
        <time>2017-08-07T11:35:32Z</time>
      </trkpt>
      <trkpt lat="48.59278" lon="4.67012">
        <ele>128.47</ele>
        <time>2017-08-07T11:35:45Z</time>
      </trkpt>
      <trkpt lat="48.59234" lon="4.67002">
        <ele>130.4</ele>
        <time>2017-08-07T11:35:59Z</time>
      </trkpt>
      <trkpt lat="48.59177" lon="4.66996">
        <ele>131.36</ele>
        <time>2017-08-07T11:36:17Z</time>
      </trkpt>
      <trkpt lat="48.59131" lon="4.66991">
        <ele>131.36</ele>
        <time>2017-08-07T11:36:30Z</time>
      </trkpt>
      <trkpt lat="48.59107" lon="4.66988">
        <ele>131.36</ele>
        <time>2017-08-07T11:36:36Z</time>
      </trkpt>
      <trkpt lat="48.59103" lon="4.66987">
        <ele>131.36</ele>
        <time>2017-08-07T11:36:37Z</time>
      </trkpt>
      <trkpt lat="48.59047" lon="4.66984">
        <ele>131.36</ele>
        <time>2017-08-07T11:36:51Z</time>
      </trkpt>
      <trkpt lat="48.59004" lon="4.67003">
        <ele>131.84</ele>
        <time>2017-08-07T11:37:03Z</time>
      </trkpt>
      <trkpt lat="48.58984" lon="4.67024">
        <ele>130.4</ele>
        <time>2017-08-07T11:37:08Z</time>
      </trkpt>
      <trkpt lat="48.58967" lon="4.67044">
        <ele>130.4</ele>
        <time>2017-08-07T11:37:13Z</time>
      </trkpt>
      <trkpt lat="48.58918" lon="4.67104">
        <ele>129.43</ele>
        <time>2017-08-07T11:37:26Z</time>
      </trkpt>
      <trkpt lat="48.58899" lon="4.67127">
        <ele>129.43</ele>
        <time>2017-08-07T11:37:31Z</time>
      </trkpt>
      <trkpt lat="48.5883" lon="4.6721">
        <ele>129.43</ele>
        <time>2017-08-07T11:37:52Z</time>
      </trkpt>
      <trkpt lat="48.5882" lon="4.67222">
        <ele>129.43</ele>
        <time>2017-08-07T11:37:55Z</time>
      </trkpt>
      <trkpt lat="48.58758" lon="4.67296">
        <ele>127.99</ele>
        <time>2017-08-07T11:38:10Z</time>
      </trkpt>
      <trkpt lat="48.58689" lon="4.6738">
        <ele>124.63</ele>
        <time>2017-08-07T11:38:23Z</time>
      </trkpt>
      <trkpt lat="48.58636" lon="4.67441">
        <ele>124.15</ele>
        <time>2017-08-07T11:38:32Z</time>
      </trkpt>
      <trkpt lat="48.5863" lon="4.67444">
        <ele>124.15</ele>
        <time>2017-08-07T11:38:33Z</time>
      </trkpt>
      <trkpt lat="48.58624" lon="4.67446">
        <ele>124.15</ele>
        <time>2017-08-07T11:38:34Z</time>
      </trkpt>
      <trkpt lat="48.58618" lon="4.67446">
        <ele>125.59</ele>
        <time>2017-08-07T11:38:35Z</time>
      </trkpt>
      <trkpt lat="48.58614" lon="4.67446">
        <ele>126.07</ele>
        <time>2017-08-07T11:38:36Z</time>
      </trkpt>
      <trkpt lat="48.58609" lon="4.67444">
        <ele>126.55</ele>
        <time>2017-08-07T11:38:37Z</time>
      </trkpt>
      <trkpt lat="48.58606" lon="4.67442">
        <ele>127.03</ele>
        <time>2017-08-07T11:38:38Z</time>
      </trkpt>
      <trkpt lat="48.58603" lon="4.6744">
        <ele>127.03</ele>
        <time>2017-08-07T11:38:39Z</time>
      </trkpt>
      <trkpt lat="48.58599" lon="4.67436">
        <ele>127.99</ele>
        <time>2017-08-07T11:38:42Z</time>
      </trkpt>
      <trkpt lat="48.58576" lon="4.67413">
        <ele>130.4</ele>
        <time>2017-08-07T11:38:58Z</time>
      </trkpt>
      <trkpt lat="48.58558" lon="4.67407">
        <ele>132.32</ele>
        <time>2017-08-07T11:39:09Z</time>
      </trkpt>
      <trkpt lat="48.58532" lon="4.674">
        <ele>134.24</ele>
        <time>2017-08-07T11:39:26Z</time>
      </trkpt>
      <trkpt lat="48.58505" lon="4.67386">
        <ele>136.16</ele>
        <time>2017-08-07T11:39:43Z</time>
      </trkpt>
      <trkpt lat="48.5848" lon="4.67367">
        <ele>137.61</ele>
        <time>2017-08-07T11:39:58Z</time>
      </trkpt>
      <trkpt lat="48.58449" lon="4.67339">
        <ele>139.05</ele>
        <time>2017-08-07T11:40:16Z</time>
      </trkpt>
      <trkpt lat="48.58415" lon="4.67308">
        <ele>140.01</ele>
        <time>2017-08-07T11:40:33Z</time>
      </trkpt>
      <trkpt lat="48.58414" lon="4.67304">
        <ele>140.01</ele>
        <time>2017-08-07T11:40:34Z</time>
      </trkpt>
      <trkpt lat="48.58403" lon="4.67231">
        <ele>140.01</ele>
        <time>2017-08-07T11:40:49Z</time>
      </trkpt>
      <trkpt lat="48.58384" lon="4.67149">
        <ele>140.01</ele>
        <time>2017-08-07T11:41:03Z</time>
      </trkpt>
      <trkpt lat="48.58369" lon="4.67086">
        <ele>140.49</ele>
        <time>2017-08-07T11:41:15Z</time>
      </trkpt>
      <trkpt lat="48.58366" lon="4.67062">
        <ele>140.49</ele>
        <time>2017-08-07T11:41:22Z</time>
      </trkpt>
      <trkpt lat="48.58365" lon="4.67058">
        <ele>140.49</ele>
        <time>2017-08-07T11:41:23Z</time>
      </trkpt>
      <trkpt lat="48.58354" lon="4.67008">
        <ele>140.49</ele>
        <time>2017-08-07T11:41:38Z</time>
      </trkpt>
      <trkpt lat="48.5835" lon="4.66999">
        <ele>140.49</ele>
        <time>2017-08-07T11:41:41Z</time>
      </trkpt>
      <trkpt lat="48.58337" lon="4.66939">
        <ele>140.49</ele>
        <time>2017-08-07T11:41:55Z</time>
      </trkpt>
      <trkpt lat="48.58325" lon="4.66892">
        <ele>140.97</ele>
        <time>2017-08-07T11:42:06Z</time>
      </trkpt>
      <trkpt lat="48.58312" lon="4.66825">
        <ele>141.45</ele>
        <time>2017-08-07T11:42:21Z</time>
      </trkpt>
      <trkpt lat="48.58295" lon="4.66756">
        <ele>141.93</ele>
        <time>2017-08-07T11:42:38Z</time>
      </trkpt>
      <trkpt lat="48.58273" lon="4.66702">
        <ele>142.41</ele>
        <time>2017-08-07T11:42:53Z</time>
      </trkpt>
      <trkpt lat="48.58235" lon="4.66621">
        <ele>142.41</ele>
        <time>2017-08-07T11:43:13Z</time>
      </trkpt>
      <trkpt lat="48.58198" lon="4.66535">
        <ele>143.85</ele>
        <time>2017-08-07T11:43:34Z</time>
      </trkpt>
      <trkpt lat="48.58169" lon="4.66479">
        <ele>144.34</ele>
        <time>2017-08-07T11:43:48Z</time>
      </trkpt>
      <trkpt lat="48.58138" lon="4.6643">
        <ele>144.82</ele>
        <time>2017-08-07T11:44:01Z</time>
      </trkpt>
      <trkpt lat="48.58112" lon="4.66405">
        <ele>144.82</ele>
        <time>2017-08-07T11:44:11Z</time>
      </trkpt>
      <trkpt lat="48.58086" lon="4.66385">
        <ele>144.82</ele>
        <time>2017-08-07T11:44:22Z</time>
      </trkpt>
      <trkpt lat="48.58045" lon="4.66369">
        <ele>144.82</ele>
        <time>2017-08-07T11:44:34Z</time>
      </trkpt>
      <trkpt lat="48.58003" lon="4.66355">
        <ele>143.37</ele>
        <time>2017-08-07T11:44:45Z</time>
      </trkpt>
      <trkpt lat="48.57968" lon="4.66345">
        <ele>143.37</ele>
        <time>2017-08-07T11:44:57Z</time>
      </trkpt>
      <trkpt lat="48.57935" lon="4.66328">
        <ele>142.89</ele>
        <time>2017-08-07T11:45:08Z</time>
      </trkpt>
      <trkpt lat="48.57897" lon="4.66298">
        <ele>142.89</ele>
        <time>2017-08-07T11:45:21Z</time>
      </trkpt>
      <trkpt lat="48.57856" lon="4.66248">
        <ele>142.89</ele>
        <time>2017-08-07T11:45:36Z</time>
      </trkpt>
      <trkpt lat="48.57818" lon="4.66197">
        <ele>142.89</ele>
        <time>2017-08-07T11:45:50Z</time>
      </trkpt>
      <trkpt lat="48.5779" lon="4.66156">
        <ele>142.41</ele>
        <time>2017-08-07T11:46:00Z</time>
      </trkpt>
      <trkpt lat="48.57787" lon="4.66152">
        <ele>142.41</ele>
        <time>2017-08-07T11:46:01Z</time>
      </trkpt>
      <trkpt lat="48.57784" lon="4.66147">
        <ele>142.41</ele>
        <time>2017-08-07T11:46:02Z</time>
      </trkpt>
      <trkpt lat="48.57782" lon="4.66144">
        <ele>142.41</ele>
        <time>2017-08-07T11:46:03Z</time>
      </trkpt>
      <trkpt lat="48.57779" lon="4.6614">
        <ele>142.41</ele>
        <time>2017-08-07T11:46:04Z</time>
      </trkpt>
      <trkpt lat="48.57777" lon="4.66136">
        <ele>142.41</ele>
        <time>2017-08-07T11:46:05Z</time>
      </trkpt>
      <trkpt lat="48.57775" lon="4.66133">
        <ele>142.41</ele>
        <time>2017-08-07T11:46:06Z</time>
      </trkpt>
      <trkpt lat="48.57747" lon="4.66096">
        <ele>142.41</ele>
        <time>2017-08-07T11:46:18Z</time>
      </trkpt>
      <trkpt lat="48.57708" lon="4.66034">
        <ele>141.93</ele>
        <time>2017-08-07T11:46:33Z</time>
      </trkpt>
      <trkpt lat="48.57678" lon="4.66039">
        <ele>141.93</ele>
        <time>2017-08-07T11:46:43Z</time>
      </trkpt>
      <trkpt lat="48.57656" lon="4.66038">
        <ele>140.49</ele>
        <time>2017-08-07T11:46:54Z</time>
      </trkpt>
      <trkpt lat="48.57655" lon="4.66037">
        <ele>140.97</ele>
        <time>2017-08-07T11:47:09Z</time>
      </trkpt>
      <trkpt lat="48.57652" lon="4.66038">
        <ele>140.97</ele>
        <time>2017-08-07T11:47:33Z</time>
      </trkpt>
      <trkpt lat="48.5765" lon="4.66037">
        <ele>140.97</ele>
        <time>2017-08-07T11:47:37Z</time>
      </trkpt>
      <trkpt lat="48.57648" lon="4.66038">
        <ele>140.97</ele>
        <time>2017-08-07T11:47:38Z</time>
      </trkpt>
      <trkpt lat="48.57616" lon="4.6604">
        <ele>140.97</ele>
        <time>2017-08-07T11:47:49Z</time>
      </trkpt>
      <trkpt lat="48.57576" lon="4.66043">
        <ele>140.97</ele>
        <time>2017-08-07T11:48:02Z</time>
      </trkpt>
      <trkpt lat="48.57545" lon="4.66047">
        <ele>140.97</ele>
        <time>2017-08-07T11:48:13Z</time>
      </trkpt>
      <trkpt lat="48.57518" lon="4.66046">
        <ele>140.49</ele>
        <time>2017-08-07T11:48:24Z</time>
      </trkpt>
      <trkpt lat="48.57516" lon="4.66044">
        <ele>140.01</ele>
        <time>2017-08-07T11:48:26Z</time>
      </trkpt>
      <trkpt lat="48.57515" lon="4.66043">
        <ele>140.01</ele>
        <time>2017-08-07T11:48:35Z</time>
      </trkpt>
      <trkpt lat="48.57515" lon="4.66043">
        <ele>140.01</ele>
        <time>2017-08-07T11:49:05Z</time>
      </trkpt>
      <trkpt lat="48.57514" lon="4.66042">
        <ele>140.01</ele>
        <time>2017-08-07T11:49:06Z</time>
      </trkpt>
      <trkpt lat="48.57513" lon="4.6604">
        <ele>140.01</ele>
        <time>2017-08-07T11:49:07Z</time>
      </trkpt>
      <trkpt lat="48.57513" lon="4.66037">
        <ele>140.01</ele>
        <time>2017-08-07T11:49:08Z</time>
      </trkpt>
      <trkpt lat="48.57512" lon="4.66034">
        <ele>140.01</ele>
        <time>2017-08-07T11:49:09Z</time>
      </trkpt>
      <trkpt lat="48.57511" lon="4.6603">
        <ele>140.01</ele>
        <time>2017-08-07T11:49:10Z</time>
      </trkpt>
      <trkpt lat="48.5751" lon="4.66026">
        <ele>140.01</ele>
        <time>2017-08-07T11:49:11Z</time>
      </trkpt>
      <trkpt lat="48.5751" lon="4.66022">
        <ele>140.01</ele>
        <time>2017-08-07T11:49:12Z</time>
      </trkpt>
      <trkpt lat="48.57509" lon="4.66019">
        <ele>140.01</ele>
        <time>2017-08-07T11:49:13Z</time>
      </trkpt>
      <trkpt lat="48.57508" lon="4.66015">
        <ele>140.01</ele>
        <time>2017-08-07T11:49:14Z</time>
      </trkpt>
      <trkpt lat="48.57488" lon="4.65986">
        <ele>140.01</ele>
        <time>2017-08-07T11:49:26Z</time>
      </trkpt>
      <trkpt lat="48.57445" lon="4.65991">
        <ele>140.01</ele>
        <time>2017-08-07T11:49:40Z</time>
      </trkpt>
      <trkpt lat="48.5741" lon="4.66003">
        <ele>140.97</ele>
        <time>2017-08-07T11:49:52Z</time>
      </trkpt>
      <trkpt lat="48.57404" lon="4.66065">
        <ele>141.45</ele>
        <time>2017-08-07T11:50:05Z</time>
      </trkpt>
      <trkpt lat="48.57391" lon="4.6617">
        <ele>141.45</ele>
        <time>2017-08-07T11:50:24Z</time>
      </trkpt>
      <trkpt lat="48.57373" lon="4.66256">
        <ele>141.45</ele>
        <time>2017-08-07T11:50:39Z</time>
      </trkpt>
      <trkpt lat="48.57351" lon="4.66364">
        <ele>141.45</ele>
        <time>2017-08-07T11:50:58Z</time>
      </trkpt>
      <trkpt lat="48.57334" lon="4.66449">
        <ele>141.45</ele>
        <time>2017-08-07T11:51:15Z</time>
      </trkpt>
      <trkpt lat="48.57308" lon="4.66556">
        <ele>141.93</ele>
        <time>2017-08-07T11:51:36Z</time>
      </trkpt>
      <trkpt lat="48.57277" lon="4.66684">
        <ele>140.49</ele>
        <time>2017-08-07T11:51:58Z</time>
      </trkpt>
      <trkpt lat="48.57251" lon="4.66781">
        <ele>140.49</ele>
        <time>2017-08-07T11:52:16Z</time>
      </trkpt>
      <trkpt lat="48.57221" lon="4.66901">
        <ele>140.01</ele>
        <time>2017-08-07T11:52:36Z</time>
      </trkpt>
      <trkpt lat="48.57186" lon="4.67035">
        <ele>139.05</ele>
        <time>2017-08-07T11:52:56Z</time>
      </trkpt>
      <trkpt lat="48.57176" lon="4.67077">
        <ele>139.05</ele>
        <time>2017-08-07T11:53:03Z</time>
      </trkpt>
      <trkpt lat="48.57175" lon="4.67083">
        <ele>139.05</ele>
        <time>2017-08-07T11:53:04Z</time>
      </trkpt>
      <trkpt lat="48.57147" lon="4.67177">
        <ele>140.49</ele>
        <time>2017-08-07T11:53:22Z</time>
      </trkpt>
      <trkpt lat="48.57094" lon="4.67239">
        <ele>140.49</ele>
        <time>2017-08-07T11:53:39Z</time>
      </trkpt>
      <trkpt lat="48.57082" lon="4.67252">
        <ele>140.01</ele>
        <time>2017-08-07T11:53:43Z</time>
      </trkpt>
      <trkpt lat="48.57053" lon="4.67276">
        <ele>140.49</ele>
        <time>2017-08-07T11:53:51Z</time>
      </trkpt>
      <trkpt lat="48.57049" lon="4.67276">
        <ele>140.01</ele>
        <time>2017-08-07T11:53:52Z</time>
      </trkpt>
      <trkpt lat="48.57044" lon="4.67276">
        <ele>140.01</ele>
        <time>2017-08-07T11:53:53Z</time>
      </trkpt>
      <trkpt lat="48.5704" lon="4.67274">
        <ele>140.01</ele>
        <time>2017-08-07T11:53:54Z</time>
      </trkpt>
      <trkpt lat="48.57036" lon="4.67271">
        <ele>140.01</ele>
        <time>2017-08-07T11:53:55Z</time>
      </trkpt>
      <trkpt lat="48.57032" lon="4.67268">
        <ele>140.01</ele>
        <time>2017-08-07T11:53:56Z</time>
      </trkpt>
      <trkpt lat="48.57018" lon="4.67254">
        <ele>139.05</ele>
        <time>2017-08-07T11:53:59Z</time>
      </trkpt>
      <trkpt lat="48.56977" lon="4.67213">
        <ele>135.68</ele>
        <time>2017-08-07T11:54:06Z</time>
      </trkpt>
      <trkpt lat="48.56856" lon="4.67098">
        <ele>133.28</ele>
        <time>2017-08-07T11:54:24Z</time>
      </trkpt>
      <trkpt lat="48.56776" lon="4.6702">
        <ele>134.72</ele>
        <time>2017-08-07T11:54:40Z</time>
      </trkpt>
      <trkpt lat="48.56708" lon="4.66954">
        <ele>136.16</ele>
        <time>2017-08-07T11:54:58Z</time>
      </trkpt>
      <trkpt lat="48.56652" lon="4.66898">
        <ele>137.61</ele>
        <time>2017-08-07T11:55:16Z</time>
      </trkpt>
      <trkpt lat="48.5661" lon="4.66843">
        <ele>139.05</ele>
        <time>2017-08-07T11:55:34Z</time>
      </trkpt>
      <trkpt lat="48.56575" lon="4.66783">
        <ele>140.49</ele>
        <time>2017-08-07T11:55:52Z</time>
      </trkpt>
      <trkpt lat="48.56543" lon="4.66727">
        <ele>141.93</ele>
        <time>2017-08-07T11:56:09Z</time>
      </trkpt>
      <trkpt lat="48.56511" lon="4.66671">
        <ele>142.41</ele>
        <time>2017-08-07T11:56:26Z</time>
      </trkpt>
      <trkpt lat="48.5648" lon="4.66617">
        <ele>142.89</ele>
        <time>2017-08-07T11:56:39Z</time>
      </trkpt>
      <trkpt lat="48.56428" lon="4.66558">
        <ele>143.85</ele>
        <time>2017-08-07T11:56:57Z</time>
      </trkpt>
      <trkpt lat="48.56383" lon="4.66548">
        <ele>144.34</ele>
        <time>2017-08-07T11:57:10Z</time>
      </trkpt>
      <trkpt lat="48.56326" lon="4.66536">
        <ele>142.89</ele>
        <time>2017-08-07T11:57:23Z</time>
      </trkpt>
      <trkpt lat="48.56321" lon="4.66534">
        <ele>142.41</ele>
        <time>2017-08-07T11:57:24Z</time>
      </trkpt>
      <trkpt lat="48.56242" lon="4.66501">
        <ele>139.53</ele>
        <time>2017-08-07T11:57:37Z</time>
      </trkpt>
      <trkpt lat="48.56149" lon="4.66432">
        <ele>137.61</ele>
        <time>2017-08-07T11:57:53Z</time>
      </trkpt>
      <trkpt lat="48.56075" lon="4.66347">
        <ele>137.61</ele>
        <time>2017-08-07T11:58:10Z</time>
      </trkpt>
      <trkpt lat="48.56058" lon="4.66327">
        <ele>138.57</ele>
        <time>2017-08-07T11:58:15Z</time>
      </trkpt>
      <trkpt lat="48.56055" lon="4.66322">
        <ele>138.57</ele>
        <time>2017-08-07T11:58:16Z</time>
      </trkpt>
      <trkpt lat="48.56025" lon="4.66285">
        <ele>139.53</ele>
        <time>2017-08-07T11:58:28Z</time>
      </trkpt>
      <trkpt lat="48.56023" lon="4.6628">
        <ele>139.53</ele>
        <time>2017-08-07T11:58:30Z</time>
      </trkpt>
      <trkpt lat="48.56021" lon="4.66279">
        <ele>139.53</ele>
        <time>2017-08-07T11:58:31Z</time>
      </trkpt>
      <trkpt lat="48.5602" lon="4.6628">
        <ele>139.53</ele>
        <time>2017-08-07T11:58:32Z</time>
      </trkpt>
      <trkpt lat="48.56019" lon="4.66282">
        <ele>139.53</ele>
        <time>2017-08-07T11:58:33Z</time>
      </trkpt>
      <trkpt lat="48.56019" lon="4.66284">
        <ele>139.53</ele>
        <time>2017-08-07T11:58:34Z</time>
      </trkpt>
      <trkpt lat="48.56019" lon="4.66284">
        <ele>139.53</ele>
        <time>2017-08-07T11:58:44Z</time>
      </trkpt>
      <trkpt lat="48.56019" lon="4.66282">
        <ele>140.01</ele>
        <time>2017-08-07T11:59:15Z</time>
      </trkpt>
      <trkpt lat="48.5602" lon="4.66283">
        <ele>139.53</ele>
        <time>2017-08-07T11:59:36Z</time>
      </trkpt>
      <trkpt lat="48.56021" lon="4.66283">
        <ele>139.53</ele>
        <time>2017-08-07T11:59:58Z</time>
      </trkpt>
      <trkpt lat="48.56023" lon="4.66283">
        <ele>139.53</ele>
        <time>2017-08-07T12:00:23Z</time>
      </trkpt>
      <trkpt lat="48.56024" lon="4.66282">
        <ele>139.53</ele>
        <time>2017-08-07T12:00:24Z</time>
      </trkpt>
      <trkpt lat="48.56024" lon="4.6628">
        <ele>139.53</ele>
        <time>2017-08-07T12:00:25Z</time>
      </trkpt>
      <trkpt lat="48.56024" lon="4.66277">
        <ele>139.53</ele>
        <time>2017-08-07T12:00:26Z</time>
      </trkpt>
      <trkpt lat="48.56023" lon="4.66274">
        <ele>139.53</ele>
        <time>2017-08-07T12:00:27Z</time>
      </trkpt>
      <trkpt lat="48.56022" lon="4.6627">
        <ele>139.53</ele>
        <time>2017-08-07T12:00:28Z</time>
      </trkpt>
      <trkpt lat="48.56022" lon="4.66265">
        <ele>139.53</ele>
        <time>2017-08-07T12:00:29Z</time>
      </trkpt>
      <trkpt lat="48.56022" lon="4.66262">
        <ele>139.53</ele>
        <time>2017-08-07T12:00:30Z</time>
      </trkpt>
      <trkpt lat="48.56023" lon="4.66257">
        <ele>139.53</ele>
        <time>2017-08-07T12:00:31Z</time>
      </trkpt>
      <trkpt lat="48.56023" lon="4.66253">
        <ele>139.53</ele>
        <time>2017-08-07T12:00:32Z</time>
      </trkpt>
      <trkpt lat="48.56039" lon="4.66199">
        <ele>139.53</ele>
        <time>2017-08-07T12:00:45Z</time>
      </trkpt>
      <trkpt lat="48.56069" lon="4.66098">
        <ele>140.01</ele>
        <time>2017-08-07T12:01:04Z</time>
      </trkpt>
      <trkpt lat="48.56076" lon="4.66075">
        <ele>140.01</ele>
        <time>2017-08-07T12:01:08Z</time>
      </trkpt>
      <trkpt lat="48.56103" lon="4.6598">
        <ele>140.01</ele>
        <time>2017-08-07T12:01:25Z</time>
      </trkpt>
      <trkpt lat="48.56104" lon="4.65975">
        <ele>140.01</ele>
        <time>2017-08-07T12:01:26Z</time>
      </trkpt>
      <trkpt lat="48.56104" lon="4.65969">
        <ele>140.01</ele>
        <time>2017-08-07T12:01:27Z</time>
      </trkpt>
      <trkpt lat="48.56104" lon="4.65962">
        <ele>140.01</ele>
        <time>2017-08-07T12:01:28Z</time>
      </trkpt>
      <trkpt lat="48.56103" lon="4.65956">
        <ele>140.01</ele>
        <time>2017-08-07T12:01:29Z</time>
      </trkpt>
      <trkpt lat="48.56102" lon="4.6595">
        <ele>140.01</ele>
        <time>2017-08-07T12:01:30Z</time>
      </trkpt>
      <trkpt lat="48.561" lon="4.65945">
        <ele>140.01</ele>
        <time>2017-08-07T12:01:31Z</time>
      </trkpt>
      <trkpt lat="48.56096" lon="4.6594">
        <ele>140.01</ele>
        <time>2017-08-07T12:01:32Z</time>
      </trkpt>
      <trkpt lat="48.56093" lon="4.65935">
        <ele>138.57</ele>
        <time>2017-08-07T12:01:33Z</time>
      </trkpt>
      <trkpt lat="48.56088" lon="4.65931">
        <ele>138.57</ele>
        <time>2017-08-07T12:01:34Z</time>
      </trkpt>
      <trkpt lat="48.56083" lon="4.65927">
        <ele>138.09</ele>
        <time>2017-08-07T12:01:35Z</time>
      </trkpt>
      <trkpt lat="48.56078" lon="4.65923">
        <ele>137.61</ele>
        <time>2017-08-07T12:01:36Z</time>
      </trkpt>
      <trkpt lat="48.56071" lon="4.6592">
        <ele>137.13</ele>
        <time>2017-08-07T12:01:37Z</time>
      </trkpt>
      <trkpt lat="48.56009" lon="4.65893">
        <ele>134.24</ele>
        <time>2017-08-07T12:01:46Z</time>
      </trkpt>
      <trkpt lat="48.55923" lon="4.65858">
        <ele>130.88</ele>
        <time>2017-08-07T12:01:57Z</time>
      </trkpt>
      <trkpt lat="48.55821" lon="4.65805">
        <ele>129.92</ele>
        <time>2017-08-07T12:02:12Z</time>
      </trkpt>
      <trkpt lat="48.55765" lon="4.6572">
        <ele>129.92</ele>
        <time>2017-08-07T12:02:25Z</time>
      </trkpt>
      <trkpt lat="48.55714" lon="4.65619">
        <ele>131.84</ele>
        <time>2017-08-07T12:02:42Z</time>
      </trkpt>
      <trkpt lat="48.55685" lon="4.6552">
        <ele>133.28</ele>
        <time>2017-08-07T12:02:59Z</time>
      </trkpt>
      <trkpt lat="48.55656" lon="4.65412">
        <ele>135.2</ele>
        <time>2017-08-07T12:03:19Z</time>
      </trkpt>
      <trkpt lat="48.55621" lon="4.65328">
        <ele>136.16</ele>
        <time>2017-08-07T12:03:37Z</time>
      </trkpt>
      <trkpt lat="48.55581" lon="4.65254">
        <ele>137.61</ele>
        <time>2017-08-07T12:03:54Z</time>
      </trkpt>
      <trkpt lat="48.55531" lon="4.6522">
        <ele>138.57</ele>
        <time>2017-08-07T12:04:11Z</time>
      </trkpt>
      <trkpt lat="48.55486" lon="4.65188">
        <ele>140.49</ele>
        <time>2017-08-07T12:04:27Z</time>
      </trkpt>
      <trkpt lat="48.55452" lon="4.65139">
        <ele>140.97</ele>
        <time>2017-08-07T12:04:41Z</time>
      </trkpt>
      <trkpt lat="48.55428" lon="4.65104">
        <ele>141.45</ele>
        <time>2017-08-07T12:04:53Z</time>
      </trkpt>
      <trkpt lat="48.55426" lon="4.65105">
        <ele>141.45</ele>
        <time>2017-08-07T12:04:54Z</time>
      </trkpt>
      <trkpt lat="48.55425" lon="4.65105">
        <ele>141.93</ele>
        <time>2017-08-07T12:05:04Z</time>
      </trkpt>
      <trkpt lat="48.55413" lon="4.65108">
        <ele>141.93</ele>
        <time>2017-08-07T12:05:19Z</time>
      </trkpt>
      <trkpt lat="48.55398" lon="4.65127">
        <ele>141.93</ele>
        <time>2017-08-07T12:05:24Z</time>
      </trkpt>
      <trkpt lat="48.55395" lon="4.65132">
        <ele>141.93</ele>
        <time>2017-08-07T12:05:25Z</time>
      </trkpt>
      <trkpt lat="48.55392" lon="4.65137">
        <ele>141.93</ele>
        <time>2017-08-07T12:05:26Z</time>
      </trkpt>
      <trkpt lat="48.55342" lon="4.65224">
        <ele>139.53</ele>
        <time>2017-08-07T12:05:41Z</time>
      </trkpt>
      <trkpt lat="48.55264" lon="4.65321">
        <ele>137.61</ele>
        <time>2017-08-07T12:05:58Z</time>
      </trkpt>
      <trkpt lat="48.55171" lon="4.65442">
        <ele>135.2</ele>
        <time>2017-08-07T12:06:14Z</time>
      </trkpt>
      <trkpt lat="48.55095" lon="4.65567">
        <ele>133.28</ele>
        <time>2017-08-07T12:06:30Z</time>
      </trkpt>
      <trkpt lat="48.55073" lon="4.65631">
        <ele>136.64</ele>
        <time>2017-08-07T12:06:42Z</time>
      </trkpt>
      <trkpt lat="48.55056" lon="4.65701">
        <ele>138.09</ele>
        <time>2017-08-07T12:07:01Z</time>
      </trkpt>
      <trkpt lat="48.55037" lon="4.65796">
        <ele>134.72</ele>
        <time>2017-08-07T12:07:14Z</time>
      </trkpt>
      <trkpt lat="48.55034" lon="4.65814">
        <ele>133.76</ele>
        <time>2017-08-07T12:07:16Z</time>
      </trkpt>
      <trkpt lat="48.55004" lon="4.65967">
        <ele>132.8</ele>
        <time>2017-08-07T12:07:33Z</time>
      </trkpt>
      <trkpt lat="48.54985" lon="4.66054">
        <ele>132.8</ele>
        <time>2017-08-07T12:07:46Z</time>
      </trkpt>
      <trkpt lat="48.54982" lon="4.66059">
        <ele>132.8</ele>
        <time>2017-08-07T12:07:47Z</time>
      </trkpt>
      <trkpt lat="48.54979" lon="4.66063">
        <ele>132.8</ele>
        <time>2017-08-07T12:07:48Z</time>
      </trkpt>
      <trkpt lat="48.54973" lon="4.66071">
        <ele>133.76</ele>
        <time>2017-08-07T12:07:50Z</time>
      </trkpt>
      <trkpt lat="48.54923" lon="4.66107">
        <ele>135.2</ele>
        <time>2017-08-07T12:08:07Z</time>
      </trkpt>
      <trkpt lat="48.54875" lon="4.66146">
        <ele>136.64</ele>
        <time>2017-08-07T12:08:26Z</time>
      </trkpt>
      <trkpt lat="48.54843" lon="4.66195">
        <ele>138.09</ele>
        <time>2017-08-07T12:08:42Z</time>
      </trkpt>
      <trkpt lat="48.54816" lon="4.66242">
        <ele>139.05</ele>
        <time>2017-08-07T12:08:59Z</time>
      </trkpt>
      <trkpt lat="48.54793" lon="4.6628">
        <ele>141.45</ele>
        <time>2017-08-07T12:09:15Z</time>
      </trkpt>
      <trkpt lat="48.54766" lon="4.66325">
        <ele>142.41</ele>
        <time>2017-08-07T12:09:33Z</time>
      </trkpt>
      <trkpt lat="48.5473" lon="4.66385">
        <ele>142.89</ele>
        <time>2017-08-07T12:09:50Z</time>
      </trkpt>
      <trkpt lat="48.54692" lon="4.66448">
        <ele>142.89</ele>
        <time>2017-08-07T12:10:05Z</time>
      </trkpt>
      <trkpt lat="48.54651" lon="4.66518">
        <ele>142.89</ele>
        <time>2017-08-07T12:10:21Z</time>
      </trkpt>
      <trkpt lat="48.54597" lon="4.66605">
        <ele>143.37</ele>
        <time>2017-08-07T12:10:41Z</time>
      </trkpt>
      <trkpt lat="48.54594" lon="4.6661">
        <ele>143.37</ele>
        <time>2017-08-07T12:10:42Z</time>
      </trkpt>
      <trkpt lat="48.54532" lon="4.66692">
        <ele>141.93</ele>
        <time>2017-08-07T12:10:58Z</time>
      </trkpt>
      <trkpt lat="48.54464" lon="4.66781">
        <ele>139.05</ele>
        <time>2017-08-07T12:11:11Z</time>
      </trkpt>
      <trkpt lat="48.5439" lon="4.66877">
        <ele>136.16</ele>
        <time>2017-08-07T12:11:24Z</time>
      </trkpt>
      <trkpt lat="48.54347" lon="4.66938">
        <ele>136.16</ele>
        <time>2017-08-07T12:11:35Z</time>
      </trkpt>
      <trkpt lat="48.54342" lon="4.66945">
        <ele>137.61</ele>
        <time>2017-08-07T12:11:37Z</time>
      </trkpt>
      <trkpt lat="48.54317" lon="4.6698">
        <ele>140.01</ele>
        <time>2017-08-07T12:11:52Z</time>
      </trkpt>
      <trkpt lat="48.54287" lon="4.67019">
        <ele>141.45</ele>
        <time>2017-08-07T12:12:09Z</time>
      </trkpt>
      <trkpt lat="48.54254" lon="4.67064">
        <ele>141.93</ele>
        <time>2017-08-07T12:12:26Z</time>
      </trkpt>
      <trkpt lat="48.54224" lon="4.67105">
        <ele>141.93</ele>
        <time>2017-08-07T12:12:38Z</time>
      </trkpt>
      <trkpt lat="48.542" lon="4.67154">
        <ele>141.93</ele>
        <time>2017-08-07T12:12:51Z</time>
      </trkpt>
      <trkpt lat="48.54168" lon="4.6722">
        <ele>140.49</ele>
        <time>2017-08-07T12:13:05Z</time>
      </trkpt>
      <trkpt lat="48.54128" lon="4.67301">
        <ele>140.01</ele>
        <time>2017-08-07T12:13:21Z</time>
      </trkpt>
      <trkpt lat="48.54087" lon="4.67387">
        <ele>138.57</ele>
        <time>2017-08-07T12:13:36Z</time>
      </trkpt>
      <trkpt lat="48.54043" lon="4.67477">
        <ele>138.57</ele>
        <time>2017-08-07T12:13:53Z</time>
      </trkpt>
      <trkpt lat="48.54035" lon="4.67493">
        <ele>138.57</ele>
        <time>2017-08-07T12:13:57Z</time>
      </trkpt>
      <trkpt lat="48.54025" lon="4.67492">
        <ele>138.57</ele>
        <time>2017-08-07T12:14:01Z</time>
      </trkpt>
      <trkpt lat="48.53972" lon="4.67461">
        <ele>134.72</ele>
        <time>2017-08-07T12:14:12Z</time>
      </trkpt>
      <trkpt lat="48.53942" lon="4.67446">
        <ele>132.32</ele>
        <time>2017-08-07T12:14:16Z</time>
      </trkpt>
      <trkpt lat="48.53877" lon="4.6741">
        <ele>129.43</ele>
        <time>2017-08-07T12:14:25Z</time>
      </trkpt>
      <trkpt lat="48.53812" lon="4.67374">
        <ele>127.99</ele>
        <time>2017-08-07T12:14:36Z</time>
      </trkpt>
      <trkpt lat="48.53802" lon="4.67355">
        <ele>127.99</ele>
        <time>2017-08-07T12:14:40Z</time>
      </trkpt>
      <trkpt lat="48.53795" lon="4.67349">
        <ele>127.99</ele>
        <time>2017-08-07T12:14:45Z</time>
      </trkpt>
      <trkpt lat="48.53785" lon="4.67356">
        <ele>127.99</ele>
        <time>2017-08-07T12:14:50Z</time>
      </trkpt>
      <trkpt lat="48.53773" lon="4.67334">
        <ele>127.99</ele>
        <time>2017-08-07T12:15:02Z</time>
      </trkpt>
      <trkpt lat="48.53775" lon="4.67324">
        <ele>127.99</ele>
        <time>2017-08-07T12:15:05Z</time>
      </trkpt>
      <trkpt lat="48.53787" lon="4.67273">
        <ele>127.99</ele>
        <time>2017-08-07T12:15:20Z</time>
      </trkpt>
      <trkpt lat="48.53799" lon="4.67219">
        <ele>127.99</ele>
        <time>2017-08-07T12:15:35Z</time>
      </trkpt>
      <trkpt lat="48.53807" lon="4.67167">
        <ele>127.99</ele>
        <time>2017-08-07T12:15:49Z</time>
      </trkpt>
      <trkpt lat="48.53801" lon="4.67118">
        <ele>127.99</ele>
        <time>2017-08-07T12:16:02Z</time>
      </trkpt>
      <trkpt lat="48.53793" lon="4.67058">
        <ele>127.99</ele>
        <time>2017-08-07T12:16:17Z</time>
      </trkpt>
      <trkpt lat="48.53792" lon="4.67043">
        <ele>128.95</ele>
        <time>2017-08-07T12:16:22Z</time>
      </trkpt>
      <trkpt lat="48.53789" lon="4.67038">
        <ele>128.95</ele>
        <time>2017-08-07T12:16:32Z</time>
      </trkpt>
      <trkpt lat="48.53785" lon="4.67037">
        <ele>128.95</ele>
        <time>2017-08-07T12:16:48Z</time>
      </trkpt>
      <trkpt lat="48.5377" lon="4.67036">
        <ele>128.95</ele>
        <time>2017-08-07T12:17:04Z</time>
      </trkpt>
      <trkpt lat="48.53744" lon="4.67031">
        <ele>128.95</ele>
        <time>2017-08-07T12:17:15Z</time>
      </trkpt>
      <trkpt lat="48.53707" lon="4.67024">
        <ele>130.4</ele>
        <time>2017-08-07T12:17:33Z</time>
      </trkpt>
      <trkpt lat="48.53678" lon="4.67018">
        <ele>130.88</ele>
        <time>2017-08-07T12:17:48Z</time>
      </trkpt>
      <trkpt lat="48.53653" lon="4.67014">
        <ele>131.36</ele>
        <time>2017-08-07T12:18:01Z</time>
      </trkpt>
      <trkpt lat="48.53621" lon="4.67007">
        <ele>132.32</ele>
        <time>2017-08-07T12:18:16Z</time>
      </trkpt>
      <trkpt lat="48.53584" lon="4.67">
        <ele>133.76</ele>
        <time>2017-08-07T12:18:33Z</time>
      </trkpt>
      <trkpt lat="48.53544" lon="4.66992">
        <ele>134.72</ele>
        <time>2017-08-07T12:18:51Z</time>
      </trkpt>
      <trkpt lat="48.53505" lon="4.66984">
        <ele>135.2</ele>
        <time>2017-08-07T12:19:09Z</time>
      </trkpt>
      <trkpt lat="48.5347" lon="4.66978">
        <ele>136.64</ele>
        <time>2017-08-07T12:19:25Z</time>
      </trkpt>
      <trkpt lat="48.53419" lon="4.66969">
        <ele>136.64</ele>
        <time>2017-08-07T12:19:41Z</time>
      </trkpt>
      <trkpt lat="48.53369" lon="4.66959">
        <ele>136.64</ele>
        <time>2017-08-07T12:19:54Z</time>
      </trkpt>
      <trkpt lat="48.53289" lon="4.66942">
        <ele>136.64</ele>
        <time>2017-08-07T12:20:12Z</time>
      </trkpt>
      <trkpt lat="48.53207" lon="4.66927">
        <ele>135.2</ele>
        <time>2017-08-07T12:20:30Z</time>
      </trkpt>
      <trkpt lat="48.53169" lon="4.66899">
        <ele>135.2</ele>
        <time>2017-08-07T12:20:41Z</time>
      </trkpt>
      <trkpt lat="48.53122" lon="4.66807">
        <ele>136.64</ele>
        <time>2017-08-07T12:20:59Z</time>
      </trkpt>
      <trkpt lat="48.53119" lon="4.66802">
        <ele>136.64</ele>
        <time>2017-08-07T12:21:00Z</time>
      </trkpt>
      <trkpt lat="48.53074" lon="4.66718">
        <ele>137.13</ele>
        <time>2017-08-07T12:21:18Z</time>
      </trkpt>
      <trkpt lat="48.53067" lon="4.66702">
        <ele>137.13</ele>
        <time>2017-08-07T12:21:21Z</time>
      </trkpt>
      <trkpt lat="48.5304" lon="4.66651">
        <ele>135.68</ele>
        <time>2017-08-07T12:21:29Z</time>
      </trkpt>
      <trkpt lat="48.52975" lon="4.6653">
        <ele>133.28</ele>
        <time>2017-08-07T12:21:43Z</time>
      </trkpt>
      <trkpt lat="48.52911" lon="4.66407">
        <ele>132.32</ele>
        <time>2017-08-07T12:21:59Z</time>
      </trkpt>
      <trkpt lat="48.52859" lon="4.66261">
        <ele>130.4</ele>
        <time>2017-08-07T12:22:16Z</time>
      </trkpt>
      <trkpt lat="48.52816" lon="4.66146">
        <ele>130.4</ele>
        <time>2017-08-07T12:22:30Z</time>
      </trkpt>
      <trkpt lat="48.52747" lon="4.66049">
        <ele>129.92</ele>
        <time>2017-08-07T12:22:45Z</time>
      </trkpt>
      <trkpt lat="48.52697" lon="4.65972">
        <ele>128.47</ele>
        <time>2017-08-07T12:22:56Z</time>
      </trkpt>
      <trkpt lat="48.52694" lon="4.65963">
        <ele>128.47</ele>
        <time>2017-08-07T12:22:57Z</time>
      </trkpt>
      <trkpt lat="48.52661" lon="4.65832">
        <ele>127.51</ele>
        <time>2017-08-07T12:23:11Z</time>
      </trkpt>
      <trkpt lat="48.5263" lon="4.65731">
        <ele>127.51</ele>
        <time>2017-08-07T12:23:25Z</time>
      </trkpt>
      <trkpt lat="48.52581" lon="4.65647">
        <ele>128.47</ele>
        <time>2017-08-07T12:23:42Z</time>
      </trkpt>
      <trkpt lat="48.52566" lon="4.65638">
        <ele>128.47</ele>
        <time>2017-08-07T12:23:46Z</time>
      </trkpt>
      <trkpt lat="48.52562" lon="4.65637">
        <ele>128.47</ele>
        <time>2017-08-07T12:23:47Z</time>
      </trkpt>
      <trkpt lat="48.52511" lon="4.65618">
        <ele>129.43</ele>
        <time>2017-08-07T12:24:02Z</time>
      </trkpt>
      <trkpt lat="48.52457" lon="4.65578">
        <ele>130.4</ele>
        <time>2017-08-07T12:24:18Z</time>
      </trkpt>
      <trkpt lat="48.52423" lon="4.65551">
        <ele>130.4</ele>
        <time>2017-08-07T12:24:28Z</time>
      </trkpt>
      <trkpt lat="48.52367" lon="4.65507">
        <ele>130.88</ele>
        <time>2017-08-07T12:24:44Z</time>
      </trkpt>
      <trkpt lat="48.52301" lon="4.6546">
        <ele>132.8</ele>
        <time>2017-08-07T12:25:04Z</time>
      </trkpt>
      <trkpt lat="48.52246" lon="4.65443">
        <ele>132.8</ele>
        <time>2017-08-07T12:25:19Z</time>
      </trkpt>
      <trkpt lat="48.52235" lon="4.65437">
        <ele>132.8</ele>
        <time>2017-08-07T12:25:22Z</time>
      </trkpt>
      <trkpt lat="48.52231" lon="4.65434">
        <ele>132.8</ele>
        <time>2017-08-07T12:25:23Z</time>
      </trkpt>
      <trkpt lat="48.52226" lon="4.65431">
        <ele>132.8</ele>
        <time>2017-08-07T12:25:24Z</time>
      </trkpt>
      <trkpt lat="48.52218" lon="4.65426">
        <ele>132.8</ele>
        <time>2017-08-07T12:25:26Z</time>
      </trkpt>
      <trkpt lat="48.52214" lon="4.65424">
        <ele>132.8</ele>
        <time>2017-08-07T12:25:27Z</time>
      </trkpt>
      <trkpt lat="48.52209" lon="4.65423">
        <ele>132.8</ele>
        <time>2017-08-07T12:25:28Z</time>
      </trkpt>
      <trkpt lat="48.522" lon="4.65422">
        <ele>132.8</ele>
        <time>2017-08-07T12:25:30Z</time>
      </trkpt>
      <trkpt lat="48.52195" lon="4.65422">
        <ele>132.8</ele>
        <time>2017-08-07T12:25:31Z</time>
      </trkpt>
      <trkpt lat="48.52181" lon="4.65423">
        <ele>132.8</ele>
        <time>2017-08-07T12:25:34Z</time>
      </trkpt>
      <trkpt lat="48.52172" lon="4.65423">
        <ele>132.8</ele>
        <time>2017-08-07T12:25:36Z</time>
      </trkpt>
      <trkpt lat="48.5209" lon="4.65428">
        <ele>132.8</ele>
        <time>2017-08-07T12:25:54Z</time>
      </trkpt>
      <trkpt lat="48.52085" lon="4.65428">
        <ele>132.8</ele>
        <time>2017-08-07T12:25:55Z</time>
      </trkpt>
      <trkpt lat="48.52081" lon="4.65428">
        <ele>132.8</ele>
        <time>2017-08-07T12:25:56Z</time>
      </trkpt>
      <trkpt lat="48.52077" lon="4.65428">
        <ele>132.8</ele>
        <time>2017-08-07T12:25:57Z</time>
      </trkpt>
      <trkpt lat="48.51985" lon="4.65433">
        <ele>132.8</ele>
        <time>2017-08-07T12:26:18Z</time>
      </trkpt>
      <trkpt lat="48.51905" lon="4.65433">
        <ele>133.28</ele>
        <time>2017-08-07T12:26:37Z</time>
      </trkpt>
      <trkpt lat="48.51851" lon="4.65392">
        <ele>134.72</ele>
        <time>2017-08-07T12:26:53Z</time>
      </trkpt>
      <trkpt lat="48.51813" lon="4.65302">
        <ele>134.72</ele>
        <time>2017-08-07T12:27:09Z</time>
      </trkpt>
      <trkpt lat="48.51777" lon="4.65206">
        <ele>134.72</ele>
        <time>2017-08-07T12:27:26Z</time>
      </trkpt>
      <trkpt lat="48.51733" lon="4.65092">
        <ele>135.68</ele>
        <time>2017-08-07T12:27:47Z</time>
      </trkpt>
      <trkpt lat="48.517" lon="4.65006">
        <ele>136.64</ele>
        <time>2017-08-07T12:28:03Z</time>
      </trkpt>
      <trkpt lat="48.51698" lon="4.65001">
        <ele>136.64</ele>
        <time>2017-08-07T12:28:04Z</time>
      </trkpt>
      <trkpt lat="48.51696" lon="4.64995">
        <ele>136.64</ele>
        <time>2017-08-07T12:28:05Z</time>
      </trkpt>
      <trkpt lat="48.51665" lon="4.64912">
        <ele>136.64</ele>
        <time>2017-08-07T12:28:19Z</time>
      </trkpt>
      <trkpt lat="48.51663" lon="4.64906">
        <ele>137.13</ele>
        <time>2017-08-07T12:28:20Z</time>
      </trkpt>
      <trkpt lat="48.51661" lon="4.649">
        <ele>137.13</ele>
        <time>2017-08-07T12:28:21Z</time>
      </trkpt>
      <trkpt lat="48.51641" lon="4.64851">
        <ele>137.13</ele>
        <time>2017-08-07T12:28:30Z</time>
      </trkpt>
      <trkpt lat="48.51639" lon="4.64846">
        <ele>137.61</ele>
        <time>2017-08-07T12:28:31Z</time>
      </trkpt>
      <trkpt lat="48.51613" lon="4.64783">
        <ele>137.61</ele>
        <time>2017-08-07T12:28:42Z</time>
      </trkpt>
      <trkpt lat="48.51571" lon="4.64679">
        <ele>137.61</ele>
        <time>2017-08-07T12:28:59Z</time>
      </trkpt>
      <trkpt lat="48.51534" lon="4.64585">
        <ele>138.57</ele>
        <time>2017-08-07T12:29:15Z</time>
      </trkpt>
      <trkpt lat="48.51504" lon="4.64512">
        <ele>138.57</ele>
        <time>2017-08-07T12:29:29Z</time>
      </trkpt>
      <trkpt lat="48.51499" lon="4.64501">
        <ele>139.05</ele>
        <time>2017-08-07T12:29:31Z</time>
      </trkpt>
      <trkpt lat="48.51497" lon="4.64496">
        <ele>139.05</ele>
        <time>2017-08-07T12:29:32Z</time>
      </trkpt>
      <trkpt lat="48.51495" lon="4.6449">
        <ele>139.05</ele>
        <time>2017-08-07T12:29:33Z</time>
      </trkpt>
      <trkpt lat="48.51491" lon="4.64483">
        <ele>139.05</ele>
        <time>2017-08-07T12:29:34Z</time>
      </trkpt>
      <trkpt lat="48.5149" lon="4.64478">
        <ele>139.05</ele>
        <time>2017-08-07T12:29:35Z</time>
      </trkpt>
      <trkpt lat="48.51466" lon="4.64411">
        <ele>139.53</ele>
        <time>2017-08-07T12:29:47Z</time>
      </trkpt>
      <trkpt lat="48.5144" lon="4.64334">
        <ele>138.57</ele>
        <time>2017-08-07T12:30:00Z</time>
      </trkpt>
      <trkpt lat="48.51398" lon="4.64214">
        <ele>137.61</ele>
        <time>2017-08-07T12:30:15Z</time>
      </trkpt>
      <trkpt lat="48.51357" lon="4.64105">
        <ele>137.13</ele>
        <time>2017-08-07T12:30:29Z</time>
      </trkpt>
      <trkpt lat="48.5132" lon="4.64003">
        <ele>137.13</ele>
        <time>2017-08-07T12:30:43Z</time>
      </trkpt>
      <trkpt lat="48.51277" lon="4.63889">
        <ele>139.05</ele>
        <time>2017-08-07T12:30:59Z</time>
      </trkpt>
      <trkpt lat="48.51248" lon="4.6381">
        <ele>139.53</ele>
        <time>2017-08-07T12:31:11Z</time>
      </trkpt>
      <trkpt lat="48.51207" lon="4.63706">
        <ele>140.97</ele>
        <time>2017-08-07T12:31:28Z</time>
      </trkpt>
      <trkpt lat="48.5117" lon="4.63614">
        <ele>141.93</ele>
        <time>2017-08-07T12:31:44Z</time>
      </trkpt>
      <trkpt lat="48.51113" lon="4.63522">
        <ele>142.89</ele>
        <time>2017-08-07T12:32:02Z</time>
      </trkpt>
      <trkpt lat="48.51056" lon="4.63448">
        <ele>142.89</ele>
        <time>2017-08-07T12:32:17Z</time>
      </trkpt>
      <trkpt lat="48.51007" lon="4.63384">
        <ele>143.37</ele>
        <time>2017-08-07T12:32:31Z</time>
      </trkpt>
      <trkpt lat="48.50944" lon="4.63301">
        <ele>144.34</ele>
        <time>2017-08-07T12:32:49Z</time>
      </trkpt>
      <trkpt lat="48.50924" lon="4.63272">
        <ele>144.34</ele>
        <time>2017-08-07T12:32:55Z</time>
      </trkpt>
      <trkpt lat="48.50915" lon="4.63256">
        <ele>144.34</ele>
        <time>2017-08-07T12:32:58Z</time>
      </trkpt>
      <trkpt lat="48.50906" lon="4.63237">
        <ele>144.34</ele>
        <time>2017-08-07T12:33:06Z</time>
      </trkpt>
      <trkpt lat="48.50903" lon="4.63237">
        <ele>144.34</ele>
        <time>2017-08-07T12:33:16Z</time>
      </trkpt>
      <trkpt lat="48.50902" lon="4.63239">
        <ele>144.34</ele>
        <time>2017-08-07T12:33:17Z</time>
      </trkpt>
      <trkpt lat="48.50903" lon="4.63241">
        <ele>144.34</ele>
        <time>2017-08-07T12:33:18Z</time>
      </trkpt>
      <trkpt lat="48.50904" lon="4.63243">
        <ele>144.34</ele>
        <time>2017-08-07T12:33:19Z</time>
      </trkpt>
      <trkpt lat="48.50905" lon="4.63245">
        <ele>144.34</ele>
        <time>2017-08-07T12:33:20Z</time>
      </trkpt>
      <trkpt lat="48.50906" lon="4.63247">
        <ele>144.34</ele>
        <time>2017-08-07T12:33:21Z</time>
      </trkpt>
      <trkpt lat="48.50908" lon="4.63249">
        <ele>144.34</ele>
        <time>2017-08-07T12:33:22Z</time>
      </trkpt>
      <trkpt lat="48.5091" lon="4.63252">
        <ele>144.34</ele>
        <time>2017-08-07T12:33:23Z</time>
      </trkpt>
      <trkpt lat="48.50918" lon="4.6326">
        <ele>144.34</ele>
        <time>2017-08-07T12:33:26Z</time>
      </trkpt>
      <trkpt lat="48.50921" lon="4.63261">
        <ele>144.34</ele>
        <time>2017-08-07T12:33:27Z</time>
      </trkpt>
      <trkpt lat="48.50928" lon="4.63253">
        <ele>144.82</ele>
        <time>2017-08-07T12:33:31Z</time>
      </trkpt>
      <trkpt lat="48.50929" lon="4.63214">
        <ele>144.82</ele>
        <time>2017-08-07T12:33:42Z</time>
      </trkpt>
      <trkpt lat="48.5093" lon="4.63202">
        <ele>144.82</ele>
        <time>2017-08-07T12:34:01Z</time>
      </trkpt>
      <trkpt lat="48.5093" lon="4.63202">
        <ele>144.34</ele>
        <time>2017-08-07T12:34:35Z</time>
      </trkpt>
      <trkpt lat="48.50928" lon="4.632">
        <ele>144.34</ele>
        <time>2017-08-07T12:34:57Z</time>
      </trkpt>
      <trkpt lat="48.50923" lon="4.63192">
        <ele>144.34</ele>
        <time>2017-08-07T12:35:20Z</time>
      </trkpt>
      <trkpt lat="48.50926" lon="4.6319">
        <ele>144.34</ele>
        <time>2017-08-07T12:35:38Z</time>
      </trkpt>
      <trkpt lat="48.50921" lon="4.63185">
        <ele>143.85</ele>
        <time>2017-08-07T12:36:17Z</time>
      </trkpt>
      <trkpt lat="48.5092" lon="4.63188">
        <ele>143.85</ele>
        <time>2017-08-07T12:36:58Z</time>
      </trkpt>
      <trkpt lat="48.50925" lon="4.6319">
        <ele>143.37</ele>
        <time>2017-08-07T12:37:39Z</time>
      </trkpt>
      <trkpt lat="48.50927" lon="4.63193">
        <ele>143.37</ele>
        <time>2017-08-07T12:38:21Z</time>
      </trkpt>
      <trkpt lat="48.50925" lon="4.63196">
        <ele>143.37</ele>
        <time>2017-08-07T12:38:59Z</time>
      </trkpt>
      <trkpt lat="48.50924" lon="4.63192">
        <ele>143.37</ele>
        <time>2017-08-07T12:39:33Z</time>
      </trkpt>
      <trkpt lat="48.50928" lon="4.63203">
        <ele>143.85</ele>
        <time>2017-08-07T12:40:04Z</time>
      </trkpt>
      <trkpt lat="48.50929" lon="4.63203">
        <ele>143.85</ele>
        <time>2017-08-07T12:40:35Z</time>
      </trkpt>
      <trkpt lat="48.50927" lon="4.63207">
        <ele>143.85</ele>
        <time>2017-08-07T12:41:06Z</time>
      </trkpt>
      <trkpt lat="48.50928" lon="4.63205">
        <ele>143.85</ele>
        <time>2017-08-07T12:41:43Z</time>
      </trkpt>
      <trkpt lat="48.50928" lon="4.63202">
        <ele>144.34</ele>
        <time>2017-08-07T12:42:08Z</time>
      </trkpt>
      <trkpt lat="48.50929" lon="4.63193">
        <ele>144.34</ele>
        <time>2017-08-07T12:42:35Z</time>
      </trkpt>
      <trkpt lat="48.50934" lon="4.63145">
        <ele>143.37</ele>
        <time>2017-08-07T12:42:46Z</time>
      </trkpt>
      <trkpt lat="48.50934" lon="4.6314">
        <ele>143.37</ele>
        <time>2017-08-07T12:42:47Z</time>
      </trkpt>
      <trkpt lat="48.50942" lon="4.63088">
        <ele>142.41</ele>
        <time>2017-08-07T12:42:57Z</time>
      </trkpt>
      <trkpt lat="48.50954" lon="4.63016">
        <ele>141.93</ele>
        <time>2017-08-07T12:43:09Z</time>
      </trkpt>
      <trkpt lat="48.50963" lon="4.62938">
        <ele>141.45</ele>
        <time>2017-08-07T12:43:23Z</time>
      </trkpt>
      <trkpt lat="48.5097" lon="4.62848">
        <ele>141.45</ele>
        <time>2017-08-07T12:43:43Z</time>
      </trkpt>
      <trkpt lat="48.50981" lon="4.62799">
        <ele>142.41</ele>
        <time>2017-08-07T12:43:56Z</time>
      </trkpt>
      <trkpt lat="48.50999" lon="4.6273">
        <ele>143.37</ele>
        <time>2017-08-07T12:44:14Z</time>
      </trkpt>
      <trkpt lat="48.51016" lon="4.62658">
        <ele>143.37</ele>
        <time>2017-08-07T12:44:31Z</time>
      </trkpt>
      <trkpt lat="48.51025" lon="4.62568">
        <ele>142.89</ele>
        <time>2017-08-07T12:44:48Z</time>
      </trkpt>
      <trkpt lat="48.5103" lon="4.62497">
        <ele>142.89</ele>
        <time>2017-08-07T12:45:02Z</time>
      </trkpt>
      <trkpt lat="48.51042" lon="4.62393">
        <ele>141.45</ele>
        <time>2017-08-07T12:45:20Z</time>
      </trkpt>
      <trkpt lat="48.51058" lon="4.62289">
        <ele>140.97</ele>
        <time>2017-08-07T12:45:36Z</time>
      </trkpt>
      <trkpt lat="48.51062" lon="4.62186">
        <ele>140.49</ele>
        <time>2017-08-07T12:45:53Z</time>
      </trkpt>
      <trkpt lat="48.51059" lon="4.62093">
        <ele>140.49</ele>
        <time>2017-08-07T12:46:10Z</time>
      </trkpt>
      <trkpt lat="48.51052" lon="4.61989">
        <ele>140.01</ele>
        <time>2017-08-07T12:46:30Z</time>
      </trkpt>
      <trkpt lat="48.51058" lon="4.61912">
        <ele>141.45</ele>
        <time>2017-08-07T12:46:47Z</time>
      </trkpt>
      <trkpt lat="48.51068" lon="4.61878">
        <ele>141.45</ele>
        <time>2017-08-07T12:46:54Z</time>
      </trkpt>
      <trkpt lat="48.51139" lon="4.61762">
        <ele>140.97</ele>
        <time>2017-08-07T12:47:17Z</time>
      </trkpt>
      <trkpt lat="48.51207" lon="4.61661">
        <ele>139.53</ele>
        <time>2017-08-07T12:47:35Z</time>
      </trkpt>
      <trkpt lat="48.51221" lon="4.61626">
        <ele>139.53</ele>
        <time>2017-08-07T12:47:40Z</time>
      </trkpt>
      <trkpt lat="48.51233" lon="4.61515">
        <ele>139.05</ele>
        <time>2017-08-07T12:47:56Z</time>
      </trkpt>
      <trkpt lat="48.51254" lon="4.6141">
        <ele>140.01</ele>
        <time>2017-08-07T12:48:15Z</time>
      </trkpt>
      <trkpt lat="48.51277" lon="4.61329">
        <ele>141.45</ele>
        <time>2017-08-07T12:48:34Z</time>
      </trkpt>
      <trkpt lat="48.513" lon="4.61258">
        <ele>142.89</ele>
        <time>2017-08-07T12:48:53Z</time>
      </trkpt>
      <trkpt lat="48.51323" lon="4.61229">
        <ele>143.85</ele>
        <time>2017-08-07T12:49:05Z</time>
      </trkpt>
      <trkpt lat="48.51321" lon="4.61211">
        <ele>144.34</ele>
        <time>2017-08-07T12:49:11Z</time>
      </trkpt>
      <trkpt lat="48.51285" lon="4.61175">
        <ele>143.85</ele>
        <time>2017-08-07T12:49:26Z</time>
      </trkpt>
      <trkpt lat="48.51241" lon="4.61116">
        <ele>144.34</ele>
        <time>2017-08-07T12:49:42Z</time>
      </trkpt>
      <trkpt lat="48.51176" lon="4.61042">
        <ele>142.89</ele>
        <time>2017-08-07T12:50:01Z</time>
      </trkpt>
      <trkpt lat="48.51173" lon="4.61038">
        <ele>142.89</ele>
        <time>2017-08-07T12:50:02Z</time>
      </trkpt>
      <trkpt lat="48.51131" lon="4.60992">
        <ele>140.01</ele>
        <time>2017-08-07T12:50:10Z</time>
      </trkpt>
      <trkpt lat="48.51073" lon="4.60944">
        <ele>136.64</ele>
        <time>2017-08-07T12:50:19Z</time>
      </trkpt>
      <trkpt lat="48.50991" lon="4.60872">
        <ele>134.24</ele>
        <time>2017-08-07T12:50:32Z</time>
      </trkpt>
      <trkpt lat="48.50934" lon="4.60807">
        <ele>133.28</ele>
        <time>2017-08-07T12:50:44Z</time>
      </trkpt>
      <trkpt lat="48.50903" lon="4.60796">
        <ele>132.8</ele>
        <time>2017-08-07T12:50:50Z</time>
      </trkpt>
      <trkpt lat="48.50879" lon="4.60794">
        <ele>131.84</ele>
        <time>2017-08-07T12:50:54Z</time>
      </trkpt>
      <trkpt lat="48.5081" lon="4.60748">
        <ele>130.88</ele>
        <time>2017-08-07T12:51:08Z</time>
      </trkpt>
      <trkpt lat="48.50765" lon="4.60699">
        <ele>132.32</ele>
        <time>2017-08-07T12:51:22Z</time>
      </trkpt>
      <trkpt lat="48.50732" lon="4.60681">
        <ele>131.84</ele>
        <time>2017-08-07T12:51:31Z</time>
      </trkpt>
      <trkpt lat="48.50717" lon="4.60676">
        <ele>131.84</ele>
        <time>2017-08-07T12:51:35Z</time>
      </trkpt>
      <trkpt lat="48.50638" lon="4.60683">
        <ele>130.4</ele>
        <time>2017-08-07T12:51:51Z</time>
      </trkpt>
      <trkpt lat="48.50552" lon="4.60688">
        <ele>129.92</ele>
        <time>2017-08-07T12:52:09Z</time>
      </trkpt>
      <trkpt lat="48.50528" lon="4.60684">
        <ele>129.92</ele>
        <time>2017-08-07T12:52:15Z</time>
      </trkpt>
      <trkpt lat="48.50527" lon="4.60681">
        <ele>129.92</ele>
        <time>2017-08-07T12:52:16Z</time>
      </trkpt>
      <trkpt lat="48.50526" lon="4.60676">
        <ele>129.92</ele>
        <time>2017-08-07T12:52:17Z</time>
      </trkpt>
      <trkpt lat="48.50523" lon="4.60583">
        <ele>130.88</ele>
        <time>2017-08-07T12:52:34Z</time>
      </trkpt>
      <trkpt lat="48.50521" lon="4.60577">
        <ele>131.36</ele>
        <time>2017-08-07T12:52:35Z</time>
      </trkpt>
      <trkpt lat="48.50517" lon="4.60573">
        <ele>131.36</ele>
        <time>2017-08-07T12:52:36Z</time>
      </trkpt>
      <trkpt lat="48.50512" lon="4.6057">
        <ele>131.36</ele>
        <time>2017-08-07T12:52:37Z</time>
      </trkpt>
      <trkpt lat="48.5051" lon="4.60569">
        <ele>131.36</ele>
        <time>2017-08-07T12:52:38Z</time>
      </trkpt>
      <trkpt lat="48.50505" lon="4.60569">
        <ele>131.36</ele>
        <time>2017-08-07T12:52:39Z</time>
      </trkpt>
      <trkpt lat="48.50502" lon="4.60569">
        <ele>131.36</ele>
        <time>2017-08-07T12:52:40Z</time>
      </trkpt>
      <trkpt lat="48.50415" lon="4.60571">
        <ele>131.36</ele>
        <time>2017-08-07T12:52:59Z</time>
      </trkpt>
      <trkpt lat="48.50387" lon="4.60569">
        <ele>131.36</ele>
        <time>2017-08-07T12:53:04Z</time>
      </trkpt>
      <trkpt lat="48.5038" lon="4.60567">
        <ele>131.36</ele>
        <time>2017-08-07T12:53:05Z</time>
      </trkpt>
      <trkpt lat="48.50374" lon="4.60564">
        <ele>131.36</ele>
        <time>2017-08-07T12:53:06Z</time>
      </trkpt>
      <trkpt lat="48.50369" lon="4.6056">
        <ele>131.36</ele>
        <time>2017-08-07T12:53:07Z</time>
      </trkpt>
      <trkpt lat="48.50364" lon="4.60555">
        <ele>131.36</ele>
        <time>2017-08-07T12:53:08Z</time>
      </trkpt>
      <trkpt lat="48.50359" lon="4.60549">
        <ele>129.92</ele>
        <time>2017-08-07T12:53:09Z</time>
      </trkpt>
      <trkpt lat="48.50354" lon="4.60543">
        <ele>129.92</ele>
        <time>2017-08-07T12:53:10Z</time>
      </trkpt>
      <trkpt lat="48.50274" lon="4.60459">
        <ele>129.92</ele>
        <time>2017-08-07T12:53:27Z</time>
      </trkpt>
      <trkpt lat="48.50193" lon="4.60375">
        <ele>128.95</ele>
        <time>2017-08-07T12:53:44Z</time>
      </trkpt>
      <trkpt lat="48.50121" lon="4.60344">
        <ele>128.95</ele>
        <time>2017-08-07T12:53:59Z</time>
      </trkpt>
      <trkpt lat="48.50086" lon="4.60349">
        <ele>131.36</ele>
        <time>2017-08-07T12:54:08Z</time>
      </trkpt>
      <trkpt lat="48.50082" lon="4.60351">
        <ele>131.36</ele>
        <time>2017-08-07T12:54:09Z</time>
      </trkpt>
      <trkpt lat="48.50066" lon="4.60366">
        <ele>131.36</ele>
        <time>2017-08-07T12:54:13Z</time>
      </trkpt>
      <trkpt lat="48.50027" lon="4.60416">
        <ele>130.88</ele>
        <time>2017-08-07T12:54:25Z</time>
      </trkpt>
      <trkpt lat="48.50016" lon="4.60426">
        <ele>130.88</ele>
        <time>2017-08-07T12:54:28Z</time>
      </trkpt>
      <trkpt lat="48.49948" lon="4.60463">
        <ele>131.84</ele>
        <time>2017-08-07T12:54:47Z</time>
      </trkpt>
      <trkpt lat="48.49893" lon="4.60494">
        <ele>131.84</ele>
        <time>2017-08-07T12:55:02Z</time>
      </trkpt>
      <trkpt lat="48.49815" lon="4.60549">
        <ele>132.32</ele>
        <time>2017-08-07T12:55:20Z</time>
      </trkpt>
      <trkpt lat="48.49754" lon="4.60594">
        <ele>130.88</ele>
        <time>2017-08-07T12:55:31Z</time>
      </trkpt>
      <trkpt lat="48.49724" lon="4.60617">
        <ele>130.4</ele>
        <time>2017-08-07T12:55:36Z</time>
      </trkpt>
      <trkpt lat="48.49712" lon="4.60625">
        <ele>130.4</ele>
        <time>2017-08-07T12:55:38Z</time>
      </trkpt>
      <trkpt lat="48.49658" lon="4.60665">
        <ele>129.92</ele>
        <time>2017-08-07T12:55:48Z</time>
      </trkpt>
      <trkpt lat="48.49653" lon="4.60669">
        <ele>129.92</ele>
        <time>2017-08-07T12:55:49Z</time>
      </trkpt>
      <trkpt lat="48.49547" lon="4.60742">
        <ele>128.95</ele>
        <time>2017-08-07T12:56:08Z</time>
      </trkpt>
      <trkpt lat="48.49537" lon="4.6075">
        <ele>128.95</ele>
        <time>2017-08-07T12:56:10Z</time>
      </trkpt>
      <trkpt lat="48.49464" lon="4.60804">
        <ele>129.92</ele>
        <time>2017-08-07T12:56:26Z</time>
      </trkpt>
      <trkpt lat="48.49378" lon="4.60866">
        <ele>127.99</ele>
        <time>2017-08-07T12:56:41Z</time>
      </trkpt>
      <trkpt lat="48.49262" lon="4.60949">
        <ele>125.59</ele>
        <time>2017-08-07T12:57:00Z</time>
      </trkpt>
      <trkpt lat="48.49258" lon="4.60957">
        <ele>125.59</ele>
        <time>2017-08-07T12:57:01Z</time>
      </trkpt>
      <trkpt lat="48.49254" lon="4.60964">
        <ele>125.59</ele>
        <time>2017-08-07T12:57:02Z</time>
      </trkpt>
      <trkpt lat="48.49191" lon="4.61098">
        <ele>123.67</ele>
        <time>2017-08-07T12:57:20Z</time>
      </trkpt>
      <trkpt lat="48.49164" lon="4.61146">
        <ele>123.67</ele>
        <time>2017-08-07T12:57:27Z</time>
      </trkpt>
      <trkpt lat="48.49144" lon="4.61168">
        <ele>123.19</ele>
        <time>2017-08-07T12:57:32Z</time>
      </trkpt>
      <trkpt lat="48.49078" lon="4.61232">
        <ele>124.63</ele>
        <time>2017-08-07T12:57:50Z</time>
      </trkpt>
      <trkpt lat="48.49022" lon="4.61303">
        <ele>126.07</ele>
        <time>2017-08-07T12:58:10Z</time>
      </trkpt>
      <trkpt lat="48.48978" lon="4.61379">
        <ele>126.07</ele>
        <time>2017-08-07T12:58:27Z</time>
      </trkpt>
      <trkpt lat="48.48929" lon="4.61441">
        <ele>126.55</ele>
        <time>2017-08-07T12:58:44Z</time>
      </trkpt>
      <trkpt lat="48.48876" lon="4.61473">
        <ele>127.51</ele>
        <time>2017-08-07T12:59:01Z</time>
      </trkpt>
      <trkpt lat="48.48825" lon="4.61468">
        <ele>127.99</ele>
        <time>2017-08-07T12:59:17Z</time>
      </trkpt>
      <trkpt lat="48.48772" lon="4.61425">
        <ele>128.47</ele>
        <time>2017-08-07T12:59:34Z</time>
      </trkpt>
      <trkpt lat="48.48713" lon="4.61376">
        <ele>128.47</ele>
        <time>2017-08-07T12:59:51Z</time>
      </trkpt>
      <trkpt lat="48.48709" lon="4.61373">
        <ele>128.47</ele>
        <time>2017-08-07T12:59:52Z</time>
      </trkpt>
      <trkpt lat="48.48665" lon="4.61338">
        <ele>128.47</ele>
        <time>2017-08-07T13:00:03Z</time>
      </trkpt>
      <trkpt lat="48.48661" lon="4.61335">
        <ele>128.47</ele>
        <time>2017-08-07T13:00:04Z</time>
      </trkpt>
      <trkpt lat="48.48657" lon="4.61332">
        <ele>128.47</ele>
        <time>2017-08-07T13:00:05Z</time>
      </trkpt>
      <trkpt lat="48.48654" lon="4.61328">
        <ele>128.47</ele>
        <time>2017-08-07T13:00:06Z</time>
      </trkpt>
      <trkpt lat="48.4865" lon="4.61324">
        <ele>128.47</ele>
        <time>2017-08-07T13:00:07Z</time>
      </trkpt>
      <trkpt lat="48.48646" lon="4.6132">
        <ele>128.47</ele>
        <time>2017-08-07T13:00:08Z</time>
      </trkpt>
      <trkpt lat="48.48642" lon="4.61317">
        <ele>128.47</ele>
        <time>2017-08-07T13:00:09Z</time>
      </trkpt>
      <trkpt lat="48.48635" lon="4.6131">
        <ele>128.47</ele>
        <time>2017-08-07T13:00:11Z</time>
      </trkpt>
      <trkpt lat="48.48631" lon="4.61306">
        <ele>128.47</ele>
        <time>2017-08-07T13:00:12Z</time>
      </trkpt>
      <trkpt lat="48.48581" lon="4.61257">
        <ele>127.51</ele>
        <time>2017-08-07T13:00:27Z</time>
      </trkpt>
      <trkpt lat="48.48578" lon="4.61255">
        <ele>127.51</ele>
        <time>2017-08-07T13:00:28Z</time>
      </trkpt>
      <trkpt lat="48.48575" lon="4.61251">
        <ele>127.51</ele>
        <time>2017-08-07T13:00:29Z</time>
      </trkpt>
      <trkpt lat="48.48572" lon="4.61247">
        <ele>127.51</ele>
        <time>2017-08-07T13:00:30Z</time>
      </trkpt>
      <trkpt lat="48.48568" lon="4.61243">
        <ele>126.55</ele>
        <time>2017-08-07T13:00:31Z</time>
      </trkpt>
      <trkpt lat="48.48496" lon="4.61176">
        <ele>124.63</ele>
        <time>2017-08-07T13:00:47Z</time>
      </trkpt>
      <trkpt lat="48.48418" lon="4.61112">
        <ele>123.67</ele>
        <time>2017-08-07T13:01:02Z</time>
      </trkpt>
      <trkpt lat="48.48384" lon="4.61069">
        <ele>125.11</ele>
        <time>2017-08-07T13:01:14Z</time>
      </trkpt>
      <trkpt lat="48.48383" lon="4.61068">
        <ele>124.63</ele>
        <time>2017-08-07T13:01:31Z</time>
      </trkpt>
      <trkpt lat="48.48378" lon="4.61061">
        <ele>124.63</ele>
        <time>2017-08-07T13:01:45Z</time>
      </trkpt>
      <trkpt lat="48.48374" lon="4.61057">
        <ele>124.63</ele>
        <time>2017-08-07T13:01:48Z</time>
      </trkpt>
      <trkpt lat="48.48373" lon="4.61055">
        <ele>124.63</ele>
        <time>2017-08-07T13:01:49Z</time>
      </trkpt>
      <trkpt lat="48.48371" lon="4.61053">
        <ele>125.59</ele>
        <time>2017-08-07T13:01:50Z</time>
      </trkpt>
      <trkpt lat="48.48366" lon="4.61042">
        <ele>125.59</ele>
        <time>2017-08-07T13:02:00Z</time>
      </trkpt>
      <trkpt lat="48.48367" lon="4.61039">
        <ele>125.11</ele>
        <time>2017-08-07T13:02:18Z</time>
      </trkpt>
      <trkpt lat="48.48352" lon="4.61008">
        <ele>125.11</ele>
        <time>2017-08-07T13:02:27Z</time>
      </trkpt>
      <trkpt lat="48.48332" lon="4.60963">
        <ele>125.59</ele>
        <time>2017-08-07T13:02:37Z</time>
      </trkpt>
      <trkpt lat="48.48303" lon="4.60876">
        <ele>126.07</ele>
        <time>2017-08-07T13:02:51Z</time>
      </trkpt>
      <trkpt lat="48.48263" lon="4.60794">
        <ele>126.55</ele>
        <time>2017-08-07T13:03:05Z</time>
      </trkpt>
      <trkpt lat="48.48249" lon="4.60772">
        <ele>126.55</ele>
        <time>2017-08-07T13:03:09Z</time>
      </trkpt>
      <trkpt lat="48.48196" lon="4.60715">
        <ele>125.59</ele>
        <time>2017-08-07T13:03:21Z</time>
      </trkpt>
      <trkpt lat="48.48172" lon="4.60693">
        <ele>125.59</ele>
        <time>2017-08-07T13:03:26Z</time>
      </trkpt>
      <trkpt lat="48.48168" lon="4.60686">
        <ele>125.11</ele>
        <time>2017-08-07T13:03:27Z</time>
      </trkpt>
      <trkpt lat="48.48152" lon="4.60658">
        <ele>124.63</ele>
        <time>2017-08-07T13:03:31Z</time>
      </trkpt>
      <trkpt lat="48.48149" lon="4.60651">
        <ele>124.63</ele>
        <time>2017-08-07T13:03:32Z</time>
      </trkpt>
      <trkpt lat="48.48146" lon="4.60641">
        <ele>125.11</ele>
        <time>2017-08-07T13:03:33Z</time>
      </trkpt>
      <trkpt lat="48.48118" lon="4.60522">
        <ele>125.11</ele>
        <time>2017-08-07T13:03:48Z</time>
      </trkpt>
      <trkpt lat="48.48088" lon="4.60407">
        <ele>124.63</ele>
        <time>2017-08-07T13:04:03Z</time>
      </trkpt>
      <trkpt lat="48.48061" lon="4.60304">
        <ele>124.63</ele>
        <time>2017-08-07T13:04:16Z</time>
      </trkpt>
      <trkpt lat="48.48018" lon="4.6016">
        <ele>123.67</ele>
        <time>2017-08-07T13:04:32Z</time>
      </trkpt>
      <trkpt lat="48.48001" lon="4.60104">
        <ele>125.11</ele>
        <time>2017-08-07T13:04:39Z</time>
      </trkpt>
      <trkpt lat="48.47968" lon="4.59999">
        <ele>123.67</ele>
        <time>2017-08-07T13:04:52Z</time>
      </trkpt>
      <trkpt lat="48.47928" lon="4.59827">
        <ele>121.74</ele>
        <time>2017-08-07T13:05:10Z</time>
      </trkpt>
      <trkpt lat="48.47896" lon="4.59706">
        <ele>121.74</ele>
        <time>2017-08-07T13:05:26Z</time>
      </trkpt>
      <trkpt lat="48.47893" lon="4.59695">
        <ele>122.71</ele>
        <time>2017-08-07T13:05:28Z</time>
      </trkpt>
      <trkpt lat="48.47862" lon="4.59582">
        <ele>122.71</ele>
        <time>2017-08-07T13:05:45Z</time>
      </trkpt>
      <trkpt lat="48.47863" lon="4.59475">
        <ele>123.19</ele>
        <time>2017-08-07T13:06:02Z</time>
      </trkpt>
      <trkpt lat="48.47858" lon="4.59373">
        <ele>123.67</ele>
        <time>2017-08-07T13:06:17Z</time>
      </trkpt>
      <trkpt lat="48.47829" lon="4.59289">
        <ele>122.22</ele>
        <time>2017-08-07T13:06:29Z</time>
      </trkpt>
      <trkpt lat="48.47783" lon="4.59166">
        <ele>123.19</ele>
        <time>2017-08-07T13:06:47Z</time>
      </trkpt>
      <trkpt lat="48.4776" lon="4.59071">
        <ele>124.15</ele>
        <time>2017-08-07T13:07:04Z</time>
      </trkpt>
      <trkpt lat="48.47747" lon="4.58989">
        <ele>125.11</ele>
        <time>2017-08-07T13:07:20Z</time>
      </trkpt>
      <trkpt lat="48.47709" lon="4.58971">
        <ele>125.11</ele>
        <time>2017-08-07T13:07:31Z</time>
      </trkpt>
      <trkpt lat="48.47675" lon="4.5897">
        <ele>123.67</ele>
        <time>2017-08-07T13:07:40Z</time>
      </trkpt>
      <trkpt lat="48.47627" lon="4.58972">
        <ele>123.67</ele>
        <time>2017-08-07T13:07:54Z</time>
      </trkpt>
      <trkpt lat="48.47626" lon="4.58968">
        <ele>122.71</ele>
        <time>2017-08-07T13:08:18Z</time>
      </trkpt>
      <trkpt lat="48.47627" lon="4.58973">
        <ele>123.67</ele>
        <time>2017-08-07T13:08:43Z</time>
      </trkpt>
      <trkpt lat="48.47616" lon="4.58976">
        <ele>123.67</ele>
        <time>2017-08-07T13:08:58Z</time>
      </trkpt>
      <trkpt lat="48.47606" lon="4.58977">
        <ele>123.67</ele>
        <time>2017-08-07T13:09:01Z</time>
      </trkpt>
      <trkpt lat="48.47557" lon="4.58981">
        <ele>123.67</ele>
        <time>2017-08-07T13:09:15Z</time>
      </trkpt>
      <trkpt lat="48.4753" lon="4.58983">
        <ele>122.22</ele>
        <time>2017-08-07T13:09:21Z</time>
      </trkpt>
      <trkpt lat="48.47467" lon="4.58993">
        <ele>122.22</ele>
        <time>2017-08-07T13:09:33Z</time>
      </trkpt>
      <trkpt lat="48.47372" lon="4.59035">
        <ele>121.74</ele>
        <time>2017-08-07T13:09:51Z</time>
      </trkpt>
      <trkpt lat="48.47263" lon="4.59083">
        <ele>121.26</ele>
        <time>2017-08-07T13:10:11Z</time>
      </trkpt>
      <trkpt lat="48.47171" lon="4.59123">
        <ele>121.26</ele>
        <time>2017-08-07T13:10:29Z</time>
      </trkpt>
      <trkpt lat="48.47083" lon="4.59155">
        <ele>121.26</ele>
        <time>2017-08-07T13:10:47Z</time>
      </trkpt>
      <trkpt lat="48.47064" lon="4.59155">
        <ele>122.71</ele>
        <time>2017-08-07T13:10:56Z</time>
      </trkpt>
      <trkpt lat="48.47062" lon="4.59156">
        <ele>122.22</ele>
        <time>2017-08-07T13:11:21Z</time>
      </trkpt>
      <trkpt lat="48.4706" lon="4.59156">
        <ele>122.22</ele>
        <time>2017-08-07T13:11:45Z</time>
      </trkpt>
      <trkpt lat="48.47026" lon="4.59155">
        <ele>122.22</ele>
        <time>2017-08-07T13:11:56Z</time>
      </trkpt>
      <trkpt lat="48.47005" lon="4.59155">
        <ele>122.22</ele>
        <time>2017-08-07T13:12:01Z</time>
      </trkpt>
      <trkpt lat="48.47001" lon="4.59155">
        <ele>122.22</ele>
        <time>2017-08-07T13:12:02Z</time>
      </trkpt>
      <trkpt lat="48.4691" lon="4.59152">
        <ele>122.22</ele>
        <time>2017-08-07T13:12:22Z</time>
      </trkpt>
      <trkpt lat="48.46816" lon="4.59135">
        <ele>122.22</ele>
        <time>2017-08-07T13:12:42Z</time>
      </trkpt>
      <trkpt lat="48.46733" lon="4.59087">
        <ele>122.22</ele>
        <time>2017-08-07T13:12:59Z</time>
      </trkpt>
      <trkpt lat="48.46637" lon="4.59032">
        <ele>120.78</ele>
        <time>2017-08-07T13:13:18Z</time>
      </trkpt>
      <trkpt lat="48.46614" lon="4.59018">
        <ele>120.78</ele>
        <time>2017-08-07T13:13:23Z</time>
      </trkpt>
      <trkpt lat="48.46531" lon="4.58972">
        <ele>120.78</ele>
        <time>2017-08-07T13:13:40Z</time>
      </trkpt>
      <trkpt lat="48.4644" lon="4.58963">
        <ele>120.78</ele>
        <time>2017-08-07T13:13:57Z</time>
      </trkpt>
      <trkpt lat="48.46435" lon="4.58964">
        <ele>120.78</ele>
        <time>2017-08-07T13:13:58Z</time>
      </trkpt>
      <trkpt lat="48.4643" lon="4.58966">
        <ele>120.78</ele>
        <time>2017-08-07T13:13:59Z</time>
      </trkpt>
      <trkpt lat="48.46406" lon="4.58982">
        <ele>120.78</ele>
        <time>2017-08-07T13:14:04Z</time>
      </trkpt>
      <trkpt lat="48.46338" lon="4.59014">
        <ele>120.78</ele>
        <time>2017-08-07T13:14:17Z</time>
      </trkpt>
      <trkpt lat="48.46211" lon="4.59033">
        <ele>120.78</ele>
        <time>2017-08-07T13:14:40Z</time>
      </trkpt>
      <trkpt lat="48.46099" lon="4.5904">
        <ele>121.74</ele>
        <time>2017-08-07T13:15:01Z</time>
      </trkpt>
      <trkpt lat="48.4604" lon="4.59001">
        <ele>121.74</ele>
        <time>2017-08-07T13:15:13Z</time>
      </trkpt>
      <trkpt lat="48.46009" lon="4.58971">
        <ele>121.74</ele>
        <time>2017-08-07T13:15:20Z</time>
      </trkpt>
      <trkpt lat="48.46004" lon="4.58969">
        <ele>121.74</ele>
        <time>2017-08-07T13:15:21Z</time>
      </trkpt>
      <trkpt lat="48.45915" lon="4.58954">
        <ele>123.19</ele>
        <time>2017-08-07T13:15:39Z</time>
      </trkpt>
      <trkpt lat="48.45881" lon="4.58942">
        <ele>124.15</ele>
        <time>2017-08-07T13:15:48Z</time>
      </trkpt>
      <trkpt lat="48.45878" lon="4.58938">
        <ele>124.15</ele>
        <time>2017-08-07T13:15:49Z</time>
      </trkpt>
      <trkpt lat="48.45844" lon="4.58896">
        <ele>123.67</ele>
        <time>2017-08-07T13:15:58Z</time>
      </trkpt>
      <trkpt lat="48.45839" lon="4.58893">
        <ele>123.67</ele>
        <time>2017-08-07T13:15:59Z</time>
      </trkpt>
      <trkpt lat="48.45834" lon="4.58892">
        <ele>123.67</ele>
        <time>2017-08-07T13:16:00Z</time>
      </trkpt>
      <trkpt lat="48.4583" lon="4.58891">
        <ele>123.67</ele>
        <time>2017-08-07T13:16:01Z</time>
      </trkpt>
      <trkpt lat="48.45825" lon="4.58892">
        <ele>123.67</ele>
        <time>2017-08-07T13:16:02Z</time>
      </trkpt>
      <trkpt lat="48.4582" lon="4.58893">
        <ele>123.67</ele>
        <time>2017-08-07T13:16:03Z</time>
      </trkpt>
      <trkpt lat="48.45745" lon="4.58938">
        <ele>124.63</ele>
        <time>2017-08-07T13:16:21Z</time>
      </trkpt>
      <trkpt lat="48.4566" lon="4.59004">
        <ele>125.11</ele>
        <time>2017-08-07T13:16:43Z</time>
      </trkpt>
      <trkpt lat="48.45596" lon="4.59053">
        <ele>127.03</ele>
        <time>2017-08-07T13:17:02Z</time>
      </trkpt>
      <trkpt lat="48.45599" lon="4.59056">
        <ele>127.03</ele>
        <time>2017-08-07T13:17:04Z</time>
      </trkpt>
      <trkpt lat="48.45602" lon="4.59055">
        <ele>127.03</ele>
        <time>2017-08-07T13:17:05Z</time>
      </trkpt>
      <trkpt lat="48.45605" lon="4.59052">
        <ele>127.03</ele>
        <time>2017-08-07T13:17:06Z</time>
      </trkpt>
      <trkpt lat="48.45615" lon="4.59045">
        <ele>127.03</ele>
        <time>2017-08-07T13:17:09Z</time>
      </trkpt>
      <trkpt lat="48.45626" lon="4.59035">
        <ele>127.03</ele>
        <time>2017-08-07T13:17:12Z</time>
      </trkpt>
      <trkpt lat="48.45637" lon="4.59026">
        <ele>127.03</ele>
        <time>2017-08-07T13:17:15Z</time>
      </trkpt>
      <trkpt lat="48.45638" lon="4.5902">
        <ele>127.03</ele>
        <time>2017-08-07T13:17:16Z</time>
      </trkpt>
      <trkpt lat="48.45638" lon="4.59015">
        <ele>127.03</ele>
        <time>2017-08-07T13:17:17Z</time>
      </trkpt>
      <trkpt lat="48.45637" lon="4.5901">
        <ele>127.03</ele>
        <time>2017-08-07T13:17:18Z</time>
      </trkpt>
      <trkpt lat="48.45634" lon="4.59004">
        <ele>127.03</ele>
        <time>2017-08-07T13:17:19Z</time>
      </trkpt>
      <trkpt lat="48.45632" lon="4.59">
        <ele>127.03</ele>
        <time>2017-08-07T13:17:20Z</time>
      </trkpt>
      <trkpt lat="48.45607" lon="4.5894">
        <ele>127.51</ele>
        <time>2017-08-07T13:17:33Z</time>
      </trkpt>
      <trkpt lat="48.45603" lon="4.58934">
        <ele>127.51</ele>
        <time>2017-08-07T13:17:35Z</time>
      </trkpt>
      <trkpt lat="48.45601" lon="4.58933">
        <ele>127.51</ele>
        <time>2017-08-07T13:17:36Z</time>
      </trkpt>
      <trkpt lat="48.45598" lon="4.58934">
        <ele>127.51</ele>
        <time>2017-08-07T13:17:37Z</time>
      </trkpt>
      <trkpt lat="48.45595" lon="4.58935">
        <ele>127.51</ele>
        <time>2017-08-07T13:17:38Z</time>
      </trkpt>
      <trkpt lat="48.45592" lon="4.58936">
        <ele>127.99</ele>
        <time>2017-08-07T13:17:39Z</time>
      </trkpt>
      <trkpt lat="48.45588" lon="4.58937">
        <ele>127.99</ele>
        <time>2017-08-07T13:17:40Z</time>
      </trkpt>
      <trkpt lat="48.4554" lon="4.58959">
        <ele>128.47</ele>
        <time>2017-08-07T13:17:54Z</time>
      </trkpt>
      <trkpt lat="48.45537" lon="4.58958">
        <ele>128.47</ele>
        <time>2017-08-07T13:17:55Z</time>
      </trkpt>
      <trkpt lat="48.45534" lon="4.58954">
        <ele>128.47</ele>
        <time>2017-08-07T13:17:56Z</time>
      </trkpt>
      <trkpt lat="48.45532" lon="4.5895">
        <ele>128.95</ele>
        <time>2017-08-07T13:17:57Z</time>
      </trkpt>
      <trkpt lat="48.45531" lon="4.58945">
        <ele>128.95</ele>
        <time>2017-08-07T13:17:58Z</time>
      </trkpt>
      <trkpt lat="48.45504" lon="4.58819">
        <ele>129.43</ele>
        <time>2017-08-07T13:18:17Z</time>
      </trkpt>
      <trkpt lat="48.45489" lon="4.58761">
        <ele>129.43</ele>
        <time>2017-08-07T13:18:25Z</time>
      </trkpt>
      <trkpt lat="48.45487" lon="4.58755">
        <ele>129.43</ele>
        <time>2017-08-07T13:18:26Z</time>
      </trkpt>
      <trkpt lat="48.45483" lon="4.58749">
        <ele>129.43</ele>
        <time>2017-08-07T13:18:27Z</time>
      </trkpt>
      <trkpt lat="48.45479" lon="4.58743">
        <ele>129.43</ele>
        <time>2017-08-07T13:18:28Z</time>
      </trkpt>
      <trkpt lat="48.45475" lon="4.58738">
        <ele>129.43</ele>
        <time>2017-08-07T13:18:29Z</time>
      </trkpt>
      <trkpt lat="48.45402" lon="4.58665">
        <ele>129.43</ele>
        <time>2017-08-07T13:18:44Z</time>
      </trkpt>
      <trkpt lat="48.45306" lon="4.58569">
        <ele>128.95</ele>
        <time>2017-08-07T13:19:03Z</time>
      </trkpt>
      <trkpt lat="48.45194" lon="4.58459">
        <ele>128.95</ele>
        <time>2017-08-07T13:19:25Z</time>
      </trkpt>
      <trkpt lat="48.45097" lon="4.58365">
        <ele>128.95</ele>
        <time>2017-08-07T13:19:44Z</time>
      </trkpt>
      <trkpt lat="48.45001" lon="4.58269">
        <ele>128.95</ele>
        <time>2017-08-07T13:20:03Z</time>
      </trkpt>
      <trkpt lat="48.44905" lon="4.58177">
        <ele>128.95</ele>
        <time>2017-08-07T13:20:22Z</time>
      </trkpt>
      <trkpt lat="48.44893" lon="4.5817">
        <ele>127.51</ele>
        <time>2017-08-07T13:20:24Z</time>
      </trkpt>
      <trkpt lat="48.44887" lon="4.58168">
        <ele>127.51</ele>
        <time>2017-08-07T13:20:25Z</time>
      </trkpt>
      <trkpt lat="48.44881" lon="4.58166">
        <ele>127.51</ele>
        <time>2017-08-07T13:20:26Z</time>
      </trkpt>
      <trkpt lat="48.44856" lon="4.58164">
        <ele>127.03</ele>
        <time>2017-08-07T13:20:30Z</time>
      </trkpt>
      <trkpt lat="48.44851" lon="4.58165">
        <ele>127.03</ele>
        <time>2017-08-07T13:20:31Z</time>
      </trkpt>
      <trkpt lat="48.44769" lon="4.58188">
        <ele>127.03</ele>
        <time>2017-08-07T13:20:47Z</time>
      </trkpt>
      <trkpt lat="48.44739" lon="4.58195">
        <ele>127.03</ele>
        <time>2017-08-07T13:20:53Z</time>
      </trkpt>
      <trkpt lat="48.44735" lon="4.58193">
        <ele>126.55</ele>
        <time>2017-08-07T13:20:54Z</time>
      </trkpt>
      <trkpt lat="48.4473" lon="4.5819">
        <ele>126.55</ele>
        <time>2017-08-07T13:20:55Z</time>
      </trkpt>
      <trkpt lat="48.44726" lon="4.58184">
        <ele>126.55</ele>
        <time>2017-08-07T13:20:56Z</time>
      </trkpt>
      <trkpt lat="48.44723" lon="4.58177">
        <ele>126.55</ele>
        <time>2017-08-07T13:20:57Z</time>
      </trkpt>
      <trkpt lat="48.44721" lon="4.58169">
        <ele>125.59</ele>
        <time>2017-08-07T13:20:58Z</time>
      </trkpt>
      <trkpt lat="48.44719" lon="4.5816">
        <ele>125.59</ele>
        <time>2017-08-07T13:20:59Z</time>
      </trkpt>
      <trkpt lat="48.44691" lon="4.58041">
        <ele>125.11</ele>
        <time>2017-08-07T13:21:13Z</time>
      </trkpt>
      <trkpt lat="48.44686" lon="4.58025">
        <ele>125.11</ele>
        <time>2017-08-07T13:21:15Z</time>
      </trkpt>
      <trkpt lat="48.44682" lon="4.58019">
        <ele>124.63</ele>
        <time>2017-08-07T13:21:16Z</time>
      </trkpt>
      <trkpt lat="48.44678" lon="4.58015">
        <ele>124.63</ele>
        <time>2017-08-07T13:21:17Z</time>
      </trkpt>
      <trkpt lat="48.44672" lon="4.58014">
        <ele>124.63</ele>
        <time>2017-08-07T13:21:18Z</time>
      </trkpt>
      <trkpt lat="48.44666" lon="4.58017">
        <ele>124.15</ele>
        <time>2017-08-07T13:21:19Z</time>
      </trkpt>
      <trkpt lat="48.44662" lon="4.5802">
        <ele>124.15</ele>
        <time>2017-08-07T13:21:20Z</time>
      </trkpt>
      <trkpt lat="48.44658" lon="4.58024">
        <ele>124.15</ele>
        <time>2017-08-07T13:21:21Z</time>
      </trkpt>
      <trkpt lat="48.446" lon="4.5811">
        <ele>123.67</ele>
        <time>2017-08-07T13:21:36Z</time>
      </trkpt>
      <trkpt lat="48.44543" lon="4.58186">
        <ele>125.11</ele>
        <time>2017-08-07T13:21:52Z</time>
      </trkpt>
      <trkpt lat="48.44487" lon="4.58244">
        <ele>127.03</ele>
        <time>2017-08-07T13:22:08Z</time>
      </trkpt>
      <trkpt lat="48.44442" lon="4.58285">
        <ele>127.03</ele>
        <time>2017-08-07T13:22:23Z</time>
      </trkpt>
      <trkpt lat="48.44442" lon="4.58292">
        <ele>127.03</ele>
        <time>2017-08-07T13:22:27Z</time>
      </trkpt>
      <trkpt lat="48.44444" lon="4.58294">
        <ele>127.51</ele>
        <time>2017-08-07T13:22:39Z</time>
      </trkpt>
      <trkpt lat="48.44447" lon="4.58294">
        <ele>127.51</ele>
        <time>2017-08-07T13:22:53Z</time>
      </trkpt>
      <trkpt lat="48.44447" lon="4.58295">
        <ele>127.51</ele>
        <time>2017-08-07T13:23:12Z</time>
      </trkpt>
      <trkpt lat="48.44448" lon="4.58295">
        <ele>127.51</ele>
        <time>2017-08-07T13:23:47Z</time>
      </trkpt>
      <trkpt lat="48.44449" lon="4.58296">
        <ele>127.51</ele>
        <time>2017-08-07T13:24:19Z</time>
      </trkpt>
      <trkpt lat="48.44448" lon="4.58296">
        <ele>127.03</ele>
        <time>2017-08-07T13:24:55Z</time>
      </trkpt>
      <trkpt lat="48.44448" lon="4.58295">
        <ele>127.03</ele>
        <time>2017-08-07T13:25:16Z</time>
      </trkpt>
      <trkpt lat="48.44449" lon="4.58295">
        <ele>127.03</ele>
        <time>2017-08-07T13:25:47Z</time>
      </trkpt>
      <trkpt lat="48.44448" lon="4.58296">
        <ele>127.03</ele>
        <time>2017-08-07T13:26:16Z</time>
      </trkpt>
      <trkpt lat="48.44448" lon="4.58296">
        <ele>127.03</ele>
        <time>2017-08-07T13:26:57Z</time>
      </trkpt>
      <trkpt lat="48.44448" lon="4.58298">
        <ele>126.55</ele>
        <time>2017-08-07T13:27:32Z</time>
      </trkpt>
      <trkpt lat="48.44449" lon="4.58299">
        <ele>126.55</ele>
        <time>2017-08-07T13:28:11Z</time>
      </trkpt>
      <trkpt lat="48.44449" lon="4.58296">
        <ele>126.55</ele>
        <time>2017-08-07T13:28:43Z</time>
      </trkpt>
      <trkpt lat="48.44447" lon="4.58295">
        <ele>126.55</ele>
        <time>2017-08-07T13:29:14Z</time>
      </trkpt>
      <trkpt lat="48.44448" lon="4.58294">
        <ele>126.07</ele>
        <time>2017-08-07T13:29:49Z</time>
      </trkpt>
      <trkpt lat="48.44448" lon="4.58294">
        <ele>126.07</ele>
        <time>2017-08-07T13:30:14Z</time>
      </trkpt>
      <trkpt lat="48.44447" lon="4.58293">
        <ele>126.55</ele>
        <time>2017-08-07T13:30:40Z</time>
      </trkpt>
      <trkpt lat="48.44447" lon="4.58292">
        <ele>126.55</ele>
        <time>2017-08-07T13:31:09Z</time>
      </trkpt>
      <trkpt lat="48.44448" lon="4.58295">
        <ele>126.55</ele>
        <time>2017-08-07T13:31:36Z</time>
      </trkpt>
      <trkpt lat="48.44448" lon="4.58296">
        <ele>126.07</ele>
        <time>2017-08-07T13:31:59Z</time>
      </trkpt>
      <trkpt lat="48.44448" lon="4.58297">
        <ele>126.07</ele>
        <time>2017-08-07T13:32:33Z</time>
      </trkpt>
      <trkpt lat="48.44447" lon="4.58296">
        <ele>126.07</ele>
        <time>2017-08-07T13:33:07Z</time>
      </trkpt>
      <trkpt lat="48.44447" lon="4.58296">
        <ele>126.07</ele>
        <time>2017-08-07T13:33:38Z</time>
      </trkpt>
      <trkpt lat="48.44448" lon="4.58294">
        <ele>126.07</ele>
        <time>2017-08-07T13:34:16Z</time>
      </trkpt>
      <trkpt lat="48.44448" lon="4.58293">
        <ele>125.59</ele>
        <time>2017-08-07T13:34:36Z</time>
      </trkpt>
      <trkpt lat="48.44448" lon="4.58292">
        <ele>125.59</ele>
        <time>2017-08-07T13:35:08Z</time>
      </trkpt>
      <trkpt lat="48.44448" lon="4.58294">
        <ele>125.59</ele>
        <time>2017-08-07T13:35:41Z</time>
      </trkpt>
      <trkpt lat="48.44447" lon="4.58294">
        <ele>125.59</ele>
        <time>2017-08-07T13:36:10Z</time>
      </trkpt>
      <trkpt lat="48.44448" lon="4.58294">
        <ele>125.59</ele>
        <time>2017-08-07T13:36:41Z</time>
      </trkpt>
      <trkpt lat="48.44448" lon="4.58295">
        <ele>125.59</ele>
        <time>2017-08-07T13:37:06Z</time>
      </trkpt>
      <trkpt lat="48.44448" lon="4.58295">
        <ele>125.59</ele>
        <time>2017-08-07T13:37:32Z</time>
      </trkpt>
      <trkpt lat="48.44448" lon="4.58295">
        <ele>125.59</ele>
        <time>2017-08-07T13:37:56Z</time>
      </trkpt>
      <trkpt lat="48.44449" lon="4.58295">
        <ele>125.59</ele>
        <time>2017-08-07T13:38:24Z</time>
      </trkpt>
      <trkpt lat="48.4445" lon="4.58293">
        <ele>125.59</ele>
        <time>2017-08-07T13:38:53Z</time>
      </trkpt>
      <trkpt lat="48.44451" lon="4.58292">
        <ele>125.59</ele>
        <time>2017-08-07T13:39:26Z</time>
      </trkpt>
      <trkpt lat="48.44451" lon="4.5829">
        <ele>125.59</ele>
        <time>2017-08-07T13:40:05Z</time>
      </trkpt>
      <trkpt lat="48.44451" lon="4.5829">
        <ele>125.59</ele>
        <time>2017-08-07T13:40:43Z</time>
      </trkpt>
      <trkpt lat="48.44448" lon="4.58287">
        <ele>125.59</ele>
        <time>2017-08-07T13:41:35Z</time>
      </trkpt>
      <trkpt lat="48.44447" lon="4.58288">
        <ele>126.07</ele>
        <time>2017-08-07T13:42:09Z</time>
      </trkpt>
      <trkpt lat="48.44448" lon="4.58289">
        <ele>126.07</ele>
        <time>2017-08-07T13:42:45Z</time>
      </trkpt>
      <trkpt lat="48.44449" lon="4.58289">
        <ele>126.07</ele>
        <time>2017-08-07T13:43:18Z</time>
      </trkpt>
      <trkpt lat="48.44449" lon="4.58289">
        <ele>126.55</ele>
        <time>2017-08-07T13:43:46Z</time>
      </trkpt>
      <trkpt lat="48.4445" lon="4.58292">
        <ele>126.55</ele>
        <time>2017-08-07T13:44:18Z</time>
      </trkpt>
      <trkpt lat="48.44449" lon="4.58291">
        <ele>126.55</ele>
        <time>2017-08-07T13:44:41Z</time>
      </trkpt>
      <trkpt lat="48.44448" lon="4.58291">
        <ele>126.55</ele>
        <time>2017-08-07T13:45:08Z</time>
      </trkpt>
      <trkpt lat="48.44448" lon="4.58292">
        <ele>127.51</ele>
        <time>2017-08-07T13:45:29Z</time>
      </trkpt>
      <trkpt lat="48.44447" lon="4.58291">
        <ele>127.51</ele>
        <time>2017-08-07T13:45:42Z</time>
      </trkpt>
      <trkpt lat="48.44449" lon="4.58292">
        <ele>127.51</ele>
        <time>2017-08-07T13:46:06Z</time>
      </trkpt>
      <trkpt lat="48.44449" lon="4.58291">
        <ele>127.51</ele>
        <time>2017-08-07T13:46:30Z</time>
      </trkpt>
      <trkpt lat="48.4445" lon="4.58291">
        <ele>127.51</ele>
        <time>2017-08-07T13:46:50Z</time>
      </trkpt>
      <trkpt lat="48.4445" lon="4.58291">
        <ele>127.03</ele>
        <time>2017-08-07T13:47:15Z</time>
      </trkpt>
      <trkpt lat="48.44448" lon="4.58291">
        <ele>127.03</ele>
        <time>2017-08-07T13:47:32Z</time>
      </trkpt>
      <trkpt lat="48.44448" lon="4.5829">
        <ele>127.99</ele>
        <time>2017-08-07T13:47:49Z</time>
      </trkpt>
      <trkpt lat="48.44447" lon="4.58289">
        <ele>127.99</ele>
        <time>2017-08-07T13:47:56Z</time>
      </trkpt>
      <trkpt lat="48.44446" lon="4.58288">
        <ele>127.99</ele>
        <time>2017-08-07T13:47:57Z</time>
      </trkpt>
      <trkpt lat="48.44444" lon="4.58287">
        <ele>127.99</ele>
        <time>2017-08-07T13:47:58Z</time>
      </trkpt>
      <trkpt lat="48.44441" lon="4.58287">
        <ele>127.99</ele>
        <time>2017-08-07T13:47:59Z</time>
      </trkpt>
      <trkpt lat="48.44438" lon="4.58287">
        <ele>127.99</ele>
        <time>2017-08-07T13:48:00Z</time>
      </trkpt>
      <trkpt lat="48.44436" lon="4.58288">
        <ele>127.99</ele>
        <time>2017-08-07T13:48:01Z</time>
      </trkpt>
      <trkpt lat="48.44434" lon="4.5829">
        <ele>127.99</ele>
        <time>2017-08-07T13:48:02Z</time>
      </trkpt>
      <trkpt lat="48.44418" lon="4.58301">
        <ele>126.55</ele>
        <time>2017-08-07T13:48:08Z</time>
      </trkpt>
      <trkpt lat="48.44406" lon="4.58306">
        <ele>126.55</ele>
        <time>2017-08-07T13:48:11Z</time>
      </trkpt>
      <trkpt lat="48.4436" lon="4.58342">
        <ele>125.59</ele>
        <time>2017-08-07T13:48:23Z</time>
      </trkpt>
      <trkpt lat="48.44323" lon="4.58375">
        <ele>127.03</ele>
        <time>2017-08-07T13:48:32Z</time>
      </trkpt>
      <trkpt lat="48.44253" lon="4.58443">
        <ele>127.51</ele>
        <time>2017-08-07T13:48:49Z</time>
      </trkpt>
      <trkpt lat="48.44166" lon="4.58522">
        <ele>127.99</ele>
        <time>2017-08-07T13:49:09Z</time>
      </trkpt>
      <trkpt lat="48.4409" lon="4.58583">
        <ele>127.99</ele>
        <time>2017-08-07T13:49:26Z</time>
      </trkpt>
      <trkpt lat="48.44015" lon="4.58632">
        <ele>127.99</ele>
        <time>2017-08-07T13:49:43Z</time>
      </trkpt>
      <trkpt lat="48.43915" lon="4.5868">
        <ele>128.47</ele>
        <time>2017-08-07T13:50:03Z</time>
      </trkpt>
      <trkpt lat="48.43821" lon="4.58712">
        <ele>128.47</ele>
        <time>2017-08-07T13:50:22Z</time>
      </trkpt>
      <trkpt lat="48.43816" lon="4.58712">
        <ele>128.47</ele>
        <time>2017-08-07T13:50:23Z</time>
      </trkpt>
      <trkpt lat="48.43811" lon="4.58712">
        <ele>128.47</ele>
        <time>2017-08-07T13:50:24Z</time>
      </trkpt>
      <trkpt lat="48.43806" lon="4.5871">
        <ele>128.47</ele>
        <time>2017-08-07T13:50:25Z</time>
      </trkpt>
      <trkpt lat="48.43801" lon="4.58708">
        <ele>128.47</ele>
        <time>2017-08-07T13:50:26Z</time>
      </trkpt>
      <trkpt lat="48.43796" lon="4.58706">
        <ele>128.47</ele>
        <time>2017-08-07T13:50:27Z</time>
      </trkpt>
      <trkpt lat="48.43771" lon="4.58695">
        <ele>128.95</ele>
        <time>2017-08-07T13:50:32Z</time>
      </trkpt>
      <trkpt lat="48.43685" lon="4.58678">
        <ele>128.95</ele>
        <time>2017-08-07T13:50:48Z</time>
      </trkpt>
      <trkpt lat="48.4362" lon="4.58694">
        <ele>127.51</ele>
        <time>2017-08-07T13:51:00Z</time>
      </trkpt>
      <trkpt lat="48.43578" lon="4.58713">
        <ele>127.51</ele>
        <time>2017-08-07T13:51:08Z</time>
      </trkpt>
      <trkpt lat="48.43573" lon="4.58712">
        <ele>127.51</ele>
        <time>2017-08-07T13:51:09Z</time>
      </trkpt>
      <trkpt lat="48.43569" lon="4.58711">
        <ele>127.51</ele>
        <time>2017-08-07T13:51:10Z</time>
      </trkpt>
      <trkpt lat="48.43564" lon="4.58708">
        <ele>127.51</ele>
        <time>2017-08-07T13:51:11Z</time>
      </trkpt>
      <trkpt lat="48.4356" lon="4.58704">
        <ele>127.51</ele>
        <time>2017-08-07T13:51:12Z</time>
      </trkpt>
      <trkpt lat="48.43558" lon="4.587">
        <ele>127.51</ele>
        <time>2017-08-07T13:51:13Z</time>
      </trkpt>
      <trkpt lat="48.43555" lon="4.58693">
        <ele>127.51</ele>
        <time>2017-08-07T13:51:14Z</time>
      </trkpt>
      <trkpt lat="48.43554" lon="4.58688">
        <ele>127.51</ele>
        <time>2017-08-07T13:51:15Z</time>
      </trkpt>
      <trkpt lat="48.43552" lon="4.58681">
        <ele>127.51</ele>
        <time>2017-08-07T13:51:16Z</time>
      </trkpt>
      <trkpt lat="48.4355" lon="4.58675">
        <ele>127.51</ele>
        <time>2017-08-07T13:51:17Z</time>
      </trkpt>
      <trkpt lat="48.43505" lon="4.58552">
        <ele>126.55</ele>
        <time>2017-08-07T13:51:35Z</time>
      </trkpt>
      <trkpt lat="48.43451" lon="4.58402">
        <ele>124.63</ele>
        <time>2017-08-07T13:51:53Z</time>
      </trkpt>
      <trkpt lat="48.43379" lon="4.58204">
        <ele>124.15</ele>
        <time>2017-08-07T13:52:17Z</time>
      </trkpt>
      <trkpt lat="48.43311" lon="4.58018">
        <ele>124.15</ele>
        <time>2017-08-07T13:52:41Z</time>
      </trkpt>
      <trkpt lat="48.43247" lon="4.57844">
        <ele>123.67</ele>
        <time>2017-08-07T13:53:04Z</time>
      </trkpt>
      <trkpt lat="48.43186" lon="4.57676">
        <ele>124.63</ele>
        <time>2017-08-07T13:53:27Z</time>
      </trkpt>
      <trkpt lat="48.4313" lon="4.57529">
        <ele>124.63</ele>
        <time>2017-08-07T13:53:47Z</time>
      </trkpt>
      <trkpt lat="48.43063" lon="4.57434">
        <ele>124.63</ele>
        <time>2017-08-07T13:54:03Z</time>
      </trkpt>
      <trkpt lat="48.42969" lon="4.57305">
        <ele>124.63</ele>
        <time>2017-08-07T13:54:25Z</time>
      </trkpt>
      <trkpt lat="48.42951" lon="4.57281">
        <ele>124.63</ele>
        <time>2017-08-07T13:54:29Z</time>
      </trkpt>
      <trkpt lat="48.42947" lon="4.57276">
        <ele>124.63</ele>
        <time>2017-08-07T13:54:30Z</time>
      </trkpt>
      <trkpt lat="48.42869" lon="4.57169">
        <ele>124.63</ele>
        <time>2017-08-07T13:54:48Z</time>
      </trkpt>
      <trkpt lat="48.42796" lon="4.57069">
        <ele>124.63</ele>
        <time>2017-08-07T13:55:05Z</time>
      </trkpt>
      <trkpt lat="48.42705" lon="4.56944">
        <ele>124.63</ele>
        <time>2017-08-07T13:55:26Z</time>
      </trkpt>
      <trkpt lat="48.42632" lon="4.56845">
        <ele>124.63</ele>
        <time>2017-08-07T13:55:43Z</time>
      </trkpt>
      <trkpt lat="48.42565" lon="4.56755">
        <ele>124.63</ele>
        <time>2017-08-07T13:55:58Z</time>
      </trkpt>
      <trkpt lat="48.42483" lon="4.56644">
        <ele>124.63</ele>
        <time>2017-08-07T13:56:17Z</time>
      </trkpt>
      <trkpt lat="48.42399" lon="4.56529">
        <ele>125.59</ele>
        <time>2017-08-07T13:56:37Z</time>
      </trkpt>
      <trkpt lat="48.42386" lon="4.56512">
        <ele>125.59</ele>
        <time>2017-08-07T13:56:40Z</time>
      </trkpt>
      <trkpt lat="48.42382" lon="4.56506">
        <ele>125.59</ele>
        <time>2017-08-07T13:56:41Z</time>
      </trkpt>
      <trkpt lat="48.42292" lon="4.56382">
        <ele>126.07</ele>
        <time>2017-08-07T13:57:02Z</time>
      </trkpt>
      <trkpt lat="48.42223" lon="4.56287">
        <ele>126.07</ele>
        <time>2017-08-07T13:57:19Z</time>
      </trkpt>
      <trkpt lat="48.42158" lon="4.56199">
        <ele>126.55</ele>
        <time>2017-08-07T13:57:36Z</time>
      </trkpt>
      <trkpt lat="48.42131" lon="4.56166">
        <ele>126.07</ele>
        <time>2017-08-07T13:57:43Z</time>
      </trkpt>
      <trkpt lat="48.42113" lon="4.56151">
        <ele>126.07</ele>
        <time>2017-08-07T13:57:47Z</time>
      </trkpt>
      <trkpt lat="48.42108" lon="4.56148">
        <ele>126.07</ele>
        <time>2017-08-07T13:57:48Z</time>
      </trkpt>
      <trkpt lat="48.42011" lon="4.56098">
        <ele>126.07</ele>
        <time>2017-08-07T13:58:06Z</time>
      </trkpt>
      <trkpt lat="48.41912" lon="4.56047">
        <ele>126.07</ele>
        <time>2017-08-07T13:58:25Z</time>
      </trkpt>
      <trkpt lat="48.41825" lon="4.56004">
        <ele>126.55</ele>
        <time>2017-08-07T13:58:42Z</time>
      </trkpt>
      <trkpt lat="48.41709" lon="4.55945">
        <ele>126.55</ele>
        <time>2017-08-07T13:59:03Z</time>
      </trkpt>
      <trkpt lat="48.4159" lon="4.55886">
        <ele>127.03</ele>
        <time>2017-08-07T13:59:25Z</time>
      </trkpt>
      <trkpt lat="48.41475" lon="4.55829">
        <ele>127.03</ele>
        <time>2017-08-07T13:59:46Z</time>
      </trkpt>
      <trkpt lat="48.41374" lon="4.55779">
        <ele>127.51</ele>
        <time>2017-08-07T14:00:04Z</time>
      </trkpt>
      <trkpt lat="48.41254" lon="4.5572">
        <ele>127.03</ele>
        <time>2017-08-07T14:00:26Z</time>
      </trkpt>
      <trkpt lat="48.41155" lon="4.55672">
        <ele>127.03</ele>
        <time>2017-08-07T14:00:44Z</time>
      </trkpt>
      <trkpt lat="48.41053" lon="4.5562">
        <ele>127.51</ele>
        <time>2017-08-07T14:01:02Z</time>
      </trkpt>
      <trkpt lat="48.40941" lon="4.55565">
        <ele>127.51</ele>
        <time>2017-08-07T14:01:23Z</time>
      </trkpt>
      <trkpt lat="48.40854" lon="4.5552">
        <ele>127.99</ele>
        <time>2017-08-07T14:01:40Z</time>
      </trkpt>
      <trkpt lat="48.40811" lon="4.55484">
        <ele>128.95</ele>
        <time>2017-08-07T14:01:52Z</time>
      </trkpt>
      <trkpt lat="48.40803" lon="4.55465">
        <ele>128.95</ele>
        <time>2017-08-07T14:01:55Z</time>
      </trkpt>
      <trkpt lat="48.408" lon="4.55459">
        <ele>128.95</ele>
        <time>2017-08-07T14:01:56Z</time>
      </trkpt>
      <trkpt lat="48.40747" lon="4.55345">
        <ele>128.47</ele>
        <time>2017-08-07T14:02:13Z</time>
      </trkpt>
      <trkpt lat="48.40676" lon="4.55196">
        <ele>128.95</ele>
        <time>2017-08-07T14:02:33Z</time>
      </trkpt>
      <trkpt lat="48.406" lon="4.55039">
        <ele>128.47</ele>
        <time>2017-08-07T14:02:53Z</time>
      </trkpt>
      <trkpt lat="48.40533" lon="4.54901">
        <ele>128.47</ele>
        <time>2017-08-07T14:03:11Z</time>
      </trkpt>
      <trkpt lat="48.40473" lon="4.54777">
        <ele>128.95</ele>
        <time>2017-08-07T14:03:27Z</time>
      </trkpt>
      <trkpt lat="48.40387" lon="4.546">
        <ele>128.95</ele>
        <time>2017-08-07T14:03:49Z</time>
      </trkpt>
      <trkpt lat="48.40312" lon="4.54447">
        <ele>128.95</ele>
        <time>2017-08-07T14:04:08Z</time>
      </trkpt>
      <trkpt lat="48.40233" lon="4.54285">
        <ele>129.43</ele>
        <time>2017-08-07T14:04:28Z</time>
      </trkpt>
      <trkpt lat="48.40156" lon="4.54123">
        <ele>129.43</ele>
        <time>2017-08-07T14:04:49Z</time>
      </trkpt>
      <trkpt lat="48.40082" lon="4.5397">
        <ele>129.43</ele>
        <time>2017-08-07T14:05:10Z</time>
      </trkpt>
      <trkpt lat="48.4005" lon="4.53901">
        <ele>128.95</ele>
        <time>2017-08-07T14:05:19Z</time>
      </trkpt>
      <trkpt lat="48.39984" lon="4.53762">
        <ele>128.95</ele>
        <time>2017-08-07T14:05:38Z</time>
      </trkpt>
      <trkpt lat="48.39908" lon="4.53608">
        <ele>128.95</ele>
        <time>2017-08-07T14:06:00Z</time>
      </trkpt>
      <trkpt lat="48.3985" lon="4.53491">
        <ele>128.47</ele>
        <time>2017-08-07T14:06:17Z</time>
      </trkpt>
      <trkpt lat="48.39788" lon="4.53362">
        <ele>128.47</ele>
        <time>2017-08-07T14:06:36Z</time>
      </trkpt>
      <trkpt lat="48.39736" lon="4.53252">
        <ele>128.47</ele>
        <time>2017-08-07T14:06:54Z</time>
      </trkpt>
      <trkpt lat="48.39685" lon="4.53148">
        <ele>128.47</ele>
        <time>2017-08-07T14:07:10Z</time>
      </trkpt>
      <trkpt lat="48.39663" lon="4.53106">
        <ele>128.47</ele>
        <time>2017-08-07T14:07:17Z</time>
      </trkpt>
      <trkpt lat="48.3966" lon="4.531">
        <ele>128.47</ele>
        <time>2017-08-07T14:07:18Z</time>
      </trkpt>
      <trkpt lat="48.39659" lon="4.53094">
        <ele>128.47</ele>
        <time>2017-08-07T14:07:19Z</time>
      </trkpt>
      <trkpt lat="48.39657" lon="4.53089">
        <ele>128.47</ele>
        <time>2017-08-07T14:07:20Z</time>
      </trkpt>
      <trkpt lat="48.39654" lon="4.53083">
        <ele>128.47</ele>
        <time>2017-08-07T14:07:21Z</time>
      </trkpt>
      <trkpt lat="48.39651" lon="4.53078">
        <ele>128.47</ele>
        <time>2017-08-07T14:07:22Z</time>
      </trkpt>
      <trkpt lat="48.39637" lon="4.53047">
        <ele>129.43</ele>
        <time>2017-08-07T14:07:27Z</time>
      </trkpt>
      <trkpt lat="48.39576" lon="4.52922">
        <ele>129.43</ele>
        <time>2017-08-07T14:07:46Z</time>
      </trkpt>
      <trkpt lat="48.39561" lon="4.5289">
        <ele>129.43</ele>
        <time>2017-08-07T14:07:51Z</time>
      </trkpt>
      <trkpt lat="48.39559" lon="4.52883">
        <ele>129.43</ele>
        <time>2017-08-07T14:07:52Z</time>
      </trkpt>
      <trkpt lat="48.39557" lon="4.52876">
        <ele>129.43</ele>
        <time>2017-08-07T14:07:53Z</time>
      </trkpt>
      <trkpt lat="48.39554" lon="4.52862">
        <ele>129.43</ele>
        <time>2017-08-07T14:07:55Z</time>
      </trkpt>
      <trkpt lat="48.39551" lon="4.52858">
        <ele>129.92</ele>
        <time>2017-08-07T14:07:56Z</time>
      </trkpt>
      <trkpt lat="48.39547" lon="4.52852">
        <ele>129.92</ele>
        <time>2017-08-07T14:07:57Z</time>
      </trkpt>
      <trkpt lat="48.39541" lon="4.52845">
        <ele>129.92</ele>
        <time>2017-08-07T14:07:59Z</time>
      </trkpt>
      <trkpt lat="48.39537" lon="4.52838">
        <ele>129.92</ele>
        <time>2017-08-07T14:08:00Z</time>
      </trkpt>
      <trkpt lat="48.39534" lon="4.52832">
        <ele>129.92</ele>
        <time>2017-08-07T14:08:01Z</time>
      </trkpt>
      <trkpt lat="48.39482" lon="4.52726">
        <ele>129.92</ele>
        <time>2017-08-07T14:08:18Z</time>
      </trkpt>
      <trkpt lat="48.39435" lon="4.52625">
        <ele>129.92</ele>
        <time>2017-08-07T14:08:35Z</time>
      </trkpt>
      <trkpt lat="48.39425" lon="4.526">
        <ele>130.88</ele>
        <time>2017-08-07T14:08:40Z</time>
      </trkpt>
      <trkpt lat="48.39424" lon="4.52591">
        <ele>130.88</ele>
        <time>2017-08-07T14:08:44Z</time>
      </trkpt>
      <trkpt lat="48.39422" lon="4.52589">
        <ele>130.88</ele>
        <time>2017-08-07T14:08:45Z</time>
      </trkpt>
      <trkpt lat="48.39419" lon="4.5259">
        <ele>130.88</ele>
        <time>2017-08-07T14:08:46Z</time>
      </trkpt>
      <trkpt lat="48.39401" lon="4.52605">
        <ele>130.88</ele>
        <time>2017-08-07T14:08:52Z</time>
      </trkpt>
      <trkpt lat="48.39354" lon="4.52641">
        <ele>131.36</ele>
        <time>2017-08-07T14:09:05Z</time>
      </trkpt>
      <trkpt lat="48.39351" lon="4.52643">
        <ele>131.36</ele>
        <time>2017-08-07T14:09:06Z</time>
      </trkpt>
      <trkpt lat="48.39346" lon="4.52644">
        <ele>131.36</ele>
        <time>2017-08-07T14:09:07Z</time>
      </trkpt>
      <trkpt lat="48.39334" lon="4.52652">
        <ele>131.36</ele>
        <time>2017-08-07T14:09:10Z</time>
      </trkpt>
      <trkpt lat="48.3933" lon="4.52655">
        <ele>131.36</ele>
        <time>2017-08-07T14:09:11Z</time>
      </trkpt>
      <trkpt lat="48.39325" lon="4.52658">
        <ele>131.84</ele>
        <time>2017-08-07T14:09:12Z</time>
      </trkpt>
      <trkpt lat="48.39285" lon="4.52683">
        <ele>131.84</ele>
        <time>2017-08-07T14:09:22Z</time>
      </trkpt>
      <trkpt lat="48.3925" lon="4.527">
        <ele>131.84</ele>
        <time>2017-08-07T14:09:30Z</time>
      </trkpt>
      <trkpt lat="48.39239" lon="4.52701">
        <ele>131.84</ele>
        <time>2017-08-07T14:09:32Z</time>
      </trkpt>
      <trkpt lat="48.39236" lon="4.52699">
        <ele>131.84</ele>
        <time>2017-08-07T14:09:33Z</time>
      </trkpt>
      <trkpt lat="48.39232" lon="4.52693">
        <ele>131.84</ele>
        <time>2017-08-07T14:09:34Z</time>
      </trkpt>
      <trkpt lat="48.39231" lon="4.52685">
        <ele>131.84</ele>
        <time>2017-08-07T14:09:35Z</time>
      </trkpt>
      <trkpt lat="48.39231" lon="4.5268">
        <ele>131.84</ele>
        <time>2017-08-07T14:09:36Z</time>
      </trkpt>
      <trkpt lat="48.3923" lon="4.52671">
        <ele>131.84</ele>
        <time>2017-08-07T14:09:37Z</time>
      </trkpt>
      <trkpt lat="48.3921" lon="4.52535">
        <ele>129.92</ele>
        <time>2017-08-07T14:09:53Z</time>
      </trkpt>
      <trkpt lat="48.39202" lon="4.52475">
        <ele>129.92</ele>
        <time>2017-08-07T14:10:01Z</time>
      </trkpt>
      <trkpt lat="48.39201" lon="4.52468">
        <ele>129.92</ele>
        <time>2017-08-07T14:10:02Z</time>
      </trkpt>
      <trkpt lat="48.392" lon="4.52456">
        <ele>129.92</ele>
        <time>2017-08-07T14:10:04Z</time>
      </trkpt>
      <trkpt lat="48.39197" lon="4.5245">
        <ele>131.36</ele>
        <time>2017-08-07T14:10:05Z</time>
      </trkpt>
      <trkpt lat="48.39194" lon="4.52448">
        <ele>131.36</ele>
        <time>2017-08-07T14:10:06Z</time>
      </trkpt>
      <trkpt lat="48.3919" lon="4.52447">
        <ele>131.36</ele>
        <time>2017-08-07T14:10:07Z</time>
      </trkpt>
      <trkpt lat="48.39186" lon="4.52448">
        <ele>131.36</ele>
        <time>2017-08-07T14:10:08Z</time>
      </trkpt>
      <trkpt lat="48.3918" lon="4.52449">
        <ele>131.36</ele>
        <time>2017-08-07T14:10:09Z</time>
      </trkpt>
      <trkpt lat="48.39176" lon="4.5245">
        <ele>131.36</ele>
        <time>2017-08-07T14:10:10Z</time>
      </trkpt>
      <trkpt lat="48.39088" lon="4.52456">
        <ele>131.36</ele>
        <time>2017-08-07T14:10:25Z</time>
      </trkpt>
      <trkpt lat="48.38997" lon="4.52451">
        <ele>131.36</ele>
        <time>2017-08-07T14:10:42Z</time>
      </trkpt>
      <trkpt lat="48.3893" lon="4.52445">
        <ele>131.36</ele>
        <time>2017-08-07T14:10:54Z</time>
      </trkpt>
      <trkpt lat="48.38925" lon="4.52439">
        <ele>131.36</ele>
        <time>2017-08-07T14:10:55Z</time>
      </trkpt>
      <trkpt lat="48.38924" lon="4.52433">
        <ele>131.36</ele>
        <time>2017-08-07T14:10:56Z</time>
      </trkpt>
      <trkpt lat="48.38923" lon="4.52427">
        <ele>131.36</ele>
        <time>2017-08-07T14:10:57Z</time>
      </trkpt>
      <trkpt lat="48.38923" lon="4.5242">
        <ele>131.36</ele>
        <time>2017-08-07T14:10:58Z</time>
      </trkpt>
      <trkpt lat="48.38917" lon="4.52343">
        <ele>132.32</ele>
        <time>2017-08-07T14:11:09Z</time>
      </trkpt>
      <trkpt lat="48.38913" lon="4.52341">
        <ele>132.32</ele>
        <time>2017-08-07T14:11:10Z</time>
      </trkpt>
      <trkpt lat="48.38907" lon="4.52341">
        <ele>132.8</ele>
        <time>2017-08-07T14:11:11Z</time>
      </trkpt>
      <trkpt lat="48.38904" lon="4.52342">
        <ele>132.8</ele>
        <time>2017-08-07T14:11:12Z</time>
      </trkpt>
      <trkpt lat="48.389" lon="4.52344">
        <ele>132.8</ele>
        <time>2017-08-07T14:11:13Z</time>
      </trkpt>
      <trkpt lat="48.38895" lon="4.52346">
        <ele>132.32</ele>
        <time>2017-08-07T14:11:14Z</time>
      </trkpt>
      <trkpt lat="48.38799" lon="4.52404">
        <ele>132.32</ele>
        <time>2017-08-07T14:11:33Z</time>
      </trkpt>
      <trkpt lat="48.38692" lon="4.52461">
        <ele>132.32</ele>
        <time>2017-08-07T14:11:53Z</time>
      </trkpt>
      <trkpt lat="48.38606" lon="4.52497">
        <ele>133.28</ele>
        <time>2017-08-07T14:12:11Z</time>
      </trkpt>
      <trkpt lat="48.38507" lon="4.52522">
        <ele>133.28</ele>
        <time>2017-08-07T14:12:31Z</time>
      </trkpt>
      <trkpt lat="48.3842" lon="4.52535">
        <ele>133.28</ele>
        <time>2017-08-07T14:12:48Z</time>
      </trkpt>
      <trkpt lat="48.38394" lon="4.5254">
        <ele>133.28</ele>
        <time>2017-08-07T14:12:53Z</time>
      </trkpt>
      <trkpt lat="48.38319" lon="4.5255">
        <ele>133.28</ele>
        <time>2017-08-07T14:13:08Z</time>
      </trkpt>
      <trkpt lat="48.3831" lon="4.52555">
        <ele>133.28</ele>
        <time>2017-08-07T14:13:10Z</time>
      </trkpt>
      <trkpt lat="48.38306" lon="4.52557">
        <ele>133.28</ele>
        <time>2017-08-07T14:13:11Z</time>
      </trkpt>
      <trkpt lat="48.38303" lon="4.52561">
        <ele>133.76</ele>
        <time>2017-08-07T14:13:12Z</time>
      </trkpt>
      <trkpt lat="48.38297" lon="4.5257">
        <ele>133.76</ele>
        <time>2017-08-07T14:13:14Z</time>
      </trkpt>
      <trkpt lat="48.38289" lon="4.52583">
        <ele>134.24</ele>
        <time>2017-08-07T14:13:17Z</time>
      </trkpt>
      <trkpt lat="48.38286" lon="4.52583">
        <ele>134.24</ele>
        <time>2017-08-07T14:13:18Z</time>
      </trkpt>
      <trkpt lat="48.38283" lon="4.52581">
        <ele>134.24</ele>
        <time>2017-08-07T14:13:19Z</time>
      </trkpt>
      <trkpt lat="48.38252" lon="4.52565">
        <ele>134.24</ele>
        <time>2017-08-07T14:13:28Z</time>
      </trkpt>
      <trkpt lat="48.38248" lon="4.52564">
        <ele>134.24</ele>
        <time>2017-08-07T14:13:29Z</time>
      </trkpt>
      <trkpt lat="48.38244" lon="4.52564">
        <ele>134.24</ele>
        <time>2017-08-07T14:13:30Z</time>
      </trkpt>
      <trkpt lat="48.38239" lon="4.52564">
        <ele>134.24</ele>
        <time>2017-08-07T14:13:31Z</time>
      </trkpt>
      <trkpt lat="48.38235" lon="4.52564">
        <ele>134.24</ele>
        <time>2017-08-07T14:13:32Z</time>
      </trkpt>
      <trkpt lat="48.38146" lon="4.52574">
        <ele>134.24</ele>
        <time>2017-08-07T14:13:49Z</time>
      </trkpt>
      <trkpt lat="48.38051" lon="4.52572">
        <ele>134.24</ele>
        <time>2017-08-07T14:14:08Z</time>
      </trkpt>
      <trkpt lat="48.37971" lon="4.52566">
        <ele>134.24</ele>
        <time>2017-08-07T14:14:24Z</time>
      </trkpt>
      <trkpt lat="48.37892" lon="4.5256">
        <ele>134.72</ele>
        <time>2017-08-07T14:14:41Z</time>
      </trkpt>
      <trkpt lat="48.37831" lon="4.52555">
        <ele>134.72</ele>
        <time>2017-08-07T14:14:55Z</time>
      </trkpt>
      <trkpt lat="48.3775" lon="4.52549">
        <ele>134.24</ele>
        <time>2017-08-07T14:15:13Z</time>
      </trkpt>
      <trkpt lat="48.37691" lon="4.52544">
        <ele>134.72</ele>
        <time>2017-08-07T14:15:26Z</time>
      </trkpt>
      <trkpt lat="48.37687" lon="4.52544">
        <ele>134.72</ele>
        <time>2017-08-07T14:15:27Z</time>
      </trkpt>
      <trkpt lat="48.37683" lon="4.52544">
        <ele>134.72</ele>
        <time>2017-08-07T14:15:28Z</time>
      </trkpt>
      <trkpt lat="48.37678" lon="4.52543">
        <ele>134.72</ele>
        <time>2017-08-07T14:15:29Z</time>
      </trkpt>
      <trkpt lat="48.37673" lon="4.52543">
        <ele>134.72</ele>
        <time>2017-08-07T14:15:30Z</time>
      </trkpt>
      <trkpt lat="48.37617" lon="4.52541">
        <ele>134.72</ele>
        <time>2017-08-07T14:15:43Z</time>
      </trkpt>
      <trkpt lat="48.37614" lon="4.52539">
        <ele>134.72</ele>
        <time>2017-08-07T14:15:44Z</time>
      </trkpt>
      <trkpt lat="48.37612" lon="4.52537">
        <ele>134.72</ele>
        <time>2017-08-07T14:15:45Z</time>
      </trkpt>
      <trkpt lat="48.3761" lon="4.52537">
        <ele>134.72</ele>
        <time>2017-08-07T14:15:46Z</time>
      </trkpt>
      <trkpt lat="48.37607" lon="4.52538">
        <ele>134.72</ele>
        <time>2017-08-07T14:15:47Z</time>
      </trkpt>
      <trkpt lat="48.37603" lon="4.52539">
        <ele>134.72</ele>
        <time>2017-08-07T14:15:48Z</time>
      </trkpt>
      <trkpt lat="48.37599" lon="4.5254">
        <ele>133.28</ele>
        <time>2017-08-07T14:15:49Z</time>
      </trkpt>
      <trkpt lat="48.37594" lon="4.5254">
        <ele>133.28</ele>
        <time>2017-08-07T14:15:50Z</time>
      </trkpt>
      <trkpt lat="48.37588" lon="4.52541">
        <ele>133.28</ele>
        <time>2017-08-07T14:15:51Z</time>
      </trkpt>
      <trkpt lat="48.37563" lon="4.52542">
        <ele>132.32</ele>
        <time>2017-08-07T14:15:55Z</time>
      </trkpt>
      <trkpt lat="48.37538" lon="4.52542">
        <ele>131.36</ele>
        <time>2017-08-07T14:15:59Z</time>
      </trkpt>
      <trkpt lat="48.37521" lon="4.52547">
        <ele>131.36</ele>
        <time>2017-08-07T14:16:02Z</time>
      </trkpt>
      <trkpt lat="48.37467" lon="4.52562">
        <ele>131.36</ele>
        <time>2017-08-07T14:16:15Z</time>
      </trkpt>
      <trkpt lat="48.37466" lon="4.52558">
        <ele>131.36</ele>
        <time>2017-08-07T14:16:16Z</time>
      </trkpt>
      <trkpt lat="48.37465" lon="4.52554">
        <ele>131.36</ele>
        <time>2017-08-07T14:16:17Z</time>
      </trkpt>
      <trkpt lat="48.37445" lon="4.52464">
        <ele>130.88</ele>
        <time>2017-08-07T14:16:30Z</time>
      </trkpt>
      <trkpt lat="48.37419" lon="4.52374">
        <ele>130.88</ele>
        <time>2017-08-07T14:16:43Z</time>
      </trkpt>
      <trkpt lat="48.37369" lon="4.52284">
        <ele>130.88</ele>
        <time>2017-08-07T14:16:59Z</time>
      </trkpt>
      <trkpt lat="48.37315" lon="4.52181">
        <ele>133.28</ele>
        <time>2017-08-07T14:17:19Z</time>
      </trkpt>
      <trkpt lat="48.37301" lon="4.52153">
        <ele>133.28</ele>
        <time>2017-08-07T14:17:24Z</time>
      </trkpt>
      <trkpt lat="48.37297" lon="4.52147">
        <ele>133.28</ele>
        <time>2017-08-07T14:17:25Z</time>
      </trkpt>
      <trkpt lat="48.37264" lon="4.52083">
        <ele>133.28</ele>
        <time>2017-08-07T14:17:38Z</time>
      </trkpt>
      <trkpt lat="48.3723" lon="4.52019">
        <ele>135.2</ele>
        <time>2017-08-07T14:17:54Z</time>
      </trkpt>
      <trkpt lat="48.37195" lon="4.51955">
        <ele>137.61</ele>
        <time>2017-08-07T14:18:12Z</time>
      </trkpt>
      <trkpt lat="48.37172" lon="4.51914">
        <ele>139.05</ele>
        <time>2017-08-07T14:18:25Z</time>
      </trkpt>
      <trkpt lat="48.37146" lon="4.51864">
        <ele>140.97</ele>
        <time>2017-08-07T14:18:41Z</time>
      </trkpt>
      <trkpt lat="48.37124" lon="4.51825">
        <ele>143.37</ele>
        <time>2017-08-07T14:18:54Z</time>
      </trkpt>
      <trkpt lat="48.37105" lon="4.51794">
        <ele>144.34</ele>
        <time>2017-08-07T14:19:05Z</time>
      </trkpt>
      <trkpt lat="48.3707" lon="4.51749">
        <ele>147.7</ele>
        <time>2017-08-07T14:19:24Z</time>
      </trkpt>
      <trkpt lat="48.37033" lon="4.51725">
        <ele>150.1</ele>
        <time>2017-08-07T14:19:41Z</time>
      </trkpt>
      <trkpt lat="48.36993" lon="4.51701">
        <ele>153.47</ele>
        <time>2017-08-07T14:20:01Z</time>
      </trkpt>
      <trkpt lat="48.36964" lon="4.51675">
        <ele>155.87</ele>
        <time>2017-08-07T14:20:18Z</time>
      </trkpt>
      <trkpt lat="48.3694" lon="4.51645">
        <ele>157.79</ele>
        <time>2017-08-07T14:20:32Z</time>
      </trkpt>
      <trkpt lat="48.36909" lon="4.51609">
        <ele>159.24</ele>
        <time>2017-08-07T14:20:47Z</time>
      </trkpt>
      <trkpt lat="48.36897" lon="4.51593">
        <ele>159.24</ele>
        <time>2017-08-07T14:20:56Z</time>
      </trkpt>
      <trkpt lat="48.36895" lon="4.5159">
        <ele>159.24</ele>
        <time>2017-08-07T14:20:59Z</time>
      </trkpt>
      <trkpt lat="48.36894" lon="4.51589">
        <ele>159.24</ele>
        <time>2017-08-07T14:21:00Z</time>
      </trkpt>
      <trkpt lat="48.36893" lon="4.51588">
        <ele>159.24</ele>
        <time>2017-08-07T14:21:01Z</time>
      </trkpt>
      <trkpt lat="48.3689" lon="4.51586">
        <ele>159.24</ele>
        <time>2017-08-07T14:21:04Z</time>
      </trkpt>
      <trkpt lat="48.36889" lon="4.51584">
        <ele>159.24</ele>
        <time>2017-08-07T14:21:05Z</time>
      </trkpt>
      <trkpt lat="48.36888" lon="4.51583">
        <ele>159.24</ele>
        <time>2017-08-07T14:21:06Z</time>
      </trkpt>
      <trkpt lat="48.36885" lon="4.51579">
        <ele>159.24</ele>
        <time>2017-08-07T14:21:08Z</time>
      </trkpt>
      <trkpt lat="48.36884" lon="4.51576">
        <ele>159.24</ele>
        <time>2017-08-07T14:21:09Z</time>
      </trkpt>
      <trkpt lat="48.36882" lon="4.51573">
        <ele>159.72</ele>
        <time>2017-08-07T14:21:10Z</time>
      </trkpt>
      <trkpt lat="48.36879" lon="4.51571">
        <ele>159.72</ele>
        <time>2017-08-07T14:21:11Z</time>
      </trkpt>
      <trkpt lat="48.36877" lon="4.51569">
        <ele>159.72</ele>
        <time>2017-08-07T14:21:12Z</time>
      </trkpt>
      <trkpt lat="48.36837" lon="4.51535">
        <ele>159.72</ele>
        <time>2017-08-07T14:21:24Z</time>
      </trkpt>
      <trkpt lat="48.36766" lon="4.51491">
        <ele>156.35</ele>
        <time>2017-08-07T14:21:35Z</time>
      </trkpt>
      <trkpt lat="48.3675" lon="4.51482">
        <ele>155.39</ele>
        <time>2017-08-07T14:21:37Z</time>
      </trkpt>
      <trkpt lat="48.36688" lon="4.51444">
        <ele>152.03</ele>
        <time>2017-08-07T14:21:44Z</time>
      </trkpt>
      <trkpt lat="48.36611" lon="4.51395">
        <ele>148.66</ele>
        <time>2017-08-07T14:21:52Z</time>
      </trkpt>
      <trkpt lat="48.36476" lon="4.51286">
        <ele>145.3</ele>
        <time>2017-08-07T14:22:07Z</time>
      </trkpt>
      <trkpt lat="48.36324" lon="4.51163">
        <ele>142.89</ele>
        <time>2017-08-07T14:22:25Z</time>
      </trkpt>
      <trkpt lat="48.36179" lon="4.51045">
        <ele>142.41</ele>
        <time>2017-08-07T14:22:44Z</time>
      </trkpt>
      <trkpt lat="48.36052" lon="4.50951">
        <ele>140.49</ele>
        <time>2017-08-07T14:23:02Z</time>
      </trkpt>
      <trkpt lat="48.3602" lon="4.50931">
        <ele>139.05</ele>
        <time>2017-08-07T14:23:06Z</time>
      </trkpt>
      <trkpt lat="48.36013" lon="4.50924">
        <ele>138.09</ele>
        <time>2017-08-07T14:23:07Z</time>
      </trkpt>
      <trkpt lat="48.36007" lon="4.50915">
        <ele>138.09</ele>
        <time>2017-08-07T14:23:08Z</time>
      </trkpt>
      <trkpt lat="48.36002" lon="4.50904">
        <ele>137.61</ele>
        <time>2017-08-07T14:23:09Z</time>
      </trkpt>
      <trkpt lat="48.35999" lon="4.50892">
        <ele>137.61</ele>
        <time>2017-08-07T14:23:10Z</time>
      </trkpt>
      <trkpt lat="48.35996" lon="4.50881">
        <ele>137.61</ele>
        <time>2017-08-07T14:23:11Z</time>
      </trkpt>
      <trkpt lat="48.35961" lon="4.50758">
        <ele>139.05</ele>
        <time>2017-08-07T14:23:24Z</time>
      </trkpt>
      <trkpt lat="48.35921" lon="4.50639">
        <ele>137.61</ele>
        <time>2017-08-07T14:23:38Z</time>
      </trkpt>
      <trkpt lat="48.35907" lon="4.50583">
        <ele>136.16</ele>
        <time>2017-08-07T14:23:45Z</time>
      </trkpt>
      <trkpt lat="48.35903" lon="4.50579">
        <ele>136.16</ele>
        <time>2017-08-07T14:23:46Z</time>
      </trkpt>
      <trkpt lat="48.35898" lon="4.50576">
        <ele>135.68</ele>
        <time>2017-08-07T14:23:47Z</time>
      </trkpt>
      <trkpt lat="48.35894" lon="4.50576">
        <ele>135.68</ele>
        <time>2017-08-07T14:23:48Z</time>
      </trkpt>
      <trkpt lat="48.3589" lon="4.50576">
        <ele>135.68</ele>
        <time>2017-08-07T14:23:49Z</time>
      </trkpt>
      <trkpt lat="48.35886" lon="4.50575">
        <ele>135.68</ele>
        <time>2017-08-07T14:23:50Z</time>
      </trkpt>
      <trkpt lat="48.35882" lon="4.50574">
        <ele>135.68</ele>
        <time>2017-08-07T14:23:51Z</time>
      </trkpt>
      <trkpt lat="48.35877" lon="4.50574">
        <ele>135.68</ele>
        <time>2017-08-07T14:23:52Z</time>
      </trkpt>
      <trkpt lat="48.35872" lon="4.50574">
        <ele>135.68</ele>
        <time>2017-08-07T14:23:53Z</time>
      </trkpt>
      <trkpt lat="48.35867" lon="4.50574">
        <ele>135.68</ele>
        <time>2017-08-07T14:23:54Z</time>
      </trkpt>
      <trkpt lat="48.3585" lon="4.50574">
        <ele>135.2</ele>
        <time>2017-08-07T14:23:57Z</time>
      </trkpt>
      <trkpt lat="48.35843" lon="4.50576">
        <ele>134.24</ele>
        <time>2017-08-07T14:23:58Z</time>
      </trkpt>
      <trkpt lat="48.35836" lon="4.50579">
        <ele>133.28</ele>
        <time>2017-08-07T14:23:59Z</time>
      </trkpt>
      <trkpt lat="48.35753" lon="4.50635">
        <ele>133.28</ele>
        <time>2017-08-07T14:24:12Z</time>
      </trkpt>
      <trkpt lat="48.35719" lon="4.50647">
        <ele>135.2</ele>
        <time>2017-08-07T14:24:22Z</time>
      </trkpt>
      <trkpt lat="48.35678" lon="4.50648">
        <ele>137.61</ele>
        <time>2017-08-07T14:24:39Z</time>
      </trkpt>
      <trkpt lat="48.35642" lon="4.50647">
        <ele>139.05</ele>
        <time>2017-08-07T14:24:55Z</time>
      </trkpt>
      <trkpt lat="48.35637" lon="4.50646">
        <ele>139.05</ele>
        <time>2017-08-07T14:25:05Z</time>
      </trkpt>
      <trkpt lat="48.35636" lon="4.50645">
        <ele>139.53</ele>
        <time>2017-08-07T14:25:08Z</time>
      </trkpt>
      <trkpt lat="48.35635" lon="4.50644">
        <ele>139.53</ele>
        <time>2017-08-07T14:25:09Z</time>
      </trkpt>
      <trkpt lat="48.35633" lon="4.50643">
        <ele>139.53</ele>
        <time>2017-08-07T14:25:10Z</time>
      </trkpt>
      <trkpt lat="48.35632" lon="4.50643">
        <ele>139.53</ele>
        <time>2017-08-07T14:25:11Z</time>
      </trkpt>
      <trkpt lat="48.3563" lon="4.50643">
        <ele>139.53</ele>
        <time>2017-08-07T14:25:12Z</time>
      </trkpt>
      <trkpt lat="48.35627" lon="4.50642">
        <ele>140.01</ele>
        <time>2017-08-07T14:25:13Z</time>
      </trkpt>
      <trkpt lat="48.35625" lon="4.50641">
        <ele>140.01</ele>
        <time>2017-08-07T14:25:14Z</time>
      </trkpt>
      <trkpt lat="48.35624" lon="4.5064">
        <ele>140.49</ele>
        <time>2017-08-07T14:25:15Z</time>
      </trkpt>
      <trkpt lat="48.35622" lon="4.50638">
        <ele>140.49</ele>
        <time>2017-08-07T14:25:16Z</time>
      </trkpt>
      <trkpt lat="48.35622" lon="4.50636">
        <ele>140.49</ele>
        <time>2017-08-07T14:25:17Z</time>
      </trkpt>
      <trkpt lat="48.35621" lon="4.50633">
        <ele>140.49</ele>
        <time>2017-08-07T14:25:18Z</time>
      </trkpt>
      <trkpt lat="48.35614" lon="4.50609">
        <ele>142.41</ele>
        <time>2017-08-07T14:25:28Z</time>
      </trkpt>
      <trkpt lat="48.35612" lon="4.50599">
        <ele>142.89</ele>
        <time>2017-08-07T14:25:32Z</time>
      </trkpt>
      <trkpt lat="48.35611" lon="4.50596">
        <ele>142.89</ele>
        <time>2017-08-07T14:25:33Z</time>
      </trkpt>
      <trkpt lat="48.3561" lon="4.50594">
        <ele>142.89</ele>
        <time>2017-08-07T14:25:34Z</time>
      </trkpt>
      <trkpt lat="48.35608" lon="4.5059">
        <ele>143.37</ele>
        <time>2017-08-07T14:25:36Z</time>
      </trkpt>
      <trkpt lat="48.35607" lon="4.50587">
        <ele>143.37</ele>
        <time>2017-08-07T14:25:37Z</time>
      </trkpt>
      <trkpt lat="48.35606" lon="4.50585">
        <ele>143.85</ele>
        <time>2017-08-07T14:25:38Z</time>
      </trkpt>
      <trkpt lat="48.35605" lon="4.50583">
        <ele>143.85</ele>
        <time>2017-08-07T14:25:39Z</time>
      </trkpt>
      <trkpt lat="48.35604" lon="4.5058">
        <ele>143.85</ele>
        <time>2017-08-07T14:25:40Z</time>
      </trkpt>
      <trkpt lat="48.35604" lon="4.50578">
        <ele>143.85</ele>
        <time>2017-08-07T14:25:41Z</time>
      </trkpt>
      <trkpt lat="48.35602" lon="4.50576">
        <ele>144.34</ele>
        <time>2017-08-07T14:25:42Z</time>
      </trkpt>
      <trkpt lat="48.35601" lon="4.50574">
        <ele>144.34</ele>
        <time>2017-08-07T14:25:43Z</time>
      </trkpt>
      <trkpt lat="48.356" lon="4.50572">
        <ele>144.34</ele>
        <time>2017-08-07T14:25:44Z</time>
      </trkpt>
      <trkpt lat="48.35599" lon="4.5057">
        <ele>144.34</ele>
        <time>2017-08-07T14:25:45Z</time>
      </trkpt>
      <trkpt lat="48.35589" lon="4.5055">
        <ele>145.3</ele>
        <time>2017-08-07T14:25:56Z</time>
      </trkpt>
      <trkpt lat="48.35577" lon="4.50526">
        <ele>145.78</ele>
        <time>2017-08-07T14:26:08Z</time>
      </trkpt>
      <trkpt lat="48.35576" lon="4.50523">
        <ele>145.3</ele>
        <time>2017-08-07T14:26:09Z</time>
      </trkpt>
      <trkpt lat="48.35575" lon="4.50517">
        <ele>145.3</ele>
        <time>2017-08-07T14:26:21Z</time>
      </trkpt>
      <trkpt lat="48.35574" lon="4.50509">
        <ele>145.78</ele>
        <time>2017-08-07T14:26:32Z</time>
      </trkpt>
      <trkpt lat="48.35574" lon="4.50506">
        <ele>145.78</ele>
        <time>2017-08-07T14:26:33Z</time>
      </trkpt>
      <trkpt lat="48.35573" lon="4.50503">
        <ele>145.78</ele>
        <time>2017-08-07T14:26:34Z</time>
      </trkpt>
      <trkpt lat="48.35573" lon="4.50501">
        <ele>145.78</ele>
        <time>2017-08-07T14:26:35Z</time>
      </trkpt>
      <trkpt lat="48.35572" lon="4.50498">
        <ele>145.78</ele>
        <time>2017-08-07T14:26:36Z</time>
      </trkpt>
      <trkpt lat="48.35572" lon="4.50495">
        <ele>145.78</ele>
        <time>2017-08-07T14:26:37Z</time>
      </trkpt>
      <trkpt lat="48.35571" lon="4.50492">
        <ele>145.78</ele>
        <time>2017-08-07T14:26:38Z</time>
      </trkpt>
      <trkpt lat="48.35562" lon="4.50469">
        <ele>145.78</ele>
        <time>2017-08-07T14:26:49Z</time>
      </trkpt>
      <trkpt lat="48.35561" lon="4.50468">
        <ele>145.78</ele>
        <time>2017-08-07T14:26:59Z</time>
      </trkpt>
      <trkpt lat="48.35559" lon="4.50469">
        <ele>145.78</ele>
        <time>2017-08-07T14:27:24Z</time>
      </trkpt>
      <trkpt lat="48.35559" lon="4.50468">
        <ele>145.78</ele>
        <time>2017-08-07T14:27:48Z</time>
      </trkpt>
      <trkpt lat="48.3556" lon="4.50468">
        <ele>145.78</ele>
        <time>2017-08-07T14:28:19Z</time>
      </trkpt>
      <trkpt lat="48.3556" lon="4.50466">
        <ele>145.3</ele>
        <time>2017-08-07T14:28:43Z</time>
      </trkpt>
      <trkpt lat="48.35559" lon="4.50465">
        <ele>145.3</ele>
        <time>2017-08-07T14:28:44Z</time>
      </trkpt>
      <trkpt lat="48.35559" lon="4.50461">
        <ele>145.3</ele>
        <time>2017-08-07T14:28:45Z</time>
      </trkpt>
      <trkpt lat="48.35558" lon="4.50458">
        <ele>145.3</ele>
        <time>2017-08-07T14:28:46Z</time>
      </trkpt>
      <trkpt lat="48.35557" lon="4.50455">
        <ele>145.3</ele>
        <time>2017-08-07T14:28:47Z</time>
      </trkpt>
      <trkpt lat="48.35556" lon="4.50451">
        <ele>145.3</ele>
        <time>2017-08-07T14:28:48Z</time>
      </trkpt>
      <trkpt lat="48.35535" lon="4.50386">
        <ele>145.3</ele>
        <time>2017-08-07T14:29:02Z</time>
      </trkpt>
      <trkpt lat="48.35533" lon="4.5038">
        <ele>145.3</ele>
        <time>2017-08-07T14:29:03Z</time>
      </trkpt>
      <trkpt lat="48.35515" lon="4.50324">
        <ele>145.3</ele>
        <time>2017-08-07T14:29:11Z</time>
      </trkpt>
      <trkpt lat="48.35512" lon="4.50317">
        <ele>145.3</ele>
        <time>2017-08-07T14:29:12Z</time>
      </trkpt>
      <trkpt lat="48.3551" lon="4.50311">
        <ele>145.3</ele>
        <time>2017-08-07T14:29:13Z</time>
      </trkpt>
      <trkpt lat="48.35474" lon="4.50201">
        <ele>145.3</ele>
        <time>2017-08-07T14:29:27Z</time>
      </trkpt>
      <trkpt lat="48.35436" lon="4.50082">
        <ele>145.3</ele>
        <time>2017-08-07T14:29:43Z</time>
      </trkpt>
      <trkpt lat="48.35434" lon="4.50076">
        <ele>145.3</ele>
        <time>2017-08-07T14:29:44Z</time>
      </trkpt>
      <trkpt lat="48.35432" lon="4.50068">
        <ele>145.3</ele>
        <time>2017-08-07T14:29:45Z</time>
      </trkpt>
      <trkpt lat="48.35416" lon="4.50019">
        <ele>145.3</ele>
        <time>2017-08-07T14:29:52Z</time>
      </trkpt>
      <trkpt lat="48.35362" lon="4.49863">
        <ele>145.3</ele>
        <time>2017-08-07T14:30:12Z</time>
      </trkpt>
      <trkpt lat="48.35311" lon="4.49707">
        <ele>145.3</ele>
        <time>2017-08-07T14:30:31Z</time>
      </trkpt>
      <trkpt lat="48.35253" lon="4.49528">
        <ele>145.3</ele>
        <time>2017-08-07T14:30:53Z</time>
      </trkpt>
      <trkpt lat="48.35201" lon="4.49419">
        <ele>145.3</ele>
        <time>2017-08-07T14:31:09Z</time>
      </trkpt>
      <trkpt lat="48.35103" lon="4.49312">
        <ele>145.3</ele>
        <time>2017-08-07T14:31:28Z</time>
      </trkpt>
      <trkpt lat="48.35016" lon="4.49221">
        <ele>144.82</ele>
        <time>2017-08-07T14:31:46Z</time>
      </trkpt>
      <trkpt lat="48.34934" lon="4.49133">
        <ele>144.82</ele>
        <time>2017-08-07T14:32:03Z</time>
      </trkpt>
      <trkpt lat="48.34823" lon="4.49017">
        <ele>144.82</ele>
        <time>2017-08-07T14:32:25Z</time>
      </trkpt>
      <trkpt lat="48.34725" lon="4.48915">
        <ele>144.82</ele>
        <time>2017-08-07T14:32:45Z</time>
      </trkpt>
      <trkpt lat="48.34682" lon="4.48872">
        <ele>144.82</ele>
        <time>2017-08-07T14:32:55Z</time>
      </trkpt>
      <trkpt lat="48.34678" lon="4.4887">
        <ele>144.82</ele>
        <time>2017-08-07T14:32:56Z</time>
      </trkpt>
      <trkpt lat="48.34674" lon="4.48871">
        <ele>145.3</ele>
        <time>2017-08-07T14:32:57Z</time>
      </trkpt>
      <trkpt lat="48.34665" lon="4.48873">
        <ele>145.3</ele>
        <time>2017-08-07T14:32:59Z</time>
      </trkpt>
      <trkpt lat="48.34661" lon="4.48873">
        <ele>145.78</ele>
        <time>2017-08-07T14:33:00Z</time>
      </trkpt>
      <trkpt lat="48.34657" lon="4.48871">
        <ele>146.26</ele>
        <time>2017-08-07T14:33:01Z</time>
      </trkpt>
      <trkpt lat="48.34653" lon="4.48866">
        <ele>146.26</ele>
        <time>2017-08-07T14:33:02Z</time>
      </trkpt>
      <trkpt lat="48.34651" lon="4.48861">
        <ele>146.26</ele>
        <time>2017-08-07T14:33:03Z</time>
      </trkpt>
      <trkpt lat="48.34649" lon="4.48855">
        <ele>146.74</ele>
        <time>2017-08-07T14:33:04Z</time>
      </trkpt>
      <trkpt lat="48.34643" lon="4.4881">
        <ele>147.7</ele>
        <time>2017-08-07T14:33:13Z</time>
      </trkpt>
      <trkpt lat="48.34642" lon="4.48806">
        <ele>148.18</ele>
        <time>2017-08-07T14:33:14Z</time>
      </trkpt>
      <trkpt lat="48.34641" lon="4.48801">
        <ele>148.18</ele>
        <time>2017-08-07T14:33:15Z</time>
      </trkpt>
      <trkpt lat="48.3464" lon="4.48796">
        <ele>148.18</ele>
        <time>2017-08-07T14:33:16Z</time>
      </trkpt>
      <trkpt lat="48.3464" lon="4.48791">
        <ele>148.18</ele>
        <time>2017-08-07T14:33:17Z</time>
      </trkpt>
      <trkpt lat="48.3464" lon="4.48786">
        <ele>148.18</ele>
        <time>2017-08-07T14:33:18Z</time>
      </trkpt>
      <trkpt lat="48.34621" lon="4.48748">
        <ele>148.66</ele>
        <time>2017-08-07T14:33:28Z</time>
      </trkpt>
      <trkpt lat="48.34563" lon="4.48695">
        <ele>149.14</ele>
        <time>2017-08-07T14:33:43Z</time>
      </trkpt>
      <trkpt lat="48.34528" lon="4.48664">
        <ele>149.62</ele>
        <time>2017-08-07T14:33:51Z</time>
      </trkpt>
      <trkpt lat="48.34524" lon="4.48663">
        <ele>149.62</ele>
        <time>2017-08-07T14:33:52Z</time>
      </trkpt>
      <trkpt lat="48.3452" lon="4.48664">
        <ele>149.62</ele>
        <time>2017-08-07T14:33:53Z</time>
      </trkpt>
      <trkpt lat="48.34516" lon="4.48667">
        <ele>149.62</ele>
        <time>2017-08-07T14:33:54Z</time>
      </trkpt>
      <trkpt lat="48.34512" lon="4.48672">
        <ele>149.62</ele>
        <time>2017-08-07T14:33:55Z</time>
      </trkpt>
      <trkpt lat="48.34511" lon="4.48677">
        <ele>149.62</ele>
        <time>2017-08-07T14:33:56Z</time>
      </trkpt>
      <trkpt lat="48.3451" lon="4.48684">
        <ele>149.62</ele>
        <time>2017-08-07T14:33:57Z</time>
      </trkpt>
      <trkpt lat="48.3451" lon="4.4869">
        <ele>149.62</ele>
        <time>2017-08-07T14:33:58Z</time>
      </trkpt>
      <trkpt lat="48.3451" lon="4.48698">
        <ele>149.62</ele>
        <time>2017-08-07T14:33:59Z</time>
      </trkpt>
      <trkpt lat="48.34511" lon="4.48704">
        <ele>149.62</ele>
        <time>2017-08-07T14:34:00Z</time>
      </trkpt>
      <trkpt lat="48.34529" lon="4.48826">
        <ele>149.62</ele>
        <time>2017-08-07T14:34:16Z</time>
      </trkpt>
      <trkpt lat="48.34535" lon="4.48912">
        <ele>148.18</ele>
        <time>2017-08-07T14:34:26Z</time>
      </trkpt>
      <trkpt lat="48.34541" lon="4.49">
        <ele>144.82</ele>
        <time>2017-08-07T14:34:35Z</time>
      </trkpt>
      <trkpt lat="48.34545" lon="4.49088">
        <ele>142.41</ele>
        <time>2017-08-07T14:34:43Z</time>
      </trkpt>
      <trkpt lat="48.34543" lon="4.49099">
        <ele>142.41</ele>
        <time>2017-08-07T14:34:44Z</time>
      </trkpt>
      <trkpt lat="48.3454" lon="4.49109">
        <ele>141.93</ele>
        <time>2017-08-07T14:34:45Z</time>
      </trkpt>
      <trkpt lat="48.34535" lon="4.49117">
        <ele>141.45</ele>
        <time>2017-08-07T14:34:46Z</time>
      </trkpt>
      <trkpt lat="48.3453" lon="4.49124">
        <ele>141.45</ele>
        <time>2017-08-07T14:34:47Z</time>
      </trkpt>
      <trkpt lat="48.34524" lon="4.4913">
        <ele>141.45</ele>
        <time>2017-08-07T14:34:48Z</time>
      </trkpt>
      <trkpt lat="48.34518" lon="4.49136">
        <ele>141.93</ele>
        <time>2017-08-07T14:34:49Z</time>
      </trkpt>
      <trkpt lat="48.3448" lon="4.49171">
        <ele>141.93</ele>
        <time>2017-08-07T14:34:56Z</time>
      </trkpt>
      <trkpt lat="48.34474" lon="4.49173">
        <ele>141.93</ele>
        <time>2017-08-07T14:34:57Z</time>
      </trkpt>
      <trkpt lat="48.34467" lon="4.49173">
        <ele>141.93</ele>
        <time>2017-08-07T14:34:58Z</time>
      </trkpt>
      <trkpt lat="48.34461" lon="4.49172">
        <ele>141.93</ele>
        <time>2017-08-07T14:34:59Z</time>
      </trkpt>
      <trkpt lat="48.34455" lon="4.49171">
        <ele>141.93</ele>
        <time>2017-08-07T14:35:00Z</time>
      </trkpt>
      <trkpt lat="48.34448" lon="4.49169">
        <ele>141.93</ele>
        <time>2017-08-07T14:35:01Z</time>
      </trkpt>
      <trkpt lat="48.34401" lon="4.4916">
        <ele>141.93</ele>
        <time>2017-08-07T14:35:09Z</time>
      </trkpt>
      <trkpt lat="48.34395" lon="4.49161">
        <ele>141.93</ele>
        <time>2017-08-07T14:35:10Z</time>
      </trkpt>
      <trkpt lat="48.34389" lon="4.49163">
        <ele>141.93</ele>
        <time>2017-08-07T14:35:11Z</time>
      </trkpt>
      <trkpt lat="48.34383" lon="4.49166">
        <ele>141.93</ele>
        <time>2017-08-07T14:35:12Z</time>
      </trkpt>
      <trkpt lat="48.34378" lon="4.4917">
        <ele>141.93</ele>
        <time>2017-08-07T14:35:13Z</time>
      </trkpt>
      <trkpt lat="48.34373" lon="4.49174">
        <ele>141.93</ele>
        <time>2017-08-07T14:35:14Z</time>
      </trkpt>
      <trkpt lat="48.34368" lon="4.49179">
        <ele>141.93</ele>
        <time>2017-08-07T14:35:15Z</time>
      </trkpt>
      <trkpt lat="48.34363" lon="4.49186">
        <ele>141.93</ele>
        <time>2017-08-07T14:35:16Z</time>
      </trkpt>
      <trkpt lat="48.34359" lon="4.49194">
        <ele>141.93</ele>
        <time>2017-08-07T14:35:17Z</time>
      </trkpt>
      <trkpt lat="48.34357" lon="4.49202">
        <ele>141.93</ele>
        <time>2017-08-07T14:35:18Z</time>
      </trkpt>
      <trkpt lat="48.34354" lon="4.49211">
        <ele>141.93</ele>
        <time>2017-08-07T14:35:19Z</time>
      </trkpt>
      <trkpt lat="48.34352" lon="4.49219">
        <ele>141.93</ele>
        <time>2017-08-07T14:35:20Z</time>
      </trkpt>
      <trkpt lat="48.34345" lon="4.49246">
        <ele>141.93</ele>
        <time>2017-08-07T14:35:23Z</time>
      </trkpt>
      <trkpt lat="48.34342" lon="4.49253">
        <ele>141.93</ele>
        <time>2017-08-07T14:35:24Z</time>
      </trkpt>
      <trkpt lat="48.34337" lon="4.49262">
        <ele>141.93</ele>
        <time>2017-08-07T14:35:25Z</time>
      </trkpt>
      <trkpt lat="48.34334" lon="4.49267">
        <ele>141.93</ele>
        <time>2017-08-07T14:35:26Z</time>
      </trkpt>
      <trkpt lat="48.3433" lon="4.49273">
        <ele>141.93</ele>
        <time>2017-08-07T14:35:27Z</time>
      </trkpt>
      <trkpt lat="48.34325" lon="4.49279">
        <ele>141.93</ele>
        <time>2017-08-07T14:35:28Z</time>
      </trkpt>
      <trkpt lat="48.34235" lon="4.49395">
        <ele>141.93</ele>
        <time>2017-08-07T14:35:48Z</time>
      </trkpt>
      <trkpt lat="48.34231" lon="4.49402">
        <ele>141.93</ele>
        <time>2017-08-07T14:35:49Z</time>
      </trkpt>
      <trkpt lat="48.34229" lon="4.4941">
        <ele>141.93</ele>
        <time>2017-08-07T14:35:50Z</time>
      </trkpt>
      <trkpt lat="48.34227" lon="4.49419">
        <ele>141.93</ele>
        <time>2017-08-07T14:35:51Z</time>
      </trkpt>
      <trkpt lat="48.34226" lon="4.49427">
        <ele>141.93</ele>
        <time>2017-08-07T14:35:52Z</time>
      </trkpt>
      <trkpt lat="48.34219" lon="4.49478">
        <ele>141.93</ele>
        <time>2017-08-07T14:35:58Z</time>
      </trkpt>
      <trkpt lat="48.34217" lon="4.49484">
        <ele>141.93</ele>
        <time>2017-08-07T14:35:59Z</time>
      </trkpt>
      <trkpt lat="48.34214" lon="4.49491">
        <ele>141.93</ele>
        <time>2017-08-07T14:36:00Z</time>
      </trkpt>
      <trkpt lat="48.34211" lon="4.49498">
        <ele>141.93</ele>
        <time>2017-08-07T14:36:01Z</time>
      </trkpt>
      <trkpt lat="48.34207" lon="4.49504">
        <ele>141.93</ele>
        <time>2017-08-07T14:36:02Z</time>
      </trkpt>
      <trkpt lat="48.34197" lon="4.4952">
        <ele>141.93</ele>
        <time>2017-08-07T14:36:05Z</time>
      </trkpt>
      <trkpt lat="48.34193" lon="4.49525">
        <ele>141.93</ele>
        <time>2017-08-07T14:36:06Z</time>
      </trkpt>
      <trkpt lat="48.34188" lon="4.49528">
        <ele>141.93</ele>
        <time>2017-08-07T14:36:07Z</time>
      </trkpt>
      <trkpt lat="48.34183" lon="4.49527">
        <ele>141.93</ele>
        <time>2017-08-07T14:36:08Z</time>
      </trkpt>
      <trkpt lat="48.34178" lon="4.49524">
        <ele>141.93</ele>
        <time>2017-08-07T14:36:09Z</time>
      </trkpt>
      <trkpt lat="48.34174" lon="4.49518">
        <ele>142.89</ele>
        <time>2017-08-07T14:36:10Z</time>
      </trkpt>
      <trkpt lat="48.34171" lon="4.49513">
        <ele>142.89</ele>
        <time>2017-08-07T14:36:11Z</time>
      </trkpt>
      <trkpt lat="48.34168" lon="4.49506">
        <ele>142.89</ele>
        <time>2017-08-07T14:36:12Z</time>
      </trkpt>
      <trkpt lat="48.34127" lon="4.49441">
        <ele>143.85</ele>
        <time>2017-08-07T14:36:23Z</time>
      </trkpt>
      <trkpt lat="48.34122" lon="4.49438">
        <ele>143.85</ele>
        <time>2017-08-07T14:36:24Z</time>
      </trkpt>
      <trkpt lat="48.34116" lon="4.49438">
        <ele>143.85</ele>
        <time>2017-08-07T14:36:25Z</time>
      </trkpt>
      <trkpt lat="48.34111" lon="4.49442">
        <ele>143.85</ele>
        <time>2017-08-07T14:36:26Z</time>
      </trkpt>
      <trkpt lat="48.34106" lon="4.49447">
        <ele>143.85</ele>
        <time>2017-08-07T14:36:27Z</time>
      </trkpt>
      <trkpt lat="48.34101" lon="4.49452">
        <ele>142.41</ele>
        <time>2017-08-07T14:36:28Z</time>
      </trkpt>
      <trkpt lat="48.34096" lon="4.49457">
        <ele>142.41</ele>
        <time>2017-08-07T14:36:29Z</time>
      </trkpt>
      <trkpt lat="48.3409" lon="4.4946">
        <ele>142.41</ele>
        <time>2017-08-07T14:36:30Z</time>
      </trkpt>
      <trkpt lat="48.34083" lon="4.49463">
        <ele>142.41</ele>
        <time>2017-08-07T14:36:31Z</time>
      </trkpt>
      <trkpt lat="48.33995" lon="4.49493">
        <ele>141.93</ele>
        <time>2017-08-07T14:36:46Z</time>
      </trkpt>
      <trkpt lat="48.3399" lon="4.49497">
        <ele>141.93</ele>
        <time>2017-08-07T14:36:47Z</time>
      </trkpt>
      <trkpt lat="48.33986" lon="4.49504">
        <ele>141.93</ele>
        <time>2017-08-07T14:36:48Z</time>
      </trkpt>
      <trkpt lat="48.33982" lon="4.49512">
        <ele>141.93</ele>
        <time>2017-08-07T14:36:49Z</time>
      </trkpt>
      <trkpt lat="48.33981" lon="4.49521">
        <ele>141.93</ele>
        <time>2017-08-07T14:36:50Z</time>
      </trkpt>
      <trkpt lat="48.3398" lon="4.4953">
        <ele>141.93</ele>
        <time>2017-08-07T14:36:51Z</time>
      </trkpt>
      <trkpt lat="48.33982" lon="4.49539">
        <ele>141.93</ele>
        <time>2017-08-07T14:36:52Z</time>
      </trkpt>
      <trkpt lat="48.33984" lon="4.49549">
        <ele>141.93</ele>
        <time>2017-08-07T14:36:53Z</time>
      </trkpt>
      <trkpt lat="48.34015" lon="4.49662">
        <ele>141.45</ele>
        <time>2017-08-07T14:37:07Z</time>
      </trkpt>
      <trkpt lat="48.34015" lon="4.4967">
        <ele>141.45</ele>
        <time>2017-08-07T14:37:08Z</time>
      </trkpt>
      <trkpt lat="48.34013" lon="4.49678">
        <ele>141.45</ele>
        <time>2017-08-07T14:37:09Z</time>
      </trkpt>
      <trkpt lat="48.34011" lon="4.49686">
        <ele>141.45</ele>
        <time>2017-08-07T14:37:10Z</time>
      </trkpt>
      <trkpt lat="48.34007" lon="4.49692">
        <ele>141.45</ele>
        <time>2017-08-07T14:37:11Z</time>
      </trkpt>
      <trkpt lat="48.34002" lon="4.49698">
        <ele>141.45</ele>
        <time>2017-08-07T14:37:12Z</time>
      </trkpt>
      <trkpt lat="48.33998" lon="4.49704">
        <ele>141.45</ele>
        <time>2017-08-07T14:37:13Z</time>
      </trkpt>
      <trkpt lat="48.33964" lon="4.49749">
        <ele>141.45</ele>
        <time>2017-08-07T14:37:21Z</time>
      </trkpt>
      <trkpt lat="48.3396" lon="4.49755">
        <ele>141.45</ele>
        <time>2017-08-07T14:37:22Z</time>
      </trkpt>
      <trkpt lat="48.33952" lon="4.49766">
        <ele>141.45</ele>
        <time>2017-08-07T14:37:24Z</time>
      </trkpt>
      <trkpt lat="48.33947" lon="4.49771">
        <ele>141.45</ele>
        <time>2017-08-07T14:37:25Z</time>
      </trkpt>
      <trkpt lat="48.33943" lon="4.49774">
        <ele>141.45</ele>
        <time>2017-08-07T14:37:26Z</time>
      </trkpt>
      <trkpt lat="48.33937" lon="4.49778">
        <ele>141.45</ele>
        <time>2017-08-07T14:37:27Z</time>
      </trkpt>
      <trkpt lat="48.33933" lon="4.4978">
        <ele>141.45</ele>
        <time>2017-08-07T14:37:28Z</time>
      </trkpt>
      <trkpt lat="48.33927" lon="4.49783">
        <ele>141.45</ele>
        <time>2017-08-07T14:37:29Z</time>
      </trkpt>
      <trkpt lat="48.33891" lon="4.498">
        <ele>141.45</ele>
        <time>2017-08-07T14:37:36Z</time>
      </trkpt>
      <trkpt lat="48.33886" lon="4.49805">
        <ele>141.45</ele>
        <time>2017-08-07T14:37:37Z</time>
      </trkpt>
      <trkpt lat="48.33881" lon="4.4981">
        <ele>141.45</ele>
        <time>2017-08-07T14:37:38Z</time>
      </trkpt>
      <trkpt lat="48.33868" lon="4.49828">
        <ele>141.45</ele>
        <time>2017-08-07T14:37:41Z</time>
      </trkpt>
      <trkpt lat="48.33856" lon="4.49847">
        <ele>141.45</ele>
        <time>2017-08-07T14:37:44Z</time>
      </trkpt>
      <trkpt lat="48.33853" lon="4.49855">
        <ele>141.45</ele>
        <time>2017-08-07T14:37:45Z</time>
      </trkpt>
      <trkpt lat="48.33848" lon="4.49872">
        <ele>141.45</ele>
        <time>2017-08-07T14:37:47Z</time>
      </trkpt>
      <trkpt lat="48.33837" lon="4.4992">
        <ele>141.45</ele>
        <time>2017-08-07T14:37:53Z</time>
      </trkpt>
      <trkpt lat="48.33833" lon="4.49927">
        <ele>141.45</ele>
        <time>2017-08-07T14:37:54Z</time>
      </trkpt>
      <trkpt lat="48.33829" lon="4.49932">
        <ele>141.45</ele>
        <time>2017-08-07T14:37:55Z</time>
      </trkpt>
      <trkpt lat="48.33823" lon="4.49937">
        <ele>141.45</ele>
        <time>2017-08-07T14:37:56Z</time>
      </trkpt>
      <trkpt lat="48.33818" lon="4.4994">
        <ele>141.45</ele>
        <time>2017-08-07T14:37:57Z</time>
      </trkpt>
      <trkpt lat="48.33811" lon="4.49944">
        <ele>141.45</ele>
        <time>2017-08-07T14:37:58Z</time>
      </trkpt>
      <trkpt lat="48.33769" lon="4.49975">
        <ele>141.45</ele>
        <time>2017-08-07T14:38:06Z</time>
      </trkpt>
      <trkpt lat="48.33763" lon="4.4998">
        <ele>141.45</ele>
        <time>2017-08-07T14:38:07Z</time>
      </trkpt>
      <trkpt lat="48.33759" lon="4.49986">
        <ele>141.45</ele>
        <time>2017-08-07T14:38:08Z</time>
      </trkpt>
      <trkpt lat="48.33754" lon="4.49993">
        <ele>141.45</ele>
        <time>2017-08-07T14:38:09Z</time>
      </trkpt>
      <trkpt lat="48.3375" lon="4.49999">
        <ele>141.45</ele>
        <time>2017-08-07T14:38:10Z</time>
      </trkpt>
      <trkpt lat="48.33734" lon="4.50026">
        <ele>141.45</ele>
        <time>2017-08-07T14:38:14Z</time>
      </trkpt>
      <trkpt lat="48.337" lon="4.50078">
        <ele>141.45</ele>
        <time>2017-08-07T14:38:24Z</time>
      </trkpt>
      <trkpt lat="48.33697" lon="4.50083">
        <ele>141.45</ele>
        <time>2017-08-07T14:38:25Z</time>
      </trkpt>
      <trkpt lat="48.33695" lon="4.50087">
        <ele>141.45</ele>
        <time>2017-08-07T14:38:26Z</time>
      </trkpt>
      <trkpt lat="48.33691" lon="4.50093">
        <ele>141.45</ele>
        <time>2017-08-07T14:38:27Z</time>
      </trkpt>
      <trkpt lat="48.33688" lon="4.50097">
        <ele>141.45</ele>
        <time>2017-08-07T14:38:28Z</time>
      </trkpt>
      <trkpt lat="48.33662" lon="4.50127">
        <ele>141.45</ele>
        <time>2017-08-07T14:38:34Z</time>
      </trkpt>
      <trkpt lat="48.33659" lon="4.50134">
        <ele>141.45</ele>
        <time>2017-08-07T14:38:35Z</time>
      </trkpt>
      <trkpt lat="48.33658" lon="4.50141">
        <ele>141.45</ele>
        <time>2017-08-07T14:38:36Z</time>
      </trkpt>
      <trkpt lat="48.33658" lon="4.5015">
        <ele>141.45</ele>
        <time>2017-08-07T14:38:37Z</time>
      </trkpt>
      <trkpt lat="48.3366" lon="4.50157">
        <ele>141.45</ele>
        <time>2017-08-07T14:38:38Z</time>
      </trkpt>
      <trkpt lat="48.33663" lon="4.50163">
        <ele>141.45</ele>
        <time>2017-08-07T14:38:39Z</time>
      </trkpt>
      <trkpt lat="48.33667" lon="4.50168">
        <ele>141.45</ele>
        <time>2017-08-07T14:38:40Z</time>
      </trkpt>
      <trkpt lat="48.3367" lon="4.50172">
        <ele>141.45</ele>
        <time>2017-08-07T14:38:41Z</time>
      </trkpt>
      <trkpt lat="48.33675" lon="4.50177">
        <ele>141.45</ele>
        <time>2017-08-07T14:38:42Z</time>
      </trkpt>
      <trkpt lat="48.33701" lon="4.50217">
        <ele>141.45</ele>
        <time>2017-08-07T14:38:49Z</time>
      </trkpt>
      <trkpt lat="48.33704" lon="4.50224">
        <ele>141.45</ele>
        <time>2017-08-07T14:38:50Z</time>
      </trkpt>
      <trkpt lat="48.33705" lon="4.50231">
        <ele>141.45</ele>
        <time>2017-08-07T14:38:51Z</time>
      </trkpt>
      <trkpt lat="48.33706" lon="4.50238">
        <ele>141.45</ele>
        <time>2017-08-07T14:38:52Z</time>
      </trkpt>
      <trkpt lat="48.33706" lon="4.50246">
        <ele>142.41</ele>
        <time>2017-08-07T14:38:53Z</time>
      </trkpt>
      <trkpt lat="48.33705" lon="4.50253">
        <ele>142.41</ele>
        <time>2017-08-07T14:38:54Z</time>
      </trkpt>
      <trkpt lat="48.33704" lon="4.5026">
        <ele>142.41</ele>
        <time>2017-08-07T14:38:55Z</time>
      </trkpt>
      <trkpt lat="48.33685" lon="4.50347">
        <ele>142.89</ele>
        <time>2017-08-07T14:39:06Z</time>
      </trkpt>
      <trkpt lat="48.33682" lon="4.50355">
        <ele>142.89</ele>
        <time>2017-08-07T14:39:07Z</time>
      </trkpt>
      <trkpt lat="48.3368" lon="4.50362">
        <ele>142.89</ele>
        <time>2017-08-07T14:39:08Z</time>
      </trkpt>
      <trkpt lat="48.33665" lon="4.50396">
        <ele>141.93</ele>
        <time>2017-08-07T14:39:12Z</time>
      </trkpt>
      <trkpt lat="48.33652" lon="4.50426">
        <ele>141.93</ele>
        <time>2017-08-07T14:39:16Z</time>
      </trkpt>
      <trkpt lat="48.33648" lon="4.50431">
        <ele>141.93</ele>
        <time>2017-08-07T14:39:17Z</time>
      </trkpt>
      <trkpt lat="48.33644" lon="4.50435">
        <ele>141.93</ele>
        <time>2017-08-07T14:39:18Z</time>
      </trkpt>
      <trkpt lat="48.3364" lon="4.50436">
        <ele>141.93</ele>
        <time>2017-08-07T14:39:19Z</time>
      </trkpt>
      <trkpt lat="48.33635" lon="4.50434">
        <ele>141.93</ele>
        <time>2017-08-07T14:39:20Z</time>
      </trkpt>
      <trkpt lat="48.33631" lon="4.50431">
        <ele>141.93</ele>
        <time>2017-08-07T14:39:21Z</time>
      </trkpt>
      <trkpt lat="48.33626" lon="4.50428">
        <ele>141.93</ele>
        <time>2017-08-07T14:39:22Z</time>
      </trkpt>
      <trkpt lat="48.33613" lon="4.50418">
        <ele>141.93</ele>
        <time>2017-08-07T14:39:25Z</time>
      </trkpt>
      <trkpt lat="48.33608" lon="4.50418">
        <ele>141.93</ele>
        <time>2017-08-07T14:39:26Z</time>
      </trkpt>
      <trkpt lat="48.33604" lon="4.5042">
        <ele>141.93</ele>
        <time>2017-08-07T14:39:27Z</time>
      </trkpt>
      <trkpt lat="48.336" lon="4.50425">
        <ele>141.93</ele>
        <time>2017-08-07T14:39:28Z</time>
      </trkpt>
      <trkpt lat="48.33597" lon="4.5043">
        <ele>141.93</ele>
        <time>2017-08-07T14:39:29Z</time>
      </trkpt>
      <trkpt lat="48.33595" lon="4.50437">
        <ele>141.93</ele>
        <time>2017-08-07T14:39:30Z</time>
      </trkpt>
      <trkpt lat="48.33592" lon="4.50444">
        <ele>142.89</ele>
        <time>2017-08-07T14:39:31Z</time>
      </trkpt>
      <trkpt lat="48.33564" lon="4.50532">
        <ele>142.89</ele>
        <time>2017-08-07T14:39:43Z</time>
      </trkpt>
      <trkpt lat="48.3356" lon="4.50537">
        <ele>142.89</ele>
        <time>2017-08-07T14:39:44Z</time>
      </trkpt>
      <trkpt lat="48.33554" lon="4.5054">
        <ele>142.89</ele>
        <time>2017-08-07T14:39:45Z</time>
      </trkpt>
      <trkpt lat="48.33548" lon="4.50542">
        <ele>142.89</ele>
        <time>2017-08-07T14:39:46Z</time>
      </trkpt>
      <trkpt lat="48.33542" lon="4.50543">
        <ele>142.89</ele>
        <time>2017-08-07T14:39:47Z</time>
      </trkpt>
      <trkpt lat="48.33536" lon="4.50543">
        <ele>142.89</ele>
        <time>2017-08-07T14:39:48Z</time>
      </trkpt>
      <trkpt lat="48.33472" lon="4.50547">
        <ele>141.93</ele>
        <time>2017-08-07T14:40:00Z</time>
      </trkpt>
      <trkpt lat="48.3346" lon="4.50548">
        <ele>141.93</ele>
        <time>2017-08-07T14:40:02Z</time>
      </trkpt>
      <trkpt lat="48.33426" lon="4.50561">
        <ele>141.93</ele>
        <time>2017-08-07T14:40:08Z</time>
      </trkpt>
      <trkpt lat="48.33326" lon="4.50599">
        <ele>141.93</ele>
        <time>2017-08-07T14:40:26Z</time>
      </trkpt>
      <trkpt lat="48.33322" lon="4.50603">
        <ele>141.93</ele>
        <time>2017-08-07T14:40:27Z</time>
      </trkpt>
      <trkpt lat="48.33318" lon="4.50609">
        <ele>141.93</ele>
        <time>2017-08-07T14:40:28Z</time>
      </trkpt>
      <trkpt lat="48.33314" lon="4.50615">
        <ele>141.93</ele>
        <time>2017-08-07T14:40:29Z</time>
      </trkpt>
      <trkpt lat="48.3331" lon="4.50622">
        <ele>141.93</ele>
        <time>2017-08-07T14:40:30Z</time>
      </trkpt>
      <trkpt lat="48.33307" lon="4.5063">
        <ele>141.93</ele>
        <time>2017-08-07T14:40:31Z</time>
      </trkpt>
      <trkpt lat="48.33299" lon="4.50653">
        <ele>141.93</ele>
        <time>2017-08-07T14:40:34Z</time>
      </trkpt>
      <trkpt lat="48.33295" lon="4.50659">
        <ele>141.93</ele>
        <time>2017-08-07T14:40:35Z</time>
      </trkpt>
      <trkpt lat="48.33291" lon="4.50663">
        <ele>141.93</ele>
        <time>2017-08-07T14:40:36Z</time>
      </trkpt>
      <trkpt lat="48.33286" lon="4.50663">
        <ele>141.93</ele>
        <time>2017-08-07T14:40:37Z</time>
      </trkpt>
      <trkpt lat="48.33282" lon="4.50661">
        <ele>141.93</ele>
        <time>2017-08-07T14:40:38Z</time>
      </trkpt>
      <trkpt lat="48.33278" lon="4.50658">
        <ele>141.93</ele>
        <time>2017-08-07T14:40:39Z</time>
      </trkpt>
      <trkpt lat="48.33274" lon="4.50654">
        <ele>142.89</ele>
        <time>2017-08-07T14:40:40Z</time>
      </trkpt>
      <trkpt lat="48.3327" lon="4.5065">
        <ele>142.89</ele>
        <time>2017-08-07T14:40:41Z</time>
      </trkpt>
      <trkpt lat="48.33242" lon="4.50623">
        <ele>143.37</ele>
        <time>2017-08-07T14:40:48Z</time>
      </trkpt>
      <trkpt lat="48.33238" lon="4.50622">
        <ele>143.37</ele>
        <time>2017-08-07T14:40:49Z</time>
      </trkpt>
      <trkpt lat="48.33233" lon="4.50623">
        <ele>143.85</ele>
        <time>2017-08-07T14:40:50Z</time>
      </trkpt>
      <trkpt lat="48.33229" lon="4.50625">
        <ele>143.85</ele>
        <time>2017-08-07T14:40:51Z</time>
      </trkpt>
      <trkpt lat="48.33226" lon="4.5063">
        <ele>143.85</ele>
        <time>2017-08-07T14:40:52Z</time>
      </trkpt>
      <trkpt lat="48.33222" lon="4.50635">
        <ele>143.85</ele>
        <time>2017-08-07T14:40:53Z</time>
      </trkpt>
      <trkpt lat="48.33218" lon="4.50639">
        <ele>143.85</ele>
        <time>2017-08-07T14:40:54Z</time>
      </trkpt>
      <trkpt lat="48.33214" lon="4.50645">
        <ele>143.85</ele>
        <time>2017-08-07T14:40:55Z</time>
      </trkpt>
      <trkpt lat="48.33211" lon="4.5065">
        <ele>143.85</ele>
        <time>2017-08-07T14:40:56Z</time>
      </trkpt>
      <trkpt lat="48.3316" lon="4.50723">
        <ele>145.3</ele>
        <time>2017-08-07T14:41:11Z</time>
      </trkpt>
      <trkpt lat="48.33122" lon="4.50778">
        <ele>145.3</ele>
        <time>2017-08-07T14:41:21Z</time>
      </trkpt>
      <trkpt lat="48.33101" lon="4.50811">
        <ele>145.3</ele>
        <time>2017-08-07T14:41:27Z</time>
      </trkpt>
      <trkpt lat="48.33098" lon="4.50816">
        <ele>145.3</ele>
        <time>2017-08-07T14:41:28Z</time>
      </trkpt>
      <trkpt lat="48.33094" lon="4.50822">
        <ele>145.3</ele>
        <time>2017-08-07T14:41:29Z</time>
      </trkpt>
      <trkpt lat="48.33067" lon="4.50863">
        <ele>143.85</ele>
        <time>2017-08-07T14:41:36Z</time>
      </trkpt>
      <trkpt lat="48.33047" lon="4.50895">
        <ele>143.37</ele>
        <time>2017-08-07T14:41:41Z</time>
      </trkpt>
      <trkpt lat="48.33034" lon="4.50913">
        <ele>142.89</ele>
        <time>2017-08-07T14:41:44Z</time>
      </trkpt>
      <trkpt lat="48.33029" lon="4.50917">
        <ele>142.89</ele>
        <time>2017-08-07T14:41:45Z</time>
      </trkpt>
      <trkpt lat="48.33024" lon="4.50917">
        <ele>142.89</ele>
        <time>2017-08-07T14:41:46Z</time>
      </trkpt>
      <trkpt lat="48.33019" lon="4.50916">
        <ele>142.89</ele>
        <time>2017-08-07T14:41:47Z</time>
      </trkpt>
      <trkpt lat="48.33015" lon="4.50912">
        <ele>142.89</ele>
        <time>2017-08-07T14:41:48Z</time>
      </trkpt>
      <trkpt lat="48.33011" lon="4.50907">
        <ele>142.89</ele>
        <time>2017-08-07T14:41:49Z</time>
      </trkpt>
      <trkpt lat="48.33008" lon="4.50902">
        <ele>142.89</ele>
        <time>2017-08-07T14:41:50Z</time>
      </trkpt>
      <trkpt lat="48.32992" lon="4.50882">
        <ele>142.89</ele>
        <time>2017-08-07T14:41:54Z</time>
      </trkpt>
      <trkpt lat="48.32987" lon="4.50879">
        <ele>142.89</ele>
        <time>2017-08-07T14:41:55Z</time>
      </trkpt>
      <trkpt lat="48.32981" lon="4.50878">
        <ele>142.89</ele>
        <time>2017-08-07T14:41:56Z</time>
      </trkpt>
      <trkpt lat="48.32974" lon="4.50879">
        <ele>142.89</ele>
        <time>2017-08-07T14:41:57Z</time>
      </trkpt>
      <trkpt lat="48.32968" lon="4.5088">
        <ele>142.89</ele>
        <time>2017-08-07T14:41:58Z</time>
      </trkpt>
      <trkpt lat="48.32961" lon="4.50883">
        <ele>141.93</ele>
        <time>2017-08-07T14:41:59Z</time>
      </trkpt>
      <trkpt lat="48.32954" lon="4.50885">
        <ele>141.93</ele>
        <time>2017-08-07T14:42:00Z</time>
      </trkpt>
      <trkpt lat="48.32913" lon="4.50903">
        <ele>141.93</ele>
        <time>2017-08-07T14:42:07Z</time>
      </trkpt>
      <trkpt lat="48.32908" lon="4.50907">
        <ele>141.93</ele>
        <time>2017-08-07T14:42:08Z</time>
      </trkpt>
      <trkpt lat="48.32904" lon="4.50911">
        <ele>142.89</ele>
        <time>2017-08-07T14:42:09Z</time>
      </trkpt>
      <trkpt lat="48.329" lon="4.50917">
        <ele>142.89</ele>
        <time>2017-08-07T14:42:10Z</time>
      </trkpt>
      <trkpt lat="48.32897" lon="4.50922">
        <ele>142.89</ele>
        <time>2017-08-07T14:42:11Z</time>
      </trkpt>
      <trkpt lat="48.32885" lon="4.50942">
        <ele>144.34</ele>
        <time>2017-08-07T14:42:15Z</time>
      </trkpt>
      <trkpt lat="48.32846" lon="4.51008">
        <ele>146.74</ele>
        <time>2017-08-07T14:42:30Z</time>
      </trkpt>
      <trkpt lat="48.32828" lon="4.51033">
        <ele>146.26</ele>
        <time>2017-08-07T14:42:37Z</time>
      </trkpt>
      <trkpt lat="48.32823" lon="4.51033">
        <ele>146.26</ele>
        <time>2017-08-07T14:42:38Z</time>
      </trkpt>
      <trkpt lat="48.3282" lon="4.51032">
        <ele>146.26</ele>
        <time>2017-08-07T14:42:39Z</time>
      </trkpt>
      <trkpt lat="48.32816" lon="4.5103">
        <ele>146.26</ele>
        <time>2017-08-07T14:42:40Z</time>
      </trkpt>
      <trkpt lat="48.32813" lon="4.51027">
        <ele>146.26</ele>
        <time>2017-08-07T14:42:41Z</time>
      </trkpt>
      <trkpt lat="48.32752" lon="4.50968">
        <ele>147.7</ele>
        <time>2017-08-07T14:42:58Z</time>
      </trkpt>
      <trkpt lat="48.32689" lon="4.50908">
        <ele>149.62</ele>
        <time>2017-08-07T14:43:16Z</time>
      </trkpt>
      <trkpt lat="48.3264" lon="4.5086">
        <ele>152.03</ele>
        <time>2017-08-07T14:43:31Z</time>
      </trkpt>
      <trkpt lat="48.32589" lon="4.50808">
        <ele>153.95</ele>
        <time>2017-08-07T14:43:47Z</time>
      </trkpt>
      <trkpt lat="48.32542" lon="4.5075">
        <ele>156.35</ele>
        <time>2017-08-07T14:44:03Z</time>
      </trkpt>
      <trkpt lat="48.32505" lon="4.50686">
        <ele>157.31</ele>
        <time>2017-08-07T14:44:17Z</time>
      </trkpt>
      <trkpt lat="48.32468" lon="4.50626">
        <ele>158.27</ele>
        <time>2017-08-07T14:44:30Z</time>
      </trkpt>
      <trkpt lat="48.32465" lon="4.5062">
        <ele>158.27</ele>
        <time>2017-08-07T14:44:31Z</time>
      </trkpt>
      <trkpt lat="48.32447" lon="4.50589">
        <ele>158.27</ele>
        <time>2017-08-07T14:44:37Z</time>
      </trkpt>
      <trkpt lat="48.32419" lon="4.50544">
        <ele>158.27</ele>
        <time>2017-08-07T14:44:45Z</time>
      </trkpt>
      <trkpt lat="48.32415" lon="4.50539">
        <ele>156.83</ele>
        <time>2017-08-07T14:44:46Z</time>
      </trkpt>
      <trkpt lat="48.3241" lon="4.50537">
        <ele>156.35</ele>
        <time>2017-08-07T14:44:47Z</time>
      </trkpt>
      <trkpt lat="48.32404" lon="4.50536">
        <ele>155.87</ele>
        <time>2017-08-07T14:44:48Z</time>
      </trkpt>
      <trkpt lat="48.32396" lon="4.50538">
        <ele>155.87</ele>
        <time>2017-08-07T14:44:49Z</time>
      </trkpt>
      <trkpt lat="48.32392" lon="4.50539">
        <ele>154.91</ele>
        <time>2017-08-07T14:44:50Z</time>
      </trkpt>
      <trkpt lat="48.32385" lon="4.50542">
        <ele>154.43</ele>
        <time>2017-08-07T14:44:51Z</time>
      </trkpt>
      <trkpt lat="48.32314" lon="4.50574">
        <ele>151.06</ele>
        <time>2017-08-07T14:45:01Z</time>
      </trkpt>
      <trkpt lat="48.32259" lon="4.50601">
        <ele>147.7</ele>
        <time>2017-08-07T14:45:08Z</time>
      </trkpt>
      <trkpt lat="48.32178" lon="4.50639">
        <ele>143.85</ele>
        <time>2017-08-07T14:45:17Z</time>
      </trkpt>
      <trkpt lat="48.321" lon="4.50705">
        <ele>142.89</ele>
        <time>2017-08-07T14:45:28Z</time>
      </trkpt>
      <trkpt lat="48.32027" lon="4.50777">
        <ele>143.37</ele>
        <time>2017-08-07T14:45:44Z</time>
      </trkpt>
      <trkpt lat="48.31982" lon="4.50822">
        <ele>144.34</ele>
        <time>2017-08-07T14:45:55Z</time>
      </trkpt>
      <trkpt lat="48.31914" lon="4.50882">
        <ele>145.3</ele>
        <time>2017-08-07T14:46:10Z</time>
      </trkpt>
      <trkpt lat="48.3188" lon="4.50905">
        <ele>148.66</ele>
        <time>2017-08-07T14:46:20Z</time>
      </trkpt>
      <trkpt lat="48.31847" lon="4.50927">
        <ele>151.54</ele>
        <time>2017-08-07T14:46:32Z</time>
      </trkpt>
      <trkpt lat="48.31808" lon="4.50943">
        <ele>152.99</ele>
        <time>2017-08-07T14:46:45Z</time>
      </trkpt>
      <trkpt lat="48.31771" lon="4.50967">
        <ele>154.91</ele>
        <time>2017-08-07T14:46:57Z</time>
      </trkpt>
      <trkpt lat="48.31769" lon="4.50971">
        <ele>154.91</ele>
        <time>2017-08-07T14:46:58Z</time>
      </trkpt>
      <trkpt lat="48.31768" lon="4.50975">
        <ele>155.39</ele>
        <time>2017-08-07T14:46:59Z</time>
      </trkpt>
      <trkpt lat="48.31747" lon="4.51047">
        <ele>157.31</ele>
        <time>2017-08-07T14:47:14Z</time>
      </trkpt>
      <trkpt lat="48.3173" lon="4.51106">
        <ele>155.87</ele>
        <time>2017-08-07T14:47:23Z</time>
      </trkpt>
      <trkpt lat="48.3171" lon="4.51179">
        <ele>152.51</ele>
        <time>2017-08-07T14:47:31Z</time>
      </trkpt>
      <trkpt lat="48.3169" lon="4.51251">
        <ele>149.62</ele>
        <time>2017-08-07T14:47:37Z</time>
      </trkpt>
      <trkpt lat="48.31679" lon="4.51287">
        <ele>147.7</ele>
        <time>2017-08-07T14:47:40Z</time>
      </trkpt>
      <trkpt lat="48.31675" lon="4.51299">
        <ele>146.74</ele>
        <time>2017-08-07T14:47:41Z</time>
      </trkpt>
      <trkpt lat="48.31672" lon="4.51311">
        <ele>146.74</ele>
        <time>2017-08-07T14:47:42Z</time>
      </trkpt>
      <trkpt lat="48.31658" lon="4.51362">
        <ele>145.3</ele>
        <time>2017-08-07T14:47:46Z</time>
      </trkpt>
      <trkpt lat="48.31611" lon="4.51534">
        <ele>143.85</ele>
        <time>2017-08-07T14:48:01Z</time>
      </trkpt>
      <trkpt lat="48.3158" lon="4.51641">
        <ele>146.74</ele>
        <time>2017-08-07T14:48:14Z</time>
      </trkpt>
      <trkpt lat="48.31578" lon="4.51647">
        <ele>147.22</ele>
        <time>2017-08-07T14:48:15Z</time>
      </trkpt>
      <trkpt lat="48.31563" lon="4.51698">
        <ele>150.1</ele>
        <time>2017-08-07T14:48:25Z</time>
      </trkpt>
      <trkpt lat="48.31546" lon="4.51761">
        <ele>152.99</ele>
        <time>2017-08-07T14:48:39Z</time>
      </trkpt>
      <trkpt lat="48.31527" lon="4.51832">
        <ele>154.91</ele>
        <time>2017-08-07T14:48:54Z</time>
      </trkpt>
      <trkpt lat="48.3151" lon="4.51892">
        <ele>156.35</ele>
        <time>2017-08-07T14:49:07Z</time>
      </trkpt>
      <trkpt lat="48.31491" lon="4.51962">
        <ele>158.27</ele>
        <time>2017-08-07T14:49:22Z</time>
      </trkpt>
      <trkpt lat="48.31468" lon="4.52046">
        <ele>160.68</ele>
        <time>2017-08-07T14:49:40Z</time>
      </trkpt>
      <trkpt lat="48.31447" lon="4.52118">
        <ele>161.64</ele>
        <time>2017-08-07T14:49:54Z</time>
      </trkpt>
      <trkpt lat="48.31419" lon="4.52227">
        <ele>160.68</ele>
        <time>2017-08-07T14:50:09Z</time>
      </trkpt>
      <trkpt lat="48.31391" lon="4.52325">
        <ele>157.79</ele>
        <time>2017-08-07T14:50:20Z</time>
      </trkpt>
      <trkpt lat="48.31388" lon="4.5233">
        <ele>157.79</ele>
        <time>2017-08-07T14:50:21Z</time>
      </trkpt>
      <trkpt lat="48.31385" lon="4.52333">
        <ele>157.79</ele>
        <time>2017-08-07T14:50:22Z</time>
      </trkpt>
      <trkpt lat="48.31381" lon="4.52334">
        <ele>157.79</ele>
        <time>2017-08-07T14:50:23Z</time>
      </trkpt>
      <trkpt lat="48.31377" lon="4.52333">
        <ele>157.79</ele>
        <time>2017-08-07T14:50:24Z</time>
      </trkpt>
      <trkpt lat="48.31373" lon="4.52331">
        <ele>157.79</ele>
        <time>2017-08-07T14:50:25Z</time>
      </trkpt>
      <trkpt lat="48.31369" lon="4.52329">
        <ele>157.79</ele>
        <time>2017-08-07T14:50:26Z</time>
      </trkpt>
      <trkpt lat="48.31366" lon="4.52327">
        <ele>157.79</ele>
        <time>2017-08-07T14:50:27Z</time>
      </trkpt>
      <trkpt lat="48.31362" lon="4.52325">
        <ele>157.79</ele>
        <time>2017-08-07T14:50:28Z</time>
      </trkpt>
      <trkpt lat="48.31296" lon="4.52289">
        <ele>159.24</ele>
        <time>2017-08-07T14:50:45Z</time>
      </trkpt>
      <trkpt lat="48.3125" lon="4.52268">
        <ele>160.2</ele>
        <time>2017-08-07T14:50:57Z</time>
      </trkpt>
      <trkpt lat="48.31195" lon="4.52248">
        <ele>160.68</ele>
        <time>2017-08-07T14:51:09Z</time>
      </trkpt>
      <trkpt lat="48.31108" lon="4.52213">
        <ele>162.12</ele>
        <time>2017-08-07T14:51:28Z</time>
      </trkpt>
      <trkpt lat="48.31067" lon="4.52196">
        <ele>163.08</ele>
        <time>2017-08-07T14:51:39Z</time>
      </trkpt>
      <trkpt lat="48.31065" lon="4.52192">
        <ele>163.08</ele>
        <time>2017-08-07T14:51:40Z</time>
      </trkpt>
      <trkpt lat="48.31065" lon="4.52182">
        <ele>163.08</ele>
        <time>2017-08-07T14:51:42Z</time>
      </trkpt>
      <trkpt lat="48.31072" lon="4.52065">
        <ele>164.04</ele>
        <time>2017-08-07T14:52:00Z</time>
      </trkpt>
      <trkpt lat="48.31078" lon="4.51968">
        <ele>166.45</ele>
        <time>2017-08-07T14:52:17Z</time>
      </trkpt>
      <trkpt lat="48.31066" lon="4.51932">
        <ele>167.89</ele>
        <time>2017-08-07T14:52:28Z</time>
      </trkpt>
      <trkpt lat="48.31002" lon="4.51907">
        <ele>168.37</ele>
        <time>2017-08-07T14:52:45Z</time>
      </trkpt>
      <trkpt lat="48.30967" lon="4.5189">
        <ele>169.33</ele>
        <time>2017-08-07T14:52:54Z</time>
      </trkpt>
      <trkpt lat="48.30886" lon="4.5186">
        <ele>171.25</ele>
        <time>2017-08-07T14:53:14Z</time>
      </trkpt>
      <trkpt lat="48.30799" lon="4.51831">
        <ele>173.17</ele>
        <time>2017-08-07T14:53:36Z</time>
      </trkpt>
      <trkpt lat="48.30742" lon="4.51818">
        <ele>175.1</ele>
        <time>2017-08-07T14:53:52Z</time>
      </trkpt>
      <trkpt lat="48.30687" lon="4.51805">
        <ele>178.46</ele>
        <time>2017-08-07T14:54:08Z</time>
      </trkpt>
      <trkpt lat="48.3063" lon="4.51791">
        <ele>180.38</ele>
        <time>2017-08-07T14:54:25Z</time>
      </trkpt>
      <trkpt lat="48.30577" lon="4.51779">
        <ele>181.83</ele>
        <time>2017-08-07T14:54:41Z</time>
      </trkpt>
      <trkpt lat="48.30544" lon="4.51769">
        <ele>181.83</ele>
        <time>2017-08-07T14:54:49Z</time>
      </trkpt>
      <trkpt lat="48.30468" lon="4.51737">
        <ele>179.9</ele>
        <time>2017-08-07T14:55:05Z</time>
      </trkpt>
      <trkpt lat="48.30437" lon="4.5172">
        <ele>179.9</ele>
        <time>2017-08-07T14:55:11Z</time>
      </trkpt>
      <trkpt lat="48.30368" lon="4.51665">
        <ele>176.54</ele>
        <time>2017-08-07T14:55:24Z</time>
      </trkpt>
      <trkpt lat="48.30323" lon="4.51629">
        <ele>172.69</ele>
        <time>2017-08-07T14:55:30Z</time>
      </trkpt>
      <trkpt lat="48.30291" lon="4.51605">
        <ele>170.77</ele>
        <time>2017-08-07T14:55:34Z</time>
      </trkpt>
      <trkpt lat="48.30245" lon="4.51578">
        <ele>168.37</ele>
        <time>2017-08-07T14:55:39Z</time>
      </trkpt>
      <trkpt lat="48.30149" lon="4.51553">
        <ele>165.48</ele>
        <time>2017-08-07T14:55:50Z</time>
      </trkpt>
      <trkpt lat="48.30034" lon="4.51548">
        <ele>163.08</ele>
        <time>2017-08-07T14:56:04Z</time>
      </trkpt>
      <trkpt lat="48.29916" lon="4.51605">
        <ele>161.64</ele>
        <time>2017-08-07T14:56:21Z</time>
      </trkpt>
      <trkpt lat="48.2983" lon="4.51665">
        <ele>161.64</ele>
        <time>2017-08-07T14:56:36Z</time>
      </trkpt>
      <trkpt lat="48.29793" lon="4.5168">
        <ele>161.64</ele>
        <time>2017-08-07T14:56:44Z</time>
      </trkpt>
      <trkpt lat="48.29761" lon="4.51718">
        <ele>161.64</ele>
        <time>2017-08-07T14:56:55Z</time>
      </trkpt>
      <trkpt lat="48.29758" lon="4.51718">
        <ele>161.64</ele>
        <time>2017-08-07T14:56:56Z</time>
      </trkpt>
      <trkpt lat="48.29712" lon="4.51707">
        <ele>161.16</ele>
        <time>2017-08-07T14:57:06Z</time>
      </trkpt>
      <trkpt lat="48.29708" lon="4.51706">
        <ele>161.16</ele>
        <time>2017-08-07T14:57:07Z</time>
      </trkpt>
      <trkpt lat="48.29703" lon="4.51704">
        <ele>161.16</ele>
        <time>2017-08-07T14:57:08Z</time>
      </trkpt>
      <trkpt lat="48.29698" lon="4.51702">
        <ele>161.16</ele>
        <time>2017-08-07T14:57:09Z</time>
      </trkpt>
      <trkpt lat="48.29694" lon="4.517">
        <ele>161.16</ele>
        <time>2017-08-07T14:57:10Z</time>
      </trkpt>
      <trkpt lat="48.29639" lon="4.51674">
        <ele>161.16</ele>
        <time>2017-08-07T14:57:23Z</time>
      </trkpt>
      <trkpt lat="48.29573" lon="4.51635">
        <ele>161.16</ele>
        <time>2017-08-07T14:57:39Z</time>
      </trkpt>
      <trkpt lat="48.29554" lon="4.51621">
        <ele>162.6</ele>
        <time>2017-08-07T14:57:44Z</time>
      </trkpt>
      <trkpt lat="48.29553" lon="4.51615">
        <ele>162.6</ele>
        <time>2017-08-07T14:57:45Z</time>
      </trkpt>
      <trkpt lat="48.29554" lon="4.51608">
        <ele>162.6</ele>
        <time>2017-08-07T14:57:46Z</time>
      </trkpt>
      <trkpt lat="48.29568" lon="4.51508">
        <ele>160.68</ele>
        <time>2017-08-07T14:57:59Z</time>
      </trkpt>
      <trkpt lat="48.29585" lon="4.51425">
        <ele>160.2</ele>
        <time>2017-08-07T14:58:10Z</time>
      </trkpt>
      <trkpt lat="48.29587" lon="4.51418">
        <ele>160.2</ele>
        <time>2017-08-07T14:58:11Z</time>
      </trkpt>
      <trkpt lat="48.29599" lon="4.51324">
        <ele>159.72</ele>
        <time>2017-08-07T14:58:23Z</time>
      </trkpt>
      <trkpt lat="48.29599" lon="4.51299">
        <ele>159.72</ele>
        <time>2017-08-07T14:58:26Z</time>
      </trkpt>
      <trkpt lat="48.296" lon="4.51292">
        <ele>159.72</ele>
        <time>2017-08-07T14:58:27Z</time>
      </trkpt>
      <trkpt lat="48.29604" lon="4.51254">
        <ele>159.72</ele>
        <time>2017-08-07T14:58:32Z</time>
      </trkpt>
      <trkpt lat="48.29615" lon="4.51134">
        <ele>159.72</ele>
        <time>2017-08-07T14:58:48Z</time>
      </trkpt>
      <trkpt lat="48.29616" lon="4.51097">
        <ele>161.16</ele>
        <time>2017-08-07T14:58:53Z</time>
      </trkpt>
      <trkpt lat="48.29612" lon="4.50994">
        <ele>163.08</ele>
        <time>2017-08-07T14:59:08Z</time>
      </trkpt>
      <trkpt lat="48.29586" lon="4.50884">
        <ele>165</ele>
        <time>2017-08-07T14:59:26Z</time>
      </trkpt>
      <trkpt lat="48.29584" lon="4.50878">
        <ele>165</ele>
        <time>2017-08-07T14:59:27Z</time>
      </trkpt>
      <trkpt lat="48.29573" lon="4.50861">
        <ele>165</ele>
        <time>2017-08-07T14:59:30Z</time>
      </trkpt>
      <trkpt lat="48.29569" lon="4.50856">
        <ele>165</ele>
        <time>2017-08-07T14:59:31Z</time>
      </trkpt>
      <trkpt lat="48.29565" lon="4.50852">
        <ele>165</ele>
        <time>2017-08-07T14:59:32Z</time>
      </trkpt>
      <trkpt lat="48.2956" lon="4.50848">
        <ele>165</ele>
        <time>2017-08-07T14:59:33Z</time>
      </trkpt>
      <trkpt lat="48.29556" lon="4.50845">
        <ele>165</ele>
        <time>2017-08-07T14:59:34Z</time>
      </trkpt>
      <trkpt lat="48.29551" lon="4.50842">
        <ele>165</ele>
        <time>2017-08-07T14:59:35Z</time>
      </trkpt>
      <trkpt lat="48.2951" lon="4.50799">
        <ele>165.48</ele>
        <time>2017-08-07T14:59:45Z</time>
      </trkpt>
      <trkpt lat="48.29507" lon="4.50793">
        <ele>165.48</ele>
        <time>2017-08-07T14:59:46Z</time>
      </trkpt>
      <trkpt lat="48.29504" lon="4.50786">
        <ele>165.48</ele>
        <time>2017-08-07T14:59:47Z</time>
      </trkpt>
      <trkpt lat="48.29502" lon="4.50777">
        <ele>165.48</ele>
        <time>2017-08-07T14:59:48Z</time>
      </trkpt>
      <trkpt lat="48.29501" lon="4.50771">
        <ele>165.48</ele>
        <time>2017-08-07T14:59:49Z</time>
      </trkpt>
      <trkpt lat="48.29499" lon="4.50762">
        <ele>165.48</ele>
        <time>2017-08-07T14:59:50Z</time>
      </trkpt>
      <trkpt lat="48.29497" lon="4.50616">
        <ele>165.48</ele>
        <time>2017-08-07T15:00:07Z</time>
      </trkpt>
      <trkpt lat="48.29492" lon="4.50518">
        <ele>168.37</ele>
        <time>2017-08-07T15:00:22Z</time>
      </trkpt>
      <trkpt lat="48.29471" lon="4.50456">
        <ele>171.73</ele>
        <time>2017-08-07T15:00:37Z</time>
      </trkpt>
      <trkpt lat="48.29462" lon="4.50396">
        <ele>174.62</ele>
        <time>2017-08-07T15:00:54Z</time>
      </trkpt>
      <trkpt lat="48.29476" lon="4.50343">
        <ele>177.98</ele>
        <time>2017-08-07T15:01:10Z</time>
      </trkpt>
      <trkpt lat="48.29496" lon="4.50274">
        <ele>180.87</ele>
        <time>2017-08-07T15:01:31Z</time>
      </trkpt>
      <trkpt lat="48.29517" lon="4.50202">
        <ele>184.23</ele>
        <time>2017-08-07T15:01:52Z</time>
      </trkpt>
      <trkpt lat="48.29537" lon="4.50135">
        <ele>186.63</ele>
        <time>2017-08-07T15:02:12Z</time>
      </trkpt>
      <trkpt lat="48.29553" lon="4.50059">
        <ele>188.56</ele>
        <time>2017-08-07T15:02:31Z</time>
      </trkpt>
      <trkpt lat="48.29553" lon="4.49997">
        <ele>188.56</ele>
        <time>2017-08-07T15:02:42Z</time>
      </trkpt>
      <trkpt lat="48.29553" lon="4.49974">
        <ele>187.11</ele>
        <time>2017-08-07T15:02:46Z</time>
      </trkpt>
      <trkpt lat="48.29548" lon="4.49913">
        <ele>185.19</ele>
        <time>2017-08-07T15:02:55Z</time>
      </trkpt>
      <trkpt lat="48.29541" lon="4.49824">
        <ele>182.31</ele>
        <time>2017-08-07T15:03:04Z</time>
      </trkpt>
      <trkpt lat="48.29535" lon="4.49749">
        <ele>179.9</ele>
        <time>2017-08-07T15:03:11Z</time>
      </trkpt>
      <trkpt lat="48.29527" lon="4.49636">
        <ele>177.02</ele>
        <time>2017-08-07T15:03:21Z</time>
      </trkpt>
      <trkpt lat="48.29517" lon="4.49542">
        <ele>176.06</ele>
        <time>2017-08-07T15:03:30Z</time>
      </trkpt>
      <trkpt lat="48.29516" lon="4.49533">
        <ele>176.06</ele>
        <time>2017-08-07T15:03:31Z</time>
      </trkpt>
      <trkpt lat="48.29517" lon="4.49504">
        <ele>176.06</ele>
        <time>2017-08-07T15:03:34Z</time>
      </trkpt>
      <trkpt lat="48.29517" lon="4.49483">
        <ele>176.06</ele>
        <time>2017-08-07T15:03:36Z</time>
      </trkpt>
      <trkpt lat="48.29518" lon="4.49474">
        <ele>176.06</ele>
        <time>2017-08-07T15:03:37Z</time>
      </trkpt>
      <trkpt lat="48.29524" lon="4.49437">
        <ele>175.58</ele>
        <time>2017-08-07T15:03:41Z</time>
      </trkpt>
      <trkpt lat="48.29526" lon="4.49429">
        <ele>175.1</ele>
        <time>2017-08-07T15:03:42Z</time>
      </trkpt>
      <trkpt lat="48.29576" lon="4.49303">
        <ele>171.73</ele>
        <time>2017-08-07T15:03:56Z</time>
      </trkpt>
      <trkpt lat="48.29633" lon="4.49163">
        <ele>168.37</ele>
        <time>2017-08-07T15:04:10Z</time>
      </trkpt>
      <trkpt lat="48.29672" lon="4.49073">
        <ele>165</ele>
        <time>2017-08-07T15:04:18Z</time>
      </trkpt>
      <trkpt lat="48.297" lon="4.49016">
        <ele>161.64</ele>
        <time>2017-08-07T15:04:23Z</time>
      </trkpt>
      <trkpt lat="48.29732" lon="4.48959">
        <ele>158.27</ele>
        <time>2017-08-07T15:04:28Z</time>
      </trkpt>
      <trkpt lat="48.29751" lon="4.48902">
        <ele>154.91</ele>
        <time>2017-08-07T15:04:32Z</time>
      </trkpt>
      <trkpt lat="48.29754" lon="4.48886">
        <ele>154.43</ele>
        <time>2017-08-07T15:04:33Z</time>
      </trkpt>
      <trkpt lat="48.29775" lon="4.48727">
        <ele>156.83</ele>
        <time>2017-08-07T15:04:45Z</time>
      </trkpt>
      <trkpt lat="48.29781" lon="4.48674">
        <ele>160.2</ele>
        <time>2017-08-07T15:04:53Z</time>
      </trkpt>
      <trkpt lat="48.29786" lon="4.48608">
        <ele>162.6</ele>
        <time>2017-08-07T15:05:09Z</time>
      </trkpt>
      <trkpt lat="48.29789" lon="4.48556">
        <ele>165</ele>
        <time>2017-08-07T15:05:23Z</time>
      </trkpt>
      <trkpt lat="48.29791" lon="4.48511">
        <ele>166.93</ele>
        <time>2017-08-07T15:05:36Z</time>
      </trkpt>
      <trkpt lat="48.29792" lon="4.48453">
        <ele>168.85</ele>
        <time>2017-08-07T15:05:52Z</time>
      </trkpt>
      <trkpt lat="48.29784" lon="4.484">
        <ele>170.77</ele>
        <time>2017-08-07T15:06:07Z</time>
      </trkpt>
      <trkpt lat="48.29755" lon="4.4836">
        <ele>171.73</ele>
        <time>2017-08-07T15:06:21Z</time>
      </trkpt>
      <trkpt lat="48.29729" lon="4.48323">
        <ele>171.73</ele>
        <time>2017-08-07T15:06:31Z</time>
      </trkpt>
      <trkpt lat="48.29727" lon="4.48316">
        <ele>171.73</ele>
        <time>2017-08-07T15:06:32Z</time>
      </trkpt>
      <trkpt lat="48.29727" lon="4.48311">
        <ele>171.73</ele>
        <time>2017-08-07T15:06:33Z</time>
      </trkpt>
      <trkpt lat="48.29726" lon="4.48304">
        <ele>171.73</ele>
        <time>2017-08-07T15:06:34Z</time>
      </trkpt>
      <trkpt lat="48.29726" lon="4.48295">
        <ele>171.73</ele>
        <time>2017-08-07T15:06:35Z</time>
      </trkpt>
      <trkpt lat="48.29727" lon="4.48279">
        <ele>170.77</ele>
        <time>2017-08-07T15:06:37Z</time>
      </trkpt>
      <trkpt lat="48.29729" lon="4.48271">
        <ele>169.81</ele>
        <time>2017-08-07T15:06:38Z</time>
      </trkpt>
      <trkpt lat="48.29731" lon="4.48262">
        <ele>169.81</ele>
        <time>2017-08-07T15:06:39Z</time>
      </trkpt>
      <trkpt lat="48.29754" lon="4.48161">
        <ele>166.93</ele>
        <time>2017-08-07T15:06:49Z</time>
      </trkpt>
      <trkpt lat="48.29763" lon="4.4812">
        <ele>166.45</ele>
        <time>2017-08-07T15:06:53Z</time>
      </trkpt>
      <trkpt lat="48.29765" lon="4.4811">
        <ele>166.45</ele>
        <time>2017-08-07T15:06:54Z</time>
      </trkpt>
      <trkpt lat="48.29798" lon="4.47968">
        <ele>165</ele>
        <time>2017-08-07T15:07:10Z</time>
      </trkpt>
      <trkpt lat="48.298" lon="4.47956">
        <ele>166.45</ele>
        <time>2017-08-07T15:07:12Z</time>
      </trkpt>
      <trkpt lat="48.29816" lon="4.47892">
        <ele>169.33</ele>
        <time>2017-08-07T15:07:26Z</time>
      </trkpt>
      <trkpt lat="48.29835" lon="4.47808">
        <ele>169.33</ele>
        <time>2017-08-07T15:07:41Z</time>
      </trkpt>
      <trkpt lat="48.29845" lon="4.47763">
        <ele>167.89</ele>
        <time>2017-08-07T15:07:47Z</time>
      </trkpt>
      <trkpt lat="48.29875" lon="4.47635">
        <ele>164.52</ele>
        <time>2017-08-07T15:08:00Z</time>
      </trkpt>
      <trkpt lat="48.29893" lon="4.47558">
        <ele>161.16</ele>
        <time>2017-08-07T15:08:07Z</time>
      </trkpt>
      <trkpt lat="48.29907" lon="4.47494">
        <ele>157.79</ele>
        <time>2017-08-07T15:08:12Z</time>
      </trkpt>
      <trkpt lat="48.29934" lon="4.47379">
        <ele>158.27</ele>
        <time>2017-08-07T15:08:22Z</time>
      </trkpt>
      <trkpt lat="48.29945" lon="4.47338">
        <ele>160.68</ele>
        <time>2017-08-07T15:08:27Z</time>
      </trkpt>
      <trkpt lat="48.29959" lon="4.47284">
        <ele>162.6</ele>
        <time>2017-08-07T15:08:38Z</time>
      </trkpt>
      <trkpt lat="48.29973" lon="4.47222">
        <ele>162.12</ele>
        <time>2017-08-07T15:08:50Z</time>
      </trkpt>
      <trkpt lat="48.29976" lon="4.47209">
        <ele>162.12</ele>
        <time>2017-08-07T15:08:52Z</time>
      </trkpt>
      <trkpt lat="48.29978" lon="4.47203">
        <ele>162.12</ele>
        <time>2017-08-07T15:08:53Z</time>
      </trkpt>
      <trkpt lat="48.29997" lon="4.47116">
        <ele>162.6</ele>
        <time>2017-08-07T15:09:08Z</time>
      </trkpt>
      <trkpt lat="48.30012" lon="4.47051">
        <ele>163.56</ele>
        <time>2017-08-07T15:09:22Z</time>
      </trkpt>
      <trkpt lat="48.30025" lon="4.46994">
        <ele>165</ele>
        <time>2017-08-07T15:09:35Z</time>
      </trkpt>
      <trkpt lat="48.30041" lon="4.4693">
        <ele>165.48</ele>
        <time>2017-08-07T15:09:49Z</time>
      </trkpt>
      <trkpt lat="48.30054" lon="4.46873">
        <ele>166.45</ele>
        <time>2017-08-07T15:10:01Z</time>
      </trkpt>
      <trkpt lat="48.30071" lon="4.46801">
        <ele>166.45</ele>
        <time>2017-08-07T15:10:14Z</time>
      </trkpt>
      <trkpt lat="48.30087" lon="4.46731">
        <ele>167.89</ele>
        <time>2017-08-07T15:10:28Z</time>
      </trkpt>
      <trkpt lat="48.30098" lon="4.46687">
        <ele>170.29</ele>
        <time>2017-08-07T15:10:41Z</time>
      </trkpt>
      <trkpt lat="48.30111" lon="4.46634">
        <ele>172.21</ele>
        <time>2017-08-07T15:10:56Z</time>
      </trkpt>
      <trkpt lat="48.30121" lon="4.46592">
        <ele>174.14</ele>
        <time>2017-08-07T15:11:09Z</time>
      </trkpt>
      <trkpt lat="48.30121" lon="4.46589">
        <ele>174.14</ele>
        <time>2017-08-07T15:11:10Z</time>
      </trkpt>
      <trkpt lat="48.30121" lon="4.46587">
        <ele>174.14</ele>
        <time>2017-08-07T15:11:11Z</time>
      </trkpt>
      <trkpt lat="48.30128" lon="4.46561">
        <ele>175.1</ele>
        <time>2017-08-07T15:11:22Z</time>
      </trkpt>
      <trkpt lat="48.30132" lon="4.46553">
        <ele>175.58</ele>
        <time>2017-08-07T15:11:26Z</time>
      </trkpt>
      <trkpt lat="48.30132" lon="4.4655">
        <ele>175.58</ele>
        <time>2017-08-07T15:11:27Z</time>
      </trkpt>
      <trkpt lat="48.30132" lon="4.46548">
        <ele>176.06</ele>
        <time>2017-08-07T15:11:28Z</time>
      </trkpt>
      <trkpt lat="48.30136" lon="4.4653">
        <ele>176.54</ele>
        <time>2017-08-07T15:11:36Z</time>
      </trkpt>
      <trkpt lat="48.30137" lon="4.46528">
        <ele>177.02</ele>
        <time>2017-08-07T15:11:37Z</time>
      </trkpt>
      <trkpt lat="48.30138" lon="4.46527">
        <ele>177.02</ele>
        <time>2017-08-07T15:11:38Z</time>
      </trkpt>
      <trkpt lat="48.30138" lon="4.46524">
        <ele>177.02</ele>
        <time>2017-08-07T15:11:39Z</time>
      </trkpt>
      <trkpt lat="48.30139" lon="4.46521">
        <ele>177.02</ele>
        <time>2017-08-07T15:11:40Z</time>
      </trkpt>
      <trkpt lat="48.3014" lon="4.46518">
        <ele>177.5</ele>
        <time>2017-08-07T15:11:41Z</time>
      </trkpt>
      <trkpt lat="48.30141" lon="4.46515">
        <ele>177.5</ele>
        <time>2017-08-07T15:11:42Z</time>
      </trkpt>
      <trkpt lat="48.30142" lon="4.46512">
        <ele>177.5</ele>
        <time>2017-08-07T15:11:43Z</time>
      </trkpt>
      <trkpt lat="48.30143" lon="4.46508">
        <ele>177.5</ele>
        <time>2017-08-07T15:11:44Z</time>
      </trkpt>
      <trkpt lat="48.30144" lon="4.46506">
        <ele>177.5</ele>
        <time>2017-08-07T15:11:45Z</time>
      </trkpt>
      <trkpt lat="48.30145" lon="4.46502">
        <ele>177.98</ele>
        <time>2017-08-07T15:11:46Z</time>
      </trkpt>
      <trkpt lat="48.30146" lon="4.46499">
        <ele>177.98</ele>
        <time>2017-08-07T15:11:47Z</time>
      </trkpt>
      <trkpt lat="48.30151" lon="4.46448">
        <ele>178.46</ele>
        <time>2017-08-07T15:12:00Z</time>
      </trkpt>
      <trkpt lat="48.30151" lon="4.46433">
        <ele>178.46</ele>
        <time>2017-08-07T15:12:06Z</time>
      </trkpt>
      <trkpt lat="48.30151" lon="4.46431">
        <ele>178.94</ele>
        <time>2017-08-07T15:12:07Z</time>
      </trkpt>
      <trkpt lat="48.30152" lon="4.46429">
        <ele>178.94</ele>
        <time>2017-08-07T15:12:08Z</time>
      </trkpt>
      <trkpt lat="48.30153" lon="4.46426">
        <ele>178.94</ele>
        <time>2017-08-07T15:12:09Z</time>
      </trkpt>
      <trkpt lat="48.30153" lon="4.46423">
        <ele>178.94</ele>
        <time>2017-08-07T15:12:10Z</time>
      </trkpt>
      <trkpt lat="48.30154" lon="4.4642">
        <ele>178.94</ele>
        <time>2017-08-07T15:12:11Z</time>
      </trkpt>
      <trkpt lat="48.30154" lon="4.46416">
        <ele>178.94</ele>
        <time>2017-08-07T15:12:12Z</time>
      </trkpt>
      <trkpt lat="48.30155" lon="4.46414">
        <ele>178.94</ele>
        <time>2017-08-07T15:12:13Z</time>
      </trkpt>
      <trkpt lat="48.30155" lon="4.46409">
        <ele>178.94</ele>
        <time>2017-08-07T15:12:14Z</time>
      </trkpt>
      <trkpt lat="48.30155" lon="4.46405">
        <ele>178.94</ele>
        <time>2017-08-07T15:12:15Z</time>
      </trkpt>
      <trkpt lat="48.30155" lon="4.464">
        <ele>178.94</ele>
        <time>2017-08-07T15:12:16Z</time>
      </trkpt>
      <trkpt lat="48.30148" lon="4.46353">
        <ele>178.94</ele>
        <time>2017-08-07T15:12:28Z</time>
      </trkpt>
      <trkpt lat="48.30143" lon="4.46302">
        <ele>178.94</ele>
        <time>2017-08-07T15:12:40Z</time>
      </trkpt>
      <trkpt lat="48.30141" lon="4.4625">
        <ele>177.98</ele>
        <time>2017-08-07T15:12:52Z</time>
      </trkpt>
      <trkpt lat="48.30136" lon="4.46197">
        <ele>177.5</ele>
        <time>2017-08-07T15:13:03Z</time>
      </trkpt>
      <trkpt lat="48.30131" lon="4.46145">
        <ele>177.02</ele>
        <time>2017-08-07T15:13:13Z</time>
      </trkpt>
      <trkpt lat="48.30127" lon="4.46099">
        <ele>176.54</ele>
        <time>2017-08-07T15:13:20Z</time>
      </trkpt>
      <trkpt lat="48.30126" lon="4.46093">
        <ele>176.06</ele>
        <time>2017-08-07T15:13:21Z</time>
      </trkpt>
      <trkpt lat="48.30121" lon="4.46024">
        <ele>174.62</ele>
        <time>2017-08-07T15:13:30Z</time>
      </trkpt>
      <trkpt lat="48.30112" lon="4.45936">
        <ele>172.21</ele>
        <time>2017-08-07T15:13:40Z</time>
      </trkpt>
      <trkpt lat="48.30112" lon="4.45927">
        <ele>172.21</ele>
        <time>2017-08-07T15:13:41Z</time>
      </trkpt>
      <trkpt lat="48.30111" lon="4.45918">
        <ele>171.73</ele>
        <time>2017-08-07T15:13:42Z</time>
      </trkpt>
      <trkpt lat="48.30106" lon="4.4587">
        <ele>170.77</ele>
        <time>2017-08-07T15:13:47Z</time>
      </trkpt>
      <trkpt lat="48.30105" lon="4.45861">
        <ele>170.77</ele>
        <time>2017-08-07T15:13:48Z</time>
      </trkpt>
      <trkpt lat="48.30097" lon="4.45769">
        <ele>169.33</ele>
        <time>2017-08-07T15:13:59Z</time>
      </trkpt>
      <trkpt lat="48.30091" lon="4.45703">
        <ele>165.48</ele>
        <time>2017-08-07T15:14:06Z</time>
      </trkpt>
      <trkpt lat="48.30088" lon="4.4568">
        <ele>165</ele>
        <time>2017-08-07T15:14:08Z</time>
      </trkpt>
      <trkpt lat="48.30085" lon="4.45647">
        <ele>163.56</ele>
        <time>2017-08-07T15:14:11Z</time>
      </trkpt>
      <trkpt lat="48.30072" lon="4.45508">
        <ele>160.68</ele>
        <time>2017-08-07T15:14:23Z</time>
      </trkpt>
      <trkpt lat="48.30064" lon="4.45421">
        <ele>159.72</ele>
        <time>2017-08-07T15:14:33Z</time>
      </trkpt>
      <trkpt lat="48.30059" lon="4.45364">
        <ele>159.24</ele>
        <time>2017-08-07T15:14:44Z</time>
      </trkpt>
      <trkpt lat="48.30052" lon="4.45291">
        <ele>158.27</ele>
        <time>2017-08-07T15:14:56Z</time>
      </trkpt>
      <trkpt lat="48.30048" lon="4.45257">
        <ele>157.79</ele>
        <time>2017-08-07T15:15:01Z</time>
      </trkpt>
      <trkpt lat="48.30048" lon="4.45252">
        <ele>157.31</ele>
        <time>2017-08-07T15:15:02Z</time>
      </trkpt>
      <trkpt lat="48.30046" lon="4.45212">
        <ele>156.35</ele>
        <time>2017-08-07T15:15:07Z</time>
      </trkpt>
      <trkpt lat="48.30046" lon="4.45204">
        <ele>156.35</ele>
        <time>2017-08-07T15:15:08Z</time>
      </trkpt>
      <trkpt lat="48.30038" lon="4.45122">
        <ele>154.91</ele>
        <time>2017-08-07T15:15:19Z</time>
      </trkpt>
      <trkpt lat="48.30032" lon="4.45058">
        <ele>156.83</ele>
        <time>2017-08-07T15:15:30Z</time>
      </trkpt>
      <trkpt lat="48.30024" lon="4.44996">
        <ele>157.79</ele>
        <time>2017-08-07T15:15:42Z</time>
      </trkpt>
      <trkpt lat="48.30019" lon="4.44933">
        <ele>158.27</ele>
        <time>2017-08-07T15:15:53Z</time>
      </trkpt>
      <trkpt lat="48.30011" lon="4.44838">
        <ele>158.75</ele>
        <time>2017-08-07T15:16:08Z</time>
      </trkpt>
      <trkpt lat="48.30008" lon="4.44813">
        <ele>158.75</ele>
        <time>2017-08-07T15:16:12Z</time>
      </trkpt>
      <trkpt lat="48.30006" lon="4.44791">
        <ele>157.79</ele>
        <time>2017-08-07T15:16:15Z</time>
      </trkpt>
      <trkpt lat="48.30006" lon="4.44783">
        <ele>157.31</ele>
        <time>2017-08-07T15:16:16Z</time>
      </trkpt>
      <trkpt lat="48.30004" lon="4.44761">
        <ele>156.35</ele>
        <time>2017-08-07T15:16:19Z</time>
      </trkpt>
      <trkpt lat="48.30002" lon="4.44755">
        <ele>156.35</ele>
        <time>2017-08-07T15:16:20Z</time>
      </trkpt>
      <trkpt lat="48.29998" lon="4.44752">
        <ele>156.35</ele>
        <time>2017-08-07T15:16:21Z</time>
      </trkpt>
      <trkpt lat="48.29994" lon="4.44752">
        <ele>156.35</ele>
        <time>2017-08-07T15:16:22Z</time>
      </trkpt>
      <trkpt lat="48.2999" lon="4.44754">
        <ele>156.35</ele>
        <time>2017-08-07T15:16:23Z</time>
      </trkpt>
      <trkpt lat="48.29988" lon="4.44756">
        <ele>156.35</ele>
        <time>2017-08-07T15:16:24Z</time>
      </trkpt>
      <trkpt lat="48.29984" lon="4.4476">
        <ele>156.35</ele>
        <time>2017-08-07T15:16:25Z</time>
      </trkpt>
      <trkpt lat="48.29969" lon="4.44776">
        <ele>156.35</ele>
        <time>2017-08-07T15:16:30Z</time>
      </trkpt>
      <trkpt lat="48.29965" lon="4.4478">
        <ele>156.35</ele>
        <time>2017-08-07T15:16:31Z</time>
      </trkpt>
      <trkpt lat="48.2991" lon="4.44844">
        <ele>156.35</ele>
        <time>2017-08-07T15:16:45Z</time>
      </trkpt>
      <trkpt lat="48.29869" lon="4.44892">
        <ele>157.79</ele>
        <time>2017-08-07T15:17:00Z</time>
      </trkpt>
      <trkpt lat="48.29832" lon="4.44931">
        <ele>158.27</ele>
        <time>2017-08-07T15:17:13Z</time>
      </trkpt>
      <trkpt lat="48.29821" lon="4.44924">
        <ele>158.27</ele>
        <time>2017-08-07T15:17:16Z</time>
      </trkpt>
      <trkpt lat="48.29819" lon="4.44919">
        <ele>158.27</ele>
        <time>2017-08-07T15:17:17Z</time>
      </trkpt>
      <trkpt lat="48.29801" lon="4.44891">
        <ele>157.31</ele>
        <time>2017-08-07T15:17:23Z</time>
      </trkpt>
      <trkpt lat="48.29798" lon="4.44886">
        <ele>157.31</ele>
        <time>2017-08-07T15:17:24Z</time>
      </trkpt>
      <trkpt lat="48.29748" lon="4.44796">
        <ele>153.95</ele>
        <time>2017-08-07T15:17:38Z</time>
      </trkpt>
      <trkpt lat="48.29672" lon="4.44661">
        <ele>151.06</ele>
        <time>2017-08-07T15:17:57Z</time>
      </trkpt>
      <trkpt lat="48.29623" lon="4.44574">
        <ele>152.03</ele>
        <time>2017-08-07T15:18:11Z</time>
      </trkpt>
      <trkpt lat="48.29598" lon="4.44528">
        <ele>155.39</ele>
        <time>2017-08-07T15:18:24Z</time>
      </trkpt>
      <trkpt lat="48.2957" lon="4.44477">
        <ele>157.79</ele>
        <time>2017-08-07T15:18:41Z</time>
      </trkpt>
      <trkpt lat="48.29542" lon="4.4443">
        <ele>159.24</ele>
        <time>2017-08-07T15:18:57Z</time>
      </trkpt>
      <trkpt lat="48.29513" lon="4.44377">
        <ele>160.68</ele>
        <time>2017-08-07T15:19:12Z</time>
      </trkpt>
      <trkpt lat="48.29477" lon="4.44309">
        <ele>159.24</ele>
        <time>2017-08-07T15:19:25Z</time>
      </trkpt>
      <trkpt lat="48.29474" lon="4.44302">
        <ele>159.24</ele>
        <time>2017-08-07T15:19:26Z</time>
      </trkpt>
      <trkpt lat="48.29421" lon="4.44206">
        <ele>157.31</ele>
        <time>2017-08-07T15:19:41Z</time>
      </trkpt>
      <trkpt lat="48.2938" lon="4.44134">
        <ele>155.87</ele>
        <time>2017-08-07T15:19:52Z</time>
      </trkpt>
      <trkpt lat="48.29377" lon="4.44127">
        <ele>155.87</ele>
        <time>2017-08-07T15:19:53Z</time>
      </trkpt>
      <trkpt lat="48.29336" lon="4.44057">
        <ele>157.31</ele>
        <time>2017-08-07T15:20:06Z</time>
      </trkpt>
      <trkpt lat="48.29307" lon="4.44002">
        <ele>159.72</ele>
        <time>2017-08-07T15:20:22Z</time>
      </trkpt>
      <trkpt lat="48.29308" lon="4.43994">
        <ele>160.2</ele>
        <time>2017-08-07T15:20:24Z</time>
      </trkpt>
      <trkpt lat="48.29338" lon="4.43948">
        <ele>160.68</ele>
        <time>2017-08-07T15:20:38Z</time>
      </trkpt>
      <trkpt lat="48.29373" lon="4.43904">
        <ele>159.72</ele>
        <time>2017-08-07T15:20:49Z</time>
      </trkpt>
      <trkpt lat="48.29377" lon="4.43899">
        <ele>159.24</ele>
        <time>2017-08-07T15:20:50Z</time>
      </trkpt>
      <trkpt lat="48.29431" lon="4.4383">
        <ele>156.83</ele>
        <time>2017-08-07T15:21:02Z</time>
      </trkpt>
      <trkpt lat="48.29496" lon="4.43748">
        <ele>154.91</ele>
        <time>2017-08-07T15:21:16Z</time>
      </trkpt>
      <trkpt lat="48.29499" lon="4.43744">
        <ele>154.91</ele>
        <time>2017-08-07T15:21:17Z</time>
      </trkpt>
      <trkpt lat="48.29526" lon="4.43712">
        <ele>153.95</ele>
        <time>2017-08-07T15:21:23Z</time>
      </trkpt>
      <trkpt lat="48.29531" lon="4.43706">
        <ele>153.47</ele>
        <time>2017-08-07T15:21:24Z</time>
      </trkpt>
      <trkpt lat="48.29565" lon="4.43658">
        <ele>152.03</ele>
        <time>2017-08-07T15:21:33Z</time>
      </trkpt>
      <trkpt lat="48.29565" lon="4.43652">
        <ele>152.03</ele>
        <time>2017-08-07T15:21:34Z</time>
      </trkpt>
      <trkpt lat="48.29564" lon="4.43647">
        <ele>151.54</ele>
        <time>2017-08-07T15:21:35Z</time>
      </trkpt>
      <trkpt lat="48.29563" lon="4.43643">
        <ele>151.54</ele>
        <time>2017-08-07T15:21:36Z</time>
      </trkpt>
      <trkpt lat="48.29561" lon="4.43638">
        <ele>151.54</ele>
        <time>2017-08-07T15:21:37Z</time>
      </trkpt>
      <trkpt lat="48.29558" lon="4.43634">
        <ele>151.54</ele>
        <time>2017-08-07T15:21:38Z</time>
      </trkpt>
      <trkpt lat="48.29555" lon="4.43629">
        <ele>151.54</ele>
        <time>2017-08-07T15:21:39Z</time>
      </trkpt>
      <trkpt lat="48.29551" lon="4.43624">
        <ele>151.06</ele>
        <time>2017-08-07T15:21:40Z</time>
      </trkpt>
      <trkpt lat="48.29494" lon="4.43546">
        <ele>150.58</ele>
        <time>2017-08-07T15:21:55Z</time>
      </trkpt>
      <trkpt lat="48.29488" lon="4.43537">
        <ele>151.54</ele>
        <time>2017-08-07T15:21:57Z</time>
      </trkpt>
      <trkpt lat="48.29447" lon="4.43478">
        <ele>154.43</ele>
        <time>2017-08-07T15:22:13Z</time>
      </trkpt>
      <trkpt lat="48.2941" lon="4.43423">
        <ele>156.35</ele>
        <time>2017-08-07T15:22:30Z</time>
      </trkpt>
      <trkpt lat="48.2938" lon="4.43381">
        <ele>158.27</ele>
        <time>2017-08-07T15:22:45Z</time>
      </trkpt>
      <trkpt lat="48.29343" lon="4.43331">
        <ele>160.2</ele>
        <time>2017-08-07T15:23:03Z</time>
      </trkpt>
      <trkpt lat="48.29313" lon="4.43289">
        <ele>162.12</ele>
        <time>2017-08-07T15:23:18Z</time>
      </trkpt>
      <trkpt lat="48.29279" lon="4.43243">
        <ele>163.56</ele>
        <time>2017-08-07T15:23:34Z</time>
      </trkpt>
      <trkpt lat="48.2925" lon="4.43199">
        <ele>165</ele>
        <time>2017-08-07T15:23:49Z</time>
      </trkpt>
      <trkpt lat="48.29224" lon="4.43156">
        <ele>166.45</ele>
        <time>2017-08-07T15:24:04Z</time>
      </trkpt>
      <trkpt lat="48.29212" lon="4.43117">
        <ele>166.93</ele>
        <time>2017-08-07T15:24:15Z</time>
      </trkpt>
      <trkpt lat="48.29184" lon="4.43106">
        <ele>167.41</ele>
        <time>2017-08-07T15:24:26Z</time>
      </trkpt>
      <trkpt lat="48.29148" lon="4.43057">
        <ele>167.89</ele>
        <time>2017-08-07T15:24:41Z</time>
      </trkpt>
      <trkpt lat="48.291" lon="4.42995">
        <ele>167.89</ele>
        <time>2017-08-07T15:24:58Z</time>
      </trkpt>
      <trkpt lat="48.29094" lon="4.42987">
        <ele>167.89</ele>
        <time>2017-08-07T15:25:00Z</time>
      </trkpt>
      <trkpt lat="48.29078" lon="4.42962">
        <ele>167.89</ele>
        <time>2017-08-07T15:25:05Z</time>
      </trkpt>
      <trkpt lat="48.29041" lon="4.4291">
        <ele>167.89</ele>
        <time>2017-08-07T15:25:15Z</time>
      </trkpt>
      <trkpt lat="48.28998" lon="4.42852">
        <ele>167.89</ele>
        <time>2017-08-07T15:25:26Z</time>
      </trkpt>
      <trkpt lat="48.28942" lon="4.42772">
        <ele>166.45</ele>
        <time>2017-08-07T15:25:42Z</time>
      </trkpt>
      <trkpt lat="48.28889" lon="4.42699">
        <ele>165.48</ele>
        <time>2017-08-07T15:25:57Z</time>
      </trkpt>
      <trkpt lat="48.28886" lon="4.42694">
        <ele>165.48</ele>
        <time>2017-08-07T15:25:58Z</time>
      </trkpt>
      <trkpt lat="48.28857" lon="4.42652">
        <ele>165</ele>
        <time>2017-08-07T15:26:06Z</time>
      </trkpt>
      <trkpt lat="48.28796" lon="4.42565">
        <ele>163.56</ele>
        <time>2017-08-07T15:26:22Z</time>
      </trkpt>
      <trkpt lat="48.28733" lon="4.42475">
        <ele>162.6</ele>
        <time>2017-08-07T15:26:38Z</time>
      </trkpt>
      <trkpt lat="48.28661" lon="4.42375">
        <ele>161.16</ele>
        <time>2017-08-07T15:26:55Z</time>
      </trkpt>
      <trkpt lat="48.28631" lon="4.42327">
        <ele>159.24</ele>
        <time>2017-08-07T15:27:02Z</time>
      </trkpt>
      <trkpt lat="48.28571" lon="4.42241">
        <ele>158.27</ele>
        <time>2017-08-07T15:27:15Z</time>
      </trkpt>
      <trkpt lat="48.28549" lon="4.42213">
        <ele>158.27</ele>
        <time>2017-08-07T15:27:20Z</time>
      </trkpt>
      <trkpt lat="48.28544" lon="4.42208">
        <ele>158.27</ele>
        <time>2017-08-07T15:27:21Z</time>
      </trkpt>
      <trkpt lat="48.28539" lon="4.42204">
        <ele>158.27</ele>
        <time>2017-08-07T15:27:22Z</time>
      </trkpt>
      <trkpt lat="48.28523" lon="4.42195">
        <ele>159.72</ele>
        <time>2017-08-07T15:27:25Z</time>
      </trkpt>
      <trkpt lat="48.28509" lon="4.42189">
        <ele>160.2</ele>
        <time>2017-08-07T15:27:28Z</time>
      </trkpt>
      <trkpt lat="48.28505" lon="4.42187">
        <ele>160.68</ele>
        <time>2017-08-07T15:27:29Z</time>
      </trkpt>
      <trkpt lat="48.28477" lon="4.42186">
        <ele>161.16</ele>
        <time>2017-08-07T15:27:35Z</time>
      </trkpt>
      <trkpt lat="48.28473" lon="4.42186">
        <ele>161.64</ele>
        <time>2017-08-07T15:27:36Z</time>
      </trkpt>
      <trkpt lat="48.28451" lon="4.42187">
        <ele>162.12</ele>
        <time>2017-08-07T15:27:41Z</time>
      </trkpt>
      <trkpt lat="48.28391" lon="4.4219">
        <ele>164.04</ele>
        <time>2017-08-07T15:27:57Z</time>
      </trkpt>
      <trkpt lat="48.28337" lon="4.42193">
        <ele>165.48</ele>
        <time>2017-08-07T15:28:12Z</time>
      </trkpt>
      <trkpt lat="48.28291" lon="4.42173">
        <ele>166.45</ele>
        <time>2017-08-07T15:28:25Z</time>
      </trkpt>
      <trkpt lat="48.28239" lon="4.42134">
        <ele>167.41</ele>
        <time>2017-08-07T15:28:40Z</time>
      </trkpt>
      <trkpt lat="48.28193" lon="4.42125">
        <ele>168.85</ele>
        <time>2017-08-07T15:28:53Z</time>
      </trkpt>
      <trkpt lat="48.28153" lon="4.42169">
        <ele>170.77</ele>
        <time>2017-08-07T15:29:09Z</time>
      </trkpt>
      <trkpt lat="48.28111" lon="4.42208">
        <ele>172.21</ele>
        <time>2017-08-07T15:29:25Z</time>
      </trkpt>
      <trkpt lat="48.28063" lon="4.42218">
        <ele>173.17</ele>
        <time>2017-08-07T15:29:39Z</time>
      </trkpt>
      <trkpt lat="48.2799" lon="4.42213">
        <ele>174.14</ele>
        <time>2017-08-07T15:29:58Z</time>
      </trkpt>
      <trkpt lat="48.27974" lon="4.42211">
        <ele>174.14</ele>
        <time>2017-08-07T15:30:02Z</time>
      </trkpt>
      <trkpt lat="48.27911" lon="4.42186">
        <ele>175.1</ele>
        <time>2017-08-07T15:30:19Z</time>
      </trkpt>
      <trkpt lat="48.27862" lon="4.42162">
        <ele>176.06</ele>
        <time>2017-08-07T15:30:34Z</time>
      </trkpt>
      <trkpt lat="48.27833" lon="4.42148">
        <ele>176.06</ele>
        <time>2017-08-07T15:30:46Z</time>
      </trkpt>
      <trkpt lat="48.27819" lon="4.42165">
        <ele>176.06</ele>
        <time>2017-08-07T15:30:57Z</time>
      </trkpt>
      <trkpt lat="48.27811" lon="4.42226">
        <ele>175.58</ele>
        <time>2017-08-07T15:31:11Z</time>
      </trkpt>
      <trkpt lat="48.27787" lon="4.42338">
        <ele>175.1</ele>
        <time>2017-08-07T15:31:28Z</time>
      </trkpt>
      <trkpt lat="48.27783" lon="4.42342">
        <ele>175.1</ele>
        <time>2017-08-07T15:31:29Z</time>
      </trkpt>
      <trkpt lat="48.27779" lon="4.42344">
        <ele>173.17</ele>
        <time>2017-08-07T15:31:30Z</time>
      </trkpt>
      <trkpt lat="48.27775" lon="4.42345">
        <ele>173.17</ele>
        <time>2017-08-07T15:31:31Z</time>
      </trkpt>
      <trkpt lat="48.27763" lon="4.42342">
        <ele>173.17</ele>
        <time>2017-08-07T15:31:34Z</time>
      </trkpt>
      <trkpt lat="48.27759" lon="4.42339">
        <ele>173.17</ele>
        <time>2017-08-07T15:31:35Z</time>
      </trkpt>
      <trkpt lat="48.27755" lon="4.42336">
        <ele>173.17</ele>
        <time>2017-08-07T15:31:36Z</time>
      </trkpt>
      <trkpt lat="48.27752" lon="4.42331">
        <ele>173.17</ele>
        <time>2017-08-07T15:31:37Z</time>
      </trkpt>
      <trkpt lat="48.27751" lon="4.42327">
        <ele>173.17</ele>
        <time>2017-08-07T15:31:38Z</time>
      </trkpt>
      <trkpt lat="48.27749" lon="4.42321">
        <ele>173.17</ele>
        <time>2017-08-07T15:31:39Z</time>
      </trkpt>
      <trkpt lat="48.27744" lon="4.42305">
        <ele>173.17</ele>
        <time>2017-08-07T15:31:42Z</time>
      </trkpt>
      <trkpt lat="48.27741" lon="4.423">
        <ele>173.17</ele>
        <time>2017-08-07T15:31:43Z</time>
      </trkpt>
      <trkpt lat="48.27739" lon="4.42297">
        <ele>173.17</ele>
        <time>2017-08-07T15:31:44Z</time>
      </trkpt>
      <trkpt lat="48.27736" lon="4.42293">
        <ele>173.17</ele>
        <time>2017-08-07T15:31:45Z</time>
      </trkpt>
      <trkpt lat="48.27722" lon="4.42287">
        <ele>173.17</ele>
        <time>2017-08-07T15:31:49Z</time>
      </trkpt>
      <trkpt lat="48.27715" lon="4.42288">
        <ele>173.17</ele>
        <time>2017-08-07T15:31:50Z</time>
      </trkpt>
      <trkpt lat="48.27669" lon="4.4229">
        <ele>173.17</ele>
        <time>2017-08-07T15:31:59Z</time>
      </trkpt>
      <trkpt lat="48.27664" lon="4.4229">
        <ele>173.17</ele>
        <time>2017-08-07T15:32:00Z</time>
      </trkpt>
      <trkpt lat="48.27572" lon="4.42291">
        <ele>171.25</ele>
        <time>2017-08-07T15:32:16Z</time>
      </trkpt>
      <trkpt lat="48.27478" lon="4.4229">
        <ele>169.33</ele>
        <time>2017-08-07T15:32:32Z</time>
      </trkpt>
      <trkpt lat="48.2746" lon="4.4229">
        <ele>169.33</ele>
        <time>2017-08-07T15:32:35Z</time>
      </trkpt>
      <trkpt lat="48.2739" lon="4.42273">
        <ele>168.85</ele>
        <time>2017-08-07T15:32:48Z</time>
      </trkpt>
      <trkpt lat="48.27347" lon="4.42255">
        <ele>168.85</ele>
        <time>2017-08-07T15:32:58Z</time>
      </trkpt>
      <trkpt lat="48.27331" lon="4.42247">
        <ele>170.29</ele>
        <time>2017-08-07T15:33:02Z</time>
      </trkpt>
      <trkpt lat="48.27327" lon="4.42246">
        <ele>170.29</ele>
        <time>2017-08-07T15:33:03Z</time>
      </trkpt>
      <trkpt lat="48.27273" lon="4.42213">
        <ele>170.77</ele>
        <time>2017-08-07T15:33:18Z</time>
      </trkpt>
      <trkpt lat="48.27218" lon="4.42164">
        <ele>169.81</ele>
        <time>2017-08-07T15:33:32Z</time>
      </trkpt>
      <trkpt lat="48.27214" lon="4.4216">
        <ele>169.81</ele>
        <time>2017-08-07T15:33:33Z</time>
      </trkpt>
      <trkpt lat="48.27159" lon="4.42107">
        <ele>168.85</ele>
        <time>2017-08-07T15:33:45Z</time>
      </trkpt>
      <trkpt lat="48.27116" lon="4.42026">
        <ele>168.85</ele>
        <time>2017-08-07T15:33:59Z</time>
      </trkpt>
      <trkpt lat="48.27081" lon="4.41978">
        <ele>170.29</ele>
        <time>2017-08-07T15:34:10Z</time>
      </trkpt>
      <trkpt lat="48.27068" lon="4.41962">
        <ele>170.29</ele>
        <time>2017-08-07T15:34:14Z</time>
      </trkpt>
      <trkpt lat="48.27065" lon="4.41958">
        <ele>170.29</ele>
        <time>2017-08-07T15:34:15Z</time>
      </trkpt>
      <trkpt lat="48.27062" lon="4.41954">
        <ele>170.29</ele>
        <time>2017-08-07T15:34:16Z</time>
      </trkpt>
      <trkpt lat="48.27059" lon="4.4195">
        <ele>170.29</ele>
        <time>2017-08-07T15:34:17Z</time>
      </trkpt>
      <trkpt lat="48.27056" lon="4.41946">
        <ele>170.77</ele>
        <time>2017-08-07T15:34:18Z</time>
      </trkpt>
      <trkpt lat="48.27022" lon="4.41902">
        <ele>169.33</ele>
        <time>2017-08-07T15:34:27Z</time>
      </trkpt>
      <trkpt lat="48.2701" lon="4.41886">
        <ele>168.85</ele>
        <time>2017-08-07T15:34:30Z</time>
      </trkpt>
      <trkpt lat="48.27007" lon="4.4188">
        <ele>168.37</ele>
        <time>2017-08-07T15:34:31Z</time>
      </trkpt>
      <trkpt lat="48.27005" lon="4.41875">
        <ele>168.37</ele>
        <time>2017-08-07T15:34:32Z</time>
      </trkpt>
      <trkpt lat="48.27005" lon="4.41869">
        <ele>168.37</ele>
        <time>2017-08-07T15:34:33Z</time>
      </trkpt>
      <trkpt lat="48.27005" lon="4.41864">
        <ele>168.37</ele>
        <time>2017-08-07T15:34:34Z</time>
      </trkpt>
      <trkpt lat="48.27007" lon="4.4186">
        <ele>168.37</ele>
        <time>2017-08-07T15:34:35Z</time>
      </trkpt>
      <trkpt lat="48.27009" lon="4.41858">
        <ele>168.37</ele>
        <time>2017-08-07T15:34:36Z</time>
      </trkpt>
      <trkpt lat="48.27021" lon="4.41844">
        <ele>169.81</ele>
        <time>2017-08-07T15:34:42Z</time>
      </trkpt>
      <trkpt lat="48.27052" lon="4.41808">
        <ele>171.25</ele>
        <time>2017-08-07T15:34:57Z</time>
      </trkpt>
      <trkpt lat="48.27085" lon="4.41769">
        <ele>171.73</ele>
        <time>2017-08-07T15:35:08Z</time>
      </trkpt>
      <trkpt lat="48.27121" lon="4.41725">
        <ele>169.81</ele>
        <time>2017-08-07T15:35:17Z</time>
      </trkpt>
      <trkpt lat="48.27124" lon="4.41721">
        <ele>169.81</ele>
        <time>2017-08-07T15:35:18Z</time>
      </trkpt>
      <trkpt lat="48.27135" lon="4.41695">
        <ele>168.85</ele>
        <time>2017-08-07T15:35:22Z</time>
      </trkpt>
      <trkpt lat="48.27175" lon="4.41579">
        <ele>165.96</ele>
        <time>2017-08-07T15:35:37Z</time>
      </trkpt>
      <trkpt lat="48.27191" lon="4.41542">
        <ele>164.52</ele>
        <time>2017-08-07T15:35:42Z</time>
      </trkpt>
      <trkpt lat="48.27194" lon="4.41536">
        <ele>164.52</ele>
        <time>2017-08-07T15:35:43Z</time>
      </trkpt>
      <trkpt lat="48.27196" lon="4.4153">
        <ele>164.52</ele>
        <time>2017-08-07T15:35:44Z</time>
      </trkpt>
      <trkpt lat="48.27203" lon="4.41494">
        <ele>163.56</ele>
        <time>2017-08-07T15:35:49Z</time>
      </trkpt>
      <trkpt lat="48.27203" lon="4.41486">
        <ele>163.08</ele>
        <time>2017-08-07T15:35:50Z</time>
      </trkpt>
      <trkpt lat="48.27203" lon="4.41477">
        <ele>163.08</ele>
        <time>2017-08-07T15:35:51Z</time>
      </trkpt>
      <trkpt lat="48.27202" lon="4.41469">
        <ele>163.08</ele>
        <time>2017-08-07T15:35:52Z</time>
      </trkpt>
      <trkpt lat="48.272" lon="4.4146">
        <ele>162.6</ele>
        <time>2017-08-07T15:35:53Z</time>
      </trkpt>
      <trkpt lat="48.27198" lon="4.41453">
        <ele>162.6</ele>
        <time>2017-08-07T15:35:54Z</time>
      </trkpt>
      <trkpt lat="48.27196" lon="4.41445">
        <ele>162.6</ele>
        <time>2017-08-07T15:35:55Z</time>
      </trkpt>
      <trkpt lat="48.27193" lon="4.41438">
        <ele>162.6</ele>
        <time>2017-08-07T15:35:56Z</time>
      </trkpt>
      <trkpt lat="48.27191" lon="4.41431">
        <ele>162.6</ele>
        <time>2017-08-07T15:35:57Z</time>
      </trkpt>
      <trkpt lat="48.27189" lon="4.41425">
        <ele>162.6</ele>
        <time>2017-08-07T15:35:58Z</time>
      </trkpt>
      <trkpt lat="48.27179" lon="4.41398">
        <ele>162.6</ele>
        <time>2017-08-07T15:36:02Z</time>
      </trkpt>
      <trkpt lat="48.2717" lon="4.4137">
        <ele>162.6</ele>
        <time>2017-08-07T15:36:06Z</time>
      </trkpt>
      <trkpt lat="48.2715" lon="4.4131">
        <ele>164.04</ele>
        <time>2017-08-07T15:36:15Z</time>
      </trkpt>
      <trkpt lat="48.27153" lon="4.41256">
        <ele>165</ele>
        <time>2017-08-07T15:36:25Z</time>
      </trkpt>
      <trkpt lat="48.27152" lon="4.41237">
        <ele>165.48</ele>
        <time>2017-08-07T15:36:29Z</time>
      </trkpt>
      <trkpt lat="48.27151" lon="4.41233">
        <ele>165.48</ele>
        <time>2017-08-07T15:36:30Z</time>
      </trkpt>
      <trkpt lat="48.27149" lon="4.4123">
        <ele>165.48</ele>
        <time>2017-08-07T15:36:31Z</time>
      </trkpt>
      <trkpt lat="48.27147" lon="4.41227">
        <ele>165.48</ele>
        <time>2017-08-07T15:36:32Z</time>
      </trkpt>
      <trkpt lat="48.27146" lon="4.41226">
        <ele>165.48</ele>
        <time>2017-08-07T15:36:33Z</time>
      </trkpt>
      <trkpt lat="48.27143" lon="4.41225">
        <ele>165.48</ele>
        <time>2017-08-07T15:36:34Z</time>
      </trkpt>
      <trkpt lat="48.27141" lon="4.41224">
        <ele>165.48</ele>
        <time>2017-08-07T15:36:35Z</time>
      </trkpt>
      <trkpt lat="48.27118" lon="4.41194">
        <ele>165.48</ele>
        <time>2017-08-07T15:36:48Z</time>
      </trkpt>
      <trkpt lat="48.27115" lon="4.41192">
        <ele>165.48</ele>
        <time>2017-08-07T15:36:49Z</time>
      </trkpt>
      <trkpt lat="48.27113" lon="4.41191">
        <ele>165.48</ele>
        <time>2017-08-07T15:36:50Z</time>
      </trkpt>
      <trkpt lat="48.27112" lon="4.41191">
        <ele>165.96</ele>
        <time>2017-08-07T15:37:00Z</time>
      </trkpt>
      <trkpt lat="48.27113" lon="4.4119">
        <ele>165.96</ele>
        <time>2017-08-07T15:37:20Z</time>
      </trkpt>
      <trkpt lat="48.27114" lon="4.4119">
        <ele>167.41</ele>
        <time>2017-08-07T15:37:30Z</time>
      </trkpt>
      <trkpt lat="48.27113" lon="4.41191">
        <ele>165.96</ele>
        <time>2017-08-07T15:37:32Z</time>
      </trkpt>
      <trkpt lat="48.27112" lon="4.4119">
        <ele>165.96</ele>
        <time>2017-08-07T15:37:49Z</time>
      </trkpt>
      <trkpt lat="48.27112" lon="4.41189">
        <ele>165.96</ele>
        <time>2017-08-07T15:38:16Z</time>
      </trkpt>
      <trkpt lat="48.27114" lon="4.41187">
        <ele>165.48</ele>
        <time>2017-08-07T15:38:33Z</time>
      </trkpt>
      <trkpt lat="48.27114" lon="4.41187">
        <ele>165</ele>
        <time>2017-08-07T15:38:59Z</time>
      </trkpt>
      <trkpt lat="48.27115" lon="4.41188">
        <ele>165</ele>
        <time>2017-08-07T15:39:24Z</time>
      </trkpt>
      <trkpt lat="48.27115" lon="4.41189">
        <ele>165</ele>
        <time>2017-08-07T15:39:49Z</time>
      </trkpt>
      <trkpt lat="48.27115" lon="4.4119">
        <ele>165</ele>
        <time>2017-08-07T15:40:11Z</time>
      </trkpt>
      <trkpt lat="48.27115" lon="4.41189">
        <ele>164.52</ele>
        <time>2017-08-07T15:40:35Z</time>
      </trkpt>
      <trkpt lat="48.27115" lon="4.41188">
        <ele>164.52</ele>
        <time>2017-08-07T15:41:00Z</time>
      </trkpt>
      <trkpt lat="48.27114" lon="4.41188">
        <ele>164.52</ele>
        <time>2017-08-07T15:41:27Z</time>
      </trkpt>
      <trkpt lat="48.27114" lon="4.41188">
        <ele>164.52</ele>
        <time>2017-08-07T15:41:48Z</time>
      </trkpt>
      <trkpt lat="48.27117" lon="4.41188">
        <ele>164.52</ele>
        <time>2017-08-07T15:42:22Z</time>
      </trkpt>
      <trkpt lat="48.27115" lon="4.41188">
        <ele>164.04</ele>
        <time>2017-08-07T15:42:48Z</time>
      </trkpt>
      <trkpt lat="48.27113" lon="4.41187">
        <ele>164.04</ele>
        <time>2017-08-07T15:43:15Z</time>
      </trkpt>
      <trkpt lat="48.27113" lon="4.41189">
        <ele>164.04</ele>
        <time>2017-08-07T15:43:44Z</time>
      </trkpt>
      <trkpt lat="48.27114" lon="4.41189">
        <ele>164.04</ele>
        <time>2017-08-07T15:44:14Z</time>
      </trkpt>
      <trkpt lat="48.27113" lon="4.41188">
        <ele>164.04</ele>
        <time>2017-08-07T15:44:42Z</time>
      </trkpt>
      <trkpt lat="48.27113" lon="4.41188">
        <ele>163.56</ele>
        <time>2017-08-07T15:45:05Z</time>
      </trkpt>
      <trkpt lat="48.27114" lon="4.41188">
        <ele>163.56</ele>
        <time>2017-08-07T15:45:29Z</time>
      </trkpt>
      <trkpt lat="48.27113" lon="4.41188">
        <ele>163.56</ele>
        <time>2017-08-07T15:45:56Z</time>
      </trkpt>
      <trkpt lat="48.27113" lon="4.41188">
        <ele>164.52</ele>
        <time>2017-08-07T15:46:21Z</time>
      </trkpt>
      <trkpt lat="48.27114" lon="4.41188">
        <ele>164.52</ele>
        <time>2017-08-07T15:46:40Z</time>
      </trkpt>
      <trkpt lat="48.27114" lon="4.41186">
        <ele>164.52</ele>
        <time>2017-08-07T15:47:16Z</time>
      </trkpt>
      <trkpt lat="48.27115" lon="4.41187">
        <ele>164.04</ele>
        <time>2017-08-07T15:47:50Z</time>
      </trkpt>
      <trkpt lat="48.27115" lon="4.41187">
        <ele>164.04</ele>
        <time>2017-08-07T15:48:22Z</time>
      </trkpt>
      <trkpt lat="48.27114" lon="4.41187">
        <ele>164.04</ele>
        <time>2017-08-07T15:48:50Z</time>
      </trkpt>
      <trkpt lat="48.27114" lon="4.41187">
        <ele>164.04</ele>
        <time>2017-08-07T15:49:23Z</time>
      </trkpt>
      <trkpt lat="48.27115" lon="4.41187">
        <ele>164.04</ele>
        <time>2017-08-07T15:49:46Z</time>
      </trkpt>
      <trkpt lat="48.27115" lon="4.41187">
        <ele>164.04</ele>
        <time>2017-08-07T15:49:51Z</time>
      </trkpt>
      <trkpt lat="48.27116" lon="4.41186">
        <ele>164.04</ele>
        <time>2017-08-07T15:49:52Z</time>
      </trkpt>
      <trkpt lat="48.27117" lon="4.41185">
        <ele>164.04</ele>
        <time>2017-08-07T15:49:53Z</time>
      </trkpt>
      <trkpt lat="48.27117" lon="4.41183">
        <ele>164.04</ele>
        <time>2017-08-07T15:49:54Z</time>
      </trkpt>
      <trkpt lat="48.27117" lon="4.41181">
        <ele>164.04</ele>
        <time>2017-08-07T15:49:55Z</time>
      </trkpt>
      <trkpt lat="48.27117" lon="4.41174">
        <ele>164.04</ele>
        <time>2017-08-07T15:49:58Z</time>
      </trkpt>
      <trkpt lat="48.27118" lon="4.41171">
        <ele>164.04</ele>
        <time>2017-08-07T15:50:07Z</time>
      </trkpt>
      <trkpt lat="48.27117" lon="4.4117">
        <ele>164.04</ele>
        <time>2017-08-07T15:50:08Z</time>
      </trkpt>
      <trkpt lat="48.27117" lon="4.41168">
        <ele>164.04</ele>
        <time>2017-08-07T15:50:09Z</time>
      </trkpt>
      <trkpt lat="48.27117" lon="4.41166">
        <ele>164.04</ele>
        <time>2017-08-07T15:50:10Z</time>
      </trkpt>
      <trkpt lat="48.27101" lon="4.41133">
        <ele>164.04</ele>
        <time>2017-08-07T15:50:21Z</time>
      </trkpt>
      <trkpt lat="48.27065" lon="4.41065">
        <ele>164.52</ele>
        <time>2017-08-07T15:50:38Z</time>
      </trkpt>
      <trkpt lat="48.27054" lon="4.41041">
        <ele>165</ele>
        <time>2017-08-07T15:50:44Z</time>
      </trkpt>
      <trkpt lat="48.27052" lon="4.4104">
        <ele>165.48</ele>
        <time>2017-08-07T15:50:45Z</time>
      </trkpt>
      <trkpt lat="48.27049" lon="4.4104">
        <ele>165.48</ele>
        <time>2017-08-07T15:50:46Z</time>
      </trkpt>
      <trkpt lat="48.27046" lon="4.4104">
        <ele>165.48</ele>
        <time>2017-08-07T15:50:47Z</time>
      </trkpt>
      <trkpt lat="48.27043" lon="4.41043">
        <ele>165.48</ele>
        <time>2017-08-07T15:50:48Z</time>
      </trkpt>
      <trkpt lat="48.2704" lon="4.41046">
        <ele>165.48</ele>
        <time>2017-08-07T15:50:49Z</time>
      </trkpt>
      <trkpt lat="48.27037" lon="4.41051">
        <ele>165.48</ele>
        <time>2017-08-07T15:50:50Z</time>
      </trkpt>
      <trkpt lat="48.27031" lon="4.41061">
        <ele>165.48</ele>
        <time>2017-08-07T15:50:52Z</time>
      </trkpt>
      <trkpt lat="48.27028" lon="4.41066">
        <ele>165.48</ele>
        <time>2017-08-07T15:50:53Z</time>
      </trkpt>
      <trkpt lat="48.27025" lon="4.41072">
        <ele>165.48</ele>
        <time>2017-08-07T15:50:54Z</time>
      </trkpt>
      <trkpt lat="48.27019" lon="4.41085">
        <ele>164.04</ele>
        <time>2017-08-07T15:50:56Z</time>
      </trkpt>
      <trkpt lat="48.26986" lon="4.41144">
        <ele>161.64</ele>
        <time>2017-08-07T15:51:05Z</time>
      </trkpt>
      <trkpt lat="48.26981" lon="4.41148">
        <ele>161.16</ele>
        <time>2017-08-07T15:51:06Z</time>
      </trkpt>
      <trkpt lat="48.26975" lon="4.41151">
        <ele>161.16</ele>
        <time>2017-08-07T15:51:07Z</time>
      </trkpt>
      <trkpt lat="48.26968" lon="4.41151">
        <ele>161.16</ele>
        <time>2017-08-07T15:51:08Z</time>
      </trkpt>
      <trkpt lat="48.26964" lon="4.4115">
        <ele>161.16</ele>
        <time>2017-08-07T15:51:09Z</time>
      </trkpt>
      <trkpt lat="48.26958" lon="4.41149">
        <ele>161.16</ele>
        <time>2017-08-07T15:51:10Z</time>
      </trkpt>
      <trkpt lat="48.26953" lon="4.41146">
        <ele>161.16</ele>
        <time>2017-08-07T15:51:11Z</time>
      </trkpt>
      <trkpt lat="48.26948" lon="4.41142">
        <ele>161.16</ele>
        <time>2017-08-07T15:51:12Z</time>
      </trkpt>
      <trkpt lat="48.26943" lon="4.41138">
        <ele>161.16</ele>
        <time>2017-08-07T15:51:13Z</time>
      </trkpt>
      <trkpt lat="48.26856" lon="4.41082">
        <ele>158.27</ele>
        <time>2017-08-07T15:51:28Z</time>
      </trkpt>
      <trkpt lat="48.26782" lon="4.41024">
        <ele>159.24</ele>
        <time>2017-08-07T15:51:41Z</time>
      </trkpt>
      <trkpt lat="48.26733" lon="4.40988">
        <ele>161.16</ele>
        <time>2017-08-07T15:51:54Z</time>
      </trkpt>
      <trkpt lat="48.26675" lon="4.40935">
        <ele>161.64</ele>
        <time>2017-08-07T15:52:10Z</time>
      </trkpt>
      <trkpt lat="48.26644" lon="4.40911">
        <ele>161.64</ele>
        <time>2017-08-07T15:52:17Z</time>
      </trkpt>
      <trkpt lat="48.26605" lon="4.40887">
        <ele>160.2</ele>
        <time>2017-08-07T15:52:25Z</time>
      </trkpt>
      <trkpt lat="48.26553" lon="4.40852">
        <ele>156.83</ele>
        <time>2017-08-07T15:52:34Z</time>
      </trkpt>
      <trkpt lat="48.26547" lon="4.40848">
        <ele>156.83</ele>
        <time>2017-08-07T15:52:35Z</time>
      </trkpt>
      <trkpt lat="48.26518" lon="4.40827">
        <ele>156.35</ele>
        <time>2017-08-07T15:52:40Z</time>
      </trkpt>
      <trkpt lat="48.26511" lon="4.40823">
        <ele>156.35</ele>
        <time>2017-08-07T15:52:41Z</time>
      </trkpt>
      <trkpt lat="48.26445" lon="4.40778">
        <ele>158.75</ele>
        <time>2017-08-07T15:52:56Z</time>
      </trkpt>
      <trkpt lat="48.26411" lon="4.40755">
        <ele>161.16</ele>
        <time>2017-08-07T15:53:11Z</time>
      </trkpt>
      <trkpt lat="48.26375" lon="4.40731">
        <ele>162.12</ele>
        <time>2017-08-07T15:53:27Z</time>
      </trkpt>
      <trkpt lat="48.2633" lon="4.40699">
        <ele>162.6</ele>
        <time>2017-08-07T15:53:42Z</time>
      </trkpt>
      <trkpt lat="48.26258" lon="4.40653">
        <ele>160.68</ele>
        <time>2017-08-07T15:53:56Z</time>
      </trkpt>
      <trkpt lat="48.2624" lon="4.40639">
        <ele>160.68</ele>
        <time>2017-08-07T15:53:59Z</time>
      </trkpt>
      <trkpt lat="48.26178" lon="4.40599">
        <ele>160.68</ele>
        <time>2017-08-07T15:54:10Z</time>
      </trkpt>
      <trkpt lat="48.26173" lon="4.40597">
        <ele>160.68</ele>
        <time>2017-08-07T15:54:11Z</time>
      </trkpt>
      <trkpt lat="48.26167" lon="4.40596">
        <ele>160.68</ele>
        <time>2017-08-07T15:54:12Z</time>
      </trkpt>
      <trkpt lat="48.26162" lon="4.40593">
        <ele>160.68</ele>
        <time>2017-08-07T15:54:13Z</time>
      </trkpt>
      <trkpt lat="48.26156" lon="4.40591">
        <ele>160.68</ele>
        <time>2017-08-07T15:54:14Z</time>
      </trkpt>
      <trkpt lat="48.26137" lon="4.40579">
        <ele>160.2</ele>
        <time>2017-08-07T15:54:18Z</time>
      </trkpt>
      <trkpt lat="48.26133" lon="4.40577">
        <ele>160.2</ele>
        <time>2017-08-07T15:54:19Z</time>
      </trkpt>
      <trkpt lat="48.26071" lon="4.4055">
        <ele>156.83</ele>
        <time>2017-08-07T15:54:31Z</time>
      </trkpt>
      <trkpt lat="48.26038" lon="4.4054">
        <ele>155.39</ele>
        <time>2017-08-07T15:54:39Z</time>
      </trkpt>
      <trkpt lat="48.26025" lon="4.40536">
        <ele>155.39</ele>
        <time>2017-08-07T15:54:42Z</time>
      </trkpt>
      <trkpt lat="48.26009" lon="4.40536">
        <ele>154.91</ele>
        <time>2017-08-07T15:54:45Z</time>
      </trkpt>
      <trkpt lat="48.26003" lon="4.40536">
        <ele>154.91</ele>
        <time>2017-08-07T15:54:46Z</time>
      </trkpt>
      <trkpt lat="48.25997" lon="4.40536">
        <ele>154.43</ele>
        <time>2017-08-07T15:54:47Z</time>
      </trkpt>
      <trkpt lat="48.25976" lon="4.40534">
        <ele>154.43</ele>
        <time>2017-08-07T15:54:51Z</time>
      </trkpt>
      <trkpt lat="48.25971" lon="4.40534">
        <ele>154.43</ele>
        <time>2017-08-07T15:54:52Z</time>
      </trkpt>
      <trkpt lat="48.25955" lon="4.40532">
        <ele>154.43</ele>
        <time>2017-08-07T15:54:55Z</time>
      </trkpt>
      <trkpt lat="48.25951" lon="4.40532">
        <ele>154.43</ele>
        <time>2017-08-07T15:54:56Z</time>
      </trkpt>
      <trkpt lat="48.25947" lon="4.40532">
        <ele>154.43</ele>
        <time>2017-08-07T15:54:57Z</time>
      </trkpt>
      <trkpt lat="48.25945" lon="4.40532">
        <ele>154.43</ele>
        <time>2017-08-07T15:54:58Z</time>
      </trkpt>
      <trkpt lat="48.25942" lon="4.40532">
        <ele>154.43</ele>
        <time>2017-08-07T15:54:59Z</time>
      </trkpt>
      <trkpt lat="48.25905" lon="4.40534">
        <ele>154.43</ele>
        <time>2017-08-07T15:55:10Z</time>
      </trkpt>
      <trkpt lat="48.25862" lon="4.40538">
        <ele>154.43</ele>
        <time>2017-08-07T15:55:22Z</time>
      </trkpt>
      <trkpt lat="48.2582" lon="4.40529">
        <ele>154.91</ele>
        <time>2017-08-07T15:55:32Z</time>
      </trkpt>
      <trkpt lat="48.25817" lon="4.40528">
        <ele>154.91</ele>
        <time>2017-08-07T15:55:33Z</time>
      </trkpt>
      <trkpt lat="48.25779" lon="4.40503">
        <ele>155.87</ele>
        <time>2017-08-07T15:55:48Z</time>
      </trkpt>
      <trkpt lat="48.25748" lon="4.40476">
        <ele>157.31</ele>
        <time>2017-08-07T15:56:03Z</time>
      </trkpt>
      <trkpt lat="48.25714" lon="4.40446">
        <ele>158.27</ele>
        <time>2017-08-07T15:56:19Z</time>
      </trkpt>
      <trkpt lat="48.25668" lon="4.40408">
        <ele>159.24</ele>
        <time>2017-08-07T15:56:37Z</time>
      </trkpt>
      <trkpt lat="48.25624" lon="4.40371">
        <ele>160.2</ele>
        <time>2017-08-07T15:56:55Z</time>
      </trkpt>
      <trkpt lat="48.25583" lon="4.4034">
        <ele>161.64</ele>
        <time>2017-08-07T15:57:14Z</time>
      </trkpt>
      <trkpt lat="48.25545" lon="4.40314">
        <ele>162.6</ele>
        <time>2017-08-07T15:57:30Z</time>
      </trkpt>
      <trkpt lat="48.25499" lon="4.40282">
        <ele>164.52</ele>
        <time>2017-08-07T15:57:47Z</time>
      </trkpt>
      <trkpt lat="48.25453" lon="4.40262">
        <ele>165.96</ele>
        <time>2017-08-07T15:58:04Z</time>
      </trkpt>
      <trkpt lat="48.25417" lon="4.40253">
        <ele>165.96</ele>
        <time>2017-08-07T15:58:17Z</time>
      </trkpt>
      <trkpt lat="48.25413" lon="4.40253">
        <ele>165.96</ele>
        <time>2017-08-07T15:58:18Z</time>
      </trkpt>
      <trkpt lat="48.25374" lon="4.40252">
        <ele>165.96</ele>
        <time>2017-08-07T15:58:26Z</time>
      </trkpt>
      <trkpt lat="48.25325" lon="4.40246">
        <ele>163.56</ele>
        <time>2017-08-07T15:58:35Z</time>
      </trkpt>
      <trkpt lat="48.25241" lon="4.40177">
        <ele>162.6</ele>
        <time>2017-08-07T15:58:50Z</time>
      </trkpt>
      <trkpt lat="48.25236" lon="4.40171">
        <ele>162.6</ele>
        <time>2017-08-07T15:58:51Z</time>
      </trkpt>
      <trkpt lat="48.25232" lon="4.40165">
        <ele>162.6</ele>
        <time>2017-08-07T15:58:52Z</time>
      </trkpt>
      <trkpt lat="48.25203" lon="4.40121">
        <ele>162.6</ele>
        <time>2017-08-07T15:58:59Z</time>
      </trkpt>
      <trkpt lat="48.25195" lon="4.4011">
        <ele>162.6</ele>
        <time>2017-08-07T15:59:01Z</time>
      </trkpt>
      <trkpt lat="48.25147" lon="4.40008">
        <ele>162.6</ele>
        <time>2017-08-07T15:59:17Z</time>
      </trkpt>
      <trkpt lat="48.2511" lon="4.39907">
        <ele>164.04</ele>
        <time>2017-08-07T15:59:32Z</time>
      </trkpt>
      <trkpt lat="48.25106" lon="4.39901">
        <ele>164.04</ele>
        <time>2017-08-07T15:59:33Z</time>
      </trkpt>
      <trkpt lat="48.25068" lon="4.39859">
        <ele>161.16</ele>
        <time>2017-08-07T15:59:40Z</time>
      </trkpt>
      <trkpt lat="48.25063" lon="4.39853">
        <ele>160.68</ele>
        <time>2017-08-07T15:59:41Z</time>
      </trkpt>
      <trkpt lat="48.24966" lon="4.39759">
        <ele>159.24</ele>
        <time>2017-08-07T15:59:57Z</time>
      </trkpt>
      <trkpt lat="48.24938" lon="4.3973">
        <ele>160.2</ele>
        <time>2017-08-07T16:00:03Z</time>
      </trkpt>
      <trkpt lat="48.24899" lon="4.39693">
        <ele>163.56</ele>
        <time>2017-08-07T16:00:16Z</time>
      </trkpt>
      <trkpt lat="48.24863" lon="4.39657">
        <ele>165</ele>
        <time>2017-08-07T16:00:34Z</time>
      </trkpt>
      <trkpt lat="48.24832" lon="4.3962">
        <ele>166.45</ele>
        <time>2017-08-07T16:00:49Z</time>
      </trkpt>
      <trkpt lat="48.24797" lon="4.39569">
        <ele>166.93</ele>
        <time>2017-08-07T16:01:03Z</time>
      </trkpt>
      <trkpt lat="48.24783" lon="4.39549">
        <ele>166.93</ele>
        <time>2017-08-07T16:01:08Z</time>
      </trkpt>
      <trkpt lat="48.24777" lon="4.39541">
        <ele>166.93</ele>
        <time>2017-08-07T16:01:10Z</time>
      </trkpt>
      <trkpt lat="48.24749" lon="4.39509">
        <ele>166.93</ele>
        <time>2017-08-07T16:01:18Z</time>
      </trkpt>
      <trkpt lat="48.24711" lon="4.3947">
        <ele>166.93</ele>
        <time>2017-08-07T16:01:28Z</time>
      </trkpt>
      <trkpt lat="48.2464" lon="4.39413">
        <ele>165.48</ele>
        <time>2017-08-07T16:01:43Z</time>
      </trkpt>
      <trkpt lat="48.24586" lon="4.39377">
        <ele>161.64</ele>
        <time>2017-08-07T16:01:51Z</time>
      </trkpt>
      <trkpt lat="48.24547" lon="4.39352">
        <ele>159.72</ele>
        <time>2017-08-07T16:01:56Z</time>
      </trkpt>
      <trkpt lat="48.24438" lon="4.39283">
        <ele>157.79</ele>
        <time>2017-08-07T16:02:11Z</time>
      </trkpt>
      <trkpt lat="48.24378" lon="4.39243">
        <ele>159.24</ele>
        <time>2017-08-07T16:02:23Z</time>
      </trkpt>
      <trkpt lat="48.24328" lon="4.39205">
        <ele>162.6</ele>
        <time>2017-08-07T16:02:39Z</time>
      </trkpt>
      <trkpt lat="48.24285" lon="4.39175">
        <ele>165</ele>
        <time>2017-08-07T16:02:54Z</time>
      </trkpt>
      <trkpt lat="48.2423" lon="4.39135">
        <ele>165.48</ele>
        <time>2017-08-07T16:03:10Z</time>
      </trkpt>
      <trkpt lat="48.24213" lon="4.39118">
        <ele>165.48</ele>
        <time>2017-08-07T16:03:14Z</time>
      </trkpt>
      <trkpt lat="48.24204" lon="4.3911">
        <ele>164.04</ele>
        <time>2017-08-07T16:03:16Z</time>
      </trkpt>
      <trkpt lat="48.2417" lon="4.39078">
        <ele>163.56</ele>
        <time>2017-08-07T16:03:24Z</time>
      </trkpt>
      <trkpt lat="48.24166" lon="4.39074">
        <ele>163.56</ele>
        <time>2017-08-07T16:03:25Z</time>
      </trkpt>
      <trkpt lat="48.24114" lon="4.39022">
        <ele>163.56</ele>
        <time>2017-08-07T16:03:39Z</time>
      </trkpt>
      <trkpt lat="48.24055" lon="4.38962">
        <ele>165</ele>
        <time>2017-08-07T16:03:57Z</time>
      </trkpt>
      <trkpt lat="48.24045" lon="4.38953">
        <ele>165.96</ele>
        <time>2017-08-07T16:04:01Z</time>
      </trkpt>
      <trkpt lat="48.24042" lon="4.38954">
        <ele>166.45</ele>
        <time>2017-08-07T16:04:02Z</time>
      </trkpt>
      <trkpt lat="48.2404" lon="4.38955">
        <ele>165.96</ele>
        <time>2017-08-07T16:04:03Z</time>
      </trkpt>
      <trkpt lat="48.24037" lon="4.38957">
        <ele>165.96</ele>
        <time>2017-08-07T16:04:04Z</time>
      </trkpt>
      <trkpt lat="48.24034" lon="4.3896">
        <ele>165.96</ele>
        <time>2017-08-07T16:04:05Z</time>
      </trkpt>
      <trkpt lat="48.24032" lon="4.38963">
        <ele>165.96</ele>
        <time>2017-08-07T16:04:06Z</time>
      </trkpt>
      <trkpt lat="48.24028" lon="4.38968">
        <ele>165.96</ele>
        <time>2017-08-07T16:04:07Z</time>
      </trkpt>
      <trkpt lat="48.24006" lon="4.39">
        <ele>165</ele>
        <time>2017-08-07T16:04:13Z</time>
      </trkpt>
      <trkpt lat="48.23943" lon="4.39101">
        <ele>165.96</ele>
        <time>2017-08-07T16:04:31Z</time>
      </trkpt>
      <trkpt lat="48.23913" lon="4.39229">
        <ele>163.56</ele>
        <time>2017-08-07T16:04:46Z</time>
      </trkpt>
      <trkpt lat="48.23877" lon="4.39355">
        <ele>162.12</ele>
        <time>2017-08-07T16:05:00Z</time>
      </trkpt>
      <trkpt lat="48.23827" lon="4.39476">
        <ele>161.16</ele>
        <time>2017-08-07T16:05:15Z</time>
      </trkpt>
      <trkpt lat="48.23777" lon="4.39623">
        <ele>158.75</ele>
        <time>2017-08-07T16:05:33Z</time>
      </trkpt>
      <trkpt lat="48.23775" lon="4.39626">
        <ele>158.75</ele>
        <time>2017-08-07T16:05:34Z</time>
      </trkpt>
      <trkpt lat="48.23771" lon="4.39627">
        <ele>158.75</ele>
        <time>2017-08-07T16:05:35Z</time>
      </trkpt>
      <trkpt lat="48.23766" lon="4.39623">
        <ele>158.75</ele>
        <time>2017-08-07T16:05:37Z</time>
      </trkpt>
      <trkpt lat="48.23764" lon="4.39618">
        <ele>158.75</ele>
        <time>2017-08-07T16:05:38Z</time>
      </trkpt>
      <trkpt lat="48.23763" lon="4.39613">
        <ele>158.75</ele>
        <time>2017-08-07T16:05:39Z</time>
      </trkpt>
      <trkpt lat="48.23762" lon="4.39607">
        <ele>158.27</ele>
        <time>2017-08-07T16:05:40Z</time>
      </trkpt>
      <trkpt lat="48.23747" lon="4.39552">
        <ele>158.27</ele>
        <time>2017-08-07T16:05:48Z</time>
      </trkpt>
      <trkpt lat="48.2374" lon="4.3953">
        <ele>157.79</ele>
        <time>2017-08-07T16:05:51Z</time>
      </trkpt>
      <trkpt lat="48.23739" lon="4.39522">
        <ele>157.79</ele>
        <time>2017-08-07T16:05:52Z</time>
      </trkpt>
      <trkpt lat="48.23728" lon="4.3949">
        <ele>157.79</ele>
        <time>2017-08-07T16:05:58Z</time>
      </trkpt>
      <trkpt lat="48.23724" lon="4.39488">
        <ele>157.79</ele>
        <time>2017-08-07T16:05:59Z</time>
      </trkpt>
      <trkpt lat="48.2372" lon="4.39489">
        <ele>157.79</ele>
        <time>2017-08-07T16:06:00Z</time>
      </trkpt>
      <trkpt lat="48.23716" lon="4.39491">
        <ele>157.31</ele>
        <time>2017-08-07T16:06:01Z</time>
      </trkpt>
      <trkpt lat="48.23712" lon="4.39492">
        <ele>157.31</ele>
        <time>2017-08-07T16:06:02Z</time>
      </trkpt>
      <trkpt lat="48.23707" lon="4.39492">
        <ele>157.31</ele>
        <time>2017-08-07T16:06:03Z</time>
      </trkpt>
      <trkpt lat="48.23703" lon="4.39491">
        <ele>157.31</ele>
        <time>2017-08-07T16:06:04Z</time>
      </trkpt>
      <trkpt lat="48.23626" lon="4.3947">
        <ele>153.95</ele>
        <time>2017-08-07T16:06:16Z</time>
      </trkpt>
      <trkpt lat="48.23543" lon="4.39434">
        <ele>152.51</ele>
        <time>2017-08-07T16:06:28Z</time>
      </trkpt>
      <trkpt lat="48.23524" lon="4.39422">
        <ele>153.47</ele>
        <time>2017-08-07T16:06:35Z</time>
      </trkpt>
      <trkpt lat="48.2352" lon="4.39422">
        <ele>153.47</ele>
        <time>2017-08-07T16:06:36Z</time>
      </trkpt>
      <trkpt lat="48.2346" lon="4.39425">
        <ele>150.58</ele>
        <time>2017-08-07T16:06:45Z</time>
      </trkpt>
      <trkpt lat="48.23454" lon="4.39423">
        <ele>150.58</ele>
        <time>2017-08-07T16:06:46Z</time>
      </trkpt>
      <trkpt lat="48.23447" lon="4.3942">
        <ele>150.58</ele>
        <time>2017-08-07T16:06:47Z</time>
      </trkpt>
      <trkpt lat="48.23441" lon="4.39416">
        <ele>150.58</ele>
        <time>2017-08-07T16:06:48Z</time>
      </trkpt>
      <trkpt lat="48.23434" lon="4.39412">
        <ele>150.58</ele>
        <time>2017-08-07T16:06:49Z</time>
      </trkpt>
      <trkpt lat="48.23417" lon="4.394">
        <ele>150.58</ele>
        <time>2017-08-07T16:06:52Z</time>
      </trkpt>
      <trkpt lat="48.23411" lon="4.39397">
        <ele>150.58</ele>
        <time>2017-08-07T16:06:53Z</time>
      </trkpt>
      <trkpt lat="48.23404" lon="4.39396">
        <ele>150.58</ele>
        <time>2017-08-07T16:06:54Z</time>
      </trkpt>
      <trkpt lat="48.23397" lon="4.39395">
        <ele>150.58</ele>
        <time>2017-08-07T16:06:55Z</time>
      </trkpt>
      <trkpt lat="48.23389" lon="4.39395">
        <ele>150.58</ele>
        <time>2017-08-07T16:06:56Z</time>
      </trkpt>
      <trkpt lat="48.23382" lon="4.39396">
        <ele>150.58</ele>
        <time>2017-08-07T16:06:57Z</time>
      </trkpt>
      <trkpt lat="48.23376" lon="4.39396">
        <ele>150.58</ele>
        <time>2017-08-07T16:06:58Z</time>
      </trkpt>
      <trkpt lat="48.23296" lon="4.3941">
        <ele>150.58</ele>
        <time>2017-08-07T16:07:10Z</time>
      </trkpt>
      <trkpt lat="48.23182" lon="4.39407">
        <ele>149.62</ele>
        <time>2017-08-07T16:07:27Z</time>
      </trkpt>
      <trkpt lat="48.23077" lon="4.39364">
        <ele>149.14</ele>
        <time>2017-08-07T16:07:43Z</time>
      </trkpt>
      <trkpt lat="48.2307" lon="4.39366">
        <ele>148.66</ele>
        <time>2017-08-07T16:07:44Z</time>
      </trkpt>
      <trkpt lat="48.23066" lon="4.39369">
        <ele>148.66</ele>
        <time>2017-08-07T16:07:45Z</time>
      </trkpt>
      <trkpt lat="48.23061" lon="4.39375">
        <ele>147.7</ele>
        <time>2017-08-07T16:07:46Z</time>
      </trkpt>
      <trkpt lat="48.23057" lon="4.3938">
        <ele>147.22</ele>
        <time>2017-08-07T16:07:47Z</time>
      </trkpt>
      <trkpt lat="48.23053" lon="4.39387">
        <ele>147.22</ele>
        <time>2017-08-07T16:07:48Z</time>
      </trkpt>
      <trkpt lat="48.23018" lon="4.39443">
        <ele>145.3</ele>
        <time>2017-08-07T16:07:56Z</time>
      </trkpt>
      <trkpt lat="48.23013" lon="4.39448">
        <ele>145.3</ele>
        <time>2017-08-07T16:07:57Z</time>
      </trkpt>
      <trkpt lat="48.23008" lon="4.39451">
        <ele>144.82</ele>
        <time>2017-08-07T16:07:58Z</time>
      </trkpt>
      <trkpt lat="48.22992" lon="4.39457">
        <ele>144.82</ele>
        <time>2017-08-07T16:08:01Z</time>
      </trkpt>
      <trkpt lat="48.22987" lon="4.39457">
        <ele>144.82</ele>
        <time>2017-08-07T16:08:02Z</time>
      </trkpt>
      <trkpt lat="48.22982" lon="4.39457">
        <ele>144.82</ele>
        <time>2017-08-07T16:08:03Z</time>
      </trkpt>
      <trkpt lat="48.22978" lon="4.39454">
        <ele>145.3</ele>
        <time>2017-08-07T16:08:04Z</time>
      </trkpt>
      <trkpt lat="48.22976" lon="4.3945">
        <ele>145.3</ele>
        <time>2017-08-07T16:08:05Z</time>
      </trkpt>
      <trkpt lat="48.22974" lon="4.39445">
        <ele>145.3</ele>
        <time>2017-08-07T16:08:06Z</time>
      </trkpt>
      <trkpt lat="48.22973" lon="4.39439">
        <ele>145.3</ele>
        <time>2017-08-07T16:08:07Z</time>
      </trkpt>
      <trkpt lat="48.22972" lon="4.39432">
        <ele>145.3</ele>
        <time>2017-08-07T16:08:08Z</time>
      </trkpt>
      <trkpt lat="48.22972" lon="4.39426">
        <ele>144.82</ele>
        <time>2017-08-07T16:08:09Z</time>
      </trkpt>
      <trkpt lat="48.2297" lon="4.39405">
        <ele>144.82</ele>
        <time>2017-08-07T16:08:12Z</time>
      </trkpt>
      <trkpt lat="48.22968" lon="4.39391">
        <ele>144.82</ele>
        <time>2017-08-07T16:08:14Z</time>
      </trkpt>
      <trkpt lat="48.22965" lon="4.3936">
        <ele>146.26</ele>
        <time>2017-08-07T16:08:19Z</time>
      </trkpt>
      <trkpt lat="48.22959" lon="4.39293">
        <ele>148.18</ele>
        <time>2017-08-07T16:08:34Z</time>
      </trkpt>
      <trkpt lat="48.22948" lon="4.39222">
        <ele>149.14</ele>
        <time>2017-08-07T16:08:49Z</time>
      </trkpt>
      <trkpt lat="48.2293" lon="4.39101">
        <ele>149.14</ele>
        <time>2017-08-07T16:09:07Z</time>
      </trkpt>
      <trkpt lat="48.22912" lon="4.38975">
        <ele>149.62</ele>
        <time>2017-08-07T16:09:26Z</time>
      </trkpt>
      <trkpt lat="48.22896" lon="4.38869">
        <ele>151.06</ele>
        <time>2017-08-07T16:09:44Z</time>
      </trkpt>
      <trkpt lat="48.2288" lon="4.38763">
        <ele>151.06</ele>
        <time>2017-08-07T16:10:01Z</time>
      </trkpt>
      <trkpt lat="48.22867" lon="4.3867">
        <ele>151.06</ele>
        <time>2017-08-07T16:10:15Z</time>
      </trkpt>
      <trkpt lat="48.22849" lon="4.38554">
        <ele>151.06</ele>
        <time>2017-08-07T16:10:31Z</time>
      </trkpt>
      <trkpt lat="48.22836" lon="4.38468">
        <ele>152.51</ele>
        <time>2017-08-07T16:10:45Z</time>
      </trkpt>
      <trkpt lat="48.22817" lon="4.38367">
        <ele>153.47</ele>
        <time>2017-08-07T16:11:03Z</time>
      </trkpt>
      <trkpt lat="48.22816" lon="4.38361">
        <ele>153.47</ele>
        <time>2017-08-07T16:11:04Z</time>
      </trkpt>
      <trkpt lat="48.22803" lon="4.38287">
        <ele>153.95</ele>
        <time>2017-08-07T16:11:16Z</time>
      </trkpt>
      <trkpt lat="48.22801" lon="4.38282">
        <ele>153.95</ele>
        <time>2017-08-07T16:11:17Z</time>
      </trkpt>
      <trkpt lat="48.228" lon="4.38276">
        <ele>153.95</ele>
        <time>2017-08-07T16:11:18Z</time>
      </trkpt>
      <trkpt lat="48.22785" lon="4.38193">
        <ele>155.39</ele>
        <time>2017-08-07T16:11:32Z</time>
      </trkpt>
      <trkpt lat="48.22773" lon="4.38127">
        <ele>157.31</ele>
        <time>2017-08-07T16:11:47Z</time>
      </trkpt>
      <trkpt lat="48.2276" lon="4.38059">
        <ele>159.72</ele>
        <time>2017-08-07T16:12:04Z</time>
      </trkpt>
      <trkpt lat="48.22746" lon="4.37983">
        <ele>161.16</ele>
        <time>2017-08-07T16:12:23Z</time>
      </trkpt>
      <trkpt lat="48.22733" lon="4.3791">
        <ele>162.12</ele>
        <time>2017-08-07T16:12:40Z</time>
      </trkpt>
      <trkpt lat="48.22724" lon="4.37849">
        <ele>162.12</ele>
        <time>2017-08-07T16:12:50Z</time>
      </trkpt>
      <trkpt lat="48.22722" lon="4.37834">
        <ele>160.68</ele>
        <time>2017-08-07T16:12:52Z</time>
      </trkpt>
      <trkpt lat="48.22721" lon="4.37826">
        <ele>160.2</ele>
        <time>2017-08-07T16:12:53Z</time>
      </trkpt>
      <trkpt lat="48.22721" lon="4.37818">
        <ele>160.2</ele>
        <time>2017-08-07T16:12:54Z</time>
      </trkpt>
      <trkpt lat="48.22716" lon="4.37743">
        <ele>157.79</ele>
        <time>2017-08-07T16:13:05Z</time>
      </trkpt>
      <trkpt lat="48.22702" lon="4.37735">
        <ele>157.31</ele>
        <time>2017-08-07T16:13:10Z</time>
      </trkpt>
      <trkpt lat="48.22645" lon="4.3772">
        <ele>153.95</ele>
        <time>2017-08-07T16:13:19Z</time>
      </trkpt>
      <trkpt lat="48.22611" lon="4.37705">
        <ele>152.03</ele>
        <time>2017-08-07T16:13:23Z</time>
      </trkpt>
      <trkpt lat="48.22563" lon="4.37682">
        <ele>148.66</ele>
        <time>2017-08-07T16:13:28Z</time>
      </trkpt>
      <trkpt lat="48.22402" lon="4.37607">
        <ele>145.78</ele>
        <time>2017-08-07T16:13:45Z</time>
      </trkpt>
      <trkpt lat="48.22262" lon="4.37541">
        <ele>144.34</ele>
        <time>2017-08-07T16:14:02Z</time>
      </trkpt>
      <trkpt lat="48.2218" lon="4.37503">
        <ele>141.93</ele>
        <time>2017-08-07T16:14:12Z</time>
      </trkpt>
      <trkpt lat="48.22073" lon="4.37453">
        <ele>138.57</ele>
        <time>2017-08-07T16:14:24Z</time>
      </trkpt>
      <trkpt lat="48.21941" lon="4.37392">
        <ele>138.57</ele>
        <time>2017-08-07T16:14:41Z</time>
      </trkpt>
      <trkpt lat="48.21853" lon="4.37352">
        <ele>140.01</ele>
        <time>2017-08-07T16:14:56Z</time>
      </trkpt>
      <trkpt lat="48.21742" lon="4.37301">
        <ele>140.01</ele>
        <time>2017-08-07T16:15:18Z</time>
      </trkpt>
      <trkpt lat="48.21655" lon="4.37261">
        <ele>140.97</ele>
        <time>2017-08-07T16:15:38Z</time>
      </trkpt>
      <trkpt lat="48.21583" lon="4.37226">
        <ele>142.41</ele>
        <time>2017-08-07T16:15:56Z</time>
      </trkpt>
      <trkpt lat="48.2152" lon="4.37197">
        <ele>144.82</ele>
        <time>2017-08-07T16:16:14Z</time>
      </trkpt>
      <trkpt lat="48.21463" lon="4.37172">
        <ele>147.22</ele>
        <time>2017-08-07T16:16:33Z</time>
      </trkpt>
      <trkpt lat="48.2141" lon="4.37148">
        <ele>150.1</ele>
        <time>2017-08-07T16:16:53Z</time>
      </trkpt>
      <trkpt lat="48.21368" lon="4.37119">
        <ele>152.03</ele>
        <time>2017-08-07T16:17:12Z</time>
      </trkpt>
      <trkpt lat="48.21345" lon="4.37059">
        <ele>153.95</ele>
        <time>2017-08-07T16:17:30Z</time>
      </trkpt>
      <trkpt lat="48.21323" lon="4.36981">
        <ele>155.87</ele>
        <time>2017-08-07T16:17:49Z</time>
      </trkpt>
      <trkpt lat="48.21314" lon="4.36951">
        <ele>155.87</ele>
        <time>2017-08-07T16:17:55Z</time>
      </trkpt>
      <trkpt lat="48.21295" lon="4.36879">
        <ele>156.35</ele>
        <time>2017-08-07T16:18:08Z</time>
      </trkpt>
      <trkpt lat="48.21276" lon="4.36837">
        <ele>157.79</ele>
        <time>2017-08-07T16:18:18Z</time>
      </trkpt>
      <trkpt lat="48.21271" lon="4.36836">
        <ele>157.79</ele>
        <time>2017-08-07T16:18:20Z</time>
      </trkpt>
      <trkpt lat="48.21269" lon="4.36838">
        <ele>158.27</ele>
        <time>2017-08-07T16:18:21Z</time>
      </trkpt>
      <trkpt lat="48.21266" lon="4.3684">
        <ele>158.27</ele>
        <time>2017-08-07T16:18:22Z</time>
      </trkpt>
      <trkpt lat="48.21264" lon="4.36842">
        <ele>158.27</ele>
        <time>2017-08-07T16:18:23Z</time>
      </trkpt>
      <trkpt lat="48.21261" lon="4.36845">
        <ele>158.27</ele>
        <time>2017-08-07T16:18:24Z</time>
      </trkpt>
      <trkpt lat="48.21258" lon="4.36847">
        <ele>158.27</ele>
        <time>2017-08-07T16:18:25Z</time>
      </trkpt>
      <trkpt lat="48.21214" lon="4.36884">
        <ele>159.24</ele>
        <time>2017-08-07T16:18:41Z</time>
      </trkpt>
      <trkpt lat="48.21168" lon="4.36919">
        <ele>160.2</ele>
        <time>2017-08-07T16:18:57Z</time>
      </trkpt>
      <trkpt lat="48.21131" lon="4.36947">
        <ele>162.12</ele>
        <time>2017-08-07T16:19:11Z</time>
      </trkpt>
      <trkpt lat="48.21087" lon="4.36982">
        <ele>164.04</ele>
        <time>2017-08-07T16:19:29Z</time>
      </trkpt>
      <trkpt lat="48.21044" lon="4.37015">
        <ele>165.96</ele>
        <time>2017-08-07T16:19:46Z</time>
      </trkpt>
      <trkpt lat="48.20992" lon="4.37053">
        <ele>166.93</ele>
        <time>2017-08-07T16:20:04Z</time>
      </trkpt>
      <trkpt lat="48.2094" lon="4.37093">
        <ele>168.37</ele>
        <time>2017-08-07T16:20:22Z</time>
      </trkpt>
      <trkpt lat="48.20905" lon="4.37121">
        <ele>169.33</ele>
        <time>2017-08-07T16:20:35Z</time>
      </trkpt>
      <trkpt lat="48.20859" lon="4.37154">
        <ele>170.29</ele>
        <time>2017-08-07T16:20:50Z</time>
      </trkpt>
      <trkpt lat="48.20797" lon="4.37197">
        <ele>171.73</ele>
        <time>2017-08-07T16:21:10Z</time>
      </trkpt>
      <trkpt lat="48.2075" lon="4.3723">
        <ele>173.17</ele>
        <time>2017-08-07T16:21:26Z</time>
      </trkpt>
      <trkpt lat="48.20703" lon="4.37265">
        <ele>174.14</ele>
        <time>2017-08-07T16:21:41Z</time>
      </trkpt>
      <trkpt lat="48.20632" lon="4.37317">
        <ele>175.1</ele>
        <time>2017-08-07T16:22:02Z</time>
      </trkpt>
      <trkpt lat="48.20563" lon="4.37366">
        <ele>176.06</ele>
        <time>2017-08-07T16:22:22Z</time>
      </trkpt>
      <trkpt lat="48.20506" lon="4.37407">
        <ele>177.98</ele>
        <time>2017-08-07T16:22:42Z</time>
      </trkpt>
      <trkpt lat="48.20461" lon="4.3744">
        <ele>180.38</ele>
        <time>2017-08-07T16:23:03Z</time>
      </trkpt>
      <trkpt lat="48.20423" lon="4.37467">
        <ele>182.79</ele>
        <time>2017-08-07T16:23:21Z</time>
      </trkpt>
      <trkpt lat="48.20389" lon="4.37493">
        <ele>184.71</ele>
        <time>2017-08-07T16:23:37Z</time>
      </trkpt>
      <trkpt lat="48.20357" lon="4.37526">
        <ele>186.15</ele>
        <time>2017-08-07T16:23:53Z</time>
      </trkpt>
      <trkpt lat="48.20327" lon="4.37589">
        <ele>185.19</ele>
        <time>2017-08-07T16:24:06Z</time>
      </trkpt>
      <trkpt lat="48.20304" lon="4.3765">
        <ele>182.31</ele>
        <time>2017-08-07T16:24:16Z</time>
      </trkpt>
      <trkpt lat="48.20301" lon="4.3765">
        <ele>182.79</ele>
        <time>2017-08-07T16:24:17Z</time>
      </trkpt>
      <trkpt lat="48.20291" lon="4.37636">
        <ele>182.31</ele>
        <time>2017-08-07T16:24:23Z</time>
      </trkpt>
      <trkpt lat="48.20288" lon="4.37625">
        <ele>183.75</ele>
        <time>2017-08-07T16:24:27Z</time>
      </trkpt>
      <trkpt lat="48.20276" lon="4.37584">
        <ele>186.15</ele>
        <time>2017-08-07T16:24:41Z</time>
      </trkpt>
      <trkpt lat="48.2026" lon="4.37541">
        <ele>188.08</ele>
        <time>2017-08-07T16:24:57Z</time>
      </trkpt>
      <trkpt lat="48.20233" lon="4.37479">
        <ele>188.56</ele>
        <time>2017-08-07T16:25:15Z</time>
      </trkpt>
      <trkpt lat="48.2021" lon="4.37418">
        <ele>189.52</ele>
        <time>2017-08-07T16:25:31Z</time>
      </trkpt>
      <trkpt lat="48.20179" lon="4.37364">
        <ele>190.48</ele>
        <time>2017-08-07T16:25:45Z</time>
      </trkpt>
      <trkpt lat="48.20158" lon="4.3734">
        <ele>189.04</ele>
        <time>2017-08-07T16:25:51Z</time>
      </trkpt>
      <trkpt lat="48.20144" lon="4.37312">
        <ele>188.56</ele>
        <time>2017-08-07T16:25:56Z</time>
      </trkpt>
      <trkpt lat="48.201" lon="4.37221">
        <ele>187.11</ele>
        <time>2017-08-07T16:26:12Z</time>
      </trkpt>
      <trkpt lat="48.20041" lon="4.37102">
        <ele>185.67</ele>
        <time>2017-08-07T16:26:30Z</time>
      </trkpt>
      <trkpt lat="48.20025" lon="4.37069">
        <ele>185.67</ele>
        <time>2017-08-07T16:26:35Z</time>
      </trkpt>
      <trkpt lat="48.19993" lon="4.36993">
        <ele>185.19</ele>
        <time>2017-08-07T16:26:47Z</time>
      </trkpt>
      <trkpt lat="48.19952" lon="4.36918">
        <ele>185.19</ele>
        <time>2017-08-07T16:27:01Z</time>
      </trkpt>
      <trkpt lat="48.19942" lon="4.36898">
        <ele>185.19</ele>
        <time>2017-08-07T16:27:05Z</time>
      </trkpt>
      <trkpt lat="48.19931" lon="4.36878">
        <ele>186.63</ele>
        <time>2017-08-07T16:27:09Z</time>
      </trkpt>
      <trkpt lat="48.19912" lon="4.36844">
        <ele>185.19</ele>
        <time>2017-08-07T16:27:15Z</time>
      </trkpt>
      <trkpt lat="48.19882" lon="4.36767">
        <ele>185.19</ele>
        <time>2017-08-07T16:27:29Z</time>
      </trkpt>
      <trkpt lat="48.19878" lon="4.36758">
        <ele>186.15</ele>
        <time>2017-08-07T16:27:31Z</time>
      </trkpt>
      <trkpt lat="48.19848" lon="4.36698">
        <ele>186.63</ele>
        <time>2017-08-07T16:27:46Z</time>
      </trkpt>
      <trkpt lat="48.1983" lon="4.36657">
        <ele>187.11</ele>
        <time>2017-08-07T16:27:56Z</time>
      </trkpt>
      <trkpt lat="48.19808" lon="4.36618">
        <ele>188.08</ele>
        <time>2017-08-07T16:28:07Z</time>
      </trkpt>
      <trkpt lat="48.19788" lon="4.36583">
        <ele>188.08</ele>
        <time>2017-08-07T16:28:17Z</time>
      </trkpt>
      <trkpt lat="48.19757" lon="4.3654">
        <ele>188.56</ele>
        <time>2017-08-07T16:28:29Z</time>
      </trkpt>
      <trkpt lat="48.19741" lon="4.36517">
        <ele>188.56</ele>
        <time>2017-08-07T16:28:35Z</time>
      </trkpt>
      <trkpt lat="48.19704" lon="4.36465">
        <ele>188.56</ele>
        <time>2017-08-07T16:28:46Z</time>
      </trkpt>
      <trkpt lat="48.19696" lon="4.36454">
        <ele>188.56</ele>
        <time>2017-08-07T16:28:49Z</time>
      </trkpt>
      <trkpt lat="48.1968" lon="4.36432">
        <ele>188.56</ele>
        <time>2017-08-07T16:28:54Z</time>
      </trkpt>
      <trkpt lat="48.19665" lon="4.36405">
        <ele>188.56</ele>
        <time>2017-08-07T16:28:59Z</time>
      </trkpt>
      <trkpt lat="48.19645" lon="4.36369">
        <ele>187.59</ele>
        <time>2017-08-07T16:29:06Z</time>
      </trkpt>
      <trkpt lat="48.19598" lon="4.36292">
        <ele>187.11</ele>
        <time>2017-08-07T16:29:21Z</time>
      </trkpt>
      <trkpt lat="48.19554" lon="4.3622">
        <ele>187.11</ele>
        <time>2017-08-07T16:29:35Z</time>
      </trkpt>
      <trkpt lat="48.19522" lon="4.36188">
        <ele>187.11</ele>
        <time>2017-08-07T16:29:44Z</time>
      </trkpt>
      <trkpt lat="48.19486" lon="4.36149">
        <ele>186.15</ele>
        <time>2017-08-07T16:29:53Z</time>
      </trkpt>
      <trkpt lat="48.19468" lon="4.36129">
        <ele>186.15</ele>
        <time>2017-08-07T16:29:57Z</time>
      </trkpt>
      <trkpt lat="48.19447" lon="4.36111">
        <ele>185.67</ele>
        <time>2017-08-07T16:30:02Z</time>
      </trkpt>
      <trkpt lat="48.19428" lon="4.36086">
        <ele>185.19</ele>
        <time>2017-08-07T16:30:08Z</time>
      </trkpt>
      <trkpt lat="48.19415" lon="4.36068">
        <ele>185.19</ele>
        <time>2017-08-07T16:30:12Z</time>
      </trkpt>
      <trkpt lat="48.19377" lon="4.36003">
        <ele>184.71</ele>
        <time>2017-08-07T16:30:25Z</time>
      </trkpt>
      <trkpt lat="48.19353" lon="4.35976">
        <ele>185.67</ele>
        <time>2017-08-07T16:30:35Z</time>
      </trkpt>
      <trkpt lat="48.1935" lon="4.35973">
        <ele>185.67</ele>
        <time>2017-08-07T16:30:36Z</time>
      </trkpt>
      <trkpt lat="48.19307" lon="4.35944">
        <ele>184.23</ele>
        <time>2017-08-07T16:30:46Z</time>
      </trkpt>
      <trkpt lat="48.19268" lon="4.35907">
        <ele>184.23</ele>
        <time>2017-08-07T16:30:57Z</time>
      </trkpt>
      <trkpt lat="48.19223" lon="4.35858">
        <ele>184.23</ele>
        <time>2017-08-07T16:31:10Z</time>
      </trkpt>
      <trkpt lat="48.19213" lon="4.35844">
        <ele>184.23</ele>
        <time>2017-08-07T16:31:19Z</time>
      </trkpt>
      <trkpt lat="48.19212" lon="4.35843">
        <ele>184.23</ele>
        <time>2017-08-07T16:31:20Z</time>
      </trkpt>
      <trkpt lat="48.19197" lon="4.35828">
        <ele>184.23</ele>
        <time>2017-08-07T16:31:30Z</time>
      </trkpt>
      <trkpt lat="48.19167" lon="4.35794">
        <ele>184.23</ele>
        <time>2017-08-07T16:31:41Z</time>
      </trkpt>
      <trkpt lat="48.19132" lon="4.35758">
        <ele>184.23</ele>
        <time>2017-08-07T16:31:52Z</time>
      </trkpt>
      <trkpt lat="48.19101" lon="4.35722">
        <ele>184.71</ele>
        <time>2017-08-07T16:32:04Z</time>
      </trkpt>
      <trkpt lat="48.19067" lon="4.3568">
        <ele>184.71</ele>
        <time>2017-08-07T16:32:16Z</time>
      </trkpt>
      <trkpt lat="48.19028" lon="4.35634">
        <ele>184.71</ele>
        <time>2017-08-07T16:32:29Z</time>
      </trkpt>
      <trkpt lat="48.18985" lon="4.35587">
        <ele>185.67</ele>
        <time>2017-08-07T16:32:42Z</time>
      </trkpt>
      <trkpt lat="48.18953" lon="4.35549">
        <ele>186.15</ele>
        <time>2017-08-07T16:32:53Z</time>
      </trkpt>
      <trkpt lat="48.18912" lon="4.35494">
        <ele>186.15</ele>
        <time>2017-08-07T16:33:05Z</time>
      </trkpt>
      <trkpt lat="48.18877" lon="4.35449">
        <ele>186.63</ele>
        <time>2017-08-07T16:33:17Z</time>
      </trkpt>
      <trkpt lat="48.18844" lon="4.35411">
        <ele>186.63</ele>
        <time>2017-08-07T16:33:29Z</time>
      </trkpt>
      <trkpt lat="48.18819" lon="4.35381">
        <ele>186.63</ele>
        <time>2017-08-07T16:33:39Z</time>
      </trkpt>
      <trkpt lat="48.18817" lon="4.35375">
        <ele>185.67</ele>
        <time>2017-08-07T16:33:41Z</time>
      </trkpt>
      <trkpt lat="48.18824" lon="4.35359">
        <ele>186.63</ele>
        <time>2017-08-07T16:33:48Z</time>
      </trkpt>
      <trkpt lat="48.18829" lon="4.35347">
        <ele>187.59</ele>
        <time>2017-08-07T16:33:53Z</time>
      </trkpt>
      <trkpt lat="48.1883" lon="4.35339">
        <ele>187.59</ele>
        <time>2017-08-07T16:34:04Z</time>
      </trkpt>
      <trkpt lat="48.1883" lon="4.35338">
        <ele>187.59</ele>
        <time>2017-08-07T16:34:31Z</time>
      </trkpt>
      <trkpt lat="48.18829" lon="4.35339">
        <ele>188.08</ele>
        <time>2017-08-07T16:34:56Z</time>
      </trkpt>
      <trkpt lat="48.1883" lon="4.35337">
        <ele>188.08</ele>
        <time>2017-08-07T16:35:23Z</time>
      </trkpt>
      <trkpt lat="48.18829" lon="4.35339">
        <ele>188.08</ele>
        <time>2017-08-07T16:35:44Z</time>
      </trkpt>
      <trkpt lat="48.18829" lon="4.35338">
        <ele>187.59</ele>
        <time>2017-08-07T16:36:09Z</time>
      </trkpt>
      <trkpt lat="48.18829" lon="4.35338">
        <ele>188.08</ele>
        <time>2017-08-07T16:36:41Z</time>
      </trkpt>
      <trkpt lat="48.18829" lon="4.35339">
        <ele>188.08</ele>
        <time>2017-08-07T16:37:15Z</time>
      </trkpt>
      <trkpt lat="48.1883" lon="4.35337">
        <ele>188.08</ele>
        <time>2017-08-07T16:37:48Z</time>
      </trkpt>
      <trkpt lat="48.18829" lon="4.35336">
        <ele>188.08</ele>
        <time>2017-08-07T16:38:08Z</time>
      </trkpt>
      <trkpt lat="48.18821" lon="4.35317">
        <ele>188.08</ele>
        <time>2017-08-07T16:38:17Z</time>
      </trkpt>
      <trkpt lat="48.18781" lon="4.35265">
        <ele>187.59</ele>
        <time>2017-08-07T16:38:33Z</time>
      </trkpt>
      <trkpt lat="48.18758" lon="4.35237">
        <ele>187.59</ele>
        <time>2017-08-07T16:38:40Z</time>
      </trkpt>
      <trkpt lat="48.18743" lon="4.35217">
        <ele>187.59</ele>
        <time>2017-08-07T16:38:45Z</time>
      </trkpt>
      <trkpt lat="48.18725" lon="4.35194">
        <ele>187.59</ele>
        <time>2017-08-07T16:38:50Z</time>
      </trkpt>
      <trkpt lat="48.18718" lon="4.35182">
        <ele>187.59</ele>
        <time>2017-08-07T16:38:52Z</time>
      </trkpt>
      <trkpt lat="48.18707" lon="4.35169">
        <ele>187.59</ele>
        <time>2017-08-07T16:38:55Z</time>
      </trkpt>
      <trkpt lat="48.18647" lon="4.35092">
        <ele>186.15</ele>
        <time>2017-08-07T16:39:11Z</time>
      </trkpt>
      <trkpt lat="48.1863" lon="4.3507">
        <ele>186.15</ele>
        <time>2017-08-07T16:39:16Z</time>
      </trkpt>
      <trkpt lat="48.18573" lon="4.34995">
        <ele>186.15</ele>
        <time>2017-08-07T16:39:32Z</time>
      </trkpt>
      <trkpt lat="48.18568" lon="4.3499">
        <ele>186.15</ele>
        <time>2017-08-07T16:39:33Z</time>
      </trkpt>
      <trkpt lat="48.18526" lon="4.34932">
        <ele>186.15</ele>
        <time>2017-08-07T16:39:46Z</time>
      </trkpt>
      <trkpt lat="48.18502" lon="4.34862">
        <ele>186.15</ele>
        <time>2017-08-07T16:40:00Z</time>
      </trkpt>
      <trkpt lat="48.1849" lon="4.3483">
        <ele>187.11</ele>
        <time>2017-08-07T16:40:07Z</time>
      </trkpt>
      <trkpt lat="48.18488" lon="4.34775">
        <ele>187.11</ele>
        <time>2017-08-07T16:40:18Z</time>
      </trkpt>
      <trkpt lat="48.18481" lon="4.34754">
        <ele>187.11</ele>
        <time>2017-08-07T16:40:23Z</time>
      </trkpt>
      <trkpt lat="48.18488" lon="4.34747">
        <ele>187.11</ele>
        <time>2017-08-07T16:40:28Z</time>
      </trkpt>
      <trkpt lat="48.18492" lon="4.34746">
        <ele>186.15</ele>
        <time>2017-08-07T16:40:31Z</time>
      </trkpt>
      <trkpt lat="48.18494" lon="4.34745">
        <ele>186.15</ele>
        <time>2017-08-07T16:40:32Z</time>
      </trkpt>
      <trkpt lat="48.18496" lon="4.34739">
        <ele>185.67</ele>
        <time>2017-08-07T16:40:34Z</time>
      </trkpt>
      <trkpt lat="48.18496" lon="4.34735">
        <ele>185.67</ele>
        <time>2017-08-07T16:40:35Z</time>
      </trkpt>
      <trkpt lat="48.18495" lon="4.34731">
        <ele>185.19</ele>
        <time>2017-08-07T16:40:36Z</time>
      </trkpt>
      <trkpt lat="48.18493" lon="4.34726">
        <ele>185.19</ele>
        <time>2017-08-07T16:40:37Z</time>
      </trkpt>
      <trkpt lat="48.18475" lon="4.34672">
        <ele>181.83</ele>
        <time>2017-08-07T16:40:45Z</time>
      </trkpt>
      <trkpt lat="48.18469" lon="4.34654">
        <ele>180.87</ele>
        <time>2017-08-07T16:40:47Z</time>
      </trkpt>
      <trkpt lat="48.18461" lon="4.34628">
        <ele>179.9</ele>
        <time>2017-08-07T16:40:50Z</time>
      </trkpt>
      <trkpt lat="48.18457" lon="4.34622">
        <ele>179.9</ele>
        <time>2017-08-07T16:40:51Z</time>
      </trkpt>
      <trkpt lat="48.18452" lon="4.34617">
        <ele>179.9</ele>
        <time>2017-08-07T16:40:52Z</time>
      </trkpt>
      <trkpt lat="48.18446" lon="4.34615">
        <ele>179.42</ele>
        <time>2017-08-07T16:40:53Z</time>
      </trkpt>
      <trkpt lat="48.1844" lon="4.34614">
        <ele>179.42</ele>
        <time>2017-08-07T16:40:54Z</time>
      </trkpt>
      <trkpt lat="48.18434" lon="4.34614">
        <ele>179.42</ele>
        <time>2017-08-07T16:40:55Z</time>
      </trkpt>
      <trkpt lat="48.18428" lon="4.34614">
        <ele>179.42</ele>
        <time>2017-08-07T16:40:56Z</time>
      </trkpt>
      <trkpt lat="48.18417" lon="4.34615">
        <ele>178.94</ele>
        <time>2017-08-07T16:40:58Z</time>
      </trkpt>
      <trkpt lat="48.1837" lon="4.3463">
        <ele>177.98</ele>
        <time>2017-08-07T16:41:06Z</time>
      </trkpt>
      <trkpt lat="48.18364" lon="4.34634">
        <ele>177.5</ele>
        <time>2017-08-07T16:41:07Z</time>
      </trkpt>
      <trkpt lat="48.18353" lon="4.34644">
        <ele>177.5</ele>
        <time>2017-08-07T16:41:09Z</time>
      </trkpt>
      <trkpt lat="48.18348" lon="4.34649">
        <ele>177.02</ele>
        <time>2017-08-07T16:41:10Z</time>
      </trkpt>
      <trkpt lat="48.18326" lon="4.34674">
        <ele>176.06</ele>
        <time>2017-08-07T16:41:14Z</time>
      </trkpt>
      <trkpt lat="48.18284" lon="4.34727">
        <ele>172.21</ele>
        <time>2017-08-07T16:41:21Z</time>
      </trkpt>
      <trkpt lat="48.18244" lon="4.34781">
        <ele>168.85</ele>
        <time>2017-08-07T16:41:27Z</time>
      </trkpt>
      <trkpt lat="48.18215" lon="4.3482">
        <ele>165.96</ele>
        <time>2017-08-07T16:41:31Z</time>
      </trkpt>
      <trkpt lat="48.18184" lon="4.34863">
        <ele>162.12</ele>
        <time>2017-08-07T16:41:35Z</time>
      </trkpt>
      <trkpt lat="48.18156" lon="4.34895">
        <ele>158.75</ele>
        <time>2017-08-07T16:41:38Z</time>
      </trkpt>
      <trkpt lat="48.18125" lon="4.34921">
        <ele>155.39</ele>
        <time>2017-08-07T16:41:41Z</time>
      </trkpt>
      <trkpt lat="48.18091" lon="4.34949">
        <ele>151.54</ele>
        <time>2017-08-07T16:41:44Z</time>
      </trkpt>
      <trkpt lat="48.17989" lon="4.35014">
        <ele>152.51</ele>
        <time>2017-08-07T16:41:54Z</time>
      </trkpt>
      <trkpt lat="48.17926" lon="4.35074">
        <ele>153.95</ele>
        <time>2017-08-07T16:42:04Z</time>
      </trkpt>
      <trkpt lat="48.17881" lon="4.35129">
        <ele>156.35</ele>
        <time>2017-08-07T16:42:17Z</time>
      </trkpt>
      <trkpt lat="48.17846" lon="4.35172">
        <ele>158.75</ele>
        <time>2017-08-07T16:42:35Z</time>
      </trkpt>
      <trkpt lat="48.1782" lon="4.35202">
        <ele>160.68</ele>
        <time>2017-08-07T16:42:50Z</time>
      </trkpt>
      <trkpt lat="48.17792" lon="4.35239">
        <ele>162.6</ele>
        <time>2017-08-07T16:43:07Z</time>
      </trkpt>
      <trkpt lat="48.17766" lon="4.3529">
        <ele>163.56</ele>
        <time>2017-08-07T16:43:25Z</time>
      </trkpt>
      <trkpt lat="48.17746" lon="4.35347">
        <ele>164.52</ele>
        <time>2017-08-07T16:43:39Z</time>
      </trkpt>
      <trkpt lat="48.17724" lon="4.3541">
        <ele>165.48</ele>
        <time>2017-08-07T16:43:54Z</time>
      </trkpt>
      <trkpt lat="48.17699" lon="4.35478">
        <ele>166.45</ele>
        <time>2017-08-07T16:44:10Z</time>
      </trkpt>
      <trkpt lat="48.1767" lon="4.3556">
        <ele>167.41</ele>
        <time>2017-08-07T16:44:27Z</time>
      </trkpt>
      <trkpt lat="48.17654" lon="4.35604">
        <ele>168.37</ele>
        <time>2017-08-07T16:44:35Z</time>
      </trkpt>
      <trkpt lat="48.17647" lon="4.35623">
        <ele>168.37</ele>
        <time>2017-08-07T16:44:38Z</time>
      </trkpt>
      <trkpt lat="48.17643" lon="4.35636">
        <ele>168.37</ele>
        <time>2017-08-07T16:44:40Z</time>
      </trkpt>
      <trkpt lat="48.17641" lon="4.35641">
        <ele>168.37</ele>
        <time>2017-08-07T16:44:41Z</time>
      </trkpt>
      <trkpt lat="48.17611" lon="4.35727">
        <ele>169.33</ele>
        <time>2017-08-07T16:44:57Z</time>
      </trkpt>
      <trkpt lat="48.17587" lon="4.35806">
        <ele>169.81</ele>
        <time>2017-08-07T16:45:13Z</time>
      </trkpt>
      <trkpt lat="48.17567" lon="4.35896">
        <ele>170.29</ele>
        <time>2017-08-07T16:45:30Z</time>
      </trkpt>
      <trkpt lat="48.1755" lon="4.35999">
        <ele>170.77</ele>
        <time>2017-08-07T16:45:48Z</time>
      </trkpt>
      <trkpt lat="48.17533" lon="4.3609">
        <ele>171.25</ele>
        <time>2017-08-07T16:46:05Z</time>
      </trkpt>
      <trkpt lat="48.17518" lon="4.36182">
        <ele>171.25</ele>
        <time>2017-08-07T16:46:22Z</time>
      </trkpt>
      <trkpt lat="48.17501" lon="4.36283">
        <ele>171.25</ele>
        <time>2017-08-07T16:46:40Z</time>
      </trkpt>
      <trkpt lat="48.17493" lon="4.36324">
        <ele>171.25</ele>
        <time>2017-08-07T16:46:46Z</time>
      </trkpt>
      <trkpt lat="48.17492" lon="4.36331">
        <ele>169.81</ele>
        <time>2017-08-07T16:46:47Z</time>
      </trkpt>
      <trkpt lat="48.1749" lon="4.36338">
        <ele>169.81</ele>
        <time>2017-08-07T16:46:48Z</time>
      </trkpt>
      <trkpt lat="48.17469" lon="4.36402">
        <ele>167.41</ele>
        <time>2017-08-07T16:46:56Z</time>
      </trkpt>
      <trkpt lat="48.17435" lon="4.3646">
        <ele>167.41</ele>
        <time>2017-08-07T16:47:04Z</time>
      </trkpt>
      <trkpt lat="48.17424" lon="4.36471">
        <ele>167.41</ele>
        <time>2017-08-07T16:47:06Z</time>
      </trkpt>
      <trkpt lat="48.17367" lon="4.36544">
        <ele>169.33</ele>
        <time>2017-08-07T16:47:21Z</time>
      </trkpt>
      <trkpt lat="48.17322" lon="4.36569">
        <ele>171.25</ele>
        <time>2017-08-07T16:47:36Z</time>
      </trkpt>
      <trkpt lat="48.17272" lon="4.36581">
        <ele>174.14</ele>
        <time>2017-08-07T16:47:56Z</time>
      </trkpt>
      <trkpt lat="48.17233" lon="4.36592">
        <ele>176.54</ele>
        <time>2017-08-07T16:48:15Z</time>
      </trkpt>
      <trkpt lat="48.17195" lon="4.36603">
        <ele>178.46</ele>
        <time>2017-08-07T16:48:34Z</time>
      </trkpt>
      <trkpt lat="48.17165" lon="4.36611">
        <ele>179.9</ele>
        <time>2017-08-07T16:48:49Z</time>
      </trkpt>
      <trkpt lat="48.17125" lon="4.36624">
        <ele>182.31</ele>
        <time>2017-08-07T16:49:10Z</time>
      </trkpt>
      <trkpt lat="48.17096" lon="4.36641">
        <ele>184.23</ele>
        <time>2017-08-07T16:49:26Z</time>
      </trkpt>
      <trkpt lat="48.17062" lon="4.36668">
        <ele>186.63</ele>
        <time>2017-08-07T16:49:45Z</time>
      </trkpt>
      <trkpt lat="48.17033" lon="4.36701">
        <ele>188.08</ele>
        <time>2017-08-07T16:50:02Z</time>
      </trkpt>
      <trkpt lat="48.17" lon="4.36742">
        <ele>190</ele>
        <time>2017-08-07T16:50:20Z</time>
      </trkpt>
      <trkpt lat="48.16967" lon="4.36783">
        <ele>190.96</ele>
        <time>2017-08-07T16:50:35Z</time>
      </trkpt>
      <trkpt lat="48.16964" lon="4.36786">
        <ele>190.96</ele>
        <time>2017-08-07T16:50:36Z</time>
      </trkpt>
      <trkpt lat="48.16933" lon="4.36824">
        <ele>191.92</ele>
        <time>2017-08-07T16:50:49Z</time>
      </trkpt>
      <trkpt lat="48.16883" lon="4.36874">
        <ele>192.88</ele>
        <time>2017-08-07T16:51:10Z</time>
      </trkpt>
      <trkpt lat="48.16834" lon="4.36916">
        <ele>194.8</ele>
        <time>2017-08-07T16:51:28Z</time>
      </trkpt>
      <trkpt lat="48.16798" lon="4.36947">
        <ele>197.21</ele>
        <time>2017-08-07T16:51:44Z</time>
      </trkpt>
      <trkpt lat="48.16761" lon="4.36987">
        <ele>200.09</ele>
        <time>2017-08-07T16:52:03Z</time>
      </trkpt>
      <trkpt lat="48.16732" lon="4.37018">
        <ele>202.01</ele>
        <time>2017-08-07T16:52:19Z</time>
      </trkpt>
      <trkpt lat="48.16705" lon="4.37049">
        <ele>203.94</ele>
        <time>2017-08-07T16:52:37Z</time>
      </trkpt>
      <trkpt lat="48.16677" lon="4.3708">
        <ele>206.34</ele>
        <time>2017-08-07T16:52:55Z</time>
      </trkpt>
      <trkpt lat="48.16653" lon="4.37107">
        <ele>208.74</ele>
        <time>2017-08-07T16:53:10Z</time>
      </trkpt>
      <trkpt lat="48.16632" lon="4.37142">
        <ele>210.67</ele>
        <time>2017-08-07T16:53:26Z</time>
      </trkpt>
      <trkpt lat="48.16619" lon="4.37191">
        <ele>212.11</ele>
        <time>2017-08-07T16:53:43Z</time>
      </trkpt>
      <trkpt lat="48.16606" lon="4.37247">
        <ele>213.07</ele>
        <time>2017-08-07T16:54:00Z</time>
      </trkpt>
      <trkpt lat="48.16598" lon="4.37279">
        <ele>214.03</ele>
        <time>2017-08-07T16:54:14Z</time>
      </trkpt>
      <trkpt lat="48.16597" lon="4.37279">
        <ele>214.51</ele>
        <time>2017-08-07T16:54:32Z</time>
      </trkpt>
      <trkpt lat="48.16596" lon="4.3728">
        <ele>214.51</ele>
        <time>2017-08-07T16:55:01Z</time>
      </trkpt>
      <trkpt lat="48.16594" lon="4.37277">
        <ele>213.07</ele>
        <time>2017-08-07T16:55:37Z</time>
      </trkpt>
      <trkpt lat="48.16595" lon="4.37278">
        <ele>213.07</ele>
        <time>2017-08-07T16:56:17Z</time>
      </trkpt>
      <trkpt lat="48.16595" lon="4.37277">
        <ele>213.07</ele>
        <time>2017-08-07T16:57:00Z</time>
      </trkpt>
      <trkpt lat="48.16596" lon="4.37278">
        <ele>213.07</ele>
        <time>2017-08-07T16:57:34Z</time>
      </trkpt>
      <trkpt lat="48.16597" lon="4.37279">
        <ele>214.03</ele>
        <time>2017-08-07T16:57:37Z</time>
      </trkpt>
      <trkpt lat="48.16598" lon="4.3728">
        <ele>214.03</ele>
        <time>2017-08-07T16:58:02Z</time>
      </trkpt>
      <trkpt lat="48.16598" lon="4.37281">
        <ele>214.51</ele>
        <time>2017-08-07T16:58:21Z</time>
      </trkpt>
      <trkpt lat="48.16595" lon="4.37287">
        <ele>214.51</ele>
        <time>2017-08-07T16:58:32Z</time>
      </trkpt>
      <trkpt lat="48.16587" lon="4.37314">
        <ele>215.47</ele>
        <time>2017-08-07T16:58:43Z</time>
      </trkpt>
      <trkpt lat="48.16586" lon="4.37315">
        <ele>215.95</ele>
        <time>2017-08-07T16:58:54Z</time>
      </trkpt>
      <trkpt lat="48.16586" lon="4.37315">
        <ele>215.95</ele>
        <time>2017-08-07T16:59:23Z</time>
      </trkpt>
      <trkpt lat="48.16585" lon="4.37316">
        <ele>215.95</ele>
        <time>2017-08-07T16:59:53Z</time>
      </trkpt>
      <trkpt lat="48.16586" lon="4.37315">
        <ele>216.43</ele>
        <time>2017-08-07T17:00:12Z</time>
      </trkpt>
      <trkpt lat="48.16585" lon="4.37312">
        <ele>216.43</ele>
        <time>2017-08-07T17:00:40Z</time>
      </trkpt>
      <trkpt lat="48.16584" lon="4.3732">
        <ele>215.95</ele>
        <time>2017-08-07T17:01:02Z</time>
      </trkpt>
      <trkpt lat="48.16582" lon="4.37327">
        <ele>216.43</ele>
        <time>2017-08-07T17:01:06Z</time>
      </trkpt>
      <trkpt lat="48.16582" lon="4.37329">
        <ele>216.43</ele>
        <time>2017-08-07T17:01:07Z</time>
      </trkpt>
      <trkpt lat="48.16581" lon="4.37331">
        <ele>216.43</ele>
        <time>2017-08-07T17:01:08Z</time>
      </trkpt>
      <trkpt lat="48.16581" lon="4.37333">
        <ele>216.43</ele>
        <time>2017-08-07T17:01:09Z</time>
      </trkpt>
      <trkpt lat="48.16581" lon="4.37335">
        <ele>216.43</ele>
        <time>2017-08-07T17:01:10Z</time>
      </trkpt>
      <trkpt lat="48.16581" lon="4.37337">
        <ele>216.91</ele>
        <time>2017-08-07T17:01:11Z</time>
      </trkpt>
      <trkpt lat="48.1658" lon="4.37339">
        <ele>216.91</ele>
        <time>2017-08-07T17:01:12Z</time>
      </trkpt>
      <trkpt lat="48.1658" lon="4.37341">
        <ele>216.91</ele>
        <time>2017-08-07T17:01:13Z</time>
      </trkpt>
      <trkpt lat="48.16574" lon="4.37353">
        <ele>217.88</ele>
        <time>2017-08-07T17:01:21Z</time>
      </trkpt>
      <trkpt lat="48.16573" lon="4.37355">
        <ele>217.88</ele>
        <time>2017-08-07T17:01:22Z</time>
      </trkpt>
      <trkpt lat="48.16572" lon="4.37356">
        <ele>217.88</ele>
        <time>2017-08-07T17:01:23Z</time>
      </trkpt>
      <trkpt lat="48.16572" lon="4.37358">
        <ele>217.88</ele>
        <time>2017-08-07T17:01:24Z</time>
      </trkpt>
      <trkpt lat="48.16571" lon="4.3736">
        <ele>218.36</ele>
        <time>2017-08-07T17:01:25Z</time>
      </trkpt>
      <trkpt lat="48.1657" lon="4.37362">
        <ele>218.36</ele>
        <time>2017-08-07T17:01:26Z</time>
      </trkpt>
      <trkpt lat="48.16569" lon="4.37364">
        <ele>218.36</ele>
        <time>2017-08-07T17:01:27Z</time>
      </trkpt>
      <trkpt lat="48.16555" lon="4.37384">
        <ele>219.32</ele>
        <time>2017-08-07T17:01:41Z</time>
      </trkpt>
      <trkpt lat="48.16538" lon="4.37402">
        <ele>220.76</ele>
        <time>2017-08-07T17:01:56Z</time>
      </trkpt>
      <trkpt lat="48.16525" lon="4.37414">
        <ele>222.2</ele>
        <time>2017-08-07T17:02:07Z</time>
      </trkpt>
      <trkpt lat="48.16524" lon="4.37415">
        <ele>222.2</ele>
        <time>2017-08-07T17:02:08Z</time>
      </trkpt>
      <trkpt lat="48.16523" lon="4.37415">
        <ele>222.2</ele>
        <time>2017-08-07T17:02:09Z</time>
      </trkpt>
      <trkpt lat="48.16521" lon="4.37416">
        <ele>222.2</ele>
        <time>2017-08-07T17:02:10Z</time>
      </trkpt>
      <trkpt lat="48.1652" lon="4.37417">
        <ele>222.2</ele>
        <time>2017-08-07T17:02:11Z</time>
      </trkpt>
      <trkpt lat="48.16518" lon="4.37418">
        <ele>222.2</ele>
        <time>2017-08-07T17:02:12Z</time>
      </trkpt>
      <trkpt lat="48.16517" lon="4.37419">
        <ele>222.2</ele>
        <time>2017-08-07T17:02:13Z</time>
      </trkpt>
      <trkpt lat="48.16492" lon="4.37428">
        <ele>224.12</ele>
        <time>2017-08-07T17:02:29Z</time>
      </trkpt>
      <trkpt lat="48.16464" lon="4.37435">
        <ele>226.05</ele>
        <time>2017-08-07T17:02:46Z</time>
      </trkpt>
      <trkpt lat="48.16453" lon="4.37408">
        <ele>226.53</ele>
        <time>2017-08-07T17:03:00Z</time>
      </trkpt>
      <trkpt lat="48.16451" lon="4.374">
        <ele>227.01</ele>
        <time>2017-08-07T17:03:05Z</time>
      </trkpt>
      <trkpt lat="48.1645" lon="4.37398">
        <ele>227.01</ele>
        <time>2017-08-07T17:03:06Z</time>
      </trkpt>
      <trkpt lat="48.1645" lon="4.37395">
        <ele>227.01</ele>
        <time>2017-08-07T17:03:07Z</time>
      </trkpt>
      <trkpt lat="48.1645" lon="4.37393">
        <ele>227.01</ele>
        <time>2017-08-07T17:03:08Z</time>
      </trkpt>
      <trkpt lat="48.1645" lon="4.37391">
        <ele>227.01</ele>
        <time>2017-08-07T17:03:09Z</time>
      </trkpt>
      <trkpt lat="48.1645" lon="4.37347">
        <ele>227.01</ele>
        <time>2017-08-07T17:03:21Z</time>
      </trkpt>
      <trkpt lat="48.16443" lon="4.3726">
        <ele>227.49</ele>
        <time>2017-08-07T17:03:37Z</time>
      </trkpt>
      <trkpt lat="48.16415" lon="4.37169">
        <ele>227.49</ele>
        <time>2017-08-07T17:03:53Z</time>
      </trkpt>
      <trkpt lat="48.16412" lon="4.37166">
        <ele>227.49</ele>
        <time>2017-08-07T17:03:54Z</time>
      </trkpt>
      <trkpt lat="48.16408" lon="4.37162">
        <ele>227.49</ele>
        <time>2017-08-07T17:03:55Z</time>
      </trkpt>
      <trkpt lat="48.16404" lon="4.3716">
        <ele>227.49</ele>
        <time>2017-08-07T17:03:56Z</time>
      </trkpt>
      <trkpt lat="48.164" lon="4.3716">
        <ele>227.49</ele>
        <time>2017-08-07T17:03:57Z</time>
      </trkpt>
      <trkpt lat="48.16396" lon="4.3716">
        <ele>227.49</ele>
        <time>2017-08-07T17:03:58Z</time>
      </trkpt>
      <trkpt lat="48.16345" lon="4.37172">
        <ele>228.45</ele>
        <time>2017-08-07T17:04:12Z</time>
      </trkpt>
      <trkpt lat="48.16327" lon="4.37175">
        <ele>227.01</ele>
        <time>2017-08-07T17:04:16Z</time>
      </trkpt>
      <trkpt lat="48.16276" lon="4.37181">
        <ele>224.12</ele>
        <time>2017-08-07T17:04:25Z</time>
      </trkpt>
      <trkpt lat="48.16226" lon="4.37184">
        <ele>220.28</ele>
        <time>2017-08-07T17:04:32Z</time>
      </trkpt>
      <trkpt lat="48.16215" lon="4.37185">
        <ele>220.28</ele>
        <time>2017-08-07T17:04:33Z</time>
      </trkpt>
      <trkpt lat="48.16191" lon="4.37186">
        <ele>218.36</ele>
        <time>2017-08-07T17:04:36Z</time>
      </trkpt>
      <trkpt lat="48.16143" lon="4.37189">
        <ele>214.99</ele>
        <time>2017-08-07T17:04:41Z</time>
      </trkpt>
      <trkpt lat="48.16114" lon="4.3719">
        <ele>213.55</ele>
        <time>2017-08-07T17:04:44Z</time>
      </trkpt>
      <trkpt lat="48.16072" lon="4.37187">
        <ele>210.19</ele>
        <time>2017-08-07T17:04:48Z</time>
      </trkpt>
      <trkpt lat="48.16017" lon="4.37175">
        <ele>206.34</ele>
        <time>2017-08-07T17:04:53Z</time>
      </trkpt>
      <trkpt lat="48.15995" lon="4.37168">
        <ele>205.38</ele>
        <time>2017-08-07T17:04:55Z</time>
      </trkpt>
      <trkpt lat="48.15941" lon="4.37138">
        <ele>201.53</ele>
        <time>2017-08-07T17:05:00Z</time>
      </trkpt>
      <trkpt lat="48.15903" lon="4.37099">
        <ele>198.17</ele>
        <time>2017-08-07T17:05:04Z</time>
      </trkpt>
      <trkpt lat="48.15893" lon="4.37091">
        <ele>197.21</ele>
        <time>2017-08-07T17:05:05Z</time>
      </trkpt>
      <trkpt lat="48.15882" lon="4.37084">
        <ele>196.25</ele>
        <time>2017-08-07T17:05:06Z</time>
      </trkpt>
      <trkpt lat="48.1587" lon="4.37081">
        <ele>195.77</ele>
        <time>2017-08-07T17:05:07Z</time>
      </trkpt>
      <trkpt lat="48.15859" lon="4.37081">
        <ele>195.28</ele>
        <time>2017-08-07T17:05:08Z</time>
      </trkpt>
      <trkpt lat="48.15847" lon="4.37084">
        <ele>194.8</ele>
        <time>2017-08-07T17:05:09Z</time>
      </trkpt>
      <trkpt lat="48.15835" lon="4.37089">
        <ele>194.8</ele>
        <time>2017-08-07T17:05:10Z</time>
      </trkpt>
      <trkpt lat="48.1579" lon="4.3711">
        <ele>191.92</ele>
        <time>2017-08-07T17:05:14Z</time>
      </trkpt>
      <trkpt lat="48.15781" lon="4.37114">
        <ele>191.92</ele>
        <time>2017-08-07T17:05:15Z</time>
      </trkpt>
      <trkpt lat="48.15709" lon="4.37148">
        <ele>189.04</ele>
        <time>2017-08-07T17:05:22Z</time>
      </trkpt>
      <trkpt lat="48.15661" lon="4.37181">
        <ele>185.67</ele>
        <time>2017-08-07T17:05:27Z</time>
      </trkpt>
      <trkpt lat="48.15582" lon="4.37228">
        <ele>182.31</ele>
        <time>2017-08-07T17:05:35Z</time>
      </trkpt>
      <trkpt lat="48.15499" lon="4.37295">
        <ele>179.42</ele>
        <time>2017-08-07T17:05:45Z</time>
      </trkpt>
      <trkpt lat="48.15491" lon="4.37298">
        <ele>179.42</ele>
        <time>2017-08-07T17:05:46Z</time>
      </trkpt>
      <trkpt lat="48.15483" lon="4.37301">
        <ele>179.42</ele>
        <time>2017-08-07T17:05:47Z</time>
      </trkpt>
      <trkpt lat="48.15474" lon="4.37301">
        <ele>179.42</ele>
        <time>2017-08-07T17:05:48Z</time>
      </trkpt>
      <trkpt lat="48.15467" lon="4.37301">
        <ele>179.42</ele>
        <time>2017-08-07T17:05:49Z</time>
      </trkpt>
      <trkpt lat="48.15446" lon="4.373">
        <ele>180.87</ele>
        <time>2017-08-07T17:05:52Z</time>
      </trkpt>
      <trkpt lat="48.15404" lon="4.37296">
        <ele>183.75</ele>
        <time>2017-08-07T17:06:02Z</time>
      </trkpt>
      <trkpt lat="48.15368" lon="4.37294">
        <ele>186.15</ele>
        <time>2017-08-07T17:06:17Z</time>
      </trkpt>
      <trkpt lat="48.15323" lon="4.3729">
        <ele>189.04</ele>
        <time>2017-08-07T17:06:35Z</time>
      </trkpt>
      <trkpt lat="48.15273" lon="4.37286">
        <ele>191.44</ele>
        <time>2017-08-07T17:06:56Z</time>
      </trkpt>
      <trkpt lat="48.15233" lon="4.37283">
        <ele>193.84</ele>
        <time>2017-08-07T17:07:13Z</time>
      </trkpt>
      <trkpt lat="48.15191" lon="4.37277">
        <ele>196.73</ele>
        <time>2017-08-07T17:07:31Z</time>
      </trkpt>
      <trkpt lat="48.15155" lon="4.37274">
        <ele>198.17</ele>
        <time>2017-08-07T17:07:46Z</time>
      </trkpt>
      <trkpt lat="48.15115" lon="4.37271">
        <ele>200.57</ele>
        <time>2017-08-07T17:08:01Z</time>
      </trkpt>
      <trkpt lat="48.15067" lon="4.37268">
        <ele>202.01</ele>
        <time>2017-08-07T17:08:18Z</time>
      </trkpt>
      <trkpt lat="48.1502" lon="4.3726">
        <ele>203.46</ele>
        <time>2017-08-07T17:08:35Z</time>
      </trkpt>
      <trkpt lat="48.14979" lon="4.37251">
        <ele>204.9</ele>
        <time>2017-08-07T17:08:49Z</time>
      </trkpt>
      <trkpt lat="48.14924" lon="4.37242">
        <ele>206.34</ele>
        <time>2017-08-07T17:09:06Z</time>
      </trkpt>
      <trkpt lat="48.14867" lon="4.37233">
        <ele>207.3</ele>
        <time>2017-08-07T17:09:23Z</time>
      </trkpt>
      <trkpt lat="48.14817" lon="4.37217">
        <ele>207.78</ele>
        <time>2017-08-07T17:09:37Z</time>
      </trkpt>
      <trkpt lat="48.14769" lon="4.37185">
        <ele>208.74</ele>
        <time>2017-08-07T17:09:52Z</time>
      </trkpt>
      <trkpt lat="48.14734" lon="4.37141">
        <ele>209.22</ele>
        <time>2017-08-07T17:10:05Z</time>
      </trkpt>
      <trkpt lat="48.14697" lon="4.37086">
        <ele>210.19</ele>
        <time>2017-08-07T17:10:19Z</time>
      </trkpt>
      <trkpt lat="48.14655" lon="4.37023">
        <ele>210.19</ele>
        <time>2017-08-07T17:10:34Z</time>
      </trkpt>
      <trkpt lat="48.14637" lon="4.36998">
        <ele>210.67</ele>
        <time>2017-08-07T17:10:40Z</time>
      </trkpt>
      <trkpt lat="48.14634" lon="4.36994">
        <ele>210.67</ele>
        <time>2017-08-07T17:10:41Z</time>
      </trkpt>
      <trkpt lat="48.14584" lon="4.3693">
        <ele>212.11</ele>
        <time>2017-08-07T17:10:58Z</time>
      </trkpt>
      <trkpt lat="48.14529" lon="4.36874">
        <ele>212.59</ele>
        <time>2017-08-07T17:11:16Z</time>
      </trkpt>
      <trkpt lat="48.14478" lon="4.36846">
        <ele>212.59</ele>
        <time>2017-08-07T17:11:30Z</time>
      </trkpt>
      <trkpt lat="48.14424" lon="4.36817">
        <ele>212.59</ele>
        <time>2017-08-07T17:11:45Z</time>
      </trkpt>
      <trkpt lat="48.14409" lon="4.36809">
        <ele>212.59</ele>
        <time>2017-08-07T17:11:49Z</time>
      </trkpt>
      <trkpt lat="48.14388" lon="4.36799">
        <ele>212.59</ele>
        <time>2017-08-07T17:11:54Z</time>
      </trkpt>
      <trkpt lat="48.14323" lon="4.36758">
        <ele>211.15</ele>
        <time>2017-08-07T17:12:08Z</time>
      </trkpt>
      <trkpt lat="48.14243" lon="4.36688">
        <ele>211.15</ele>
        <time>2017-08-07T17:12:26Z</time>
      </trkpt>
      <trkpt lat="48.14137" lon="4.36586">
        <ele>210.67</ele>
        <time>2017-08-07T17:12:47Z</time>
      </trkpt>
      <trkpt lat="48.14058" lon="4.36506">
        <ele>211.63</ele>
        <time>2017-08-07T17:13:05Z</time>
      </trkpt>
      <trkpt lat="48.14004" lon="4.36444">
        <ele>212.11</ele>
        <time>2017-08-07T17:13:20Z</time>
      </trkpt>
      <trkpt lat="48.13958" lon="4.36369">
        <ele>212.11</ele>
        <time>2017-08-07T17:13:35Z</time>
      </trkpt>
      <trkpt lat="48.13916" lon="4.36288">
        <ele>211.15</ele>
        <time>2017-08-07T17:13:49Z</time>
      </trkpt>
      <trkpt lat="48.13864" lon="4.36188">
        <ele>209.22</ele>
        <time>2017-08-07T17:14:05Z</time>
      </trkpt>
      <trkpt lat="48.13815" lon="4.36107">
        <ele>206.34</ele>
        <time>2017-08-07T17:14:16Z</time>
      </trkpt>
      <trkpt lat="48.13746" lon="4.36007">
        <ele>202.98</ele>
        <time>2017-08-07T17:14:29Z</time>
      </trkpt>
      <trkpt lat="48.13686" lon="4.3593">
        <ele>199.61</ele>
        <time>2017-08-07T17:14:39Z</time>
      </trkpt>
      <trkpt lat="48.13657" lon="4.35897">
        <ele>196.25</ele>
        <time>2017-08-07T17:14:43Z</time>
      </trkpt>
      <trkpt lat="48.13623" lon="4.35864">
        <ele>193.36</ele>
        <time>2017-08-07T17:14:47Z</time>
      </trkpt>
      <trkpt lat="48.13595" lon="4.35837">
        <ele>190.48</ele>
        <time>2017-08-07T17:14:50Z</time>
      </trkpt>
      <trkpt lat="48.13567" lon="4.35809">
        <ele>187.11</ele>
        <time>2017-08-07T17:14:53Z</time>
      </trkpt>
      <trkpt lat="48.13535" lon="4.35781">
        <ele>183.27</ele>
        <time>2017-08-07T17:14:56Z</time>
      </trkpt>
      <trkpt lat="48.135" lon="4.35756">
        <ele>179.42</ele>
        <time>2017-08-07T17:14:59Z</time>
      </trkpt>
      <trkpt lat="48.13462" lon="4.35732">
        <ele>176.06</ele>
        <time>2017-08-07T17:15:02Z</time>
      </trkpt>
      <trkpt lat="48.13449" lon="4.35722">
        <ele>176.06</ele>
        <time>2017-08-07T17:15:03Z</time>
      </trkpt>
      <trkpt lat="48.13442" lon="4.35716">
        <ele>175.58</ele>
        <time>2017-08-07T17:15:04Z</time>
      </trkpt>
      <trkpt lat="48.13435" lon="4.35705">
        <ele>175.1</ele>
        <time>2017-08-07T17:15:05Z</time>
      </trkpt>
      <trkpt lat="48.13431" lon="4.35694">
        <ele>174.14</ele>
        <time>2017-08-07T17:15:06Z</time>
      </trkpt>
      <trkpt lat="48.13429" lon="4.3568">
        <ele>173.66</ele>
        <time>2017-08-07T17:15:07Z</time>
      </trkpt>
      <trkpt lat="48.13426" lon="4.35666">
        <ele>172.69</ele>
        <time>2017-08-07T17:15:08Z</time>
      </trkpt>
      <trkpt lat="48.13415" lon="4.35604">
        <ele>168.85</ele>
        <time>2017-08-07T17:15:12Z</time>
      </trkpt>
      <trkpt lat="48.13401" lon="4.35545">
        <ele>166.45</ele>
        <time>2017-08-07T17:15:16Z</time>
      </trkpt>
      <trkpt lat="48.13386" lon="4.35493">
        <ele>163.08</ele>
        <time>2017-08-07T17:15:20Z</time>
      </trkpt>
      <trkpt lat="48.13382" lon="4.35482">
        <ele>162.12</ele>
        <time>2017-08-07T17:15:21Z</time>
      </trkpt>
      <trkpt lat="48.13377" lon="4.35471">
        <ele>161.64</ele>
        <time>2017-08-07T17:15:22Z</time>
      </trkpt>
      <trkpt lat="48.13372" lon="4.35465">
        <ele>161.64</ele>
        <time>2017-08-07T17:15:23Z</time>
      </trkpt>
      <trkpt lat="48.13364" lon="4.35458">
        <ele>160.68</ele>
        <time>2017-08-07T17:15:24Z</time>
      </trkpt>
      <trkpt lat="48.13359" lon="4.35456">
        <ele>160.2</ele>
        <time>2017-08-07T17:15:25Z</time>
      </trkpt>
      <trkpt lat="48.13354" lon="4.35455">
        <ele>160.2</ele>
        <time>2017-08-07T17:15:26Z</time>
      </trkpt>
      <trkpt lat="48.1335" lon="4.35455">
        <ele>160.2</ele>
        <time>2017-08-07T17:15:27Z</time>
      </trkpt>
      <trkpt lat="48.13348" lon="4.35455">
        <ele>160.2</ele>
        <time>2017-08-07T17:15:28Z</time>
      </trkpt>
      <trkpt lat="48.1333" lon="4.35466">
        <ele>158.75</ele>
        <time>2017-08-07T17:15:36Z</time>
      </trkpt>
      <trkpt lat="48.13316" lon="4.35552">
        <ele>158.27</ele>
        <time>2017-08-07T17:15:50Z</time>
      </trkpt>
      <trkpt lat="48.13297" lon="4.35664">
        <ele>158.27</ele>
        <time>2017-08-07T17:16:07Z</time>
      </trkpt>
      <trkpt lat="48.13271" lon="4.35781">
        <ele>156.83</ele>
        <time>2017-08-07T17:16:24Z</time>
      </trkpt>
      <trkpt lat="48.1325" lon="4.35868">
        <ele>155.87</ele>
        <time>2017-08-07T17:16:36Z</time>
      </trkpt>
      <trkpt lat="48.13246" lon="4.35874">
        <ele>155.87</ele>
        <time>2017-08-07T17:16:37Z</time>
      </trkpt>
      <trkpt lat="48.13241" lon="4.35875">
        <ele>155.39</ele>
        <time>2017-08-07T17:16:38Z</time>
      </trkpt>
      <trkpt lat="48.13236" lon="4.35873">
        <ele>155.39</ele>
        <time>2017-08-07T17:16:39Z</time>
      </trkpt>
      <trkpt lat="48.13231" lon="4.35871">
        <ele>154.91</ele>
        <time>2017-08-07T17:16:40Z</time>
      </trkpt>
      <trkpt lat="48.1315" lon="4.35828">
        <ele>154.43</ele>
        <time>2017-08-07T17:16:57Z</time>
      </trkpt>
      <trkpt lat="48.13087" lon="4.35796">
        <ele>153.95</ele>
        <time>2017-08-07T17:17:10Z</time>
      </trkpt>
      <trkpt lat="48.13061" lon="4.35778">
        <ele>153.95</ele>
        <time>2017-08-07T17:17:16Z</time>
      </trkpt>
      <trkpt lat="48.13056" lon="4.35777">
        <ele>153.95</ele>
        <time>2017-08-07T17:17:17Z</time>
      </trkpt>
      <trkpt lat="48.13052" lon="4.35779">
        <ele>153.95</ele>
        <time>2017-08-07T17:17:18Z</time>
      </trkpt>
      <trkpt lat="48.13048" lon="4.35782">
        <ele>153.95</ele>
        <time>2017-08-07T17:17:19Z</time>
      </trkpt>
      <trkpt lat="48.13046" lon="4.35787">
        <ele>153.95</ele>
        <time>2017-08-07T17:17:20Z</time>
      </trkpt>
      <trkpt lat="48.13044" lon="4.35792">
        <ele>153.95</ele>
        <time>2017-08-07T17:17:21Z</time>
      </trkpt>
      <trkpt lat="48.13042" lon="4.35798">
        <ele>153.95</ele>
        <time>2017-08-07T17:17:22Z</time>
      </trkpt>
      <trkpt lat="48.13041" lon="4.35804">
        <ele>153.95</ele>
        <time>2017-08-07T17:17:23Z</time>
      </trkpt>
      <trkpt lat="48.13029" lon="4.35877">
        <ele>153.95</ele>
        <time>2017-08-07T17:17:37Z</time>
      </trkpt>
      <trkpt lat="48.13027" lon="4.35878">
        <ele>153.95</ele>
        <time>2017-08-07T17:17:38Z</time>
      </trkpt>
      <trkpt lat="48.13024" lon="4.35878">
        <ele>153.95</ele>
        <time>2017-08-07T17:17:39Z</time>
      </trkpt>
      <trkpt lat="48.13022" lon="4.35877">
        <ele>153.95</ele>
        <time>2017-08-07T17:17:40Z</time>
      </trkpt>
      <trkpt lat="48.13018" lon="4.35877">
        <ele>153.95</ele>
        <time>2017-08-07T17:17:41Z</time>
      </trkpt>
      <trkpt lat="48.13015" lon="4.3588">
        <ele>153.95</ele>
        <time>2017-08-07T17:17:42Z</time>
      </trkpt>
      <trkpt lat="48.13012" lon="4.35886">
        <ele>153.95</ele>
        <time>2017-08-07T17:17:43Z</time>
      </trkpt>
      <trkpt lat="48.13011" lon="4.35889">
        <ele>153.95</ele>
        <time>2017-08-07T17:17:44Z</time>
      </trkpt>
      <trkpt lat="48.1301" lon="4.35894">
        <ele>153.95</ele>
        <time>2017-08-07T17:17:45Z</time>
      </trkpt>
      <trkpt lat="48.13009" lon="4.359">
        <ele>153.95</ele>
        <time>2017-08-07T17:17:46Z</time>
      </trkpt>
      <trkpt lat="48.13001" lon="4.35977">
        <ele>153.95</ele>
        <time>2017-08-07T17:17:58Z</time>
      </trkpt>
      <trkpt lat="48.12994" lon="4.36008">
        <ele>153.95</ele>
        <time>2017-08-07T17:18:03Z</time>
      </trkpt>
      <trkpt lat="48.12992" lon="4.36014">
        <ele>153.95</ele>
        <time>2017-08-07T17:18:04Z</time>
      </trkpt>
      <trkpt lat="48.12989" lon="4.3602">
        <ele>153.95</ele>
        <time>2017-08-07T17:18:05Z</time>
      </trkpt>
      <trkpt lat="48.12987" lon="4.36025">
        <ele>153.95</ele>
        <time>2017-08-07T17:18:06Z</time>
      </trkpt>
      <trkpt lat="48.12984" lon="4.3603">
        <ele>153.95</ele>
        <time>2017-08-07T17:18:07Z</time>
      </trkpt>
      <trkpt lat="48.12981" lon="4.36035">
        <ele>153.95</ele>
        <time>2017-08-07T17:18:08Z</time>
      </trkpt>
      <trkpt lat="48.12977" lon="4.36039">
        <ele>153.95</ele>
        <time>2017-08-07T17:18:09Z</time>
      </trkpt>
      <trkpt lat="48.12973" lon="4.36042">
        <ele>153.95</ele>
        <time>2017-08-07T17:18:10Z</time>
      </trkpt>
      <trkpt lat="48.1297" lon="4.36044">
        <ele>153.95</ele>
        <time>2017-08-07T17:18:11Z</time>
      </trkpt>
      <trkpt lat="48.12966" lon="4.36046">
        <ele>153.95</ele>
        <time>2017-08-07T17:18:12Z</time>
      </trkpt>
      <trkpt lat="48.12945" lon="4.36046">
        <ele>155.39</ele>
        <time>2017-08-07T17:18:19Z</time>
      </trkpt>
      <trkpt lat="48.12944" lon="4.36048">
        <ele>155.39</ele>
        <time>2017-08-07T17:18:20Z</time>
      </trkpt>
      <trkpt lat="48.12945" lon="4.3605">
        <ele>155.39</ele>
        <time>2017-08-07T17:18:21Z</time>
      </trkpt>
      <trkpt lat="48.12947" lon="4.36051">
        <ele>155.39</ele>
        <time>2017-08-07T17:18:22Z</time>
      </trkpt>
      <trkpt lat="48.12949" lon="4.36052">
        <ele>155.39</ele>
        <time>2017-08-07T17:18:23Z</time>
      </trkpt>
      <trkpt lat="48.12953" lon="4.36052">
        <ele>155.39</ele>
        <time>2017-08-07T17:18:24Z</time>
      </trkpt>
      <trkpt lat="48.12964" lon="4.36058">
        <ele>155.39</ele>
        <time>2017-08-07T17:18:28Z</time>
      </trkpt>
      <trkpt lat="48.12965" lon="4.36063">
        <ele>155.39</ele>
        <time>2017-08-07T17:18:29Z</time>
      </trkpt>
      <trkpt lat="48.12965" lon="4.36069">
        <ele>155.39</ele>
        <time>2017-08-07T17:18:30Z</time>
      </trkpt>
      <trkpt lat="48.12964" lon="4.36075">
        <ele>155.39</ele>
        <time>2017-08-07T17:18:31Z</time>
      </trkpt>
      <trkpt lat="48.12963" lon="4.36081">
        <ele>155.39</ele>
        <time>2017-08-07T17:18:32Z</time>
      </trkpt>
      <trkpt lat="48.12948" lon="4.36155">
        <ele>155.39</ele>
        <time>2017-08-07T17:18:45Z</time>
      </trkpt>
      <trkpt lat="48.12944" lon="4.36197">
        <ele>155.39</ele>
        <time>2017-08-07T17:18:52Z</time>
      </trkpt>
      <trkpt lat="48.12944" lon="4.36203">
        <ele>155.39</ele>
        <time>2017-08-07T17:18:53Z</time>
      </trkpt>
      <trkpt lat="48.12938" lon="4.36258">
        <ele>155.39</ele>
        <time>2017-08-07T17:19:02Z</time>
      </trkpt>
      <trkpt lat="48.12915" lon="4.3634">
        <ele>155.39</ele>
        <time>2017-08-07T17:19:14Z</time>
      </trkpt>
      <trkpt lat="48.12892" lon="4.36433">
        <ele>155.87</ele>
        <time>2017-08-07T17:19:27Z</time>
      </trkpt>
      <trkpt lat="48.12878" lon="4.36504">
        <ele>156.35</ele>
        <time>2017-08-07T17:19:38Z</time>
      </trkpt>
      <trkpt lat="48.1285" lon="4.3651">
        <ele>155.39</ele>
        <time>2017-08-07T17:19:45Z</time>
      </trkpt>
      <trkpt lat="48.12845" lon="4.36507">
        <ele>155.39</ele>
        <time>2017-08-07T17:19:46Z</time>
      </trkpt>
      <trkpt lat="48.12831" lon="4.36496">
        <ele>155.39</ele>
        <time>2017-08-07T17:19:49Z</time>
      </trkpt>
      <trkpt lat="48.1281" lon="4.36481">
        <ele>155.39</ele>
        <time>2017-08-07T17:19:54Z</time>
      </trkpt>
      <trkpt lat="48.12775" lon="4.36503">
        <ele>154.91</ele>
        <time>2017-08-07T17:20:02Z</time>
      </trkpt>
      <trkpt lat="48.12772" lon="4.36511">
        <ele>154.91</ele>
        <time>2017-08-07T17:20:03Z</time>
      </trkpt>
      <trkpt lat="48.12752" lon="4.36554">
        <ele>154.91</ele>
        <time>2017-08-07T17:20:10Z</time>
      </trkpt>
      <trkpt lat="48.12718" lon="4.36629">
        <ele>154.43</ele>
        <time>2017-08-07T17:20:24Z</time>
      </trkpt>
      <trkpt lat="48.12689" lon="4.36697">
        <ele>154.43</ele>
        <time>2017-08-07T17:20:38Z</time>
      </trkpt>
      <trkpt lat="48.12675" lon="4.36768">
        <ele>155.39</ele>
        <time>2017-08-07T17:20:52Z</time>
      </trkpt>
      <trkpt lat="48.12675" lon="4.36772">
        <ele>155.39</ele>
        <time>2017-08-07T17:20:53Z</time>
      </trkpt>
      <trkpt lat="48.12679" lon="4.36832">
        <ele>156.35</ele>
        <time>2017-08-07T17:21:07Z</time>
      </trkpt>
      <trkpt lat="48.12683" lon="4.36889">
        <ele>156.83</ele>
        <time>2017-08-07T17:21:19Z</time>
      </trkpt>
      <trkpt lat="48.12681" lon="4.36954">
        <ele>156.83</ele>
        <time>2017-08-07T17:21:30Z</time>
      </trkpt>
      <trkpt lat="48.12684" lon="4.3703">
        <ele>156.83</ele>
        <time>2017-08-07T17:21:43Z</time>
      </trkpt>
      <trkpt lat="48.12685" lon="4.37111">
        <ele>155.39</ele>
        <time>2017-08-07T17:21:57Z</time>
      </trkpt>
      <trkpt lat="48.12681" lon="4.37181">
        <ele>155.39</ele>
        <time>2017-08-07T17:22:09Z</time>
      </trkpt>
      <trkpt lat="48.12679" lon="4.37206">
        <ele>155.39</ele>
        <time>2017-08-07T17:22:13Z</time>
      </trkpt>
      <trkpt lat="48.12672" lon="4.37279">
        <ele>156.35</ele>
        <time>2017-08-07T17:22:26Z</time>
      </trkpt>
      <trkpt lat="48.12665" lon="4.37324">
        <ele>156.35</ele>
        <time>2017-08-07T17:22:35Z</time>
      </trkpt>
      <trkpt lat="48.12651" lon="4.37371">
        <ele>156.83</ele>
        <time>2017-08-07T17:22:45Z</time>
      </trkpt>
      <trkpt lat="48.12634" lon="4.37416">
        <ele>156.83</ele>
        <time>2017-08-07T17:22:54Z</time>
      </trkpt>
      <trkpt lat="48.12621" lon="4.37427">
        <ele>156.83</ele>
        <time>2017-08-07T17:23:01Z</time>
      </trkpt>
      <trkpt lat="48.12617" lon="4.37434">
        <ele>156.83</ele>
        <time>2017-08-07T17:23:04Z</time>
      </trkpt>
      <trkpt lat="48.12588" lon="4.37478">
        <ele>156.83</ele>
        <time>2017-08-07T17:23:16Z</time>
      </trkpt>
      <trkpt lat="48.12583" lon="4.37486">
        <ele>156.83</ele>
        <time>2017-08-07T17:23:18Z</time>
      </trkpt>
      <trkpt lat="48.12574" lon="4.37517">
        <ele>156.83</ele>
        <time>2017-08-07T17:23:26Z</time>
      </trkpt>
      <trkpt lat="48.12542" lon="4.37564">
        <ele>155.39</ele>
        <time>2017-08-07T17:23:38Z</time>
      </trkpt>
      <trkpt lat="48.12507" lon="4.37614">
        <ele>155.39</ele>
        <time>2017-08-07T17:23:52Z</time>
      </trkpt>
      <trkpt lat="48.12482" lon="4.37648">
        <ele>155.39</ele>
        <time>2017-08-07T17:24:01Z</time>
      </trkpt>
      <trkpt lat="48.12475" lon="4.37655">
        <ele>155.39</ele>
        <time>2017-08-07T17:24:03Z</time>
      </trkpt>
      <trkpt lat="48.12445" lon="4.37689">
        <ele>155.39</ele>
        <time>2017-08-07T17:24:12Z</time>
      </trkpt>
      <trkpt lat="48.12442" lon="4.37693">
        <ele>155.39</ele>
        <time>2017-08-07T17:24:13Z</time>
      </trkpt>
      <trkpt lat="48.12369" lon="4.37766">
        <ele>155.39</ele>
        <time>2017-08-07T17:24:34Z</time>
      </trkpt>
      <trkpt lat="48.12322" lon="4.37804">
        <ele>156.35</ele>
        <time>2017-08-07T17:24:47Z</time>
      </trkpt>
      <trkpt lat="48.1229" lon="4.37826">
        <ele>156.83</ele>
        <time>2017-08-07T17:24:56Z</time>
      </trkpt>
      <trkpt lat="48.12244" lon="4.37838">
        <ele>157.31</ele>
        <time>2017-08-07T17:25:07Z</time>
      </trkpt>
      <trkpt lat="48.12239" lon="4.37838">
        <ele>157.31</ele>
        <time>2017-08-07T17:25:08Z</time>
      </trkpt>
      <trkpt lat="48.12169" lon="4.37854">
        <ele>157.31</ele>
        <time>2017-08-07T17:25:24Z</time>
      </trkpt>
      <trkpt lat="48.12108" lon="4.37891">
        <ele>157.31</ele>
        <time>2017-08-07T17:25:39Z</time>
      </trkpt>
      <trkpt lat="48.12104" lon="4.37893">
        <ele>157.31</ele>
        <time>2017-08-07T17:25:40Z</time>
      </trkpt>
      <trkpt lat="48.12087" lon="4.37903">
        <ele>157.31</ele>
        <time>2017-08-07T17:25:44Z</time>
      </trkpt>
      <trkpt lat="48.12057" lon="4.37914">
        <ele>157.31</ele>
        <time>2017-08-07T17:25:51Z</time>
      </trkpt>
      <trkpt lat="48.11977" lon="4.37966">
        <ele>157.31</ele>
        <time>2017-08-07T17:26:09Z</time>
      </trkpt>
      <trkpt lat="48.1195" lon="4.37984">
        <ele>155.87</ele>
        <time>2017-08-07T17:26:15Z</time>
      </trkpt>
      <trkpt lat="48.11891" lon="4.38017">
        <ele>155.87</ele>
        <time>2017-08-07T17:26:29Z</time>
      </trkpt>
      <trkpt lat="48.11828" lon="4.38054">
        <ele>155.87</ele>
        <time>2017-08-07T17:26:45Z</time>
      </trkpt>
      <trkpt lat="48.11769" lon="4.38087">
        <ele>155.87</ele>
        <time>2017-08-07T17:27:00Z</time>
      </trkpt>
      <trkpt lat="48.1171" lon="4.38089">
        <ele>156.83</ele>
        <time>2017-08-07T17:27:13Z</time>
      </trkpt>
      <trkpt lat="48.117" lon="4.38088">
        <ele>156.83</ele>
        <time>2017-08-07T17:27:15Z</time>
      </trkpt>
      <trkpt lat="48.1169" lon="4.38086">
        <ele>156.83</ele>
        <time>2017-08-07T17:27:17Z</time>
      </trkpt>
      <trkpt lat="48.11672" lon="4.38085">
        <ele>156.83</ele>
        <time>2017-08-07T17:27:21Z</time>
      </trkpt>
      <trkpt lat="48.11667" lon="4.38084">
        <ele>156.83</ele>
        <time>2017-08-07T17:27:22Z</time>
      </trkpt>
      <trkpt lat="48.11663" lon="4.38084">
        <ele>156.83</ele>
        <time>2017-08-07T17:27:23Z</time>
      </trkpt>
      <trkpt lat="48.11636" lon="4.38081">
        <ele>156.83</ele>
        <time>2017-08-07T17:27:29Z</time>
      </trkpt>
      <trkpt lat="48.11632" lon="4.38081">
        <ele>156.83</ele>
        <time>2017-08-07T17:27:30Z</time>
      </trkpt>
      <trkpt lat="48.11583" lon="4.38073">
        <ele>156.83</ele>
        <time>2017-08-07T17:27:43Z</time>
      </trkpt>
      <trkpt lat="48.11578" lon="4.3807">
        <ele>156.83</ele>
        <time>2017-08-07T17:27:45Z</time>
      </trkpt>
      <trkpt lat="48.11576" lon="4.38066">
        <ele>156.83</ele>
        <time>2017-08-07T17:27:46Z</time>
      </trkpt>
      <trkpt lat="48.11576" lon="4.38063">
        <ele>156.83</ele>
        <time>2017-08-07T17:27:47Z</time>
      </trkpt>
      <trkpt lat="48.11558" lon="4.37983">
        <ele>157.31</ele>
        <time>2017-08-07T17:28:02Z</time>
      </trkpt>
      <trkpt lat="48.1154" lon="4.37881">
        <ele>157.31</ele>
        <time>2017-08-07T17:28:20Z</time>
      </trkpt>
      <trkpt lat="48.11522" lon="4.37807">
        <ele>158.27</ele>
        <time>2017-08-07T17:28:35Z</time>
      </trkpt>
      <trkpt lat="48.11503" lon="4.37739">
        <ele>157.79</ele>
        <time>2017-08-07T17:28:48Z</time>
      </trkpt>
      <trkpt lat="48.11484" lon="4.37672">
        <ele>157.79</ele>
        <time>2017-08-07T17:29:02Z</time>
      </trkpt>
      <trkpt lat="48.11489" lon="4.37659">
        <ele>157.79</ele>
        <time>2017-08-07T17:29:07Z</time>
      </trkpt>
      <trkpt lat="48.1149" lon="4.37658">
        <ele>157.79</ele>
        <time>2017-08-07T17:29:08Z</time>
      </trkpt>
      <trkpt lat="48.1149" lon="4.37658">
        <ele>157.79</ele>
        <time>2017-08-07T17:29:19Z</time>
      </trkpt>
      <trkpt lat="48.11492" lon="4.37659">
        <ele>157.79</ele>
        <time>2017-08-07T17:29:37Z</time>
      </trkpt>
      <trkpt lat="48.11492" lon="4.37655">
        <ele>157.79</ele>
        <time>2017-08-07T17:29:46Z</time>
      </trkpt>
      <trkpt lat="48.11492" lon="4.37652">
        <ele>157.79</ele>
        <time>2017-08-07T17:29:47Z</time>
      </trkpt>
      <trkpt lat="48.11487" lon="4.37643">
        <ele>157.79</ele>
        <time>2017-08-07T17:29:49Z</time>
      </trkpt>
      <trkpt lat="48.11483" lon="4.37643">
        <ele>157.79</ele>
        <time>2017-08-07T17:29:50Z</time>
      </trkpt>
      <trkpt lat="48.1148" lon="4.37643">
        <ele>157.79</ele>
        <time>2017-08-07T17:29:51Z</time>
      </trkpt>
      <trkpt lat="48.11473" lon="4.37638">
        <ele>156.83</ele>
        <time>2017-08-07T17:29:53Z</time>
      </trkpt>
      <trkpt lat="48.11472" lon="4.37634">
        <ele>156.83</ele>
        <time>2017-08-07T17:29:54Z</time>
      </trkpt>
      <trkpt lat="48.11471" lon="4.37631">
        <ele>156.83</ele>
        <time>2017-08-07T17:29:55Z</time>
      </trkpt>
      <trkpt lat="48.11469" lon="4.37625">
        <ele>156.83</ele>
        <time>2017-08-07T17:29:56Z</time>
      </trkpt>
      <trkpt lat="48.11468" lon="4.37619">
        <ele>156.83</ele>
        <time>2017-08-07T17:29:57Z</time>
      </trkpt>
      <trkpt lat="48.11452" lon="4.37534">
        <ele>156.83</ele>
        <time>2017-08-07T17:30:11Z</time>
      </trkpt>
      <trkpt lat="48.11441" lon="4.37491">
        <ele>156.83</ele>
        <time>2017-08-07T17:30:18Z</time>
      </trkpt>
      <trkpt lat="48.1144" lon="4.37485">
        <ele>156.83</ele>
        <time>2017-08-07T17:30:19Z</time>
      </trkpt>
      <trkpt lat="48.11438" lon="4.37473">
        <ele>157.79</ele>
        <time>2017-08-07T17:30:21Z</time>
      </trkpt>
      <trkpt lat="48.11419" lon="4.37419">
        <ele>158.27</ele>
        <time>2017-08-07T17:30:35Z</time>
      </trkpt>
      <trkpt lat="48.11419" lon="4.37417">
        <ele>158.75</ele>
        <time>2017-08-07T17:30:36Z</time>
      </trkpt>
      <trkpt lat="48.11409" lon="4.37362">
        <ele>159.72</ele>
        <time>2017-08-07T17:30:51Z</time>
      </trkpt>
      <trkpt lat="48.11406" lon="4.37349">
        <ele>160.2</ele>
        <time>2017-08-07T17:31:01Z</time>
      </trkpt>
      <trkpt lat="48.11409" lon="4.37344">
        <ele>160.2</ele>
        <time>2017-08-07T17:31:15Z</time>
      </trkpt>
      <trkpt lat="48.11411" lon="4.37343">
        <ele>160.2</ele>
        <time>2017-08-07T17:31:16Z</time>
      </trkpt>
      <trkpt lat="48.11412" lon="4.37343">
        <ele>160.2</ele>
        <time>2017-08-07T17:31:17Z</time>
      </trkpt>
      <trkpt lat="48.1144" lon="4.37334">
        <ele>160.2</ele>
        <time>2017-08-07T17:31:28Z</time>
      </trkpt>
      <trkpt lat="48.11483" lon="4.37317">
        <ele>160.68</ele>
        <time>2017-08-07T17:31:43Z</time>
      </trkpt>
      <trkpt lat="48.11518" lon="4.37303">
        <ele>161.16</ele>
        <time>2017-08-07T17:31:55Z</time>
      </trkpt>
      <trkpt lat="48.11521" lon="4.37304">
        <ele>161.16</ele>
        <time>2017-08-07T17:31:56Z</time>
      </trkpt>
      <trkpt lat="48.11524" lon="4.37303">
        <ele>161.16</ele>
        <time>2017-08-07T17:31:57Z</time>
      </trkpt>
      <trkpt lat="48.11525" lon="4.373">
        <ele>161.16</ele>
        <time>2017-08-07T17:31:58Z</time>
      </trkpt>
      <trkpt lat="48.11524" lon="4.37297">
        <ele>161.16</ele>
        <time>2017-08-07T17:31:59Z</time>
      </trkpt>
      <trkpt lat="48.11521" lon="4.37297">
        <ele>161.16</ele>
        <time>2017-08-07T17:32:00Z</time>
      </trkpt>
      <trkpt lat="48.11519" lon="4.37298">
        <ele>161.64</ele>
        <time>2017-08-07T17:32:01Z</time>
      </trkpt>
      <trkpt lat="48.11517" lon="4.373">
        <ele>161.64</ele>
        <time>2017-08-07T17:32:02Z</time>
      </trkpt>
      <trkpt lat="48.11504" lon="4.37308">
        <ele>161.64</ele>
        <time>2017-08-07T17:32:15Z</time>
      </trkpt>
      <trkpt lat="48.11496" lon="4.37316">
        <ele>161.64</ele>
        <time>2017-08-07T17:32:31Z</time>
      </trkpt>
      <trkpt lat="48.11495" lon="4.37318">
        <ele>161.64</ele>
        <time>2017-08-07T17:32:32Z</time>
      </trkpt>
      <trkpt lat="48.11495" lon="4.37322">
        <ele>161.64</ele>
        <time>2017-08-07T17:32:33Z</time>
      </trkpt>
      <trkpt lat="48.11494" lon="4.37325">
        <ele>161.64</ele>
        <time>2017-08-07T17:32:34Z</time>
      </trkpt>
      <trkpt lat="48.11492" lon="4.37328">
        <ele>161.64</ele>
        <time>2017-08-07T17:32:35Z</time>
      </trkpt>
      <trkpt lat="48.1149" lon="4.3733">
        <ele>161.64</ele>
        <time>2017-08-07T17:32:36Z</time>
      </trkpt>
      <trkpt lat="48.11487" lon="4.37332">
        <ele>161.64</ele>
        <time>2017-08-07T17:32:37Z</time>
      </trkpt>
      <trkpt lat="48.1145" lon="4.37363">
        <ele>159.72</ele>
        <time>2017-08-07T17:32:50Z</time>
      </trkpt>
      <trkpt lat="48.11443" lon="4.37368">
        <ele>159.72</ele>
        <time>2017-08-07T17:32:52Z</time>
      </trkpt>
      <trkpt lat="48.11416" lon="4.37377">
        <ele>159.24</ele>
        <time>2017-08-07T17:32:59Z</time>
      </trkpt>
      <trkpt lat="48.11413" lon="4.37376">
        <ele>159.24</ele>
        <time>2017-08-07T17:33:00Z</time>
      </trkpt>
      <trkpt lat="48.11412" lon="4.37374">
        <ele>159.24</ele>
        <time>2017-08-07T17:33:01Z</time>
      </trkpt>
      <trkpt lat="48.1141" lon="4.37371">
        <ele>159.24</ele>
        <time>2017-08-07T17:33:02Z</time>
      </trkpt>
      <trkpt lat="48.1141" lon="4.37368">
        <ele>159.24</ele>
        <time>2017-08-07T17:33:03Z</time>
      </trkpt>
      <trkpt lat="48.11409" lon="4.37365">
        <ele>159.24</ele>
        <time>2017-08-07T17:33:04Z</time>
      </trkpt>
      <trkpt lat="48.11409" lon="4.3736">
        <ele>159.24</ele>
        <time>2017-08-07T17:33:05Z</time>
      </trkpt>
      <trkpt lat="48.11407" lon="4.37356">
        <ele>159.24</ele>
        <time>2017-08-07T17:33:06Z</time>
      </trkpt>
      <trkpt lat="48.11406" lon="4.37353">
        <ele>159.24</ele>
        <time>2017-08-07T17:33:07Z</time>
      </trkpt>
      <trkpt lat="48.11404" lon="4.3735">
        <ele>160.68</ele>
        <time>2017-08-07T17:33:08Z</time>
      </trkpt>
      <trkpt lat="48.11402" lon="4.37349">
        <ele>160.68</ele>
        <time>2017-08-07T17:33:09Z</time>
      </trkpt>
      <trkpt lat="48.11399" lon="4.37349">
        <ele>160.68</ele>
        <time>2017-08-07T17:33:10Z</time>
      </trkpt>
      <trkpt lat="48.11396" lon="4.37349">
        <ele>160.68</ele>
        <time>2017-08-07T17:33:11Z</time>
      </trkpt>
      <trkpt lat="48.11393" lon="4.3735">
        <ele>160.68</ele>
        <time>2017-08-07T17:33:12Z</time>
      </trkpt>
      <trkpt lat="48.1139" lon="4.37351">
        <ele>160.68</ele>
        <time>2017-08-07T17:33:13Z</time>
      </trkpt>
      <trkpt lat="48.11355" lon="4.37358">
        <ele>161.16</ele>
        <time>2017-08-07T17:33:26Z</time>
      </trkpt>
      <trkpt lat="48.11314" lon="4.37366">
        <ele>160.68</ele>
        <time>2017-08-07T17:33:41Z</time>
      </trkpt>
      <trkpt lat="48.11293" lon="4.37372">
        <ele>160.68</ele>
        <time>2017-08-07T17:33:51Z</time>
      </trkpt>
      <trkpt lat="48.11291" lon="4.37374">
        <ele>160.68</ele>
        <time>2017-08-07T17:33:56Z</time>
      </trkpt>
      <trkpt lat="48.1129" lon="4.37377">
        <ele>160.68</ele>
        <time>2017-08-07T17:33:57Z</time>
      </trkpt>
      <trkpt lat="48.1129" lon="4.3738">
        <ele>160.68</ele>
        <time>2017-08-07T17:33:58Z</time>
      </trkpt>
      <trkpt lat="48.11291" lon="4.37383">
        <ele>160.68</ele>
        <time>2017-08-07T17:33:59Z</time>
      </trkpt>
      <trkpt lat="48.11292" lon="4.37387">
        <ele>160.68</ele>
        <time>2017-08-07T17:34:00Z</time>
      </trkpt>
      <trkpt lat="48.11295" lon="4.37408">
        <ele>159.72</ele>
        <time>2017-08-07T17:34:04Z</time>
      </trkpt>
      <trkpt lat="48.11303" lon="4.37444">
        <ele>159.24</ele>
        <time>2017-08-07T17:34:11Z</time>
      </trkpt>
      <trkpt lat="48.11305" lon="4.37445">
        <ele>159.24</ele>
        <time>2017-08-07T17:34:12Z</time>
      </trkpt>
      <trkpt lat="48.11306" lon="4.37445">
        <ele>159.24</ele>
        <time>2017-08-07T17:34:13Z</time>
      </trkpt>
      <trkpt lat="48.11308" lon="4.37444">
        <ele>158.75</ele>
        <time>2017-08-07T17:34:14Z</time>
      </trkpt>
      <trkpt lat="48.1131" lon="4.37444">
        <ele>159.24</ele>
        <time>2017-08-07T17:34:15Z</time>
      </trkpt>
      <trkpt lat="48.11313" lon="4.37443">
        <ele>158.75</ele>
        <time>2017-08-07T17:34:16Z</time>
      </trkpt>
      <trkpt lat="48.11316" lon="4.37443">
        <ele>158.75</ele>
        <time>2017-08-07T17:34:17Z</time>
      </trkpt>
      <trkpt lat="48.11319" lon="4.37442">
        <ele>158.75</ele>
        <time>2017-08-07T17:34:18Z</time>
      </trkpt>
      <trkpt lat="48.11322" lon="4.37441">
        <ele>158.75</ele>
        <time>2017-08-07T17:34:19Z</time>
      </trkpt>
      <trkpt lat="48.11353" lon="4.37437">
        <ele>158.75</ele>
        <time>2017-08-07T17:34:32Z</time>
      </trkpt>
      <trkpt lat="48.11355" lon="4.37436">
        <ele>159.72</ele>
        <time>2017-08-07T17:34:33Z</time>
      </trkpt>
      <trkpt lat="48.11358" lon="4.37432">
        <ele>159.72</ele>
        <time>2017-08-07T17:34:36Z</time>
      </trkpt>
      <trkpt lat="48.11378" lon="4.37433">
        <ele>159.72</ele>
        <time>2017-08-07T17:34:45Z</time>
      </trkpt>
      <trkpt lat="48.1138" lon="4.37434">
        <ele>159.72</ele>
        <time>2017-08-07T17:34:46Z</time>
      </trkpt>
      <trkpt lat="48.11382" lon="4.37432">
        <ele>159.72</ele>
        <time>2017-08-07T17:34:47Z</time>
      </trkpt>
      <trkpt lat="48.11382" lon="4.37429">
        <ele>159.72</ele>
        <time>2017-08-07T17:34:48Z</time>
      </trkpt>
      <trkpt lat="48.11381" lon="4.37427">
        <ele>159.72</ele>
        <time>2017-08-07T17:34:49Z</time>
      </trkpt>
      <trkpt lat="48.11379" lon="4.37427">
        <ele>159.72</ele>
        <time>2017-08-07T17:34:50Z</time>
      </trkpt>
      <trkpt lat="48.11376" lon="4.37427">
        <ele>159.72</ele>
        <time>2017-08-07T17:34:51Z</time>
      </trkpt>
      <trkpt lat="48.11373" lon="4.37426">
        <ele>159.72</ele>
        <time>2017-08-07T17:34:52Z</time>
      </trkpt>
      <trkpt lat="48.11355" lon="4.37433">
        <ele>159.72</ele>
        <time>2017-08-07T17:34:58Z</time>
      </trkpt>
      <trkpt lat="48.11354" lon="4.37437">
        <ele>159.72</ele>
        <time>2017-08-07T17:34:59Z</time>
      </trkpt>
      <trkpt lat="48.11355" lon="4.37441">
        <ele>159.72</ele>
        <time>2017-08-07T17:35:00Z</time>
      </trkpt>
      <trkpt lat="48.11359" lon="4.37468">
        <ele>159.72</ele>
        <time>2017-08-07T17:35:05Z</time>
      </trkpt>
      <trkpt lat="48.1136" lon="4.37474">
        <ele>159.72</ele>
        <time>2017-08-07T17:35:06Z</time>
      </trkpt>
      <trkpt lat="48.11361" lon="4.3748">
        <ele>159.72</ele>
        <time>2017-08-07T17:35:07Z</time>
      </trkpt>
      <trkpt lat="48.11362" lon="4.37488">
        <ele>159.72</ele>
        <time>2017-08-07T17:35:08Z</time>
      </trkpt>
      <trkpt lat="48.11363" lon="4.37493">
        <ele>159.72</ele>
        <time>2017-08-07T17:35:09Z</time>
      </trkpt>
      <trkpt lat="48.11368" lon="4.3752">
        <ele>159.72</ele>
        <time>2017-08-07T17:35:13Z</time>
      </trkpt>
      <trkpt lat="48.11382" lon="4.37597">
        <ele>158.75</ele>
        <time>2017-08-07T17:35:27Z</time>
      </trkpt>
      <trkpt lat="48.11389" lon="4.3764">
        <ele>158.75</ele>
        <time>2017-08-07T17:35:38Z</time>
      </trkpt>
      <trkpt lat="48.11392" lon="4.37676">
        <ele>158.27</ele>
        <time>2017-08-07T17:35:48Z</time>
      </trkpt>
      <trkpt lat="48.11391" lon="4.37679">
        <ele>158.27</ele>
        <time>2017-08-07T17:35:49Z</time>
      </trkpt>
      <trkpt lat="48.11389" lon="4.37682">
        <ele>158.27</ele>
        <time>2017-08-07T17:35:50Z</time>
      </trkpt>
      <trkpt lat="48.11388" lon="4.37684">
        <ele>158.27</ele>
        <time>2017-08-07T17:35:51Z</time>
      </trkpt>
      <trkpt lat="48.11387" lon="4.37688">
        <ele>158.27</ele>
        <time>2017-08-07T17:35:52Z</time>
      </trkpt>
      <trkpt lat="48.11387" lon="4.37691">
        <ele>158.27</ele>
        <time>2017-08-07T17:35:53Z</time>
      </trkpt>
      <trkpt lat="48.11386" lon="4.37702">
        <ele>157.79</ele>
        <time>2017-08-07T17:36:03Z</time>
      </trkpt>
      <trkpt lat="48.11387" lon="4.37705">
        <ele>157.79</ele>
        <time>2017-08-07T17:36:17Z</time>
      </trkpt>
      <trkpt lat="48.11386" lon="4.37705">
        <ele>157.79</ele>
        <time>2017-08-07T17:36:20Z</time>
      </trkpt>
      <trkpt lat="48.11387" lon="4.37702">
        <ele>158.27</ele>
        <time>2017-08-07T18:42:41Z</time>
      </trkpt>
      <trkpt lat="48.11386" lon="4.37704">
        <ele>158.27</ele>
        <time>2017-08-07T18:43:02Z</time>
      </trkpt>
      <trkpt lat="48.11383" lon="4.37705">
        <ele>158.27</ele>
        <time>2017-08-07T18:43:30Z</time>
      </trkpt>
      <trkpt lat="48.11384" lon="4.37701">
        <ele>158.27</ele>
        <time>2017-08-07T18:43:48Z</time>
      </trkpt>
      <trkpt lat="48.11384" lon="4.37701">
        <ele>158.27</ele>
        <time>2017-08-07T18:44:04Z</time>
      </trkpt>
      <trkpt lat="48.11384" lon="4.37698">
        <ele>158.27</ele>
        <time>2017-08-07T18:44:18Z</time>
      </trkpt>
      <trkpt lat="48.11385" lon="4.37697">
        <ele>158.27</ele>
        <time>2017-08-07T18:44:44Z</time>
      </trkpt>
      <trkpt lat="48.11384" lon="4.37694">
        <ele>158.27</ele>
        <time>2017-08-07T18:45:09Z</time>
      </trkpt>
      <trkpt lat="48.11385" lon="4.37697">
        <ele>158.27</ele>
        <time>2017-08-07T18:45:24Z</time>
      </trkpt>
      <trkpt lat="48.11383" lon="4.37692">
        <ele>158.27</ele>
        <time>2017-08-07T18:45:28Z</time>
      </trkpt>
      <trkpt lat="48.11377" lon="4.3769">
        <ele>158.27</ele>
        <time>2017-08-07T18:45:32Z</time>
      </trkpt>
      <trkpt lat="48.11374" lon="4.3769">
        <ele>158.27</ele>
        <time>2017-08-07T18:45:33Z</time>
      </trkpt>
      <trkpt lat="48.11372" lon="4.3769">
        <ele>158.27</ele>
        <time>2017-08-07T18:45:34Z</time>
      </trkpt>
      <trkpt lat="48.1137" lon="4.37691">
        <ele>158.27</ele>
        <time>2017-08-07T18:45:35Z</time>
      </trkpt>
      <trkpt lat="48.11349" lon="4.37691">
        <ele>158.27</ele>
        <time>2017-08-07T18:45:45Z</time>
      </trkpt>
      <trkpt lat="48.11347" lon="4.3769">
        <ele>158.27</ele>
        <time>2017-08-07T18:45:46Z</time>
      </trkpt>
      <trkpt lat="48.11345" lon="4.37689">
        <ele>158.27</ele>
        <time>2017-08-07T18:45:47Z</time>
      </trkpt>
      <trkpt lat="48.11344" lon="4.37688">
        <ele>158.27</ele>
        <time>2017-08-07T18:45:48Z</time>
      </trkpt>
      <trkpt lat="48.11343" lon="4.37687">
        <ele>158.27</ele>
        <time>2017-08-07T18:45:49Z</time>
      </trkpt>
      <trkpt lat="48.11341" lon="4.37686">
        <ele>158.27</ele>
        <time>2017-08-07T18:46:04Z</time>
      </trkpt>
      <trkpt lat="48.11342" lon="4.37686">
        <ele>158.27</ele>
        <time>2017-08-07T18:46:25Z</time>
      </trkpt>
      <trkpt lat="48.11342" lon="4.37688">
        <ele>158.27</ele>
        <time>2017-08-07T18:46:26Z</time>
      </trkpt>
      <trkpt lat="48.11342" lon="4.37691">
        <ele>158.27</ele>
        <time>2017-08-07T18:46:27Z</time>
      </trkpt>
      <trkpt lat="48.11342" lon="4.37693">
        <ele>158.27</ele>
        <time>2017-08-07T18:46:28Z</time>
      </trkpt>
      <trkpt lat="48.11343" lon="4.37695">
        <ele>158.27</ele>
        <time>2017-08-07T18:46:29Z</time>
      </trkpt>
      <trkpt lat="48.11346" lon="4.37698">
        <ele>158.27</ele>
        <time>2017-08-07T18:46:30Z</time>
      </trkpt>
      <trkpt lat="48.11348" lon="4.377">
        <ele>158.27</ele>
        <time>2017-08-07T18:46:31Z</time>
      </trkpt>
      <trkpt lat="48.11352" lon="4.377">
        <ele>158.27</ele>
        <time>2017-08-07T18:46:32Z</time>
      </trkpt>
      <trkpt lat="48.11356" lon="4.37699">
        <ele>158.27</ele>
        <time>2017-08-07T18:46:33Z</time>
      </trkpt>
      <trkpt lat="48.11358" lon="4.37698">
        <ele>158.27</ele>
        <time>2017-08-07T18:46:34Z</time>
      </trkpt>
      <trkpt lat="48.11362" lon="4.37697">
        <ele>158.27</ele>
        <time>2017-08-07T18:46:35Z</time>
      </trkpt>
      <trkpt lat="48.11366" lon="4.37696">
        <ele>158.27</ele>
        <time>2017-08-07T18:46:36Z</time>
      </trkpt>
      <trkpt lat="48.1137" lon="4.37695">
        <ele>158.27</ele>
        <time>2017-08-07T18:46:37Z</time>
      </trkpt>
      <trkpt lat="48.11409" lon="4.37681">
        <ele>158.27</ele>
        <time>2017-08-07T18:46:48Z</time>
      </trkpt>
      <trkpt lat="48.11456" lon="4.37659">
        <ele>158.27</ele>
        <time>2017-08-07T18:47:02Z</time>
      </trkpt>
      <trkpt lat="48.1146" lon="4.37656">
        <ele>158.27</ele>
        <time>2017-08-07T18:47:03Z</time>
      </trkpt>
      <trkpt lat="48.11461" lon="4.37652">
        <ele>158.27</ele>
        <time>2017-08-07T18:47:04Z</time>
      </trkpt>
      <trkpt lat="48.1146" lon="4.37646">
        <ele>158.27</ele>
        <time>2017-08-07T18:47:05Z</time>
      </trkpt>
      <trkpt lat="48.11461" lon="4.37643">
        <ele>157.79</ele>
        <time>2017-08-07T18:47:06Z</time>
      </trkpt>
      <trkpt lat="48.11462" lon="4.3764">
        <ele>157.79</ele>
        <time>2017-08-07T18:47:07Z</time>
      </trkpt>
      <trkpt lat="48.11464" lon="4.37635">
        <ele>158.27</ele>
        <time>2017-08-07T18:47:08Z</time>
      </trkpt>
      <trkpt lat="48.11464" lon="4.37633">
        <ele>158.27</ele>
        <time>2017-08-07T18:47:09Z</time>
      </trkpt>
      <trkpt lat="48.11464" lon="4.37629">
        <ele>158.27</ele>
        <time>2017-08-07T18:47:10Z</time>
      </trkpt>
      <trkpt lat="48.11464" lon="4.37626">
        <ele>158.27</ele>
        <time>2017-08-07T18:47:11Z</time>
      </trkpt>
      <trkpt lat="48.11463" lon="4.37623">
        <ele>158.27</ele>
        <time>2017-08-07T18:47:12Z</time>
      </trkpt>
      <trkpt lat="48.11462" lon="4.37619">
        <ele>158.27</ele>
        <time>2017-08-07T18:47:13Z</time>
      </trkpt>
      <trkpt lat="48.11461" lon="4.37616">
        <ele>158.27</ele>
        <time>2017-08-07T18:47:14Z</time>
      </trkpt>
      <trkpt lat="48.1146" lon="4.37611">
        <ele>158.27</ele>
        <time>2017-08-07T18:47:15Z</time>
      </trkpt>
      <trkpt lat="48.11459" lon="4.37607">
        <ele>158.27</ele>
        <time>2017-08-07T18:47:16Z</time>
      </trkpt>
      <trkpt lat="48.11458" lon="4.37602">
        <ele>158.27</ele>
        <time>2017-08-07T18:47:17Z</time>
      </trkpt>
      <trkpt lat="48.11457" lon="4.37597">
        <ele>158.27</ele>
        <time>2017-08-07T18:47:18Z</time>
      </trkpt>
      <trkpt lat="48.11452" lon="4.37535">
        <ele>158.27</ele>
        <time>2017-08-07T18:47:29Z</time>
      </trkpt>
      <trkpt lat="48.11444" lon="4.37507">
        <ele>158.27</ele>
        <time>2017-08-07T18:47:37Z</time>
      </trkpt>
      <trkpt lat="48.11445" lon="4.37504">
        <ele>157.79</ele>
        <time>2017-08-07T18:47:46Z</time>
      </trkpt>
      <trkpt lat="48.11445" lon="4.37503">
        <ele>157.79</ele>
        <time>2017-08-07T18:48:00Z</time>
      </trkpt>
      <trkpt lat="48.11447" lon="4.37503">
        <ele>157.79</ele>
        <time>2017-08-07T18:48:26Z</time>
      </trkpt>
      <trkpt lat="48.11446" lon="4.37503">
        <ele>157.79</ele>
        <time>2017-08-07T18:48:45Z</time>
      </trkpt>
      <trkpt lat="48.11445" lon="4.37499">
        <ele>157.79</ele>
        <time>2017-08-07T18:48:58Z</time>
      </trkpt>
      <trkpt lat="48.11444" lon="4.37499">
        <ele>157.79</ele>
        <time>2017-08-07T18:49:16Z</time>
      </trkpt>
      <trkpt lat="48.11443" lon="4.37496">
        <ele>157.79</ele>
        <time>2017-08-07T18:49:40Z</time>
      </trkpt>
      <trkpt lat="48.11439" lon="4.37469">
        <ele>157.79</ele>
        <time>2017-08-07T18:49:57Z</time>
      </trkpt>
      <trkpt lat="48.11425" lon="4.37423">
        <ele>158.27</ele>
        <time>2017-08-07T18:50:09Z</time>
      </trkpt>
      <trkpt lat="48.11424" lon="4.37421">
        <ele>158.27</ele>
        <time>2017-08-07T18:50:10Z</time>
      </trkpt>
      <trkpt lat="48.11422" lon="4.3742">
        <ele>158.27</ele>
        <time>2017-08-07T18:50:11Z</time>
      </trkpt>
      <trkpt lat="48.1142" lon="4.37419">
        <ele>158.27</ele>
        <time>2017-08-07T18:50:12Z</time>
      </trkpt>
      <trkpt lat="48.11418" lon="4.37422">
        <ele>158.75</ele>
        <time>2017-08-07T18:50:22Z</time>
      </trkpt>
      <trkpt lat="48.11417" lon="4.37422">
        <ele>158.75</ele>
        <time>2017-08-07T18:50:58Z</time>
      </trkpt>
      <trkpt lat="48.11417" lon="4.37424">
        <ele>158.27</ele>
        <time>2017-08-07T18:51:39Z</time>
      </trkpt>
      <trkpt lat="48.11417" lon="4.37422">
        <ele>158.27</ele>
        <time>2017-08-07T18:52:07Z</time>
      </trkpt>
      <trkpt lat="48.11418" lon="4.37419">
        <ele>158.27</ele>
        <time>2017-08-07T18:52:36Z</time>
      </trkpt>
      <trkpt lat="48.11412" lon="4.37375">
        <ele>158.75</ele>
        <time>2017-08-07T18:52:45Z</time>
      </trkpt>
      <trkpt lat="48.11413" lon="4.37349">
        <ele>159.72</ele>
        <time>2017-08-07T18:52:51Z</time>
      </trkpt>
      <trkpt lat="48.11416" lon="4.37347">
        <ele>159.72</ele>
        <time>2017-08-07T18:52:52Z</time>
      </trkpt>
      <trkpt lat="48.11419" lon="4.37346">
        <ele>159.72</ele>
        <time>2017-08-07T18:52:53Z</time>
      </trkpt>
      <trkpt lat="48.11473" lon="4.37324">
        <ele>160.2</ele>
        <time>2017-08-07T18:53:09Z</time>
      </trkpt>
      <trkpt lat="48.11518" lon="4.37301">
        <ele>159.72</ele>
        <time>2017-08-07T18:53:23Z</time>
      </trkpt>
      <trkpt lat="48.11543" lon="4.37283">
        <ele>161.16</ele>
        <time>2017-08-07T18:53:34Z</time>
      </trkpt>
      <trkpt lat="48.11543" lon="4.3728">
        <ele>161.16</ele>
        <time>2017-08-07T18:53:35Z</time>
      </trkpt>
      <trkpt lat="48.11532" lon="4.3725">
        <ele>162.6</ele>
        <time>2017-08-07T18:53:48Z</time>
      </trkpt>
      <trkpt lat="48.11513" lon="4.37217">
        <ele>165.96</ele>
        <time>2017-08-07T18:54:04Z</time>
      </trkpt>
      <trkpt lat="48.11489" lon="4.37189">
        <ele>168.37</ele>
        <time>2017-08-07T18:54:21Z</time>
      </trkpt>
      <trkpt lat="48.1146" lon="4.37163">
        <ele>170.77</ele>
        <time>2017-08-07T18:54:40Z</time>
      </trkpt>
      <trkpt lat="48.11434" lon="4.37144">
        <ele>173.66</ele>
        <time>2017-08-07T18:54:58Z</time>
      </trkpt>
      <trkpt lat="48.11409" lon="4.37129">
        <ele>176.54</ele>
        <time>2017-08-07T18:55:14Z</time>
      </trkpt>
      <trkpt lat="48.11386" lon="4.37119">
        <ele>178.46</ele>
        <time>2017-08-07T18:55:29Z</time>
      </trkpt>
      <trkpt lat="48.11362" lon="4.371">
        <ele>181.35</ele>
        <time>2017-08-07T18:55:45Z</time>
      </trkpt>
      <trkpt lat="48.11335" lon="4.37085">
        <ele>183.75</ele>
        <time>2017-08-07T18:56:01Z</time>
      </trkpt>
      <trkpt lat="48.11334" lon="4.37084">
        <ele>183.75</ele>
        <time>2017-08-07T18:56:02Z</time>
      </trkpt>
      <trkpt lat="48.11304" lon="4.3707">
        <ele>185.67</ele>
        <time>2017-08-07T18:56:20Z</time>
      </trkpt>
      <trkpt lat="48.11275" lon="4.3706">
        <ele>188.08</ele>
        <time>2017-08-07T18:56:36Z</time>
      </trkpt>
      <trkpt lat="48.11252" lon="4.37052">
        <ele>190</ele>
        <time>2017-08-07T18:56:49Z</time>
      </trkpt>
      <trkpt lat="48.11227" lon="4.37039">
        <ele>192.88</ele>
        <time>2017-08-07T18:57:06Z</time>
      </trkpt>
      <trkpt lat="48.11205" lon="4.37027">
        <ele>195.28</ele>
        <time>2017-08-07T18:57:19Z</time>
      </trkpt>
      <trkpt lat="48.11183" lon="4.37009">
        <ele>196.73</ele>
        <time>2017-08-07T18:57:33Z</time>
      </trkpt>
      <trkpt lat="48.11172" lon="4.36994">
        <ele>198.17</ele>
        <time>2017-08-07T18:57:42Z</time>
      </trkpt>
      <trkpt lat="48.1117" lon="4.36993">
        <ele>198.17</ele>
        <time>2017-08-07T18:57:43Z</time>
      </trkpt>
      <trkpt lat="48.11169" lon="4.36992">
        <ele>198.65</ele>
        <time>2017-08-07T18:57:44Z</time>
      </trkpt>
      <trkpt lat="48.11167" lon="4.36991">
        <ele>198.65</ele>
        <time>2017-08-07T18:57:45Z</time>
      </trkpt>
      <trkpt lat="48.11166" lon="4.36989">
        <ele>198.65</ele>
        <time>2017-08-07T18:57:46Z</time>
      </trkpt>
      <trkpt lat="48.11164" lon="4.36987">
        <ele>198.65</ele>
        <time>2017-08-07T18:57:47Z</time>
      </trkpt>
      <trkpt lat="48.11162" lon="4.36985">
        <ele>199.13</ele>
        <time>2017-08-07T18:57:48Z</time>
      </trkpt>
      <trkpt lat="48.11161" lon="4.36983">
        <ele>199.13</ele>
        <time>2017-08-07T18:57:49Z</time>
      </trkpt>
      <trkpt lat="48.11159" lon="4.36982">
        <ele>199.13</ele>
        <time>2017-08-07T18:57:50Z</time>
      </trkpt>
      <trkpt lat="48.11143" lon="4.36958">
        <ele>201.05</ele>
        <time>2017-08-07T18:58:03Z</time>
      </trkpt>
      <trkpt lat="48.11125" lon="4.36934">
        <ele>202.49</ele>
        <time>2017-08-07T18:58:17Z</time>
      </trkpt>
      <trkpt lat="48.11099" lon="4.36891">
        <ele>204.9</ele>
        <time>2017-08-07T18:58:33Z</time>
      </trkpt>
      <trkpt lat="48.11081" lon="4.36862">
        <ele>206.82</ele>
        <time>2017-08-07T18:58:46Z</time>
      </trkpt>
      <trkpt lat="48.1106" lon="4.3684">
        <ele>208.74</ele>
        <time>2017-08-07T18:59:00Z</time>
      </trkpt>
      <trkpt lat="48.11038" lon="4.36819">
        <ele>210.67</ele>
        <time>2017-08-07T18:59:13Z</time>
      </trkpt>
      <trkpt lat="48.11018" lon="4.36804">
        <ele>213.07</ele>
        <time>2017-08-07T18:59:25Z</time>
      </trkpt>
      <trkpt lat="48.10993" lon="4.36778">
        <ele>215.47</ele>
        <time>2017-08-07T18:59:40Z</time>
      </trkpt>
      <trkpt lat="48.10963" lon="4.36749">
        <ele>217.4</ele>
        <time>2017-08-07T18:59:55Z</time>
      </trkpt>
      <trkpt lat="48.10936" lon="4.36722">
        <ele>219.32</ele>
        <time>2017-08-07T19:00:10Z</time>
      </trkpt>
      <trkpt lat="48.10918" lon="4.367">
        <ele>221.72</ele>
        <time>2017-08-07T19:00:24Z</time>
      </trkpt>
      <trkpt lat="48.109" lon="4.36672">
        <ele>223.16</ele>
        <time>2017-08-07T19:00:39Z</time>
      </trkpt>
      <trkpt lat="48.10883" lon="4.36636">
        <ele>224.61</ele>
        <time>2017-08-07T19:00:53Z</time>
      </trkpt>
      <trkpt lat="48.10871" lon="4.36598">
        <ele>227.01</ele>
        <time>2017-08-07T19:01:08Z</time>
      </trkpt>
      <trkpt lat="48.10864" lon="4.36565">
        <ele>228.93</ele>
        <time>2017-08-07T19:01:21Z</time>
      </trkpt>
      <trkpt lat="48.1086" lon="4.36521">
        <ele>230.85</ele>
        <time>2017-08-07T19:01:35Z</time>
      </trkpt>
      <trkpt lat="48.10845" lon="4.36463">
        <ele>233.74</ele>
        <time>2017-08-07T19:01:52Z</time>
      </trkpt>
      <trkpt lat="48.10829" lon="4.3641">
        <ele>235.18</ele>
        <time>2017-08-07T19:02:09Z</time>
      </trkpt>
      <trkpt lat="48.10824" lon="4.36361">
        <ele>236.14</ele>
        <time>2017-08-07T19:02:24Z</time>
      </trkpt>
      <trkpt lat="48.10816" lon="4.36277">
        <ele>236.14</ele>
        <time>2017-08-07T19:02:42Z</time>
      </trkpt>
      <trkpt lat="48.10819" lon="4.36194">
        <ele>236.14</ele>
        <time>2017-08-07T19:02:56Z</time>
      </trkpt>
      <trkpt lat="48.10822" lon="4.36181">
        <ele>234.7</ele>
        <time>2017-08-07T19:02:58Z</time>
      </trkpt>
      <trkpt lat="48.10844" lon="4.36123">
        <ele>232.3</ele>
        <time>2017-08-07T19:03:06Z</time>
      </trkpt>
      <trkpt lat="48.10845" lon="4.36113">
        <ele>232.3</ele>
        <time>2017-08-07T19:03:07Z</time>
      </trkpt>
      <trkpt lat="48.10845" lon="4.36103">
        <ele>231.81</ele>
        <time>2017-08-07T19:03:08Z</time>
      </trkpt>
      <trkpt lat="48.10843" lon="4.36091">
        <ele>231.81</ele>
        <time>2017-08-07T19:03:09Z</time>
      </trkpt>
      <trkpt lat="48.10841" lon="4.36082">
        <ele>230.85</ele>
        <time>2017-08-07T19:03:10Z</time>
      </trkpt>
      <trkpt lat="48.10838" lon="4.36072">
        <ele>230.85</ele>
        <time>2017-08-07T19:03:11Z</time>
      </trkpt>
      <trkpt lat="48.10835" lon="4.36063">
        <ele>230.85</ele>
        <time>2017-08-07T19:03:12Z</time>
      </trkpt>
      <trkpt lat="48.10786" lon="4.35955">
        <ele>230.37</ele>
        <time>2017-08-07T19:03:26Z</time>
      </trkpt>
      <trkpt lat="48.10754" lon="4.35887">
        <ele>231.33</ele>
        <time>2017-08-07T19:03:39Z</time>
      </trkpt>
      <trkpt lat="48.10748" lon="4.3581">
        <ele>232.78</ele>
        <time>2017-08-07T19:03:55Z</time>
      </trkpt>
      <trkpt lat="48.10748" lon="4.3575">
        <ele>235.18</ele>
        <time>2017-08-07T19:04:09Z</time>
      </trkpt>
      <trkpt lat="48.1072" lon="4.3568">
        <ele>236.62</ele>
        <time>2017-08-07T19:04:25Z</time>
      </trkpt>
      <trkpt lat="48.10682" lon="4.3559">
        <ele>237.58</ele>
        <time>2017-08-07T19:04:44Z</time>
      </trkpt>
      <trkpt lat="48.10651" lon="4.35516">
        <ele>238.54</ele>
        <time>2017-08-07T19:05:00Z</time>
      </trkpt>
      <trkpt lat="48.10611" lon="4.35419">
        <ele>239.02</ele>
        <time>2017-08-07T19:05:19Z</time>
      </trkpt>
      <trkpt lat="48.10562" lon="4.353">
        <ele>238.06</ele>
        <time>2017-08-07T19:05:37Z</time>
      </trkpt>
      <trkpt lat="48.10515" lon="4.35188">
        <ele>236.62</ele>
        <time>2017-08-07T19:05:53Z</time>
      </trkpt>
      <trkpt lat="48.105" lon="4.35153">
        <ele>236.62</ele>
        <time>2017-08-07T19:05:58Z</time>
      </trkpt>
      <trkpt lat="48.10438" lon="4.35">
        <ele>234.7</ele>
        <time>2017-08-07T19:06:18Z</time>
      </trkpt>
      <trkpt lat="48.10395" lon="4.34899">
        <ele>234.7</ele>
        <time>2017-08-07T19:06:33Z</time>
      </trkpt>
      <trkpt lat="48.10349" lon="4.34787">
        <ele>234.22</ele>
        <time>2017-08-07T19:06:49Z</time>
      </trkpt>
      <trkpt lat="48.10279" lon="4.34616">
        <ele>232.3</ele>
        <time>2017-08-07T19:07:12Z</time>
      </trkpt>
      <trkpt lat="48.10216" lon="4.3448">
        <ele>230.37</ele>
        <time>2017-08-07T19:07:30Z</time>
      </trkpt>
      <trkpt lat="48.10144" lon="4.34362">
        <ele>231.33</ele>
        <time>2017-08-07T19:07:49Z</time>
      </trkpt>
      <trkpt lat="48.10074" lon="4.34248">
        <ele>231.81</ele>
        <time>2017-08-07T19:08:09Z</time>
      </trkpt>
      <trkpt lat="48.10034" lon="4.34182">
        <ele>230.37</ele>
        <time>2017-08-07T19:08:19Z</time>
      </trkpt>
      <trkpt lat="48.09943" lon="4.34035">
        <ele>229.41</ele>
        <time>2017-08-07T19:08:42Z</time>
      </trkpt>
      <trkpt lat="48.09876" lon="4.33933">
        <ele>230.85</ele>
        <time>2017-08-07T19:09:02Z</time>
      </trkpt>
      <trkpt lat="48.09819" lon="4.33849">
        <ele>233.26</ele>
        <time>2017-08-07T19:09:21Z</time>
      </trkpt>
      <trkpt lat="48.09756" lon="4.33744">
        <ele>234.22</ele>
        <time>2017-08-07T19:09:43Z</time>
      </trkpt>
      <trkpt lat="48.09704" lon="4.33642">
        <ele>234.7</ele>
        <time>2017-08-07T19:10:01Z</time>
      </trkpt>
      <trkpt lat="48.09648" lon="4.33531">
        <ele>234.7</ele>
        <time>2017-08-07T19:10:21Z</time>
      </trkpt>
      <trkpt lat="48.09591" lon="4.3342">
        <ele>235.18</ele>
        <time>2017-08-07T19:10:42Z</time>
      </trkpt>
      <trkpt lat="48.09531" lon="4.33302">
        <ele>235.66</ele>
        <time>2017-08-07T19:11:03Z</time>
      </trkpt>
      <trkpt lat="48.09462" lon="4.33168">
        <ele>234.22</ele>
        <time>2017-08-07T19:11:24Z</time>
      </trkpt>
      <trkpt lat="48.09428" lon="4.331">
        <ele>233.26</ele>
        <time>2017-08-07T19:11:35Z</time>
      </trkpt>
      <trkpt lat="48.09377" lon="4.32999">
        <ele>229.89</ele>
        <time>2017-08-07T19:11:49Z</time>
      </trkpt>
      <trkpt lat="48.09342" lon="4.32928">
        <ele>226.53</ele>
        <time>2017-08-07T19:11:57Z</time>
      </trkpt>
      <trkpt lat="48.09302" lon="4.3285">
        <ele>223.64</ele>
        <time>2017-08-07T19:12:05Z</time>
      </trkpt>
      <trkpt lat="48.09254" lon="4.32732">
        <ele>220.28</ele>
        <time>2017-08-07T19:12:16Z</time>
      </trkpt>
      <trkpt lat="48.09217" lon="4.32629">
        <ele>216.91</ele>
        <time>2017-08-07T19:12:25Z</time>
      </trkpt>
      <trkpt lat="48.09194" lon="4.32564">
        <ele>213.55</ele>
        <time>2017-08-07T19:12:30Z</time>
      </trkpt>
      <trkpt lat="48.09169" lon="4.32479">
        <ele>210.19</ele>
        <time>2017-08-07T19:12:36Z</time>
      </trkpt>
      <trkpt lat="48.09144" lon="4.32409">
        <ele>206.82</ele>
        <time>2017-08-07T19:12:41Z</time>
      </trkpt>
      <trkpt lat="48.09114" lon="4.32359">
        <ele>203.46</ele>
        <time>2017-08-07T19:12:45Z</time>
      </trkpt>
      <trkpt lat="48.09089" lon="4.32304">
        <ele>201.05</ele>
        <time>2017-08-07T19:12:49Z</time>
      </trkpt>
      <trkpt lat="48.0906" lon="4.32236">
        <ele>198.17</ele>
        <time>2017-08-07T19:12:54Z</time>
      </trkpt>
      <trkpt lat="48.09032" lon="4.32148">
        <ele>194.32</ele>
        <time>2017-08-07T19:13:00Z</time>
      </trkpt>
      <trkpt lat="48.09022" lon="4.32021">
        <ele>191.44</ele>
        <time>2017-08-07T19:13:08Z</time>
      </trkpt>
      <trkpt lat="48.09026" lon="4.31935">
        <ele>193.36</ele>
        <time>2017-08-07T19:13:15Z</time>
      </trkpt>
      <trkpt lat="48.09017" lon="4.31838">
        <ele>194.8</ele>
        <time>2017-08-07T19:13:26Z</time>
      </trkpt>
      <trkpt lat="48.08998" lon="4.31694">
        <ele>196.25</ele>
        <time>2017-08-07T19:13:47Z</time>
      </trkpt>
      <trkpt lat="48.08977" lon="4.31547">
        <ele>197.69</ele>
        <time>2017-08-07T19:14:10Z</time>
      </trkpt>
      <trkpt lat="48.08969" lon="4.31488">
        <ele>198.17</ele>
        <time>2017-08-07T19:14:19Z</time>
      </trkpt>
      <trkpt lat="48.08968" lon="4.31474">
        <ele>198.17</ele>
        <time>2017-08-07T19:14:21Z</time>
      </trkpt>
      <trkpt lat="48.08965" lon="4.31454">
        <ele>198.17</ele>
        <time>2017-08-07T19:14:24Z</time>
      </trkpt>
      <trkpt lat="48.08945" lon="4.31314">
        <ele>198.17</ele>
        <time>2017-08-07T19:14:44Z</time>
      </trkpt>
      <trkpt lat="48.0894" lon="4.31278">
        <ele>198.17</ele>
        <time>2017-08-07T19:14:49Z</time>
      </trkpt>
      <trkpt lat="48.08917" lon="4.31119">
        <ele>198.17</ele>
        <time>2017-08-07T19:15:10Z</time>
      </trkpt>
      <trkpt lat="48.08891" lon="4.30942">
        <ele>196.73</ele>
        <time>2017-08-07T19:15:32Z</time>
      </trkpt>
      <trkpt lat="48.08859" lon="4.30724">
        <ele>194.8</ele>
        <time>2017-08-07T19:15:56Z</time>
      </trkpt>
      <trkpt lat="48.08835" lon="4.30558">
        <ele>191.44</ele>
        <time>2017-08-07T19:16:12Z</time>
      </trkpt>
      <trkpt lat="48.08833" lon="4.30482">
        <ele>188.08</ele>
        <time>2017-08-07T19:16:18Z</time>
      </trkpt>
      <trkpt lat="48.08842" lon="4.30414">
        <ele>184.23</ele>
        <time>2017-08-07T19:16:23Z</time>
      </trkpt>
      <trkpt lat="48.08855" lon="4.30341">
        <ele>180.38</ele>
        <time>2017-08-07T19:16:28Z</time>
      </trkpt>
      <trkpt lat="48.08868" lon="4.30264">
        <ele>177.02</ele>
        <time>2017-08-07T19:16:33Z</time>
      </trkpt>
      <trkpt lat="48.08876" lon="4.30219">
        <ele>175.58</ele>
        <time>2017-08-07T19:16:36Z</time>
      </trkpt>
      <trkpt lat="48.08878" lon="4.30191">
        <ele>174.62</ele>
        <time>2017-08-07T19:16:38Z</time>
      </trkpt>
      <trkpt lat="48.08878" lon="4.30176">
        <ele>174.14</ele>
        <time>2017-08-07T19:16:39Z</time>
      </trkpt>
      <trkpt lat="48.08876" lon="4.30161">
        <ele>174.14</ele>
        <time>2017-08-07T19:16:40Z</time>
      </trkpt>
      <trkpt lat="48.08873" lon="4.3015">
        <ele>173.66</ele>
        <time>2017-08-07T19:16:41Z</time>
      </trkpt>
      <trkpt lat="48.08867" lon="4.30138">
        <ele>173.66</ele>
        <time>2017-08-07T19:16:42Z</time>
      </trkpt>
      <trkpt lat="48.0886" lon="4.30129">
        <ele>172.69</ele>
        <time>2017-08-07T19:16:43Z</time>
      </trkpt>
      <trkpt lat="48.08852" lon="4.30122">
        <ele>172.21</ele>
        <time>2017-08-07T19:16:44Z</time>
      </trkpt>
      <trkpt lat="48.08843" lon="4.30119">
        <ele>171.73</ele>
        <time>2017-08-07T19:16:45Z</time>
      </trkpt>
      <trkpt lat="48.08833" lon="4.30119">
        <ele>170.77</ele>
        <time>2017-08-07T19:16:46Z</time>
      </trkpt>
      <trkpt lat="48.08824" lon="4.30122">
        <ele>170.77</ele>
        <time>2017-08-07T19:16:47Z</time>
      </trkpt>
      <trkpt lat="48.08816" lon="4.30129">
        <ele>170.29</ele>
        <time>2017-08-07T19:16:48Z</time>
      </trkpt>
      <trkpt lat="48.08808" lon="4.30136">
        <ele>170.29</ele>
        <time>2017-08-07T19:16:49Z</time>
      </trkpt>
      <trkpt lat="48.08801" lon="4.30144">
        <ele>170.29</ele>
        <time>2017-08-07T19:16:50Z</time>
      </trkpt>
      <trkpt lat="48.08771" lon="4.30173">
        <ele>168.85</ele>
        <time>2017-08-07T19:16:54Z</time>
      </trkpt>
      <trkpt lat="48.08763" lon="4.30177">
        <ele>168.85</ele>
        <time>2017-08-07T19:16:55Z</time>
      </trkpt>
      <trkpt lat="48.08755" lon="4.3018">
        <ele>168.85</ele>
        <time>2017-08-07T19:16:56Z</time>
      </trkpt>
      <trkpt lat="48.08747" lon="4.30182">
        <ele>168.37</ele>
        <time>2017-08-07T19:16:57Z</time>
      </trkpt>
      <trkpt lat="48.08738" lon="4.30182">
        <ele>168.37</ele>
        <time>2017-08-07T19:16:58Z</time>
      </trkpt>
      <trkpt lat="48.0873" lon="4.30181">
        <ele>168.37</ele>
        <time>2017-08-07T19:16:59Z</time>
      </trkpt>
      <trkpt lat="48.08722" lon="4.30179">
        <ele>168.37</ele>
        <time>2017-08-07T19:17:00Z</time>
      </trkpt>
      <trkpt lat="48.08601" lon="4.30154">
        <ele>167.89</ele>
        <time>2017-08-07T19:17:17Z</time>
      </trkpt>
      <trkpt lat="48.08516" lon="4.30136">
        <ele>167.89</ele>
        <time>2017-08-07T19:17:33Z</time>
      </trkpt>
      <trkpt lat="48.08471" lon="4.30137">
        <ele>167.89</ele>
        <time>2017-08-07T19:17:46Z</time>
      </trkpt>
      <trkpt lat="48.08425" lon="4.30139">
        <ele>167.89</ele>
        <time>2017-08-07T19:17:59Z</time>
      </trkpt>
      <trkpt lat="48.08352" lon="4.30123">
        <ele>168.85</ele>
        <time>2017-08-07T19:18:17Z</time>
      </trkpt>
      <trkpt lat="48.08273" lon="4.30099">
        <ele>168.85</ele>
        <time>2017-08-07T19:18:35Z</time>
      </trkpt>
      <trkpt lat="48.08208" lon="4.30087">
        <ele>169.81</ele>
        <time>2017-08-07T19:18:52Z</time>
      </trkpt>
      <trkpt lat="48.0817" lon="4.30118">
        <ele>172.21</ele>
        <time>2017-08-07T19:19:07Z</time>
      </trkpt>
      <trkpt lat="48.08141" lon="4.3014">
        <ele>174.14</ele>
        <time>2017-08-07T19:19:20Z</time>
      </trkpt>
      <trkpt lat="48.08097" lon="4.3017">
        <ele>176.54</ele>
        <time>2017-08-07T19:19:39Z</time>
      </trkpt>
      <trkpt lat="48.08056" lon="4.302">
        <ele>178.94</ele>
        <time>2017-08-07T19:19:58Z</time>
      </trkpt>
      <trkpt lat="48.0802" lon="4.30224">
        <ele>180.87</ele>
        <time>2017-08-07T19:20:14Z</time>
      </trkpt>
      <trkpt lat="48.07985" lon="4.30236">
        <ele>181.83</ele>
        <time>2017-08-07T19:20:28Z</time>
      </trkpt>
      <trkpt lat="48.07942" lon="4.30235">
        <ele>184.23</ele>
        <time>2017-08-07T19:20:45Z</time>
      </trkpt>
      <trkpt lat="48.079" lon="4.30228">
        <ele>186.15</ele>
        <time>2017-08-07T19:21:02Z</time>
      </trkpt>
      <trkpt lat="48.07855" lon="4.30235">
        <ele>188.56</ele>
        <time>2017-08-07T19:21:20Z</time>
      </trkpt>
      <trkpt lat="48.07806" lon="4.30257">
        <ele>189.52</ele>
        <time>2017-08-07T19:21:37Z</time>
      </trkpt>
      <trkpt lat="48.07754" lon="4.30264">
        <ele>191.92</ele>
        <time>2017-08-07T19:21:55Z</time>
      </trkpt>
      <trkpt lat="48.07705" lon="4.30263">
        <ele>194.32</ele>
        <time>2017-08-07T19:22:12Z</time>
      </trkpt>
      <trkpt lat="48.07647" lon="4.30284">
        <ele>197.21</ele>
        <time>2017-08-07T19:22:33Z</time>
      </trkpt>
      <trkpt lat="48.07595" lon="4.30318">
        <ele>199.61</ele>
        <time>2017-08-07T19:22:53Z</time>
      </trkpt>
      <trkpt lat="48.07556" lon="4.3036">
        <ele>202.01</ele>
        <time>2017-08-07T19:23:11Z</time>
      </trkpt>
      <trkpt lat="48.07517" lon="4.30405">
        <ele>204.42</ele>
        <time>2017-08-07T19:23:31Z</time>
      </trkpt>
      <trkpt lat="48.07483" lon="4.30445">
        <ele>206.82</ele>
        <time>2017-08-07T19:23:49Z</time>
      </trkpt>
      <trkpt lat="48.07446" lon="4.30495">
        <ele>209.7</ele>
        <time>2017-08-07T19:24:09Z</time>
      </trkpt>
      <trkpt lat="48.07412" lon="4.30551">
        <ele>212.11</ele>
        <time>2017-08-07T19:24:29Z</time>
      </trkpt>
      <trkpt lat="48.07388" lon="4.30614">
        <ele>214.03</ele>
        <time>2017-08-07T19:24:46Z</time>
      </trkpt>
      <trkpt lat="48.07372" lon="4.30665">
        <ele>215.95</ele>
        <time>2017-08-07T19:24:59Z</time>
      </trkpt>
      <trkpt lat="48.07341" lon="4.30735">
        <ele>217.88</ele>
        <time>2017-08-07T19:25:19Z</time>
      </trkpt>
      <trkpt lat="48.07294" lon="4.30788">
        <ele>219.8</ele>
        <time>2017-08-07T19:25:40Z</time>
      </trkpt>
      <trkpt lat="48.07246" lon="4.30834">
        <ele>222.68</ele>
        <time>2017-08-07T19:26:00Z</time>
      </trkpt>
      <trkpt lat="48.07205" lon="4.30872">
        <ele>224.12</ele>
        <time>2017-08-07T19:26:17Z</time>
      </trkpt>
      <trkpt lat="48.07164" lon="4.3091">
        <ele>226.05</ele>
        <time>2017-08-07T19:26:34Z</time>
      </trkpt>
      <trkpt lat="48.07112" lon="4.3096">
        <ele>228.45</ele>
        <time>2017-08-07T19:26:56Z</time>
      </trkpt>
      <trkpt lat="48.07063" lon="4.31008">
        <ele>230.85</ele>
        <time>2017-08-07T19:27:17Z</time>
      </trkpt>
      <trkpt lat="48.0703" lon="4.31067">
        <ele>232.3</ele>
        <time>2017-08-07T19:27:34Z</time>
      </trkpt>
      <trkpt lat="48.07004" lon="4.31151">
        <ele>234.22</ele>
        <time>2017-08-07T19:27:53Z</time>
      </trkpt>
      <trkpt lat="48.06983" lon="4.31224">
        <ele>235.66</ele>
        <time>2017-08-07T19:28:09Z</time>
      </trkpt>
      <trkpt lat="48.06965" lon="4.31283">
        <ele>237.1</ele>
        <time>2017-08-07T19:28:22Z</time>
      </trkpt>
      <trkpt lat="48.06937" lon="4.31375">
        <ele>239.51</ele>
        <time>2017-08-07T19:28:43Z</time>
      </trkpt>
      <trkpt lat="48.06919" lon="4.31438">
        <ele>240.95</ele>
        <time>2017-08-07T19:28:58Z</time>
      </trkpt>
      <trkpt lat="48.06895" lon="4.31523">
        <ele>240.95</ele>
        <time>2017-08-07T19:29:14Z</time>
      </trkpt>
      <trkpt lat="48.06889" lon="4.31544">
        <ele>239.51</ele>
        <time>2017-08-07T19:29:17Z</time>
      </trkpt>
      <trkpt lat="48.06887" lon="4.31552">
        <ele>239.02</ele>
        <time>2017-08-07T19:29:18Z</time>
      </trkpt>
      <trkpt lat="48.06869" lon="4.31599">
        <ele>237.1</ele>
        <time>2017-08-07T19:29:24Z</time>
      </trkpt>
      <trkpt lat="48.06865" lon="4.31607">
        <ele>237.1</ele>
        <time>2017-08-07T19:29:25Z</time>
      </trkpt>
      <trkpt lat="48.06859" lon="4.31614">
        <ele>237.1</ele>
        <time>2017-08-07T19:29:26Z</time>
      </trkpt>
      <trkpt lat="48.06854" lon="4.31621">
        <ele>236.14</ele>
        <time>2017-08-07T19:29:27Z</time>
      </trkpt>
      <trkpt lat="48.06848" lon="4.31626">
        <ele>235.18</ele>
        <time>2017-08-07T19:29:28Z</time>
      </trkpt>
      <trkpt lat="48.06843" lon="4.3163">
        <ele>235.18</ele>
        <time>2017-08-07T19:29:29Z</time>
      </trkpt>
      <trkpt lat="48.06839" lon="4.31632">
        <ele>235.18</ele>
        <time>2017-08-07T19:29:30Z</time>
      </trkpt>
      <trkpt lat="48.06835" lon="4.31633">
        <ele>235.18</ele>
        <time>2017-08-07T19:29:31Z</time>
      </trkpt>
      <trkpt lat="48.06806" lon="4.31637">
        <ele>235.18</ele>
        <time>2017-08-07T19:29:42Z</time>
      </trkpt>
      <trkpt lat="48.06803" lon="4.31639">
        <ele>235.18</ele>
        <time>2017-08-07T19:29:44Z</time>
      </trkpt>
      <trkpt lat="48.06802" lon="4.3164">
        <ele>235.18</ele>
        <time>2017-08-07T19:29:46Z</time>
      </trkpt>
      <trkpt lat="48.06801" lon="4.31639">
        <ele>235.18</ele>
        <time>2017-08-07T19:29:47Z</time>
      </trkpt>
      <trkpt lat="48.06801" lon="4.31637">
        <ele>235.18</ele>
        <time>2017-08-07T19:29:48Z</time>
      </trkpt>
      <trkpt lat="48.06803" lon="4.31636">
        <ele>235.18</ele>
        <time>2017-08-07T19:29:49Z</time>
      </trkpt>
      <trkpt lat="48.06828" lon="4.31641">
        <ele>235.18</ele>
        <time>2017-08-07T19:30:02Z</time>
      </trkpt>
      <trkpt lat="48.06829" lon="4.3164">
        <ele>235.18</ele>
        <time>2017-08-07T19:30:03Z</time>
      </trkpt>
      <trkpt lat="48.06831" lon="4.3164">
        <ele>235.18</ele>
        <time>2017-08-07T19:30:04Z</time>
      </trkpt>
      <trkpt lat="48.06832" lon="4.31639">
        <ele>235.18</ele>
        <time>2017-08-07T19:30:05Z</time>
      </trkpt>
      <trkpt lat="48.06834" lon="4.31638">
        <ele>235.18</ele>
        <time>2017-08-07T19:30:06Z</time>
      </trkpt>
      <trkpt lat="48.06835" lon="4.31638">
        <ele>235.18</ele>
        <time>2017-08-07T19:30:07Z</time>
      </trkpt>
      <trkpt lat="48.06836" lon="4.31636">
        <ele>235.18</ele>
        <time>2017-08-07T19:30:08Z</time>
      </trkpt>
      <trkpt lat="48.06837" lon="4.31635">
        <ele>235.18</ele>
        <time>2017-08-07T19:30:09Z</time>
      </trkpt>
      <trkpt lat="48.06838" lon="4.31635">
        <ele>235.18</ele>
        <time>2017-08-07T19:30:10Z</time>
      </trkpt>
      <trkpt lat="48.0684" lon="4.31634">
        <ele>235.18</ele>
        <time>2017-08-07T19:30:11Z</time>
      </trkpt>
      <trkpt lat="48.06841" lon="4.31632">
        <ele>235.18</ele>
        <time>2017-08-07T19:30:12Z</time>
      </trkpt>
      <trkpt lat="48.06842" lon="4.31631">
        <ele>235.18</ele>
        <time>2017-08-07T19:30:13Z</time>
      </trkpt>
      <trkpt lat="48.06843" lon="4.3163">
        <ele>235.18</ele>
        <time>2017-08-07T19:30:14Z</time>
      </trkpt>
      <trkpt lat="48.06845" lon="4.31631">
        <ele>235.18</ele>
        <time>2017-08-07T19:30:15Z</time>
      </trkpt>
      <trkpt lat="48.06844" lon="4.31634">
        <ele>235.18</ele>
        <time>2017-08-07T19:30:17Z</time>
      </trkpt>
      <trkpt lat="48.06842" lon="4.31635">
        <ele>235.18</ele>
        <time>2017-08-07T19:30:18Z</time>
      </trkpt>
      <trkpt lat="48.0684" lon="4.31636">
        <ele>235.18</ele>
        <time>2017-08-07T19:30:19Z</time>
      </trkpt>
      <trkpt lat="48.06838" lon="4.31636">
        <ele>235.18</ele>
        <time>2017-08-07T19:30:20Z</time>
      </trkpt>
      <trkpt lat="48.06834" lon="4.31636">
        <ele>235.18</ele>
        <time>2017-08-07T19:30:21Z</time>
      </trkpt>
      <trkpt lat="48.06823" lon="4.31636">
        <ele>235.18</ele>
        <time>2017-08-07T19:30:24Z</time>
      </trkpt>
      <trkpt lat="48.06745" lon="4.31629">
        <ele>234.7</ele>
        <time>2017-08-07T19:30:40Z</time>
      </trkpt>
      <trkpt lat="48.0673" lon="4.31632">
        <ele>234.7</ele>
        <time>2017-08-07T19:30:43Z</time>
      </trkpt>
      <trkpt lat="48.06712" lon="4.31643">
        <ele>234.7</ele>
        <time>2017-08-07T19:30:47Z</time>
      </trkpt>
      <trkpt lat="48.06708" lon="4.31648">
        <ele>234.7</ele>
        <time>2017-08-07T19:30:48Z</time>
      </trkpt>
      <trkpt lat="48.06704" lon="4.31652">
        <ele>234.7</ele>
        <time>2017-08-07T19:30:49Z</time>
      </trkpt>
      <trkpt lat="48.067" lon="4.31657">
        <ele>234.7</ele>
        <time>2017-08-07T19:30:50Z</time>
      </trkpt>
      <trkpt lat="48.06696" lon="4.31663">
        <ele>234.7</ele>
        <time>2017-08-07T19:30:51Z</time>
      </trkpt>
      <trkpt lat="48.06673" lon="4.31701">
        <ele>236.14</ele>
        <time>2017-08-07T19:31:00Z</time>
      </trkpt>
      <trkpt lat="48.06649" lon="4.31747">
        <ele>239.02</ele>
        <time>2017-08-07T19:31:13Z</time>
      </trkpt>
      <trkpt lat="48.06615" lon="4.31809">
        <ele>241.43</ele>
        <time>2017-08-07T19:31:31Z</time>
      </trkpt>
      <trkpt lat="48.06585" lon="4.31862">
        <ele>244.31</ele>
        <time>2017-08-07T19:31:48Z</time>
      </trkpt>
      <trkpt lat="48.06561" lon="4.31904">
        <ele>246.23</ele>
        <time>2017-08-07T19:32:03Z</time>
      </trkpt>
      <trkpt lat="48.06538" lon="4.31949">
        <ele>248.64</ele>
        <time>2017-08-07T19:32:19Z</time>
      </trkpt>
      <trkpt lat="48.06517" lon="4.31988">
        <ele>250.56</ele>
        <time>2017-08-07T19:32:33Z</time>
      </trkpt>
      <trkpt lat="48.06495" lon="4.3203">
        <ele>252.96</ele>
        <time>2017-08-07T19:32:48Z</time>
      </trkpt>
      <trkpt lat="48.06471" lon="4.32074">
        <ele>254.41</ele>
        <time>2017-08-07T19:33:04Z</time>
      </trkpt>
      <trkpt lat="48.06446" lon="4.32115">
        <ele>256.33</ele>
        <time>2017-08-07T19:33:19Z</time>
      </trkpt>
      <trkpt lat="48.06412" lon="4.32156">
        <ele>258.73</ele>
        <time>2017-08-07T19:33:37Z</time>
      </trkpt>
      <trkpt lat="48.06374" lon="4.3219">
        <ele>261.14</ele>
        <time>2017-08-07T19:33:54Z</time>
      </trkpt>
      <trkpt lat="48.06343" lon="4.32228">
        <ele>262.58</ele>
        <time>2017-08-07T19:34:09Z</time>
      </trkpt>
      <trkpt lat="48.06332" lon="4.32247">
        <ele>262.58</ele>
        <time>2017-08-07T19:34:13Z</time>
      </trkpt>
      <trkpt lat="48.06329" lon="4.32252">
        <ele>262.58</ele>
        <time>2017-08-07T19:34:14Z</time>
      </trkpt>
      <trkpt lat="48.06293" lon="4.32319">
        <ele>262.58</ele>
        <time>2017-08-07T19:34:26Z</time>
      </trkpt>
      <trkpt lat="48.06285" lon="4.32331">
        <ele>261.14</ele>
        <time>2017-08-07T19:34:28Z</time>
      </trkpt>
      <trkpt lat="48.06235" lon="4.32423">
        <ele>260.65</ele>
        <time>2017-08-07T19:34:43Z</time>
      </trkpt>
      <trkpt lat="48.06232" lon="4.32428">
        <ele>260.65</ele>
        <time>2017-08-07T19:34:44Z</time>
      </trkpt>
      <trkpt lat="48.06227" lon="4.32437">
        <ele>262.1</ele>
        <time>2017-08-07T19:34:46Z</time>
      </trkpt>
      <trkpt lat="48.06196" lon="4.32494">
        <ele>263.06</ele>
        <time>2017-08-07T19:35:00Z</time>
      </trkpt>
      <trkpt lat="48.06159" lon="4.32565">
        <ele>264.98</ele>
        <time>2017-08-07T19:35:18Z</time>
      </trkpt>
      <trkpt lat="48.06125" lon="4.32628">
        <ele>265.94</ele>
        <time>2017-08-07T19:35:34Z</time>
      </trkpt>
      <trkpt lat="48.0609" lon="4.32692">
        <ele>267.38</ele>
        <time>2017-08-07T19:35:51Z</time>
      </trkpt>
      <trkpt lat="48.0606" lon="4.32749">
        <ele>268.83</ele>
        <time>2017-08-07T19:36:06Z</time>
      </trkpt>
      <trkpt lat="48.06024" lon="4.32815">
        <ele>270.27</ele>
        <time>2017-08-07T19:36:22Z</time>
      </trkpt>
      <trkpt lat="48.06009" lon="4.32838">
        <ele>270.27</ele>
        <time>2017-08-07T19:36:28Z</time>
      </trkpt>
      <trkpt lat="48.06005" lon="4.32839">
        <ele>270.27</ele>
        <time>2017-08-07T19:36:29Z</time>
      </trkpt>
      <trkpt lat="48.06002" lon="4.32837">
        <ele>270.27</ele>
        <time>2017-08-07T19:36:30Z</time>
      </trkpt>
      <trkpt lat="48.06" lon="4.32833">
        <ele>270.27</ele>
        <time>2017-08-07T19:36:31Z</time>
      </trkpt>
      <trkpt lat="48.05999" lon="4.32828">
        <ele>270.27</ele>
        <time>2017-08-07T19:36:32Z</time>
      </trkpt>
      <trkpt lat="48.05999" lon="4.32823">
        <ele>270.27</ele>
        <time>2017-08-07T19:36:33Z</time>
      </trkpt>
      <trkpt lat="48.06004" lon="4.327">
        <ele>268.83</ele>
        <time>2017-08-07T19:36:52Z</time>
      </trkpt>
      <trkpt lat="48.06008" lon="4.32651">
        <ele>269.79</ele>
        <time>2017-08-07T19:36:59Z</time>
      </trkpt>
      <trkpt lat="48.0601" lon="4.32628">
        <ele>267.38</ele>
        <time>2017-08-07T19:37:02Z</time>
      </trkpt>
      <trkpt lat="48.06022" lon="4.32467">
        <ele>264.5</ele>
        <time>2017-08-07T19:37:19Z</time>
      </trkpt>
      <trkpt lat="48.06035" lon="4.3229">
        <ele>262.1</ele>
        <time>2017-08-07T19:37:36Z</time>
      </trkpt>
      <trkpt lat="48.06046" lon="4.32149">
        <ele>261.62</ele>
        <time>2017-08-07T19:37:51Z</time>
      </trkpt>
      <trkpt lat="48.06052" lon="4.32069">
        <ele>261.62</ele>
        <time>2017-08-07T19:38:01Z</time>
      </trkpt>
      <trkpt lat="48.06053" lon="4.3206">
        <ele>261.62</ele>
        <time>2017-08-07T19:38:02Z</time>
      </trkpt>
      <trkpt lat="48.06065" lon="4.31911">
        <ele>260.17</ele>
        <time>2017-08-07T19:38:19Z</time>
      </trkpt>
      <trkpt lat="48.0607" lon="4.318">
        <ele>261.62</ele>
        <time>2017-08-07T19:38:34Z</time>
      </trkpt>
      <trkpt lat="48.06063" lon="4.3171">
        <ele>262.1</ele>
        <time>2017-08-07T19:38:47Z</time>
      </trkpt>
      <trkpt lat="48.06054" lon="4.31589">
        <ele>263.06</ele>
        <time>2017-08-07T19:39:04Z</time>
      </trkpt>
      <trkpt lat="48.06041" lon="4.31464">
        <ele>263.06</ele>
        <time>2017-08-07T19:39:21Z</time>
      </trkpt>
      <trkpt lat="48.06011" lon="4.31347">
        <ele>263.54</ele>
        <time>2017-08-07T19:39:38Z</time>
      </trkpt>
      <trkpt lat="48.05984" lon="4.31246">
        <ele>263.54</ele>
        <time>2017-08-07T19:39:55Z</time>
      </trkpt>
      <trkpt lat="48.05952" lon="4.31123">
        <ele>264.02</ele>
        <time>2017-08-07T19:40:15Z</time>
      </trkpt>
      <trkpt lat="48.05927" lon="4.31033">
        <ele>264.02</ele>
        <time>2017-08-07T19:40:31Z</time>
      </trkpt>
      <trkpt lat="48.05912" lon="4.30982">
        <ele>264.02</ele>
        <time>2017-08-07T19:40:42Z</time>
      </trkpt>
      <trkpt lat="48.05899" lon="4.30928">
        <ele>264.02</ele>
        <time>2017-08-07T19:40:52Z</time>
      </trkpt>
      <trkpt lat="48.05894" lon="4.30902">
        <ele>262.58</ele>
        <time>2017-08-07T19:40:58Z</time>
      </trkpt>
      <trkpt lat="48.05891" lon="4.309">
        <ele>262.58</ele>
        <time>2017-08-07T19:40:59Z</time>
      </trkpt>
      <trkpt lat="48.05888" lon="4.30898">
        <ele>262.58</ele>
        <time>2017-08-07T19:41:00Z</time>
      </trkpt>
      <trkpt lat="48.05885" lon="4.30897">
        <ele>262.58</ele>
        <time>2017-08-07T19:41:01Z</time>
      </trkpt>
      <trkpt lat="48.05874" lon="4.30892">
        <ele>262.1</ele>
        <time>2017-08-07T19:41:04Z</time>
      </trkpt>
      <trkpt lat="48.05858" lon="4.30886">
        <ele>261.62</ele>
        <time>2017-08-07T19:41:08Z</time>
      </trkpt>
      <trkpt lat="48.05796" lon="4.30861">
        <ele>258.73</ele>
        <time>2017-08-07T19:41:21Z</time>
      </trkpt>
      <trkpt lat="48.05751" lon="4.30842">
        <ele>255.37</ele>
        <time>2017-08-07T19:41:29Z</time>
      </trkpt>
      <trkpt lat="48.05745" lon="4.3084">
        <ele>254.89</ele>
        <time>2017-08-07T19:41:30Z</time>
      </trkpt>
      <trkpt lat="48.0572" lon="4.30826">
        <ele>252.48</ele>
        <time>2017-08-07T19:41:34Z</time>
      </trkpt>
      <trkpt lat="48.05708" lon="4.30816">
        <ele>252.48</ele>
        <time>2017-08-07T19:41:36Z</time>
      </trkpt>
      <trkpt lat="48.05676" lon="4.30777">
        <ele>248.16</ele>
        <time>2017-08-07T19:41:43Z</time>
      </trkpt>
      <trkpt lat="48.05667" lon="4.30766">
        <ele>246.72</ele>
        <time>2017-08-07T19:41:45Z</time>
      </trkpt>
      <trkpt lat="48.05653" lon="4.30755">
        <ele>244.31</ele>
        <time>2017-08-07T19:41:48Z</time>
      </trkpt>
      <trkpt lat="48.05637" lon="4.30746">
        <ele>242.87</ele>
        <time>2017-08-07T19:41:51Z</time>
      </trkpt>
      <trkpt lat="48.05622" lon="4.3074">
        <ele>241.43</ele>
        <time>2017-08-07T19:41:54Z</time>
      </trkpt>
      <trkpt lat="48.05607" lon="4.30733">
        <ele>239.99</ele>
        <time>2017-08-07T19:41:57Z</time>
      </trkpt>
      <trkpt lat="48.05593" lon="4.30725">
        <ele>238.54</ele>
        <time>2017-08-07T19:42:00Z</time>
      </trkpt>
      <trkpt lat="48.05575" lon="4.30716">
        <ele>235.66</ele>
        <time>2017-08-07T19:42:04Z</time>
      </trkpt>
      <trkpt lat="48.05562" lon="4.30709">
        <ele>233.74</ele>
        <time>2017-08-07T19:42:07Z</time>
      </trkpt>
      <trkpt lat="48.05546" lon="4.30702">
        <ele>231.33</ele>
        <time>2017-08-07T19:42:10Z</time>
      </trkpt>
      <trkpt lat="48.05525" lon="4.30701">
        <ele>228.45</ele>
        <time>2017-08-07T19:42:14Z</time>
      </trkpt>
      <trkpt lat="48.05507" lon="4.30704">
        <ele>226.05</ele>
        <time>2017-08-07T19:42:17Z</time>
      </trkpt>
      <trkpt lat="48.05495" lon="4.30706">
        <ele>225.57</ele>
        <time>2017-08-07T19:42:19Z</time>
      </trkpt>
      <trkpt lat="48.05473" lon="4.30713">
        <ele>223.64</ele>
        <time>2017-08-07T19:42:22Z</time>
      </trkpt>
      <trkpt lat="48.05445" lon="4.30723">
        <ele>221.72</ele>
        <time>2017-08-07T19:42:26Z</time>
      </trkpt>
      <trkpt lat="48.05414" lon="4.30747">
        <ele>219.32</ele>
        <time>2017-08-07T19:42:32Z</time>
      </trkpt>
      <trkpt lat="48.0539" lon="4.30749">
        <ele>217.88</ele>
        <time>2017-08-07T19:42:38Z</time>
      </trkpt>
      <trkpt lat="48.05367" lon="4.30722">
        <ele>216.43</ele>
        <time>2017-08-07T19:42:45Z</time>
      </trkpt>
      <trkpt lat="48.05353" lon="4.30705">
        <ele>216.43</ele>
        <time>2017-08-07T19:42:49Z</time>
      </trkpt>
      <trkpt lat="48.05321" lon="4.30663">
        <ele>214.51</ele>
        <time>2017-08-07T19:42:59Z</time>
      </trkpt>
      <trkpt lat="48.05292" lon="4.30607">
        <ele>213.07</ele>
        <time>2017-08-07T19:43:11Z</time>
      </trkpt>
      <trkpt lat="48.0526" lon="4.30558">
        <ele>211.63</ele>
        <time>2017-08-07T19:43:23Z</time>
      </trkpt>
      <trkpt lat="48.0523" lon="4.3052">
        <ele>211.15</ele>
        <time>2017-08-07T19:43:33Z</time>
      </trkpt>
      <trkpt lat="48.052" lon="4.30469">
        <ele>210.67</ele>
        <time>2017-08-07T19:43:44Z</time>
      </trkpt>
      <trkpt lat="48.05198" lon="4.30464">
        <ele>210.67</ele>
        <time>2017-08-07T19:43:45Z</time>
      </trkpt>
      <trkpt lat="48.0517" lon="4.30378">
        <ele>208.74</ele>
        <time>2017-08-07T19:44:00Z</time>
      </trkpt>
      <trkpt lat="48.05152" lon="4.30312">
        <ele>207.78</ele>
        <time>2017-08-07T19:44:12Z</time>
      </trkpt>
      <trkpt lat="48.05124" lon="4.30248">
        <ele>207.3</ele>
        <time>2017-08-07T19:44:25Z</time>
      </trkpt>
      <trkpt lat="48.05085" lon="4.30201">
        <ele>206.34</ele>
        <time>2017-08-07T19:44:37Z</time>
      </trkpt>
      <trkpt lat="48.05069" lon="4.30177">
        <ele>205.86</ele>
        <time>2017-08-07T19:44:42Z</time>
      </trkpt>
      <trkpt lat="48.05025" lon="4.30118">
        <ele>204.9</ele>
        <time>2017-08-07T19:44:56Z</time>
      </trkpt>
      <trkpt lat="48.04989" lon="4.30078">
        <ele>204.42</ele>
        <time>2017-08-07T19:45:07Z</time>
      </trkpt>
      <trkpt lat="48.04982" lon="4.30069">
        <ele>203.46</ele>
        <time>2017-08-07T19:45:09Z</time>
      </trkpt>
      <trkpt lat="48.04966" lon="4.3005">
        <ele>203.46</ele>
        <time>2017-08-07T19:45:14Z</time>
      </trkpt>
      <trkpt lat="48.04949" lon="4.30017">
        <ele>203.46</ele>
        <time>2017-08-07T19:45:20Z</time>
      </trkpt>
      <trkpt lat="48.04914" lon="4.29959">
        <ele>203.46</ele>
        <time>2017-08-07T19:45:31Z</time>
      </trkpt>
      <trkpt lat="48.04905" lon="4.29942">
        <ele>202.98</ele>
        <time>2017-08-07T19:45:34Z</time>
      </trkpt>
      <trkpt lat="48.04874" lon="4.29889">
        <ele>201.53</ele>
        <time>2017-08-07T19:45:43Z</time>
      </trkpt>
      <trkpt lat="48.04835" lon="4.29823">
        <ele>201.05</ele>
        <time>2017-08-07T19:45:58Z</time>
      </trkpt>
      <trkpt lat="48.0481" lon="4.29786">
        <ele>200.09</ele>
        <time>2017-08-07T19:46:09Z</time>
      </trkpt>
      <trkpt lat="48.04774" lon="4.29735">
        <ele>199.61</ele>
        <time>2017-08-07T19:46:22Z</time>
      </trkpt>
      <trkpt lat="48.04755" lon="4.29692">
        <ele>199.13</ele>
        <time>2017-08-07T19:46:31Z</time>
      </trkpt>
      <trkpt lat="48.04739" lon="4.29626">
        <ele>198.17</ele>
        <time>2017-08-07T19:46:42Z</time>
      </trkpt>
      <trkpt lat="48.04732" lon="4.29563">
        <ele>197.69</ele>
        <time>2017-08-07T19:46:52Z</time>
      </trkpt>
      <trkpt lat="48.04721" lon="4.29497">
        <ele>196.73</ele>
        <time>2017-08-07T19:47:04Z</time>
      </trkpt>
      <trkpt lat="48.04689" lon="4.29434">
        <ele>195.28</ele>
        <time>2017-08-07T19:47:15Z</time>
      </trkpt>
      <trkpt lat="48.04678" lon="4.29417">
        <ele>195.28</ele>
        <time>2017-08-07T19:47:18Z</time>
      </trkpt>
      <trkpt lat="48.04663" lon="4.29396">
        <ele>195.28</ele>
        <time>2017-08-07T19:47:22Z</time>
      </trkpt>
      <trkpt lat="48.04638" lon="4.29368">
        <ele>194.8</ele>
        <time>2017-08-07T19:47:28Z</time>
      </trkpt>
      <trkpt lat="48.04594" lon="4.2933">
        <ele>194.32</ele>
        <time>2017-08-07T19:47:40Z</time>
      </trkpt>
      <trkpt lat="48.0452" lon="4.29273">
        <ele>192.88</ele>
        <time>2017-08-07T19:47:56Z</time>
      </trkpt>
      <trkpt lat="48.04516" lon="4.29269">
        <ele>192.88</ele>
        <time>2017-08-07T19:47:57Z</time>
      </trkpt>
      <trkpt lat="48.04509" lon="4.2926">
        <ele>192.4</ele>
        <time>2017-08-07T19:47:59Z</time>
      </trkpt>
      <trkpt lat="48.04495" lon="4.2924">
        <ele>191.92</ele>
        <time>2017-08-07T19:48:03Z</time>
      </trkpt>
      <trkpt lat="48.04481" lon="4.29217">
        <ele>191.44</ele>
        <time>2017-08-07T19:48:07Z</time>
      </trkpt>
      <trkpt lat="48.04464" lon="4.29171">
        <ele>190.96</ele>
        <time>2017-08-07T19:48:14Z</time>
      </trkpt>
      <trkpt lat="48.04456" lon="4.2914">
        <ele>190</ele>
        <time>2017-08-07T19:48:18Z</time>
      </trkpt>
      <trkpt lat="48.04439" lon="4.29071">
        <ele>189.52</ele>
        <time>2017-08-07T19:48:27Z</time>
      </trkpt>
      <trkpt lat="48.04421" lon="4.2898">
        <ele>189.52</ele>
        <time>2017-08-07T19:48:41Z</time>
      </trkpt>
      <trkpt lat="48.04386" lon="4.28874">
        <ele>187.59</ele>
        <time>2017-08-07T19:48:56Z</time>
      </trkpt>
      <trkpt lat="48.04343" lon="4.28782">
        <ele>186.63</ele>
        <time>2017-08-07T19:49:11Z</time>
      </trkpt>
      <trkpt lat="48.0434" lon="4.28776">
        <ele>186.63</ele>
        <time>2017-08-07T19:49:12Z</time>
      </trkpt>
      <trkpt lat="48.043" lon="4.28661">
        <ele>186.15</ele>
        <time>2017-08-07T19:49:29Z</time>
      </trkpt>
      <trkpt lat="48.04285" lon="4.28581">
        <ele>185.67</ele>
        <time>2017-08-07T19:49:43Z</time>
      </trkpt>
      <trkpt lat="48.04263" lon="4.28462">
        <ele>184.71</ele>
        <time>2017-08-07T19:50:01Z</time>
      </trkpt>
      <trkpt lat="48.04256" lon="4.28435">
        <ele>184.71</ele>
        <time>2017-08-07T19:50:05Z</time>
      </trkpt>
      <trkpt lat="48.04244" lon="4.28389">
        <ele>184.23</ele>
        <time>2017-08-07T19:50:14Z</time>
      </trkpt>
      <trkpt lat="48.04241" lon="4.2839">
        <ele>184.23</ele>
        <time>2017-08-07T19:50:16Z</time>
      </trkpt>
      <trkpt lat="48.0424" lon="4.28392">
        <ele>184.23</ele>
        <time>2017-08-07T19:50:17Z</time>
      </trkpt>
      <trkpt lat="48.04239" lon="4.28395">
        <ele>184.23</ele>
        <time>2017-08-07T19:50:18Z</time>
      </trkpt>
      <trkpt lat="48.0423" lon="4.28457">
        <ele>184.23</ele>
        <time>2017-08-07T19:50:32Z</time>
      </trkpt>
      <trkpt lat="48.04229" lon="4.28466">
        <ele>185.67</ele>
        <time>2017-08-07T19:50:40Z</time>
      </trkpt>
      <trkpt lat="48.04229" lon="4.28463">
        <ele>185.67</ele>
        <time>2017-08-07T19:50:50Z</time>
      </trkpt>
      <trkpt lat="48.04229" lon="4.28464">
        <ele>185.67</ele>
        <time>2017-08-07T19:51:20Z</time>
      </trkpt>
      <trkpt lat="48.0423" lon="4.28466">
        <ele>185.67</ele>
        <time>2017-08-07T19:51:49Z</time>
      </trkpt>
      <trkpt lat="48.04229" lon="4.28461">
        <ele>185.67</ele>
        <time>2017-08-07T19:52:12Z</time>
      </trkpt>
      <trkpt lat="48.04229" lon="4.28459">
        <ele>185.67</ele>
        <time>2017-08-07T19:52:13Z</time>
      </trkpt>
      <trkpt lat="48.0423" lon="4.28457">
        <ele>185.67</ele>
        <time>2017-08-07T19:52:14Z</time>
      </trkpt>
      <trkpt lat="48.0423" lon="4.28454">
        <ele>185.67</ele>
        <time>2017-08-07T19:52:15Z</time>
      </trkpt>
      <trkpt lat="48.04231" lon="4.2845">
        <ele>185.67</ele>
        <time>2017-08-07T19:52:16Z</time>
      </trkpt>
      <trkpt lat="48.04231" lon="4.28447">
        <ele>185.67</ele>
        <time>2017-08-07T19:52:17Z</time>
      </trkpt>
      <trkpt lat="48.04241" lon="4.28375">
        <ele>184.71</ele>
        <time>2017-08-07T19:52:32Z</time>
      </trkpt>
      <trkpt lat="48.04244" lon="4.28354">
        <ele>184.71</ele>
        <time>2017-08-07T19:52:38Z</time>
      </trkpt>
      <trkpt lat="48.04242" lon="4.28354">
        <ele>184.71</ele>
        <time>2017-08-07T19:52:39Z</time>
      </trkpt>
      <trkpt lat="48.0424" lon="4.28356">
        <ele>184.71</ele>
        <time>2017-08-07T19:52:40Z</time>
      </trkpt>
      <trkpt lat="48.04238" lon="4.28358">
        <ele>184.71</ele>
        <time>2017-08-07T19:52:41Z</time>
      </trkpt>
      <trkpt lat="48.04235" lon="4.28361">
        <ele>184.71</ele>
        <time>2017-08-07T19:52:42Z</time>
      </trkpt>
      <trkpt lat="48.04233" lon="4.28365">
        <ele>184.71</ele>
        <time>2017-08-07T19:52:43Z</time>
      </trkpt>
      <trkpt lat="48.0423" lon="4.28368">
        <ele>184.71</ele>
        <time>2017-08-07T19:52:44Z</time>
      </trkpt>
      <trkpt lat="48.04171" lon="4.28433">
        <ele>184.71</ele>
        <time>2017-08-07T19:53:02Z</time>
      </trkpt>
      <trkpt lat="48.04148" lon="4.28459">
        <ele>184.71</ele>
        <time>2017-08-07T19:53:09Z</time>
      </trkpt>
      <trkpt lat="48.04145" lon="4.28463">
        <ele>184.71</ele>
        <time>2017-08-07T19:53:10Z</time>
      </trkpt>
      <trkpt lat="48.04097" lon="4.28516">
        <ele>186.15</ele>
        <time>2017-08-07T19:53:25Z</time>
      </trkpt>
      <trkpt lat="48.04052" lon="4.2857">
        <ele>186.15</ele>
        <time>2017-08-07T19:53:40Z</time>
      </trkpt>
      <trkpt lat="48.04014" lon="4.28628">
        <ele>186.15</ele>
        <time>2017-08-07T19:53:54Z</time>
      </trkpt>
      <trkpt lat="48.03972" lon="4.28689">
        <ele>186.15</ele>
        <time>2017-08-07T19:54:08Z</time>
      </trkpt>
      <trkpt lat="48.03941" lon="4.2873">
        <ele>186.15</ele>
        <time>2017-08-07T19:54:17Z</time>
      </trkpt>
      <trkpt lat="48.03937" lon="4.28735">
        <ele>186.15</ele>
        <time>2017-08-07T19:54:18Z</time>
      </trkpt>
      <trkpt lat="48.03934" lon="4.28739">
        <ele>186.15</ele>
        <time>2017-08-07T19:54:19Z</time>
      </trkpt>
      <trkpt lat="48.0388" lon="4.28813">
        <ele>186.15</ele>
        <time>2017-08-07T19:54:34Z</time>
      </trkpt>
      <trkpt lat="48.03826" lon="4.28896">
        <ele>186.15</ele>
        <time>2017-08-07T19:54:52Z</time>
      </trkpt>
      <trkpt lat="48.03774" lon="4.28977">
        <ele>186.15</ele>
        <time>2017-08-07T19:55:11Z</time>
      </trkpt>
      <trkpt lat="48.03736" lon="4.29034">
        <ele>187.11</ele>
        <time>2017-08-07T19:55:25Z</time>
      </trkpt>
      <trkpt lat="48.03687" lon="4.2912">
        <ele>187.59</ele>
        <time>2017-08-07T19:55:44Z</time>
      </trkpt>
      <trkpt lat="48.03657" lon="4.29217">
        <ele>188.56</ele>
        <time>2017-08-07T19:56:03Z</time>
      </trkpt>
      <trkpt lat="48.03636" lon="4.29272">
        <ele>188.56</ele>
        <time>2017-08-07T19:56:12Z</time>
      </trkpt>
      <trkpt lat="48.03594" lon="4.29341">
        <ele>187.59</ele>
        <time>2017-08-07T19:56:24Z</time>
      </trkpt>
      <trkpt lat="48.03534" lon="4.29415">
        <ele>187.59</ele>
        <time>2017-08-07T19:56:39Z</time>
      </trkpt>
      <trkpt lat="48.03502" lon="4.29446">
        <ele>187.59</ele>
        <time>2017-08-07T19:56:47Z</time>
      </trkpt>
      <trkpt lat="48.03437" lon="4.29493">
        <ele>188.56</ele>
        <time>2017-08-07T19:57:03Z</time>
      </trkpt>
      <trkpt lat="48.03433" lon="4.29496">
        <ele>188.56</ele>
        <time>2017-08-07T19:57:04Z</time>
      </trkpt>
      <trkpt lat="48.03364" lon="4.29572">
        <ele>188.56</ele>
        <time>2017-08-07T19:57:23Z</time>
      </trkpt>
      <trkpt lat="48.03306" lon="4.29644">
        <ele>189.04</ele>
        <time>2017-08-07T19:57:40Z</time>
      </trkpt>
      <trkpt lat="48.03255" lon="4.2969">
        <ele>189.52</ele>
        <time>2017-08-07T19:57:55Z</time>
      </trkpt>
      <trkpt lat="48.03209" lon="4.29745">
        <ele>189.52</ele>
        <time>2017-08-07T19:58:09Z</time>
      </trkpt>
      <trkpt lat="48.03132" lon="4.29818">
        <ele>189.52</ele>
        <time>2017-08-07T19:58:30Z</time>
      </trkpt>
      <trkpt lat="48.03063" lon="4.29886">
        <ele>189.52</ele>
        <time>2017-08-07T19:58:49Z</time>
      </trkpt>
      <trkpt lat="48.03015" lon="4.29934">
        <ele>190</ele>
        <time>2017-08-07T19:59:03Z</time>
      </trkpt>
      <trkpt lat="48.02954" lon="4.29999">
        <ele>190.48</ele>
        <time>2017-08-07T19:59:22Z</time>
      </trkpt>
      <trkpt lat="48.02901" lon="4.30051">
        <ele>190.96</ele>
        <time>2017-08-07T19:59:39Z</time>
      </trkpt>
      <trkpt lat="48.02861" lon="4.30085">
        <ele>191.44</ele>
        <time>2017-08-07T19:59:56Z</time>
      </trkpt>
      <trkpt lat="48.0284" lon="4.301">
        <ele>191.92</ele>
        <time>2017-08-07T20:00:09Z</time>
      </trkpt>
      <trkpt lat="48.02811" lon="4.30123">
        <ele>192.4</ele>
        <time>2017-08-07T20:00:21Z</time>
      </trkpt>
      <trkpt lat="48.0278" lon="4.30151">
        <ele>192.4</ele>
        <time>2017-08-07T20:00:34Z</time>
      </trkpt>
      <trkpt lat="48.02743" lon="4.30187">
        <ele>192.4</ele>
        <time>2017-08-07T20:00:49Z</time>
      </trkpt>
      <trkpt lat="48.02734" lon="4.30194">
        <ele>192.4</ele>
        <time>2017-08-07T20:00:53Z</time>
      </trkpt>
      <trkpt lat="48.02732" lon="4.30193">
        <ele>192.4</ele>
        <time>2017-08-07T20:00:54Z</time>
      </trkpt>
      <trkpt lat="48.0273" lon="4.3019">
        <ele>192.4</ele>
        <time>2017-08-07T20:00:55Z</time>
      </trkpt>
      <trkpt lat="48.02709" lon="4.30137">
        <ele>192.4</ele>
        <time>2017-08-07T20:01:08Z</time>
      </trkpt>
      <trkpt lat="48.0269" lon="4.30091">
        <ele>192.4</ele>
        <time>2017-08-07T20:01:21Z</time>
      </trkpt>
      <trkpt lat="48.02664" lon="4.30076">
        <ele>192.4</ele>
        <time>2017-08-07T20:01:30Z</time>
      </trkpt>
      <trkpt lat="48.02643" lon="4.30086">
        <ele>192.4</ele>
        <time>2017-08-07T20:01:36Z</time>
      </trkpt>
      <trkpt lat="48.02639" lon="4.30085">
        <ele>192.4</ele>
        <time>2017-08-07T20:01:37Z</time>
      </trkpt>
      <trkpt lat="48.02636" lon="4.30084">
        <ele>192.4</ele>
        <time>2017-08-07T20:01:38Z</time>
      </trkpt>
      <trkpt lat="48.02609" lon="4.30057">
        <ele>192.4</ele>
        <time>2017-08-07T20:01:46Z</time>
      </trkpt>
      <trkpt lat="48.02602" lon="4.30047">
        <ele>192.4</ele>
        <time>2017-08-07T20:01:48Z</time>
      </trkpt>
      <trkpt lat="48.02558" lon="4.29995">
        <ele>192.4</ele>
        <time>2017-08-07T20:02:02Z</time>
      </trkpt>
      <trkpt lat="48.02532" lon="4.29964">
        <ele>192.88</ele>
        <time>2017-08-07T20:02:12Z</time>
      </trkpt>
      <trkpt lat="48.02528" lon="4.29964">
        <ele>192.88</ele>
        <time>2017-08-07T20:02:13Z</time>
      </trkpt>
      <trkpt lat="48.02525" lon="4.29964">
        <ele>192.88</ele>
        <time>2017-08-07T20:02:14Z</time>
      </trkpt>
      <trkpt lat="48.02467" lon="4.29997">
        <ele>193.36</ele>
        <time>2017-08-07T20:02:29Z</time>
      </trkpt>
      <trkpt lat="48.02464" lon="4.29999">
        <ele>193.36</ele>
        <time>2017-08-07T20:02:31Z</time>
      </trkpt>
      <trkpt lat="48.02469" lon="4.30001">
        <ele>193.36</ele>
        <time>2017-08-07T20:02:35Z</time>
      </trkpt>
      <trkpt lat="48.0247" lon="4.29999">
        <ele>193.36</ele>
        <time>2017-08-07T20:02:36Z</time>
      </trkpt>
      <trkpt lat="48.02465" lon="4.29998">
        <ele>193.36</ele>
        <time>2017-08-07T20:02:39Z</time>
      </trkpt>
      <trkpt lat="48.02461" lon="4.30001">
        <ele>193.36</ele>
        <time>2017-08-07T20:02:40Z</time>
      </trkpt>
      <trkpt lat="48.02444" lon="4.30013">
        <ele>193.36</ele>
        <time>2017-08-07T20:02:44Z</time>
      </trkpt>
      <trkpt lat="48.02375" lon="4.30067">
        <ele>191.92</ele>
        <time>2017-08-07T20:02:58Z</time>
      </trkpt>
      <trkpt lat="48.02297" lon="4.30125">
        <ele>191.92</ele>
        <time>2017-08-07T20:03:15Z</time>
      </trkpt>
      <trkpt lat="48.02288" lon="4.30132">
        <ele>191.92</ele>
        <time>2017-08-07T20:03:17Z</time>
      </trkpt>
      <trkpt lat="48.0222" lon="4.30196">
        <ele>191.92</ele>
        <time>2017-08-07T20:03:33Z</time>
      </trkpt>
      <trkpt lat="48.022" lon="4.30218">
        <ele>193.36</ele>
        <time>2017-08-07T20:03:38Z</time>
      </trkpt>
      <trkpt lat="48.0213" lon="4.30292">
        <ele>194.32</ele>
        <time>2017-08-07T20:03:55Z</time>
      </trkpt>
      <trkpt lat="48.02098" lon="4.30328">
        <ele>194.8</ele>
        <time>2017-08-07T20:04:03Z</time>
      </trkpt>
      <trkpt lat="48.02037" lon="4.30393">
        <ele>196.25</ele>
        <time>2017-08-07T20:04:19Z</time>
      </trkpt>
      <trkpt lat="48.01967" lon="4.30468">
        <ele>197.21</ele>
        <time>2017-08-07T20:04:40Z</time>
      </trkpt>
      <trkpt lat="48.01907" lon="4.30533">
        <ele>199.13</ele>
        <time>2017-08-07T20:05:00Z</time>
      </trkpt>
      <trkpt lat="48.01848" lon="4.30597">
        <ele>200.09</ele>
        <time>2017-08-07T20:05:19Z</time>
      </trkpt>
      <trkpt lat="48.01793" lon="4.3066">
        <ele>201.53</ele>
        <time>2017-08-07T20:05:37Z</time>
      </trkpt>
      <trkpt lat="48.01777" lon="4.30681">
        <ele>200.57</ele>
        <time>2017-08-07T20:05:43Z</time>
      </trkpt>
    </trkseg>
  </trk>
</gpx>